<?xml version="1.0" encoding="UTF-8" standalone="no" ?>
<gpx xmlns="http://www.topografix.com/GPX/1/1" xmlns:xsi="http://www.w3.org/2001/XMLSchema-instance" xsi:schemaLocation="http://www.topografix.com/GPX/1/1 http://www.topografix.com/GPX/1/1/gpx.xsd" version="1.1" creator="VisuGPX - https://www.visugpx.com">
  <metadata>
    <name>Tëte de Parassac</name>
    <desc><![CDATA[TÊTE DE PARASSAC : partis pour le pas de l'Enchastraye nous avons stoppé pour aller sur ce sommet tout blanc qui nous tendait les bras. Retour par le vallon de Parassac. Au final superbe sortie avec de magnifiques paysages ]]></desc>
  </metadata>
  <trk>
    <name><![CDATA[HAUTE UBAYE J4]]></name>
    <desc><![CDATA[TÊTE DE PARASSAC : partis pour le pas de l'Enchastraye nous avons stoppé pour aller sur ce sommet tout blanc qui nous tendait les bras. Retour par le vallon de Parassac. Au final superbe sortie avec de magnifiques paysages ]]></desc>
    <trkseg>
      <trkpt lat="44.4272" lon="6.89254">
        <ele>1945</ele>
        <time>2022-03-09T08:38:46.000Z</time>
      </trkpt>
      <trkpt lat="44.4272" lon="6.89253">
        <ele>1945</ele>
        <time>2022-03-09T08:38:54.000Z</time>
      </trkpt>
      <trkpt lat="44.42722" lon="6.89247">
        <ele>1944.8000488281</ele>
        <time>2022-03-09T08:38:58.000Z</time>
      </trkpt>
      <trkpt lat="44.4273" lon="6.89226">
        <ele>1944.5999755859</ele>
        <time>2022-03-09T08:39:12.000Z</time>
      </trkpt>
      <trkpt lat="44.42736" lon="6.89217">
        <ele>1944</ele>
        <time>2022-03-09T08:39:22.000Z</time>
      </trkpt>
      <trkpt lat="44.42737" lon="6.89215">
        <ele>1944</ele>
        <time>2022-03-09T08:39:23.000Z</time>
      </trkpt>
      <trkpt lat="44.42742" lon="6.892">
        <ele>1943.4000244141</ele>
        <time>2022-03-09T08:39:34.000Z</time>
      </trkpt>
      <trkpt lat="44.42745" lon="6.89191">
        <ele>1943</ele>
        <time>2022-03-09T08:39:41.000Z</time>
      </trkpt>
      <trkpt lat="44.42749" lon="6.89181">
        <ele>1942.5999755859</ele>
        <time>2022-03-09T08:39:48.000Z</time>
      </trkpt>
      <trkpt lat="44.42753" lon="6.8917">
        <ele>1942</ele>
        <time>2022-03-09T08:39:56.000Z</time>
      </trkpt>
      <trkpt lat="44.42756" lon="6.89162">
        <ele>1941.8000488281</ele>
        <time>2022-03-09T08:40:01.000Z</time>
      </trkpt>
      <trkpt lat="44.42762" lon="6.89143">
        <ele>1941</ele>
        <time>2022-03-09T08:40:15.000Z</time>
      </trkpt>
      <trkpt lat="44.42763" lon="6.89142">
        <ele>1940.8000488281</ele>
        <time>2022-03-09T08:40:16.000Z</time>
      </trkpt>
      <trkpt lat="44.42768" lon="6.89122">
        <ele>1940</ele>
        <time>2022-03-09T08:40:29.000Z</time>
      </trkpt>
      <trkpt lat="44.42769" lon="6.8912">
        <ele>1940</ele>
        <time>2022-03-09T08:40:30.000Z</time>
      </trkpt>
      <trkpt lat="44.4277" lon="6.89102">
        <ele>1939.4000244141</ele>
        <time>2022-03-09T08:40:41.000Z</time>
      </trkpt>
      <trkpt lat="44.42769" lon="6.89091">
        <ele>1938.8000488281</ele>
        <time>2022-03-09T08:40:48.000Z</time>
      </trkpt>
      <trkpt lat="44.42768" lon="6.89082">
        <ele>1938.5999755859</ele>
        <time>2022-03-09T08:40:53.000Z</time>
      </trkpt>
      <trkpt lat="44.42764" lon="6.89061">
        <ele>1937.8000488281</ele>
        <time>2022-03-09T08:41:06.000Z</time>
      </trkpt>
      <trkpt lat="44.42761" lon="6.89046">
        <ele>1937.1999511719</ele>
        <time>2022-03-09T08:41:18.000Z</time>
      </trkpt>
      <trkpt lat="44.42757" lon="6.89045">
        <ele>1937.1999511719</ele>
        <time>2022-03-09T08:41:22.000Z</time>
      </trkpt>
      <trkpt lat="44.42755" lon="6.89047">
        <ele>1936.5999755859</ele>
        <time>2022-03-09T08:41:25.000Z</time>
      </trkpt>
      <trkpt lat="44.42755" lon="6.89048">
        <ele>1936.4000244141</ele>
        <time>2022-03-09T08:41:26.000Z</time>
      </trkpt>
      <trkpt lat="44.42752" lon="6.89058">
        <ele>1935.4000244141</ele>
        <time>2022-03-09T08:41:33.000Z</time>
      </trkpt>
      <trkpt lat="44.42752" lon="6.89061">
        <ele>1935</ele>
        <time>2022-03-09T08:41:35.000Z</time>
      </trkpt>
      <trkpt lat="44.42752" lon="6.8907">
        <ele>1934.1999511719</ele>
        <time>2022-03-09T08:41:41.000Z</time>
      </trkpt>
      <trkpt lat="44.42752" lon="6.8908">
        <ele>1933.8000488281</ele>
        <time>2022-03-09T08:41:47.000Z</time>
      </trkpt>
      <trkpt lat="44.42752" lon="6.89092">
        <ele>1933.1999511719</ele>
        <time>2022-03-09T08:41:55.000Z</time>
      </trkpt>
      <trkpt lat="44.42751" lon="6.891">
        <ele>1932.5999755859</ele>
        <time>2022-03-09T08:42:02.000Z</time>
      </trkpt>
      <trkpt lat="44.4275" lon="6.89102">
        <ele>1932.1999511719</ele>
        <time>2022-03-09T08:42:06.000Z</time>
      </trkpt>
      <trkpt lat="44.42747" lon="6.89106">
        <ele>1931</ele>
        <time>2022-03-09T08:42:11.000Z</time>
      </trkpt>
      <trkpt lat="44.42746" lon="6.89106">
        <ele>1930.8000488281</ele>
        <time>2022-03-09T08:42:12.000Z</time>
      </trkpt>
      <trkpt lat="44.42744" lon="6.89105">
        <ele>1929.8000488281</ele>
        <time>2022-03-09T08:42:16.000Z</time>
      </trkpt>
      <trkpt lat="44.42743" lon="6.89105">
        <ele>1929.5999755859</ele>
        <time>2022-03-09T08:42:17.000Z</time>
      </trkpt>
      <trkpt lat="44.42742" lon="6.89108">
        <ele>1928.5999755859</ele>
        <time>2022-03-09T08:42:20.000Z</time>
      </trkpt>
      <trkpt lat="44.4274" lon="6.89109">
        <ele>1927.5999755859</ele>
        <time>2022-03-09T08:42:24.000Z</time>
      </trkpt>
      <trkpt lat="44.42738" lon="6.8911">
        <ele>1927.4000244141</ele>
        <time>2022-03-09T08:42:25.000Z</time>
      </trkpt>
      <trkpt lat="44.42733" lon="6.89109">
        <ele>1926.1999511719</ele>
        <time>2022-03-09T08:42:30.000Z</time>
      </trkpt>
      <trkpt lat="44.4273" lon="6.89109">
        <ele>1925.8000488281</ele>
        <time>2022-03-09T08:42:33.000Z</time>
      </trkpt>
      <trkpt lat="44.42725" lon="6.89107">
        <ele>1925.8000488281</ele>
        <time>2022-03-09T08:42:38.000Z</time>
      </trkpt>
      <trkpt lat="44.42722" lon="6.89105">
        <ele>1925.5999755859</ele>
        <time>2022-03-09T08:42:42.000Z</time>
      </trkpt>
      <trkpt lat="44.42718" lon="6.89096">
        <ele>1926.4000244141</ele>
        <time>2022-03-09T08:42:51.000Z</time>
      </trkpt>
      <trkpt lat="44.42712" lon="6.89085">
        <ele>1927.1999511719</ele>
        <time>2022-03-09T08:43:02.000Z</time>
      </trkpt>
      <trkpt lat="44.42708" lon="6.89074">
        <ele>1928</ele>
        <time>2022-03-09T08:43:12.000Z</time>
      </trkpt>
      <trkpt lat="44.42706" lon="6.89071">
        <ele>1928.4000244141</ele>
        <time>2022-03-09T08:43:16.000Z</time>
      </trkpt>
      <trkpt lat="44.42703" lon="6.89064">
        <ele>1929</ele>
        <time>2022-03-09T08:43:22.000Z</time>
      </trkpt>
      <trkpt lat="44.42699" lon="6.89056">
        <ele>1929.4000244141</ele>
        <time>2022-03-09T08:43:30.000Z</time>
      </trkpt>
      <trkpt lat="44.42697" lon="6.89053">
        <ele>1929.5999755859</ele>
        <time>2022-03-09T08:43:33.000Z</time>
      </trkpt>
      <trkpt lat="44.42691" lon="6.8904">
        <ele>1930.4000244141</ele>
        <time>2022-03-09T08:43:45.000Z</time>
      </trkpt>
      <trkpt lat="44.42687" lon="6.89038">
        <ele>1930.5999755859</ele>
        <time>2022-03-09T08:43:49.000Z</time>
      </trkpt>
      <trkpt lat="44.42682" lon="6.89033">
        <ele>1931</ele>
        <time>2022-03-09T08:43:55.000Z</time>
      </trkpt>
      <trkpt lat="44.42674" lon="6.89025">
        <ele>1931.5999755859</ele>
        <time>2022-03-09T08:44:07.000Z</time>
      </trkpt>
      <trkpt lat="44.42673" lon="6.89023">
        <ele>1931.5999755859</ele>
        <time>2022-03-09T08:44:09.000Z</time>
      </trkpt>
      <trkpt lat="44.42665" lon="6.89016">
        <ele>1931.8000488281</ele>
        <time>2022-03-09T08:44:18.000Z</time>
      </trkpt>
      <trkpt lat="44.42658" lon="6.89003">
        <ele>1932.5999755859</ele>
        <time>2022-03-09T08:44:30.000Z</time>
      </trkpt>
      <trkpt lat="44.42658" lon="6.89002">
        <ele>1932.5999755859</ele>
        <time>2022-03-09T08:44:31.000Z</time>
      </trkpt>
      <trkpt lat="44.42653" lon="6.88985">
        <ele>1933</ele>
        <time>2022-03-09T08:44:44.000Z</time>
      </trkpt>
      <trkpt lat="44.42648" lon="6.88969">
        <ele>1933.4000244141</ele>
        <time>2022-03-09T08:44:57.000Z</time>
      </trkpt>
      <trkpt lat="44.42639" lon="6.88954">
        <ele>1933.4000244141</ele>
        <time>2022-03-09T08:45:10.000Z</time>
      </trkpt>
      <trkpt lat="44.42634" lon="6.88946">
        <ele>1933.5999755859</ele>
        <time>2022-03-09T08:45:17.000Z</time>
      </trkpt>
      <trkpt lat="44.42631" lon="6.88942">
        <ele>1933.5999755859</ele>
        <time>2022-03-09T08:45:21.000Z</time>
      </trkpt>
      <trkpt lat="44.4262" lon="6.88925">
        <ele>1934.1999511719</ele>
        <time>2022-03-09T08:45:36.000Z</time>
      </trkpt>
      <trkpt lat="44.42612" lon="6.88915">
        <ele>1934.4000244141</ele>
        <time>2022-03-09T08:45:46.000Z</time>
      </trkpt>
      <trkpt lat="44.42607" lon="6.88914">
        <ele>1934.5999755859</ele>
        <time>2022-03-09T08:45:52.000Z</time>
      </trkpt>
      <trkpt lat="44.42603" lon="6.88914">
        <ele>1934.8000488281</ele>
        <time>2022-03-09T08:45:55.000Z</time>
      </trkpt>
      <trkpt lat="44.42591" lon="6.88913">
        <ele>1934.4000244141</ele>
        <time>2022-03-09T08:46:06.000Z</time>
      </trkpt>
      <trkpt lat="44.42578" lon="6.88914">
        <ele>1934.5999755859</ele>
        <time>2022-03-09T08:46:19.000Z</time>
      </trkpt>
      <trkpt lat="44.42565" lon="6.88919">
        <ele>1934.1999511719</ele>
        <time>2022-03-09T08:46:31.000Z</time>
      </trkpt>
      <trkpt lat="44.4256" lon="6.88919">
        <ele>1933.5999755859</ele>
        <time>2022-03-09T08:46:35.000Z</time>
      </trkpt>
      <trkpt lat="44.42553" lon="6.8892">
        <ele>1933</ele>
        <time>2022-03-09T08:46:42.000Z</time>
      </trkpt>
      <trkpt lat="44.4255" lon="6.88921">
        <ele>1932.5999755859</ele>
        <time>2022-03-09T08:46:45.000Z</time>
      </trkpt>
      <trkpt lat="44.42542" lon="6.88921">
        <ele>1931.5999755859</ele>
        <time>2022-03-09T08:46:53.000Z</time>
      </trkpt>
      <trkpt lat="44.42536" lon="6.88922">
        <ele>1930.5999755859</ele>
        <time>2022-03-09T08:46:59.000Z</time>
      </trkpt>
      <trkpt lat="44.4253" lon="6.88924">
        <ele>1929.8000488281</ele>
        <time>2022-03-09T08:47:04.000Z</time>
      </trkpt>
      <trkpt lat="44.42527" lon="6.88924">
        <ele>1929.4000244141</ele>
        <time>2022-03-09T08:47:07.000Z</time>
      </trkpt>
      <trkpt lat="44.42519" lon="6.88926">
        <ele>1928.4000244141</ele>
        <time>2022-03-09T08:47:14.000Z</time>
      </trkpt>
      <trkpt lat="44.42515" lon="6.88926">
        <ele>1928</ele>
        <time>2022-03-09T08:47:17.000Z</time>
      </trkpt>
      <trkpt lat="44.42506" lon="6.88928">
        <ele>1927.1999511719</ele>
        <time>2022-03-09T08:47:25.000Z</time>
      </trkpt>
      <trkpt lat="44.42504" lon="6.88928">
        <ele>1926.8000488281</ele>
        <time>2022-03-09T08:47:27.000Z</time>
      </trkpt>
      <trkpt lat="44.42499" lon="6.88928">
        <ele>1926</ele>
        <time>2022-03-09T08:47:32.000Z</time>
      </trkpt>
      <trkpt lat="44.42489" lon="6.88929">
        <ele>1925.1999511719</ele>
        <time>2022-03-09T08:47:40.000Z</time>
      </trkpt>
      <trkpt lat="44.42488" lon="6.88929">
        <ele>1925</ele>
        <time>2022-03-09T08:47:41.000Z</time>
      </trkpt>
      <trkpt lat="44.42482" lon="6.88928">
        <ele>1924</ele>
        <time>2022-03-09T08:47:47.000Z</time>
      </trkpt>
      <trkpt lat="44.42476" lon="6.88927">
        <ele>1923.4000244141</ele>
        <time>2022-03-09T08:47:52.000Z</time>
      </trkpt>
      <trkpt lat="44.42473" lon="6.88927">
        <ele>1923</ele>
        <time>2022-03-09T08:47:55.000Z</time>
      </trkpt>
      <trkpt lat="44.42462" lon="6.88929">
        <ele>1921.8000488281</ele>
        <time>2022-03-09T08:48:04.000Z</time>
      </trkpt>
      <trkpt lat="44.42461" lon="6.88929">
        <ele>1921.8000488281</ele>
        <time>2022-03-09T08:48:05.000Z</time>
      </trkpt>
      <trkpt lat="44.42453" lon="6.8893">
        <ele>1920.5999755859</ele>
        <time>2022-03-09T08:48:12.000Z</time>
      </trkpt>
      <trkpt lat="44.42446" lon="6.8893">
        <ele>1920</ele>
        <time>2022-03-09T08:48:19.000Z</time>
      </trkpt>
      <trkpt lat="44.42443" lon="6.8893">
        <ele>1919.5999755859</ele>
        <time>2022-03-09T08:48:22.000Z</time>
      </trkpt>
      <trkpt lat="44.42437" lon="6.88928">
        <ele>1919.4000244141</ele>
        <time>2022-03-09T08:48:29.000Z</time>
      </trkpt>
      <trkpt lat="44.42436" lon="6.88927">
        <ele>1919.4000244141</ele>
        <time>2022-03-09T08:48:30.000Z</time>
      </trkpt>
      <trkpt lat="44.42425" lon="6.88924">
        <ele>1918.8000488281</ele>
        <time>2022-03-09T08:48:40.000Z</time>
      </trkpt>
      <trkpt lat="44.42423" lon="6.88924">
        <ele>1918.4000244141</ele>
        <time>2022-03-09T08:48:42.000Z</time>
      </trkpt>
      <trkpt lat="44.42413" lon="6.88921">
        <ele>1917.4000244141</ele>
        <time>2022-03-09T08:48:51.000Z</time>
      </trkpt>
      <trkpt lat="44.42408" lon="6.8892">
        <ele>1917</ele>
        <time>2022-03-09T08:48:55.000Z</time>
      </trkpt>
      <trkpt lat="44.42404" lon="6.88919">
        <ele>1916.4000244141</ele>
        <time>2022-03-09T08:48:59.000Z</time>
      </trkpt>
      <trkpt lat="44.42392" lon="6.88917">
        <ele>1915.8000488281</ele>
        <time>2022-03-09T08:49:10.000Z</time>
      </trkpt>
      <trkpt lat="44.42387" lon="6.88916">
        <ele>1915.4000244141</ele>
        <time>2022-03-09T08:49:14.000Z</time>
      </trkpt>
      <trkpt lat="44.42376" lon="6.88914">
        <ele>1914.5999755859</ele>
        <time>2022-03-09T08:49:24.000Z</time>
      </trkpt>
      <trkpt lat="44.42368" lon="6.88912">
        <ele>1914.1999511719</ele>
        <time>2022-03-09T08:49:31.000Z</time>
      </trkpt>
      <trkpt lat="44.42364" lon="6.8891">
        <ele>1914</ele>
        <time>2022-03-09T08:49:35.000Z</time>
      </trkpt>
      <trkpt lat="44.42349" lon="6.88905">
        <ele>1913.4000244141</ele>
        <time>2022-03-09T08:49:48.000Z</time>
      </trkpt>
      <trkpt lat="44.42348" lon="6.88905">
        <ele>1913.1999511719</ele>
        <time>2022-03-09T08:49:49.000Z</time>
      </trkpt>
      <trkpt lat="44.42339" lon="6.88904">
        <ele>1912.1999511719</ele>
        <time>2022-03-09T08:49:58.000Z</time>
      </trkpt>
      <trkpt lat="44.42337" lon="6.88904">
        <ele>1912</ele>
        <time>2022-03-09T08:50:00.000Z</time>
      </trkpt>
      <trkpt lat="44.42331" lon="6.88899">
        <ele>1911.1999511719</ele>
        <time>2022-03-09T08:50:07.000Z</time>
      </trkpt>
      <trkpt lat="44.42329" lon="6.88897">
        <ele>1910.8000488281</ele>
        <time>2022-03-09T08:50:09.000Z</time>
      </trkpt>
      <trkpt lat="44.42324" lon="6.88894">
        <ele>1910.1999511719</ele>
        <time>2022-03-09T08:50:14.000Z</time>
      </trkpt>
      <trkpt lat="44.42318" lon="6.88889">
        <ele>1909.4000244141</ele>
        <time>2022-03-09T08:50:21.000Z</time>
      </trkpt>
      <trkpt lat="44.42315" lon="6.88887">
        <ele>1908.8000488281</ele>
        <time>2022-03-09T08:50:24.000Z</time>
      </trkpt>
      <trkpt lat="44.42305" lon="6.8888">
        <ele>1907.8000488281</ele>
        <time>2022-03-09T08:50:34.000Z</time>
      </trkpt>
      <trkpt lat="44.42303" lon="6.88879">
        <ele>1907.5999755859</ele>
        <time>2022-03-09T08:50:36.000Z</time>
      </trkpt>
      <trkpt lat="44.4229" lon="6.8887">
        <ele>1906.8000488281</ele>
        <time>2022-03-09T08:50:48.000Z</time>
      </trkpt>
      <trkpt lat="44.42277" lon="6.88862">
        <ele>1906.4000244141</ele>
        <time>2022-03-09T08:51:02.000Z</time>
      </trkpt>
      <trkpt lat="44.42267" lon="6.88855">
        <ele>1905.5999755859</ele>
        <time>2022-03-09T08:51:12.000Z</time>
      </trkpt>
      <trkpt lat="44.42263" lon="6.88854">
        <ele>1905.4000244141</ele>
        <time>2022-03-09T08:51:15.000Z</time>
      </trkpt>
      <trkpt lat="44.42251" lon="6.88848">
        <ele>1904.5999755859</ele>
        <time>2022-03-09T08:51:26.000Z</time>
      </trkpt>
      <trkpt lat="44.42248" lon="6.88845">
        <ele>1904.5999755859</ele>
        <time>2022-03-09T08:51:29.000Z</time>
      </trkpt>
      <trkpt lat="44.42233" lon="6.88837">
        <ele>1904.4000244141</ele>
        <time>2022-03-09T08:51:43.000Z</time>
      </trkpt>
      <trkpt lat="44.42219" lon="6.88832">
        <ele>1904</ele>
        <time>2022-03-09T08:51:56.000Z</time>
      </trkpt>
      <trkpt lat="44.42212" lon="6.88826">
        <ele>1903.5999755859</ele>
        <time>2022-03-09T08:52:04.000Z</time>
      </trkpt>
      <trkpt lat="44.42208" lon="6.88821">
        <ele>1902.5999755859</ele>
        <time>2022-03-09T08:52:10.000Z</time>
      </trkpt>
      <trkpt lat="44.42207" lon="6.8882">
        <ele>1902.5999755859</ele>
        <time>2022-03-09T08:52:11.000Z</time>
      </trkpt>
      <trkpt lat="44.42204" lon="6.88814">
        <ele>1902.1999511719</ele>
        <time>2022-03-09T08:52:18.000Z</time>
      </trkpt>
      <trkpt lat="44.42203" lon="6.88811">
        <ele>1901.4000244141</ele>
        <time>2022-03-09T08:52:22.000Z</time>
      </trkpt>
      <trkpt lat="44.42202" lon="6.8881">
        <ele>1901.1999511719</ele>
        <time>2022-03-09T08:52:24.000Z</time>
      </trkpt>
      <trkpt lat="44.422" lon="6.88808">
        <ele>1901</ele>
        <time>2022-03-09T08:52:30.000Z</time>
      </trkpt>
      <trkpt lat="44.422" lon="6.88808">
        <ele>1900.4000244141</ele>
        <time>2022-03-09T08:52:39.000Z</time>
      </trkpt>
      <trkpt lat="44.4219" lon="6.888">
        <ele>1901.4000244141</ele>
        <time>2022-03-09T08:54:20.000Z</time>
      </trkpt>
      <trkpt lat="44.4219" lon="6.88799">
        <ele>1901.4000244141</ele>
        <time>2022-03-09T08:54:54.000Z</time>
      </trkpt>
      <trkpt lat="44.42189" lon="6.88803">
        <ele>1901.4000244141</ele>
        <time>2022-03-09T08:55:45.000Z</time>
      </trkpt>
      <trkpt lat="44.42189" lon="6.88806">
        <ele>1901.4000244141</ele>
        <time>2022-03-09T08:56:29.000Z</time>
      </trkpt>
      <trkpt lat="44.42189" lon="6.88805">
        <ele>1901.1999511719</ele>
        <time>2022-03-09T08:56:44.000Z</time>
      </trkpt>
      <trkpt lat="44.42185" lon="6.88794">
        <ele>1901.1999511719</ele>
        <time>2022-03-09T08:57:33.000Z</time>
      </trkpt>
      <trkpt lat="44.42181" lon="6.88783">
        <ele>1900.5999755859</ele>
        <time>2022-03-09T08:57:42.000Z</time>
      </trkpt>
      <trkpt lat="44.42179" lon="6.88778">
        <ele>1900.4000244141</ele>
        <time>2022-03-09T08:57:46.000Z</time>
      </trkpt>
      <trkpt lat="44.42178" lon="6.8877">
        <ele>1900.4000244141</ele>
        <time>2022-03-09T08:57:55.000Z</time>
      </trkpt>
      <trkpt lat="44.42177" lon="6.88763">
        <ele>1901.5999755859</ele>
        <time>2022-03-09T08:58:03.000Z</time>
      </trkpt>
      <trkpt lat="44.42178" lon="6.88761">
        <ele>1901.8000488281</ele>
        <time>2022-03-09T08:58:05.000Z</time>
      </trkpt>
      <trkpt lat="44.42178" lon="6.88754">
        <ele>1902.5999755859</ele>
        <time>2022-03-09T08:58:12.000Z</time>
      </trkpt>
      <trkpt lat="44.42177" lon="6.88751">
        <ele>1902.5999755859</ele>
        <time>2022-03-09T08:58:16.000Z</time>
      </trkpt>
      <trkpt lat="44.42175" lon="6.88746">
        <ele>1902.8000488281</ele>
        <time>2022-03-09T08:58:20.000Z</time>
      </trkpt>
      <trkpt lat="44.42172" lon="6.88744">
        <ele>1902.8000488281</ele>
        <time>2022-03-09T08:58:24.000Z</time>
      </trkpt>
      <trkpt lat="44.42163" lon="6.88736">
        <ele>1902.5999755859</ele>
        <time>2022-03-09T08:58:34.000Z</time>
      </trkpt>
      <trkpt lat="44.42155" lon="6.8873">
        <ele>1903.1999511719</ele>
        <time>2022-03-09T08:58:45.000Z</time>
      </trkpt>
      <trkpt lat="44.42148" lon="6.88728">
        <ele>1903.1999511719</ele>
        <time>2022-03-09T08:58:53.000Z</time>
      </trkpt>
      <trkpt lat="44.42138" lon="6.88726">
        <ele>1903</ele>
        <time>2022-03-09T08:59:04.000Z</time>
      </trkpt>
      <trkpt lat="44.42128" lon="6.88725">
        <ele>1902.5999755859</ele>
        <time>2022-03-09T08:59:15.000Z</time>
      </trkpt>
      <trkpt lat="44.42128" lon="6.88726">
        <ele>1902.5999755859</ele>
        <time>2022-03-09T08:59:16.000Z</time>
      </trkpt>
      <trkpt lat="44.42125" lon="6.88726">
        <ele>1902.8000488281</ele>
        <time>2022-03-09T08:59:20.000Z</time>
      </trkpt>
      <trkpt lat="44.42123" lon="6.88726">
        <ele>1902.8000488281</ele>
        <time>2022-03-09T08:59:22.000Z</time>
      </trkpt>
      <trkpt lat="44.4212" lon="6.88726">
        <ele>1902.8000488281</ele>
        <time>2022-03-09T08:59:26.000Z</time>
      </trkpt>
      <trkpt lat="44.42118" lon="6.88726">
        <ele>1902.5999755859</ele>
        <time>2022-03-09T08:59:29.000Z</time>
      </trkpt>
      <trkpt lat="44.42113" lon="6.88725">
        <ele>1902.8000488281</ele>
        <time>2022-03-09T08:59:34.000Z</time>
      </trkpt>
      <trkpt lat="44.42102" lon="6.88725">
        <ele>1903.1999511719</ele>
        <time>2022-03-09T08:59:48.000Z</time>
      </trkpt>
      <trkpt lat="44.42098" lon="6.88723">
        <ele>1903.5999755859</ele>
        <time>2022-03-09T08:59:52.000Z</time>
      </trkpt>
      <trkpt lat="44.42091" lon="6.88722">
        <ele>1904</ele>
        <time>2022-03-09T08:59:59.000Z</time>
      </trkpt>
      <trkpt lat="44.42083" lon="6.88722">
        <ele>1904.4000244141</ele>
        <time>2022-03-09T09:00:09.000Z</time>
      </trkpt>
      <trkpt lat="44.42081" lon="6.88721">
        <ele>1904.5999755859</ele>
        <time>2022-03-09T09:00:11.000Z</time>
      </trkpt>
      <trkpt lat="44.42077" lon="6.8872">
        <ele>1905.4000244141</ele>
        <time>2022-03-09T09:00:17.000Z</time>
      </trkpt>
      <trkpt lat="44.42073" lon="6.88719">
        <ele>1905.8000488281</ele>
        <time>2022-03-09T09:00:22.000Z</time>
      </trkpt>
      <trkpt lat="44.4207" lon="6.88717">
        <ele>1906.1999511719</ele>
        <time>2022-03-09T09:00:27.000Z</time>
      </trkpt>
      <trkpt lat="44.42063" lon="6.88717">
        <ele>1906.4000244141</ele>
        <time>2022-03-09T09:00:34.000Z</time>
      </trkpt>
      <trkpt lat="44.42062" lon="6.88717">
        <ele>1906.1999511719</ele>
        <time>2022-03-09T09:00:35.000Z</time>
      </trkpt>
      <trkpt lat="44.42054" lon="6.88715">
        <ele>1906</ele>
        <time>2022-03-09T09:00:44.000Z</time>
      </trkpt>
      <trkpt lat="44.42042" lon="6.88711">
        <ele>1906.1999511719</ele>
        <time>2022-03-09T09:00:57.000Z</time>
      </trkpt>
      <trkpt lat="44.42034" lon="6.88708">
        <ele>1906.1999511719</ele>
        <time>2022-03-09T09:01:06.000Z</time>
      </trkpt>
      <trkpt lat="44.42025" lon="6.88705">
        <ele>1906.1999511719</ele>
        <time>2022-03-09T09:01:16.000Z</time>
      </trkpt>
      <trkpt lat="44.42015" lon="6.88702">
        <ele>1906.4000244141</ele>
        <time>2022-03-09T09:01:27.000Z</time>
      </trkpt>
      <trkpt lat="44.42012" lon="6.88701">
        <ele>1906.4000244141</ele>
        <time>2022-03-09T09:01:30.000Z</time>
      </trkpt>
      <trkpt lat="44.42002" lon="6.88698">
        <ele>1906.1999511719</ele>
        <time>2022-03-09T09:01:40.000Z</time>
      </trkpt>
      <trkpt lat="44.41992" lon="6.88693">
        <ele>1906.1999511719</ele>
        <time>2022-03-09T09:01:51.000Z</time>
      </trkpt>
      <trkpt lat="44.41978" lon="6.88689">
        <ele>1906.5999755859</ele>
        <time>2022-03-09T09:02:05.000Z</time>
      </trkpt>
      <trkpt lat="44.41967" lon="6.88686">
        <ele>1906.1999511719</ele>
        <time>2022-03-09T09:02:17.000Z</time>
      </trkpt>
      <trkpt lat="44.41955" lon="6.88681">
        <ele>1906</ele>
        <time>2022-03-09T09:02:28.000Z</time>
      </trkpt>
      <trkpt lat="44.41945" lon="6.88679">
        <ele>1905.5999755859</ele>
        <time>2022-03-09T09:02:38.000Z</time>
      </trkpt>
      <trkpt lat="44.41936" lon="6.88677">
        <ele>1905.4000244141</ele>
        <time>2022-03-09T09:02:47.000Z</time>
      </trkpt>
      <trkpt lat="44.41929" lon="6.88675">
        <ele>1904.8000488281</ele>
        <time>2022-03-09T09:02:53.000Z</time>
      </trkpt>
      <trkpt lat="44.41925" lon="6.88672">
        <ele>1904.4000244141</ele>
        <time>2022-03-09T09:02:58.000Z</time>
      </trkpt>
      <trkpt lat="44.41915" lon="6.88661">
        <ele>1904</ele>
        <time>2022-03-09T09:03:10.000Z</time>
      </trkpt>
      <trkpt lat="44.41913" lon="6.8866">
        <ele>1903.5999755859</ele>
        <time>2022-03-09T09:03:12.000Z</time>
      </trkpt>
      <trkpt lat="44.41904" lon="6.88658">
        <ele>1902.5999755859</ele>
        <time>2022-03-09T09:03:19.000Z</time>
      </trkpt>
      <trkpt lat="44.41892" lon="6.88659">
        <ele>1901.4000244141</ele>
        <time>2022-03-09T09:03:28.000Z</time>
      </trkpt>
      <trkpt lat="44.41891" lon="6.88659">
        <ele>1901.1999511719</ele>
        <time>2022-03-09T09:03:29.000Z</time>
      </trkpt>
      <trkpt lat="44.41882" lon="6.88663">
        <ele>1900.4000244141</ele>
        <time>2022-03-09T09:03:36.000Z</time>
      </trkpt>
      <trkpt lat="44.41879" lon="6.88663">
        <ele>1900</ele>
        <time>2022-03-09T09:03:38.000Z</time>
      </trkpt>
      <trkpt lat="44.41869" lon="6.88667">
        <ele>1899.4000244141</ele>
        <time>2022-03-09T09:03:48.000Z</time>
      </trkpt>
      <trkpt lat="44.41867" lon="6.88667">
        <ele>1899.1999511719</ele>
        <time>2022-03-09T09:03:50.000Z</time>
      </trkpt>
      <trkpt lat="44.41862" lon="6.88667">
        <ele>1898.4000244141</ele>
        <time>2022-03-09T09:03:56.000Z</time>
      </trkpt>
      <trkpt lat="44.41861" lon="6.88666">
        <ele>1898.4000244141</ele>
        <time>2022-03-09T09:03:57.000Z</time>
      </trkpt>
      <trkpt lat="44.4186" lon="6.88664">
        <ele>1898.1999511719</ele>
        <time>2022-03-09T09:03:58.000Z</time>
      </trkpt>
      <trkpt lat="44.4186" lon="6.88663">
        <ele>1898</ele>
        <time>2022-03-09T09:03:59.000Z</time>
      </trkpt>
      <trkpt lat="44.41858" lon="6.88659">
        <ele>1897.1999511719</ele>
        <time>2022-03-09T09:04:03.000Z</time>
      </trkpt>
      <trkpt lat="44.41857" lon="6.88655">
        <ele>1897</ele>
        <time>2022-03-09T09:04:06.000Z</time>
      </trkpt>
      <trkpt lat="44.41857" lon="6.88653">
        <ele>1896.8000488281</ele>
        <time>2022-03-09T09:04:07.000Z</time>
      </trkpt>
      <trkpt lat="44.41858" lon="6.88647">
        <ele>1896</ele>
        <time>2022-03-09T09:04:11.000Z</time>
      </trkpt>
      <trkpt lat="44.41859" lon="6.88646">
        <ele>1895.8000488281</ele>
        <time>2022-03-09T09:04:13.000Z</time>
      </trkpt>
      <trkpt lat="44.41861" lon="6.88638">
        <ele>1895.4000244141</ele>
        <time>2022-03-09T09:04:20.000Z</time>
      </trkpt>
      <trkpt lat="44.41861" lon="6.88637">
        <ele>1895.1999511719</ele>
        <time>2022-03-09T09:04:21.000Z</time>
      </trkpt>
      <trkpt lat="44.4186" lon="6.88637">
        <ele>1895</ele>
        <time>2022-03-09T09:04:25.000Z</time>
      </trkpt>
      <trkpt lat="44.4186" lon="6.88637">
        <ele>1894.8000488281</ele>
        <time>2022-03-09T09:04:26.000Z</time>
      </trkpt>
      <trkpt lat="44.41857" lon="6.88637">
        <ele>1894.4000244141</ele>
        <time>2022-03-09T09:04:34.000Z</time>
      </trkpt>
      <trkpt lat="44.41853" lon="6.88641">
        <ele>1894</ele>
        <time>2022-03-09T09:04:42.000Z</time>
      </trkpt>
      <trkpt lat="44.41851" lon="6.88642">
        <ele>1894</ele>
        <time>2022-03-09T09:04:44.000Z</time>
      </trkpt>
      <trkpt lat="44.41845" lon="6.88644">
        <ele>1893.5999755859</ele>
        <time>2022-03-09T09:04:50.000Z</time>
      </trkpt>
      <trkpt lat="44.41842" lon="6.88645">
        <ele>1892.8000488281</ele>
        <time>2022-03-09T09:04:53.000Z</time>
      </trkpt>
      <trkpt lat="44.41837" lon="6.88644">
        <ele>1892.4000244141</ele>
        <time>2022-03-09T09:04:58.000Z</time>
      </trkpt>
      <trkpt lat="44.41827" lon="6.88651">
        <ele>1892.1999511719</ele>
        <time>2022-03-09T09:05:09.000Z</time>
      </trkpt>
      <trkpt lat="44.41821" lon="6.88655">
        <ele>1892.1999511719</ele>
        <time>2022-03-09T09:05:16.000Z</time>
      </trkpt>
      <trkpt lat="44.4182" lon="6.88656">
        <ele>1892.4000244141</ele>
        <time>2022-03-09T09:05:18.000Z</time>
      </trkpt>
      <trkpt lat="44.41812" lon="6.88661">
        <ele>1892.8000488281</ele>
        <time>2022-03-09T09:05:29.000Z</time>
      </trkpt>
      <trkpt lat="44.41803" lon="6.88663">
        <ele>1893</ele>
        <time>2022-03-09T09:05:39.000Z</time>
      </trkpt>
      <trkpt lat="44.41799" lon="6.88665">
        <ele>1893</ele>
        <time>2022-03-09T09:05:43.000Z</time>
      </trkpt>
      <trkpt lat="44.41795" lon="6.88664">
        <ele>1892.8000488281</ele>
        <time>2022-03-09T09:05:46.000Z</time>
      </trkpt>
      <trkpt lat="44.41792" lon="6.88664">
        <ele>1892.5999755859</ele>
        <time>2022-03-09T09:05:49.000Z</time>
      </trkpt>
      <trkpt lat="44.4179" lon="6.88664">
        <ele>1892.4000244141</ele>
        <time>2022-03-09T09:05:50.000Z</time>
      </trkpt>
      <trkpt lat="44.41789" lon="6.88663">
        <ele>1892.4000244141</ele>
        <time>2022-03-09T09:05:53.000Z</time>
      </trkpt>
      <trkpt lat="44.41786" lon="6.88663">
        <ele>1892.1999511719</ele>
        <time>2022-03-09T09:05:56.000Z</time>
      </trkpt>
      <trkpt lat="44.41779" lon="6.88666">
        <ele>1892.4000244141</ele>
        <time>2022-03-09T09:06:05.000Z</time>
      </trkpt>
      <trkpt lat="44.41772" lon="6.8867">
        <ele>1893.1999511719</ele>
        <time>2022-03-09T09:06:15.000Z</time>
      </trkpt>
      <trkpt lat="44.41765" lon="6.88673">
        <ele>1893.5999755859</ele>
        <time>2022-03-09T09:06:23.000Z</time>
      </trkpt>
      <trkpt lat="44.41764" lon="6.88673">
        <ele>1893.5999755859</ele>
        <time>2022-03-09T09:06:25.000Z</time>
      </trkpt>
      <trkpt lat="44.4176" lon="6.88671">
        <ele>1893.5999755859</ele>
        <time>2022-03-09T09:06:33.000Z</time>
      </trkpt>
      <trkpt lat="44.41759" lon="6.88669">
        <ele>1893.8000488281</ele>
        <time>2022-03-09T09:07:07.000Z</time>
      </trkpt>
      <trkpt lat="44.41756" lon="6.88668">
        <ele>1893.4000244141</ele>
        <time>2022-03-09T09:07:38.000Z</time>
      </trkpt>
      <trkpt lat="44.41757" lon="6.88663">
        <ele>1893.1999511719</ele>
        <time>2022-03-09T09:08:49.000Z</time>
      </trkpt>
      <trkpt lat="44.41756" lon="6.88666">
        <ele>1893.1999511719</ele>
        <time>2022-03-09T09:09:02.000Z</time>
      </trkpt>
      <trkpt lat="44.41757" lon="6.88666">
        <ele>1892.5999755859</ele>
        <time>2022-03-09T09:10:35.000Z</time>
      </trkpt>
      <trkpt lat="44.41757" lon="6.88665">
        <ele>1892.8000488281</ele>
        <time>2022-03-09T09:11:09.000Z</time>
      </trkpt>
      <trkpt lat="44.41753" lon="6.8867">
        <ele>1893</ele>
        <time>2022-03-09T09:11:51.000Z</time>
      </trkpt>
      <trkpt lat="44.41741" lon="6.88675">
        <ele>1893.1999511719</ele>
        <time>2022-03-09T09:12:01.000Z</time>
      </trkpt>
      <trkpt lat="44.41733" lon="6.88674">
        <ele>1893.4000244141</ele>
        <time>2022-03-09T09:12:09.000Z</time>
      </trkpt>
      <trkpt lat="44.41729" lon="6.88675">
        <ele>1893.4000244141</ele>
        <time>2022-03-09T09:12:14.000Z</time>
      </trkpt>
      <trkpt lat="44.41727" lon="6.88673">
        <ele>1893.4000244141</ele>
        <time>2022-03-09T09:12:16.000Z</time>
      </trkpt>
      <trkpt lat="44.41716" lon="6.88664">
        <ele>1893.5999755859</ele>
        <time>2022-03-09T09:12:25.000Z</time>
      </trkpt>
      <trkpt lat="44.41714" lon="6.88658">
        <ele>1893.5999755859</ele>
        <time>2022-03-09T09:12:30.000Z</time>
      </trkpt>
      <trkpt lat="44.41713" lon="6.88654">
        <ele>1893.5999755859</ele>
        <time>2022-03-09T09:12:32.000Z</time>
      </trkpt>
      <trkpt lat="44.41711" lon="6.88645">
        <ele>1893.8000488281</ele>
        <time>2022-03-09T09:12:37.000Z</time>
      </trkpt>
      <trkpt lat="44.41711" lon="6.88639">
        <ele>1894</ele>
        <time>2022-03-09T09:12:41.000Z</time>
      </trkpt>
      <trkpt lat="44.41712" lon="6.88624">
        <ele>1894.4000244141</ele>
        <time>2022-03-09T09:12:50.000Z</time>
      </trkpt>
      <trkpt lat="44.41711" lon="6.88609">
        <ele>1894</ele>
        <time>2022-03-09T09:12:59.000Z</time>
      </trkpt>
      <trkpt lat="44.4171" lon="6.88608">
        <ele>1894</ele>
        <time>2022-03-09T09:13:00.000Z</time>
      </trkpt>
      <trkpt lat="44.41707" lon="6.88607">
        <ele>1894.1999511719</ele>
        <time>2022-03-09T09:13:04.000Z</time>
      </trkpt>
      <trkpt lat="44.41706" lon="6.88607">
        <ele>1894.4000244141</ele>
        <time>2022-03-09T09:13:06.000Z</time>
      </trkpt>
      <trkpt lat="44.41701" lon="6.88604">
        <ele>1894.8000488281</ele>
        <time>2022-03-09T09:13:15.000Z</time>
      </trkpt>
      <trkpt lat="44.417" lon="6.88604">
        <ele>1895</ele>
        <time>2022-03-09T09:13:16.000Z</time>
      </trkpt>
      <trkpt lat="44.41689" lon="6.88601">
        <ele>1895</ele>
        <time>2022-03-09T09:13:25.000Z</time>
      </trkpt>
      <trkpt lat="44.41681" lon="6.88598">
        <ele>1895.1999511719</ele>
        <time>2022-03-09T09:13:32.000Z</time>
      </trkpt>
      <trkpt lat="44.41675" lon="6.88593">
        <ele>1895.1999511719</ele>
        <time>2022-03-09T09:13:40.000Z</time>
      </trkpt>
      <trkpt lat="44.41667" lon="6.88588">
        <ele>1895.5999755859</ele>
        <time>2022-03-09T09:13:49.000Z</time>
      </trkpt>
      <trkpt lat="44.4166" lon="6.88582">
        <ele>1896</ele>
        <time>2022-03-09T09:13:58.000Z</time>
      </trkpt>
      <trkpt lat="44.41649" lon="6.8858">
        <ele>1896.4000244141</ele>
        <time>2022-03-09T09:14:09.000Z</time>
      </trkpt>
      <trkpt lat="44.41644" lon="6.8858">
        <ele>1896.8000488281</ele>
        <time>2022-03-09T09:14:16.000Z</time>
      </trkpt>
      <trkpt lat="44.41639" lon="6.88581">
        <ele>1897</ele>
        <time>2022-03-09T09:14:21.000Z</time>
      </trkpt>
      <trkpt lat="44.41638" lon="6.88582">
        <ele>1897</ele>
        <time>2022-03-09T09:14:22.000Z</time>
      </trkpt>
      <trkpt lat="44.41637" lon="6.88582">
        <ele>1897</ele>
        <time>2022-03-09T09:14:24.000Z</time>
      </trkpt>
      <trkpt lat="44.41635" lon="6.88583">
        <ele>1897.4000244141</ele>
        <time>2022-03-09T09:14:33.000Z</time>
      </trkpt>
      <trkpt lat="44.41628" lon="6.8859">
        <ele>1897.8000488281</ele>
        <time>2022-03-09T09:14:42.000Z</time>
      </trkpt>
      <trkpt lat="44.41627" lon="6.88591">
        <ele>1897.5999755859</ele>
        <time>2022-03-09T09:14:44.000Z</time>
      </trkpt>
      <trkpt lat="44.41627" lon="6.88591">
        <ele>1897.5999755859</ele>
        <time>2022-03-09T09:14:47.000Z</time>
      </trkpt>
      <trkpt lat="44.41627" lon="6.88592">
        <ele>1897.5999755859</ele>
        <time>2022-03-09T09:14:50.000Z</time>
      </trkpt>
      <trkpt lat="44.41627" lon="6.88589">
        <ele>1897.8000488281</ele>
        <time>2022-03-09T09:15:22.000Z</time>
      </trkpt>
      <trkpt lat="44.41626" lon="6.88589">
        <ele>1897.8000488281</ele>
        <time>2022-03-09T09:15:26.000Z</time>
      </trkpt>
      <trkpt lat="44.41626" lon="6.88588">
        <ele>1898</ele>
        <time>2022-03-09T09:15:46.000Z</time>
      </trkpt>
      <trkpt lat="44.41626" lon="6.88588">
        <ele>1898</ele>
        <time>2022-03-09T09:15:48.000Z</time>
      </trkpt>
      <trkpt lat="44.41622" lon="6.88591">
        <ele>1898</ele>
        <time>2022-03-09T09:15:51.000Z</time>
      </trkpt>
      <trkpt lat="44.41621" lon="6.88592">
        <ele>1898</ele>
        <time>2022-03-09T09:15:52.000Z</time>
      </trkpt>
      <trkpt lat="44.41612" lon="6.88595">
        <ele>1898</ele>
        <time>2022-03-09T09:16:00.000Z</time>
      </trkpt>
      <trkpt lat="44.41608" lon="6.88595">
        <ele>1898.1999511719</ele>
        <time>2022-03-09T09:16:04.000Z</time>
      </trkpt>
      <trkpt lat="44.41603" lon="6.88595">
        <ele>1898.5999755859</ele>
        <time>2022-03-09T09:16:08.000Z</time>
      </trkpt>
      <trkpt lat="44.41599" lon="6.88595">
        <ele>1898.5999755859</ele>
        <time>2022-03-09T09:16:11.000Z</time>
      </trkpt>
      <trkpt lat="44.41593" lon="6.88593">
        <ele>1898.4000244141</ele>
        <time>2022-03-09T09:16:17.000Z</time>
      </trkpt>
      <trkpt lat="44.41584" lon="6.88591">
        <ele>1898.4000244141</ele>
        <time>2022-03-09T09:16:25.000Z</time>
      </trkpt>
      <trkpt lat="44.41576" lon="6.88584">
        <ele>1898.8000488281</ele>
        <time>2022-03-09T09:16:33.000Z</time>
      </trkpt>
      <trkpt lat="44.41571" lon="6.88582">
        <ele>1899</ele>
        <time>2022-03-09T09:16:38.000Z</time>
      </trkpt>
      <trkpt lat="44.41566" lon="6.88579">
        <ele>1899.1999511719</ele>
        <time>2022-03-09T09:16:43.000Z</time>
      </trkpt>
      <trkpt lat="44.41559" lon="6.88572">
        <ele>1899.5999755859</ele>
        <time>2022-03-09T09:16:52.000Z</time>
      </trkpt>
      <trkpt lat="44.41555" lon="6.88568">
        <ele>1899.5999755859</ele>
        <time>2022-03-09T09:16:56.000Z</time>
      </trkpt>
      <trkpt lat="44.41551" lon="6.88568">
        <ele>1899.5999755859</ele>
        <time>2022-03-09T09:16:58.000Z</time>
      </trkpt>
      <trkpt lat="44.41546" lon="6.88561">
        <ele>1900</ele>
        <time>2022-03-09T09:17:04.000Z</time>
      </trkpt>
      <trkpt lat="44.41545" lon="6.88559">
        <ele>1900</ele>
        <time>2022-03-09T09:17:08.000Z</time>
      </trkpt>
      <trkpt lat="44.41536" lon="6.88555">
        <ele>1900.5999755859</ele>
        <time>2022-03-09T09:17:18.000Z</time>
      </trkpt>
      <trkpt lat="44.41535" lon="6.88555">
        <ele>1900.5999755859</ele>
        <time>2022-03-09T09:17:19.000Z</time>
      </trkpt>
      <trkpt lat="44.41528" lon="6.88553">
        <ele>1901.1999511719</ele>
        <time>2022-03-09T09:17:26.000Z</time>
      </trkpt>
      <trkpt lat="44.41522" lon="6.88555">
        <ele>1901.8000488281</ele>
        <time>2022-03-09T09:17:33.000Z</time>
      </trkpt>
      <trkpt lat="44.41519" lon="6.88555">
        <ele>1902.1999511719</ele>
        <time>2022-03-09T09:17:35.000Z</time>
      </trkpt>
      <trkpt lat="44.41513" lon="6.88557">
        <ele>1902.4000244141</ele>
        <time>2022-03-09T09:17:41.000Z</time>
      </trkpt>
      <trkpt lat="44.41504" lon="6.88562">
        <ele>1902.8000488281</ele>
        <time>2022-03-09T09:17:50.000Z</time>
      </trkpt>
      <trkpt lat="44.41495" lon="6.88567">
        <ele>1903</ele>
        <time>2022-03-09T09:18:00.000Z</time>
      </trkpt>
      <trkpt lat="44.41486" lon="6.88571">
        <ele>1902.8000488281</ele>
        <time>2022-03-09T09:18:10.000Z</time>
      </trkpt>
      <trkpt lat="44.41475" lon="6.88575">
        <ele>1903</ele>
        <time>2022-03-09T09:18:21.000Z</time>
      </trkpt>
      <trkpt lat="44.41471" lon="6.88577">
        <ele>1903.1999511719</ele>
        <time>2022-03-09T09:18:26.000Z</time>
      </trkpt>
      <trkpt lat="44.41467" lon="6.88578">
        <ele>1903.5999755859</ele>
        <time>2022-03-09T09:18:30.000Z</time>
      </trkpt>
      <trkpt lat="44.4146" lon="6.88578">
        <ele>1904.1999511719</ele>
        <time>2022-03-09T09:18:37.000Z</time>
      </trkpt>
      <trkpt lat="44.41458" lon="6.88578">
        <ele>1904.4000244141</ele>
        <time>2022-03-09T09:18:39.000Z</time>
      </trkpt>
      <trkpt lat="44.41447" lon="6.88572">
        <ele>1904.4000244141</ele>
        <time>2022-03-09T09:18:49.000Z</time>
      </trkpt>
      <trkpt lat="44.41436" lon="6.88569">
        <ele>1905</ele>
        <time>2022-03-09T09:19:00.000Z</time>
      </trkpt>
      <trkpt lat="44.41432" lon="6.88568">
        <ele>1905.1999511719</ele>
        <time>2022-03-09T09:19:04.000Z</time>
      </trkpt>
      <trkpt lat="44.41429" lon="6.88568">
        <ele>1905.5999755859</ele>
        <time>2022-03-09T09:19:08.000Z</time>
      </trkpt>
      <trkpt lat="44.41424" lon="6.88568">
        <ele>1906.4000244141</ele>
        <time>2022-03-09T09:19:14.000Z</time>
      </trkpt>
      <trkpt lat="44.41421" lon="6.88569">
        <ele>1906.5999755859</ele>
        <time>2022-03-09T09:19:17.000Z</time>
      </trkpt>
      <trkpt lat="44.41418" lon="6.88569">
        <ele>1907.4000244141</ele>
        <time>2022-03-09T09:19:22.000Z</time>
      </trkpt>
      <trkpt lat="44.41414" lon="6.88569">
        <ele>1907.8000488281</ele>
        <time>2022-03-09T09:19:26.000Z</time>
      </trkpt>
      <trkpt lat="44.41407" lon="6.88568">
        <ele>1908.4000244141</ele>
        <time>2022-03-09T09:19:34.000Z</time>
      </trkpt>
      <trkpt lat="44.41406" lon="6.88568">
        <ele>1908.5999755859</ele>
        <time>2022-03-09T09:19:36.000Z</time>
      </trkpt>
      <trkpt lat="44.41401" lon="6.88567">
        <ele>1909.5999755859</ele>
        <time>2022-03-09T09:19:42.000Z</time>
      </trkpt>
      <trkpt lat="44.41394" lon="6.88564">
        <ele>1910.5999755859</ele>
        <time>2022-03-09T09:19:50.000Z</time>
      </trkpt>
      <trkpt lat="44.41392" lon="6.88563">
        <ele>1910.8000488281</ele>
        <time>2022-03-09T09:19:52.000Z</time>
      </trkpt>
      <trkpt lat="44.4139" lon="6.88561">
        <ele>1911</ele>
        <time>2022-03-09T09:19:54.000Z</time>
      </trkpt>
      <trkpt lat="44.41388" lon="6.88558">
        <ele>1911</ele>
        <time>2022-03-09T09:19:58.000Z</time>
      </trkpt>
      <trkpt lat="44.41386" lon="6.88557">
        <ele>1911</ele>
        <time>2022-03-09T09:20:00.000Z</time>
      </trkpt>
      <trkpt lat="44.41378" lon="6.88554">
        <ele>1911.1999511719</ele>
        <time>2022-03-09T09:20:08.000Z</time>
      </trkpt>
      <trkpt lat="44.41367" lon="6.88548">
        <ele>1911.5999755859</ele>
        <time>2022-03-09T09:20:19.000Z</time>
      </trkpt>
      <trkpt lat="44.4136" lon="6.88547">
        <ele>1911.4000244141</ele>
        <time>2022-03-09T09:20:25.000Z</time>
      </trkpt>
      <trkpt lat="44.41349" lon="6.88544">
        <ele>1911.5999755859</ele>
        <time>2022-03-09T09:20:35.000Z</time>
      </trkpt>
      <trkpt lat="44.41348" lon="6.88544">
        <ele>1911.5999755859</ele>
        <time>2022-03-09T09:20:36.000Z</time>
      </trkpt>
      <trkpt lat="44.41346" lon="6.88544">
        <ele>1911.5999755859</ele>
        <time>2022-03-09T09:20:38.000Z</time>
      </trkpt>
      <trkpt lat="44.4134" lon="6.88542">
        <ele>1912</ele>
        <time>2022-03-09T09:20:43.000Z</time>
      </trkpt>
      <trkpt lat="44.41339" lon="6.88542">
        <ele>1912</ele>
        <time>2022-03-09T09:20:44.000Z</time>
      </trkpt>
      <trkpt lat="44.41339" lon="6.88541">
        <ele>1912</ele>
        <time>2022-03-09T09:20:45.000Z</time>
      </trkpt>
      <trkpt lat="44.41333" lon="6.88539">
        <ele>1912.5999755859</ele>
        <time>2022-03-09T09:20:51.000Z</time>
      </trkpt>
      <trkpt lat="44.41331" lon="6.88538">
        <ele>1912.5999755859</ele>
        <time>2022-03-09T09:20:53.000Z</time>
      </trkpt>
      <trkpt lat="44.41325" lon="6.88539">
        <ele>1913</ele>
        <time>2022-03-09T09:21:00.000Z</time>
      </trkpt>
      <trkpt lat="44.41318" lon="6.8854">
        <ele>1913.5999755859</ele>
        <time>2022-03-09T09:21:07.000Z</time>
      </trkpt>
      <trkpt lat="44.4131" lon="6.88544">
        <ele>1913.8000488281</ele>
        <time>2022-03-09T09:21:16.000Z</time>
      </trkpt>
      <trkpt lat="44.41307" lon="6.88546">
        <ele>1914</ele>
        <time>2022-03-09T09:21:19.000Z</time>
      </trkpt>
      <trkpt lat="44.41298" lon="6.88551">
        <ele>1914.4000244141</ele>
        <time>2022-03-09T09:21:28.000Z</time>
      </trkpt>
      <trkpt lat="44.41297" lon="6.88551">
        <ele>1914.5999755859</ele>
        <time>2022-03-09T09:21:29.000Z</time>
      </trkpt>
      <trkpt lat="44.41296" lon="6.88552">
        <ele>1914.8000488281</ele>
        <time>2022-03-09T09:21:30.000Z</time>
      </trkpt>
      <trkpt lat="44.41288" lon="6.88558">
        <ele>1915.4000244141</ele>
        <time>2022-03-09T09:21:39.000Z</time>
      </trkpt>
      <trkpt lat="44.41285" lon="6.88559">
        <ele>1915.8000488281</ele>
        <time>2022-03-09T09:21:42.000Z</time>
      </trkpt>
      <trkpt lat="44.41276" lon="6.88565">
        <ele>1916.5999755859</ele>
        <time>2022-03-09T09:21:52.000Z</time>
      </trkpt>
      <trkpt lat="44.41275" lon="6.88566">
        <ele>1916.8000488281</ele>
        <time>2022-03-09T09:21:54.000Z</time>
      </trkpt>
      <trkpt lat="44.41263" lon="6.88572">
        <ele>1917.8000488281</ele>
        <time>2022-03-09T09:22:06.000Z</time>
      </trkpt>
      <trkpt lat="44.41262" lon="6.88573">
        <ele>1917.8000488281</ele>
        <time>2022-03-09T09:22:07.000Z</time>
      </trkpt>
      <trkpt lat="44.41257" lon="6.88575">
        <ele>1919</ele>
        <time>2022-03-09T09:22:13.000Z</time>
      </trkpt>
      <trkpt lat="44.41254" lon="6.88578">
        <ele>1919.4000244141</ele>
        <time>2022-03-09T09:22:17.000Z</time>
      </trkpt>
      <trkpt lat="44.4125" lon="6.8858">
        <ele>1920</ele>
        <time>2022-03-09T09:22:22.000Z</time>
      </trkpt>
      <trkpt lat="44.41246" lon="6.88582">
        <ele>1920.5999755859</ele>
        <time>2022-03-09T09:22:26.000Z</time>
      </trkpt>
      <trkpt lat="44.41242" lon="6.88584">
        <ele>1921.1999511719</ele>
        <time>2022-03-09T09:22:31.000Z</time>
      </trkpt>
      <trkpt lat="44.41236" lon="6.88586">
        <ele>1921.8000488281</ele>
        <time>2022-03-09T09:22:38.000Z</time>
      </trkpt>
      <trkpt lat="44.41227" lon="6.88587">
        <ele>1922</ele>
        <time>2022-03-09T09:22:47.000Z</time>
      </trkpt>
      <trkpt lat="44.41222" lon="6.88586">
        <ele>1922.1999511719</ele>
        <time>2022-03-09T09:22:52.000Z</time>
      </trkpt>
      <trkpt lat="44.41216" lon="6.88584">
        <ele>1922</ele>
        <time>2022-03-09T09:22:57.000Z</time>
      </trkpt>
      <trkpt lat="44.41206" lon="6.88581">
        <ele>1921.5999755859</ele>
        <time>2022-03-09T09:23:05.000Z</time>
      </trkpt>
      <trkpt lat="44.41203" lon="6.88579">
        <ele>1921.5999755859</ele>
        <time>2022-03-09T09:23:07.000Z</time>
      </trkpt>
      <trkpt lat="44.41198" lon="6.88577">
        <ele>1921.4000244141</ele>
        <time>2022-03-09T09:23:11.000Z</time>
      </trkpt>
      <trkpt lat="44.41193" lon="6.88574">
        <ele>1921</ele>
        <time>2022-03-09T09:23:16.000Z</time>
      </trkpt>
      <trkpt lat="44.41187" lon="6.88572">
        <ele>1920.5999755859</ele>
        <time>2022-03-09T09:23:21.000Z</time>
      </trkpt>
      <trkpt lat="44.41174" lon="6.88568">
        <ele>1920.1999511719</ele>
        <time>2022-03-09T09:23:31.000Z</time>
      </trkpt>
      <trkpt lat="44.41172" lon="6.88567">
        <ele>1920</ele>
        <time>2022-03-09T09:23:33.000Z</time>
      </trkpt>
      <trkpt lat="44.41162" lon="6.88562">
        <ele>1918.8000488281</ele>
        <time>2022-03-09T09:23:40.000Z</time>
      </trkpt>
      <trkpt lat="44.41159" lon="6.88561">
        <ele>1918.5999755859</ele>
        <time>2022-03-09T09:23:42.000Z</time>
      </trkpt>
      <trkpt lat="44.4115" lon="6.88557">
        <ele>1917.8000488281</ele>
        <time>2022-03-09T09:23:48.000Z</time>
      </trkpt>
      <trkpt lat="44.41145" lon="6.88555">
        <ele>1917.5999755859</ele>
        <time>2022-03-09T09:23:52.000Z</time>
      </trkpt>
      <trkpt lat="44.41135" lon="6.88549">
        <ele>1916.8000488281</ele>
        <time>2022-03-09T09:24:00.000Z</time>
      </trkpt>
      <trkpt lat="44.41134" lon="6.88548">
        <ele>1916.8000488281</ele>
        <time>2022-03-09T09:24:01.000Z</time>
      </trkpt>
      <trkpt lat="44.41126" lon="6.88544">
        <ele>1916.5999755859</ele>
        <time>2022-03-09T09:24:08.000Z</time>
      </trkpt>
      <trkpt lat="44.41117" lon="6.88539">
        <ele>1916</ele>
        <time>2022-03-09T09:24:16.000Z</time>
      </trkpt>
      <trkpt lat="44.41108" lon="6.88532">
        <ele>1915.8000488281</ele>
        <time>2022-03-09T09:24:25.000Z</time>
      </trkpt>
      <trkpt lat="44.41098" lon="6.88523">
        <ele>1915.8000488281</ele>
        <time>2022-03-09T09:24:34.000Z</time>
      </trkpt>
      <trkpt lat="44.41097" lon="6.88523">
        <ele>1915.5999755859</ele>
        <time>2022-03-09T09:24:35.000Z</time>
      </trkpt>
      <trkpt lat="44.41088" lon="6.88516">
        <ele>1915</ele>
        <time>2022-03-09T09:24:43.000Z</time>
      </trkpt>
      <trkpt lat="44.41082" lon="6.88511">
        <ele>1914.8000488281</ele>
        <time>2022-03-09T09:24:48.000Z</time>
      </trkpt>
      <trkpt lat="44.4108" lon="6.88509">
        <ele>1914.5999755859</ele>
        <time>2022-03-09T09:24:50.000Z</time>
      </trkpt>
      <trkpt lat="44.41072" lon="6.88501">
        <ele>1914</ele>
        <time>2022-03-09T09:24:57.000Z</time>
      </trkpt>
      <trkpt lat="44.41072" lon="6.88499">
        <ele>1914</ele>
        <time>2022-03-09T09:24:58.000Z</time>
      </trkpt>
      <trkpt lat="44.41063" lon="6.88491">
        <ele>1913.5999755859</ele>
        <time>2022-03-09T09:25:06.000Z</time>
      </trkpt>
      <trkpt lat="44.41061" lon="6.88489">
        <ele>1913.5999755859</ele>
        <time>2022-03-09T09:25:08.000Z</time>
      </trkpt>
      <trkpt lat="44.41054" lon="6.8848">
        <ele>1913.4000244141</ele>
        <time>2022-03-09T09:25:16.000Z</time>
      </trkpt>
      <trkpt lat="44.41045" lon="6.88466">
        <ele>1913</ele>
        <time>2022-03-09T09:25:28.000Z</time>
      </trkpt>
      <trkpt lat="44.41036" lon="6.88463">
        <ele>1913</ele>
        <time>2022-03-09T09:25:35.000Z</time>
      </trkpt>
      <trkpt lat="44.41026" lon="6.88466">
        <ele>1913.4000244141</ele>
        <time>2022-03-09T09:25:46.000Z</time>
      </trkpt>
      <trkpt lat="44.41017" lon="6.88462">
        <ele>1913.1999511719</ele>
        <time>2022-03-09T09:25:53.000Z</time>
      </trkpt>
      <trkpt lat="44.41009" lon="6.88456">
        <ele>1913.1999511719</ele>
        <time>2022-03-09T09:26:00.000Z</time>
      </trkpt>
      <trkpt lat="44.41005" lon="6.88448">
        <ele>1913.1999511719</ele>
        <time>2022-03-09T09:26:06.000Z</time>
      </trkpt>
      <trkpt lat="44.41003" lon="6.88443">
        <ele>1913.1999511719</ele>
        <time>2022-03-09T09:26:09.000Z</time>
      </trkpt>
      <trkpt lat="44.40994" lon="6.88428">
        <ele>1913.4000244141</ele>
        <time>2022-03-09T09:26:21.000Z</time>
      </trkpt>
      <trkpt lat="44.40988" lon="6.88414">
        <ele>1913.5999755859</ele>
        <time>2022-03-09T09:26:30.000Z</time>
      </trkpt>
      <trkpt lat="44.40981" lon="6.88402">
        <ele>1913.8000488281</ele>
        <time>2022-03-09T09:26:39.000Z</time>
      </trkpt>
      <trkpt lat="44.40976" lon="6.88392">
        <ele>1913.8000488281</ele>
        <time>2022-03-09T09:26:47.000Z</time>
      </trkpt>
      <trkpt lat="44.40973" lon="6.88385">
        <ele>1913.8000488281</ele>
        <time>2022-03-09T09:26:52.000Z</time>
      </trkpt>
      <trkpt lat="44.40969" lon="6.88378">
        <ele>1914</ele>
        <time>2022-03-09T09:26:58.000Z</time>
      </trkpt>
      <trkpt lat="44.40958" lon="6.88363">
        <ele>1914.1999511719</ele>
        <time>2022-03-09T09:27:11.000Z</time>
      </trkpt>
      <trkpt lat="44.40948" lon="6.8835">
        <ele>1914.4000244141</ele>
        <time>2022-03-09T09:27:23.000Z</time>
      </trkpt>
      <trkpt lat="44.40937" lon="6.88338">
        <ele>1914.5999755859</ele>
        <time>2022-03-09T09:27:34.000Z</time>
      </trkpt>
      <trkpt lat="44.40929" lon="6.88326">
        <ele>1914.5999755859</ele>
        <time>2022-03-09T09:27:44.000Z</time>
      </trkpt>
      <trkpt lat="44.40929" lon="6.88325">
        <ele>1914.5999755859</ele>
        <time>2022-03-09T09:27:45.000Z</time>
      </trkpt>
      <trkpt lat="44.40924" lon="6.88315">
        <ele>1914.8000488281</ele>
        <time>2022-03-09T09:27:53.000Z</time>
      </trkpt>
      <trkpt lat="44.40923" lon="6.88314">
        <ele>1914.8000488281</ele>
        <time>2022-03-09T09:27:54.000Z</time>
      </trkpt>
      <trkpt lat="44.40911" lon="6.88305">
        <ele>1915.1999511719</ele>
        <time>2022-03-09T09:28:06.000Z</time>
      </trkpt>
      <trkpt lat="44.40904" lon="6.88301">
        <ele>1915.4000244141</ele>
        <time>2022-03-09T09:28:14.000Z</time>
      </trkpt>
      <trkpt lat="44.40898" lon="6.883">
        <ele>1915.8000488281</ele>
        <time>2022-03-09T09:28:19.000Z</time>
      </trkpt>
      <trkpt lat="44.40892" lon="6.88297">
        <ele>1916</ele>
        <time>2022-03-09T09:28:25.000Z</time>
      </trkpt>
      <trkpt lat="44.40885" lon="6.88293">
        <ele>1916</ele>
        <time>2022-03-09T09:28:32.000Z</time>
      </trkpt>
      <trkpt lat="44.40878" lon="6.88286">
        <ele>1916.1999511719</ele>
        <time>2022-03-09T09:28:41.000Z</time>
      </trkpt>
      <trkpt lat="44.40867" lon="6.88278">
        <ele>1916.4000244141</ele>
        <time>2022-03-09T09:28:52.000Z</time>
      </trkpt>
      <trkpt lat="44.40858" lon="6.88272">
        <ele>1916.1999511719</ele>
        <time>2022-03-09T09:29:01.000Z</time>
      </trkpt>
      <trkpt lat="44.40847" lon="6.88264">
        <ele>1916</ele>
        <time>2022-03-09T09:29:12.000Z</time>
      </trkpt>
      <trkpt lat="44.40839" lon="6.8826">
        <ele>1916.4000244141</ele>
        <time>2022-03-09T09:29:20.000Z</time>
      </trkpt>
      <trkpt lat="44.40838" lon="6.88259">
        <ele>1916.4000244141</ele>
        <time>2022-03-09T09:29:21.000Z</time>
      </trkpt>
      <trkpt lat="44.40828" lon="6.88248">
        <ele>1916.4000244141</ele>
        <time>2022-03-09T09:29:33.000Z</time>
      </trkpt>
      <trkpt lat="44.40822" lon="6.88242">
        <ele>1916.5999755859</ele>
        <time>2022-03-09T09:29:40.000Z</time>
      </trkpt>
      <trkpt lat="44.40821" lon="6.88242">
        <ele>1916.8000488281</ele>
        <time>2022-03-09T09:29:41.000Z</time>
      </trkpt>
      <trkpt lat="44.40814" lon="6.88235">
        <ele>1917</ele>
        <time>2022-03-09T09:29:50.000Z</time>
      </trkpt>
      <trkpt lat="44.40805" lon="6.88234">
        <ele>1917.5999755859</ele>
        <time>2022-03-09T09:29:58.000Z</time>
      </trkpt>
      <trkpt lat="44.40803" lon="6.88234">
        <ele>1917.8000488281</ele>
        <time>2022-03-09T09:30:00.000Z</time>
      </trkpt>
      <trkpt lat="44.40801" lon="6.88234">
        <ele>1918</ele>
        <time>2022-03-09T09:30:02.000Z</time>
      </trkpt>
      <trkpt lat="44.40801" lon="6.88232">
        <ele>1918</ele>
        <time>2022-03-09T09:30:04.000Z</time>
      </trkpt>
      <trkpt lat="44.408" lon="6.88231">
        <ele>1918</ele>
        <time>2022-03-09T09:30:05.000Z</time>
      </trkpt>
      <trkpt lat="44.40799" lon="6.8823">
        <ele>1918</ele>
        <time>2022-03-09T09:30:06.000Z</time>
      </trkpt>
      <trkpt lat="44.40795" lon="6.88229">
        <ele>1917.8000488281</ele>
        <time>2022-03-09T09:30:10.000Z</time>
      </trkpt>
      <trkpt lat="44.40794" lon="6.88229">
        <ele>1917.8000488281</ele>
        <time>2022-03-09T09:30:11.000Z</time>
      </trkpt>
      <trkpt lat="44.4079" lon="6.88231">
        <ele>1917.8000488281</ele>
        <time>2022-03-09T09:30:15.000Z</time>
      </trkpt>
      <trkpt lat="44.40789" lon="6.88231">
        <ele>1917.8000488281</ele>
        <time>2022-03-09T09:30:16.000Z</time>
      </trkpt>
      <trkpt lat="44.40787" lon="6.88233">
        <ele>1918</ele>
        <time>2022-03-09T09:30:19.000Z</time>
      </trkpt>
      <trkpt lat="44.40781" lon="6.88237">
        <ele>1918.4000244141</ele>
        <time>2022-03-09T09:30:25.000Z</time>
      </trkpt>
      <trkpt lat="44.40781" lon="6.88238">
        <ele>1918.4000244141</ele>
        <time>2022-03-09T09:30:26.000Z</time>
      </trkpt>
      <trkpt lat="44.40779" lon="6.88239">
        <ele>1918.5999755859</ele>
        <time>2022-03-09T09:30:28.000Z</time>
      </trkpt>
      <trkpt lat="44.40773" lon="6.88246">
        <ele>1918.8000488281</ele>
        <time>2022-03-09T09:30:36.000Z</time>
      </trkpt>
      <trkpt lat="44.40762" lon="6.88245">
        <ele>1918.8000488281</ele>
        <time>2022-03-09T09:30:45.000Z</time>
      </trkpt>
      <trkpt lat="44.40753" lon="6.88244">
        <ele>1919</ele>
        <time>2022-03-09T09:30:53.000Z</time>
      </trkpt>
      <trkpt lat="44.40752" lon="6.88244">
        <ele>1919</ele>
        <time>2022-03-09T09:30:54.000Z</time>
      </trkpt>
      <trkpt lat="44.40742" lon="6.88246">
        <ele>1919.5999755859</ele>
        <time>2022-03-09T09:31:03.000Z</time>
      </trkpt>
      <trkpt lat="44.40741" lon="6.88246">
        <ele>1919.5999755859</ele>
        <time>2022-03-09T09:31:04.000Z</time>
      </trkpt>
      <trkpt lat="44.40739" lon="6.88248">
        <ele>1919.8000488281</ele>
        <time>2022-03-09T09:31:07.000Z</time>
      </trkpt>
      <trkpt lat="44.40737" lon="6.88249">
        <ele>1920</ele>
        <time>2022-03-09T09:31:09.000Z</time>
      </trkpt>
      <trkpt lat="44.40734" lon="6.88249">
        <ele>1920.1999511719</ele>
        <time>2022-03-09T09:31:13.000Z</time>
      </trkpt>
      <trkpt lat="44.40729" lon="6.88251">
        <ele>1920.1999511719</ele>
        <time>2022-03-09T09:31:17.000Z</time>
      </trkpt>
      <trkpt lat="44.40714" lon="6.88254">
        <ele>1920.1999511719</ele>
        <time>2022-03-09T09:31:30.000Z</time>
      </trkpt>
      <trkpt lat="44.40707" lon="6.88256">
        <ele>1920.5999755859</ele>
        <time>2022-03-09T09:31:36.000Z</time>
      </trkpt>
      <trkpt lat="44.407" lon="6.88257">
        <ele>1921</ele>
        <time>2022-03-09T09:31:43.000Z</time>
      </trkpt>
      <trkpt lat="44.40692" lon="6.88256">
        <ele>1921.1999511719</ele>
        <time>2022-03-09T09:31:49.000Z</time>
      </trkpt>
      <trkpt lat="44.40682" lon="6.88249">
        <ele>1920.4000244141</ele>
        <time>2022-03-09T09:31:57.000Z</time>
      </trkpt>
      <trkpt lat="44.40671" lon="6.88245">
        <ele>1920.4000244141</ele>
        <time>2022-03-09T09:32:07.000Z</time>
      </trkpt>
      <trkpt lat="44.40659" lon="6.88239">
        <ele>1920.1999511719</ele>
        <time>2022-03-09T09:32:18.000Z</time>
      </trkpt>
      <trkpt lat="44.4065" lon="6.88234">
        <ele>1920.5999755859</ele>
        <time>2022-03-09T09:32:26.000Z</time>
      </trkpt>
      <trkpt lat="44.40639" lon="6.88232">
        <ele>1920.5999755859</ele>
        <time>2022-03-09T09:32:35.000Z</time>
      </trkpt>
      <trkpt lat="44.40631" lon="6.88228">
        <ele>1921.4000244141</ele>
        <time>2022-03-09T09:32:44.000Z</time>
      </trkpt>
      <trkpt lat="44.40628" lon="6.88226">
        <ele>1921.5999755859</ele>
        <time>2022-03-09T09:32:46.000Z</time>
      </trkpt>
      <trkpt lat="44.40618" lon="6.88216">
        <ele>1922</ele>
        <time>2022-03-09T09:32:58.000Z</time>
      </trkpt>
      <trkpt lat="44.40617" lon="6.88214">
        <ele>1922</ele>
        <time>2022-03-09T09:33:01.000Z</time>
      </trkpt>
      <trkpt lat="44.40617" lon="6.88214">
        <ele>1922</ele>
        <time>2022-03-09T09:33:04.000Z</time>
      </trkpt>
      <trkpt lat="44.40613" lon="6.88207">
        <ele>1922</ele>
        <time>2022-03-09T09:33:14.000Z</time>
      </trkpt>
      <trkpt lat="44.40605" lon="6.882">
        <ele>1922</ele>
        <time>2022-03-09T09:33:23.000Z</time>
      </trkpt>
      <trkpt lat="44.40591" lon="6.88199">
        <ele>1922</ele>
        <time>2022-03-09T09:33:36.000Z</time>
      </trkpt>
      <trkpt lat="44.40581" lon="6.88194">
        <ele>1922.4000244141</ele>
        <time>2022-03-09T09:33:45.000Z</time>
      </trkpt>
      <trkpt lat="44.40571" lon="6.88193">
        <ele>1922.5999755859</ele>
        <time>2022-03-09T09:33:54.000Z</time>
      </trkpt>
      <trkpt lat="44.4057" lon="6.88193">
        <ele>1922.5999755859</ele>
        <time>2022-03-09T09:33:55.000Z</time>
      </trkpt>
      <trkpt lat="44.40569" lon="6.88193">
        <ele>1922.8000488281</ele>
        <time>2022-03-09T09:33:56.000Z</time>
      </trkpt>
      <trkpt lat="44.40565" lon="6.88192">
        <ele>1923</ele>
        <time>2022-03-09T09:34:00.000Z</time>
      </trkpt>
      <trkpt lat="44.40564" lon="6.88191">
        <ele>1923.1999511719</ele>
        <time>2022-03-09T09:34:02.000Z</time>
      </trkpt>
      <trkpt lat="44.40555" lon="6.88195">
        <ele>1923.4000244141</ele>
        <time>2022-03-09T09:34:09.000Z</time>
      </trkpt>
      <trkpt lat="44.40543" lon="6.88194">
        <ele>1923</ele>
        <time>2022-03-09T09:34:19.000Z</time>
      </trkpt>
      <trkpt lat="44.4053" lon="6.88191">
        <ele>1923.4000244141</ele>
        <time>2022-03-09T09:34:32.000Z</time>
      </trkpt>
      <trkpt lat="44.4052" lon="6.88192">
        <ele>1923.4000244141</ele>
        <time>2022-03-09T09:34:40.000Z</time>
      </trkpt>
      <trkpt lat="44.40517" lon="6.88191">
        <ele>1923.4000244141</ele>
        <time>2022-03-09T09:34:42.000Z</time>
      </trkpt>
      <trkpt lat="44.40514" lon="6.88192">
        <ele>1923.5999755859</ele>
        <time>2022-03-09T09:34:44.000Z</time>
      </trkpt>
      <trkpt lat="44.40508" lon="6.8819">
        <ele>1923.5999755859</ele>
        <time>2022-03-09T09:34:49.000Z</time>
      </trkpt>
      <trkpt lat="44.40498" lon="6.88185">
        <ele>1923.5999755859</ele>
        <time>2022-03-09T09:34:59.000Z</time>
      </trkpt>
      <trkpt lat="44.40487" lon="6.88174">
        <ele>1924.1999511719</ele>
        <time>2022-03-09T09:35:10.000Z</time>
      </trkpt>
      <trkpt lat="44.40477" lon="6.88165">
        <ele>1924.1999511719</ele>
        <time>2022-03-09T09:35:21.000Z</time>
      </trkpt>
      <trkpt lat="44.40469" lon="6.88155">
        <ele>1924.5999755859</ele>
        <time>2022-03-09T09:35:31.000Z</time>
      </trkpt>
      <trkpt lat="44.40464" lon="6.88147">
        <ele>1924.8000488281</ele>
        <time>2022-03-09T09:35:39.000Z</time>
      </trkpt>
      <trkpt lat="44.40455" lon="6.88136">
        <ele>1925</ele>
        <time>2022-03-09T09:35:50.000Z</time>
      </trkpt>
      <trkpt lat="44.40452" lon="6.88129">
        <ele>1925.1999511719</ele>
        <time>2022-03-09T09:35:55.000Z</time>
      </trkpt>
      <trkpt lat="44.40448" lon="6.88121">
        <ele>1925.4000244141</ele>
        <time>2022-03-09T09:36:01.000Z</time>
      </trkpt>
      <trkpt lat="44.40441" lon="6.88111">
        <ele>1926</ele>
        <time>2022-03-09T09:36:11.000Z</time>
      </trkpt>
      <trkpt lat="44.40436" lon="6.88102">
        <ele>1926.1999511719</ele>
        <time>2022-03-09T09:36:18.000Z</time>
      </trkpt>
      <trkpt lat="44.40433" lon="6.88098">
        <ele>1926.1999511719</ele>
        <time>2022-03-09T09:36:21.000Z</time>
      </trkpt>
      <trkpt lat="44.4043" lon="6.88086">
        <ele>1926.4000244141</ele>
        <time>2022-03-09T09:36:30.000Z</time>
      </trkpt>
      <trkpt lat="44.40426" lon="6.88072">
        <ele>1927</ele>
        <time>2022-03-09T09:36:41.000Z</time>
      </trkpt>
      <trkpt lat="44.40423" lon="6.88065">
        <ele>1927.1999511719</ele>
        <time>2022-03-09T09:36:48.000Z</time>
      </trkpt>
      <trkpt lat="44.40422" lon="6.88061">
        <ele>1927.4000244141</ele>
        <time>2022-03-09T09:36:52.000Z</time>
      </trkpt>
      <trkpt lat="44.40416" lon="6.88043">
        <ele>1928.1999511719</ele>
        <time>2022-03-09T09:37:06.000Z</time>
      </trkpt>
      <trkpt lat="44.40412" lon="6.88033">
        <ele>1928.5999755859</ele>
        <time>2022-03-09T09:37:14.000Z</time>
      </trkpt>
      <trkpt lat="44.40403" lon="6.8802">
        <ele>1928.5999755859</ele>
        <time>2022-03-09T09:37:25.000Z</time>
      </trkpt>
      <trkpt lat="44.40394" lon="6.8801">
        <ele>1929</ele>
        <time>2022-03-09T09:37:37.000Z</time>
      </trkpt>
      <trkpt lat="44.40393" lon="6.8801">
        <ele>1929</ele>
        <time>2022-03-09T09:37:38.000Z</time>
      </trkpt>
      <trkpt lat="44.4039" lon="6.8801">
        <ele>1929.1999511719</ele>
        <time>2022-03-09T09:37:40.000Z</time>
      </trkpt>
      <trkpt lat="44.40387" lon="6.88004">
        <ele>1929.5999755859</ele>
        <time>2022-03-09T09:37:45.000Z</time>
      </trkpt>
      <trkpt lat="44.40379" lon="6.88002">
        <ele>1930.1999511719</ele>
        <time>2022-03-09T09:37:56.000Z</time>
      </trkpt>
      <trkpt lat="44.40378" lon="6.88003">
        <ele>1930.4000244141</ele>
        <time>2022-03-09T09:37:57.000Z</time>
      </trkpt>
      <trkpt lat="44.40376" lon="6.88002">
        <ele>1930.4000244141</ele>
        <time>2022-03-09T09:37:59.000Z</time>
      </trkpt>
      <trkpt lat="44.40375" lon="6.87999">
        <ele>1930.5999755859</ele>
        <time>2022-03-09T09:38:03.000Z</time>
      </trkpt>
      <trkpt lat="44.40375" lon="6.87999">
        <ele>1930.5999755859</ele>
        <time>2022-03-09T09:38:04.000Z</time>
      </trkpt>
      <trkpt lat="44.40371" lon="6.87997">
        <ele>1930.5999755859</ele>
        <time>2022-03-09T09:38:08.000Z</time>
      </trkpt>
      <trkpt lat="44.40365" lon="6.87994">
        <ele>1931</ele>
        <time>2022-03-09T09:38:15.000Z</time>
      </trkpt>
      <trkpt lat="44.40364" lon="6.87993">
        <ele>1931</ele>
        <time>2022-03-09T09:38:16.000Z</time>
      </trkpt>
      <trkpt lat="44.40363" lon="6.87992">
        <ele>1931</ele>
        <time>2022-03-09T09:38:17.000Z</time>
      </trkpt>
      <trkpt lat="44.4036" lon="6.87991">
        <ele>1931.1999511719</ele>
        <time>2022-03-09T09:38:19.000Z</time>
      </trkpt>
      <trkpt lat="44.40359" lon="6.87991">
        <ele>1931.4000244141</ele>
        <time>2022-03-09T09:38:20.000Z</time>
      </trkpt>
      <trkpt lat="44.40357" lon="6.8799">
        <ele>1932</ele>
        <time>2022-03-09T09:38:24.000Z</time>
      </trkpt>
      <trkpt lat="44.40352" lon="6.87989">
        <ele>1932.1999511719</ele>
        <time>2022-03-09T09:38:29.000Z</time>
      </trkpt>
      <trkpt lat="44.40351" lon="6.87988">
        <ele>1932.1999511719</ele>
        <time>2022-03-09T09:38:30.000Z</time>
      </trkpt>
      <trkpt lat="44.40349" lon="6.87985">
        <ele>1932.4000244141</ele>
        <time>2022-03-09T09:38:32.000Z</time>
      </trkpt>
      <trkpt lat="44.40348" lon="6.87983">
        <ele>1932.4000244141</ele>
        <time>2022-03-09T09:38:33.000Z</time>
      </trkpt>
      <trkpt lat="44.40342" lon="6.87974">
        <ele>1932.8000488281</ele>
        <time>2022-03-09T09:38:39.000Z</time>
      </trkpt>
      <trkpt lat="44.40335" lon="6.87967">
        <ele>1933.1999511719</ele>
        <time>2022-03-09T09:38:46.000Z</time>
      </trkpt>
      <trkpt lat="44.40333" lon="6.87962">
        <ele>1933.1999511719</ele>
        <time>2022-03-09T09:38:49.000Z</time>
      </trkpt>
      <trkpt lat="44.40331" lon="6.87958">
        <ele>1933.4000244141</ele>
        <time>2022-03-09T09:38:51.000Z</time>
      </trkpt>
      <trkpt lat="44.4033" lon="6.87957">
        <ele>1933.4000244141</ele>
        <time>2022-03-09T09:38:52.000Z</time>
      </trkpt>
      <trkpt lat="44.40325" lon="6.87956">
        <ele>1933.8000488281</ele>
        <time>2022-03-09T09:38:55.000Z</time>
      </trkpt>
      <trkpt lat="44.4032" lon="6.87951">
        <ele>1933.8000488281</ele>
        <time>2022-03-09T09:39:00.000Z</time>
      </trkpt>
      <trkpt lat="44.40319" lon="6.87948">
        <ele>1934</ele>
        <time>2022-03-09T09:39:02.000Z</time>
      </trkpt>
      <trkpt lat="44.40318" lon="6.87946">
        <ele>1934</ele>
        <time>2022-03-09T09:39:03.000Z</time>
      </trkpt>
      <trkpt lat="44.40316" lon="6.87946">
        <ele>1934.1999511719</ele>
        <time>2022-03-09T09:39:06.000Z</time>
      </trkpt>
      <trkpt lat="44.40315" lon="6.87945">
        <ele>1934.4000244141</ele>
        <time>2022-03-09T09:39:07.000Z</time>
      </trkpt>
      <trkpt lat="44.40314" lon="6.87945">
        <ele>1934.4000244141</ele>
        <time>2022-03-09T09:39:08.000Z</time>
      </trkpt>
      <trkpt lat="44.40311" lon="6.87942">
        <ele>1934.4000244141</ele>
        <time>2022-03-09T09:39:12.000Z</time>
      </trkpt>
      <trkpt lat="44.40308" lon="6.87942">
        <ele>1934.5999755859</ele>
        <time>2022-03-09T09:39:14.000Z</time>
      </trkpt>
      <trkpt lat="44.403" lon="6.87939">
        <ele>1935</ele>
        <time>2022-03-09T09:39:21.000Z</time>
      </trkpt>
      <trkpt lat="44.40299" lon="6.87939">
        <ele>1935</ele>
        <time>2022-03-09T09:39:22.000Z</time>
      </trkpt>
      <trkpt lat="44.40296" lon="6.87938">
        <ele>1935.1999511719</ele>
        <time>2022-03-09T09:39:27.000Z</time>
      </trkpt>
      <trkpt lat="44.40293" lon="6.87938">
        <ele>1935.4000244141</ele>
        <time>2022-03-09T09:39:30.000Z</time>
      </trkpt>
      <trkpt lat="44.40291" lon="6.87938">
        <ele>1935.5999755859</ele>
        <time>2022-03-09T09:39:34.000Z</time>
      </trkpt>
      <trkpt lat="44.40288" lon="6.87936">
        <ele>1935.4000244141</ele>
        <time>2022-03-09T09:39:39.000Z</time>
      </trkpt>
      <trkpt lat="44.40289" lon="6.87934">
        <ele>1935.4000244141</ele>
        <time>2022-03-09T09:39:40.000Z</time>
      </trkpt>
      <trkpt lat="44.40286" lon="6.8793">
        <ele>1936</ele>
        <time>2022-03-09T09:39:45.000Z</time>
      </trkpt>
      <trkpt lat="44.40283" lon="6.87924">
        <ele>1936</ele>
        <time>2022-03-09T09:39:51.000Z</time>
      </trkpt>
      <trkpt lat="44.4028" lon="6.8792">
        <ele>1936</ele>
        <time>2022-03-09T09:39:54.000Z</time>
      </trkpt>
      <trkpt lat="44.40279" lon="6.87916">
        <ele>1936</ele>
        <time>2022-03-09T09:39:57.000Z</time>
      </trkpt>
      <trkpt lat="44.40278" lon="6.87911">
        <ele>1936.1999511719</ele>
        <time>2022-03-09T09:40:01.000Z</time>
      </trkpt>
      <trkpt lat="44.40277" lon="6.8791">
        <ele>1936.4000244141</ele>
        <time>2022-03-09T09:40:03.000Z</time>
      </trkpt>
      <trkpt lat="44.40271" lon="6.87906">
        <ele>1936.5999755859</ele>
        <time>2022-03-09T09:40:10.000Z</time>
      </trkpt>
      <trkpt lat="44.40268" lon="6.87897">
        <ele>1936.8000488281</ele>
        <time>2022-03-09T09:40:17.000Z</time>
      </trkpt>
      <trkpt lat="44.40264" lon="6.87894">
        <ele>1936.5999755859</ele>
        <time>2022-03-09T09:40:24.000Z</time>
      </trkpt>
      <trkpt lat="44.40263" lon="6.87895">
        <ele>1937</ele>
        <time>2022-03-09T09:40:26.000Z</time>
      </trkpt>
      <trkpt lat="44.40261" lon="6.87895">
        <ele>1937.1999511719</ele>
        <time>2022-03-09T09:40:29.000Z</time>
      </trkpt>
      <trkpt lat="44.40257" lon="6.87892">
        <ele>1937.5999755859</ele>
        <time>2022-03-09T09:40:35.000Z</time>
      </trkpt>
      <trkpt lat="44.40257" lon="6.87891">
        <ele>1937.8000488281</ele>
        <time>2022-03-09T09:40:36.000Z</time>
      </trkpt>
      <trkpt lat="44.40252" lon="6.87889">
        <ele>1938</ele>
        <time>2022-03-09T09:40:42.000Z</time>
      </trkpt>
      <trkpt lat="44.40249" lon="6.87888">
        <ele>1938</ele>
        <time>2022-03-09T09:40:47.000Z</time>
      </trkpt>
      <trkpt lat="44.40248" lon="6.87887">
        <ele>1938.1999511719</ele>
        <time>2022-03-09T09:40:51.000Z</time>
      </trkpt>
      <trkpt lat="44.40246" lon="6.87888">
        <ele>1938.4000244141</ele>
        <time>2022-03-09T09:40:53.000Z</time>
      </trkpt>
      <trkpt lat="44.40245" lon="6.87888">
        <ele>1938.5999755859</ele>
        <time>2022-03-09T09:40:55.000Z</time>
      </trkpt>
      <trkpt lat="44.40239" lon="6.87889">
        <ele>1938.8000488281</ele>
        <time>2022-03-09T09:41:02.000Z</time>
      </trkpt>
      <trkpt lat="44.40234" lon="6.8789">
        <ele>1939.1999511719</ele>
        <time>2022-03-09T09:41:09.000Z</time>
      </trkpt>
      <trkpt lat="44.40232" lon="6.87892">
        <ele>1939.5999755859</ele>
        <time>2022-03-09T09:41:14.000Z</time>
      </trkpt>
      <trkpt lat="44.40231" lon="6.87892">
        <ele>1939.5999755859</ele>
        <time>2022-03-09T09:41:15.000Z</time>
      </trkpt>
      <trkpt lat="44.4023" lon="6.87892">
        <ele>1939.8000488281</ele>
        <time>2022-03-09T09:41:21.000Z</time>
      </trkpt>
      <trkpt lat="44.40229" lon="6.87892">
        <ele>1939.8000488281</ele>
        <time>2022-03-09T09:41:22.000Z</time>
      </trkpt>
      <trkpt lat="44.40223" lon="6.87894">
        <ele>1940.1999511719</ele>
        <time>2022-03-09T09:41:27.000Z</time>
      </trkpt>
      <trkpt lat="44.4022" lon="6.87889">
        <ele>1940.4000244141</ele>
        <time>2022-03-09T09:41:31.000Z</time>
      </trkpt>
      <trkpt lat="44.4022" lon="6.87888">
        <ele>1940.5999755859</ele>
        <time>2022-03-09T09:41:32.000Z</time>
      </trkpt>
      <trkpt lat="44.40219" lon="6.87886">
        <ele>1940.8000488281</ele>
        <time>2022-03-09T09:41:34.000Z</time>
      </trkpt>
      <trkpt lat="44.40215" lon="6.87886">
        <ele>1940.8000488281</ele>
        <time>2022-03-09T09:41:37.000Z</time>
      </trkpt>
      <trkpt lat="44.40214" lon="6.87886">
        <ele>1940.5999755859</ele>
        <time>2022-03-09T09:41:38.000Z</time>
      </trkpt>
      <trkpt lat="44.40208" lon="6.87883">
        <ele>1940.1999511719</ele>
        <time>2022-03-09T09:41:46.000Z</time>
      </trkpt>
      <trkpt lat="44.40207" lon="6.87883">
        <ele>1940.1999511719</ele>
        <time>2022-03-09T09:41:47.000Z</time>
      </trkpt>
      <trkpt lat="44.40202" lon="6.87881">
        <ele>1940.1999511719</ele>
        <time>2022-03-09T09:41:53.000Z</time>
      </trkpt>
      <trkpt lat="44.40198" lon="6.8788">
        <ele>1940.5999755859</ele>
        <time>2022-03-09T09:41:56.000Z</time>
      </trkpt>
      <trkpt lat="44.40197" lon="6.8788">
        <ele>1940.8000488281</ele>
        <time>2022-03-09T09:41:58.000Z</time>
      </trkpt>
      <trkpt lat="44.40194" lon="6.87877">
        <ele>1941.1999511719</ele>
        <time>2022-03-09T09:42:05.000Z</time>
      </trkpt>
      <trkpt lat="44.40187" lon="6.87875">
        <ele>1941.1999511719</ele>
        <time>2022-03-09T09:42:11.000Z</time>
      </trkpt>
      <trkpt lat="44.40187" lon="6.87871">
        <ele>1941.1999511719</ele>
        <time>2022-03-09T09:42:19.000Z</time>
      </trkpt>
      <trkpt lat="44.40187" lon="6.87867">
        <ele>1940.5999755859</ele>
        <time>2022-03-09T09:42:26.000Z</time>
      </trkpt>
      <trkpt lat="44.40187" lon="6.87867">
        <ele>1941</ele>
        <time>2022-03-09T09:42:32.000Z</time>
      </trkpt>
      <trkpt lat="44.40186" lon="6.87867">
        <ele>1941.4000244141</ele>
        <time>2022-03-09T09:42:38.000Z</time>
      </trkpt>
      <trkpt lat="44.40185" lon="6.87867">
        <ele>1941.1999511719</ele>
        <time>2022-03-09T09:42:40.000Z</time>
      </trkpt>
      <trkpt lat="44.40183" lon="6.87867">
        <ele>1941.1999511719</ele>
        <time>2022-03-09T09:42:43.000Z</time>
      </trkpt>
      <trkpt lat="44.40182" lon="6.87868">
        <ele>1941.4000244141</ele>
        <time>2022-03-09T09:42:45.000Z</time>
      </trkpt>
      <trkpt lat="44.40182" lon="6.87869">
        <ele>1941.8000488281</ele>
        <time>2022-03-09T09:42:47.000Z</time>
      </trkpt>
      <trkpt lat="44.4018" lon="6.8787">
        <ele>1942.5999755859</ele>
        <time>2022-03-09T09:42:51.000Z</time>
      </trkpt>
      <trkpt lat="44.40178" lon="6.87871">
        <ele>1942.5999755859</ele>
        <time>2022-03-09T09:42:53.000Z</time>
      </trkpt>
      <trkpt lat="44.40175" lon="6.87872">
        <ele>1942.5999755859</ele>
        <time>2022-03-09T09:42:56.000Z</time>
      </trkpt>
      <trkpt lat="44.40175" lon="6.87873">
        <ele>1942.8000488281</ele>
        <time>2022-03-09T09:42:58.000Z</time>
      </trkpt>
      <trkpt lat="44.40173" lon="6.87872">
        <ele>1942.8000488281</ele>
        <time>2022-03-09T09:43:03.000Z</time>
      </trkpt>
      <trkpt lat="44.40172" lon="6.87872">
        <ele>1942.8000488281</ele>
        <time>2022-03-09T09:43:10.000Z</time>
      </trkpt>
      <trkpt lat="44.4017" lon="6.87871">
        <ele>1942.8000488281</ele>
        <time>2022-03-09T09:43:16.000Z</time>
      </trkpt>
      <trkpt lat="44.40165" lon="6.87869">
        <ele>1942.5999755859</ele>
        <time>2022-03-09T09:43:23.000Z</time>
      </trkpt>
      <trkpt lat="44.40159" lon="6.8787">
        <ele>1942.8000488281</ele>
        <time>2022-03-09T09:43:30.000Z</time>
      </trkpt>
      <trkpt lat="44.40156" lon="6.87867">
        <ele>1942.8000488281</ele>
        <time>2022-03-09T09:43:35.000Z</time>
      </trkpt>
      <trkpt lat="44.40155" lon="6.87863">
        <ele>1943</ele>
        <time>2022-03-09T09:43:38.000Z</time>
      </trkpt>
      <trkpt lat="44.40155" lon="6.87861">
        <ele>1943</ele>
        <time>2022-03-09T09:43:40.000Z</time>
      </trkpt>
      <trkpt lat="44.40156" lon="6.87859">
        <ele>1943</ele>
        <time>2022-03-09T09:43:44.000Z</time>
      </trkpt>
      <trkpt lat="44.40157" lon="6.87858">
        <ele>1943.1999511719</ele>
        <time>2022-03-09T09:43:50.000Z</time>
      </trkpt>
      <trkpt lat="44.40158" lon="6.87859">
        <ele>1943</ele>
        <time>2022-03-09T09:43:57.000Z</time>
      </trkpt>
      <trkpt lat="44.40158" lon="6.8786">
        <ele>1943</ele>
        <time>2022-03-09T09:44:01.000Z</time>
      </trkpt>
      <trkpt lat="44.40155" lon="6.87861">
        <ele>1943</ele>
        <time>2022-03-09T09:44:03.000Z</time>
      </trkpt>
      <trkpt lat="44.40153" lon="6.87858">
        <ele>1943.1999511719</ele>
        <time>2022-03-09T09:44:05.000Z</time>
      </trkpt>
      <trkpt lat="44.40152" lon="6.87853">
        <ele>1943.1999511719</ele>
        <time>2022-03-09T09:44:09.000Z</time>
      </trkpt>
      <trkpt lat="44.40153" lon="6.87851">
        <ele>1943.4000244141</ele>
        <time>2022-03-09T09:44:13.000Z</time>
      </trkpt>
      <trkpt lat="44.40154" lon="6.87851">
        <ele>1943.4000244141</ele>
        <time>2022-03-09T09:44:19.000Z</time>
      </trkpt>
      <trkpt lat="44.40148" lon="6.8785">
        <ele>1943.4000244141</ele>
        <time>2022-03-09T09:44:27.000Z</time>
      </trkpt>
      <trkpt lat="44.4015" lon="6.87853">
        <ele>1943.5999755859</ele>
        <time>2022-03-09T09:44:34.000Z</time>
      </trkpt>
      <trkpt lat="44.4015" lon="6.87854">
        <ele>1943.1999511719</ele>
        <time>2022-03-09T09:44:44.000Z</time>
      </trkpt>
      <trkpt lat="44.40149" lon="6.87854">
        <ele>1943.4000244141</ele>
        <time>2022-03-09T09:44:52.000Z</time>
      </trkpt>
      <trkpt lat="44.40149" lon="6.87854">
        <ele>1943.1999511719</ele>
        <time>2022-03-09T09:44:53.000Z</time>
      </trkpt>
      <trkpt lat="44.40149" lon="6.87852">
        <ele>1943.1999511719</ele>
        <time>2022-03-09T09:45:03.000Z</time>
      </trkpt>
      <trkpt lat="44.40146" lon="6.87851">
        <ele>1943</ele>
        <time>2022-03-09T09:45:24.000Z</time>
      </trkpt>
      <trkpt lat="44.40142" lon="6.87851">
        <ele>1943.4000244141</ele>
        <time>2022-03-09T09:45:28.000Z</time>
      </trkpt>
      <trkpt lat="44.40138" lon="6.8785">
        <ele>1943.8000488281</ele>
        <time>2022-03-09T09:45:33.000Z</time>
      </trkpt>
      <trkpt lat="44.40136" lon="6.87855">
        <ele>1943.8000488281</ele>
        <time>2022-03-09T09:45:36.000Z</time>
      </trkpt>
      <trkpt lat="44.40129" lon="6.87861">
        <ele>1944.4000244141</ele>
        <time>2022-03-09T09:45:43.000Z</time>
      </trkpt>
      <trkpt lat="44.40124" lon="6.87863">
        <ele>1944.5999755859</ele>
        <time>2022-03-09T09:45:48.000Z</time>
      </trkpt>
      <trkpt lat="44.40122" lon="6.87864">
        <ele>1944.8000488281</ele>
        <time>2022-03-09T09:45:50.000Z</time>
      </trkpt>
      <trkpt lat="44.4012" lon="6.87864">
        <ele>1945.4000244141</ele>
        <time>2022-03-09T09:45:53.000Z</time>
      </trkpt>
      <trkpt lat="44.40117" lon="6.87861">
        <ele>1946</ele>
        <time>2022-03-09T09:45:57.000Z</time>
      </trkpt>
      <trkpt lat="44.40116" lon="6.8786">
        <ele>1946.4000244141</ele>
        <time>2022-03-09T09:46:00.000Z</time>
      </trkpt>
      <trkpt lat="44.40116" lon="6.87857">
        <ele>1947</ele>
        <time>2022-03-09T09:46:04.000Z</time>
      </trkpt>
      <trkpt lat="44.40114" lon="6.87858">
        <ele>1947.1999511719</ele>
        <time>2022-03-09T09:46:06.000Z</time>
      </trkpt>
      <trkpt lat="44.40111" lon="6.87858">
        <ele>1948</ele>
        <time>2022-03-09T09:46:10.000Z</time>
      </trkpt>
      <trkpt lat="44.40109" lon="6.87858">
        <ele>1948.1999511719</ele>
        <time>2022-03-09T09:46:12.000Z</time>
      </trkpt>
      <trkpt lat="44.40106" lon="6.87858">
        <ele>1948.4000244141</ele>
        <time>2022-03-09T09:46:15.000Z</time>
      </trkpt>
      <trkpt lat="44.40102" lon="6.87856">
        <ele>1949.1999511719</ele>
        <time>2022-03-09T09:46:22.000Z</time>
      </trkpt>
      <trkpt lat="44.40099" lon="6.87851">
        <ele>1950.1999511719</ele>
        <time>2022-03-09T09:46:29.000Z</time>
      </trkpt>
      <trkpt lat="44.40099" lon="6.87849">
        <ele>1950.4000244141</ele>
        <time>2022-03-09T09:46:30.000Z</time>
      </trkpt>
      <trkpt lat="44.40096" lon="6.87847">
        <ele>1950.8000488281</ele>
        <time>2022-03-09T09:46:37.000Z</time>
      </trkpt>
      <trkpt lat="44.40096" lon="6.87838">
        <ele>1951.4000244141</ele>
        <time>2022-03-09T09:46:42.000Z</time>
      </trkpt>
      <trkpt lat="44.40092" lon="6.8783">
        <ele>1952.4000244141</ele>
        <time>2022-03-09T09:46:51.000Z</time>
      </trkpt>
      <trkpt lat="44.4009" lon="6.87826">
        <ele>1952.5999755859</ele>
        <time>2022-03-09T09:46:54.000Z</time>
      </trkpt>
      <trkpt lat="44.40088" lon="6.87825">
        <ele>1953.5999755859</ele>
        <time>2022-03-09T09:47:00.000Z</time>
      </trkpt>
      <trkpt lat="44.40083" lon="6.87823">
        <ele>1954.5999755859</ele>
        <time>2022-03-09T09:47:07.000Z</time>
      </trkpt>
      <trkpt lat="44.40082" lon="6.87823">
        <ele>1954.8000488281</ele>
        <time>2022-03-09T09:47:09.000Z</time>
      </trkpt>
      <trkpt lat="44.40077" lon="6.87822">
        <ele>1955.1999511719</ele>
        <time>2022-03-09T09:47:16.000Z</time>
      </trkpt>
      <trkpt lat="44.40075" lon="6.87821">
        <ele>1955.8000488281</ele>
        <time>2022-03-09T09:47:22.000Z</time>
      </trkpt>
      <trkpt lat="44.40074" lon="6.87822">
        <ele>1956.1999511719</ele>
        <time>2022-03-09T09:47:26.000Z</time>
      </trkpt>
      <trkpt lat="44.40072" lon="6.87826">
        <ele>1956.8000488281</ele>
        <time>2022-03-09T09:47:31.000Z</time>
      </trkpt>
      <trkpt lat="44.40071" lon="6.87831">
        <ele>1957.4000244141</ele>
        <time>2022-03-09T09:47:37.000Z</time>
      </trkpt>
      <trkpt lat="44.40067" lon="6.87838">
        <ele>1957.5999755859</ele>
        <time>2022-03-09T09:47:45.000Z</time>
      </trkpt>
      <trkpt lat="44.40066" lon="6.8784">
        <ele>1957.5999755859</ele>
        <time>2022-03-09T09:47:56.000Z</time>
      </trkpt>
      <trkpt lat="44.40066" lon="6.8784">
        <ele>1957.4000244141</ele>
        <time>2022-03-09T09:48:12.000Z</time>
      </trkpt>
      <trkpt lat="44.40064" lon="6.87841">
        <ele>1957.1999511719</ele>
        <time>2022-03-09T09:48:27.000Z</time>
      </trkpt>
      <trkpt lat="44.40066" lon="6.87838">
        <ele>1956.8000488281</ele>
        <time>2022-03-09T09:48:44.000Z</time>
      </trkpt>
      <trkpt lat="44.40066" lon="6.87837">
        <ele>1956.8000488281</ele>
        <time>2022-03-09T09:49:01.000Z</time>
      </trkpt>
      <trkpt lat="44.40066" lon="6.87837">
        <ele>1956.8000488281</ele>
        <time>2022-03-09T09:49:02.000Z</time>
      </trkpt>
      <trkpt lat="44.40067" lon="6.87835">
        <ele>1956.5999755859</ele>
        <time>2022-03-09T09:49:28.000Z</time>
      </trkpt>
      <trkpt lat="44.40067" lon="6.87834">
        <ele>1956.1999511719</ele>
        <time>2022-03-09T09:49:44.000Z</time>
      </trkpt>
      <trkpt lat="44.40067" lon="6.87831">
        <ele>1956.1999511719</ele>
        <time>2022-03-09T09:50:56.000Z</time>
      </trkpt>
      <trkpt lat="44.40067" lon="6.87831">
        <ele>1956.1999511719</ele>
        <time>2022-03-09T09:51:23.000Z</time>
      </trkpt>
      <trkpt lat="44.40067" lon="6.87831">
        <ele>1955.8000488281</ele>
        <time>2022-03-09T09:51:41.000Z</time>
      </trkpt>
      <trkpt lat="44.40067" lon="6.87831">
        <ele>1955.5999755859</ele>
        <time>2022-03-09T09:51:58.000Z</time>
      </trkpt>
      <trkpt lat="44.40067" lon="6.87831">
        <ele>1955.4000244141</ele>
        <time>2022-03-09T09:52:15.000Z</time>
      </trkpt>
      <trkpt lat="44.40067" lon="6.87831">
        <ele>1955</ele>
        <time>2022-03-09T09:52:54.000Z</time>
      </trkpt>
      <trkpt lat="44.40065" lon="6.87837">
        <ele>1956</ele>
        <time>2022-03-09T09:53:22.000Z</time>
      </trkpt>
      <trkpt lat="44.4006" lon="6.87847">
        <ele>1957</ele>
        <time>2022-03-09T09:53:30.000Z</time>
      </trkpt>
      <trkpt lat="44.40054" lon="6.87852">
        <ele>1957.8000488281</ele>
        <time>2022-03-09T09:53:38.000Z</time>
      </trkpt>
      <trkpt lat="44.40052" lon="6.87854">
        <ele>1958.1999511719</ele>
        <time>2022-03-09T09:53:41.000Z</time>
      </trkpt>
      <trkpt lat="44.40049" lon="6.87854">
        <ele>1958.4000244141</ele>
        <time>2022-03-09T09:53:45.000Z</time>
      </trkpt>
      <trkpt lat="44.40044" lon="6.87858">
        <ele>1959</ele>
        <time>2022-03-09T09:53:53.000Z</time>
      </trkpt>
      <trkpt lat="44.40044" lon="6.87858">
        <ele>1959.1999511719</ele>
        <time>2022-03-09T09:53:54.000Z</time>
      </trkpt>
      <trkpt lat="44.40039" lon="6.87864">
        <ele>1960.4000244141</ele>
        <time>2022-03-09T09:54:02.000Z</time>
      </trkpt>
      <trkpt lat="44.40038" lon="6.87864">
        <ele>1960.5999755859</ele>
        <time>2022-03-09T09:54:03.000Z</time>
      </trkpt>
      <trkpt lat="44.40034" lon="6.87867">
        <ele>1961.4000244141</ele>
        <time>2022-03-09T09:54:08.000Z</time>
      </trkpt>
      <trkpt lat="44.40032" lon="6.87867">
        <ele>1961.4000244141</ele>
        <time>2022-03-09T09:54:10.000Z</time>
      </trkpt>
      <trkpt lat="44.40027" lon="6.87865">
        <ele>1961.5999755859</ele>
        <time>2022-03-09T09:54:15.000Z</time>
      </trkpt>
      <trkpt lat="44.40024" lon="6.87863">
        <ele>1962.4000244141</ele>
        <time>2022-03-09T09:54:22.000Z</time>
      </trkpt>
      <trkpt lat="44.40019" lon="6.87864">
        <ele>1963.4000244141</ele>
        <time>2022-03-09T09:54:29.000Z</time>
      </trkpt>
      <trkpt lat="44.40018" lon="6.87864">
        <ele>1963.8000488281</ele>
        <time>2022-03-09T09:54:31.000Z</time>
      </trkpt>
      <trkpt lat="44.40017" lon="6.87864">
        <ele>1963.8000488281</ele>
        <time>2022-03-09T09:54:32.000Z</time>
      </trkpt>
      <trkpt lat="44.40014" lon="6.87865">
        <ele>1964.4000244141</ele>
        <time>2022-03-09T09:54:35.000Z</time>
      </trkpt>
      <trkpt lat="44.4001" lon="6.87867">
        <ele>1964.8000488281</ele>
        <time>2022-03-09T09:54:40.000Z</time>
      </trkpt>
      <trkpt lat="44.40004" lon="6.8787">
        <ele>1965.1999511719</ele>
        <time>2022-03-09T09:54:47.000Z</time>
      </trkpt>
      <trkpt lat="44.40003" lon="6.87871">
        <ele>1965.4000244141</ele>
        <time>2022-03-09T09:54:49.000Z</time>
      </trkpt>
      <trkpt lat="44.40002" lon="6.8787">
        <ele>1965.5999755859</ele>
        <time>2022-03-09T09:54:50.000Z</time>
      </trkpt>
      <trkpt lat="44.39998" lon="6.8787">
        <ele>1965.8000488281</ele>
        <time>2022-03-09T09:54:55.000Z</time>
      </trkpt>
      <trkpt lat="44.39992" lon="6.87872">
        <ele>1966.5999755859</ele>
        <time>2022-03-09T09:55:02.000Z</time>
      </trkpt>
      <trkpt lat="44.3999" lon="6.87872">
        <ele>1966.8000488281</ele>
        <time>2022-03-09T09:55:04.000Z</time>
      </trkpt>
      <trkpt lat="44.39988" lon="6.87872">
        <ele>1967</ele>
        <time>2022-03-09T09:55:06.000Z</time>
      </trkpt>
      <trkpt lat="44.39984" lon="6.87872">
        <ele>1967.5999755859</ele>
        <time>2022-03-09T09:55:11.000Z</time>
      </trkpt>
      <trkpt lat="44.39983" lon="6.87872">
        <ele>1967.8000488281</ele>
        <time>2022-03-09T09:55:13.000Z</time>
      </trkpt>
      <trkpt lat="44.39975" lon="6.87875">
        <ele>1968.4000244141</ele>
        <time>2022-03-09T09:55:22.000Z</time>
      </trkpt>
      <trkpt lat="44.39974" lon="6.87875">
        <ele>1968.5999755859</ele>
        <time>2022-03-09T09:55:23.000Z</time>
      </trkpt>
      <trkpt lat="44.39971" lon="6.87877">
        <ele>1969</ele>
        <time>2022-03-09T09:55:26.000Z</time>
      </trkpt>
      <trkpt lat="44.39965" lon="6.87878">
        <ele>1969.5999755859</ele>
        <time>2022-03-09T09:55:32.000Z</time>
      </trkpt>
      <trkpt lat="44.39953" lon="6.87881">
        <ele>1969.5999755859</ele>
        <time>2022-03-09T09:55:42.000Z</time>
      </trkpt>
      <trkpt lat="44.39949" lon="6.87881">
        <ele>1969.5999755859</ele>
        <time>2022-03-09T09:55:46.000Z</time>
      </trkpt>
      <trkpt lat="44.39945" lon="6.87881">
        <ele>1970</ele>
        <time>2022-03-09T09:55:50.000Z</time>
      </trkpt>
      <trkpt lat="44.39942" lon="6.87881">
        <ele>1970.1999511719</ele>
        <time>2022-03-09T09:55:52.000Z</time>
      </trkpt>
      <trkpt lat="44.39931" lon="6.87881">
        <ele>1970.1999511719</ele>
        <time>2022-03-09T09:56:02.000Z</time>
      </trkpt>
      <trkpt lat="44.39918" lon="6.87881">
        <ele>1970.5999755859</ele>
        <time>2022-03-09T09:56:15.000Z</time>
      </trkpt>
      <trkpt lat="44.39914" lon="6.87879">
        <ele>1970.5999755859</ele>
        <time>2022-03-09T09:56:18.000Z</time>
      </trkpt>
      <trkpt lat="44.39906" lon="6.87877">
        <ele>1970.5999755859</ele>
        <time>2022-03-09T09:56:26.000Z</time>
      </trkpt>
      <trkpt lat="44.39895" lon="6.87879">
        <ele>1970</ele>
        <time>2022-03-09T09:56:35.000Z</time>
      </trkpt>
      <trkpt lat="44.39887" lon="6.87877">
        <ele>1969.8000488281</ele>
        <time>2022-03-09T09:56:42.000Z</time>
      </trkpt>
      <trkpt lat="44.39886" lon="6.87877">
        <ele>1969.5999755859</ele>
        <time>2022-03-09T09:56:43.000Z</time>
      </trkpt>
      <trkpt lat="44.39874" lon="6.87875">
        <ele>1969.4000244141</ele>
        <time>2022-03-09T09:56:54.000Z</time>
      </trkpt>
      <trkpt lat="44.39865" lon="6.87875">
        <ele>1970</ele>
        <time>2022-03-09T09:57:03.000Z</time>
      </trkpt>
      <trkpt lat="44.3985" lon="6.87874">
        <ele>1969.5999755859</ele>
        <time>2022-03-09T09:57:15.000Z</time>
      </trkpt>
      <trkpt lat="44.39839" lon="6.87878">
        <ele>1968.4000244141</ele>
        <time>2022-03-09T09:57:26.000Z</time>
      </trkpt>
      <trkpt lat="44.3983" lon="6.87877">
        <ele>1967.5999755859</ele>
        <time>2022-03-09T09:57:35.000Z</time>
      </trkpt>
      <trkpt lat="44.39828" lon="6.87876">
        <ele>1967.4000244141</ele>
        <time>2022-03-09T09:57:37.000Z</time>
      </trkpt>
      <trkpt lat="44.39822" lon="6.87878">
        <ele>1967.5999755859</ele>
        <time>2022-03-09T09:57:43.000Z</time>
      </trkpt>
      <trkpt lat="44.3981" lon="6.8788">
        <ele>1967.1999511719</ele>
        <time>2022-03-09T09:57:51.000Z</time>
      </trkpt>
      <trkpt lat="44.39807" lon="6.87881">
        <ele>1967.1999511719</ele>
        <time>2022-03-09T09:57:53.000Z</time>
      </trkpt>
      <trkpt lat="44.39795" lon="6.87882">
        <ele>1966.5999755859</ele>
        <time>2022-03-09T09:58:00.000Z</time>
      </trkpt>
      <trkpt lat="44.39791" lon="6.87882">
        <ele>1966.4000244141</ele>
        <time>2022-03-09T09:58:03.000Z</time>
      </trkpt>
      <trkpt lat="44.39782" lon="6.87883">
        <ele>1965.5999755859</ele>
        <time>2022-03-09T09:58:11.000Z</time>
      </trkpt>
      <trkpt lat="44.39777" lon="6.87885">
        <ele>1965.4000244141</ele>
        <time>2022-03-09T09:58:15.000Z</time>
      </trkpt>
      <trkpt lat="44.39772" lon="6.87886">
        <ele>1965.5999755859</ele>
        <time>2022-03-09T09:58:19.000Z</time>
      </trkpt>
      <trkpt lat="44.39758" lon="6.87888">
        <ele>1965.1999511719</ele>
        <time>2022-03-09T09:58:31.000Z</time>
      </trkpt>
      <trkpt lat="44.39747" lon="6.87889">
        <ele>1964.5999755859</ele>
        <time>2022-03-09T09:58:41.000Z</time>
      </trkpt>
      <trkpt lat="44.39742" lon="6.87892">
        <ele>1964.4000244141</ele>
        <time>2022-03-09T09:58:45.000Z</time>
      </trkpt>
      <trkpt lat="44.39736" lon="6.87892">
        <ele>1964</ele>
        <time>2022-03-09T09:58:50.000Z</time>
      </trkpt>
      <trkpt lat="44.39725" lon="6.87892">
        <ele>1963.8000488281</ele>
        <time>2022-03-09T09:58:59.000Z</time>
      </trkpt>
      <trkpt lat="44.39712" lon="6.87892">
        <ele>1963.5999755859</ele>
        <time>2022-03-09T09:59:09.000Z</time>
      </trkpt>
      <trkpt lat="44.39706" lon="6.87889">
        <ele>1963.4000244141</ele>
        <time>2022-03-09T09:59:18.000Z</time>
      </trkpt>
      <trkpt lat="44.39705" lon="6.87889">
        <ele>1963.4000244141</ele>
        <time>2022-03-09T09:59:19.000Z</time>
      </trkpt>
      <trkpt lat="44.39694" lon="6.8789">
        <ele>1963.1999511719</ele>
        <time>2022-03-09T09:59:30.000Z</time>
      </trkpt>
      <trkpt lat="44.39682" lon="6.87892">
        <ele>1963</ele>
        <time>2022-03-09T09:59:40.000Z</time>
      </trkpt>
      <trkpt lat="44.39671" lon="6.8789">
        <ele>1963</ele>
        <time>2022-03-09T09:59:51.000Z</time>
      </trkpt>
      <trkpt lat="44.3966" lon="6.87891">
        <ele>1963.1999511719</ele>
        <time>2022-03-09T10:00:00.000Z</time>
      </trkpt>
      <trkpt lat="44.39655" lon="6.87891">
        <ele>1963.4000244141</ele>
        <time>2022-03-09T10:00:05.000Z</time>
      </trkpt>
      <trkpt lat="44.39652" lon="6.87892">
        <ele>1963.5999755859</ele>
        <time>2022-03-09T10:00:08.000Z</time>
      </trkpt>
      <trkpt lat="44.3964" lon="6.87896">
        <ele>1963.5999755859</ele>
        <time>2022-03-09T10:00:18.000Z</time>
      </trkpt>
      <trkpt lat="44.39624" lon="6.87897">
        <ele>1963.8000488281</ele>
        <time>2022-03-09T10:00:31.000Z</time>
      </trkpt>
      <trkpt lat="44.39617" lon="6.879">
        <ele>1964</ele>
        <time>2022-03-09T10:00:39.000Z</time>
      </trkpt>
      <trkpt lat="44.39612" lon="6.87902">
        <ele>1964.4000244141</ele>
        <time>2022-03-09T10:00:45.000Z</time>
      </trkpt>
      <trkpt lat="44.39607" lon="6.87903">
        <ele>1964.8000488281</ele>
        <time>2022-03-09T10:00:49.000Z</time>
      </trkpt>
      <trkpt lat="44.39606" lon="6.87903">
        <ele>1964.8000488281</ele>
        <time>2022-03-09T10:00:51.000Z</time>
      </trkpt>
      <trkpt lat="44.39598" lon="6.8791">
        <ele>1965</ele>
        <time>2022-03-09T10:00:57.000Z</time>
      </trkpt>
      <trkpt lat="44.39587" lon="6.87917">
        <ele>1965.4000244141</ele>
        <time>2022-03-09T10:01:08.000Z</time>
      </trkpt>
      <trkpt lat="44.39586" lon="6.87917">
        <ele>1965.4000244141</ele>
        <time>2022-03-09T10:01:09.000Z</time>
      </trkpt>
      <trkpt lat="44.3958" lon="6.8792">
        <ele>1965.4000244141</ele>
        <time>2022-03-09T10:01:15.000Z</time>
      </trkpt>
      <trkpt lat="44.39572" lon="6.87927">
        <ele>1965.5999755859</ele>
        <time>2022-03-09T10:01:22.000Z</time>
      </trkpt>
      <trkpt lat="44.39569" lon="6.8793">
        <ele>1965.5999755859</ele>
        <time>2022-03-09T10:01:25.000Z</time>
      </trkpt>
      <trkpt lat="44.39557" lon="6.87939">
        <ele>1965.8000488281</ele>
        <time>2022-03-09T10:01:38.000Z</time>
      </trkpt>
      <trkpt lat="44.39549" lon="6.87945">
        <ele>1966.1999511719</ele>
        <time>2022-03-09T10:01:47.000Z</time>
      </trkpt>
      <trkpt lat="44.39548" lon="6.87946">
        <ele>1966.4000244141</ele>
        <time>2022-03-09T10:01:49.000Z</time>
      </trkpt>
      <trkpt lat="44.39547" lon="6.87946">
        <ele>1966.4000244141</ele>
        <time>2022-03-09T10:01:50.000Z</time>
      </trkpt>
      <trkpt lat="44.39537" lon="6.87952">
        <ele>1966.4000244141</ele>
        <time>2022-03-09T10:02:02.000Z</time>
      </trkpt>
      <trkpt lat="44.39533" lon="6.87951">
        <ele>1966.5999755859</ele>
        <time>2022-03-09T10:02:08.000Z</time>
      </trkpt>
      <trkpt lat="44.39531" lon="6.87954">
        <ele>1966.5999755859</ele>
        <time>2022-03-09T10:02:10.000Z</time>
      </trkpt>
      <trkpt lat="44.39523" lon="6.87957">
        <ele>1966.8000488281</ele>
        <time>2022-03-09T10:02:18.000Z</time>
      </trkpt>
      <trkpt lat="44.39516" lon="6.87961">
        <ele>1967</ele>
        <time>2022-03-09T10:02:25.000Z</time>
      </trkpt>
      <trkpt lat="44.39505" lon="6.87967">
        <ele>1967.1999511719</ele>
        <time>2022-03-09T10:02:37.000Z</time>
      </trkpt>
      <trkpt lat="44.39499" lon="6.87967">
        <ele>1967.4000244141</ele>
        <time>2022-03-09T10:02:44.000Z</time>
      </trkpt>
      <trkpt lat="44.39498" lon="6.87966">
        <ele>1967.5999755859</ele>
        <time>2022-03-09T10:02:45.000Z</time>
      </trkpt>
      <trkpt lat="44.39488" lon="6.87969">
        <ele>1968.1999511719</ele>
        <time>2022-03-09T10:02:53.000Z</time>
      </trkpt>
      <trkpt lat="44.39485" lon="6.87967">
        <ele>1968.4000244141</ele>
        <time>2022-03-09T10:02:57.000Z</time>
      </trkpt>
      <trkpt lat="44.39482" lon="6.87967">
        <ele>1968.5999755859</ele>
        <time>2022-03-09T10:03:01.000Z</time>
      </trkpt>
      <trkpt lat="44.39477" lon="6.87967">
        <ele>1969</ele>
        <time>2022-03-09T10:03:06.000Z</time>
      </trkpt>
      <trkpt lat="44.39475" lon="6.87968">
        <ele>1969.1999511719</ele>
        <time>2022-03-09T10:03:07.000Z</time>
      </trkpt>
      <trkpt lat="44.39473" lon="6.87966">
        <ele>1969.5999755859</ele>
        <time>2022-03-09T10:03:10.000Z</time>
      </trkpt>
      <trkpt lat="44.39469" lon="6.87964">
        <ele>1969.8000488281</ele>
        <time>2022-03-09T10:03:14.000Z</time>
      </trkpt>
      <trkpt lat="44.3946" lon="6.87954">
        <ele>1970.1999511719</ele>
        <time>2022-03-09T10:03:23.000Z</time>
      </trkpt>
      <trkpt lat="44.39455" lon="6.87953">
        <ele>1970.1999511719</ele>
        <time>2022-03-09T10:03:28.000Z</time>
      </trkpt>
      <trkpt lat="44.39452" lon="6.87953">
        <ele>1970.4000244141</ele>
        <time>2022-03-09T10:03:31.000Z</time>
      </trkpt>
      <trkpt lat="44.39452" lon="6.87952">
        <ele>1970.4000244141</ele>
        <time>2022-03-09T10:03:32.000Z</time>
      </trkpt>
      <trkpt lat="44.39448" lon="6.87949">
        <ele>1970.5999755859</ele>
        <time>2022-03-09T10:03:37.000Z</time>
      </trkpt>
      <trkpt lat="44.39445" lon="6.87947">
        <ele>1970.5999755859</ele>
        <time>2022-03-09T10:03:39.000Z</time>
      </trkpt>
      <trkpt lat="44.39437" lon="6.87941">
        <ele>1971.1999511719</ele>
        <time>2022-03-09T10:03:48.000Z</time>
      </trkpt>
      <trkpt lat="44.39434" lon="6.87938">
        <ele>1971.5999755859</ele>
        <time>2022-03-09T10:03:52.000Z</time>
      </trkpt>
      <trkpt lat="44.39431" lon="6.87935">
        <ele>1971.8000488281</ele>
        <time>2022-03-09T10:03:56.000Z</time>
      </trkpt>
      <trkpt lat="44.39429" lon="6.87932">
        <ele>1971.8000488281</ele>
        <time>2022-03-09T10:03:59.000Z</time>
      </trkpt>
      <trkpt lat="44.39417" lon="6.87923">
        <ele>1972.1999511719</ele>
        <time>2022-03-09T10:04:11.000Z</time>
      </trkpt>
      <trkpt lat="44.3941" lon="6.87919">
        <ele>1972.5999755859</ele>
        <time>2022-03-09T10:04:17.000Z</time>
      </trkpt>
      <trkpt lat="44.39408" lon="6.87915">
        <ele>1972.8000488281</ele>
        <time>2022-03-09T10:04:21.000Z</time>
      </trkpt>
      <trkpt lat="44.394" lon="6.87906">
        <ele>1973.4000244141</ele>
        <time>2022-03-09T10:04:32.000Z</time>
      </trkpt>
      <trkpt lat="44.39388" lon="6.879">
        <ele>1973.5999755859</ele>
        <time>2022-03-09T10:04:43.000Z</time>
      </trkpt>
      <trkpt lat="44.39386" lon="6.87901">
        <ele>1973.5999755859</ele>
        <time>2022-03-09T10:04:45.000Z</time>
      </trkpt>
      <trkpt lat="44.39376" lon="6.87893">
        <ele>1974</ele>
        <time>2022-03-09T10:04:56.000Z</time>
      </trkpt>
      <trkpt lat="44.39368" lon="6.87889">
        <ele>1974.1999511719</ele>
        <time>2022-03-09T10:05:05.000Z</time>
      </trkpt>
      <trkpt lat="44.39364" lon="6.87888">
        <ele>1974.4000244141</ele>
        <time>2022-03-09T10:05:08.000Z</time>
      </trkpt>
      <trkpt lat="44.39359" lon="6.87885">
        <ele>1974.5999755859</ele>
        <time>2022-03-09T10:05:14.000Z</time>
      </trkpt>
      <trkpt lat="44.39355" lon="6.87882">
        <ele>1974.8000488281</ele>
        <time>2022-03-09T10:05:19.000Z</time>
      </trkpt>
      <trkpt lat="44.39351" lon="6.87881">
        <ele>1975</ele>
        <time>2022-03-09T10:05:22.000Z</time>
      </trkpt>
      <trkpt lat="44.39343" lon="6.87881">
        <ele>1975.8000488281</ele>
        <time>2022-03-09T10:05:31.000Z</time>
      </trkpt>
      <trkpt lat="44.3934" lon="6.87878">
        <ele>1975.8000488281</ele>
        <time>2022-03-09T10:05:34.000Z</time>
      </trkpt>
      <trkpt lat="44.39332" lon="6.87877">
        <ele>1976.1999511719</ele>
        <time>2022-03-09T10:05:42.000Z</time>
      </trkpt>
      <trkpt lat="44.39331" lon="6.87877">
        <ele>1976.1999511719</ele>
        <time>2022-03-09T10:05:43.000Z</time>
      </trkpt>
      <trkpt lat="44.39327" lon="6.87874">
        <ele>1976.4000244141</ele>
        <time>2022-03-09T10:05:49.000Z</time>
      </trkpt>
      <trkpt lat="44.3932" lon="6.87875">
        <ele>1976.4000244141</ele>
        <time>2022-03-09T10:05:59.000Z</time>
      </trkpt>
      <trkpt lat="44.3932" lon="6.87871">
        <ele>1976.4000244141</ele>
        <time>2022-03-09T10:06:06.000Z</time>
      </trkpt>
      <trkpt lat="44.39319" lon="6.87871">
        <ele>1976.1999511719</ele>
        <time>2022-03-09T10:06:40.000Z</time>
      </trkpt>
      <trkpt lat="44.39317" lon="6.87875">
        <ele>1976.1999511719</ele>
        <time>2022-03-09T10:07:09.000Z</time>
      </trkpt>
      <trkpt lat="44.39315" lon="6.8787">
        <ele>1976.4000244141</ele>
        <time>2022-03-09T10:07:56.000Z</time>
      </trkpt>
      <trkpt lat="44.39304" lon="6.87873">
        <ele>1976.5999755859</ele>
        <time>2022-03-09T10:08:03.000Z</time>
      </trkpt>
      <trkpt lat="44.39299" lon="6.87876">
        <ele>1976.8000488281</ele>
        <time>2022-03-09T10:08:11.000Z</time>
      </trkpt>
      <trkpt lat="44.39298" lon="6.87876">
        <ele>1977</ele>
        <time>2022-03-09T10:08:12.000Z</time>
      </trkpt>
      <trkpt lat="44.39295" lon="6.87877">
        <ele>1977.1999511719</ele>
        <time>2022-03-09T10:08:16.000Z</time>
      </trkpt>
      <trkpt lat="44.39291" lon="6.87878">
        <ele>1977.4000244141</ele>
        <time>2022-03-09T10:08:20.000Z</time>
      </trkpt>
      <trkpt lat="44.39284" lon="6.87878">
        <ele>1977.1999511719</ele>
        <time>2022-03-09T10:08:27.000Z</time>
      </trkpt>
      <trkpt lat="44.39273" lon="6.87883">
        <ele>1977.1999511719</ele>
        <time>2022-03-09T10:08:37.000Z</time>
      </trkpt>
      <trkpt lat="44.39266" lon="6.87885">
        <ele>1977</ele>
        <time>2022-03-09T10:08:42.000Z</time>
      </trkpt>
      <trkpt lat="44.39263" lon="6.87885">
        <ele>1976.8000488281</ele>
        <time>2022-03-09T10:08:44.000Z</time>
      </trkpt>
      <trkpt lat="44.39247" lon="6.8788">
        <ele>1976.8000488281</ele>
        <time>2022-03-09T10:08:56.000Z</time>
      </trkpt>
      <trkpt lat="44.3924" lon="6.87877">
        <ele>1976.8000488281</ele>
        <time>2022-03-09T10:09:03.000Z</time>
      </trkpt>
      <trkpt lat="44.39228" lon="6.87875">
        <ele>1977</ele>
        <time>2022-03-09T10:09:15.000Z</time>
      </trkpt>
      <trkpt lat="44.39218" lon="6.87876">
        <ele>1977.1999511719</ele>
        <time>2022-03-09T10:09:24.000Z</time>
      </trkpt>
      <trkpt lat="44.39216" lon="6.87878">
        <ele>1977.5999755859</ele>
        <time>2022-03-09T10:09:27.000Z</time>
      </trkpt>
      <trkpt lat="44.39211" lon="6.87878">
        <ele>1977.4000244141</ele>
        <time>2022-03-09T10:09:33.000Z</time>
      </trkpt>
      <trkpt lat="44.39208" lon="6.8788">
        <ele>1977.4000244141</ele>
        <time>2022-03-09T10:09:35.000Z</time>
      </trkpt>
      <trkpt lat="44.39197" lon="6.87885">
        <ele>1977.5999755859</ele>
        <time>2022-03-09T10:09:45.000Z</time>
      </trkpt>
      <trkpt lat="44.39194" lon="6.87887">
        <ele>1977.8000488281</ele>
        <time>2022-03-09T10:09:48.000Z</time>
      </trkpt>
      <trkpt lat="44.39185" lon="6.87892">
        <ele>1978</ele>
        <time>2022-03-09T10:09:58.000Z</time>
      </trkpt>
      <trkpt lat="44.39174" lon="6.87899">
        <ele>1978.1999511719</ele>
        <time>2022-03-09T10:10:10.000Z</time>
      </trkpt>
      <trkpt lat="44.39168" lon="6.87906">
        <ele>1978.4000244141</ele>
        <time>2022-03-09T10:10:18.000Z</time>
      </trkpt>
      <trkpt lat="44.39165" lon="6.87909">
        <ele>1978.5999755859</ele>
        <time>2022-03-09T10:10:21.000Z</time>
      </trkpt>
      <trkpt lat="44.39163" lon="6.8791">
        <ele>1979</ele>
        <time>2022-03-09T10:10:24.000Z</time>
      </trkpt>
      <trkpt lat="44.39157" lon="6.87914">
        <ele>1979.4000244141</ele>
        <time>2022-03-09T10:10:30.000Z</time>
      </trkpt>
      <trkpt lat="44.39144" lon="6.87927">
        <ele>1979.4000244141</ele>
        <time>2022-03-09T10:10:41.000Z</time>
      </trkpt>
      <trkpt lat="44.39143" lon="6.87928">
        <ele>1979.4000244141</ele>
        <time>2022-03-09T10:10:42.000Z</time>
      </trkpt>
      <trkpt lat="44.39135" lon="6.87932">
        <ele>1979.5999755859</ele>
        <time>2022-03-09T10:10:51.000Z</time>
      </trkpt>
      <trkpt lat="44.39127" lon="6.87929">
        <ele>1979.8000488281</ele>
        <time>2022-03-09T10:11:01.000Z</time>
      </trkpt>
      <trkpt lat="44.39124" lon="6.87929">
        <ele>1980</ele>
        <time>2022-03-09T10:11:04.000Z</time>
      </trkpt>
      <trkpt lat="44.39119" lon="6.87927">
        <ele>1980</ele>
        <time>2022-03-09T10:11:10.000Z</time>
      </trkpt>
      <trkpt lat="44.39118" lon="6.87929">
        <ele>1980.1999511719</ele>
        <time>2022-03-09T10:11:12.000Z</time>
      </trkpt>
      <trkpt lat="44.39115" lon="6.87932">
        <ele>1980.5999755859</ele>
        <time>2022-03-09T10:11:15.000Z</time>
      </trkpt>
      <trkpt lat="44.39107" lon="6.87935">
        <ele>1980.8000488281</ele>
        <time>2022-03-09T10:11:24.000Z</time>
      </trkpt>
      <trkpt lat="44.39099" lon="6.87936">
        <ele>1980.5999755859</ele>
        <time>2022-03-09T10:11:34.000Z</time>
      </trkpt>
      <trkpt lat="44.39088" lon="6.87943">
        <ele>1980.8000488281</ele>
        <time>2022-03-09T10:11:44.000Z</time>
      </trkpt>
      <trkpt lat="44.39078" lon="6.87943">
        <ele>1980.8000488281</ele>
        <time>2022-03-09T10:11:54.000Z</time>
      </trkpt>
      <trkpt lat="44.39071" lon="6.87943">
        <ele>1980.8000488281</ele>
        <time>2022-03-09T10:12:02.000Z</time>
      </trkpt>
      <trkpt lat="44.39071" lon="6.87945">
        <ele>1980.8000488281</ele>
        <time>2022-03-09T10:12:08.000Z</time>
      </trkpt>
      <trkpt lat="44.39067" lon="6.8795">
        <ele>1980.5999755859</ele>
        <time>2022-03-09T10:12:18.000Z</time>
      </trkpt>
      <trkpt lat="44.39068" lon="6.87948">
        <ele>1980.5999755859</ele>
        <time>2022-03-09T10:12:28.000Z</time>
      </trkpt>
      <trkpt lat="44.39066" lon="6.87949">
        <ele>1980.5999755859</ele>
        <time>2022-03-09T10:12:38.000Z</time>
      </trkpt>
      <trkpt lat="44.39065" lon="6.8795">
        <ele>1980.5999755859</ele>
        <time>2022-03-09T10:12:51.000Z</time>
      </trkpt>
      <trkpt lat="44.39068" lon="6.87944">
        <ele>1980.1999511719</ele>
        <time>2022-03-09T10:13:19.000Z</time>
      </trkpt>
      <trkpt lat="44.39069" lon="6.87936">
        <ele>1980.1999511719</ele>
        <time>2022-03-09T10:14:06.000Z</time>
      </trkpt>
      <trkpt lat="44.39067" lon="6.87934">
        <ele>1980.1999511719</ele>
        <time>2022-03-09T10:14:08.000Z</time>
      </trkpt>
      <trkpt lat="44.39066" lon="6.87933">
        <ele>1980.1999511719</ele>
        <time>2022-03-09T10:14:09.000Z</time>
      </trkpt>
      <trkpt lat="44.39061" lon="6.87927">
        <ele>1980.5999755859</ele>
        <time>2022-03-09T10:14:16.000Z</time>
      </trkpt>
      <trkpt lat="44.39061" lon="6.87925">
        <ele>1981.1999511719</ele>
        <time>2022-03-09T10:14:19.000Z</time>
      </trkpt>
      <trkpt lat="44.39061" lon="6.87924">
        <ele>1981.4000244141</ele>
        <time>2022-03-09T10:14:22.000Z</time>
      </trkpt>
      <trkpt lat="44.39062" lon="6.87917">
        <ele>1982.1999511719</ele>
        <time>2022-03-09T10:14:30.000Z</time>
      </trkpt>
      <trkpt lat="44.39063" lon="6.87912">
        <ele>1983.4000244141</ele>
        <time>2022-03-09T10:14:37.000Z</time>
      </trkpt>
      <trkpt lat="44.39063" lon="6.87907">
        <ele>1983.8000488281</ele>
        <time>2022-03-09T10:14:44.000Z</time>
      </trkpt>
      <trkpt lat="44.39063" lon="6.87904">
        <ele>1984.1999511719</ele>
        <time>2022-03-09T10:14:49.000Z</time>
      </trkpt>
      <trkpt lat="44.39067" lon="6.879">
        <ele>1984.5999755859</ele>
        <time>2022-03-09T10:14:54.000Z</time>
      </trkpt>
      <trkpt lat="44.39068" lon="6.87897">
        <ele>1984.5999755859</ele>
        <time>2022-03-09T10:14:55.000Z</time>
      </trkpt>
      <trkpt lat="44.39068" lon="6.87893">
        <ele>1984.8000488281</ele>
        <time>2022-03-09T10:14:58.000Z</time>
      </trkpt>
      <trkpt lat="44.39068" lon="6.87888">
        <ele>1985.5999755859</ele>
        <time>2022-03-09T10:15:03.000Z</time>
      </trkpt>
      <trkpt lat="44.39066" lon="6.87888">
        <ele>1985.8000488281</ele>
        <time>2022-03-09T10:15:05.000Z</time>
      </trkpt>
      <trkpt lat="44.39066" lon="6.87889">
        <ele>1986.1999511719</ele>
        <time>2022-03-09T10:15:10.000Z</time>
      </trkpt>
      <trkpt lat="44.39068" lon="6.87889">
        <ele>1986.1999511719</ele>
        <time>2022-03-09T10:15:17.000Z</time>
      </trkpt>
      <trkpt lat="44.39067" lon="6.87891">
        <ele>1986.8000488281</ele>
        <time>2022-03-09T10:15:24.000Z</time>
      </trkpt>
      <trkpt lat="44.39067" lon="6.87892">
        <ele>1986.8000488281</ele>
        <time>2022-03-09T10:15:25.000Z</time>
      </trkpt>
      <trkpt lat="44.39065" lon="6.87898">
        <ele>1987</ele>
        <time>2022-03-09T10:15:31.000Z</time>
      </trkpt>
      <trkpt lat="44.39066" lon="6.87901">
        <ele>1987.4000244141</ele>
        <time>2022-03-09T10:15:37.000Z</time>
      </trkpt>
      <trkpt lat="44.39065" lon="6.87904">
        <ele>1987.5999755859</ele>
        <time>2022-03-09T10:15:42.000Z</time>
      </trkpt>
      <trkpt lat="44.39064" lon="6.87906">
        <ele>1987.5999755859</ele>
        <time>2022-03-09T10:15:46.000Z</time>
      </trkpt>
      <trkpt lat="44.39064" lon="6.87907">
        <ele>1987.5999755859</ele>
        <time>2022-03-09T10:15:47.000Z</time>
      </trkpt>
      <trkpt lat="44.39064" lon="6.87907">
        <ele>1987.5999755859</ele>
        <time>2022-03-09T10:15:48.000Z</time>
      </trkpt>
      <trkpt lat="44.39066" lon="6.87907">
        <ele>1987.4000244141</ele>
        <time>2022-03-09T10:15:50.000Z</time>
      </trkpt>
      <trkpt lat="44.39063" lon="6.87912">
        <ele>1987.1999511719</ele>
        <time>2022-03-09T10:15:54.000Z</time>
      </trkpt>
      <trkpt lat="44.39057" lon="6.87918">
        <ele>1987.1999511719</ele>
        <time>2022-03-09T10:16:01.000Z</time>
      </trkpt>
      <trkpt lat="44.39057" lon="6.87918">
        <ele>1987.4000244141</ele>
        <time>2022-03-09T10:16:02.000Z</time>
      </trkpt>
      <trkpt lat="44.39054" lon="6.87921">
        <ele>1987.8000488281</ele>
        <time>2022-03-09T10:16:08.000Z</time>
      </trkpt>
      <trkpt lat="44.39053" lon="6.87923">
        <ele>1988.1999511719</ele>
        <time>2022-03-09T10:16:11.000Z</time>
      </trkpt>
      <trkpt lat="44.3905" lon="6.87924">
        <ele>1988.8000488281</ele>
        <time>2022-03-09T10:16:15.000Z</time>
      </trkpt>
      <trkpt lat="44.39049" lon="6.87927">
        <ele>1989.1999511719</ele>
        <time>2022-03-09T10:16:18.000Z</time>
      </trkpt>
      <trkpt lat="44.3905" lon="6.8793">
        <ele>1990</ele>
        <time>2022-03-09T10:16:25.000Z</time>
      </trkpt>
      <trkpt lat="44.39048" lon="6.87934">
        <ele>1990.4000244141</ele>
        <time>2022-03-09T10:16:31.000Z</time>
      </trkpt>
      <trkpt lat="44.39042" lon="6.87938">
        <ele>1990.8000488281</ele>
        <time>2022-03-09T10:16:37.000Z</time>
      </trkpt>
      <trkpt lat="44.39046" lon="6.87932">
        <ele>1991</ele>
        <time>2022-03-09T10:16:39.000Z</time>
      </trkpt>
      <trkpt lat="44.39046" lon="6.8793">
        <ele>1991.4000244141</ele>
        <time>2022-03-09T10:16:43.000Z</time>
      </trkpt>
      <trkpt lat="44.39043" lon="6.8793">
        <ele>1991.8000488281</ele>
        <time>2022-03-09T10:16:49.000Z</time>
      </trkpt>
      <trkpt lat="44.39039" lon="6.87929">
        <ele>1992.1999511719</ele>
        <time>2022-03-09T10:16:54.000Z</time>
      </trkpt>
      <trkpt lat="44.39038" lon="6.87929">
        <ele>1992.4000244141</ele>
        <time>2022-03-09T10:16:55.000Z</time>
      </trkpt>
      <trkpt lat="44.39036" lon="6.87924">
        <ele>1993.4000244141</ele>
        <time>2022-03-09T10:17:02.000Z</time>
      </trkpt>
      <trkpt lat="44.39034" lon="6.87925">
        <ele>1994.1999511719</ele>
        <time>2022-03-09T10:17:05.000Z</time>
      </trkpt>
      <trkpt lat="44.39033" lon="6.87924">
        <ele>1994.5999755859</ele>
        <time>2022-03-09T10:17:08.000Z</time>
      </trkpt>
      <trkpt lat="44.39034" lon="6.87923">
        <ele>1995</ele>
        <time>2022-03-09T10:17:11.000Z</time>
      </trkpt>
      <trkpt lat="44.39032" lon="6.87927">
        <ele>1995.5999755859</ele>
        <time>2022-03-09T10:17:16.000Z</time>
      </trkpt>
      <trkpt lat="44.39032" lon="6.87927">
        <ele>1995.5999755859</ele>
        <time>2022-03-09T10:17:17.000Z</time>
      </trkpt>
      <trkpt lat="44.39028" lon="6.87932">
        <ele>1996.5999755859</ele>
        <time>2022-03-09T10:17:25.000Z</time>
      </trkpt>
      <trkpt lat="44.39025" lon="6.87932">
        <ele>1997</ele>
        <time>2022-03-09T10:17:33.000Z</time>
      </trkpt>
      <trkpt lat="44.39025" lon="6.87922">
        <ele>1997.8000488281</ele>
        <time>2022-03-09T10:17:41.000Z</time>
      </trkpt>
      <trkpt lat="44.39024" lon="6.8792">
        <ele>1998.1999511719</ele>
        <time>2022-03-09T10:17:44.000Z</time>
      </trkpt>
      <trkpt lat="44.39024" lon="6.87919">
        <ele>1998.8000488281</ele>
        <time>2022-03-09T10:17:50.000Z</time>
      </trkpt>
      <trkpt lat="44.39024" lon="6.87917">
        <ele>1999.8000488281</ele>
        <time>2022-03-09T10:17:57.000Z</time>
      </trkpt>
      <trkpt lat="44.39024" lon="6.87917">
        <ele>1999.8000488281</ele>
        <time>2022-03-09T10:17:58.000Z</time>
      </trkpt>
      <trkpt lat="44.39025" lon="6.87918">
        <ele>2001</ele>
        <time>2022-03-09T10:18:15.000Z</time>
      </trkpt>
      <trkpt lat="44.39025" lon="6.87918">
        <ele>2001.1999511719</ele>
        <time>2022-03-09T10:18:18.000Z</time>
      </trkpt>
      <trkpt lat="44.39025" lon="6.8792">
        <ele>2002</ele>
        <time>2022-03-09T10:18:27.000Z</time>
      </trkpt>
      <trkpt lat="44.39022" lon="6.87916">
        <ele>2003</ele>
        <time>2022-03-09T10:18:40.000Z</time>
      </trkpt>
      <trkpt lat="44.39018" lon="6.87914">
        <ele>2003.4000244141</ele>
        <time>2022-03-09T10:18:44.000Z</time>
      </trkpt>
      <trkpt lat="44.39016" lon="6.87916">
        <ele>2004.1999511719</ele>
        <time>2022-03-09T10:18:49.000Z</time>
      </trkpt>
      <trkpt lat="44.39016" lon="6.87917">
        <ele>2004.1999511719</ele>
        <time>2022-03-09T10:18:51.000Z</time>
      </trkpt>
      <trkpt lat="44.39017" lon="6.87914">
        <ele>2005.1999511719</ele>
        <time>2022-03-09T10:19:17.000Z</time>
      </trkpt>
      <trkpt lat="44.39016" lon="6.87914">
        <ele>2006.1999511719</ele>
        <time>2022-03-09T10:19:24.000Z</time>
      </trkpt>
      <trkpt lat="44.39016" lon="6.87916">
        <ele>2007.4000244141</ele>
        <time>2022-03-09T10:19:33.000Z</time>
      </trkpt>
      <trkpt lat="44.39016" lon="6.87917">
        <ele>2007.5999755859</ele>
        <time>2022-03-09T10:19:35.000Z</time>
      </trkpt>
      <trkpt lat="44.39008" lon="6.87926">
        <ele>2008.1999511719</ele>
        <time>2022-03-09T10:19:43.000Z</time>
      </trkpt>
      <trkpt lat="44.39008" lon="6.87926">
        <ele>2008.4000244141</ele>
        <time>2022-03-09T10:19:45.000Z</time>
      </trkpt>
      <trkpt lat="44.39005" lon="6.87931">
        <ele>2009</ele>
        <time>2022-03-09T10:19:51.000Z</time>
      </trkpt>
      <trkpt lat="44.39004" lon="6.87932">
        <ele>2009.4000244141</ele>
        <time>2022-03-09T10:19:54.000Z</time>
      </trkpt>
      <trkpt lat="44.39002" lon="6.87933">
        <ele>2009.8000488281</ele>
        <time>2022-03-09T10:19:57.000Z</time>
      </trkpt>
      <trkpt lat="44.39003" lon="6.87931">
        <ele>2010.4000244141</ele>
        <time>2022-03-09T10:20:03.000Z</time>
      </trkpt>
      <trkpt lat="44.39002" lon="6.87932">
        <ele>2010.8000488281</ele>
        <time>2022-03-09T10:20:05.000Z</time>
      </trkpt>
      <trkpt lat="44.38996" lon="6.87937">
        <ele>2011.5999755859</ele>
        <time>2022-03-09T10:20:13.000Z</time>
      </trkpt>
      <trkpt lat="44.38997" lon="6.87938">
        <ele>2012.1999511719</ele>
        <time>2022-03-09T10:20:17.000Z</time>
      </trkpt>
      <trkpt lat="44.38995" lon="6.87941">
        <ele>2012.5999755859</ele>
        <time>2022-03-09T10:20:22.000Z</time>
      </trkpt>
      <trkpt lat="44.38994" lon="6.87941">
        <ele>2013</ele>
        <time>2022-03-09T10:20:25.000Z</time>
      </trkpt>
      <trkpt lat="44.38993" lon="6.8794">
        <ele>2013.4000244141</ele>
        <time>2022-03-09T10:20:30.000Z</time>
      </trkpt>
      <trkpt lat="44.3899" lon="6.8794">
        <ele>2013.5999755859</ele>
        <time>2022-03-09T10:20:36.000Z</time>
      </trkpt>
      <trkpt lat="44.3899" lon="6.87939">
        <ele>2014</ele>
        <time>2022-03-09T10:20:39.000Z</time>
      </trkpt>
      <trkpt lat="44.38985" lon="6.87935">
        <ele>2014.5999755859</ele>
        <time>2022-03-09T10:20:46.000Z</time>
      </trkpt>
      <trkpt lat="44.38985" lon="6.87935">
        <ele>2014.8000488281</ele>
        <time>2022-03-09T10:20:47.000Z</time>
      </trkpt>
      <trkpt lat="44.38984" lon="6.87934">
        <ele>2015.1999511719</ele>
        <time>2022-03-09T10:20:50.000Z</time>
      </trkpt>
      <trkpt lat="44.38983" lon="6.87932">
        <ele>2015.8000488281</ele>
        <time>2022-03-09T10:20:56.000Z</time>
      </trkpt>
      <trkpt lat="44.38982" lon="6.87934">
        <ele>2016</ele>
        <time>2022-03-09T10:20:58.000Z</time>
      </trkpt>
      <trkpt lat="44.38979" lon="6.87931">
        <ele>2016.5999755859</ele>
        <time>2022-03-09T10:21:06.000Z</time>
      </trkpt>
      <trkpt lat="44.38979" lon="6.8793">
        <ele>2016.8000488281</ele>
        <time>2022-03-09T10:21:07.000Z</time>
      </trkpt>
      <trkpt lat="44.38979" lon="6.87929">
        <ele>2017.5999755859</ele>
        <time>2022-03-09T10:21:14.000Z</time>
      </trkpt>
      <trkpt lat="44.38979" lon="6.87929">
        <ele>2018</ele>
        <time>2022-03-09T10:21:16.000Z</time>
      </trkpt>
      <trkpt lat="44.38979" lon="6.87929">
        <ele>2019</ele>
        <time>2022-03-09T10:21:23.000Z</time>
      </trkpt>
      <trkpt lat="44.38977" lon="6.87928">
        <ele>2019.4000244141</ele>
        <time>2022-03-09T10:21:27.000Z</time>
      </trkpt>
      <trkpt lat="44.38975" lon="6.87928">
        <ele>2020</ele>
        <time>2022-03-09T10:21:31.000Z</time>
      </trkpt>
      <trkpt lat="44.38973" lon="6.87928">
        <ele>2020.1999511719</ele>
        <time>2022-03-09T10:21:33.000Z</time>
      </trkpt>
      <trkpt lat="44.38971" lon="6.87928">
        <ele>2021</ele>
        <time>2022-03-09T10:21:40.000Z</time>
      </trkpt>
      <trkpt lat="44.38972" lon="6.87928">
        <ele>2021</ele>
        <time>2022-03-09T10:21:41.000Z</time>
      </trkpt>
      <trkpt lat="44.3897" lon="6.8793">
        <ele>2021.5999755859</ele>
        <time>2022-03-09T10:21:46.000Z</time>
      </trkpt>
      <trkpt lat="44.38969" lon="6.87932">
        <ele>2022.1999511719</ele>
        <time>2022-03-09T10:21:50.000Z</time>
      </trkpt>
      <trkpt lat="44.38969" lon="6.87933">
        <ele>2022.1999511719</ele>
        <time>2022-03-09T10:21:51.000Z</time>
      </trkpt>
      <trkpt lat="44.38968" lon="6.87934">
        <ele>2023</ele>
        <time>2022-03-09T10:22:00.000Z</time>
      </trkpt>
      <trkpt lat="44.38968" lon="6.87934">
        <ele>2023.1999511719</ele>
        <time>2022-03-09T10:22:01.000Z</time>
      </trkpt>
      <trkpt lat="44.38966" lon="6.87937">
        <ele>2023.5999755859</ele>
        <time>2022-03-09T10:22:06.000Z</time>
      </trkpt>
      <trkpt lat="44.38965" lon="6.87939">
        <ele>2024</ele>
        <time>2022-03-09T10:22:12.000Z</time>
      </trkpt>
      <trkpt lat="44.38966" lon="6.8794">
        <ele>2024.1999511719</ele>
        <time>2022-03-09T10:22:13.000Z</time>
      </trkpt>
      <trkpt lat="44.38966" lon="6.87941">
        <ele>2024.1999511719</ele>
        <time>2022-03-09T10:22:14.000Z</time>
      </trkpt>
      <trkpt lat="44.38965" lon="6.87942">
        <ele>2024.4000244141</ele>
        <time>2022-03-09T10:22:16.000Z</time>
      </trkpt>
      <trkpt lat="44.38965" lon="6.87942">
        <ele>2024.4000244141</ele>
        <time>2022-03-09T10:22:18.000Z</time>
      </trkpt>
      <trkpt lat="44.38962" lon="6.87946">
        <ele>2025</ele>
        <time>2022-03-09T10:22:25.000Z</time>
      </trkpt>
      <trkpt lat="44.38963" lon="6.87946">
        <ele>2025.1999511719</ele>
        <time>2022-03-09T10:22:27.000Z</time>
      </trkpt>
      <trkpt lat="44.38964" lon="6.87946">
        <ele>2025.1999511719</ele>
        <time>2022-03-09T10:22:30.000Z</time>
      </trkpt>
      <trkpt lat="44.38962" lon="6.87948">
        <ele>2026</ele>
        <time>2022-03-09T10:22:35.000Z</time>
      </trkpt>
      <trkpt lat="44.38965" lon="6.87946">
        <ele>2026.1999511719</ele>
        <time>2022-03-09T10:22:39.000Z</time>
      </trkpt>
      <trkpt lat="44.38964" lon="6.87946">
        <ele>2026.4000244141</ele>
        <time>2022-03-09T10:22:41.000Z</time>
      </trkpt>
      <trkpt lat="44.38963" lon="6.87946">
        <ele>2026.8000488281</ele>
        <time>2022-03-09T10:22:46.000Z</time>
      </trkpt>
      <trkpt lat="44.38959" lon="6.87948">
        <ele>2027.4000244141</ele>
        <time>2022-03-09T10:22:51.000Z</time>
      </trkpt>
      <trkpt lat="44.38959" lon="6.8795">
        <ele>2027.5999755859</ele>
        <time>2022-03-09T10:22:55.000Z</time>
      </trkpt>
      <trkpt lat="44.38958" lon="6.87951">
        <ele>2028</ele>
        <time>2022-03-09T10:23:01.000Z</time>
      </trkpt>
      <trkpt lat="44.3896" lon="6.87948">
        <ele>2028.1999511719</ele>
        <time>2022-03-09T10:23:06.000Z</time>
      </trkpt>
      <trkpt lat="44.38961" lon="6.87946">
        <ele>2028.4000244141</ele>
        <time>2022-03-09T10:23:09.000Z</time>
      </trkpt>
      <trkpt lat="44.38962" lon="6.87944">
        <ele>2028.4000244141</ele>
        <time>2022-03-09T10:23:13.000Z</time>
      </trkpt>
      <trkpt lat="44.38961" lon="6.87941">
        <ele>2028.5999755859</ele>
        <time>2022-03-09T10:23:18.000Z</time>
      </trkpt>
      <trkpt lat="44.38958" lon="6.8794">
        <ele>2029.1999511719</ele>
        <time>2022-03-09T10:23:26.000Z</time>
      </trkpt>
      <trkpt lat="44.38958" lon="6.8794">
        <ele>2029.4000244141</ele>
        <time>2022-03-09T10:23:27.000Z</time>
      </trkpt>
      <trkpt lat="44.38955" lon="6.87939">
        <ele>2030.1999511719</ele>
        <time>2022-03-09T10:23:32.000Z</time>
      </trkpt>
      <trkpt lat="44.38956" lon="6.87937">
        <ele>2030.4000244141</ele>
        <time>2022-03-09T10:23:34.000Z</time>
      </trkpt>
      <trkpt lat="44.38954" lon="6.87937">
        <ele>2031.1999511719</ele>
        <time>2022-03-09T10:23:40.000Z</time>
      </trkpt>
      <trkpt lat="44.38953" lon="6.87936">
        <ele>2031.5999755859</ele>
        <time>2022-03-09T10:23:43.000Z</time>
      </trkpt>
      <trkpt lat="44.38953" lon="6.87933">
        <ele>2032</ele>
        <time>2022-03-09T10:23:48.000Z</time>
      </trkpt>
      <trkpt lat="44.38953" lon="6.87929">
        <ele>2032.5999755859</ele>
        <time>2022-03-09T10:23:53.000Z</time>
      </trkpt>
      <trkpt lat="44.38953" lon="6.87928">
        <ele>2032.5999755859</ele>
        <time>2022-03-09T10:23:55.000Z</time>
      </trkpt>
      <trkpt lat="44.3895" lon="6.87928">
        <ele>2033.4000244141</ele>
        <time>2022-03-09T10:24:03.000Z</time>
      </trkpt>
      <trkpt lat="44.3895" lon="6.87928">
        <ele>2033.5999755859</ele>
        <time>2022-03-09T10:24:04.000Z</time>
      </trkpt>
      <trkpt lat="44.3895" lon="6.87924">
        <ele>2034.4000244141</ele>
        <time>2022-03-09T10:24:11.000Z</time>
      </trkpt>
      <trkpt lat="44.38949" lon="6.87924">
        <ele>2034.5999755859</ele>
        <time>2022-03-09T10:24:13.000Z</time>
      </trkpt>
      <trkpt lat="44.38948" lon="6.87922">
        <ele>2035.1999511719</ele>
        <time>2022-03-09T10:24:18.000Z</time>
      </trkpt>
      <trkpt lat="44.38948" lon="6.87919">
        <ele>2035.8000488281</ele>
        <time>2022-03-09T10:24:23.000Z</time>
      </trkpt>
      <trkpt lat="44.38946" lon="6.87917">
        <ele>2036.4000244141</ele>
        <time>2022-03-09T10:24:28.000Z</time>
      </trkpt>
      <trkpt lat="44.38944" lon="6.87918">
        <ele>2036.8000488281</ele>
        <time>2022-03-09T10:24:35.000Z</time>
      </trkpt>
      <trkpt lat="44.38944" lon="6.87918">
        <ele>2037</ele>
        <time>2022-03-09T10:24:37.000Z</time>
      </trkpt>
      <trkpt lat="44.38946" lon="6.87917">
        <ele>2037.8000488281</ele>
        <time>2022-03-09T10:24:49.000Z</time>
      </trkpt>
      <trkpt lat="44.38949" lon="6.87904">
        <ele>2038.5999755859</ele>
        <time>2022-03-09T10:25:16.000Z</time>
      </trkpt>
      <trkpt lat="44.38947" lon="6.87897">
        <ele>2038.1999511719</ele>
        <time>2022-03-09T10:25:42.000Z</time>
      </trkpt>
      <trkpt lat="44.38943" lon="6.87904">
        <ele>2038</ele>
        <time>2022-03-09T10:26:08.000Z</time>
      </trkpt>
      <trkpt lat="44.38943" lon="6.87909">
        <ele>2039</ele>
        <time>2022-03-09T10:26:19.000Z</time>
      </trkpt>
      <trkpt lat="44.38939" lon="6.87911">
        <ele>2039.5999755859</ele>
        <time>2022-03-09T10:26:24.000Z</time>
      </trkpt>
      <trkpt lat="44.38938" lon="6.87912">
        <ele>2040</ele>
        <time>2022-03-09T10:26:26.000Z</time>
      </trkpt>
      <trkpt lat="44.38935" lon="6.87914">
        <ele>2040.5999755859</ele>
        <time>2022-03-09T10:26:31.000Z</time>
      </trkpt>
      <trkpt lat="44.38934" lon="6.87915">
        <ele>2041</ele>
        <time>2022-03-09T10:26:34.000Z</time>
      </trkpt>
      <trkpt lat="44.38934" lon="6.87917">
        <ele>2041.5999755859</ele>
        <time>2022-03-09T10:26:39.000Z</time>
      </trkpt>
      <trkpt lat="44.38934" lon="6.87918">
        <ele>2042</ele>
        <time>2022-03-09T10:26:40.000Z</time>
      </trkpt>
      <trkpt lat="44.38931" lon="6.87921">
        <ele>2042.8000488281</ele>
        <time>2022-03-09T10:26:44.000Z</time>
      </trkpt>
      <trkpt lat="44.38931" lon="6.87922">
        <ele>2043</ele>
        <time>2022-03-09T10:26:46.000Z</time>
      </trkpt>
      <trkpt lat="44.38931" lon="6.87923">
        <ele>2043.1999511719</ele>
        <time>2022-03-09T10:26:47.000Z</time>
      </trkpt>
      <trkpt lat="44.38929" lon="6.87925">
        <ele>2043.8000488281</ele>
        <time>2022-03-09T10:26:51.000Z</time>
      </trkpt>
      <trkpt lat="44.38929" lon="6.87926">
        <ele>2044</ele>
        <time>2022-03-09T10:26:52.000Z</time>
      </trkpt>
      <trkpt lat="44.38929" lon="6.87926">
        <ele>2044.1999511719</ele>
        <time>2022-03-09T10:26:53.000Z</time>
      </trkpt>
      <trkpt lat="44.38928" lon="6.87928">
        <ele>2044.5999755859</ele>
        <time>2022-03-09T10:26:56.000Z</time>
      </trkpt>
      <trkpt lat="44.38926" lon="6.87929">
        <ele>2044.8000488281</ele>
        <time>2022-03-09T10:26:58.000Z</time>
      </trkpt>
      <trkpt lat="44.38925" lon="6.87927">
        <ele>2045</ele>
        <time>2022-03-09T10:27:01.000Z</time>
      </trkpt>
      <trkpt lat="44.38924" lon="6.87927">
        <ele>2045.1999511719</ele>
        <time>2022-03-09T10:27:02.000Z</time>
      </trkpt>
      <trkpt lat="44.38924" lon="6.87926">
        <ele>2045.1999511719</ele>
        <time>2022-03-09T10:27:03.000Z</time>
      </trkpt>
      <trkpt lat="44.38924" lon="6.87923">
        <ele>2045.4000244141</ele>
        <time>2022-03-09T10:27:06.000Z</time>
      </trkpt>
      <trkpt lat="44.38924" lon="6.87923">
        <ele>2045.5999755859</ele>
        <time>2022-03-09T10:27:08.000Z</time>
      </trkpt>
      <trkpt lat="44.38924" lon="6.87922">
        <ele>2045.5999755859</ele>
        <time>2022-03-09T10:27:09.000Z</time>
      </trkpt>
      <trkpt lat="44.38926" lon="6.8792">
        <ele>2046</ele>
        <time>2022-03-09T10:27:12.000Z</time>
      </trkpt>
      <trkpt lat="44.38926" lon="6.87919">
        <ele>2046</ele>
        <time>2022-03-09T10:27:13.000Z</time>
      </trkpt>
      <trkpt lat="44.38928" lon="6.87915">
        <ele>2046.1999511719</ele>
        <time>2022-03-09T10:27:15.000Z</time>
      </trkpt>
      <trkpt lat="44.38929" lon="6.87914">
        <ele>2046.1999511719</ele>
        <time>2022-03-09T10:27:16.000Z</time>
      </trkpt>
      <trkpt lat="44.38928" lon="6.87915">
        <ele>2047</ele>
        <time>2022-03-09T10:27:19.000Z</time>
      </trkpt>
      <trkpt lat="44.38926" lon="6.87917">
        <ele>2047.4000244141</ele>
        <time>2022-03-09T10:27:22.000Z</time>
      </trkpt>
      <trkpt lat="44.38925" lon="6.87919">
        <ele>2048</ele>
        <time>2022-03-09T10:27:26.000Z</time>
      </trkpt>
      <trkpt lat="44.38925" lon="6.8792">
        <ele>2048</ele>
        <time>2022-03-09T10:27:27.000Z</time>
      </trkpt>
      <trkpt lat="44.3892" lon="6.87923">
        <ele>2048.1999511719</ele>
        <time>2022-03-09T10:27:32.000Z</time>
      </trkpt>
      <trkpt lat="44.38919" lon="6.87923">
        <ele>2048.3999023438</ele>
        <time>2022-03-09T10:27:33.000Z</time>
      </trkpt>
      <trkpt lat="44.38916" lon="6.87919">
        <ele>2048.8000488281</ele>
        <time>2022-03-09T10:27:40.000Z</time>
      </trkpt>
      <trkpt lat="44.38915" lon="6.87916">
        <ele>2049.1999511719</ele>
        <time>2022-03-09T10:27:47.000Z</time>
      </trkpt>
      <trkpt lat="44.38915" lon="6.87915">
        <ele>2049.1999511719</ele>
        <time>2022-03-09T10:27:53.000Z</time>
      </trkpt>
      <trkpt lat="44.38916" lon="6.87913">
        <ele>2049.3999023438</ele>
        <time>2022-03-09T10:27:57.000Z</time>
      </trkpt>
      <trkpt lat="44.38915" lon="6.87914">
        <ele>2049.6000976562</ele>
        <time>2022-03-09T10:28:00.000Z</time>
      </trkpt>
      <trkpt lat="44.38916" lon="6.87915">
        <ele>2050.1999511719</ele>
        <time>2022-03-09T10:28:06.000Z</time>
      </trkpt>
      <trkpt lat="44.38917" lon="6.87916">
        <ele>2050.3999023438</ele>
        <time>2022-03-09T10:28:08.000Z</time>
      </trkpt>
      <trkpt lat="44.38918" lon="6.87916">
        <ele>2050.3999023438</ele>
        <time>2022-03-09T10:28:09.000Z</time>
      </trkpt>
      <trkpt lat="44.38918" lon="6.87916">
        <ele>2050.6000976562</ele>
        <time>2022-03-09T10:28:10.000Z</time>
      </trkpt>
      <trkpt lat="44.38916" lon="6.87918">
        <ele>2051</ele>
        <time>2022-03-09T10:28:13.000Z</time>
      </trkpt>
      <trkpt lat="44.38914" lon="6.87919">
        <ele>2051.6000976562</ele>
        <time>2022-03-09T10:28:15.000Z</time>
      </trkpt>
      <trkpt lat="44.38913" lon="6.8792">
        <ele>2051.6000976562</ele>
        <time>2022-03-09T10:28:16.000Z</time>
      </trkpt>
      <trkpt lat="44.38908" lon="6.87923">
        <ele>2052.6000976562</ele>
        <time>2022-03-09T10:28:23.000Z</time>
      </trkpt>
      <trkpt lat="44.38905" lon="6.87923">
        <ele>2052.6000976562</ele>
        <time>2022-03-09T10:28:24.000Z</time>
      </trkpt>
      <trkpt lat="44.38902" lon="6.87923">
        <ele>2052.8000488281</ele>
        <time>2022-03-09T10:28:29.000Z</time>
      </trkpt>
      <trkpt lat="44.38902" lon="6.87921">
        <ele>2053</ele>
        <time>2022-03-09T10:28:30.000Z</time>
      </trkpt>
      <trkpt lat="44.38902" lon="6.87917">
        <ele>2053</ele>
        <time>2022-03-09T10:28:34.000Z</time>
      </trkpt>
      <trkpt lat="44.38902" lon="6.87913">
        <ele>2053.8000488281</ele>
        <time>2022-03-09T10:28:38.000Z</time>
      </trkpt>
      <trkpt lat="44.38902" lon="6.87912">
        <ele>2054.1999511719</ele>
        <time>2022-03-09T10:28:40.000Z</time>
      </trkpt>
      <trkpt lat="44.38906" lon="6.87904">
        <ele>2055</ele>
        <time>2022-03-09T10:28:47.000Z</time>
      </trkpt>
      <trkpt lat="44.38906" lon="6.87904">
        <ele>2055</ele>
        <time>2022-03-09T10:28:48.000Z</time>
      </trkpt>
      <trkpt lat="44.38906" lon="6.87907">
        <ele>2055.8000488281</ele>
        <time>2022-03-09T10:28:52.000Z</time>
      </trkpt>
      <trkpt lat="44.38906" lon="6.87908">
        <ele>2055.8000488281</ele>
        <time>2022-03-09T10:28:53.000Z</time>
      </trkpt>
      <trkpt lat="44.38906" lon="6.87908">
        <ele>2056.1999511719</ele>
        <time>2022-03-09T10:28:55.000Z</time>
      </trkpt>
      <trkpt lat="44.38903" lon="6.8791">
        <ele>2056.3999023438</ele>
        <time>2022-03-09T10:28:57.000Z</time>
      </trkpt>
      <trkpt lat="44.38902" lon="6.87911">
        <ele>2056.3999023438</ele>
        <time>2022-03-09T10:28:58.000Z</time>
      </trkpt>
      <trkpt lat="44.38896" lon="6.87919">
        <ele>2057.1999511719</ele>
        <time>2022-03-09T10:29:08.000Z</time>
      </trkpt>
      <trkpt lat="44.38893" lon="6.87921">
        <ele>2057.1999511719</ele>
        <time>2022-03-09T10:29:09.000Z</time>
      </trkpt>
      <trkpt lat="44.38896" lon="6.87918">
        <ele>2057.6000976562</ele>
        <time>2022-03-09T10:29:13.000Z</time>
      </trkpt>
      <trkpt lat="44.38895" lon="6.87916">
        <ele>2058.1999511719</ele>
        <time>2022-03-09T10:29:18.000Z</time>
      </trkpt>
      <trkpt lat="44.38891" lon="6.87914">
        <ele>2059</ele>
        <time>2022-03-09T10:29:23.000Z</time>
      </trkpt>
      <trkpt lat="44.3889" lon="6.87914">
        <ele>2059.3999023438</ele>
        <time>2022-03-09T10:29:25.000Z</time>
      </trkpt>
      <trkpt lat="44.38888" lon="6.87913">
        <ele>2059.6000976562</ele>
        <time>2022-03-09T10:29:27.000Z</time>
      </trkpt>
      <trkpt lat="44.38884" lon="6.87913">
        <ele>2059.8000488281</ele>
        <time>2022-03-09T10:29:29.000Z</time>
      </trkpt>
      <trkpt lat="44.3888" lon="6.87912">
        <ele>2060.3999023438</ele>
        <time>2022-03-09T10:29:32.000Z</time>
      </trkpt>
      <trkpt lat="44.38878" lon="6.87911">
        <ele>2060.6000976562</ele>
        <time>2022-03-09T10:29:34.000Z</time>
      </trkpt>
      <trkpt lat="44.38878" lon="6.8791">
        <ele>2061</ele>
        <time>2022-03-09T10:29:36.000Z</time>
      </trkpt>
      <trkpt lat="44.38879" lon="6.87908">
        <ele>2061.3999023438</ele>
        <time>2022-03-09T10:29:39.000Z</time>
      </trkpt>
      <trkpt lat="44.3888" lon="6.87907">
        <ele>2061.6000976562</ele>
        <time>2022-03-09T10:29:41.000Z</time>
      </trkpt>
      <trkpt lat="44.3888" lon="6.87903">
        <ele>2062.3999023438</ele>
        <time>2022-03-09T10:29:46.000Z</time>
      </trkpt>
      <trkpt lat="44.3888" lon="6.87902">
        <ele>2062.8000488281</ele>
        <time>2022-03-09T10:29:49.000Z</time>
      </trkpt>
      <trkpt lat="44.38881" lon="6.87901">
        <ele>2063.3999023438</ele>
        <time>2022-03-09T10:29:53.000Z</time>
      </trkpt>
      <trkpt lat="44.38881" lon="6.87902">
        <ele>2063.6000976562</ele>
        <time>2022-03-09T10:29:57.000Z</time>
      </trkpt>
      <trkpt lat="44.38878" lon="6.87901">
        <ele>2064.3999023438</ele>
        <time>2022-03-09T10:30:02.000Z</time>
      </trkpt>
      <trkpt lat="44.38879" lon="6.879">
        <ele>2064.3999023438</ele>
        <time>2022-03-09T10:30:03.000Z</time>
      </trkpt>
      <trkpt lat="44.38881" lon="6.87898">
        <ele>2064.3999023438</ele>
        <time>2022-03-09T10:30:05.000Z</time>
      </trkpt>
      <trkpt lat="44.38881" lon="6.87894">
        <ele>2064.6000976562</ele>
        <time>2022-03-09T10:30:08.000Z</time>
      </trkpt>
      <trkpt lat="44.38885" lon="6.87887">
        <ele>2065.3999023438</ele>
        <time>2022-03-09T10:30:14.000Z</time>
      </trkpt>
      <trkpt lat="44.38886" lon="6.87886">
        <ele>2065.6000976562</ele>
        <time>2022-03-09T10:30:15.000Z</time>
      </trkpt>
      <trkpt lat="44.38886" lon="6.87882">
        <ele>2066.6000976562</ele>
        <time>2022-03-09T10:30:19.000Z</time>
      </trkpt>
      <trkpt lat="44.38886" lon="6.87881">
        <ele>2066.6000976562</ele>
        <time>2022-03-09T10:30:20.000Z</time>
      </trkpt>
      <trkpt lat="44.38885" lon="6.87879">
        <ele>2067.1999511719</ele>
        <time>2022-03-09T10:30:23.000Z</time>
      </trkpt>
      <trkpt lat="44.38884" lon="6.87877">
        <ele>2067.8000488281</ele>
        <time>2022-03-09T10:30:26.000Z</time>
      </trkpt>
      <trkpt lat="44.38883" lon="6.87877">
        <ele>2068.1999511719</ele>
        <time>2022-03-09T10:30:29.000Z</time>
      </trkpt>
      <trkpt lat="44.38882" lon="6.87877">
        <ele>2068.8000488281</ele>
        <time>2022-03-09T10:30:32.000Z</time>
      </trkpt>
      <trkpt lat="44.38881" lon="6.87878">
        <ele>2069.1999511719</ele>
        <time>2022-03-09T10:30:36.000Z</time>
      </trkpt>
      <trkpt lat="44.38876" lon="6.87882">
        <ele>2069.6000976562</ele>
        <time>2022-03-09T10:30:41.000Z</time>
      </trkpt>
      <trkpt lat="44.38874" lon="6.87883">
        <ele>2069.6000976562</ele>
        <time>2022-03-09T10:30:42.000Z</time>
      </trkpt>
      <trkpt lat="44.38874" lon="6.87884">
        <ele>2069.8000488281</ele>
        <time>2022-03-09T10:30:44.000Z</time>
      </trkpt>
      <trkpt lat="44.38874" lon="6.87887">
        <ele>2070.3999023438</ele>
        <time>2022-03-09T10:30:49.000Z</time>
      </trkpt>
      <trkpt lat="44.38874" lon="6.87888">
        <ele>2071</ele>
        <time>2022-03-09T10:30:52.000Z</time>
      </trkpt>
      <trkpt lat="44.38872" lon="6.8789">
        <ele>2071.6000976562</ele>
        <time>2022-03-09T10:30:57.000Z</time>
      </trkpt>
      <trkpt lat="44.38869" lon="6.87893">
        <ele>2072</ele>
        <time>2022-03-09T10:31:01.000Z</time>
      </trkpt>
      <trkpt lat="44.38867" lon="6.87892">
        <ele>2072.3999023438</ele>
        <time>2022-03-09T10:31:04.000Z</time>
      </trkpt>
      <trkpt lat="44.38865" lon="6.8789">
        <ele>2073</ele>
        <time>2022-03-09T10:31:08.000Z</time>
      </trkpt>
      <trkpt lat="44.38866" lon="6.87887">
        <ele>2073.3999023438</ele>
        <time>2022-03-09T10:31:12.000Z</time>
      </trkpt>
      <trkpt lat="44.38864" lon="6.87886">
        <ele>2074.1999511719</ele>
        <time>2022-03-09T10:31:16.000Z</time>
      </trkpt>
      <trkpt lat="44.38863" lon="6.87886">
        <ele>2074.3999023438</ele>
        <time>2022-03-09T10:31:17.000Z</time>
      </trkpt>
      <trkpt lat="44.38864" lon="6.87883">
        <ele>2075.1999511719</ele>
        <time>2022-03-09T10:31:21.000Z</time>
      </trkpt>
      <trkpt lat="44.38858" lon="6.87885">
        <ele>2076.1999511719</ele>
        <time>2022-03-09T10:31:27.000Z</time>
      </trkpt>
      <trkpt lat="44.38856" lon="6.87885">
        <ele>2076.3999023438</ele>
        <time>2022-03-09T10:31:29.000Z</time>
      </trkpt>
      <trkpt lat="44.38854" lon="6.87886">
        <ele>2076.6000976562</ele>
        <time>2022-03-09T10:31:31.000Z</time>
      </trkpt>
      <trkpt lat="44.38853" lon="6.87886">
        <ele>2077.3999023438</ele>
        <time>2022-03-09T10:31:34.000Z</time>
      </trkpt>
      <trkpt lat="44.38853" lon="6.87886">
        <ele>2077.3999023438</ele>
        <time>2022-03-09T10:31:35.000Z</time>
      </trkpt>
      <trkpt lat="44.38853" lon="6.87885">
        <ele>2077.8000488281</ele>
        <time>2022-03-09T10:31:38.000Z</time>
      </trkpt>
      <trkpt lat="44.38855" lon="6.87877">
        <ele>2078.6000976562</ele>
        <time>2022-03-09T10:31:44.000Z</time>
      </trkpt>
      <trkpt lat="44.38855" lon="6.87876">
        <ele>2078.8000488281</ele>
        <time>2022-03-09T10:31:45.000Z</time>
      </trkpt>
      <trkpt lat="44.38855" lon="6.87871">
        <ele>2079.3999023438</ele>
        <time>2022-03-09T10:31:52.000Z</time>
      </trkpt>
      <trkpt lat="44.38856" lon="6.87869">
        <ele>2079.6000976562</ele>
        <time>2022-03-09T10:31:53.000Z</time>
      </trkpt>
      <trkpt lat="44.38858" lon="6.87861">
        <ele>2080.8000488281</ele>
        <time>2022-03-09T10:32:00.000Z</time>
      </trkpt>
      <trkpt lat="44.38859" lon="6.87859">
        <ele>2081.3999023438</ele>
        <time>2022-03-09T10:32:04.000Z</time>
      </trkpt>
      <trkpt lat="44.3886" lon="6.8786">
        <ele>2081.8000488281</ele>
        <time>2022-03-09T10:32:11.000Z</time>
      </trkpt>
      <trkpt lat="44.3886" lon="6.8786">
        <ele>2082.8000488281</ele>
        <time>2022-03-09T10:32:20.000Z</time>
      </trkpt>
      <trkpt lat="44.3886" lon="6.87854">
        <ele>2083.8000488281</ele>
        <time>2022-03-09T10:32:28.000Z</time>
      </trkpt>
      <trkpt lat="44.3886" lon="6.87853">
        <ele>2084</ele>
        <time>2022-03-09T10:32:29.000Z</time>
      </trkpt>
      <trkpt lat="44.38859" lon="6.87847">
        <ele>2084.8000488281</ele>
        <time>2022-03-09T10:32:34.000Z</time>
      </trkpt>
      <trkpt lat="44.38858" lon="6.87847">
        <ele>2085</ele>
        <time>2022-03-09T10:32:36.000Z</time>
      </trkpt>
      <trkpt lat="44.38854" lon="6.87847">
        <ele>2085.6000976562</ele>
        <time>2022-03-09T10:32:42.000Z</time>
      </trkpt>
      <trkpt lat="44.38852" lon="6.87847">
        <ele>2086</ele>
        <time>2022-03-09T10:32:48.000Z</time>
      </trkpt>
      <trkpt lat="44.38851" lon="6.87848">
        <ele>2086.1999511719</ele>
        <time>2022-03-09T10:32:51.000Z</time>
      </trkpt>
      <trkpt lat="44.3885" lon="6.87848">
        <ele>2086.3999023438</ele>
        <time>2022-03-09T10:32:52.000Z</time>
      </trkpt>
      <trkpt lat="44.38847" lon="6.8785">
        <ele>2086.8000488281</ele>
        <time>2022-03-09T10:32:55.000Z</time>
      </trkpt>
      <trkpt lat="44.38847" lon="6.87851">
        <ele>2087.1999511719</ele>
        <time>2022-03-09T10:32:58.000Z</time>
      </trkpt>
      <trkpt lat="44.38844" lon="6.87853">
        <ele>2088</ele>
        <time>2022-03-09T10:33:03.000Z</time>
      </trkpt>
      <trkpt lat="44.38844" lon="6.87854">
        <ele>2088.1999511719</ele>
        <time>2022-03-09T10:33:05.000Z</time>
      </trkpt>
      <trkpt lat="44.38843" lon="6.87856">
        <ele>2088.3999023438</ele>
        <time>2022-03-09T10:33:07.000Z</time>
      </trkpt>
      <trkpt lat="44.3884" lon="6.87859">
        <ele>2089</ele>
        <time>2022-03-09T10:33:12.000Z</time>
      </trkpt>
      <trkpt lat="44.38839" lon="6.8786">
        <ele>2089.3999023438</ele>
        <time>2022-03-09T10:33:13.000Z</time>
      </trkpt>
      <trkpt lat="44.38838" lon="6.8786">
        <ele>2089.6000976562</ele>
        <time>2022-03-09T10:33:14.000Z</time>
      </trkpt>
      <trkpt lat="44.38837" lon="6.87863">
        <ele>2090.1999511719</ele>
        <time>2022-03-09T10:33:20.000Z</time>
      </trkpt>
      <trkpt lat="44.38836" lon="6.87864">
        <ele>2090.3999023438</ele>
        <time>2022-03-09T10:33:23.000Z</time>
      </trkpt>
      <trkpt lat="44.38831" lon="6.87863">
        <ele>2091.1999511719</ele>
        <time>2022-03-09T10:33:29.000Z</time>
      </trkpt>
      <trkpt lat="44.38832" lon="6.8786">
        <ele>2091.3999023438</ele>
        <time>2022-03-09T10:33:33.000Z</time>
      </trkpt>
      <trkpt lat="44.38834" lon="6.87858">
        <ele>2091.6000976562</ele>
        <time>2022-03-09T10:33:35.000Z</time>
      </trkpt>
      <trkpt lat="44.38833" lon="6.87856">
        <ele>2092</ele>
        <time>2022-03-09T10:33:40.000Z</time>
      </trkpt>
      <trkpt lat="44.38833" lon="6.87857">
        <ele>2092.3999023438</ele>
        <time>2022-03-09T10:33:44.000Z</time>
      </trkpt>
      <trkpt lat="44.38833" lon="6.87857">
        <ele>2092.3999023438</ele>
        <time>2022-03-09T10:33:47.000Z</time>
      </trkpt>
      <trkpt lat="44.38833" lon="6.87858">
        <ele>2092.6000976562</ele>
        <time>2022-03-09T10:33:50.000Z</time>
      </trkpt>
      <trkpt lat="44.38834" lon="6.87858">
        <ele>2092.6000976562</ele>
        <time>2022-03-09T10:34:00.000Z</time>
      </trkpt>
      <trkpt lat="44.38835" lon="6.87861">
        <ele>2093.6000976562</ele>
        <time>2022-03-09T10:34:15.000Z</time>
      </trkpt>
      <trkpt lat="44.38836" lon="6.87864">
        <ele>2093.8000488281</ele>
        <time>2022-03-09T10:34:17.000Z</time>
      </trkpt>
      <trkpt lat="44.38837" lon="6.87867">
        <ele>2094.1999511719</ele>
        <time>2022-03-09T10:34:22.000Z</time>
      </trkpt>
      <trkpt lat="44.38836" lon="6.87867">
        <ele>2094.3999023438</ele>
        <time>2022-03-09T10:34:27.000Z</time>
      </trkpt>
      <trkpt lat="44.38836" lon="6.87867">
        <ele>2094.6000976562</ele>
        <time>2022-03-09T10:34:33.000Z</time>
      </trkpt>
      <trkpt lat="44.38836" lon="6.87867">
        <ele>2094.6000976562</ele>
        <time>2022-03-09T10:34:34.000Z</time>
      </trkpt>
      <trkpt lat="44.38835" lon="6.87864">
        <ele>2095.1999511719</ele>
        <time>2022-03-09T10:34:39.000Z</time>
      </trkpt>
      <trkpt lat="44.38835" lon="6.87863">
        <ele>2095.3999023438</ele>
        <time>2022-03-09T10:34:45.000Z</time>
      </trkpt>
      <trkpt lat="44.38836" lon="6.87864">
        <ele>2095.8000488281</ele>
        <time>2022-03-09T10:34:48.000Z</time>
      </trkpt>
      <trkpt lat="44.38837" lon="6.87863">
        <ele>2096.1999511719</ele>
        <time>2022-03-09T10:34:52.000Z</time>
      </trkpt>
      <trkpt lat="44.38832" lon="6.87866">
        <ele>2096.8000488281</ele>
        <time>2022-03-09T10:34:58.000Z</time>
      </trkpt>
      <trkpt lat="44.3883" lon="6.87868">
        <ele>2097.8000488281</ele>
        <time>2022-03-09T10:35:03.000Z</time>
      </trkpt>
      <trkpt lat="44.3883" lon="6.87869">
        <ele>2097.8000488281</ele>
        <time>2022-03-09T10:35:04.000Z</time>
      </trkpt>
      <trkpt lat="44.38828" lon="6.87871">
        <ele>2098.6000976562</ele>
        <time>2022-03-09T10:35:09.000Z</time>
      </trkpt>
      <trkpt lat="44.38828" lon="6.87871">
        <ele>2099</ele>
        <time>2022-03-09T10:35:11.000Z</time>
      </trkpt>
      <trkpt lat="44.38826" lon="6.87873">
        <ele>2099.3999023438</ele>
        <time>2022-03-09T10:35:14.000Z</time>
      </trkpt>
      <trkpt lat="44.38826" lon="6.87874">
        <ele>2100.1999511719</ele>
        <time>2022-03-09T10:35:17.000Z</time>
      </trkpt>
      <trkpt lat="44.38826" lon="6.87876">
        <ele>2100.6000976562</ele>
        <time>2022-03-09T10:35:20.000Z</time>
      </trkpt>
      <trkpt lat="44.38825" lon="6.87879">
        <ele>2101.1999511719</ele>
        <time>2022-03-09T10:35:25.000Z</time>
      </trkpt>
      <trkpt lat="44.38825" lon="6.87879">
        <ele>2101.6000976562</ele>
        <time>2022-03-09T10:35:27.000Z</time>
      </trkpt>
      <trkpt lat="44.38823" lon="6.8788">
        <ele>2102</ele>
        <time>2022-03-09T10:35:33.000Z</time>
      </trkpt>
      <trkpt lat="44.38822" lon="6.8788">
        <ele>2102.1999511719</ele>
        <time>2022-03-09T10:35:35.000Z</time>
      </trkpt>
      <trkpt lat="44.38823" lon="6.87878">
        <ele>2102.3999023438</ele>
        <time>2022-03-09T10:35:39.000Z</time>
      </trkpt>
      <trkpt lat="44.38824" lon="6.87877">
        <ele>2102.8000488281</ele>
        <time>2022-03-09T10:35:43.000Z</time>
      </trkpt>
      <trkpt lat="44.38824" lon="6.87877">
        <ele>2103.3999023438</ele>
        <time>2022-03-09T10:35:47.000Z</time>
      </trkpt>
      <trkpt lat="44.38822" lon="6.87881">
        <ele>2104.1999511719</ele>
        <time>2022-03-09T10:35:53.000Z</time>
      </trkpt>
      <trkpt lat="44.38821" lon="6.87883">
        <ele>2104.6000976562</ele>
        <time>2022-03-09T10:35:55.000Z</time>
      </trkpt>
      <trkpt lat="44.38819" lon="6.87886">
        <ele>2105.1999511719</ele>
        <time>2022-03-09T10:35:59.000Z</time>
      </trkpt>
      <trkpt lat="44.38817" lon="6.87887">
        <ele>2105.6000976562</ele>
        <time>2022-03-09T10:36:02.000Z</time>
      </trkpt>
      <trkpt lat="44.38816" lon="6.87887">
        <ele>2105.8000488281</ele>
        <time>2022-03-09T10:36:04.000Z</time>
      </trkpt>
      <trkpt lat="44.38815" lon="6.87888">
        <ele>2106</ele>
        <time>2022-03-09T10:36:12.000Z</time>
      </trkpt>
      <trkpt lat="44.3881" lon="6.87887">
        <ele>2106.1999511719</ele>
        <time>2022-03-09T10:36:19.000Z</time>
      </trkpt>
      <trkpt lat="44.38812" lon="6.87886">
        <ele>2106.3999023438</ele>
        <time>2022-03-09T10:36:25.000Z</time>
      </trkpt>
      <trkpt lat="44.38811" lon="6.87885">
        <ele>2106.6000976562</ele>
        <time>2022-03-09T10:36:28.000Z</time>
      </trkpt>
      <trkpt lat="44.38811" lon="6.87886">
        <ele>2106.6000976562</ele>
        <time>2022-03-09T10:36:31.000Z</time>
      </trkpt>
      <trkpt lat="44.38807" lon="6.87891">
        <ele>2107.6000976562</ele>
        <time>2022-03-09T10:36:37.000Z</time>
      </trkpt>
      <trkpt lat="44.38807" lon="6.87892">
        <ele>2107.8000488281</ele>
        <time>2022-03-09T10:36:38.000Z</time>
      </trkpt>
      <trkpt lat="44.38803" lon="6.87894">
        <ele>2108.1999511719</ele>
        <time>2022-03-09T10:36:43.000Z</time>
      </trkpt>
      <trkpt lat="44.388" lon="6.87896">
        <ele>2108.8000488281</ele>
        <time>2022-03-09T10:36:47.000Z</time>
      </trkpt>
      <trkpt lat="44.38798" lon="6.879">
        <ele>2109.6000976562</ele>
        <time>2022-03-09T10:36:52.000Z</time>
      </trkpt>
      <trkpt lat="44.38796" lon="6.87902">
        <ele>2110</ele>
        <time>2022-03-09T10:36:55.000Z</time>
      </trkpt>
      <trkpt lat="44.38793" lon="6.87906">
        <ele>2110.6000976562</ele>
        <time>2022-03-09T10:36:59.000Z</time>
      </trkpt>
      <trkpt lat="44.38792" lon="6.87908">
        <ele>2111.1999511719</ele>
        <time>2022-03-09T10:37:02.000Z</time>
      </trkpt>
      <trkpt lat="44.3879" lon="6.87911">
        <ele>2112</ele>
        <time>2022-03-09T10:37:07.000Z</time>
      </trkpt>
      <trkpt lat="44.3879" lon="6.87912">
        <ele>2112.1999511719</ele>
        <time>2022-03-09T10:37:08.000Z</time>
      </trkpt>
      <trkpt lat="44.38788" lon="6.87914">
        <ele>2113</ele>
        <time>2022-03-09T10:37:13.000Z</time>
      </trkpt>
      <trkpt lat="44.38787" lon="6.87914">
        <ele>2113.3999023438</ele>
        <time>2022-03-09T10:37:14.000Z</time>
      </trkpt>
      <trkpt lat="44.38783" lon="6.87912">
        <ele>2113.8000488281</ele>
        <time>2022-03-09T10:37:20.000Z</time>
      </trkpt>
      <trkpt lat="44.38781" lon="6.8791">
        <ele>2114.3999023438</ele>
        <time>2022-03-09T10:37:24.000Z</time>
      </trkpt>
      <trkpt lat="44.38781" lon="6.87909">
        <ele>2114.6000976562</ele>
        <time>2022-03-09T10:37:26.000Z</time>
      </trkpt>
      <trkpt lat="44.3878" lon="6.87909">
        <ele>2114.8000488281</ele>
        <time>2022-03-09T10:37:29.000Z</time>
      </trkpt>
      <trkpt lat="44.38779" lon="6.87906">
        <ele>2114.8000488281</ele>
        <time>2022-03-09T10:37:31.000Z</time>
      </trkpt>
      <trkpt lat="44.38778" lon="6.87904">
        <ele>2115.1999511719</ele>
        <time>2022-03-09T10:37:35.000Z</time>
      </trkpt>
      <trkpt lat="44.38779" lon="6.87901">
        <ele>2115.3999023438</ele>
        <time>2022-03-09T10:37:38.000Z</time>
      </trkpt>
      <trkpt lat="44.38778" lon="6.87898">
        <ele>2115.8000488281</ele>
        <time>2022-03-09T10:37:41.000Z</time>
      </trkpt>
      <trkpt lat="44.38775" lon="6.87896">
        <ele>2116</ele>
        <time>2022-03-09T10:37:44.000Z</time>
      </trkpt>
      <trkpt lat="44.38773" lon="6.87894">
        <ele>2116.6000976562</ele>
        <time>2022-03-09T10:37:47.000Z</time>
      </trkpt>
      <trkpt lat="44.38772" lon="6.87894">
        <ele>2117</ele>
        <time>2022-03-09T10:37:49.000Z</time>
      </trkpt>
      <trkpt lat="44.3877" lon="6.87892">
        <ele>2117.8000488281</ele>
        <time>2022-03-09T10:37:52.000Z</time>
      </trkpt>
      <trkpt lat="44.3877" lon="6.87889">
        <ele>2118.3999023438</ele>
        <time>2022-03-09T10:37:55.000Z</time>
      </trkpt>
      <trkpt lat="44.38769" lon="6.87885">
        <ele>2118.8000488281</ele>
        <time>2022-03-09T10:37:59.000Z</time>
      </trkpt>
      <trkpt lat="44.3877" lon="6.87882">
        <ele>2118.8000488281</ele>
        <time>2022-03-09T10:38:01.000Z</time>
      </trkpt>
      <trkpt lat="44.38771" lon="6.87878">
        <ele>2119.1999511719</ele>
        <time>2022-03-09T10:38:05.000Z</time>
      </trkpt>
      <trkpt lat="44.38769" lon="6.87873">
        <ele>2119.6000976562</ele>
        <time>2022-03-09T10:38:10.000Z</time>
      </trkpt>
      <trkpt lat="44.38769" lon="6.87872">
        <ele>2119.8000488281</ele>
        <time>2022-03-09T10:38:11.000Z</time>
      </trkpt>
      <trkpt lat="44.38769" lon="6.8787">
        <ele>2120.1999511719</ele>
        <time>2022-03-09T10:38:14.000Z</time>
      </trkpt>
      <trkpt lat="44.38768" lon="6.87867">
        <ele>2120.8000488281</ele>
        <time>2022-03-09T10:38:18.000Z</time>
      </trkpt>
      <trkpt lat="44.38766" lon="6.87867">
        <ele>2121</ele>
        <time>2022-03-09T10:38:19.000Z</time>
      </trkpt>
      <trkpt lat="44.38765" lon="6.87863">
        <ele>2121.8000488281</ele>
        <time>2022-03-09T10:38:25.000Z</time>
      </trkpt>
      <trkpt lat="44.38765" lon="6.87862">
        <ele>2122</ele>
        <time>2022-03-09T10:38:26.000Z</time>
      </trkpt>
      <trkpt lat="44.38762" lon="6.87856">
        <ele>2122.8000488281</ele>
        <time>2022-03-09T10:38:33.000Z</time>
      </trkpt>
      <trkpt lat="44.38762" lon="6.87856">
        <ele>2123</ele>
        <time>2022-03-09T10:38:34.000Z</time>
      </trkpt>
      <trkpt lat="44.38761" lon="6.87849">
        <ele>2123.3999023438</ele>
        <time>2022-03-09T10:38:40.000Z</time>
      </trkpt>
      <trkpt lat="44.3876" lon="6.87846">
        <ele>2123.6000976562</ele>
        <time>2022-03-09T10:38:45.000Z</time>
      </trkpt>
      <trkpt lat="44.3876" lon="6.87844">
        <ele>2124</ele>
        <time>2022-03-09T10:38:47.000Z</time>
      </trkpt>
      <trkpt lat="44.38759" lon="6.8784">
        <ele>2124.6000976562</ele>
        <time>2022-03-09T10:38:50.000Z</time>
      </trkpt>
      <trkpt lat="44.38757" lon="6.87837">
        <ele>2125.1999511719</ele>
        <time>2022-03-09T10:38:54.000Z</time>
      </trkpt>
      <trkpt lat="44.38755" lon="6.87836">
        <ele>2125.6000976562</ele>
        <time>2022-03-09T10:38:57.000Z</time>
      </trkpt>
      <trkpt lat="44.38754" lon="6.87836">
        <ele>2126</ele>
        <time>2022-03-09T10:38:59.000Z</time>
      </trkpt>
      <trkpt lat="44.38754" lon="6.87835">
        <ele>2126.1999511719</ele>
        <time>2022-03-09T10:39:01.000Z</time>
      </trkpt>
      <trkpt lat="44.38754" lon="6.87834">
        <ele>2126.3999023438</ele>
        <time>2022-03-09T10:39:03.000Z</time>
      </trkpt>
      <trkpt lat="44.38754" lon="6.87833">
        <ele>2126.8000488281</ele>
        <time>2022-03-09T10:39:05.000Z</time>
      </trkpt>
      <trkpt lat="44.38754" lon="6.87831">
        <ele>2127.1999511719</ele>
        <time>2022-03-09T10:39:07.000Z</time>
      </trkpt>
      <trkpt lat="44.38751" lon="6.87826">
        <ele>2128.1999511719</ele>
        <time>2022-03-09T10:39:14.000Z</time>
      </trkpt>
      <trkpt lat="44.38752" lon="6.87824">
        <ele>2128.3999023438</ele>
        <time>2022-03-09T10:39:15.000Z</time>
      </trkpt>
      <trkpt lat="44.38752" lon="6.87819">
        <ele>2128.8000488281</ele>
        <time>2022-03-09T10:39:19.000Z</time>
      </trkpt>
      <trkpt lat="44.38751" lon="6.87818">
        <ele>2129.6000976562</ele>
        <time>2022-03-09T10:39:23.000Z</time>
      </trkpt>
      <trkpt lat="44.38751" lon="6.87817">
        <ele>2129.8000488281</ele>
        <time>2022-03-09T10:39:24.000Z</time>
      </trkpt>
      <trkpt lat="44.38751" lon="6.87812">
        <ele>2130.3999023438</ele>
        <time>2022-03-09T10:39:30.000Z</time>
      </trkpt>
      <trkpt lat="44.3875" lon="6.87811">
        <ele>2130.8000488281</ele>
        <time>2022-03-09T10:39:31.000Z</time>
      </trkpt>
      <trkpt lat="44.38748" lon="6.8781">
        <ele>2131.1999511719</ele>
        <time>2022-03-09T10:39:33.000Z</time>
      </trkpt>
      <trkpt lat="44.38747" lon="6.87808">
        <ele>2131.3999023438</ele>
        <time>2022-03-09T10:39:35.000Z</time>
      </trkpt>
      <trkpt lat="44.38745" lon="6.87806">
        <ele>2131.8000488281</ele>
        <time>2022-03-09T10:39:40.000Z</time>
      </trkpt>
      <trkpt lat="44.38745" lon="6.87807">
        <ele>2132.3999023438</ele>
        <time>2022-03-09T10:39:45.000Z</time>
      </trkpt>
      <trkpt lat="44.38744" lon="6.87808">
        <ele>2132.6000976562</ele>
        <time>2022-03-09T10:39:51.000Z</time>
      </trkpt>
      <trkpt lat="44.38745" lon="6.87807">
        <ele>2132.6000976562</ele>
        <time>2022-03-09T10:39:52.000Z</time>
      </trkpt>
      <trkpt lat="44.38746" lon="6.87804">
        <ele>2132.8000488281</ele>
        <time>2022-03-09T10:39:55.000Z</time>
      </trkpt>
      <trkpt lat="44.38745" lon="6.87802">
        <ele>2133.6000976562</ele>
        <time>2022-03-09T10:39:59.000Z</time>
      </trkpt>
      <trkpt lat="44.38745" lon="6.878">
        <ele>2134</ele>
        <time>2022-03-09T10:40:01.000Z</time>
      </trkpt>
      <trkpt lat="44.38744" lon="6.878">
        <ele>2134.8000488281</ele>
        <time>2022-03-09T10:40:08.000Z</time>
      </trkpt>
      <trkpt lat="44.38744" lon="6.878">
        <ele>2135.1999511719</ele>
        <time>2022-03-09T10:40:14.000Z</time>
      </trkpt>
      <trkpt lat="44.38745" lon="6.878">
        <ele>2136.1999511719</ele>
        <time>2022-03-09T10:40:21.000Z</time>
      </trkpt>
      <trkpt lat="44.38745" lon="6.87799">
        <ele>2137</ele>
        <time>2022-03-09T10:40:26.000Z</time>
      </trkpt>
      <trkpt lat="44.38743" lon="6.878">
        <ele>2137.3999023438</ele>
        <time>2022-03-09T10:40:29.000Z</time>
      </trkpt>
      <trkpt lat="44.38738" lon="6.87806">
        <ele>2137.8000488281</ele>
        <time>2022-03-09T10:40:35.000Z</time>
      </trkpt>
      <trkpt lat="44.38737" lon="6.87807">
        <ele>2138.3999023438</ele>
        <time>2022-03-09T10:40:37.000Z</time>
      </trkpt>
      <trkpt lat="44.38736" lon="6.87808">
        <ele>2138.3999023438</ele>
        <time>2022-03-09T10:40:38.000Z</time>
      </trkpt>
      <trkpt lat="44.38737" lon="6.87808">
        <ele>2138.8000488281</ele>
        <time>2022-03-09T10:40:42.000Z</time>
      </trkpt>
      <trkpt lat="44.38737" lon="6.87811">
        <ele>2139.1999511719</ele>
        <time>2022-03-09T10:40:49.000Z</time>
      </trkpt>
      <trkpt lat="44.38736" lon="6.8781">
        <ele>2139.3999023438</ele>
        <time>2022-03-09T10:40:54.000Z</time>
      </trkpt>
      <trkpt lat="44.38736" lon="6.87809">
        <ele>2139.3999023438</ele>
        <time>2022-03-09T10:40:56.000Z</time>
      </trkpt>
      <trkpt lat="44.38736" lon="6.87806">
        <ele>2139.6000976562</ele>
        <time>2022-03-09T10:40:59.000Z</time>
      </trkpt>
      <trkpt lat="44.38735" lon="6.87802">
        <ele>2140.3999023438</ele>
        <time>2022-03-09T10:41:05.000Z</time>
      </trkpt>
      <trkpt lat="44.38735" lon="6.87802">
        <ele>2140.6000976562</ele>
        <time>2022-03-09T10:41:06.000Z</time>
      </trkpt>
      <trkpt lat="44.38733" lon="6.87799">
        <ele>2141</ele>
        <time>2022-03-09T10:41:13.000Z</time>
      </trkpt>
      <trkpt lat="44.38734" lon="6.87795">
        <ele>2141.6000976562</ele>
        <time>2022-03-09T10:41:17.000Z</time>
      </trkpt>
      <trkpt lat="44.38734" lon="6.87794">
        <ele>2141.8000488281</ele>
        <time>2022-03-09T10:41:20.000Z</time>
      </trkpt>
      <trkpt lat="44.38734" lon="6.87794">
        <ele>2142</ele>
        <time>2022-03-09T10:41:27.000Z</time>
      </trkpt>
      <trkpt lat="44.38736" lon="6.87793">
        <ele>2142.1999511719</ele>
        <time>2022-03-09T10:41:34.000Z</time>
      </trkpt>
      <trkpt lat="44.38736" lon="6.87792">
        <ele>2142.6000976562</ele>
        <time>2022-03-09T10:41:39.000Z</time>
      </trkpt>
      <trkpt lat="44.38736" lon="6.87793">
        <ele>2143</ele>
        <time>2022-03-09T10:41:40.000Z</time>
      </trkpt>
      <trkpt lat="44.38734" lon="6.87794">
        <ele>2143.6000976562</ele>
        <time>2022-03-09T10:41:44.000Z</time>
      </trkpt>
      <trkpt lat="44.38733" lon="6.87795">
        <ele>2143.8000488281</ele>
        <time>2022-03-09T10:41:45.000Z</time>
      </trkpt>
      <trkpt lat="44.38731" lon="6.87797">
        <ele>2144.8000488281</ele>
        <time>2022-03-09T10:41:51.000Z</time>
      </trkpt>
      <trkpt lat="44.3873" lon="6.87799">
        <ele>2145.8000488281</ele>
        <time>2022-03-09T10:41:57.000Z</time>
      </trkpt>
      <trkpt lat="44.38729" lon="6.878">
        <ele>2146.6000976562</ele>
        <time>2022-03-09T10:41:59.000Z</time>
      </trkpt>
      <trkpt lat="44.38729" lon="6.87802">
        <ele>2147</ele>
        <time>2022-03-09T10:42:01.000Z</time>
      </trkpt>
      <trkpt lat="44.38727" lon="6.87806">
        <ele>2148</ele>
        <time>2022-03-09T10:42:07.000Z</time>
      </trkpt>
      <trkpt lat="44.38726" lon="6.87806">
        <ele>2148</ele>
        <time>2022-03-09T10:42:08.000Z</time>
      </trkpt>
      <trkpt lat="44.38724" lon="6.87808">
        <ele>2149</ele>
        <time>2022-03-09T10:42:12.000Z</time>
      </trkpt>
      <trkpt lat="44.38722" lon="6.87809">
        <ele>2149.1999511719</ele>
        <time>2022-03-09T10:42:14.000Z</time>
      </trkpt>
      <trkpt lat="44.38721" lon="6.87812">
        <ele>2150</ele>
        <time>2022-03-09T10:42:19.000Z</time>
      </trkpt>
      <trkpt lat="44.38721" lon="6.87813">
        <ele>2150.1999511719</ele>
        <time>2022-03-09T10:42:20.000Z</time>
      </trkpt>
      <trkpt lat="44.38715" lon="6.87814">
        <ele>2151.1999511719</ele>
        <time>2022-03-09T10:42:28.000Z</time>
      </trkpt>
      <trkpt lat="44.38714" lon="6.87815">
        <ele>2151.3999023438</ele>
        <time>2022-03-09T10:42:29.000Z</time>
      </trkpt>
      <trkpt lat="44.38713" lon="6.87815">
        <ele>2151.3999023438</ele>
        <time>2022-03-09T10:42:30.000Z</time>
      </trkpt>
      <trkpt lat="44.38716" lon="6.87813">
        <ele>2152.1999511719</ele>
        <time>2022-03-09T10:42:34.000Z</time>
      </trkpt>
      <trkpt lat="44.38717" lon="6.87813">
        <ele>2152.1999511719</ele>
        <time>2022-03-09T10:42:35.000Z</time>
      </trkpt>
      <trkpt lat="44.38717" lon="6.87813">
        <ele>2152</ele>
        <time>2022-03-09T10:42:42.000Z</time>
      </trkpt>
      <trkpt lat="44.38715" lon="6.87808">
        <ele>2153.1999511719</ele>
        <time>2022-03-09T10:43:13.000Z</time>
      </trkpt>
      <trkpt lat="44.38714" lon="6.87808">
        <ele>2154.1999511719</ele>
        <time>2022-03-09T10:43:20.000Z</time>
      </trkpt>
      <trkpt lat="44.3871" lon="6.87815">
        <ele>2155</ele>
        <time>2022-03-09T10:43:25.000Z</time>
      </trkpt>
      <trkpt lat="44.38707" lon="6.87817">
        <ele>2155.1999511719</ele>
        <time>2022-03-09T10:43:27.000Z</time>
      </trkpt>
      <trkpt lat="44.38704" lon="6.87822">
        <ele>2155.8000488281</ele>
        <time>2022-03-09T10:43:32.000Z</time>
      </trkpt>
      <trkpt lat="44.38703" lon="6.87823">
        <ele>2156.6000976562</ele>
        <time>2022-03-09T10:43:34.000Z</time>
      </trkpt>
      <trkpt lat="44.38701" lon="6.87824">
        <ele>2156.8000488281</ele>
        <time>2022-03-09T10:43:37.000Z</time>
      </trkpt>
      <trkpt lat="44.38698" lon="6.87825">
        <ele>2157.6000976562</ele>
        <time>2022-03-09T10:43:42.000Z</time>
      </trkpt>
      <trkpt lat="44.38696" lon="6.87825">
        <ele>2158.1999511719</ele>
        <time>2022-03-09T10:43:46.000Z</time>
      </trkpt>
      <trkpt lat="44.38693" lon="6.87825">
        <ele>2158.8000488281</ele>
        <time>2022-03-09T10:43:49.000Z</time>
      </trkpt>
      <trkpt lat="44.3869" lon="6.87827">
        <ele>2160</ele>
        <time>2022-03-09T10:43:56.000Z</time>
      </trkpt>
      <trkpt lat="44.3869" lon="6.87827">
        <ele>2160.1999511719</ele>
        <time>2022-03-09T10:43:58.000Z</time>
      </trkpt>
      <trkpt lat="44.38689" lon="6.87827">
        <ele>2160</ele>
        <time>2022-03-09T10:44:17.000Z</time>
      </trkpt>
      <trkpt lat="44.38689" lon="6.87828">
        <ele>2159.8000488281</ele>
        <time>2022-03-09T10:45:06.000Z</time>
      </trkpt>
      <trkpt lat="44.3869" lon="6.87828">
        <ele>2161</ele>
        <time>2022-03-09T10:47:25.000Z</time>
      </trkpt>
      <trkpt lat="44.3869" lon="6.87828">
        <ele>2160.8000488281</ele>
        <time>2022-03-09T10:47:39.000Z</time>
      </trkpt>
      <trkpt lat="44.3869" lon="6.87828">
        <ele>2161.3999023438</ele>
        <time>2022-03-09T10:47:56.000Z</time>
      </trkpt>
      <trkpt lat="44.38689" lon="6.87828">
        <ele>2161.3999023438</ele>
        <time>2022-03-09T10:48:17.000Z</time>
      </trkpt>
      <trkpt lat="44.38671" lon="6.87835">
        <ele>2161</ele>
        <time>2022-03-09T10:48:28.000Z</time>
      </trkpt>
      <trkpt lat="44.3866" lon="6.87834">
        <ele>2160.1999511719</ele>
        <time>2022-03-09T10:48:34.000Z</time>
      </trkpt>
      <trkpt lat="44.3866" lon="6.87834">
        <ele>2159.8000488281</ele>
        <time>2022-03-09T10:48:36.000Z</time>
      </trkpt>
      <trkpt lat="44.3866" lon="6.87834">
        <ele>2159.3999023438</ele>
        <time>2022-03-09T10:48:38.000Z</time>
      </trkpt>
      <trkpt lat="44.38654" lon="6.87835">
        <ele>2159.1999511719</ele>
        <time>2022-03-09T10:48:43.000Z</time>
      </trkpt>
      <trkpt lat="44.38652" lon="6.87834">
        <ele>2159.1999511719</ele>
        <time>2022-03-09T10:48:45.000Z</time>
      </trkpt>
      <trkpt lat="44.3865" lon="6.87833">
        <ele>2159.1999511719</ele>
        <time>2022-03-09T10:48:51.000Z</time>
      </trkpt>
      <trkpt lat="44.38648" lon="6.87831">
        <ele>2159.1999511719</ele>
        <time>2022-03-09T10:48:53.000Z</time>
      </trkpt>
      <trkpt lat="44.38644" lon="6.87832">
        <ele>2159.1999511719</ele>
        <time>2022-03-09T10:48:59.000Z</time>
      </trkpt>
      <trkpt lat="44.38644" lon="6.87831">
        <ele>2159.3999023438</ele>
        <time>2022-03-09T10:49:01.000Z</time>
      </trkpt>
      <trkpt lat="44.38643" lon="6.87831">
        <ele>2160.8000488281</ele>
        <time>2022-03-09T10:49:07.000Z</time>
      </trkpt>
      <trkpt lat="44.38644" lon="6.87831">
        <ele>2161</ele>
        <time>2022-03-09T10:49:08.000Z</time>
      </trkpt>
      <trkpt lat="44.38645" lon="6.87828">
        <ele>2161.3999023438</ele>
        <time>2022-03-09T10:49:11.000Z</time>
      </trkpt>
      <trkpt lat="44.38643" lon="6.87828">
        <ele>2162</ele>
        <time>2022-03-09T10:49:16.000Z</time>
      </trkpt>
      <trkpt lat="44.38643" lon="6.8783">
        <ele>2162.3999023438</ele>
        <time>2022-03-09T10:49:18.000Z</time>
      </trkpt>
      <trkpt lat="44.38638" lon="6.87834">
        <ele>2163.1999511719</ele>
        <time>2022-03-09T10:49:26.000Z</time>
      </trkpt>
      <trkpt lat="44.38638" lon="6.87836">
        <ele>2164.3999023438</ele>
        <time>2022-03-09T10:49:31.000Z</time>
      </trkpt>
      <trkpt lat="44.38639" lon="6.87838">
        <ele>2165</ele>
        <time>2022-03-09T10:49:36.000Z</time>
      </trkpt>
      <trkpt lat="44.38639" lon="6.87838">
        <ele>2165</ele>
        <time>2022-03-09T10:49:43.000Z</time>
      </trkpt>
      <trkpt lat="44.38639" lon="6.87838">
        <ele>2165.1999511719</ele>
        <time>2022-03-09T10:49:49.000Z</time>
      </trkpt>
      <trkpt lat="44.38639" lon="6.87838">
        <ele>2165.6000976562</ele>
        <time>2022-03-09T10:49:50.000Z</time>
      </trkpt>
      <trkpt lat="44.38636" lon="6.87836">
        <ele>2166.6000976562</ele>
        <time>2022-03-09T10:49:59.000Z</time>
      </trkpt>
      <trkpt lat="44.38633" lon="6.87836">
        <ele>2167.6000976562</ele>
        <time>2022-03-09T10:50:05.000Z</time>
      </trkpt>
      <trkpt lat="44.3863" lon="6.87828">
        <ele>2168.8000488281</ele>
        <time>2022-03-09T10:50:16.000Z</time>
      </trkpt>
      <trkpt lat="44.38629" lon="6.87823">
        <ele>2169.8000488281</ele>
        <time>2022-03-09T10:50:27.000Z</time>
      </trkpt>
      <trkpt lat="44.38629" lon="6.87823">
        <ele>2170.8000488281</ele>
        <time>2022-03-09T10:50:36.000Z</time>
      </trkpt>
      <trkpt lat="44.38628" lon="6.87823">
        <ele>2171.8000488281</ele>
        <time>2022-03-09T10:50:42.000Z</time>
      </trkpt>
      <trkpt lat="44.38621" lon="6.87832">
        <ele>2172.6000976562</ele>
        <time>2022-03-09T10:50:49.000Z</time>
      </trkpt>
      <trkpt lat="44.38617" lon="6.87839">
        <ele>2173</ele>
        <time>2022-03-09T10:50:53.000Z</time>
      </trkpt>
      <trkpt lat="44.38617" lon="6.87841">
        <ele>2173.1999511719</ele>
        <time>2022-03-09T10:50:56.000Z</time>
      </trkpt>
      <trkpt lat="44.38616" lon="6.87844">
        <ele>2174.1999511719</ele>
        <time>2022-03-09T10:51:01.000Z</time>
      </trkpt>
      <trkpt lat="44.38615" lon="6.87849">
        <ele>2175</ele>
        <time>2022-03-09T10:51:07.000Z</time>
      </trkpt>
      <trkpt lat="44.38615" lon="6.87851">
        <ele>2175.3999023438</ele>
        <time>2022-03-09T10:51:10.000Z</time>
      </trkpt>
      <trkpt lat="44.38615" lon="6.87854">
        <ele>2176</ele>
        <time>2022-03-09T10:51:15.000Z</time>
      </trkpt>
      <trkpt lat="44.38615" lon="6.87856">
        <ele>2176.1999511719</ele>
        <time>2022-03-09T10:51:16.000Z</time>
      </trkpt>
      <trkpt lat="44.38615" lon="6.87857">
        <ele>2176.3999023438</ele>
        <time>2022-03-09T10:51:18.000Z</time>
      </trkpt>
      <trkpt lat="44.38614" lon="6.8786">
        <ele>2177.1999511719</ele>
        <time>2022-03-09T10:51:24.000Z</time>
      </trkpt>
      <trkpt lat="44.38612" lon="6.87858">
        <ele>2177.3999023438</ele>
        <time>2022-03-09T10:51:30.000Z</time>
      </trkpt>
      <trkpt lat="44.38607" lon="6.87857">
        <ele>2178.1999511719</ele>
        <time>2022-03-09T10:51:39.000Z</time>
      </trkpt>
      <trkpt lat="44.38606" lon="6.87856">
        <ele>2178.6000976562</ele>
        <time>2022-03-09T10:51:41.000Z</time>
      </trkpt>
      <trkpt lat="44.38605" lon="6.87855">
        <ele>2179</ele>
        <time>2022-03-09T10:51:45.000Z</time>
      </trkpt>
      <trkpt lat="44.38604" lon="6.87851">
        <ele>2179.6000976562</ele>
        <time>2022-03-09T10:51:49.000Z</time>
      </trkpt>
      <trkpt lat="44.38604" lon="6.8785">
        <ele>2180</ele>
        <time>2022-03-09T10:51:51.000Z</time>
      </trkpt>
      <trkpt lat="44.38606" lon="6.8785">
        <ele>2180.1999511719</ele>
        <time>2022-03-09T10:51:53.000Z</time>
      </trkpt>
      <trkpt lat="44.38608" lon="6.87848">
        <ele>2180.3999023438</ele>
        <time>2022-03-09T10:51:56.000Z</time>
      </trkpt>
      <trkpt lat="44.38608" lon="6.87847">
        <ele>2180.8000488281</ele>
        <time>2022-03-09T10:51:57.000Z</time>
      </trkpt>
      <trkpt lat="44.38607" lon="6.87844">
        <ele>2181.1999511719</ele>
        <time>2022-03-09T10:52:01.000Z</time>
      </trkpt>
      <trkpt lat="44.38607" lon="6.87841">
        <ele>2181.8000488281</ele>
        <time>2022-03-09T10:52:06.000Z</time>
      </trkpt>
      <trkpt lat="44.38607" lon="6.8784">
        <ele>2182</ele>
        <time>2022-03-09T10:52:07.000Z</time>
      </trkpt>
      <trkpt lat="44.38612" lon="6.87837">
        <ele>2182.8000488281</ele>
        <time>2022-03-09T10:52:12.000Z</time>
      </trkpt>
      <trkpt lat="44.38612" lon="6.87837">
        <ele>2182.8000488281</ele>
        <time>2022-03-09T10:52:13.000Z</time>
      </trkpt>
      <trkpt lat="44.38606" lon="6.87838">
        <ele>2183.1999511719</ele>
        <time>2022-03-09T10:52:19.000Z</time>
      </trkpt>
      <trkpt lat="44.38604" lon="6.8784">
        <ele>2183.8000488281</ele>
        <time>2022-03-09T10:52:25.000Z</time>
      </trkpt>
      <trkpt lat="44.38604" lon="6.8784">
        <ele>2185</ele>
        <time>2022-03-09T10:52:38.000Z</time>
      </trkpt>
      <trkpt lat="44.38602" lon="6.8784">
        <ele>2186</ele>
        <time>2022-03-09T10:52:47.000Z</time>
      </trkpt>
      <trkpt lat="44.38599" lon="6.87846">
        <ele>2187</ele>
        <time>2022-03-09T10:52:56.000Z</time>
      </trkpt>
      <trkpt lat="44.38596" lon="6.8785">
        <ele>2187.3999023438</ele>
        <time>2022-03-09T10:52:59.000Z</time>
      </trkpt>
      <trkpt lat="44.38594" lon="6.87858">
        <ele>2188</ele>
        <time>2022-03-09T10:53:03.000Z</time>
      </trkpt>
      <trkpt lat="44.3859" lon="6.87856">
        <ele>2187.8000488281</ele>
        <time>2022-03-09T10:53:09.000Z</time>
      </trkpt>
      <trkpt lat="44.3859" lon="6.87856">
        <ele>2188</ele>
        <time>2022-03-09T10:53:10.000Z</time>
      </trkpt>
      <trkpt lat="44.38589" lon="6.87855">
        <ele>2188</ele>
        <time>2022-03-09T10:53:12.000Z</time>
      </trkpt>
      <trkpt lat="44.38591" lon="6.87843">
        <ele>2189.1999511719</ele>
        <time>2022-03-09T10:53:20.000Z</time>
      </trkpt>
      <trkpt lat="44.38589" lon="6.8784">
        <ele>2189.8000488281</ele>
        <time>2022-03-09T10:53:27.000Z</time>
      </trkpt>
      <trkpt lat="44.38589" lon="6.87836">
        <ele>2190.1999511719</ele>
        <time>2022-03-09T10:53:30.000Z</time>
      </trkpt>
      <trkpt lat="44.38589" lon="6.87832">
        <ele>2190.6000976562</ele>
        <time>2022-03-09T10:53:35.000Z</time>
      </trkpt>
      <trkpt lat="44.38585" lon="6.87831">
        <ele>2190.6000976562</ele>
        <time>2022-03-09T10:53:38.000Z</time>
      </trkpt>
      <trkpt lat="44.38583" lon="6.8783">
        <ele>2191</ele>
        <time>2022-03-09T10:53:41.000Z</time>
      </trkpt>
      <trkpt lat="44.38585" lon="6.87828">
        <ele>2191.1999511719</ele>
        <time>2022-03-09T10:53:45.000Z</time>
      </trkpt>
      <trkpt lat="44.38589" lon="6.87829">
        <ele>2191.3999023438</ele>
        <time>2022-03-09T10:53:47.000Z</time>
      </trkpt>
      <trkpt lat="44.38588" lon="6.8783">
        <ele>2191.3999023438</ele>
        <time>2022-03-09T10:53:53.000Z</time>
      </trkpt>
      <trkpt lat="44.38588" lon="6.8783">
        <ele>2191.3999023438</ele>
        <time>2022-03-09T10:53:54.000Z</time>
      </trkpt>
      <trkpt lat="44.38589" lon="6.87828">
        <ele>2192.3999023438</ele>
        <time>2022-03-09T10:54:16.000Z</time>
      </trkpt>
      <trkpt lat="44.38589" lon="6.87828">
        <ele>2193.3999023438</ele>
        <time>2022-03-09T10:54:22.000Z</time>
      </trkpt>
      <trkpt lat="44.38589" lon="6.87828">
        <ele>2193.6000976562</ele>
        <time>2022-03-09T10:54:25.000Z</time>
      </trkpt>
      <trkpt lat="44.38588" lon="6.87832">
        <ele>2194.3999023438</ele>
        <time>2022-03-09T10:54:35.000Z</time>
      </trkpt>
      <trkpt lat="44.38585" lon="6.87837">
        <ele>2194.6000976562</ele>
        <time>2022-03-09T10:54:45.000Z</time>
      </trkpt>
      <trkpt lat="44.38583" lon="6.87838">
        <ele>2194.6000976562</ele>
        <time>2022-03-09T10:54:48.000Z</time>
      </trkpt>
      <trkpt lat="44.38581" lon="6.87839">
        <ele>2194.6000976562</ele>
        <time>2022-03-09T10:54:53.000Z</time>
      </trkpt>
      <trkpt lat="44.3858" lon="6.87843">
        <ele>2195.3999023438</ele>
        <time>2022-03-09T10:55:01.000Z</time>
      </trkpt>
      <trkpt lat="44.38578" lon="6.87848">
        <ele>2196.1999511719</ele>
        <time>2022-03-09T10:55:08.000Z</time>
      </trkpt>
      <trkpt lat="44.38577" lon="6.8785">
        <ele>2196.6000976562</ele>
        <time>2022-03-09T10:55:12.000Z</time>
      </trkpt>
      <trkpt lat="44.38575" lon="6.87852">
        <ele>2197.1999511719</ele>
        <time>2022-03-09T10:55:17.000Z</time>
      </trkpt>
      <trkpt lat="44.38575" lon="6.87854">
        <ele>2197.6000976562</ele>
        <time>2022-03-09T10:55:20.000Z</time>
      </trkpt>
      <trkpt lat="44.38573" lon="6.87858">
        <ele>2198.1999511719</ele>
        <time>2022-03-09T10:55:27.000Z</time>
      </trkpt>
      <trkpt lat="44.38572" lon="6.8786">
        <ele>2198.8000488281</ele>
        <time>2022-03-09T10:55:30.000Z</time>
      </trkpt>
      <trkpt lat="44.38569" lon="6.87864">
        <ele>2199.8000488281</ele>
        <time>2022-03-09T10:55:39.000Z</time>
      </trkpt>
      <trkpt lat="44.38567" lon="6.87867">
        <ele>2200.8000488281</ele>
        <time>2022-03-09T10:55:47.000Z</time>
      </trkpt>
      <trkpt lat="44.38567" lon="6.87867">
        <ele>2200.8000488281</ele>
        <time>2022-03-09T10:55:48.000Z</time>
      </trkpt>
      <trkpt lat="44.38564" lon="6.8787">
        <ele>2201</ele>
        <time>2022-03-09T10:55:54.000Z</time>
      </trkpt>
      <trkpt lat="44.38564" lon="6.8787">
        <ele>2201.1999511719</ele>
        <time>2022-03-09T10:55:56.000Z</time>
      </trkpt>
      <trkpt lat="44.38564" lon="6.87874">
        <ele>2201.8000488281</ele>
        <time>2022-03-09T10:56:03.000Z</time>
      </trkpt>
      <trkpt lat="44.38565" lon="6.87875">
        <ele>2202</ele>
        <time>2022-03-09T10:56:04.000Z</time>
      </trkpt>
      <trkpt lat="44.38566" lon="6.87878">
        <ele>2202.8000488281</ele>
        <time>2022-03-09T10:56:11.000Z</time>
      </trkpt>
      <trkpt lat="44.38565" lon="6.87879">
        <ele>2202.8000488281</ele>
        <time>2022-03-09T10:56:12.000Z</time>
      </trkpt>
      <trkpt lat="44.38566" lon="6.87882">
        <ele>2203.6000976562</ele>
        <time>2022-03-09T10:56:17.000Z</time>
      </trkpt>
      <trkpt lat="44.38564" lon="6.87882">
        <ele>2203.6000976562</ele>
        <time>2022-03-09T10:56:23.000Z</time>
      </trkpt>
      <trkpt lat="44.38564" lon="6.87882">
        <ele>2203.6000976562</ele>
        <time>2022-03-09T10:56:28.000Z</time>
      </trkpt>
      <trkpt lat="44.38563" lon="6.87881">
        <ele>2203.6000976562</ele>
        <time>2022-03-09T10:56:29.000Z</time>
      </trkpt>
      <trkpt lat="44.3856" lon="6.87881">
        <ele>2204</ele>
        <time>2022-03-09T10:56:34.000Z</time>
      </trkpt>
      <trkpt lat="44.38557" lon="6.87879">
        <ele>2204.8000488281</ele>
        <time>2022-03-09T10:56:42.000Z</time>
      </trkpt>
      <trkpt lat="44.38557" lon="6.87878">
        <ele>2205.1999511719</ele>
        <time>2022-03-09T10:56:43.000Z</time>
      </trkpt>
      <trkpt lat="44.38559" lon="6.87874">
        <ele>2205.6000976562</ele>
        <time>2022-03-09T10:56:49.000Z</time>
      </trkpt>
      <trkpt lat="44.38557" lon="6.87873">
        <ele>2206.1999511719</ele>
        <time>2022-03-09T10:56:56.000Z</time>
      </trkpt>
      <trkpt lat="44.38556" lon="6.87866">
        <ele>2207</ele>
        <time>2022-03-09T10:57:04.000Z</time>
      </trkpt>
      <trkpt lat="44.38555" lon="6.87865">
        <ele>2207.1999511719</ele>
        <time>2022-03-09T10:57:07.000Z</time>
      </trkpt>
      <trkpt lat="44.38555" lon="6.87864">
        <ele>2207.3999023438</ele>
        <time>2022-03-09T10:57:10.000Z</time>
      </trkpt>
      <trkpt lat="44.38556" lon="6.8786">
        <ele>2207.8000488281</ele>
        <time>2022-03-09T10:57:16.000Z</time>
      </trkpt>
      <trkpt lat="44.38556" lon="6.8786">
        <ele>2208.3999023438</ele>
        <time>2022-03-09T10:57:22.000Z</time>
      </trkpt>
      <trkpt lat="44.38555" lon="6.8786">
        <ele>2209</ele>
        <time>2022-03-09T10:57:32.000Z</time>
      </trkpt>
      <trkpt lat="44.38555" lon="6.8786">
        <ele>2209.3999023438</ele>
        <time>2022-03-09T10:57:36.000Z</time>
      </trkpt>
      <trkpt lat="44.38554" lon="6.87862">
        <ele>2210.3999023438</ele>
        <time>2022-03-09T10:57:48.000Z</time>
      </trkpt>
      <trkpt lat="44.38553" lon="6.87866">
        <ele>2211.3999023438</ele>
        <time>2022-03-09T10:57:57.000Z</time>
      </trkpt>
      <trkpt lat="44.38549" lon="6.87871">
        <ele>2212.3999023438</ele>
        <time>2022-03-09T10:58:08.000Z</time>
      </trkpt>
      <trkpt lat="44.38547" lon="6.87875">
        <ele>2213.3999023438</ele>
        <time>2022-03-09T10:58:18.000Z</time>
      </trkpt>
      <trkpt lat="44.38545" lon="6.87881">
        <ele>2214.3999023438</ele>
        <time>2022-03-09T10:58:37.000Z</time>
      </trkpt>
      <trkpt lat="44.38542" lon="6.87881">
        <ele>2215.6000976562</ele>
        <time>2022-03-09T10:58:47.000Z</time>
      </trkpt>
      <trkpt lat="44.38541" lon="6.87878">
        <ele>2216.6000976562</ele>
        <time>2022-03-09T10:58:57.000Z</time>
      </trkpt>
      <trkpt lat="44.38537" lon="6.87871">
        <ele>2217</ele>
        <time>2022-03-09T10:59:02.000Z</time>
      </trkpt>
      <trkpt lat="44.38535" lon="6.87864">
        <ele>2217.6000976562</ele>
        <time>2022-03-09T10:59:07.000Z</time>
      </trkpt>
      <trkpt lat="44.38534" lon="6.87865">
        <ele>2217.8000488281</ele>
        <time>2022-03-09T10:59:09.000Z</time>
      </trkpt>
      <trkpt lat="44.38534" lon="6.87866">
        <ele>2218.6000976562</ele>
        <time>2022-03-09T10:59:15.000Z</time>
      </trkpt>
      <trkpt lat="44.38534" lon="6.87866">
        <ele>2219.3999023438</ele>
        <time>2022-03-09T10:59:19.000Z</time>
      </trkpt>
      <trkpt lat="44.38534" lon="6.87866">
        <ele>2219.8000488281</ele>
        <time>2022-03-09T10:59:21.000Z</time>
      </trkpt>
      <trkpt lat="44.38534" lon="6.87867">
        <ele>2220.8000488281</ele>
        <time>2022-03-09T10:59:31.000Z</time>
      </trkpt>
      <trkpt lat="44.38534" lon="6.87872">
        <ele>2222</ele>
        <time>2022-03-09T10:59:41.000Z</time>
      </trkpt>
      <trkpt lat="44.38532" lon="6.87877">
        <ele>2223</ele>
        <time>2022-03-09T10:59:50.000Z</time>
      </trkpt>
      <trkpt lat="44.38531" lon="6.87882">
        <ele>2224</ele>
        <time>2022-03-09T10:59:58.000Z</time>
      </trkpt>
      <trkpt lat="44.38531" lon="6.87882">
        <ele>2224.1999511719</ele>
        <time>2022-03-09T10:59:59.000Z</time>
      </trkpt>
      <trkpt lat="44.38529" lon="6.87887">
        <ele>2225.1999511719</ele>
        <time>2022-03-09T11:00:08.000Z</time>
      </trkpt>
      <trkpt lat="44.38524" lon="6.87891">
        <ele>2226.1999511719</ele>
        <time>2022-03-09T11:00:30.000Z</time>
      </trkpt>
      <trkpt lat="44.38523" lon="6.87891">
        <ele>2227.1999511719</ele>
        <time>2022-03-09T11:00:42.000Z</time>
      </trkpt>
      <trkpt lat="44.38523" lon="6.87891">
        <ele>2228.3999023438</ele>
        <time>2022-03-09T11:00:48.000Z</time>
      </trkpt>
      <trkpt lat="44.38521" lon="6.87895">
        <ele>2229.3999023438</ele>
        <time>2022-03-09T11:00:56.000Z</time>
      </trkpt>
      <trkpt lat="44.38519" lon="6.879">
        <ele>2230.3999023438</ele>
        <time>2022-03-09T11:01:04.000Z</time>
      </trkpt>
      <trkpt lat="44.38519" lon="6.879">
        <ele>2230.6000976562</ele>
        <time>2022-03-09T11:01:05.000Z</time>
      </trkpt>
      <trkpt lat="44.38517" lon="6.87904">
        <ele>2231.6000976562</ele>
        <time>2022-03-09T11:01:11.000Z</time>
      </trkpt>
      <trkpt lat="44.38517" lon="6.87911">
        <ele>2232.8000488281</ele>
        <time>2022-03-09T11:01:20.000Z</time>
      </trkpt>
      <trkpt lat="44.38515" lon="6.8792">
        <ele>2233.8000488281</ele>
        <time>2022-03-09T11:01:32.000Z</time>
      </trkpt>
      <trkpt lat="44.38512" lon="6.87923">
        <ele>2234.8000488281</ele>
        <time>2022-03-09T11:01:39.000Z</time>
      </trkpt>
      <trkpt lat="44.38509" lon="6.87924">
        <ele>2236</ele>
        <time>2022-03-09T11:01:46.000Z</time>
      </trkpt>
      <trkpt lat="44.38508" lon="6.87924">
        <ele>2237</ele>
        <time>2022-03-09T11:01:54.000Z</time>
      </trkpt>
      <trkpt lat="44.38508" lon="6.87924">
        <ele>2237</ele>
        <time>2022-03-09T11:01:55.000Z</time>
      </trkpt>
      <trkpt lat="44.38508" lon="6.87931">
        <ele>2238</ele>
        <time>2022-03-09T11:02:11.000Z</time>
      </trkpt>
      <trkpt lat="44.38507" lon="6.87934">
        <ele>2239.1999511719</ele>
        <time>2022-03-09T11:02:17.000Z</time>
      </trkpt>
      <trkpt lat="44.38499" lon="6.87932">
        <ele>2239.8000488281</ele>
        <time>2022-03-09T11:02:22.000Z</time>
      </trkpt>
      <trkpt lat="44.38496" lon="6.87931">
        <ele>2240.1999511719</ele>
        <time>2022-03-09T11:02:24.000Z</time>
      </trkpt>
      <trkpt lat="44.38494" lon="6.8793">
        <ele>2241.1999511719</ele>
        <time>2022-03-09T11:02:30.000Z</time>
      </trkpt>
      <trkpt lat="44.38495" lon="6.8793">
        <ele>2241.6000976562</ele>
        <time>2022-03-09T11:02:33.000Z</time>
      </trkpt>
      <trkpt lat="44.38496" lon="6.87929">
        <ele>2241.6000976562</ele>
        <time>2022-03-09T11:02:35.000Z</time>
      </trkpt>
      <trkpt lat="44.38495" lon="6.87928">
        <ele>2242.3999023438</ele>
        <time>2022-03-09T11:02:43.000Z</time>
      </trkpt>
      <trkpt lat="44.38495" lon="6.87927">
        <ele>2242.6000976562</ele>
        <time>2022-03-09T11:02:45.000Z</time>
      </trkpt>
      <trkpt lat="44.38496" lon="6.87927">
        <ele>2242.8000488281</ele>
        <time>2022-03-09T11:02:48.000Z</time>
      </trkpt>
      <trkpt lat="44.38497" lon="6.8793">
        <ele>2243.6000976562</ele>
        <time>2022-03-09T11:02:54.000Z</time>
      </trkpt>
      <trkpt lat="44.38497" lon="6.87935">
        <ele>2244.6000976562</ele>
        <time>2022-03-09T11:03:01.000Z</time>
      </trkpt>
      <trkpt lat="44.38497" lon="6.87936">
        <ele>2244.8000488281</ele>
        <time>2022-03-09T11:03:03.000Z</time>
      </trkpt>
      <trkpt lat="44.38498" lon="6.87943">
        <ele>2245.8000488281</ele>
        <time>2022-03-09T11:03:11.000Z</time>
      </trkpt>
      <trkpt lat="44.38499" lon="6.87946">
        <ele>2247</ele>
        <time>2022-03-09T11:03:18.000Z</time>
      </trkpt>
      <trkpt lat="44.38501" lon="6.87947">
        <ele>2247.1999511719</ele>
        <time>2022-03-09T11:03:21.000Z</time>
      </trkpt>
      <trkpt lat="44.38498" lon="6.87953">
        <ele>2248</ele>
        <time>2022-03-09T11:03:28.000Z</time>
      </trkpt>
      <trkpt lat="44.38498" lon="6.87954">
        <ele>2248</ele>
        <time>2022-03-09T11:03:29.000Z</time>
      </trkpt>
      <trkpt lat="44.38499" lon="6.87959">
        <ele>2249.1999511719</ele>
        <time>2022-03-09T11:03:37.000Z</time>
      </trkpt>
      <trkpt lat="44.38495" lon="6.87961">
        <ele>2249.8000488281</ele>
        <time>2022-03-09T11:03:43.000Z</time>
      </trkpt>
      <trkpt lat="44.38491" lon="6.8796">
        <ele>2250.1999511719</ele>
        <time>2022-03-09T11:03:48.000Z</time>
      </trkpt>
      <trkpt lat="44.38488" lon="6.8796">
        <ele>2250.8000488281</ele>
        <time>2022-03-09T11:03:53.000Z</time>
      </trkpt>
      <trkpt lat="44.38485" lon="6.87959">
        <ele>2251.1999511719</ele>
        <time>2022-03-09T11:03:58.000Z</time>
      </trkpt>
      <trkpt lat="44.38482" lon="6.87957">
        <ele>2251.6000976562</ele>
        <time>2022-03-09T11:04:04.000Z</time>
      </trkpt>
      <trkpt lat="44.3848" lon="6.87955">
        <ele>2252.3999023438</ele>
        <time>2022-03-09T11:04:09.000Z</time>
      </trkpt>
      <trkpt lat="44.38478" lon="6.87953">
        <ele>2253.3999023438</ele>
        <time>2022-03-09T11:04:18.000Z</time>
      </trkpt>
      <trkpt lat="44.38478" lon="6.87953">
        <ele>2253.3999023438</ele>
        <time>2022-03-09T11:04:19.000Z</time>
      </trkpt>
      <trkpt lat="44.38476" lon="6.87953">
        <ele>2254.1999511719</ele>
        <time>2022-03-09T11:04:25.000Z</time>
      </trkpt>
      <trkpt lat="44.38476" lon="6.87953">
        <ele>2254.3999023438</ele>
        <time>2022-03-09T11:04:26.000Z</time>
      </trkpt>
      <trkpt lat="44.38476" lon="6.87951">
        <ele>2255.1999511719</ele>
        <time>2022-03-09T11:04:36.000Z</time>
      </trkpt>
      <trkpt lat="44.38476" lon="6.87951">
        <ele>2255.6000976562</ele>
        <time>2022-03-09T11:04:40.000Z</time>
      </trkpt>
      <trkpt lat="44.38475" lon="6.87949">
        <ele>2256.6000976562</ele>
        <time>2022-03-09T11:04:49.000Z</time>
      </trkpt>
      <trkpt lat="44.38474" lon="6.8795">
        <ele>2257.1999511719</ele>
        <time>2022-03-09T11:04:56.000Z</time>
      </trkpt>
      <trkpt lat="44.38475" lon="6.87951">
        <ele>2257.1999511719</ele>
        <time>2022-03-09T11:05:20.000Z</time>
      </trkpt>
      <trkpt lat="44.38475" lon="6.87951">
        <ele>2257.6000976562</ele>
        <time>2022-03-09T11:05:23.000Z</time>
      </trkpt>
      <trkpt lat="44.38475" lon="6.87951">
        <ele>2258.6000976562</ele>
        <time>2022-03-09T11:05:31.000Z</time>
      </trkpt>
      <trkpt lat="44.38475" lon="6.87953">
        <ele>2259.6000976562</ele>
        <time>2022-03-09T11:05:41.000Z</time>
      </trkpt>
      <trkpt lat="44.38475" lon="6.8796">
        <ele>2260.8000488281</ele>
        <time>2022-03-09T11:05:53.000Z</time>
      </trkpt>
      <trkpt lat="44.38475" lon="6.87966">
        <ele>2261.8000488281</ele>
        <time>2022-03-09T11:06:07.000Z</time>
      </trkpt>
      <trkpt lat="44.38469" lon="6.87968">
        <ele>2262.8000488281</ele>
        <time>2022-03-09T11:06:25.000Z</time>
      </trkpt>
      <trkpt lat="44.38466" lon="6.87968">
        <ele>2263</ele>
        <time>2022-03-09T11:06:27.000Z</time>
      </trkpt>
      <trkpt lat="44.38463" lon="6.87966">
        <ele>2263.6000976562</ele>
        <time>2022-03-09T11:06:36.000Z</time>
      </trkpt>
      <trkpt lat="44.38463" lon="6.87962">
        <ele>2263.8000488281</ele>
        <time>2022-03-09T11:06:40.000Z</time>
      </trkpt>
      <trkpt lat="44.38462" lon="6.87962">
        <ele>2264</ele>
        <time>2022-03-09T11:06:43.000Z</time>
      </trkpt>
      <trkpt lat="44.38461" lon="6.87962">
        <ele>2264.3999023438</ele>
        <time>2022-03-09T11:06:44.000Z</time>
      </trkpt>
      <trkpt lat="44.38461" lon="6.87961">
        <ele>2264.8000488281</ele>
        <time>2022-03-09T11:06:48.000Z</time>
      </trkpt>
      <trkpt lat="44.38461" lon="6.8796">
        <ele>2265</ele>
        <time>2022-03-09T11:06:50.000Z</time>
      </trkpt>
      <trkpt lat="44.38459" lon="6.87957">
        <ele>2266</ele>
        <time>2022-03-09T11:06:57.000Z</time>
      </trkpt>
      <trkpt lat="44.38458" lon="6.87956">
        <ele>2266.1999511719</ele>
        <time>2022-03-09T11:07:00.000Z</time>
      </trkpt>
      <trkpt lat="44.38455" lon="6.87954">
        <ele>2267</ele>
        <time>2022-03-09T11:07:07.000Z</time>
      </trkpt>
      <trkpt lat="44.38455" lon="6.87952">
        <ele>2267</ele>
        <time>2022-03-09T11:07:09.000Z</time>
      </trkpt>
      <trkpt lat="44.38453" lon="6.87949">
        <ele>2267.3999023438</ele>
        <time>2022-03-09T11:07:19.000Z</time>
      </trkpt>
      <trkpt lat="44.38453" lon="6.87945">
        <ele>2267.8000488281</ele>
        <time>2022-03-09T11:07:27.000Z</time>
      </trkpt>
      <trkpt lat="44.38453" lon="6.87945">
        <ele>2268</ele>
        <time>2022-03-09T11:07:28.000Z</time>
      </trkpt>
      <trkpt lat="44.38453" lon="6.87945">
        <ele>2268.8000488281</ele>
        <time>2022-03-09T11:07:33.000Z</time>
      </trkpt>
      <trkpt lat="44.38453" lon="6.87945">
        <ele>2269</ele>
        <time>2022-03-09T11:07:34.000Z</time>
      </trkpt>
      <trkpt lat="44.38453" lon="6.87945">
        <ele>2270</ele>
        <time>2022-03-09T11:07:41.000Z</time>
      </trkpt>
      <trkpt lat="44.38452" lon="6.87948">
        <ele>2271</ele>
        <time>2022-03-09T11:07:50.000Z</time>
      </trkpt>
      <trkpt lat="44.3845" lon="6.87951">
        <ele>2272.1999511719</ele>
        <time>2022-03-09T11:07:55.000Z</time>
      </trkpt>
      <trkpt lat="44.38449" lon="6.87959">
        <ele>2272.6000976562</ele>
        <time>2022-03-09T11:08:01.000Z</time>
      </trkpt>
      <trkpt lat="44.38446" lon="6.87963">
        <ele>2273</ele>
        <time>2022-03-09T11:08:08.000Z</time>
      </trkpt>
      <trkpt lat="44.38445" lon="6.8796">
        <ele>2273.1999511719</ele>
        <time>2022-03-09T11:08:14.000Z</time>
      </trkpt>
      <trkpt lat="44.38444" lon="6.87957">
        <ele>2274</ele>
        <time>2022-03-09T11:08:18.000Z</time>
      </trkpt>
      <trkpt lat="44.38443" lon="6.87956">
        <ele>2274.3999023438</ele>
        <time>2022-03-09T11:08:19.000Z</time>
      </trkpt>
      <trkpt lat="44.38439" lon="6.87952">
        <ele>2275.3999023438</ele>
        <time>2022-03-09T11:08:28.000Z</time>
      </trkpt>
      <trkpt lat="44.38435" lon="6.87948">
        <ele>2276.6000976562</ele>
        <time>2022-03-09T11:08:38.000Z</time>
      </trkpt>
      <trkpt lat="44.38433" lon="6.87947">
        <ele>2277</ele>
        <time>2022-03-09T11:08:40.000Z</time>
      </trkpt>
      <trkpt lat="44.3843" lon="6.87945">
        <ele>2277.8000488281</ele>
        <time>2022-03-09T11:08:45.000Z</time>
      </trkpt>
      <trkpt lat="44.38429" lon="6.87943">
        <ele>2278.3999023438</ele>
        <time>2022-03-09T11:08:50.000Z</time>
      </trkpt>
      <trkpt lat="44.38427" lon="6.87941">
        <ele>2278.8000488281</ele>
        <time>2022-03-09T11:08:54.000Z</time>
      </trkpt>
      <trkpt lat="44.38426" lon="6.87939">
        <ele>2279.8000488281</ele>
        <time>2022-03-09T11:09:00.000Z</time>
      </trkpt>
      <trkpt lat="44.38426" lon="6.87938">
        <ele>2280</ele>
        <time>2022-03-09T11:09:01.000Z</time>
      </trkpt>
      <trkpt lat="44.38422" lon="6.87933">
        <ele>2280.6000976562</ele>
        <time>2022-03-09T11:09:09.000Z</time>
      </trkpt>
      <trkpt lat="44.38422" lon="6.87932">
        <ele>2281</ele>
        <time>2022-03-09T11:09:13.000Z</time>
      </trkpt>
      <trkpt lat="44.38422" lon="6.87931">
        <ele>2281.1999511719</ele>
        <time>2022-03-09T11:09:15.000Z</time>
      </trkpt>
      <trkpt lat="44.38422" lon="6.87932">
        <ele>2282</ele>
        <time>2022-03-09T11:09:21.000Z</time>
      </trkpt>
      <trkpt lat="44.38422" lon="6.87933">
        <ele>2282</ele>
        <time>2022-03-09T11:09:23.000Z</time>
      </trkpt>
      <trkpt lat="44.38422" lon="6.87934">
        <ele>2283</ele>
        <time>2022-03-09T11:09:41.000Z</time>
      </trkpt>
      <trkpt lat="44.38421" lon="6.87938">
        <ele>2284</ele>
        <time>2022-03-09T11:09:56.000Z</time>
      </trkpt>
      <trkpt lat="44.3842" lon="6.8794">
        <ele>2285</ele>
        <time>2022-03-09T11:10:06.000Z</time>
      </trkpt>
      <trkpt lat="44.38419" lon="6.87948">
        <ele>2286</ele>
        <time>2022-03-09T11:10:23.000Z</time>
      </trkpt>
      <trkpt lat="44.38417" lon="6.87948">
        <ele>2287.1999511719</ele>
        <time>2022-03-09T11:10:32.000Z</time>
      </trkpt>
      <trkpt lat="44.38412" lon="6.87946">
        <ele>2288.1999511719</ele>
        <time>2022-03-09T11:10:40.000Z</time>
      </trkpt>
      <trkpt lat="44.38409" lon="6.87946">
        <ele>2289.3999023438</ele>
        <time>2022-03-09T11:10:46.000Z</time>
      </trkpt>
      <trkpt lat="44.38409" lon="6.87946">
        <ele>2290.6000976562</ele>
        <time>2022-03-09T11:10:56.000Z</time>
      </trkpt>
      <trkpt lat="44.38408" lon="6.8795">
        <ele>2291.8000488281</ele>
        <time>2022-03-09T11:11:03.000Z</time>
      </trkpt>
      <trkpt lat="44.38406" lon="6.87955">
        <ele>2292.8000488281</ele>
        <time>2022-03-09T11:11:10.000Z</time>
      </trkpt>
      <trkpt lat="44.38402" lon="6.87959">
        <ele>2293.3999023438</ele>
        <time>2022-03-09T11:11:15.000Z</time>
      </trkpt>
      <trkpt lat="44.38397" lon="6.8796">
        <ele>2293.8000488281</ele>
        <time>2022-03-09T11:11:22.000Z</time>
      </trkpt>
      <trkpt lat="44.38395" lon="6.8796">
        <ele>2294.3999023438</ele>
        <time>2022-03-09T11:11:25.000Z</time>
      </trkpt>
      <trkpt lat="44.38394" lon="6.87959">
        <ele>2294.8000488281</ele>
        <time>2022-03-09T11:11:29.000Z</time>
      </trkpt>
      <trkpt lat="44.38393" lon="6.87958">
        <ele>2295.3999023438</ele>
        <time>2022-03-09T11:11:31.000Z</time>
      </trkpt>
      <trkpt lat="44.38392" lon="6.87957">
        <ele>2296</ele>
        <time>2022-03-09T11:11:35.000Z</time>
      </trkpt>
      <trkpt lat="44.38392" lon="6.87957">
        <ele>2296.3999023438</ele>
        <time>2022-03-09T11:11:39.000Z</time>
      </trkpt>
      <trkpt lat="44.3839" lon="6.87956">
        <ele>2296.8000488281</ele>
        <time>2022-03-09T11:11:55.000Z</time>
      </trkpt>
      <trkpt lat="44.38389" lon="6.87956">
        <ele>2297.1999511719</ele>
        <time>2022-03-09T11:11:57.000Z</time>
      </trkpt>
      <trkpt lat="44.38389" lon="6.87955">
        <ele>2297.3999023438</ele>
        <time>2022-03-09T11:11:58.000Z</time>
      </trkpt>
      <trkpt lat="44.38385" lon="6.87952">
        <ele>2298</ele>
        <time>2022-03-09T11:12:06.000Z</time>
      </trkpt>
      <trkpt lat="44.38385" lon="6.87948">
        <ele>2298.1999511719</ele>
        <time>2022-03-09T11:12:14.000Z</time>
      </trkpt>
      <trkpt lat="44.38386" lon="6.87948">
        <ele>2299</ele>
        <time>2022-03-09T11:12:20.000Z</time>
      </trkpt>
      <trkpt lat="44.38387" lon="6.87949">
        <ele>2299.1999511719</ele>
        <time>2022-03-09T11:12:22.000Z</time>
      </trkpt>
      <trkpt lat="44.38385" lon="6.87952">
        <ele>2300</ele>
        <time>2022-03-09T11:12:27.000Z</time>
      </trkpt>
      <trkpt lat="44.38385" lon="6.87956">
        <ele>2300.3999023438</ele>
        <time>2022-03-09T11:12:31.000Z</time>
      </trkpt>
      <trkpt lat="44.38386" lon="6.8796">
        <ele>2301</ele>
        <time>2022-03-09T11:12:36.000Z</time>
      </trkpt>
      <trkpt lat="44.38386" lon="6.87961">
        <ele>2301.6000976562</ele>
        <time>2022-03-09T11:12:38.000Z</time>
      </trkpt>
      <trkpt lat="44.38387" lon="6.87963">
        <ele>2302.3999023438</ele>
        <time>2022-03-09T11:12:43.000Z</time>
      </trkpt>
      <trkpt lat="44.38387" lon="6.87965">
        <ele>2302.8000488281</ele>
        <time>2022-03-09T11:12:48.000Z</time>
      </trkpt>
      <trkpt lat="44.38386" lon="6.87964">
        <ele>2303</ele>
        <time>2022-03-09T11:12:51.000Z</time>
      </trkpt>
      <trkpt lat="44.3838" lon="6.8796">
        <ele>2303.8000488281</ele>
        <time>2022-03-09T11:13:00.000Z</time>
      </trkpt>
      <trkpt lat="44.38377" lon="6.87957">
        <ele>2304.6000976562</ele>
        <time>2022-03-09T11:13:06.000Z</time>
      </trkpt>
      <trkpt lat="44.38377" lon="6.87957">
        <ele>2304.8000488281</ele>
        <time>2022-03-09T11:13:08.000Z</time>
      </trkpt>
      <trkpt lat="44.38374" lon="6.87953">
        <ele>2305.1999511719</ele>
        <time>2022-03-09T11:13:15.000Z</time>
      </trkpt>
      <trkpt lat="44.38372" lon="6.87952">
        <ele>2306</ele>
        <time>2022-03-09T11:13:22.000Z</time>
      </trkpt>
      <trkpt lat="44.3837" lon="6.87951">
        <ele>2306.3999023438</ele>
        <time>2022-03-09T11:13:26.000Z</time>
      </trkpt>
      <trkpt lat="44.38369" lon="6.87949">
        <ele>2307</ele>
        <time>2022-03-09T11:13:31.000Z</time>
      </trkpt>
      <trkpt lat="44.38369" lon="6.87949">
        <ele>2307.1999511719</ele>
        <time>2022-03-09T11:13:34.000Z</time>
      </trkpt>
      <trkpt lat="44.38369" lon="6.87948">
        <ele>2307.1999511719</ele>
        <time>2022-03-09T11:13:46.000Z</time>
      </trkpt>
      <trkpt lat="44.38372" lon="6.87946">
        <ele>2307</ele>
        <time>2022-03-09T11:14:12.000Z</time>
      </trkpt>
      <trkpt lat="44.38371" lon="6.87948">
        <ele>2308</ele>
        <time>2022-03-09T11:14:39.000Z</time>
      </trkpt>
      <trkpt lat="44.38371" lon="6.87948">
        <ele>2308</ele>
        <time>2022-03-09T11:14:42.000Z</time>
      </trkpt>
      <trkpt lat="44.38365" lon="6.87947">
        <ele>2309.1999511719</ele>
        <time>2022-03-09T11:14:52.000Z</time>
      </trkpt>
      <trkpt lat="44.38364" lon="6.87946">
        <ele>2310.3999023438</ele>
        <time>2022-03-09T11:15:00.000Z</time>
      </trkpt>
      <trkpt lat="44.38364" lon="6.87946">
        <ele>2311.6000976562</ele>
        <time>2022-03-09T11:15:09.000Z</time>
      </trkpt>
      <trkpt lat="44.38364" lon="6.8795">
        <ele>2312.6000976562</ele>
        <time>2022-03-09T11:15:23.000Z</time>
      </trkpt>
      <trkpt lat="44.38363" lon="6.87951">
        <ele>2313.6000976562</ele>
        <time>2022-03-09T11:15:31.000Z</time>
      </trkpt>
      <trkpt lat="44.38358" lon="6.87951">
        <ele>2314.8000488281</ele>
        <time>2022-03-09T11:15:41.000Z</time>
      </trkpt>
      <trkpt lat="44.38356" lon="6.87951">
        <ele>2315.8000488281</ele>
        <time>2022-03-09T11:15:50.000Z</time>
      </trkpt>
      <trkpt lat="44.38356" lon="6.87951">
        <ele>2316.6000976562</ele>
        <time>2022-03-09T11:15:57.000Z</time>
      </trkpt>
      <trkpt lat="44.38355" lon="6.87952">
        <ele>2316.8000488281</ele>
        <time>2022-03-09T11:16:01.000Z</time>
      </trkpt>
      <trkpt lat="44.38354" lon="6.87959">
        <ele>2318</ele>
        <time>2022-03-09T11:16:21.000Z</time>
      </trkpt>
      <trkpt lat="44.38349" lon="6.87959">
        <ele>2319</ele>
        <time>2022-03-09T11:16:37.000Z</time>
      </trkpt>
      <trkpt lat="44.38348" lon="6.87961">
        <ele>2320</ele>
        <time>2022-03-09T11:16:49.000Z</time>
      </trkpt>
      <trkpt lat="44.38349" lon="6.87962">
        <ele>2320</ele>
        <time>2022-03-09T11:16:50.000Z</time>
      </trkpt>
      <trkpt lat="44.3835" lon="6.87965">
        <ele>2320.1999511719</ele>
        <time>2022-03-09T11:16:52.000Z</time>
      </trkpt>
      <trkpt lat="44.38355" lon="6.87972">
        <ele>2320.6000976562</ele>
        <time>2022-03-09T11:16:59.000Z</time>
      </trkpt>
      <trkpt lat="44.38356" lon="6.87975">
        <ele>2321</ele>
        <time>2022-03-09T11:17:03.000Z</time>
      </trkpt>
      <trkpt lat="44.38359" lon="6.87979">
        <ele>2321.6000976562</ele>
        <time>2022-03-09T11:17:09.000Z</time>
      </trkpt>
      <trkpt lat="44.38361" lon="6.8798">
        <ele>2322.1999511719</ele>
        <time>2022-03-09T11:17:12.000Z</time>
      </trkpt>
      <trkpt lat="44.38362" lon="6.87983">
        <ele>2322.8000488281</ele>
        <time>2022-03-09T11:17:16.000Z</time>
      </trkpt>
      <trkpt lat="44.38361" lon="6.87986">
        <ele>2323.1999511719</ele>
        <time>2022-03-09T11:17:19.000Z</time>
      </trkpt>
      <trkpt lat="44.3836" lon="6.87987">
        <ele>2323.8000488281</ele>
        <time>2022-03-09T11:17:21.000Z</time>
      </trkpt>
      <trkpt lat="44.3836" lon="6.87989">
        <ele>2324.3999023438</ele>
        <time>2022-03-09T11:17:23.000Z</time>
      </trkpt>
      <trkpt lat="44.38359" lon="6.8799">
        <ele>2325</ele>
        <time>2022-03-09T11:17:25.000Z</time>
      </trkpt>
      <trkpt lat="44.38357" lon="6.87992">
        <ele>2325.3999023438</ele>
        <time>2022-03-09T11:17:29.000Z</time>
      </trkpt>
      <trkpt lat="44.38355" lon="6.87994">
        <ele>2325.8000488281</ele>
        <time>2022-03-09T11:17:32.000Z</time>
      </trkpt>
      <trkpt lat="44.38353" lon="6.87993">
        <ele>2326.3999023438</ele>
        <time>2022-03-09T11:17:37.000Z</time>
      </trkpt>
      <trkpt lat="44.3835" lon="6.87992">
        <ele>2327</ele>
        <time>2022-03-09T11:17:40.000Z</time>
      </trkpt>
      <trkpt lat="44.38337" lon="6.87974">
        <ele>2327.6000976562</ele>
        <time>2022-03-09T11:17:44.000Z</time>
      </trkpt>
      <trkpt lat="44.38337" lon="6.87978">
        <ele>2328.6000976562</ele>
        <time>2022-03-09T11:17:50.000Z</time>
      </trkpt>
      <trkpt lat="44.38334" lon="6.87978">
        <ele>2329.6000976562</ele>
        <time>2022-03-09T11:18:01.000Z</time>
      </trkpt>
      <trkpt lat="44.38335" lon="6.87979">
        <ele>2329.8000488281</ele>
        <time>2022-03-09T11:18:02.000Z</time>
      </trkpt>
      <trkpt lat="44.38335" lon="6.8798">
        <ele>2330</ele>
        <time>2022-03-09T11:18:06.000Z</time>
      </trkpt>
      <trkpt lat="44.38335" lon="6.8798">
        <ele>2331</ele>
        <time>2022-03-09T11:18:14.000Z</time>
      </trkpt>
      <trkpt lat="44.38335" lon="6.8798">
        <ele>2332</ele>
        <time>2022-03-09T11:18:20.000Z</time>
      </trkpt>
      <trkpt lat="44.38337" lon="6.87988">
        <ele>2333</ele>
        <time>2022-03-09T11:18:28.000Z</time>
      </trkpt>
      <trkpt lat="44.38336" lon="6.87998">
        <ele>2334.1999511719</ele>
        <time>2022-03-09T11:18:39.000Z</time>
      </trkpt>
      <trkpt lat="44.38331" lon="6.88001">
        <ele>2335.1999511719</ele>
        <time>2022-03-09T11:18:44.000Z</time>
      </trkpt>
      <trkpt lat="44.38329" lon="6.88002">
        <ele>2335.3999023438</ele>
        <time>2022-03-09T11:18:46.000Z</time>
      </trkpt>
      <trkpt lat="44.38326" lon="6.88004">
        <ele>2336.6000976562</ele>
        <time>2022-03-09T11:18:52.000Z</time>
      </trkpt>
      <trkpt lat="44.38328" lon="6.88012">
        <ele>2337.6000976562</ele>
        <time>2022-03-09T11:19:01.000Z</time>
      </trkpt>
      <trkpt lat="44.38329" lon="6.88017">
        <ele>2338.6000976562</ele>
        <time>2022-03-09T11:19:07.000Z</time>
      </trkpt>
      <trkpt lat="44.38329" lon="6.88019">
        <ele>2339</ele>
        <time>2022-03-09T11:19:10.000Z</time>
      </trkpt>
      <trkpt lat="44.3833" lon="6.88026">
        <ele>2339.8000488281</ele>
        <time>2022-03-09T11:19:17.000Z</time>
      </trkpt>
      <trkpt lat="44.3833" lon="6.88029">
        <ele>2340.1999511719</ele>
        <time>2022-03-09T11:19:20.000Z</time>
      </trkpt>
      <trkpt lat="44.38328" lon="6.88032">
        <ele>2340.8000488281</ele>
        <time>2022-03-09T11:19:25.000Z</time>
      </trkpt>
      <trkpt lat="44.38328" lon="6.88034">
        <ele>2341.1999511719</ele>
        <time>2022-03-09T11:19:27.000Z</time>
      </trkpt>
      <trkpt lat="44.38327" lon="6.88034">
        <ele>2341.1999511719</ele>
        <time>2022-03-09T11:19:28.000Z</time>
      </trkpt>
      <trkpt lat="44.38327" lon="6.88041">
        <ele>2341.8000488281</ele>
        <time>2022-03-09T11:19:35.000Z</time>
      </trkpt>
      <trkpt lat="44.38326" lon="6.88042">
        <ele>2341.8000488281</ele>
        <time>2022-03-09T11:19:36.000Z</time>
      </trkpt>
      <trkpt lat="44.38326" lon="6.88047">
        <ele>2342.3999023438</ele>
        <time>2022-03-09T11:19:43.000Z</time>
      </trkpt>
      <trkpt lat="44.38326" lon="6.88048">
        <ele>2342.6000976562</ele>
        <time>2022-03-09T11:19:51.000Z</time>
      </trkpt>
      <trkpt lat="44.38324" lon="6.88046">
        <ele>2342.1999511719</ele>
        <time>2022-03-09T11:22:08.000Z</time>
      </trkpt>
      <trkpt lat="44.38327" lon="6.8805">
        <ele>2342.3999023438</ele>
        <time>2022-03-09T11:22:48.000Z</time>
      </trkpt>
      <trkpt lat="44.38329" lon="6.88051">
        <ele>2342</ele>
        <time>2022-03-09T11:25:06.000Z</time>
      </trkpt>
      <trkpt lat="44.38329" lon="6.8805">
        <ele>2342</ele>
        <time>2022-03-09T11:25:44.000Z</time>
      </trkpt>
      <trkpt lat="44.38328" lon="6.8805">
        <ele>2341.8000488281</ele>
        <time>2022-03-09T11:26:52.000Z</time>
      </trkpt>
      <trkpt lat="44.38328" lon="6.8805">
        <ele>2341.6000976562</ele>
        <time>2022-03-09T11:27:14.000Z</time>
      </trkpt>
      <trkpt lat="44.38328" lon="6.88049">
        <ele>2341.8000488281</ele>
        <time>2022-03-09T11:29:22.000Z</time>
      </trkpt>
      <trkpt lat="44.38325" lon="6.88049">
        <ele>2341.3999023438</ele>
        <time>2022-03-09T11:30:07.000Z</time>
      </trkpt>
      <trkpt lat="44.38324" lon="6.88049">
        <ele>2342.8000488281</ele>
        <time>2022-03-09T11:30:57.000Z</time>
      </trkpt>
      <trkpt lat="44.38321" lon="6.88052">
        <ele>2343.8000488281</ele>
        <time>2022-03-09T11:31:04.000Z</time>
      </trkpt>
      <trkpt lat="44.38315" lon="6.88059">
        <ele>2344.8000488281</ele>
        <time>2022-03-09T11:31:19.000Z</time>
      </trkpt>
      <trkpt lat="44.38314" lon="6.88062">
        <ele>2346</ele>
        <time>2022-03-09T11:31:28.000Z</time>
      </trkpt>
      <trkpt lat="44.38314" lon="6.88062">
        <ele>2346.1999511719</ele>
        <time>2022-03-09T11:31:30.000Z</time>
      </trkpt>
      <trkpt lat="44.38312" lon="6.88067">
        <ele>2347.1999511719</ele>
        <time>2022-03-09T11:31:38.000Z</time>
      </trkpt>
      <trkpt lat="44.38308" lon="6.88074">
        <ele>2348.1999511719</ele>
        <time>2022-03-09T11:31:50.000Z</time>
      </trkpt>
      <trkpt lat="44.38309" lon="6.88086">
        <ele>2348.6000976562</ele>
        <time>2022-03-09T11:31:58.000Z</time>
      </trkpt>
      <trkpt lat="44.38311" lon="6.88099">
        <ele>2349.1999511719</ele>
        <time>2022-03-09T11:32:05.000Z</time>
      </trkpt>
      <trkpt lat="44.38312" lon="6.881">
        <ele>2349.1999511719</ele>
        <time>2022-03-09T11:32:06.000Z</time>
      </trkpt>
      <trkpt lat="44.38313" lon="6.88104">
        <ele>2350.1999511719</ele>
        <time>2022-03-09T11:32:14.000Z</time>
      </trkpt>
      <trkpt lat="44.38313" lon="6.88105">
        <ele>2350.1999511719</ele>
        <time>2022-03-09T11:32:15.000Z</time>
      </trkpt>
      <trkpt lat="44.38313" lon="6.8811">
        <ele>2351.1999511719</ele>
        <time>2022-03-09T11:32:22.000Z</time>
      </trkpt>
      <trkpt lat="44.38312" lon="6.8811">
        <ele>2351.3999023438</ele>
        <time>2022-03-09T11:32:23.000Z</time>
      </trkpt>
      <trkpt lat="44.38307" lon="6.88111">
        <ele>2352.6000976562</ele>
        <time>2022-03-09T11:32:32.000Z</time>
      </trkpt>
      <trkpt lat="44.38307" lon="6.88111">
        <ele>2352.8000488281</ele>
        <time>2022-03-09T11:32:33.000Z</time>
      </trkpt>
      <trkpt lat="44.38304" lon="6.88111">
        <ele>2353.6000976562</ele>
        <time>2022-03-09T11:32:40.000Z</time>
      </trkpt>
      <trkpt lat="44.38302" lon="6.88111">
        <ele>2354.3999023438</ele>
        <time>2022-03-09T11:32:43.000Z</time>
      </trkpt>
      <trkpt lat="44.38301" lon="6.88111">
        <ele>2354.8000488281</ele>
        <time>2022-03-09T11:32:46.000Z</time>
      </trkpt>
      <trkpt lat="44.38299" lon="6.88112">
        <ele>2355.6000976562</ele>
        <time>2022-03-09T11:32:52.000Z</time>
      </trkpt>
      <trkpt lat="44.38299" lon="6.88113">
        <ele>2355.8000488281</ele>
        <time>2022-03-09T11:32:53.000Z</time>
      </trkpt>
      <trkpt lat="44.38298" lon="6.88117">
        <ele>2357</ele>
        <time>2022-03-09T11:32:59.000Z</time>
      </trkpt>
      <trkpt lat="44.38299" lon="6.88125">
        <ele>2358</ele>
        <time>2022-03-09T11:33:09.000Z</time>
      </trkpt>
      <trkpt lat="44.38298" lon="6.88129">
        <ele>2359</ele>
        <time>2022-03-09T11:33:15.000Z</time>
      </trkpt>
      <trkpt lat="44.38295" lon="6.88134">
        <ele>2360</ele>
        <time>2022-03-09T11:33:22.000Z</time>
      </trkpt>
      <trkpt lat="44.38295" lon="6.88135">
        <ele>2360.1999511719</ele>
        <time>2022-03-09T11:33:23.000Z</time>
      </trkpt>
      <trkpt lat="44.3829" lon="6.88137">
        <ele>2361.3999023438</ele>
        <time>2022-03-09T11:33:31.000Z</time>
      </trkpt>
      <trkpt lat="44.38288" lon="6.88139">
        <ele>2361.6000976562</ele>
        <time>2022-03-09T11:33:35.000Z</time>
      </trkpt>
      <trkpt lat="44.38285" lon="6.88142">
        <ele>2362.3999023438</ele>
        <time>2022-03-09T11:33:41.000Z</time>
      </trkpt>
      <trkpt lat="44.38285" lon="6.88143">
        <ele>2362.6000976562</ele>
        <time>2022-03-09T11:33:42.000Z</time>
      </trkpt>
      <trkpt lat="44.38284" lon="6.88146">
        <ele>2363.3999023438</ele>
        <time>2022-03-09T11:33:47.000Z</time>
      </trkpt>
      <trkpt lat="44.38282" lon="6.8815">
        <ele>2364</ele>
        <time>2022-03-09T11:33:52.000Z</time>
      </trkpt>
      <trkpt lat="44.3828" lon="6.88153">
        <ele>2364.6000976562</ele>
        <time>2022-03-09T11:33:55.000Z</time>
      </trkpt>
      <trkpt lat="44.38279" lon="6.88158">
        <ele>2365.1999511719</ele>
        <time>2022-03-09T11:34:01.000Z</time>
      </trkpt>
      <trkpt lat="44.38278" lon="6.8816">
        <ele>2365.6000976562</ele>
        <time>2022-03-09T11:34:03.000Z</time>
      </trkpt>
      <trkpt lat="44.38275" lon="6.88168">
        <ele>2366.8000488281</ele>
        <time>2022-03-09T11:34:12.000Z</time>
      </trkpt>
      <trkpt lat="44.38275" lon="6.8817">
        <ele>2367.1999511719</ele>
        <time>2022-03-09T11:34:14.000Z</time>
      </trkpt>
      <trkpt lat="44.38273" lon="6.88175">
        <ele>2367.8000488281</ele>
        <time>2022-03-09T11:34:20.000Z</time>
      </trkpt>
      <trkpt lat="44.38271" lon="6.88181">
        <ele>2368.3999023438</ele>
        <time>2022-03-09T11:34:28.000Z</time>
      </trkpt>
      <trkpt lat="44.38271" lon="6.88184">
        <ele>2369</ele>
        <time>2022-03-09T11:34:31.000Z</time>
      </trkpt>
      <trkpt lat="44.38269" lon="6.88189">
        <ele>2369.6000976562</ele>
        <time>2022-03-09T11:34:37.000Z</time>
      </trkpt>
      <trkpt lat="44.38269" lon="6.88192">
        <ele>2370</ele>
        <time>2022-03-09T11:34:40.000Z</time>
      </trkpt>
      <trkpt lat="44.38266" lon="6.88196">
        <ele>2370.8000488281</ele>
        <time>2022-03-09T11:34:47.000Z</time>
      </trkpt>
      <trkpt lat="44.38266" lon="6.88197">
        <ele>2371</ele>
        <time>2022-03-09T11:34:48.000Z</time>
      </trkpt>
      <trkpt lat="44.38263" lon="6.88203">
        <ele>2372</ele>
        <time>2022-03-09T11:34:56.000Z</time>
      </trkpt>
      <trkpt lat="44.38261" lon="6.88205">
        <ele>2372.6000976562</ele>
        <time>2022-03-09T11:35:00.000Z</time>
      </trkpt>
      <trkpt lat="44.38259" lon="6.88209">
        <ele>2373.1999511719</ele>
        <time>2022-03-09T11:35:06.000Z</time>
      </trkpt>
      <trkpt lat="44.38257" lon="6.88213">
        <ele>2373.8000488281</ele>
        <time>2022-03-09T11:35:12.000Z</time>
      </trkpt>
      <trkpt lat="44.38255" lon="6.88217">
        <ele>2374.3999023438</ele>
        <time>2022-03-09T11:35:17.000Z</time>
      </trkpt>
      <trkpt lat="44.38253" lon="6.88221">
        <ele>2375.1999511719</ele>
        <time>2022-03-09T11:35:23.000Z</time>
      </trkpt>
      <trkpt lat="44.3825" lon="6.88224">
        <ele>2375.3999023438</ele>
        <time>2022-03-09T11:35:27.000Z</time>
      </trkpt>
      <trkpt lat="44.38247" lon="6.88229">
        <ele>2376.1999511719</ele>
        <time>2022-03-09T11:35:34.000Z</time>
      </trkpt>
      <trkpt lat="44.38246" lon="6.8823">
        <ele>2376.3999023438</ele>
        <time>2022-03-09T11:35:36.000Z</time>
      </trkpt>
      <trkpt lat="44.38243" lon="6.88233">
        <ele>2377.3999023438</ele>
        <time>2022-03-09T11:35:41.000Z</time>
      </trkpt>
      <trkpt lat="44.38243" lon="6.88234">
        <ele>2377.8000488281</ele>
        <time>2022-03-09T11:35:43.000Z</time>
      </trkpt>
      <trkpt lat="44.3824" lon="6.88236">
        <ele>2378.6000976562</ele>
        <time>2022-03-09T11:35:49.000Z</time>
      </trkpt>
      <trkpt lat="44.38239" lon="6.88238">
        <ele>2379</ele>
        <time>2022-03-09T11:35:53.000Z</time>
      </trkpt>
      <trkpt lat="44.38238" lon="6.88239">
        <ele>2379.3999023438</ele>
        <time>2022-03-09T11:35:56.000Z</time>
      </trkpt>
      <trkpt lat="44.38238" lon="6.88239">
        <ele>2379.6000976562</ele>
        <time>2022-03-09T11:35:57.000Z</time>
      </trkpt>
      <trkpt lat="44.38235" lon="6.88243">
        <ele>2380.8000488281</ele>
        <time>2022-03-09T11:36:04.000Z</time>
      </trkpt>
      <trkpt lat="44.38235" lon="6.88243">
        <ele>2381</ele>
        <time>2022-03-09T11:36:05.000Z</time>
      </trkpt>
      <trkpt lat="44.38232" lon="6.88246">
        <ele>2381.8000488281</ele>
        <time>2022-03-09T11:36:12.000Z</time>
      </trkpt>
      <trkpt lat="44.3823" lon="6.88248">
        <ele>2382.6000976562</ele>
        <time>2022-03-09T11:36:17.000Z</time>
      </trkpt>
      <trkpt lat="44.3823" lon="6.8825">
        <ele>2383</ele>
        <time>2022-03-09T11:36:20.000Z</time>
      </trkpt>
      <trkpt lat="44.38229" lon="6.88251">
        <ele>2383.6000976562</ele>
        <time>2022-03-09T11:36:23.000Z</time>
      </trkpt>
      <trkpt lat="44.38228" lon="6.88253">
        <ele>2384</ele>
        <time>2022-03-09T11:36:27.000Z</time>
      </trkpt>
      <trkpt lat="44.38227" lon="6.88256">
        <ele>2385.1999511719</ele>
        <time>2022-03-09T11:36:33.000Z</time>
      </trkpt>
      <trkpt lat="44.38224" lon="6.8826">
        <ele>2386.1999511719</ele>
        <time>2022-03-09T11:36:41.000Z</time>
      </trkpt>
      <trkpt lat="44.38223" lon="6.88262">
        <ele>2386.8000488281</ele>
        <time>2022-03-09T11:36:45.000Z</time>
      </trkpt>
      <trkpt lat="44.38223" lon="6.88265">
        <ele>2387.3999023438</ele>
        <time>2022-03-09T11:36:49.000Z</time>
      </trkpt>
      <trkpt lat="44.38222" lon="6.88268">
        <ele>2388</ele>
        <time>2022-03-09T11:36:53.000Z</time>
      </trkpt>
      <trkpt lat="44.38222" lon="6.88269">
        <ele>2388.3999023438</ele>
        <time>2022-03-09T11:36:55.000Z</time>
      </trkpt>
      <trkpt lat="44.38222" lon="6.88276">
        <ele>2389.6000976562</ele>
        <time>2022-03-09T11:37:04.000Z</time>
      </trkpt>
      <trkpt lat="44.38221" lon="6.88277">
        <ele>2389.6000976562</ele>
        <time>2022-03-09T11:37:05.000Z</time>
      </trkpt>
      <trkpt lat="44.3822" lon="6.88281">
        <ele>2390.6000976562</ele>
        <time>2022-03-09T11:37:10.000Z</time>
      </trkpt>
      <trkpt lat="44.38219" lon="6.88285">
        <ele>2390.8000488281</ele>
        <time>2022-03-09T11:37:15.000Z</time>
      </trkpt>
      <trkpt lat="44.38218" lon="6.88289">
        <ele>2391.6000976562</ele>
        <time>2022-03-09T11:37:21.000Z</time>
      </trkpt>
      <trkpt lat="44.38217" lon="6.88293">
        <ele>2392.3999023438</ele>
        <time>2022-03-09T11:37:27.000Z</time>
      </trkpt>
      <trkpt lat="44.38216" lon="6.88295">
        <ele>2392.8000488281</ele>
        <time>2022-03-09T11:37:29.000Z</time>
      </trkpt>
      <trkpt lat="44.38215" lon="6.88296">
        <ele>2393</ele>
        <time>2022-03-09T11:37:31.000Z</time>
      </trkpt>
      <trkpt lat="44.38214" lon="6.88296">
        <ele>2393.8000488281</ele>
        <time>2022-03-09T11:37:36.000Z</time>
      </trkpt>
      <trkpt lat="44.38211" lon="6.88295">
        <ele>2394.8000488281</ele>
        <time>2022-03-09T11:37:44.000Z</time>
      </trkpt>
      <trkpt lat="44.38208" lon="6.88294">
        <ele>2395.6000976562</ele>
        <time>2022-03-09T11:37:50.000Z</time>
      </trkpt>
      <trkpt lat="44.38206" lon="6.88294">
        <ele>2396</ele>
        <time>2022-03-09T11:37:53.000Z</time>
      </trkpt>
      <trkpt lat="44.38203" lon="6.88292">
        <ele>2396.6000976562</ele>
        <time>2022-03-09T11:37:59.000Z</time>
      </trkpt>
      <trkpt lat="44.38201" lon="6.8829">
        <ele>2397</ele>
        <time>2022-03-09T11:38:03.000Z</time>
      </trkpt>
      <trkpt lat="44.382" lon="6.88288">
        <ele>2397.3999023438</ele>
        <time>2022-03-09T11:38:06.000Z</time>
      </trkpt>
      <trkpt lat="44.38198" lon="6.88287">
        <ele>2398</ele>
        <time>2022-03-09T11:38:10.000Z</time>
      </trkpt>
      <trkpt lat="44.38196" lon="6.88285">
        <ele>2398.8000488281</ele>
        <time>2022-03-09T11:38:16.000Z</time>
      </trkpt>
      <trkpt lat="44.38195" lon="6.88284">
        <ele>2399.1999511719</ele>
        <time>2022-03-09T11:38:19.000Z</time>
      </trkpt>
      <trkpt lat="44.38192" lon="6.8828">
        <ele>2400.1999511719</ele>
        <time>2022-03-09T11:38:28.000Z</time>
      </trkpt>
      <trkpt lat="44.38192" lon="6.88279">
        <ele>2400.3999023438</ele>
        <time>2022-03-09T11:38:30.000Z</time>
      </trkpt>
      <trkpt lat="44.38192" lon="6.88279">
        <ele>2400.8000488281</ele>
        <time>2022-03-09T11:38:33.000Z</time>
      </trkpt>
      <trkpt lat="44.38192" lon="6.88279">
        <ele>2401.1999511719</ele>
        <time>2022-03-09T11:38:36.000Z</time>
      </trkpt>
      <trkpt lat="44.38192" lon="6.88279">
        <ele>2401.3999023438</ele>
        <time>2022-03-09T11:38:38.000Z</time>
      </trkpt>
      <trkpt lat="44.38189" lon="6.88283">
        <ele>2402.1999511719</ele>
        <time>2022-03-09T11:38:46.000Z</time>
      </trkpt>
      <trkpt lat="44.38189" lon="6.88283">
        <ele>2402.3999023438</ele>
        <time>2022-03-09T11:38:47.000Z</time>
      </trkpt>
      <trkpt lat="44.38186" lon="6.88287">
        <ele>2403.3999023438</ele>
        <time>2022-03-09T11:38:55.000Z</time>
      </trkpt>
      <trkpt lat="44.38185" lon="6.88289">
        <ele>2403.8000488281</ele>
        <time>2022-03-09T11:38:57.000Z</time>
      </trkpt>
      <trkpt lat="44.38185" lon="6.88293">
        <ele>2404.6000976562</ele>
        <time>2022-03-09T11:39:04.000Z</time>
      </trkpt>
      <trkpt lat="44.38184" lon="6.88295">
        <ele>2405</ele>
        <time>2022-03-09T11:39:07.000Z</time>
      </trkpt>
      <trkpt lat="44.38183" lon="6.88299">
        <ele>2405.6000976562</ele>
        <time>2022-03-09T11:39:14.000Z</time>
      </trkpt>
      <trkpt lat="44.38183" lon="6.883">
        <ele>2405.8000488281</ele>
        <time>2022-03-09T11:39:15.000Z</time>
      </trkpt>
      <trkpt lat="44.38181" lon="6.88303">
        <ele>2406.8000488281</ele>
        <time>2022-03-09T11:39:21.000Z</time>
      </trkpt>
      <trkpt lat="44.38181" lon="6.88304">
        <ele>2407.1999511719</ele>
        <time>2022-03-09T11:39:23.000Z</time>
      </trkpt>
      <trkpt lat="44.3818" lon="6.88309">
        <ele>2407.8000488281</ele>
        <time>2022-03-09T11:39:30.000Z</time>
      </trkpt>
      <trkpt lat="44.3818" lon="6.88313">
        <ele>2408.6000976562</ele>
        <time>2022-03-09T11:39:36.000Z</time>
      </trkpt>
      <trkpt lat="44.3818" lon="6.88315">
        <ele>2408.8000488281</ele>
        <time>2022-03-09T11:39:39.000Z</time>
      </trkpt>
      <trkpt lat="44.38181" lon="6.88318">
        <ele>2409.6000976562</ele>
        <time>2022-03-09T11:39:44.000Z</time>
      </trkpt>
      <trkpt lat="44.3818" lon="6.88318">
        <ele>2410</ele>
        <time>2022-03-09T11:39:46.000Z</time>
      </trkpt>
      <trkpt lat="44.38179" lon="6.88318">
        <ele>2410.1999511719</ele>
        <time>2022-03-09T11:39:49.000Z</time>
      </trkpt>
      <trkpt lat="44.38175" lon="6.88314">
        <ele>2411</ele>
        <time>2022-03-09T11:39:57.000Z</time>
      </trkpt>
      <trkpt lat="44.38174" lon="6.88312">
        <ele>2412</ele>
        <time>2022-03-09T11:40:02.000Z</time>
      </trkpt>
      <trkpt lat="44.38174" lon="6.88312">
        <ele>2412</ele>
        <time>2022-03-09T11:40:03.000Z</time>
      </trkpt>
      <trkpt lat="44.38171" lon="6.88308">
        <ele>2413</ele>
        <time>2022-03-09T11:40:12.000Z</time>
      </trkpt>
      <trkpt lat="44.38171" lon="6.88307">
        <ele>2413.1999511719</ele>
        <time>2022-03-09T11:40:14.000Z</time>
      </trkpt>
      <trkpt lat="44.3817" lon="6.88302">
        <ele>2414</ele>
        <time>2022-03-09T11:40:21.000Z</time>
      </trkpt>
      <trkpt lat="44.3817" lon="6.88301">
        <ele>2414</ele>
        <time>2022-03-09T11:40:22.000Z</time>
      </trkpt>
      <trkpt lat="44.38169" lon="6.883">
        <ele>2414.3999023438</ele>
        <time>2022-03-09T11:40:25.000Z</time>
      </trkpt>
      <trkpt lat="44.38168" lon="6.88299">
        <ele>2414.6000976562</ele>
        <time>2022-03-09T11:40:27.000Z</time>
      </trkpt>
      <trkpt lat="44.38167" lon="6.88295">
        <ele>2415.3999023438</ele>
        <time>2022-03-09T11:40:33.000Z</time>
      </trkpt>
      <trkpt lat="44.38166" lon="6.88293">
        <ele>2415.8000488281</ele>
        <time>2022-03-09T11:40:36.000Z</time>
      </trkpt>
      <trkpt lat="44.38166" lon="6.88293">
        <ele>2416.1999511719</ele>
        <time>2022-03-09T11:40:43.000Z</time>
      </trkpt>
      <trkpt lat="44.38166" lon="6.88294">
        <ele>2416.3999023438</ele>
        <time>2022-03-09T11:40:46.000Z</time>
      </trkpt>
      <trkpt lat="44.38165" lon="6.88295">
        <ele>2416.6000976562</ele>
        <time>2022-03-09T11:40:48.000Z</time>
      </trkpt>
      <trkpt lat="44.38165" lon="6.88296">
        <ele>2416.8000488281</ele>
        <time>2022-03-09T11:40:49.000Z</time>
      </trkpt>
      <trkpt lat="44.38164" lon="6.88299">
        <ele>2417.6000976562</ele>
        <time>2022-03-09T11:40:53.000Z</time>
      </trkpt>
      <trkpt lat="44.38164" lon="6.883">
        <ele>2417.8000488281</ele>
        <time>2022-03-09T11:40:55.000Z</time>
      </trkpt>
      <trkpt lat="44.38161" lon="6.88306">
        <ele>2418.6000976562</ele>
        <time>2022-03-09T11:41:04.000Z</time>
      </trkpt>
      <trkpt lat="44.38161" lon="6.88308">
        <ele>2418.8000488281</ele>
        <time>2022-03-09T11:41:06.000Z</time>
      </trkpt>
      <trkpt lat="44.38159" lon="6.88311">
        <ele>2419.6000976562</ele>
        <time>2022-03-09T11:41:12.000Z</time>
      </trkpt>
      <trkpt lat="44.38159" lon="6.88313">
        <ele>2419.6000976562</ele>
        <time>2022-03-09T11:41:14.000Z</time>
      </trkpt>
      <trkpt lat="44.38158" lon="6.88318">
        <ele>2420.6000976562</ele>
        <time>2022-03-09T11:41:21.000Z</time>
      </trkpt>
      <trkpt lat="44.38158" lon="6.88318">
        <ele>2420.8000488281</ele>
        <time>2022-03-09T11:41:22.000Z</time>
      </trkpt>
      <trkpt lat="44.38156" lon="6.88321">
        <ele>2421.3999023438</ele>
        <time>2022-03-09T11:41:27.000Z</time>
      </trkpt>
      <trkpt lat="44.38155" lon="6.88322">
        <ele>2421.8000488281</ele>
        <time>2022-03-09T11:41:29.000Z</time>
      </trkpt>
      <trkpt lat="44.38153" lon="6.88327">
        <ele>2422.6000976562</ele>
        <time>2022-03-09T11:41:37.000Z</time>
      </trkpt>
      <trkpt lat="44.38152" lon="6.88329">
        <ele>2423</ele>
        <time>2022-03-09T11:41:40.000Z</time>
      </trkpt>
      <trkpt lat="44.3815" lon="6.88335">
        <ele>2423.8000488281</ele>
        <time>2022-03-09T11:41:47.000Z</time>
      </trkpt>
      <trkpt lat="44.3815" lon="6.88336">
        <ele>2424.1999511719</ele>
        <time>2022-03-09T11:41:49.000Z</time>
      </trkpt>
      <trkpt lat="44.38149" lon="6.8834">
        <ele>2425.1999511719</ele>
        <time>2022-03-09T11:41:55.000Z</time>
      </trkpt>
      <trkpt lat="44.38149" lon="6.88343">
        <ele>2425.6000976562</ele>
        <time>2022-03-09T11:41:58.000Z</time>
      </trkpt>
      <trkpt lat="44.38147" lon="6.88348">
        <ele>2426.3999023438</ele>
        <time>2022-03-09T11:42:06.000Z</time>
      </trkpt>
      <trkpt lat="44.38144" lon="6.88357">
        <ele>2427.6000976562</ele>
        <time>2022-03-09T11:42:17.000Z</time>
      </trkpt>
      <trkpt lat="44.38144" lon="6.88358">
        <ele>2427.8000488281</ele>
        <time>2022-03-09T11:42:19.000Z</time>
      </trkpt>
      <trkpt lat="44.38143" lon="6.88361">
        <ele>2428.6000976562</ele>
        <time>2022-03-09T11:42:23.000Z</time>
      </trkpt>
      <trkpt lat="44.38142" lon="6.88365">
        <ele>2429</ele>
        <time>2022-03-09T11:42:28.000Z</time>
      </trkpt>
      <trkpt lat="44.3814" lon="6.8837">
        <ele>2429.6000976562</ele>
        <time>2022-03-09T11:42:34.000Z</time>
      </trkpt>
      <trkpt lat="44.38138" lon="6.88373">
        <ele>2430.1999511719</ele>
        <time>2022-03-09T11:42:37.000Z</time>
      </trkpt>
      <trkpt lat="44.38137" lon="6.88376">
        <ele>2430.8000488281</ele>
        <time>2022-03-09T11:42:41.000Z</time>
      </trkpt>
      <trkpt lat="44.38135" lon="6.8838">
        <ele>2431.3999023438</ele>
        <time>2022-03-09T11:42:46.000Z</time>
      </trkpt>
      <trkpt lat="44.38133" lon="6.88382">
        <ele>2432</ele>
        <time>2022-03-09T11:42:49.000Z</time>
      </trkpt>
      <trkpt lat="44.38131" lon="6.88386">
        <ele>2432.8000488281</ele>
        <time>2022-03-09T11:42:55.000Z</time>
      </trkpt>
      <trkpt lat="44.38131" lon="6.88387">
        <ele>2433</ele>
        <time>2022-03-09T11:42:56.000Z</time>
      </trkpt>
      <trkpt lat="44.38129" lon="6.88392">
        <ele>2434</ele>
        <time>2022-03-09T11:43:04.000Z</time>
      </trkpt>
      <trkpt lat="44.38129" lon="6.88393">
        <ele>2434</ele>
        <time>2022-03-09T11:43:05.000Z</time>
      </trkpt>
      <trkpt lat="44.38126" lon="6.88399">
        <ele>2435</ele>
        <time>2022-03-09T11:43:14.000Z</time>
      </trkpt>
      <trkpt lat="44.38123" lon="6.88403">
        <ele>2436</ele>
        <time>2022-03-09T11:43:21.000Z</time>
      </trkpt>
      <trkpt lat="44.38122" lon="6.88404">
        <ele>2436.1999511719</ele>
        <time>2022-03-09T11:43:22.000Z</time>
      </trkpt>
      <trkpt lat="44.3812" lon="6.88407">
        <ele>2437.1999511719</ele>
        <time>2022-03-09T11:43:29.000Z</time>
      </trkpt>
      <trkpt lat="44.38117" lon="6.8841">
        <ele>2437.6000976562</ele>
        <time>2022-03-09T11:43:37.000Z</time>
      </trkpt>
      <trkpt lat="44.38116" lon="6.88413">
        <ele>2438.1999511719</ele>
        <time>2022-03-09T11:43:41.000Z</time>
      </trkpt>
      <trkpt lat="44.38114" lon="6.88415">
        <ele>2438.6000976562</ele>
        <time>2022-03-09T11:43:44.000Z</time>
      </trkpt>
      <trkpt lat="44.38112" lon="6.88418">
        <ele>2439.1999511719</ele>
        <time>2022-03-09T11:43:50.000Z</time>
      </trkpt>
      <trkpt lat="44.3811" lon="6.88419">
        <ele>2439.8000488281</ele>
        <time>2022-03-09T11:43:53.000Z</time>
      </trkpt>
      <trkpt lat="44.38108" lon="6.8842">
        <ele>2440.3999023438</ele>
        <time>2022-03-09T11:43:56.000Z</time>
      </trkpt>
      <trkpt lat="44.38104" lon="6.8842">
        <ele>2441.1999511719</ele>
        <time>2022-03-09T11:44:02.000Z</time>
      </trkpt>
      <trkpt lat="44.38103" lon="6.88421">
        <ele>2441.6000976562</ele>
        <time>2022-03-09T11:44:04.000Z</time>
      </trkpt>
      <trkpt lat="44.381" lon="6.88422">
        <ele>2442.6000976562</ele>
        <time>2022-03-09T11:44:10.000Z</time>
      </trkpt>
      <trkpt lat="44.38098" lon="6.88421">
        <ele>2443.1999511719</ele>
        <time>2022-03-09T11:44:13.000Z</time>
      </trkpt>
      <trkpt lat="44.38097" lon="6.88422">
        <ele>2443.1999511719</ele>
        <time>2022-03-09T11:44:14.000Z</time>
      </trkpt>
      <trkpt lat="44.38094" lon="6.88422">
        <ele>2443.8000488281</ele>
        <time>2022-03-09T11:44:19.000Z</time>
      </trkpt>
      <trkpt lat="44.38093" lon="6.88423">
        <ele>2444.1999511719</ele>
        <time>2022-03-09T11:44:22.000Z</time>
      </trkpt>
      <trkpt lat="44.38091" lon="6.88423">
        <ele>2444.8000488281</ele>
        <time>2022-03-09T11:44:26.000Z</time>
      </trkpt>
      <trkpt lat="44.38088" lon="6.88425">
        <ele>2445.8000488281</ele>
        <time>2022-03-09T11:44:32.000Z</time>
      </trkpt>
      <trkpt lat="44.38087" lon="6.88426">
        <ele>2446</ele>
        <time>2022-03-09T11:44:33.000Z</time>
      </trkpt>
      <trkpt lat="44.38084" lon="6.88429">
        <ele>2446.8000488281</ele>
        <time>2022-03-09T11:44:38.000Z</time>
      </trkpt>
      <trkpt lat="44.38084" lon="6.8843">
        <ele>2447.1999511719</ele>
        <time>2022-03-09T11:44:40.000Z</time>
      </trkpt>
      <trkpt lat="44.38082" lon="6.88434">
        <ele>2447.6000976562</ele>
        <time>2022-03-09T11:44:45.000Z</time>
      </trkpt>
      <trkpt lat="44.3808" lon="6.88438">
        <ele>2448.1999511719</ele>
        <time>2022-03-09T11:44:50.000Z</time>
      </trkpt>
      <trkpt lat="44.38077" lon="6.88443">
        <ele>2448.8000488281</ele>
        <time>2022-03-09T11:44:56.000Z</time>
      </trkpt>
      <trkpt lat="44.38073" lon="6.8845">
        <ele>2448.8000488281</ele>
        <time>2022-03-09T11:45:04.000Z</time>
      </trkpt>
      <trkpt lat="44.38071" lon="6.88455">
        <ele>2448.8000488281</ele>
        <time>2022-03-09T11:45:08.000Z</time>
      </trkpt>
      <trkpt lat="44.3807" lon="6.88459">
        <ele>2448.6000976562</ele>
        <time>2022-03-09T11:45:12.000Z</time>
      </trkpt>
      <trkpt lat="44.38067" lon="6.88469">
        <ele>2448.3999023438</ele>
        <time>2022-03-09T11:45:22.000Z</time>
      </trkpt>
      <trkpt lat="44.38065" lon="6.88478">
        <ele>2448.8000488281</ele>
        <time>2022-03-09T11:45:30.000Z</time>
      </trkpt>
      <trkpt lat="44.38062" lon="6.88481">
        <ele>2449.1999511719</ele>
        <time>2022-03-09T11:45:35.000Z</time>
      </trkpt>
      <trkpt lat="44.38061" lon="6.88484">
        <ele>2449.3999023438</ele>
        <time>2022-03-09T11:45:38.000Z</time>
      </trkpt>
      <trkpt lat="44.38057" lon="6.88491">
        <ele>2449.6000976562</ele>
        <time>2022-03-09T11:45:46.000Z</time>
      </trkpt>
      <trkpt lat="44.38053" lon="6.88497">
        <ele>2449.8000488281</ele>
        <time>2022-03-09T11:45:53.000Z</time>
      </trkpt>
      <trkpt lat="44.38051" lon="6.88505">
        <ele>2450</ele>
        <time>2022-03-09T11:46:00.000Z</time>
      </trkpt>
      <trkpt lat="44.38051" lon="6.88506">
        <ele>2450</ele>
        <time>2022-03-09T11:46:05.000Z</time>
      </trkpt>
      <trkpt lat="44.38049" lon="6.88512">
        <ele>2450.1999511719</ele>
        <time>2022-03-09T11:46:12.000Z</time>
      </trkpt>
      <trkpt lat="44.38048" lon="6.88515">
        <ele>2450.1999511719</ele>
        <time>2022-03-09T11:46:15.000Z</time>
      </trkpt>
      <trkpt lat="44.38046" lon="6.8852">
        <ele>2450.6000976562</ele>
        <time>2022-03-09T11:46:21.000Z</time>
      </trkpt>
      <trkpt lat="44.38044" lon="6.88524">
        <ele>2451.3999023438</ele>
        <time>2022-03-09T11:46:26.000Z</time>
      </trkpt>
      <trkpt lat="44.38042" lon="6.88525">
        <ele>2451.3999023438</ele>
        <time>2022-03-09T11:46:28.000Z</time>
      </trkpt>
      <trkpt lat="44.38038" lon="6.88529">
        <ele>2452</ele>
        <time>2022-03-09T11:46:37.000Z</time>
      </trkpt>
      <trkpt lat="44.38035" lon="6.8853">
        <ele>2452.3999023438</ele>
        <time>2022-03-09T11:46:42.000Z</time>
      </trkpt>
      <trkpt lat="44.38033" lon="6.88529">
        <ele>2452.6000976562</ele>
        <time>2022-03-09T11:46:45.000Z</time>
      </trkpt>
      <trkpt lat="44.38031" lon="6.88528">
        <ele>2453.3999023438</ele>
        <time>2022-03-09T11:46:49.000Z</time>
      </trkpt>
      <trkpt lat="44.3803" lon="6.88526">
        <ele>2454.3999023438</ele>
        <time>2022-03-09T11:46:55.000Z</time>
      </trkpt>
      <trkpt lat="44.38029" lon="6.88526">
        <ele>2454.6000976562</ele>
        <time>2022-03-09T11:46:57.000Z</time>
      </trkpt>
      <trkpt lat="44.38025" lon="6.88525">
        <ele>2455</ele>
        <time>2022-03-09T11:47:06.000Z</time>
      </trkpt>
      <trkpt lat="44.38023" lon="6.88527">
        <ele>2455</ele>
        <time>2022-03-09T11:47:10.000Z</time>
      </trkpt>
      <trkpt lat="44.3802" lon="6.88527">
        <ele>2455.3999023438</ele>
        <time>2022-03-09T11:47:17.000Z</time>
      </trkpt>
      <trkpt lat="44.38019" lon="6.88527">
        <ele>2455.6000976562</ele>
        <time>2022-03-09T11:47:24.000Z</time>
      </trkpt>
      <trkpt lat="44.38019" lon="6.88526">
        <ele>2455.8000488281</ele>
        <time>2022-03-09T11:47:25.000Z</time>
      </trkpt>
      <trkpt lat="44.38019" lon="6.88526">
        <ele>2456</ele>
        <time>2022-03-09T11:47:32.000Z</time>
      </trkpt>
      <trkpt lat="44.38019" lon="6.88527">
        <ele>2455.6000976562</ele>
        <time>2022-03-09T11:47:44.000Z</time>
      </trkpt>
      <trkpt lat="44.38019" lon="6.88527">
        <ele>2455.3999023438</ele>
        <time>2022-03-09T11:47:51.000Z</time>
      </trkpt>
      <trkpt lat="44.3802" lon="6.88528">
        <ele>2455.1999511719</ele>
        <time>2022-03-09T11:48:06.000Z</time>
      </trkpt>
      <trkpt lat="44.3802" lon="6.88528">
        <ele>2454.8000488281</ele>
        <time>2022-03-09T11:48:20.000Z</time>
      </trkpt>
      <trkpt lat="44.3802" lon="6.88528">
        <ele>2454.6000976562</ele>
        <time>2022-03-09T11:48:22.000Z</time>
      </trkpt>
      <trkpt lat="44.38019" lon="6.88529">
        <ele>2454.6000976562</ele>
        <time>2022-03-09T11:48:32.000Z</time>
      </trkpt>
      <trkpt lat="44.38017" lon="6.88531">
        <ele>2454.3999023438</ele>
        <time>2022-03-09T11:48:54.000Z</time>
      </trkpt>
      <trkpt lat="44.38017" lon="6.8853">
        <ele>2454.1999511719</ele>
        <time>2022-03-09T11:49:12.000Z</time>
      </trkpt>
      <trkpt lat="44.38018" lon="6.88529">
        <ele>2453.6000976562</ele>
        <time>2022-03-09T11:49:30.000Z</time>
      </trkpt>
      <trkpt lat="44.38018" lon="6.88529">
        <ele>2453.3999023438</ele>
        <time>2022-03-09T11:49:35.000Z</time>
      </trkpt>
      <trkpt lat="44.38024" lon="6.8853">
        <ele>2452.6000976562</ele>
        <time>2022-03-09T11:49:42.000Z</time>
      </trkpt>
      <trkpt lat="44.38027" lon="6.88531">
        <ele>2453</ele>
        <time>2022-03-09T11:49:47.000Z</time>
      </trkpt>
      <trkpt lat="44.38021" lon="6.88527">
        <ele>2453</ele>
        <time>2022-03-09T11:49:53.000Z</time>
      </trkpt>
      <trkpt lat="44.38021" lon="6.88528">
        <ele>2452.8000488281</ele>
        <time>2022-03-09T11:50:05.000Z</time>
      </trkpt>
      <trkpt lat="44.38022" lon="6.88528">
        <ele>2452.6000976562</ele>
        <time>2022-03-09T11:50:18.000Z</time>
      </trkpt>
      <trkpt lat="44.38023" lon="6.88529">
        <ele>2452.3999023438</ele>
        <time>2022-03-09T11:50:27.000Z</time>
      </trkpt>
      <trkpt lat="44.38024" lon="6.88529">
        <ele>2452.3999023438</ele>
        <time>2022-03-09T11:50:50.000Z</time>
      </trkpt>
      <trkpt lat="44.38024" lon="6.8853">
        <ele>2452.1999511719</ele>
        <time>2022-03-09T11:51:03.000Z</time>
      </trkpt>
      <trkpt lat="44.38024" lon="6.88532">
        <ele>2451.8000488281</ele>
        <time>2022-03-09T11:51:22.000Z</time>
      </trkpt>
      <trkpt lat="44.38025" lon="6.8853">
        <ele>2452</ele>
        <time>2022-03-09T11:52:02.000Z</time>
      </trkpt>
      <trkpt lat="44.38025" lon="6.8853">
        <ele>2451.6000976562</ele>
        <time>2022-03-09T11:52:50.000Z</time>
      </trkpt>
      <trkpt lat="44.38025" lon="6.88531">
        <ele>2451.3999023438</ele>
        <time>2022-03-09T11:52:54.000Z</time>
      </trkpt>
      <trkpt lat="44.38025" lon="6.88531">
        <ele>2451.1999511719</ele>
        <time>2022-03-09T11:53:22.000Z</time>
      </trkpt>
      <trkpt lat="44.38026" lon="6.88529">
        <ele>2451.1999511719</ele>
        <time>2022-03-09T11:53:40.000Z</time>
      </trkpt>
      <trkpt lat="44.38031" lon="6.88525">
        <ele>2451</ele>
        <time>2022-03-09T11:53:47.000Z</time>
      </trkpt>
      <trkpt lat="44.38032" lon="6.88527">
        <ele>2451</ele>
        <time>2022-03-09T11:53:49.000Z</time>
      </trkpt>
      <trkpt lat="44.38036" lon="6.88529">
        <ele>2450.3999023438</ele>
        <time>2022-03-09T11:53:51.000Z</time>
      </trkpt>
      <trkpt lat="44.38038" lon="6.88529">
        <ele>2450</ele>
        <time>2022-03-09T11:53:52.000Z</time>
      </trkpt>
      <trkpt lat="44.38041" lon="6.88528">
        <ele>2449.3999023438</ele>
        <time>2022-03-09T11:53:53.000Z</time>
      </trkpt>
      <trkpt lat="44.38044" lon="6.88524">
        <ele>2448.1999511719</ele>
        <time>2022-03-09T11:53:57.000Z</time>
      </trkpt>
      <trkpt lat="44.38051" lon="6.88511">
        <ele>2447.1999511719</ele>
        <time>2022-03-09T11:54:05.000Z</time>
      </trkpt>
      <trkpt lat="44.38051" lon="6.88508">
        <ele>2447.1999511719</ele>
        <time>2022-03-09T11:54:07.000Z</time>
      </trkpt>
      <trkpt lat="44.38053" lon="6.88497">
        <ele>2446.8000488281</ele>
        <time>2022-03-09T11:54:13.000Z</time>
      </trkpt>
      <trkpt lat="44.38056" lon="6.88489">
        <ele>2446.6000976562</ele>
        <time>2022-03-09T11:54:18.000Z</time>
      </trkpt>
      <trkpt lat="44.3806" lon="6.88481">
        <ele>2446.3999023438</ele>
        <time>2022-03-09T11:54:24.000Z</time>
      </trkpt>
      <trkpt lat="44.38064" lon="6.88475">
        <ele>2446.1999511719</ele>
        <time>2022-03-09T11:54:28.000Z</time>
      </trkpt>
      <trkpt lat="44.38065" lon="6.88474">
        <ele>2446.1999511719</ele>
        <time>2022-03-09T11:54:29.000Z</time>
      </trkpt>
      <trkpt lat="44.38069" lon="6.88459">
        <ele>2445.8000488281</ele>
        <time>2022-03-09T11:54:37.000Z</time>
      </trkpt>
      <trkpt lat="44.38072" lon="6.88452">
        <ele>2446</ele>
        <time>2022-03-09T11:54:42.000Z</time>
      </trkpt>
      <trkpt lat="44.38077" lon="6.88443">
        <ele>2446.1999511719</ele>
        <time>2022-03-09T11:54:49.000Z</time>
      </trkpt>
      <trkpt lat="44.38079" lon="6.88441">
        <ele>2446.3999023438</ele>
        <time>2022-03-09T11:54:53.000Z</time>
      </trkpt>
      <trkpt lat="44.3808" lon="6.88441">
        <ele>2446.3999023438</ele>
        <time>2022-03-09T11:55:16.000Z</time>
      </trkpt>
      <trkpt lat="44.3808" lon="6.88442">
        <ele>2446.6000976562</ele>
        <time>2022-03-09T11:56:59.000Z</time>
      </trkpt>
      <trkpt lat="44.38079" lon="6.88441">
        <ele>2446.3999023438</ele>
        <time>2022-03-09T11:59:14.000Z</time>
      </trkpt>
      <trkpt lat="44.38079" lon="6.88441">
        <ele>2447.1999511719</ele>
        <time>2022-03-09T11:59:32.000Z</time>
      </trkpt>
      <trkpt lat="44.38079" lon="6.88441">
        <ele>2447.1999511719</ele>
        <time>2022-03-09T12:00:00.000Z</time>
      </trkpt>
      <trkpt lat="44.38079" lon="6.88441">
        <ele>2447</ele>
        <time>2022-03-09T12:00:19.000Z</time>
      </trkpt>
      <trkpt lat="44.38079" lon="6.88441">
        <ele>2447</ele>
        <time>2022-03-09T12:00:48.000Z</time>
      </trkpt>
      <trkpt lat="44.38079" lon="6.88441">
        <ele>2446.6000976562</ele>
        <time>2022-03-09T12:02:12.000Z</time>
      </trkpt>
      <trkpt lat="44.38079" lon="6.88441">
        <ele>2446.1999511719</ele>
        <time>2022-03-09T12:02:41.000Z</time>
      </trkpt>
      <trkpt lat="44.38079" lon="6.88441">
        <ele>2446</ele>
        <time>2022-03-09T12:02:43.000Z</time>
      </trkpt>
      <trkpt lat="44.38079" lon="6.88442">
        <ele>2445.8000488281</ele>
        <time>2022-03-09T12:03:00.000Z</time>
      </trkpt>
      <trkpt lat="44.38079" lon="6.88442">
        <ele>2445.6000976562</ele>
        <time>2022-03-09T12:03:47.000Z</time>
      </trkpt>
      <trkpt lat="44.38079" lon="6.88442">
        <ele>2445.3999023438</ele>
        <time>2022-03-09T12:04:10.000Z</time>
      </trkpt>
      <trkpt lat="44.38079" lon="6.88442">
        <ele>2445.1999511719</ele>
        <time>2022-03-09T12:04:15.000Z</time>
      </trkpt>
      <trkpt lat="44.38082" lon="6.88433">
        <ele>2444.1999511719</ele>
        <time>2022-03-09T12:04:35.000Z</time>
      </trkpt>
      <trkpt lat="44.38084" lon="6.88429">
        <ele>2444</ele>
        <time>2022-03-09T12:04:36.000Z</time>
      </trkpt>
      <trkpt lat="44.38091" lon="6.88421">
        <ele>2443</ele>
        <time>2022-03-09T12:04:38.000Z</time>
      </trkpt>
      <trkpt lat="44.38094" lon="6.88417">
        <ele>2442.8000488281</ele>
        <time>2022-03-09T12:04:39.000Z</time>
      </trkpt>
      <trkpt lat="44.381" lon="6.88414">
        <ele>2441.8000488281</ele>
        <time>2022-03-09T12:04:41.000Z</time>
      </trkpt>
      <trkpt lat="44.38102" lon="6.88417">
        <ele>2440.8000488281</ele>
        <time>2022-03-09T12:04:42.000Z</time>
      </trkpt>
      <trkpt lat="44.38104" lon="6.88419">
        <ele>2440</ele>
        <time>2022-03-09T12:04:43.000Z</time>
      </trkpt>
      <trkpt lat="44.38107" lon="6.88419">
        <ele>2439.3999023438</ele>
        <time>2022-03-09T12:04:44.000Z</time>
      </trkpt>
      <trkpt lat="44.3811" lon="6.88418">
        <ele>2438.1999511719</ele>
        <time>2022-03-09T12:04:45.000Z</time>
      </trkpt>
      <trkpt lat="44.38114" lon="6.88417">
        <ele>2437.1999511719</ele>
        <time>2022-03-09T12:04:46.000Z</time>
      </trkpt>
      <trkpt lat="44.38118" lon="6.88414">
        <ele>2436.1999511719</ele>
        <time>2022-03-09T12:04:47.000Z</time>
      </trkpt>
      <trkpt lat="44.38123" lon="6.8841">
        <ele>2435.1999511719</ele>
        <time>2022-03-09T12:04:48.000Z</time>
      </trkpt>
      <trkpt lat="44.38126" lon="6.88405">
        <ele>2434.1999511719</ele>
        <time>2022-03-09T12:04:49.000Z</time>
      </trkpt>
      <trkpt lat="44.38129" lon="6.884">
        <ele>2433.1999511719</ele>
        <time>2022-03-09T12:04:50.000Z</time>
      </trkpt>
      <trkpt lat="44.38134" lon="6.88395">
        <ele>2432.3999023438</ele>
        <time>2022-03-09T12:04:51.000Z</time>
      </trkpt>
      <trkpt lat="44.38137" lon="6.8839">
        <ele>2431</ele>
        <time>2022-03-09T12:04:52.000Z</time>
      </trkpt>
      <trkpt lat="44.38139" lon="6.88384">
        <ele>2430</ele>
        <time>2022-03-09T12:04:53.000Z</time>
      </trkpt>
      <trkpt lat="44.38143" lon="6.88372">
        <ele>2429</ele>
        <time>2022-03-09T12:04:55.000Z</time>
      </trkpt>
      <trkpt lat="44.38144" lon="6.88368">
        <ele>2427.8000488281</ele>
        <time>2022-03-09T12:04:56.000Z</time>
      </trkpt>
      <trkpt lat="44.38145" lon="6.88365">
        <ele>2427.1999511719</ele>
        <time>2022-03-09T12:04:57.000Z</time>
      </trkpt>
      <trkpt lat="44.38145" lon="6.88364">
        <ele>2426.8000488281</ele>
        <time>2022-03-09T12:04:58.000Z</time>
      </trkpt>
      <trkpt lat="44.38146" lon="6.88361">
        <ele>2425.8000488281</ele>
        <time>2022-03-09T12:05:01.000Z</time>
      </trkpt>
      <trkpt lat="44.38146" lon="6.8836">
        <ele>2425.6000976562</ele>
        <time>2022-03-09T12:05:02.000Z</time>
      </trkpt>
      <trkpt lat="44.3815" lon="6.88342">
        <ele>2424.3999023438</ele>
        <time>2022-03-09T12:05:09.000Z</time>
      </trkpt>
      <trkpt lat="44.38152" lon="6.88333">
        <ele>2423.3999023438</ele>
        <time>2022-03-09T12:05:11.000Z</time>
      </trkpt>
      <trkpt lat="44.38153" lon="6.88329">
        <ele>2422.6000976562</ele>
        <time>2022-03-09T12:05:12.000Z</time>
      </trkpt>
      <trkpt lat="44.38153" lon="6.88326">
        <ele>2422</ele>
        <time>2022-03-09T12:05:13.000Z</time>
      </trkpt>
      <trkpt lat="44.38154" lon="6.88324">
        <ele>2421.6000976562</ele>
        <time>2022-03-09T12:05:14.000Z</time>
      </trkpt>
      <trkpt lat="44.38157" lon="6.88321">
        <ele>2420.6000976562</ele>
        <time>2022-03-09T12:05:18.000Z</time>
      </trkpt>
      <trkpt lat="44.38161" lon="6.88323">
        <ele>2419.3999023438</ele>
        <time>2022-03-09T12:05:22.000Z</time>
      </trkpt>
      <trkpt lat="44.38162" lon="6.88322">
        <ele>2419.1999511719</ele>
        <time>2022-03-09T12:05:23.000Z</time>
      </trkpt>
      <trkpt lat="44.38164" lon="6.88318">
        <ele>2417.8000488281</ele>
        <time>2022-03-09T12:05:25.000Z</time>
      </trkpt>
      <trkpt lat="44.38165" lon="6.88315">
        <ele>2417.1999511719</ele>
        <time>2022-03-09T12:05:26.000Z</time>
      </trkpt>
      <trkpt lat="44.38166" lon="6.88313">
        <ele>2416.8000488281</ele>
        <time>2022-03-09T12:05:27.000Z</time>
      </trkpt>
      <trkpt lat="44.38168" lon="6.88312">
        <ele>2416.1999511719</ele>
        <time>2022-03-09T12:05:28.000Z</time>
      </trkpt>
      <trkpt lat="44.38168" lon="6.88312">
        <ele>2415.6000976562</ele>
        <time>2022-03-09T12:05:29.000Z</time>
      </trkpt>
      <trkpt lat="44.38168" lon="6.88312">
        <ele>2415.3999023438</ele>
        <time>2022-03-09T12:05:30.000Z</time>
      </trkpt>
      <trkpt lat="44.38168" lon="6.88312">
        <ele>2415</ele>
        <time>2022-03-09T12:05:31.000Z</time>
      </trkpt>
      <trkpt lat="44.3817" lon="6.8831">
        <ele>2414.3999023438</ele>
        <time>2022-03-09T12:05:33.000Z</time>
      </trkpt>
      <trkpt lat="44.38171" lon="6.88308">
        <ele>2414</ele>
        <time>2022-03-09T12:05:34.000Z</time>
      </trkpt>
      <trkpt lat="44.38172" lon="6.88306">
        <ele>2413.3999023438</ele>
        <time>2022-03-09T12:05:35.000Z</time>
      </trkpt>
      <trkpt lat="44.38172" lon="6.88304">
        <ele>2412.8000488281</ele>
        <time>2022-03-09T12:05:36.000Z</time>
      </trkpt>
      <trkpt lat="44.38175" lon="6.88294">
        <ele>2411.1999511719</ele>
        <time>2022-03-09T12:05:39.000Z</time>
      </trkpt>
      <trkpt lat="44.38176" lon="6.8829">
        <ele>2409.8000488281</ele>
        <time>2022-03-09T12:05:41.000Z</time>
      </trkpt>
      <trkpt lat="44.38178" lon="6.88289">
        <ele>2409.3999023438</ele>
        <time>2022-03-09T12:05:42.000Z</time>
      </trkpt>
      <trkpt lat="44.38181" lon="6.88292">
        <ele>2408.3999023438</ele>
        <time>2022-03-09T12:05:44.000Z</time>
      </trkpt>
      <trkpt lat="44.38183" lon="6.88295">
        <ele>2407</ele>
        <time>2022-03-09T12:05:46.000Z</time>
      </trkpt>
      <trkpt lat="44.38184" lon="6.88296">
        <ele>2406.6000976562</ele>
        <time>2022-03-09T12:05:47.000Z</time>
      </trkpt>
      <trkpt lat="44.38187" lon="6.88293">
        <ele>2404.8000488281</ele>
        <time>2022-03-09T12:05:49.000Z</time>
      </trkpt>
      <trkpt lat="44.38189" lon="6.8829">
        <ele>2403.8000488281</ele>
        <time>2022-03-09T12:05:50.000Z</time>
      </trkpt>
      <trkpt lat="44.38191" lon="6.88285">
        <ele>2402.3999023438</ele>
        <time>2022-03-09T12:05:52.000Z</time>
      </trkpt>
      <trkpt lat="44.38192" lon="6.88283">
        <ele>2402</ele>
        <time>2022-03-09T12:05:53.000Z</time>
      </trkpt>
      <trkpt lat="44.38194" lon="6.88282">
        <ele>2401.8000488281</ele>
        <time>2022-03-09T12:05:54.000Z</time>
      </trkpt>
      <trkpt lat="44.38197" lon="6.88285">
        <ele>2400.6000976562</ele>
        <time>2022-03-09T12:05:56.000Z</time>
      </trkpt>
      <trkpt lat="44.38198" lon="6.88286">
        <ele>2399.3999023438</ele>
        <time>2022-03-09T12:05:59.000Z</time>
      </trkpt>
      <trkpt lat="44.382" lon="6.88283">
        <ele>2397.3999023438</ele>
        <time>2022-03-09T12:06:01.000Z</time>
      </trkpt>
      <trkpt lat="44.38204" lon="6.88283">
        <ele>2396.1999511719</ele>
        <time>2022-03-09T12:06:03.000Z</time>
      </trkpt>
      <trkpt lat="44.38205" lon="6.88283">
        <ele>2395.1999511719</ele>
        <time>2022-03-09T12:06:04.000Z</time>
      </trkpt>
      <trkpt lat="44.38206" lon="6.88283">
        <ele>2394.6000976562</ele>
        <time>2022-03-09T12:06:05.000Z</time>
      </trkpt>
      <trkpt lat="44.38208" lon="6.88277">
        <ele>2393.1999511719</ele>
        <time>2022-03-09T12:06:07.000Z</time>
      </trkpt>
      <trkpt lat="44.38209" lon="6.88273">
        <ele>2392.3999023438</ele>
        <time>2022-03-09T12:06:08.000Z</time>
      </trkpt>
      <trkpt lat="44.3821" lon="6.88269">
        <ele>2391.8000488281</ele>
        <time>2022-03-09T12:06:09.000Z</time>
      </trkpt>
      <trkpt lat="44.38215" lon="6.8826">
        <ele>2390.6000976562</ele>
        <time>2022-03-09T12:06:12.000Z</time>
      </trkpt>
      <trkpt lat="44.38218" lon="6.88263">
        <ele>2389.6000976562</ele>
        <time>2022-03-09T12:06:14.000Z</time>
      </trkpt>
      <trkpt lat="44.38219" lon="6.88265">
        <ele>2389.1999511719</ele>
        <time>2022-03-09T12:06:15.000Z</time>
      </trkpt>
      <trkpt lat="44.38219" lon="6.88265">
        <ele>2388.8000488281</ele>
        <time>2022-03-09T12:06:16.000Z</time>
      </trkpt>
      <trkpt lat="44.3822" lon="6.88263">
        <ele>2388.1999511719</ele>
        <time>2022-03-09T12:06:17.000Z</time>
      </trkpt>
      <trkpt lat="44.38222" lon="6.88261">
        <ele>2387.1999511719</ele>
        <time>2022-03-09T12:06:18.000Z</time>
      </trkpt>
      <trkpt lat="44.38226" lon="6.88254">
        <ele>2385.6000976562</ele>
        <time>2022-03-09T12:06:20.000Z</time>
      </trkpt>
      <trkpt lat="44.38227" lon="6.88249">
        <ele>2385</ele>
        <time>2022-03-09T12:06:21.000Z</time>
      </trkpt>
      <trkpt lat="44.38229" lon="6.88245">
        <ele>2384.6000976562</ele>
        <time>2022-03-09T12:06:22.000Z</time>
      </trkpt>
      <trkpt lat="44.38232" lon="6.88236">
        <ele>2383</ele>
        <time>2022-03-09T12:06:24.000Z</time>
      </trkpt>
      <trkpt lat="44.38238" lon="6.88222">
        <ele>2381.3999023438</ele>
        <time>2022-03-09T12:06:27.000Z</time>
      </trkpt>
      <trkpt lat="44.38245" lon="6.88214">
        <ele>2380.3999023438</ele>
        <time>2022-03-09T12:06:29.000Z</time>
      </trkpt>
      <trkpt lat="44.38248" lon="6.88213">
        <ele>2379.3999023438</ele>
        <time>2022-03-09T12:06:30.000Z</time>
      </trkpt>
      <trkpt lat="44.38251" lon="6.88215">
        <ele>2378.8000488281</ele>
        <time>2022-03-09T12:06:31.000Z</time>
      </trkpt>
      <trkpt lat="44.38256" lon="6.88221">
        <ele>2377</ele>
        <time>2022-03-09T12:06:33.000Z</time>
      </trkpt>
      <trkpt lat="44.38259" lon="6.88222">
        <ele>2375.6000976562</ele>
        <time>2022-03-09T12:06:34.000Z</time>
      </trkpt>
      <trkpt lat="44.38263" lon="6.88223">
        <ele>2375</ele>
        <time>2022-03-09T12:06:35.000Z</time>
      </trkpt>
      <trkpt lat="44.38267" lon="6.88222">
        <ele>2373.8000488281</ele>
        <time>2022-03-09T12:06:36.000Z</time>
      </trkpt>
      <trkpt lat="44.38274" lon="6.88217">
        <ele>2372.3999023438</ele>
        <time>2022-03-09T12:06:38.000Z</time>
      </trkpt>
      <trkpt lat="44.38277" lon="6.88213">
        <ele>2372</ele>
        <time>2022-03-09T12:06:39.000Z</time>
      </trkpt>
      <trkpt lat="44.38278" lon="6.88205">
        <ele>2371.1999511719</ele>
        <time>2022-03-09T12:06:40.000Z</time>
      </trkpt>
      <trkpt lat="44.38277" lon="6.88191">
        <ele>2369.1999511719</ele>
        <time>2022-03-09T12:06:42.000Z</time>
      </trkpt>
      <trkpt lat="44.38276" lon="6.88175">
        <ele>2367.8000488281</ele>
        <time>2022-03-09T12:06:44.000Z</time>
      </trkpt>
      <trkpt lat="44.38277" lon="6.8816">
        <ele>2366.3999023438</ele>
        <time>2022-03-09T12:06:46.000Z</time>
      </trkpt>
      <trkpt lat="44.38279" lon="6.88145">
        <ele>2365.8000488281</ele>
        <time>2022-03-09T12:06:48.000Z</time>
      </trkpt>
      <trkpt lat="44.38281" lon="6.88138">
        <ele>2365.3999023438</ele>
        <time>2022-03-09T12:06:49.000Z</time>
      </trkpt>
      <trkpt lat="44.38284" lon="6.88134">
        <ele>2364.3999023438</ele>
        <time>2022-03-09T12:06:50.000Z</time>
      </trkpt>
      <trkpt lat="44.38287" lon="6.88133">
        <ele>2363.3999023438</ele>
        <time>2022-03-09T12:06:51.000Z</time>
      </trkpt>
      <trkpt lat="44.38291" lon="6.88132">
        <ele>2362.6000976562</ele>
        <time>2022-03-09T12:06:52.000Z</time>
      </trkpt>
      <trkpt lat="44.38296" lon="6.88129">
        <ele>2361.3999023438</ele>
        <time>2022-03-09T12:06:54.000Z</time>
      </trkpt>
      <trkpt lat="44.38297" lon="6.88125">
        <ele>2360.8000488281</ele>
        <time>2022-03-09T12:06:55.000Z</time>
      </trkpt>
      <trkpt lat="44.38299" lon="6.88119">
        <ele>2359.8000488281</ele>
        <time>2022-03-09T12:06:56.000Z</time>
      </trkpt>
      <trkpt lat="44.38305" lon="6.88114">
        <ele>2358.8000488281</ele>
        <time>2022-03-09T12:06:58.000Z</time>
      </trkpt>
      <trkpt lat="44.38307" lon="6.88114">
        <ele>2356.6000976562</ele>
        <time>2022-03-09T12:06:59.000Z</time>
      </trkpt>
      <trkpt lat="44.38309" lon="6.88115">
        <ele>2355.3999023438</ele>
        <time>2022-03-09T12:07:00.000Z</time>
      </trkpt>
      <trkpt lat="44.38313" lon="6.88114">
        <ele>2354.3999023438</ele>
        <time>2022-03-09T12:07:02.000Z</time>
      </trkpt>
      <trkpt lat="44.38316" lon="6.88112">
        <ele>2354</ele>
        <time>2022-03-09T12:07:03.000Z</time>
      </trkpt>
      <trkpt lat="44.38322" lon="6.88109">
        <ele>2353.3999023438</ele>
        <time>2022-03-09T12:07:05.000Z</time>
      </trkpt>
      <trkpt lat="44.38323" lon="6.88107">
        <ele>2352.6000976562</ele>
        <time>2022-03-09T12:07:06.000Z</time>
      </trkpt>
      <trkpt lat="44.38325" lon="6.88104">
        <ele>2351.6000976562</ele>
        <time>2022-03-09T12:07:07.000Z</time>
      </trkpt>
      <trkpt lat="44.38326" lon="6.88101">
        <ele>2350.8000488281</ele>
        <time>2022-03-09T12:07:08.000Z</time>
      </trkpt>
      <trkpt lat="44.38326" lon="6.88099">
        <ele>2349.6000976562</ele>
        <time>2022-03-09T12:07:09.000Z</time>
      </trkpt>
      <trkpt lat="44.38323" lon="6.88095">
        <ele>2348</ele>
        <time>2022-03-09T12:07:11.000Z</time>
      </trkpt>
      <trkpt lat="44.38318" lon="6.88083">
        <ele>2346.8000488281</ele>
        <time>2022-03-09T12:07:14.000Z</time>
      </trkpt>
      <trkpt lat="44.38316" lon="6.88074">
        <ele>2345.3999023438</ele>
        <time>2022-03-09T12:07:16.000Z</time>
      </trkpt>
      <trkpt lat="44.38316" lon="6.88068">
        <ele>2345</ele>
        <time>2022-03-09T12:07:17.000Z</time>
      </trkpt>
      <trkpt lat="44.38318" lon="6.88055">
        <ele>2343.8000488281</ele>
        <time>2022-03-09T12:07:19.000Z</time>
      </trkpt>
      <trkpt lat="44.38321" lon="6.88042">
        <ele>2342.6000976562</ele>
        <time>2022-03-09T12:07:21.000Z</time>
      </trkpt>
      <trkpt lat="44.38322" lon="6.88037">
        <ele>2342</ele>
        <time>2022-03-09T12:07:22.000Z</time>
      </trkpt>
      <trkpt lat="44.38322" lon="6.88033">
        <ele>2341.3999023438</ele>
        <time>2022-03-09T12:07:23.000Z</time>
      </trkpt>
      <trkpt lat="44.38322" lon="6.88029">
        <ele>2341</ele>
        <time>2022-03-09T12:07:24.000Z</time>
      </trkpt>
      <trkpt lat="44.38324" lon="6.88022">
        <ele>2340.3999023438</ele>
        <time>2022-03-09T12:07:28.000Z</time>
      </trkpt>
      <trkpt lat="44.38324" lon="6.88028">
        <ele>2340.3999023438</ele>
        <time>2022-03-09T12:07:33.000Z</time>
      </trkpt>
      <trkpt lat="44.38324" lon="6.8803">
        <ele>2340.1999511719</ele>
        <time>2022-03-09T12:07:43.000Z</time>
      </trkpt>
      <trkpt lat="44.38325" lon="6.88024">
        <ele>2339.6000976562</ele>
        <time>2022-03-09T12:07:56.000Z</time>
      </trkpt>
      <trkpt lat="44.38326" lon="6.88013">
        <ele>2338.8000488281</ele>
        <time>2022-03-09T12:07:58.000Z</time>
      </trkpt>
      <trkpt lat="44.38327" lon="6.88008">
        <ele>2338.1999511719</ele>
        <time>2022-03-09T12:07:59.000Z</time>
      </trkpt>
      <trkpt lat="44.38328" lon="6.88005">
        <ele>2336.6000976562</ele>
        <time>2022-03-09T12:08:00.000Z</time>
      </trkpt>
      <trkpt lat="44.38331" lon="6.88003">
        <ele>2335.1999511719</ele>
        <time>2022-03-09T12:08:01.000Z</time>
      </trkpt>
      <trkpt lat="44.38333" lon="6.88">
        <ele>2334.3999023438</ele>
        <time>2022-03-09T12:08:02.000Z</time>
      </trkpt>
      <trkpt lat="44.38333" lon="6.87995">
        <ele>2333.8000488281</ele>
        <time>2022-03-09T12:08:03.000Z</time>
      </trkpt>
      <trkpt lat="44.38334" lon="6.87985">
        <ele>2332.3999023438</ele>
        <time>2022-03-09T12:08:05.000Z</time>
      </trkpt>
      <trkpt lat="44.38337" lon="6.87985">
        <ele>2331.1999511719</ele>
        <time>2022-03-09T12:08:06.000Z</time>
      </trkpt>
      <trkpt lat="44.3834" lon="6.87986">
        <ele>2330</ele>
        <time>2022-03-09T12:08:07.000Z</time>
      </trkpt>
      <trkpt lat="44.38343" lon="6.87986">
        <ele>2328.3999023438</ele>
        <time>2022-03-09T12:08:08.000Z</time>
      </trkpt>
      <trkpt lat="44.38345" lon="6.87985">
        <ele>2327.6000976562</ele>
        <time>2022-03-09T12:08:09.000Z</time>
      </trkpt>
      <trkpt lat="44.38346" lon="6.87982">
        <ele>2326.8000488281</ele>
        <time>2022-03-09T12:08:10.000Z</time>
      </trkpt>
      <trkpt lat="44.38345" lon="6.87979">
        <ele>2325.6000976562</ele>
        <time>2022-03-09T12:08:11.000Z</time>
      </trkpt>
      <trkpt lat="44.38344" lon="6.87974">
        <ele>2324.3999023438</ele>
        <time>2022-03-09T12:08:13.000Z</time>
      </trkpt>
      <trkpt lat="44.38343" lon="6.87967">
        <ele>2323.1999511719</ele>
        <time>2022-03-09T12:08:15.000Z</time>
      </trkpt>
      <trkpt lat="44.38344" lon="6.87965">
        <ele>2322.3999023438</ele>
        <time>2022-03-09T12:08:16.000Z</time>
      </trkpt>
      <trkpt lat="44.38346" lon="6.87965">
        <ele>2321.6000976562</ele>
        <time>2022-03-09T12:08:17.000Z</time>
      </trkpt>
      <trkpt lat="44.38347" lon="6.87963">
        <ele>2320.3999023438</ele>
        <time>2022-03-09T12:08:18.000Z</time>
      </trkpt>
      <trkpt lat="44.38348" lon="6.87961">
        <ele>2318.3999023438</ele>
        <time>2022-03-09T12:08:20.000Z</time>
      </trkpt>
      <trkpt lat="44.3835" lon="6.87959">
        <ele>2317.3999023438</ele>
        <time>2022-03-09T12:08:22.000Z</time>
      </trkpt>
      <trkpt lat="44.38349" lon="6.87948">
        <ele>2315.8000488281</ele>
        <time>2022-03-09T12:08:25.000Z</time>
      </trkpt>
      <trkpt lat="44.38349" lon="6.87945">
        <ele>2314.6000976562</ele>
        <time>2022-03-09T12:08:26.000Z</time>
      </trkpt>
      <trkpt lat="44.38349" lon="6.87946">
        <ele>2313.6000976562</ele>
        <time>2022-03-09T12:08:27.000Z</time>
      </trkpt>
      <trkpt lat="44.3835" lon="6.87945">
        <ele>2312.8000488281</ele>
        <time>2022-03-09T12:08:28.000Z</time>
      </trkpt>
      <trkpt lat="44.38353" lon="6.87944">
        <ele>2311.6000976562</ele>
        <time>2022-03-09T12:08:30.000Z</time>
      </trkpt>
      <trkpt lat="44.38359" lon="6.87944">
        <ele>2310</ele>
        <time>2022-03-09T12:08:32.000Z</time>
      </trkpt>
      <trkpt lat="44.38362" lon="6.87943">
        <ele>2309</ele>
        <time>2022-03-09T12:08:33.000Z</time>
      </trkpt>
      <trkpt lat="44.38364" lon="6.87941">
        <ele>2308</ele>
        <time>2022-03-09T12:08:34.000Z</time>
      </trkpt>
      <trkpt lat="44.38367" lon="6.8794">
        <ele>2306.8000488281</ele>
        <time>2022-03-09T12:08:35.000Z</time>
      </trkpt>
      <trkpt lat="44.38369" lon="6.87939">
        <ele>2306.1999511719</ele>
        <time>2022-03-09T12:08:36.000Z</time>
      </trkpt>
      <trkpt lat="44.38373" lon="6.87939">
        <ele>2305</ele>
        <time>2022-03-09T12:08:37.000Z</time>
      </trkpt>
      <trkpt lat="44.38375" lon="6.87938">
        <ele>2304</ele>
        <time>2022-03-09T12:08:38.000Z</time>
      </trkpt>
      <trkpt lat="44.38383" lon="6.87935">
        <ele>2301.8000488281</ele>
        <time>2022-03-09T12:08:40.000Z</time>
      </trkpt>
      <trkpt lat="44.38387" lon="6.87938">
        <ele>2299.6000976562</ele>
        <time>2022-03-09T12:08:41.000Z</time>
      </trkpt>
      <trkpt lat="44.3839" lon="6.87942">
        <ele>2298.1999511719</ele>
        <time>2022-03-09T12:08:42.000Z</time>
      </trkpt>
      <trkpt lat="44.38393" lon="6.87946">
        <ele>2296.6000976562</ele>
        <time>2022-03-09T12:08:43.000Z</time>
      </trkpt>
      <trkpt lat="44.38395" lon="6.8795">
        <ele>2295.6000976562</ele>
        <time>2022-03-09T12:08:44.000Z</time>
      </trkpt>
      <trkpt lat="44.384" lon="6.87957">
        <ele>2294.1999511719</ele>
        <time>2022-03-09T12:08:46.000Z</time>
      </trkpt>
      <trkpt lat="44.38405" lon="6.87963">
        <ele>2293.3999023438</ele>
        <time>2022-03-09T12:08:48.000Z</time>
      </trkpt>
      <trkpt lat="44.38406" lon="6.87965">
        <ele>2292.8000488281</ele>
        <time>2022-03-09T12:08:49.000Z</time>
      </trkpt>
      <trkpt lat="44.38409" lon="6.87969">
        <ele>2292.3999023438</ele>
        <time>2022-03-09T12:08:52.000Z</time>
      </trkpt>
      <trkpt lat="44.38408" lon="6.87968">
        <ele>2292.1999511719</ele>
        <time>2022-03-09T12:09:03.000Z</time>
      </trkpt>
      <trkpt lat="44.3841" lon="6.8797">
        <ele>2291.8000488281</ele>
        <time>2022-03-09T12:09:13.000Z</time>
      </trkpt>
      <trkpt lat="44.38412" lon="6.87971">
        <ele>2290.8000488281</ele>
        <time>2022-03-09T12:09:15.000Z</time>
      </trkpt>
      <trkpt lat="44.38413" lon="6.8797">
        <ele>2290.3999023438</ele>
        <time>2022-03-09T12:09:16.000Z</time>
      </trkpt>
      <trkpt lat="44.38414" lon="6.87969">
        <ele>2289.8000488281</ele>
        <time>2022-03-09T12:09:18.000Z</time>
      </trkpt>
      <trkpt lat="44.38414" lon="6.87968">
        <ele>2289.1999511719</ele>
        <time>2022-03-09T12:09:19.000Z</time>
      </trkpt>
      <trkpt lat="44.38416" lon="6.87967">
        <ele>2288.8000488281</ele>
        <time>2022-03-09T12:09:20.000Z</time>
      </trkpt>
      <trkpt lat="44.38418" lon="6.87968">
        <ele>2288.1999511719</ele>
        <time>2022-03-09T12:09:21.000Z</time>
      </trkpt>
      <trkpt lat="44.38421" lon="6.8797">
        <ele>2287</ele>
        <time>2022-03-09T12:09:23.000Z</time>
      </trkpt>
      <trkpt lat="44.38422" lon="6.8797">
        <ele>2286.6000976562</ele>
        <time>2022-03-09T12:09:24.000Z</time>
      </trkpt>
      <trkpt lat="44.38424" lon="6.87969">
        <ele>2285.6000976562</ele>
        <time>2022-03-09T12:09:26.000Z</time>
      </trkpt>
      <trkpt lat="44.38425" lon="6.87967">
        <ele>2285</ele>
        <time>2022-03-09T12:09:27.000Z</time>
      </trkpt>
      <trkpt lat="44.38425" lon="6.87965">
        <ele>2284.1999511719</ele>
        <time>2022-03-09T12:09:28.000Z</time>
      </trkpt>
      <trkpt lat="44.38426" lon="6.87961">
        <ele>2283.3999023438</ele>
        <time>2022-03-09T12:09:30.000Z</time>
      </trkpt>
      <trkpt lat="44.38429" lon="6.87961">
        <ele>2283.1999511719</ele>
        <time>2022-03-09T12:09:31.000Z</time>
      </trkpt>
      <trkpt lat="44.3843" lon="6.87961">
        <ele>2282.6000976562</ele>
        <time>2022-03-09T12:09:32.000Z</time>
      </trkpt>
      <trkpt lat="44.38431" lon="6.87962">
        <ele>2282</ele>
        <time>2022-03-09T12:09:33.000Z</time>
      </trkpt>
      <trkpt lat="44.38433" lon="6.87963">
        <ele>2280.8000488281</ele>
        <time>2022-03-09T12:09:35.000Z</time>
      </trkpt>
      <trkpt lat="44.38434" lon="6.87961">
        <ele>2279.8000488281</ele>
        <time>2022-03-09T12:09:37.000Z</time>
      </trkpt>
      <trkpt lat="44.38436" lon="6.87961">
        <ele>2279.3999023438</ele>
        <time>2022-03-09T12:09:38.000Z</time>
      </trkpt>
      <trkpt lat="44.38438" lon="6.8796">
        <ele>2278.1999511719</ele>
        <time>2022-03-09T12:09:40.000Z</time>
      </trkpt>
      <trkpt lat="44.38438" lon="6.8796">
        <ele>2277.8000488281</ele>
        <time>2022-03-09T12:09:41.000Z</time>
      </trkpt>
      <trkpt lat="44.3844" lon="6.87958">
        <ele>2277.1999511719</ele>
        <time>2022-03-09T12:09:43.000Z</time>
      </trkpt>
      <trkpt lat="44.38441" lon="6.87957">
        <ele>2276.3999023438</ele>
        <time>2022-03-09T12:09:44.000Z</time>
      </trkpt>
      <trkpt lat="44.38443" lon="6.87957">
        <ele>2275.8000488281</ele>
        <time>2022-03-09T12:09:45.000Z</time>
      </trkpt>
      <trkpt lat="44.38444" lon="6.87959">
        <ele>2275</ele>
        <time>2022-03-09T12:09:46.000Z</time>
      </trkpt>
      <trkpt lat="44.38445" lon="6.87961">
        <ele>2274</ele>
        <time>2022-03-09T12:09:47.000Z</time>
      </trkpt>
      <trkpt lat="44.38447" lon="6.87963">
        <ele>2272.8000488281</ele>
        <time>2022-03-09T12:09:49.000Z</time>
      </trkpt>
      <trkpt lat="44.38448" lon="6.87963">
        <ele>2272</ele>
        <time>2022-03-09T12:09:51.000Z</time>
      </trkpt>
      <trkpt lat="44.38448" lon="6.87961">
        <ele>2271.3999023438</ele>
        <time>2022-03-09T12:09:52.000Z</time>
      </trkpt>
      <trkpt lat="44.38449" lon="6.87959">
        <ele>2271</ele>
        <time>2022-03-09T12:09:53.000Z</time>
      </trkpt>
      <trkpt lat="44.38449" lon="6.87958">
        <ele>2270.1999511719</ele>
        <time>2022-03-09T12:09:55.000Z</time>
      </trkpt>
      <trkpt lat="44.38451" lon="6.87958">
        <ele>2269.8000488281</ele>
        <time>2022-03-09T12:09:56.000Z</time>
      </trkpt>
      <trkpt lat="44.38456" lon="6.87964">
        <ele>2268.8000488281</ele>
        <time>2022-03-09T12:09:59.000Z</time>
      </trkpt>
      <trkpt lat="44.3846" lon="6.87969">
        <ele>2267.6000976562</ele>
        <time>2022-03-09T12:10:01.000Z</time>
      </trkpt>
      <trkpt lat="44.38462" lon="6.8797">
        <ele>2267</ele>
        <time>2022-03-09T12:10:02.000Z</time>
      </trkpt>
      <trkpt lat="44.38462" lon="6.87969">
        <ele>2266.6000976562</ele>
        <time>2022-03-09T12:10:03.000Z</time>
      </trkpt>
      <trkpt lat="44.38462" lon="6.87968">
        <ele>2266</ele>
        <time>2022-03-09T12:10:06.000Z</time>
      </trkpt>
      <trkpt lat="44.38464" lon="6.87967">
        <ele>2265.8000488281</ele>
        <time>2022-03-09T12:10:09.000Z</time>
      </trkpt>
      <trkpt lat="44.38464" lon="6.87966">
        <ele>2265.3999023438</ele>
        <time>2022-03-09T12:10:10.000Z</time>
      </trkpt>
      <trkpt lat="44.38464" lon="6.87963">
        <ele>2264.8000488281</ele>
        <time>2022-03-09T12:10:11.000Z</time>
      </trkpt>
      <trkpt lat="44.38465" lon="6.87958">
        <ele>2264.1999511719</ele>
        <time>2022-03-09T12:10:12.000Z</time>
      </trkpt>
      <trkpt lat="44.38465" lon="6.8795">
        <ele>2262.8000488281</ele>
        <time>2022-03-09T12:10:14.000Z</time>
      </trkpt>
      <trkpt lat="44.38467" lon="6.87942">
        <ele>2261.3999023438</ele>
        <time>2022-03-09T12:10:16.000Z</time>
      </trkpt>
      <trkpt lat="44.38469" lon="6.87938">
        <ele>2261</ele>
        <time>2022-03-09T12:10:17.000Z</time>
      </trkpt>
      <trkpt lat="44.3847" lon="6.87935">
        <ele>2259.8000488281</ele>
        <time>2022-03-09T12:10:19.000Z</time>
      </trkpt>
      <trkpt lat="44.38471" lon="6.87934">
        <ele>2259.1999511719</ele>
        <time>2022-03-09T12:10:20.000Z</time>
      </trkpt>
      <trkpt lat="44.38473" lon="6.87935">
        <ele>2259</ele>
        <time>2022-03-09T12:10:21.000Z</time>
      </trkpt>
      <trkpt lat="44.38474" lon="6.87936">
        <ele>2258.8000488281</ele>
        <time>2022-03-09T12:10:22.000Z</time>
      </trkpt>
      <trkpt lat="44.38477" lon="6.87937">
        <ele>2257.1999511719</ele>
        <time>2022-03-09T12:10:24.000Z</time>
      </trkpt>
      <trkpt lat="44.38481" lon="6.87938">
        <ele>2255.1999511719</ele>
        <time>2022-03-09T12:10:26.000Z</time>
      </trkpt>
      <trkpt lat="44.38483" lon="6.87942">
        <ele>2253.8000488281</ele>
        <time>2022-03-09T12:10:28.000Z</time>
      </trkpt>
      <trkpt lat="44.38484" lon="6.87942">
        <ele>2253</ele>
        <time>2022-03-09T12:10:29.000Z</time>
      </trkpt>
      <trkpt lat="44.38486" lon="6.87941">
        <ele>2252.1999511719</ele>
        <time>2022-03-09T12:10:30.000Z</time>
      </trkpt>
      <trkpt lat="44.38489" lon="6.87941">
        <ele>2251.1999511719</ele>
        <time>2022-03-09T12:10:31.000Z</time>
      </trkpt>
      <trkpt lat="44.38491" lon="6.87942">
        <ele>2250.1999511719</ele>
        <time>2022-03-09T12:10:32.000Z</time>
      </trkpt>
      <trkpt lat="44.38493" lon="6.87942">
        <ele>2249</ele>
        <time>2022-03-09T12:10:33.000Z</time>
      </trkpt>
      <trkpt lat="44.38495" lon="6.87941">
        <ele>2248.1999511719</ele>
        <time>2022-03-09T12:10:34.000Z</time>
      </trkpt>
      <trkpt lat="44.38497" lon="6.8794">
        <ele>2247</ele>
        <time>2022-03-09T12:10:35.000Z</time>
      </trkpt>
      <trkpt lat="44.38499" lon="6.87941">
        <ele>2245.1999511719</ele>
        <time>2022-03-09T12:10:37.000Z</time>
      </trkpt>
      <trkpt lat="44.38499" lon="6.87941">
        <ele>2244.1999511719</ele>
        <time>2022-03-09T12:10:39.000Z</time>
      </trkpt>
      <trkpt lat="44.385" lon="6.87938">
        <ele>2243.3999023438</ele>
        <time>2022-03-09T12:10:41.000Z</time>
      </trkpt>
      <trkpt lat="44.38503" lon="6.87934">
        <ele>2242.3999023438</ele>
        <time>2022-03-09T12:10:43.000Z</time>
      </trkpt>
      <trkpt lat="44.38507" lon="6.87936">
        <ele>2240.8000488281</ele>
        <time>2022-03-09T12:10:45.000Z</time>
      </trkpt>
      <trkpt lat="44.38508" lon="6.87936">
        <ele>2239.6000976562</ele>
        <time>2022-03-09T12:10:46.000Z</time>
      </trkpt>
      <trkpt lat="44.38509" lon="6.87937">
        <ele>2238.8000488281</ele>
        <time>2022-03-09T12:10:47.000Z</time>
      </trkpt>
      <trkpt lat="44.38511" lon="6.87937">
        <ele>2238.3999023438</ele>
        <time>2022-03-09T12:10:48.000Z</time>
      </trkpt>
      <trkpt lat="44.38518" lon="6.87938">
        <ele>2237.1999511719</ele>
        <time>2022-03-09T12:10:51.000Z</time>
      </trkpt>
      <trkpt lat="44.38519" lon="6.87938">
        <ele>2236.6000976562</ele>
        <time>2022-03-09T12:10:52.000Z</time>
      </trkpt>
      <trkpt lat="44.3852" lon="6.87938">
        <ele>2236</ele>
        <time>2022-03-09T12:10:53.000Z</time>
      </trkpt>
      <trkpt lat="44.38522" lon="6.87937">
        <ele>2235.1999511719</ele>
        <time>2022-03-09T12:10:56.000Z</time>
      </trkpt>
      <trkpt lat="44.38523" lon="6.87932">
        <ele>2234.8000488281</ele>
        <time>2022-03-09T12:10:58.000Z</time>
      </trkpt>
      <trkpt lat="44.38525" lon="6.87929">
        <ele>2234</ele>
        <time>2022-03-09T12:10:59.000Z</time>
      </trkpt>
      <trkpt lat="44.38527" lon="6.87926">
        <ele>2232.8000488281</ele>
        <time>2022-03-09T12:11:00.000Z</time>
      </trkpt>
      <trkpt lat="44.38528" lon="6.87924">
        <ele>2231.6000976562</ele>
        <time>2022-03-09T12:11:01.000Z</time>
      </trkpt>
      <trkpt lat="44.38528" lon="6.87922">
        <ele>2230</ele>
        <time>2022-03-09T12:11:02.000Z</time>
      </trkpt>
      <trkpt lat="44.38528" lon="6.87921">
        <ele>2229.1999511719</ele>
        <time>2022-03-09T12:11:03.000Z</time>
      </trkpt>
      <trkpt lat="44.38528" lon="6.8792">
        <ele>2228.3999023438</ele>
        <time>2022-03-09T12:11:04.000Z</time>
      </trkpt>
      <trkpt lat="44.38527" lon="6.87909">
        <ele>2227.1999511719</ele>
        <time>2022-03-09T12:11:07.000Z</time>
      </trkpt>
      <trkpt lat="44.38528" lon="6.87904">
        <ele>2226.8000488281</ele>
        <time>2022-03-09T12:11:08.000Z</time>
      </trkpt>
      <trkpt lat="44.38529" lon="6.87898">
        <ele>2226.6000976562</ele>
        <time>2022-03-09T12:11:09.000Z</time>
      </trkpt>
      <trkpt lat="44.3853" lon="6.87892">
        <ele>2226</ele>
        <time>2022-03-09T12:11:10.000Z</time>
      </trkpt>
      <trkpt lat="44.38531" lon="6.87886">
        <ele>2224.3999023438</ele>
        <time>2022-03-09T12:11:12.000Z</time>
      </trkpt>
      <trkpt lat="44.38531" lon="6.87883">
        <ele>2224.1999511719</ele>
        <time>2022-03-09T12:11:13.000Z</time>
      </trkpt>
      <trkpt lat="44.38531" lon="6.8788">
        <ele>2223.3999023438</ele>
        <time>2022-03-09T12:11:15.000Z</time>
      </trkpt>
      <trkpt lat="44.38531" lon="6.87879">
        <ele>2223</ele>
        <time>2022-03-09T12:11:17.000Z</time>
      </trkpt>
      <trkpt lat="44.38531" lon="6.87881">
        <ele>2222.8000488281</ele>
        <time>2022-03-09T12:11:28.000Z</time>
      </trkpt>
      <trkpt lat="44.38531" lon="6.87881">
        <ele>2223</ele>
        <time>2022-03-09T12:11:41.000Z</time>
      </trkpt>
      <trkpt lat="44.38532" lon="6.87881">
        <ele>2222.3999023438</ele>
        <time>2022-03-09T12:12:19.000Z</time>
      </trkpt>
      <trkpt lat="44.38535" lon="6.87882">
        <ele>2222.1999511719</ele>
        <time>2022-03-09T12:12:20.000Z</time>
      </trkpt>
      <trkpt lat="44.38538" lon="6.87885">
        <ele>2220.8000488281</ele>
        <time>2022-03-09T12:12:21.000Z</time>
      </trkpt>
      <trkpt lat="44.38544" lon="6.87887">
        <ele>2219</ele>
        <time>2022-03-09T12:12:23.000Z</time>
      </trkpt>
      <trkpt lat="44.38546" lon="6.87885">
        <ele>2217.6000976562</ele>
        <time>2022-03-09T12:12:24.000Z</time>
      </trkpt>
      <trkpt lat="44.38549" lon="6.87883">
        <ele>2215.8000488281</ele>
        <time>2022-03-09T12:12:25.000Z</time>
      </trkpt>
      <trkpt lat="44.38552" lon="6.87879">
        <ele>2214.6000976562</ele>
        <time>2022-03-09T12:12:26.000Z</time>
      </trkpt>
      <trkpt lat="44.38555" lon="6.87878">
        <ele>2213</ele>
        <time>2022-03-09T12:12:27.000Z</time>
      </trkpt>
      <trkpt lat="44.38557" lon="6.87879">
        <ele>2212.1999511719</ele>
        <time>2022-03-09T12:12:28.000Z</time>
      </trkpt>
      <trkpt lat="44.38559" lon="6.87883">
        <ele>2211.1999511719</ele>
        <time>2022-03-09T12:12:29.000Z</time>
      </trkpt>
      <trkpt lat="44.3856" lon="6.87886">
        <ele>2209.6000976562</ele>
        <time>2022-03-09T12:12:30.000Z</time>
      </trkpt>
      <trkpt lat="44.38561" lon="6.87888">
        <ele>2208.6000976562</ele>
        <time>2022-03-09T12:12:31.000Z</time>
      </trkpt>
      <trkpt lat="44.38562" lon="6.87888">
        <ele>2207.8000488281</ele>
        <time>2022-03-09T12:12:32.000Z</time>
      </trkpt>
      <trkpt lat="44.38563" lon="6.87884">
        <ele>2206.6000976562</ele>
        <time>2022-03-09T12:12:33.000Z</time>
      </trkpt>
      <trkpt lat="44.38566" lon="6.87879">
        <ele>2205.3999023438</ele>
        <time>2022-03-09T12:12:34.000Z</time>
      </trkpt>
      <trkpt lat="44.38568" lon="6.87872">
        <ele>2203.1999511719</ele>
        <time>2022-03-09T12:12:36.000Z</time>
      </trkpt>
      <trkpt lat="44.38569" lon="6.87872">
        <ele>2202</ele>
        <time>2022-03-09T12:12:37.000Z</time>
      </trkpt>
      <trkpt lat="44.38571" lon="6.8787">
        <ele>2200.6000976562</ele>
        <time>2022-03-09T12:12:38.000Z</time>
      </trkpt>
      <trkpt lat="44.38573" lon="6.87867">
        <ele>2199.1999511719</ele>
        <time>2022-03-09T12:12:39.000Z</time>
      </trkpt>
      <trkpt lat="44.38579" lon="6.87861">
        <ele>2197.1999511719</ele>
        <time>2022-03-09T12:12:41.000Z</time>
      </trkpt>
      <trkpt lat="44.38582" lon="6.87862">
        <ele>2196</ele>
        <time>2022-03-09T12:12:42.000Z</time>
      </trkpt>
      <trkpt lat="44.38584" lon="6.87865">
        <ele>2194.3999023438</ele>
        <time>2022-03-09T12:12:43.000Z</time>
      </trkpt>
      <trkpt lat="44.38586" lon="6.87868">
        <ele>2193.3999023438</ele>
        <time>2022-03-09T12:12:44.000Z</time>
      </trkpt>
      <trkpt lat="44.38588" lon="6.8787">
        <ele>2192.6000976562</ele>
        <time>2022-03-09T12:12:45.000Z</time>
      </trkpt>
      <trkpt lat="44.38589" lon="6.87869">
        <ele>2191.6000976562</ele>
        <time>2022-03-09T12:12:46.000Z</time>
      </trkpt>
      <trkpt lat="44.38593" lon="6.87864">
        <ele>2190.1999511719</ele>
        <time>2022-03-09T12:12:48.000Z</time>
      </trkpt>
      <trkpt lat="44.38597" lon="6.87865">
        <ele>2188.3999023438</ele>
        <time>2022-03-09T12:12:50.000Z</time>
      </trkpt>
      <trkpt lat="44.38599" lon="6.87866">
        <ele>2187.8000488281</ele>
        <time>2022-03-09T12:12:51.000Z</time>
      </trkpt>
      <trkpt lat="44.38601" lon="6.87865">
        <ele>2187</ele>
        <time>2022-03-09T12:12:52.000Z</time>
      </trkpt>
      <trkpt lat="44.38602" lon="6.87862">
        <ele>2185.8000488281</ele>
        <time>2022-03-09T12:12:53.000Z</time>
      </trkpt>
      <trkpt lat="44.38602" lon="6.8786">
        <ele>2185</ele>
        <time>2022-03-09T12:12:54.000Z</time>
      </trkpt>
      <trkpt lat="44.38604" lon="6.87856">
        <ele>2184</ele>
        <time>2022-03-09T12:12:55.000Z</time>
      </trkpt>
      <trkpt lat="44.38607" lon="6.87853">
        <ele>2183.3999023438</ele>
        <time>2022-03-09T12:12:56.000Z</time>
      </trkpt>
      <trkpt lat="44.3861" lon="6.87854">
        <ele>2183</ele>
        <time>2022-03-09T12:12:57.000Z</time>
      </trkpt>
      <trkpt lat="44.38612" lon="6.87856">
        <ele>2181</ele>
        <time>2022-03-09T12:12:58.000Z</time>
      </trkpt>
      <trkpt lat="44.38614" lon="6.87858">
        <ele>2180</ele>
        <time>2022-03-09T12:12:59.000Z</time>
      </trkpt>
      <trkpt lat="44.3862" lon="6.87858">
        <ele>2178</ele>
        <time>2022-03-09T12:13:01.000Z</time>
      </trkpt>
      <trkpt lat="44.38622" lon="6.87856">
        <ele>2176.3999023438</ele>
        <time>2022-03-09T12:13:02.000Z</time>
      </trkpt>
      <trkpt lat="44.38624" lon="6.87854">
        <ele>2175.3999023438</ele>
        <time>2022-03-09T12:13:03.000Z</time>
      </trkpt>
      <trkpt lat="44.38625" lon="6.87845">
        <ele>2174.3999023438</ele>
        <time>2022-03-09T12:13:05.000Z</time>
      </trkpt>
      <trkpt lat="44.38625" lon="6.8784">
        <ele>2173.8000488281</ele>
        <time>2022-03-09T12:13:06.000Z</time>
      </trkpt>
      <trkpt lat="44.38626" lon="6.87834">
        <ele>2173.3999023438</ele>
        <time>2022-03-09T12:13:07.000Z</time>
      </trkpt>
      <trkpt lat="44.38628" lon="6.87821">
        <ele>2172</ele>
        <time>2022-03-09T12:13:10.000Z</time>
      </trkpt>
      <trkpt lat="44.38628" lon="6.87819">
        <ele>2171.6000976562</ele>
        <time>2022-03-09T12:13:11.000Z</time>
      </trkpt>
      <trkpt lat="44.38629" lon="6.87819">
        <ele>2171</ele>
        <time>2022-03-09T12:13:13.000Z</time>
      </trkpt>
      <trkpt lat="44.38631" lon="6.87823">
        <ele>2170.8000488281</ele>
        <time>2022-03-09T12:13:14.000Z</time>
      </trkpt>
      <trkpt lat="44.38632" lon="6.87827">
        <ele>2170.1999511719</ele>
        <time>2022-03-09T12:13:15.000Z</time>
      </trkpt>
      <trkpt lat="44.38633" lon="6.87831">
        <ele>2168.6000976562</ele>
        <time>2022-03-09T12:13:16.000Z</time>
      </trkpt>
      <trkpt lat="44.38634" lon="6.87836">
        <ele>2167.1999511719</ele>
        <time>2022-03-09T12:13:18.000Z</time>
      </trkpt>
      <trkpt lat="44.38635" lon="6.87836">
        <ele>2166.8000488281</ele>
        <time>2022-03-09T12:13:19.000Z</time>
      </trkpt>
      <trkpt lat="44.38639" lon="6.8783">
        <ele>2166.1999511719</ele>
        <time>2022-03-09T12:13:28.000Z</time>
      </trkpt>
      <trkpt lat="44.3864" lon="6.87827">
        <ele>2165.8000488281</ele>
        <time>2022-03-09T12:13:29.000Z</time>
      </trkpt>
      <trkpt lat="44.38641" lon="6.87823">
        <ele>2164.8000488281</ele>
        <time>2022-03-09T12:13:30.000Z</time>
      </trkpt>
      <trkpt lat="44.38644" lon="6.87812">
        <ele>2163.3999023438</ele>
        <time>2022-03-09T12:13:32.000Z</time>
      </trkpt>
      <trkpt lat="44.38647" lon="6.87804">
        <ele>2162</ele>
        <time>2022-03-09T12:13:34.000Z</time>
      </trkpt>
      <trkpt lat="44.38652" lon="6.87793">
        <ele>2160.6000976562</ele>
        <time>2022-03-09T12:13:36.000Z</time>
      </trkpt>
      <trkpt lat="44.38654" lon="6.87788">
        <ele>2159.3999023438</ele>
        <time>2022-03-09T12:13:37.000Z</time>
      </trkpt>
      <trkpt lat="44.38656" lon="6.87784">
        <ele>2158.6000976562</ele>
        <time>2022-03-09T12:13:38.000Z</time>
      </trkpt>
      <trkpt lat="44.38658" lon="6.87783">
        <ele>2157.8000488281</ele>
        <time>2022-03-09T12:13:39.000Z</time>
      </trkpt>
      <trkpt lat="44.3866" lon="6.87784">
        <ele>2157.1999511719</ele>
        <time>2022-03-09T12:13:40.000Z</time>
      </trkpt>
      <trkpt lat="44.38661" lon="6.87788">
        <ele>2156</ele>
        <time>2022-03-09T12:13:41.000Z</time>
      </trkpt>
      <trkpt lat="44.38662" lon="6.8779">
        <ele>2154.6000976562</ele>
        <time>2022-03-09T12:13:42.000Z</time>
      </trkpt>
      <trkpt lat="44.38662" lon="6.87793">
        <ele>2153.6000976562</ele>
        <time>2022-03-09T12:13:43.000Z</time>
      </trkpt>
      <trkpt lat="44.38664" lon="6.87796">
        <ele>2152.6000976562</ele>
        <time>2022-03-09T12:13:45.000Z</time>
      </trkpt>
      <trkpt lat="44.38664" lon="6.87795">
        <ele>2152.1999511719</ele>
        <time>2022-03-09T12:13:46.000Z</time>
      </trkpt>
      <trkpt lat="44.38665" lon="6.87794">
        <ele>2152</ele>
        <time>2022-03-09T12:13:47.000Z</time>
      </trkpt>
      <trkpt lat="44.3867" lon="6.87783">
        <ele>2151.6000976562</ele>
        <time>2022-03-09T12:13:50.000Z</time>
      </trkpt>
      <trkpt lat="44.38674" lon="6.87782">
        <ele>2151.3999023438</ele>
        <time>2022-03-09T12:13:51.000Z</time>
      </trkpt>
      <trkpt lat="44.3868" lon="6.8778">
        <ele>2150.1999511719</ele>
        <time>2022-03-09T12:13:53.000Z</time>
      </trkpt>
      <trkpt lat="44.38683" lon="6.87779">
        <ele>2149.1999511719</ele>
        <time>2022-03-09T12:13:55.000Z</time>
      </trkpt>
      <trkpt lat="44.38684" lon="6.87777">
        <ele>2148.8000488281</ele>
        <time>2022-03-09T12:13:56.000Z</time>
      </trkpt>
      <trkpt lat="44.38685" lon="6.87775">
        <ele>2148.6000976562</ele>
        <time>2022-03-09T12:13:57.000Z</time>
      </trkpt>
      <trkpt lat="44.38685" lon="6.87767">
        <ele>2147.8000488281</ele>
        <time>2022-03-09T12:13:59.000Z</time>
      </trkpt>
      <trkpt lat="44.38689" lon="6.87763">
        <ele>2146</ele>
        <time>2022-03-09T12:14:00.000Z</time>
      </trkpt>
      <trkpt lat="44.38691" lon="6.87757">
        <ele>2144.8000488281</ele>
        <time>2022-03-09T12:14:01.000Z</time>
      </trkpt>
      <trkpt lat="44.38692" lon="6.87752">
        <ele>2144</ele>
        <time>2022-03-09T12:14:02.000Z</time>
      </trkpt>
      <trkpt lat="44.38693" lon="6.87744">
        <ele>2143.1999511719</ele>
        <time>2022-03-09T12:14:03.000Z</time>
      </trkpt>
      <trkpt lat="44.38694" lon="6.87737">
        <ele>2142.8000488281</ele>
        <time>2022-03-09T12:14:04.000Z</time>
      </trkpt>
      <trkpt lat="44.38696" lon="6.87724">
        <ele>2141.6000976562</ele>
        <time>2022-03-09T12:14:06.000Z</time>
      </trkpt>
      <trkpt lat="44.38697" lon="6.87718">
        <ele>2141</ele>
        <time>2022-03-09T12:14:07.000Z</time>
      </trkpt>
      <trkpt lat="44.38698" lon="6.87706">
        <ele>2140.1999511719</ele>
        <time>2022-03-09T12:14:10.000Z</time>
      </trkpt>
      <trkpt lat="44.38698" lon="6.87703">
        <ele>2139.6000976562</ele>
        <time>2022-03-09T12:14:11.000Z</time>
      </trkpt>
      <trkpt lat="44.387" lon="6.87694">
        <ele>2139.1999511719</ele>
        <time>2022-03-09T12:14:16.000Z</time>
      </trkpt>
      <trkpt lat="44.38702" lon="6.87681">
        <ele>2139</ele>
        <time>2022-03-09T12:14:23.000Z</time>
      </trkpt>
      <trkpt lat="44.38703" lon="6.87675">
        <ele>2138.8000488281</ele>
        <time>2022-03-09T12:14:25.000Z</time>
      </trkpt>
      <trkpt lat="44.38708" lon="6.87649">
        <ele>2138</ele>
        <time>2022-03-09T12:14:31.000Z</time>
      </trkpt>
      <trkpt lat="44.38709" lon="6.87629">
        <ele>2137.1999511719</ele>
        <time>2022-03-09T12:14:36.000Z</time>
      </trkpt>
      <trkpt lat="44.38709" lon="6.87625">
        <ele>2137</ele>
        <time>2022-03-09T12:14:37.000Z</time>
      </trkpt>
      <trkpt lat="44.38709" lon="6.87623">
        <ele>2137</ele>
        <time>2022-03-09T12:14:38.000Z</time>
      </trkpt>
      <trkpt lat="44.3871" lon="6.87622">
        <ele>2135.8000488281</ele>
        <time>2022-03-09T12:14:41.000Z</time>
      </trkpt>
      <trkpt lat="44.38708" lon="6.87624">
        <ele>2135.3999023438</ele>
        <time>2022-03-09T12:14:50.000Z</time>
      </trkpt>
      <trkpt lat="44.38709" lon="6.87622">
        <ele>2135.1999511719</ele>
        <time>2022-03-09T12:15:11.000Z</time>
      </trkpt>
      <trkpt lat="44.38707" lon="6.87622">
        <ele>2135.3999023438</ele>
        <time>2022-03-09T12:16:35.000Z</time>
      </trkpt>
      <trkpt lat="44.38707" lon="6.87621">
        <ele>2135.8000488281</ele>
        <time>2022-03-09T12:17:10.000Z</time>
      </trkpt>
      <trkpt lat="44.38707" lon="6.87621">
        <ele>2135.8000488281</ele>
        <time>2022-03-09T12:17:39.000Z</time>
      </trkpt>
      <trkpt lat="44.38708" lon="6.8762">
        <ele>2135.6000976562</ele>
        <time>2022-03-09T12:18:25.000Z</time>
      </trkpt>
      <trkpt lat="44.38706" lon="6.87623">
        <ele>2135.6000976562</ele>
        <time>2022-03-09T12:21:15.000Z</time>
      </trkpt>
      <trkpt lat="44.38706" lon="6.87623">
        <ele>2135.3999023438</ele>
        <time>2022-03-09T12:21:22.000Z</time>
      </trkpt>
      <trkpt lat="44.38707" lon="6.87621">
        <ele>2135.8000488281</ele>
        <time>2022-03-09T12:21:32.000Z</time>
      </trkpt>
      <trkpt lat="44.38708" lon="6.87617">
        <ele>2135.6000976562</ele>
        <time>2022-03-09T12:21:45.000Z</time>
      </trkpt>
      <trkpt lat="44.38708" lon="6.87621">
        <ele>2135.6000976562</ele>
        <time>2022-03-09T12:22:01.000Z</time>
      </trkpt>
      <trkpt lat="44.38708" lon="6.87623">
        <ele>2135.6000976562</ele>
        <time>2022-03-09T12:22:30.000Z</time>
      </trkpt>
      <trkpt lat="44.38712" lon="6.87623">
        <ele>2135.3999023438</ele>
        <time>2022-03-09T12:22:57.000Z</time>
      </trkpt>
      <trkpt lat="44.38712" lon="6.8762">
        <ele>2135.3999023438</ele>
        <time>2022-03-09T12:23:16.000Z</time>
      </trkpt>
      <trkpt lat="44.3871" lon="6.8762">
        <ele>2135.1999511719</ele>
        <time>2022-03-09T12:23:32.000Z</time>
      </trkpt>
      <trkpt lat="44.3871" lon="6.87621">
        <ele>2135.1999511719</ele>
        <time>2022-03-09T12:23:48.000Z</time>
      </trkpt>
      <trkpt lat="44.38708" lon="6.87611">
        <ele>2134.8000488281</ele>
        <time>2022-03-09T12:24:08.000Z</time>
      </trkpt>
      <trkpt lat="44.38706" lon="6.87601">
        <ele>2133.8000488281</ele>
        <time>2022-03-09T12:24:16.000Z</time>
      </trkpt>
      <trkpt lat="44.38709" lon="6.87599">
        <ele>2134.6000976562</ele>
        <time>2022-03-09T12:24:23.000Z</time>
      </trkpt>
      <trkpt lat="44.38708" lon="6.87594">
        <ele>2135.6000976562</ele>
        <time>2022-03-09T12:24:32.000Z</time>
      </trkpt>
      <trkpt lat="44.38709" lon="6.87595">
        <ele>2135.8000488281</ele>
        <time>2022-03-09T12:24:37.000Z</time>
      </trkpt>
      <trkpt lat="44.38712" lon="6.87596">
        <ele>2135.8000488281</ele>
        <time>2022-03-09T12:24:45.000Z</time>
      </trkpt>
      <trkpt lat="44.38711" lon="6.87595">
        <ele>2135.3999023438</ele>
        <time>2022-03-09T12:25:06.000Z</time>
      </trkpt>
      <trkpt lat="44.38706" lon="6.87593">
        <ele>2135.1999511719</ele>
        <time>2022-03-09T12:25:41.000Z</time>
      </trkpt>
      <trkpt lat="44.38705" lon="6.87594">
        <ele>2136.8000488281</ele>
        <time>2022-03-09T12:25:54.000Z</time>
      </trkpt>
      <trkpt lat="44.38698" lon="6.8759">
        <ele>2137.6000976562</ele>
        <time>2022-03-09T12:26:02.000Z</time>
      </trkpt>
      <trkpt lat="44.38697" lon="6.8759">
        <ele>2138</ele>
        <time>2022-03-09T12:26:03.000Z</time>
      </trkpt>
      <trkpt lat="44.38694" lon="6.87586">
        <ele>2138.6000976562</ele>
        <time>2022-03-09T12:26:11.000Z</time>
      </trkpt>
      <trkpt lat="44.38692" lon="6.87585">
        <ele>2139</ele>
        <time>2022-03-09T12:26:14.000Z</time>
      </trkpt>
      <trkpt lat="44.3869" lon="6.87583">
        <ele>2139.6000976562</ele>
        <time>2022-03-09T12:26:19.000Z</time>
      </trkpt>
      <trkpt lat="44.38689" lon="6.87582">
        <ele>2140</ele>
        <time>2022-03-09T12:26:22.000Z</time>
      </trkpt>
      <trkpt lat="44.38687" lon="6.8758">
        <ele>2140.3999023438</ele>
        <time>2022-03-09T12:26:29.000Z</time>
      </trkpt>
      <trkpt lat="44.38683" lon="6.87577">
        <ele>2141</ele>
        <time>2022-03-09T12:26:35.000Z</time>
      </trkpt>
      <trkpt lat="44.38681" lon="6.87575">
        <ele>2141.8000488281</ele>
        <time>2022-03-09T12:26:39.000Z</time>
      </trkpt>
      <trkpt lat="44.38679" lon="6.87573">
        <ele>2142</ele>
        <time>2022-03-09T12:26:42.000Z</time>
      </trkpt>
      <trkpt lat="44.38676" lon="6.87569">
        <ele>2143.1999511719</ele>
        <time>2022-03-09T12:26:50.000Z</time>
      </trkpt>
      <trkpt lat="44.38676" lon="6.87568">
        <ele>2143.1999511719</ele>
        <time>2022-03-09T12:26:51.000Z</time>
      </trkpt>
      <trkpt lat="44.38673" lon="6.87563">
        <ele>2144</ele>
        <time>2022-03-09T12:26:59.000Z</time>
      </trkpt>
      <trkpt lat="44.38672" lon="6.87562">
        <ele>2144.1999511719</ele>
        <time>2022-03-09T12:27:00.000Z</time>
      </trkpt>
      <trkpt lat="44.3867" lon="6.87557">
        <ele>2145.1999511719</ele>
        <time>2022-03-09T12:27:06.000Z</time>
      </trkpt>
      <trkpt lat="44.38668" lon="6.87554">
        <ele>2145.8000488281</ele>
        <time>2022-03-09T12:27:11.000Z</time>
      </trkpt>
      <trkpt lat="44.38665" lon="6.87549">
        <ele>2146.1999511719</ele>
        <time>2022-03-09T12:27:16.000Z</time>
      </trkpt>
      <trkpt lat="44.3866" lon="6.87543">
        <ele>2147</ele>
        <time>2022-03-09T12:27:25.000Z</time>
      </trkpt>
      <trkpt lat="44.38659" lon="6.87539">
        <ele>2147.3999023438</ele>
        <time>2022-03-09T12:27:28.000Z</time>
      </trkpt>
      <trkpt lat="44.38657" lon="6.87536">
        <ele>2148.3999023438</ele>
        <time>2022-03-09T12:27:34.000Z</time>
      </trkpt>
      <trkpt lat="44.38658" lon="6.87537">
        <ele>2148.6000976562</ele>
        <time>2022-03-09T12:27:36.000Z</time>
      </trkpt>
      <trkpt lat="44.38654" lon="6.87531">
        <ele>2149.3999023438</ele>
        <time>2022-03-09T12:27:45.000Z</time>
      </trkpt>
      <trkpt lat="44.38654" lon="6.87529">
        <ele>2149.8000488281</ele>
        <time>2022-03-09T12:27:47.000Z</time>
      </trkpt>
      <trkpt lat="44.38651" lon="6.87524">
        <ele>2150.6000976562</ele>
        <time>2022-03-09T12:27:53.000Z</time>
      </trkpt>
      <trkpt lat="44.38649" lon="6.87522">
        <ele>2151.1999511719</ele>
        <time>2022-03-09T12:27:57.000Z</time>
      </trkpt>
      <trkpt lat="44.38646" lon="6.87519">
        <ele>2151.6000976562</ele>
        <time>2022-03-09T12:28:03.000Z</time>
      </trkpt>
      <trkpt lat="44.38646" lon="6.87518">
        <ele>2151.8000488281</ele>
        <time>2022-03-09T12:28:05.000Z</time>
      </trkpt>
      <trkpt lat="44.38643" lon="6.87514">
        <ele>2152.6000976562</ele>
        <time>2022-03-09T12:28:11.000Z</time>
      </trkpt>
      <trkpt lat="44.38641" lon="6.8751">
        <ele>2153</ele>
        <time>2022-03-09T12:28:16.000Z</time>
      </trkpt>
      <trkpt lat="44.3864" lon="6.87507">
        <ele>2153.8000488281</ele>
        <time>2022-03-09T12:28:20.000Z</time>
      </trkpt>
      <trkpt lat="44.38638" lon="6.87502">
        <ele>2154.8000488281</ele>
        <time>2022-03-09T12:28:27.000Z</time>
      </trkpt>
      <trkpt lat="44.38637" lon="6.87501">
        <ele>2154.8000488281</ele>
        <time>2022-03-09T12:28:28.000Z</time>
      </trkpt>
      <trkpt lat="44.38632" lon="6.87493">
        <ele>2156</ele>
        <time>2022-03-09T12:28:39.000Z</time>
      </trkpt>
      <trkpt lat="44.38631" lon="6.87492">
        <ele>2156.3999023438</ele>
        <time>2022-03-09T12:28:40.000Z</time>
      </trkpt>
      <trkpt lat="44.3863" lon="6.87487">
        <ele>2157.1999511719</ele>
        <time>2022-03-09T12:28:44.000Z</time>
      </trkpt>
      <trkpt lat="44.38628" lon="6.87479">
        <ele>2157.8000488281</ele>
        <time>2022-03-09T12:28:53.000Z</time>
      </trkpt>
      <trkpt lat="44.38628" lon="6.87476">
        <ele>2158.1999511719</ele>
        <time>2022-03-09T12:28:56.000Z</time>
      </trkpt>
      <trkpt lat="44.38626" lon="6.87471">
        <ele>2159.1999511719</ele>
        <time>2022-03-09T12:29:03.000Z</time>
      </trkpt>
      <trkpt lat="44.38625" lon="6.87468">
        <ele>2159.3999023438</ele>
        <time>2022-03-09T12:29:06.000Z</time>
      </trkpt>
      <trkpt lat="44.38625" lon="6.87466">
        <ele>2159.3999023438</ele>
        <time>2022-03-09T12:29:08.000Z</time>
      </trkpt>
      <trkpt lat="44.38624" lon="6.87463">
        <ele>2160.3999023438</ele>
        <time>2022-03-09T12:29:13.000Z</time>
      </trkpt>
      <trkpt lat="44.3862" lon="6.87455">
        <ele>2161.6000976562</ele>
        <time>2022-03-09T12:29:21.000Z</time>
      </trkpt>
      <trkpt lat="44.38619" lon="6.87452">
        <ele>2162</ele>
        <time>2022-03-09T12:29:25.000Z</time>
      </trkpt>
      <trkpt lat="44.38615" lon="6.87444">
        <ele>2162.3999023438</ele>
        <time>2022-03-09T12:29:33.000Z</time>
      </trkpt>
      <trkpt lat="44.38614" lon="6.87442">
        <ele>2162.3999023438</ele>
        <time>2022-03-09T12:29:35.000Z</time>
      </trkpt>
      <trkpt lat="44.38612" lon="6.87439">
        <ele>2162.6000976562</ele>
        <time>2022-03-09T12:29:39.000Z</time>
      </trkpt>
      <trkpt lat="44.38607" lon="6.87431">
        <ele>2163</ele>
        <time>2022-03-09T12:29:47.000Z</time>
      </trkpt>
      <trkpt lat="44.38602" lon="6.87421">
        <ele>2162.6000976562</ele>
        <time>2022-03-09T12:29:57.000Z</time>
      </trkpt>
      <trkpt lat="44.38602" lon="6.87416">
        <ele>2162.3999023438</ele>
        <time>2022-03-09T12:30:05.000Z</time>
      </trkpt>
      <trkpt lat="44.38604" lon="6.87411">
        <ele>2163.1999511719</ele>
        <time>2022-03-09T12:30:14.000Z</time>
      </trkpt>
      <trkpt lat="44.38603" lon="6.87409">
        <ele>2163.6000976562</ele>
        <time>2022-03-09T12:30:18.000Z</time>
      </trkpt>
      <trkpt lat="44.386" lon="6.87406">
        <ele>2164.3999023438</ele>
        <time>2022-03-09T12:30:24.000Z</time>
      </trkpt>
      <trkpt lat="44.38599" lon="6.87404">
        <ele>2164.6000976562</ele>
        <time>2022-03-09T12:30:26.000Z</time>
      </trkpt>
      <trkpt lat="44.38596" lon="6.874">
        <ele>2165.8000488281</ele>
        <time>2022-03-09T12:30:32.000Z</time>
      </trkpt>
      <trkpt lat="44.38594" lon="6.87398">
        <ele>2166.3999023438</ele>
        <time>2022-03-09T12:30:36.000Z</time>
      </trkpt>
      <trkpt lat="44.38592" lon="6.87397">
        <ele>2167</ele>
        <time>2022-03-09T12:30:41.000Z</time>
      </trkpt>
      <trkpt lat="44.38589" lon="6.87397">
        <ele>2168.1999511719</ele>
        <time>2022-03-09T12:30:45.000Z</time>
      </trkpt>
      <trkpt lat="44.38588" lon="6.87396">
        <ele>2168.6000976562</ele>
        <time>2022-03-09T12:30:47.000Z</time>
      </trkpt>
      <trkpt lat="44.38582" lon="6.87393">
        <ele>2169.1999511719</ele>
        <time>2022-03-09T12:30:57.000Z</time>
      </trkpt>
      <trkpt lat="44.3858" lon="6.87393">
        <ele>2169.6000976562</ele>
        <time>2022-03-09T12:30:59.000Z</time>
      </trkpt>
      <trkpt lat="44.38576" lon="6.8739">
        <ele>2170.3999023438</ele>
        <time>2022-03-09T12:31:05.000Z</time>
      </trkpt>
      <trkpt lat="44.38572" lon="6.87389">
        <ele>2171.3999023438</ele>
        <time>2022-03-09T12:31:11.000Z</time>
      </trkpt>
      <trkpt lat="44.38569" lon="6.87387">
        <ele>2172.3999023438</ele>
        <time>2022-03-09T12:31:18.000Z</time>
      </trkpt>
      <trkpt lat="44.38564" lon="6.87385">
        <ele>2173.1999511719</ele>
        <time>2022-03-09T12:31:25.000Z</time>
      </trkpt>
      <trkpt lat="44.38561" lon="6.87384">
        <ele>2173.6000976562</ele>
        <time>2022-03-09T12:31:30.000Z</time>
      </trkpt>
      <trkpt lat="44.38558" lon="6.87383">
        <ele>2174.8000488281</ele>
        <time>2022-03-09T12:31:36.000Z</time>
      </trkpt>
      <trkpt lat="44.38555" lon="6.87382">
        <ele>2175.8000488281</ele>
        <time>2022-03-09T12:31:46.000Z</time>
      </trkpt>
      <trkpt lat="44.38555" lon="6.87382">
        <ele>2176</ele>
        <time>2022-03-09T12:31:47.000Z</time>
      </trkpt>
      <trkpt lat="44.38552" lon="6.8738">
        <ele>2176.6000976562</ele>
        <time>2022-03-09T12:31:55.000Z</time>
      </trkpt>
      <trkpt lat="44.38551" lon="6.87379">
        <ele>2176.8000488281</ele>
        <time>2022-03-09T12:31:57.000Z</time>
      </trkpt>
      <trkpt lat="44.38549" lon="6.87376">
        <ele>2177.8000488281</ele>
        <time>2022-03-09T12:32:03.000Z</time>
      </trkpt>
      <trkpt lat="44.38549" lon="6.87375">
        <ele>2178</ele>
        <time>2022-03-09T12:32:04.000Z</time>
      </trkpt>
      <trkpt lat="44.38548" lon="6.87369">
        <ele>2179</ele>
        <time>2022-03-09T12:32:10.000Z</time>
      </trkpt>
      <trkpt lat="44.38547" lon="6.87368">
        <ele>2179.1999511719</ele>
        <time>2022-03-09T12:32:12.000Z</time>
      </trkpt>
      <trkpt lat="44.38542" lon="6.87361">
        <ele>2180</ele>
        <time>2022-03-09T12:32:21.000Z</time>
      </trkpt>
      <trkpt lat="44.38541" lon="6.87361">
        <ele>2180.1999511719</ele>
        <time>2022-03-09T12:32:22.000Z</time>
      </trkpt>
      <trkpt lat="44.38534" lon="6.87362">
        <ele>2181.3999023438</ele>
        <time>2022-03-09T12:32:30.000Z</time>
      </trkpt>
      <trkpt lat="44.38529" lon="6.87361">
        <ele>2182.3999023438</ele>
        <time>2022-03-09T12:32:38.000Z</time>
      </trkpt>
      <trkpt lat="44.38528" lon="6.87362">
        <ele>2182.6000976562</ele>
        <time>2022-03-09T12:32:40.000Z</time>
      </trkpt>
      <trkpt lat="44.38526" lon="6.87362">
        <ele>2183.3999023438</ele>
        <time>2022-03-09T12:32:44.000Z</time>
      </trkpt>
      <trkpt lat="44.38525" lon="6.87362">
        <ele>2183.8000488281</ele>
        <time>2022-03-09T12:32:46.000Z</time>
      </trkpt>
      <trkpt lat="44.38522" lon="6.87362">
        <ele>2184.1999511719</ele>
        <time>2022-03-09T12:32:50.000Z</time>
      </trkpt>
      <trkpt lat="44.38521" lon="6.87361">
        <ele>2184.6000976562</ele>
        <time>2022-03-09T12:32:52.000Z</time>
      </trkpt>
      <trkpt lat="44.38517" lon="6.8736">
        <ele>2185.1999511719</ele>
        <time>2022-03-09T12:32:58.000Z</time>
      </trkpt>
      <trkpt lat="44.38515" lon="6.87359">
        <ele>2186</ele>
        <time>2022-03-09T12:33:02.000Z</time>
      </trkpt>
      <trkpt lat="44.38514" lon="6.87358">
        <ele>2186.1999511719</ele>
        <time>2022-03-09T12:33:03.000Z</time>
      </trkpt>
      <trkpt lat="44.38513" lon="6.87355">
        <ele>2186.3999023438</ele>
        <time>2022-03-09T12:33:07.000Z</time>
      </trkpt>
      <trkpt lat="44.38516" lon="6.87348">
        <ele>2187</ele>
        <time>2022-03-09T12:33:16.000Z</time>
      </trkpt>
      <trkpt lat="44.38516" lon="6.87347">
        <ele>2187.1999511719</ele>
        <time>2022-03-09T12:33:17.000Z</time>
      </trkpt>
      <trkpt lat="44.38517" lon="6.87345">
        <ele>2188.1999511719</ele>
        <time>2022-03-09T12:33:23.000Z</time>
      </trkpt>
      <trkpt lat="44.38515" lon="6.87343">
        <ele>2189.3999023438</ele>
        <time>2022-03-09T12:33:27.000Z</time>
      </trkpt>
      <trkpt lat="44.38513" lon="6.87341">
        <ele>2190.3999023438</ele>
        <time>2022-03-09T12:33:32.000Z</time>
      </trkpt>
      <trkpt lat="44.38512" lon="6.8734">
        <ele>2190.3999023438</ele>
        <time>2022-03-09T12:33:33.000Z</time>
      </trkpt>
      <trkpt lat="44.3851" lon="6.87334">
        <ele>2191.1999511719</ele>
        <time>2022-03-09T12:33:43.000Z</time>
      </trkpt>
      <trkpt lat="44.38511" lon="6.87334">
        <ele>2191.6000976562</ele>
        <time>2022-03-09T12:33:44.000Z</time>
      </trkpt>
      <trkpt lat="44.38515" lon="6.87331">
        <ele>2192.6000976562</ele>
        <time>2022-03-09T12:33:52.000Z</time>
      </trkpt>
      <trkpt lat="44.38517" lon="6.8733">
        <ele>2193</ele>
        <time>2022-03-09T12:33:56.000Z</time>
      </trkpt>
      <trkpt lat="44.3852" lon="6.87329">
        <ele>2193.6000976562</ele>
        <time>2022-03-09T12:34:02.000Z</time>
      </trkpt>
      <trkpt lat="44.38521" lon="6.87327">
        <ele>2194</ele>
        <time>2022-03-09T12:34:06.000Z</time>
      </trkpt>
      <trkpt lat="44.38522" lon="6.87327">
        <ele>2194.8000488281</ele>
        <time>2022-03-09T12:34:09.000Z</time>
      </trkpt>
      <trkpt lat="44.3852" lon="6.87324">
        <ele>2195.6000976562</ele>
        <time>2022-03-09T12:34:13.000Z</time>
      </trkpt>
      <trkpt lat="44.38519" lon="6.87324">
        <ele>2195.8000488281</ele>
        <time>2022-03-09T12:34:15.000Z</time>
      </trkpt>
      <trkpt lat="44.38518" lon="6.87319">
        <ele>2196.6000976562</ele>
        <time>2022-03-09T12:34:23.000Z</time>
      </trkpt>
      <trkpt lat="44.38519" lon="6.87318">
        <ele>2196.8000488281</ele>
        <time>2022-03-09T12:34:24.000Z</time>
      </trkpt>
      <trkpt lat="44.38524" lon="6.87316">
        <ele>2197.8000488281</ele>
        <time>2022-03-09T12:34:34.000Z</time>
      </trkpt>
      <trkpt lat="44.38525" lon="6.87314">
        <ele>2198</ele>
        <time>2022-03-09T12:34:37.000Z</time>
      </trkpt>
      <trkpt lat="44.38528" lon="6.87311">
        <ele>2198.8000488281</ele>
        <time>2022-03-09T12:34:43.000Z</time>
      </trkpt>
      <trkpt lat="44.38528" lon="6.8731">
        <ele>2199</ele>
        <time>2022-03-09T12:34:44.000Z</time>
      </trkpt>
      <trkpt lat="44.3853" lon="6.87308">
        <ele>2200.1999511719</ele>
        <time>2022-03-09T12:34:51.000Z</time>
      </trkpt>
      <trkpt lat="44.3853" lon="6.87305">
        <ele>2201.6000976562</ele>
        <time>2022-03-09T12:34:56.000Z</time>
      </trkpt>
      <trkpt lat="44.38528" lon="6.87304">
        <ele>2202.6000976562</ele>
        <time>2022-03-09T12:35:01.000Z</time>
      </trkpt>
      <trkpt lat="44.38524" lon="6.873">
        <ele>2203.6000976562</ele>
        <time>2022-03-09T12:35:09.000Z</time>
      </trkpt>
      <trkpt lat="44.38517" lon="6.87297">
        <ele>2204.8000488281</ele>
        <time>2022-03-09T12:35:19.000Z</time>
      </trkpt>
      <trkpt lat="44.38516" lon="6.87296">
        <ele>2205</ele>
        <time>2022-03-09T12:35:21.000Z</time>
      </trkpt>
      <trkpt lat="44.38513" lon="6.87294">
        <ele>2205.8000488281</ele>
        <time>2022-03-09T12:35:25.000Z</time>
      </trkpt>
      <trkpt lat="44.38511" lon="6.8729">
        <ele>2206.6000976562</ele>
        <time>2022-03-09T12:35:32.000Z</time>
      </trkpt>
      <trkpt lat="44.3851" lon="6.8729">
        <ele>2207</ele>
        <time>2022-03-09T12:35:38.000Z</time>
      </trkpt>
      <trkpt lat="44.38507" lon="6.87286">
        <ele>2207.6000976562</ele>
        <time>2022-03-09T12:35:45.000Z</time>
      </trkpt>
      <trkpt lat="44.38506" lon="6.87284">
        <ele>2208</ele>
        <time>2022-03-09T12:35:47.000Z</time>
      </trkpt>
      <trkpt lat="44.38501" lon="6.87276">
        <ele>2208.6000976562</ele>
        <time>2022-03-09T12:35:58.000Z</time>
      </trkpt>
      <trkpt lat="44.38502" lon="6.8727">
        <ele>2209</ele>
        <time>2022-03-09T12:36:03.000Z</time>
      </trkpt>
      <trkpt lat="44.38504" lon="6.87265">
        <ele>2209.8000488281</ele>
        <time>2022-03-09T12:36:08.000Z</time>
      </trkpt>
      <trkpt lat="44.38506" lon="6.87263">
        <ele>2210.3999023438</ele>
        <time>2022-03-09T12:36:11.000Z</time>
      </trkpt>
      <trkpt lat="44.38509" lon="6.87262">
        <ele>2211.1999511719</ele>
        <time>2022-03-09T12:36:16.000Z</time>
      </trkpt>
      <trkpt lat="44.3851" lon="6.87262">
        <ele>2211.3999023438</ele>
        <time>2022-03-09T12:36:18.000Z</time>
      </trkpt>
      <trkpt lat="44.38514" lon="6.87258">
        <ele>2212.3999023438</ele>
        <time>2022-03-09T12:36:25.000Z</time>
      </trkpt>
      <trkpt lat="44.38513" lon="6.87258">
        <ele>2212.6000976562</ele>
        <time>2022-03-09T12:36:26.000Z</time>
      </trkpt>
      <trkpt lat="44.38513" lon="6.8726">
        <ele>2213</ele>
        <time>2022-03-09T12:36:33.000Z</time>
      </trkpt>
      <trkpt lat="44.38513" lon="6.8726">
        <ele>2213</ele>
        <time>2022-03-09T12:36:35.000Z</time>
      </trkpt>
      <trkpt lat="44.38513" lon="6.8726">
        <ele>2213.3999023438</ele>
        <time>2022-03-09T12:36:39.000Z</time>
      </trkpt>
      <trkpt lat="44.38513" lon="6.87259">
        <ele>2213.8000488281</ele>
        <time>2022-03-09T12:37:02.000Z</time>
      </trkpt>
      <trkpt lat="44.38513" lon="6.87258">
        <ele>2213.8000488281</ele>
        <time>2022-03-09T12:37:04.000Z</time>
      </trkpt>
      <trkpt lat="44.38518" lon="6.87254">
        <ele>2214.6000976562</ele>
        <time>2022-03-09T12:38:22.000Z</time>
      </trkpt>
      <trkpt lat="44.38518" lon="6.87254">
        <ele>2215</ele>
        <time>2022-03-09T12:38:28.000Z</time>
      </trkpt>
      <trkpt lat="44.38519" lon="6.87254">
        <ele>2215.8000488281</ele>
        <time>2022-03-09T12:38:32.000Z</time>
      </trkpt>
      <trkpt lat="44.38521" lon="6.8724">
        <ele>2216.6000976562</ele>
        <time>2022-03-09T12:38:40.000Z</time>
      </trkpt>
      <trkpt lat="44.38521" lon="6.87235">
        <ele>2216.8000488281</ele>
        <time>2022-03-09T12:38:42.000Z</time>
      </trkpt>
      <trkpt lat="44.38524" lon="6.8722">
        <ele>2217.8000488281</ele>
        <time>2022-03-09T12:38:53.000Z</time>
      </trkpt>
      <trkpt lat="44.38524" lon="6.8722">
        <ele>2218.1999511719</ele>
        <time>2022-03-09T12:38:54.000Z</time>
      </trkpt>
      <trkpt lat="44.38525" lon="6.87215">
        <ele>2218.8000488281</ele>
        <time>2022-03-09T12:38:59.000Z</time>
      </trkpt>
      <trkpt lat="44.38527" lon="6.87209">
        <ele>2219.1999511719</ele>
        <time>2022-03-09T12:39:06.000Z</time>
      </trkpt>
      <trkpt lat="44.38527" lon="6.87203">
        <ele>2220.1999511719</ele>
        <time>2022-03-09T12:39:14.000Z</time>
      </trkpt>
      <trkpt lat="44.38526" lon="6.87199">
        <ele>2220.3999023438</ele>
        <time>2022-03-09T12:39:18.000Z</time>
      </trkpt>
      <trkpt lat="44.38527" lon="6.87192">
        <ele>2221.3999023438</ele>
        <time>2022-03-09T12:39:25.000Z</time>
      </trkpt>
      <trkpt lat="44.38527" lon="6.87189">
        <ele>2221.8000488281</ele>
        <time>2022-03-09T12:39:28.000Z</time>
      </trkpt>
      <trkpt lat="44.38528" lon="6.87183">
        <ele>2222.6000976562</ele>
        <time>2022-03-09T12:39:35.000Z</time>
      </trkpt>
      <trkpt lat="44.38528" lon="6.87182">
        <ele>2222.6000976562</ele>
        <time>2022-03-09T12:39:37.000Z</time>
      </trkpt>
      <trkpt lat="44.38528" lon="6.87177">
        <ele>2223.6000976562</ele>
        <time>2022-03-09T12:39:44.000Z</time>
      </trkpt>
      <trkpt lat="44.38529" lon="6.87172">
        <ele>2224.1999511719</ele>
        <time>2022-03-09T12:39:48.000Z</time>
      </trkpt>
      <trkpt lat="44.38529" lon="6.87169">
        <ele>2224.6000976562</ele>
        <time>2022-03-09T12:39:51.000Z</time>
      </trkpt>
      <trkpt lat="44.3853" lon="6.87162">
        <ele>2225.6000976562</ele>
        <time>2022-03-09T12:39:58.000Z</time>
      </trkpt>
      <trkpt lat="44.3853" lon="6.87161">
        <ele>2225.6000976562</ele>
        <time>2022-03-09T12:39:59.000Z</time>
      </trkpt>
      <trkpt lat="44.38529" lon="6.87159">
        <ele>2226</ele>
        <time>2022-03-09T12:40:01.000Z</time>
      </trkpt>
      <trkpt lat="44.38528" lon="6.87157">
        <ele>2226.6000976562</ele>
        <time>2022-03-09T12:40:03.000Z</time>
      </trkpt>
      <trkpt lat="44.38525" lon="6.87152">
        <ele>2227.6000976562</ele>
        <time>2022-03-09T12:40:10.000Z</time>
      </trkpt>
      <trkpt lat="44.38525" lon="6.87151">
        <ele>2227.8000488281</ele>
        <time>2022-03-09T12:40:11.000Z</time>
      </trkpt>
      <trkpt lat="44.38523" lon="6.87144">
        <ele>2229</ele>
        <time>2022-03-09T12:40:19.000Z</time>
      </trkpt>
      <trkpt lat="44.38523" lon="6.87143">
        <ele>2229</ele>
        <time>2022-03-09T12:40:20.000Z</time>
      </trkpt>
      <trkpt lat="44.38527" lon="6.87132">
        <ele>2230.1999511719</ele>
        <time>2022-03-09T12:40:32.000Z</time>
      </trkpt>
      <trkpt lat="44.38527" lon="6.87131">
        <ele>2230.1999511719</ele>
        <time>2022-03-09T12:40:33.000Z</time>
      </trkpt>
      <trkpt lat="44.3853" lon="6.87124">
        <ele>2231.1999511719</ele>
        <time>2022-03-09T12:40:42.000Z</time>
      </trkpt>
      <trkpt lat="44.38529" lon="6.87123">
        <ele>2231.1999511719</ele>
        <time>2022-03-09T12:40:43.000Z</time>
      </trkpt>
      <trkpt lat="44.3853" lon="6.87116">
        <ele>2232.3999023438</ele>
        <time>2022-03-09T12:40:51.000Z</time>
      </trkpt>
      <trkpt lat="44.38529" lon="6.87112">
        <ele>2233.1999511719</ele>
        <time>2022-03-09T12:40:56.000Z</time>
      </trkpt>
      <trkpt lat="44.38527" lon="6.87109">
        <ele>2233.6000976562</ele>
        <time>2022-03-09T12:41:00.000Z</time>
      </trkpt>
      <trkpt lat="44.38526" lon="6.87103">
        <ele>2234.6000976562</ele>
        <time>2022-03-09T12:41:07.000Z</time>
      </trkpt>
      <trkpt lat="44.38525" lon="6.87098">
        <ele>2235.6000976562</ele>
        <time>2022-03-09T12:41:12.000Z</time>
      </trkpt>
      <trkpt lat="44.38525" lon="6.87097">
        <ele>2235.6000976562</ele>
        <time>2022-03-09T12:41:13.000Z</time>
      </trkpt>
      <trkpt lat="44.38524" lon="6.87093">
        <ele>2236</ele>
        <time>2022-03-09T12:41:17.000Z</time>
      </trkpt>
      <trkpt lat="44.38524" lon="6.87088">
        <ele>2236.8000488281</ele>
        <time>2022-03-09T12:41:21.000Z</time>
      </trkpt>
      <trkpt lat="44.38524" lon="6.8708">
        <ele>2237.6000976562</ele>
        <time>2022-03-09T12:41:30.000Z</time>
      </trkpt>
      <trkpt lat="44.38523" lon="6.87077">
        <ele>2237.8000488281</ele>
        <time>2022-03-09T12:41:34.000Z</time>
      </trkpt>
      <trkpt lat="44.38522" lon="6.87075">
        <ele>2238</ele>
        <time>2022-03-09T12:41:36.000Z</time>
      </trkpt>
      <trkpt lat="44.38522" lon="6.8707">
        <ele>2238.6000976562</ele>
        <time>2022-03-09T12:41:41.000Z</time>
      </trkpt>
      <trkpt lat="44.38521" lon="6.87069">
        <ele>2238.8000488281</ele>
        <time>2022-03-09T12:41:42.000Z</time>
      </trkpt>
      <trkpt lat="44.38522" lon="6.87064">
        <ele>2239.8000488281</ele>
        <time>2022-03-09T12:41:47.000Z</time>
      </trkpt>
      <trkpt lat="44.38522" lon="6.87062">
        <ele>2240</ele>
        <time>2022-03-09T12:41:49.000Z</time>
      </trkpt>
      <trkpt lat="44.38524" lon="6.87054">
        <ele>2240.3999023438</ele>
        <time>2022-03-09T12:41:58.000Z</time>
      </trkpt>
      <trkpt lat="44.38526" lon="6.87049">
        <ele>2240.8000488281</ele>
        <time>2022-03-09T12:42:03.000Z</time>
      </trkpt>
      <trkpt lat="44.38527" lon="6.87044">
        <ele>2242</ele>
        <time>2022-03-09T12:42:08.000Z</time>
      </trkpt>
      <trkpt lat="44.38528" lon="6.87038">
        <ele>2243.1999511719</ele>
        <time>2022-03-09T12:42:16.000Z</time>
      </trkpt>
      <trkpt lat="44.38528" lon="6.87037">
        <ele>2243.3999023438</ele>
        <time>2022-03-09T12:42:17.000Z</time>
      </trkpt>
      <trkpt lat="44.38528" lon="6.87034">
        <ele>2244.1999511719</ele>
        <time>2022-03-09T12:42:21.000Z</time>
      </trkpt>
      <trkpt lat="44.38528" lon="6.8703">
        <ele>2245</ele>
        <time>2022-03-09T12:42:26.000Z</time>
      </trkpt>
      <trkpt lat="44.38527" lon="6.87027">
        <ele>2245.3999023438</ele>
        <time>2022-03-09T12:42:29.000Z</time>
      </trkpt>
      <trkpt lat="44.38527" lon="6.87026">
        <ele>2245.6000976562</ele>
        <time>2022-03-09T12:42:30.000Z</time>
      </trkpt>
      <trkpt lat="44.38526" lon="6.87022">
        <ele>2246.3999023438</ele>
        <time>2022-03-09T12:42:36.000Z</time>
      </trkpt>
      <trkpt lat="44.38526" lon="6.87022">
        <ele>2246.6000976562</ele>
        <time>2022-03-09T12:42:37.000Z</time>
      </trkpt>
      <trkpt lat="44.38524" lon="6.87016">
        <ele>2247.6000976562</ele>
        <time>2022-03-09T12:42:44.000Z</time>
      </trkpt>
      <trkpt lat="44.38525" lon="6.87012">
        <ele>2248.3999023438</ele>
        <time>2022-03-09T12:42:49.000Z</time>
      </trkpt>
      <trkpt lat="44.38525" lon="6.87011">
        <ele>2248.6000976562</ele>
        <time>2022-03-09T12:42:50.000Z</time>
      </trkpt>
      <trkpt lat="44.38525" lon="6.87006">
        <ele>2249.8000488281</ele>
        <time>2022-03-09T12:42:55.000Z</time>
      </trkpt>
      <trkpt lat="44.38524" lon="6.87003">
        <ele>2250</ele>
        <time>2022-03-09T12:42:59.000Z</time>
      </trkpt>
      <trkpt lat="44.38522" lon="6.86996">
        <ele>2250.8000488281</ele>
        <time>2022-03-09T12:43:08.000Z</time>
      </trkpt>
      <trkpt lat="44.38521" lon="6.86994">
        <ele>2251.1999511719</ele>
        <time>2022-03-09T12:43:10.000Z</time>
      </trkpt>
      <trkpt lat="44.3852" lon="6.86984">
        <ele>2251.8000488281</ele>
        <time>2022-03-09T12:43:20.000Z</time>
      </trkpt>
      <trkpt lat="44.38521" lon="6.86983">
        <ele>2252</ele>
        <time>2022-03-09T12:43:21.000Z</time>
      </trkpt>
      <trkpt lat="44.38523" lon="6.86979">
        <ele>2253</ele>
        <time>2022-03-09T12:43:27.000Z</time>
      </trkpt>
      <trkpt lat="44.38524" lon="6.86978">
        <ele>2253.1999511719</ele>
        <time>2022-03-09T12:43:30.000Z</time>
      </trkpt>
      <trkpt lat="44.38526" lon="6.86974">
        <ele>2254</ele>
        <time>2022-03-09T12:43:36.000Z</time>
      </trkpt>
      <trkpt lat="44.38527" lon="6.86972">
        <ele>2254.3999023438</ele>
        <time>2022-03-09T12:43:39.000Z</time>
      </trkpt>
      <trkpt lat="44.38529" lon="6.86967">
        <ele>2255</ele>
        <time>2022-03-09T12:43:44.000Z</time>
      </trkpt>
      <trkpt lat="44.38531" lon="6.86963">
        <ele>2256.1999511719</ele>
        <time>2022-03-09T12:43:50.000Z</time>
      </trkpt>
      <trkpt lat="44.38531" lon="6.86963">
        <ele>2256.6000976562</ele>
        <time>2022-03-09T12:43:51.000Z</time>
      </trkpt>
      <trkpt lat="44.3853" lon="6.86961">
        <ele>2257.1999511719</ele>
        <time>2022-03-09T12:43:55.000Z</time>
      </trkpt>
      <trkpt lat="44.38529" lon="6.8696">
        <ele>2257.8000488281</ele>
        <time>2022-03-09T12:43:58.000Z</time>
      </trkpt>
      <trkpt lat="44.38528" lon="6.8696">
        <ele>2258.1999511719</ele>
        <time>2022-03-09T12:44:02.000Z</time>
      </trkpt>
      <trkpt lat="44.38523" lon="6.8696">
        <ele>2258.8000488281</ele>
        <time>2022-03-09T12:44:07.000Z</time>
      </trkpt>
      <trkpt lat="44.38522" lon="6.86959">
        <ele>2259.6000976562</ele>
        <time>2022-03-09T12:44:09.000Z</time>
      </trkpt>
      <trkpt lat="44.38519" lon="6.86958">
        <ele>2260.6000976562</ele>
        <time>2022-03-09T12:44:15.000Z</time>
      </trkpt>
      <trkpt lat="44.38518" lon="6.86957">
        <ele>2260.6000976562</ele>
        <time>2022-03-09T12:44:17.000Z</time>
      </trkpt>
      <trkpt lat="44.38515" lon="6.86955">
        <ele>2261.1999511719</ele>
        <time>2022-03-09T12:44:23.000Z</time>
      </trkpt>
      <trkpt lat="44.38514" lon="6.86952">
        <ele>2261.6000976562</ele>
        <time>2022-03-09T12:44:28.000Z</time>
      </trkpt>
      <trkpt lat="44.38515" lon="6.8695">
        <ele>2262</ele>
        <time>2022-03-09T12:44:31.000Z</time>
      </trkpt>
      <trkpt lat="44.38517" lon="6.86948">
        <ele>2262.8000488281</ele>
        <time>2022-03-09T12:44:37.000Z</time>
      </trkpt>
      <trkpt lat="44.38519" lon="6.86947">
        <ele>2263.3999023438</ele>
        <time>2022-03-09T12:44:40.000Z</time>
      </trkpt>
      <trkpt lat="44.3852" lon="6.86947">
        <ele>2264</ele>
        <time>2022-03-09T12:44:44.000Z</time>
      </trkpt>
      <trkpt lat="44.38522" lon="6.86944">
        <ele>2264.8000488281</ele>
        <time>2022-03-09T12:44:51.000Z</time>
      </trkpt>
      <trkpt lat="44.38522" lon="6.86944">
        <ele>2265</ele>
        <time>2022-03-09T12:44:52.000Z</time>
      </trkpt>
      <trkpt lat="44.38523" lon="6.86943">
        <ele>2265.6000976562</ele>
        <time>2022-03-09T12:44:59.000Z</time>
      </trkpt>
      <trkpt lat="44.38525" lon="6.86942">
        <ele>2266.1999511719</ele>
        <time>2022-03-09T12:45:03.000Z</time>
      </trkpt>
      <trkpt lat="44.38527" lon="6.8694">
        <ele>2266.8000488281</ele>
        <time>2022-03-09T12:45:10.000Z</time>
      </trkpt>
      <trkpt lat="44.38527" lon="6.86939">
        <ele>2267.1999511719</ele>
        <time>2022-03-09T12:45:15.000Z</time>
      </trkpt>
      <trkpt lat="44.38527" lon="6.86939">
        <ele>2267.3999023438</ele>
        <time>2022-03-09T12:45:18.000Z</time>
      </trkpt>
      <trkpt lat="44.38527" lon="6.86939">
        <ele>2268.1999511719</ele>
        <time>2022-03-09T12:45:23.000Z</time>
      </trkpt>
      <trkpt lat="44.38527" lon="6.86939">
        <ele>2269.1999511719</ele>
        <time>2022-03-09T12:45:29.000Z</time>
      </trkpt>
      <trkpt lat="44.3852" lon="6.86937">
        <ele>2270</ele>
        <time>2022-03-09T12:45:47.000Z</time>
      </trkpt>
      <trkpt lat="44.38518" lon="6.86936">
        <ele>2270.3999023438</ele>
        <time>2022-03-09T12:45:57.000Z</time>
      </trkpt>
      <trkpt lat="44.38517" lon="6.86935">
        <ele>2271.3999023438</ele>
        <time>2022-03-09T12:46:05.000Z</time>
      </trkpt>
      <trkpt lat="44.38518" lon="6.86931">
        <ele>2272.6000976562</ele>
        <time>2022-03-09T12:46:14.000Z</time>
      </trkpt>
      <trkpt lat="44.3852" lon="6.8693">
        <ele>2273.6000976562</ele>
        <time>2022-03-09T12:46:18.000Z</time>
      </trkpt>
      <trkpt lat="44.38526" lon="6.86925">
        <ele>2274.6000976562</ele>
        <time>2022-03-09T12:46:28.000Z</time>
      </trkpt>
      <trkpt lat="44.38527" lon="6.86923">
        <ele>2275.8000488281</ele>
        <time>2022-03-09T12:46:35.000Z</time>
      </trkpt>
      <trkpt lat="44.38527" lon="6.86922">
        <ele>2276.8000488281</ele>
        <time>2022-03-09T12:46:42.000Z</time>
      </trkpt>
      <trkpt lat="44.38521" lon="6.86918">
        <ele>2278</ele>
        <time>2022-03-09T12:46:58.000Z</time>
      </trkpt>
      <trkpt lat="44.38518" lon="6.86914">
        <ele>2279</ele>
        <time>2022-03-09T12:47:07.000Z</time>
      </trkpt>
      <trkpt lat="44.38518" lon="6.86912">
        <ele>2280</ele>
        <time>2022-03-09T12:47:15.000Z</time>
      </trkpt>
      <trkpt lat="44.38518" lon="6.86909">
        <ele>2281.1999511719</ele>
        <time>2022-03-09T12:47:22.000Z</time>
      </trkpt>
      <trkpt lat="44.3852" lon="6.86907">
        <ele>2282.3999023438</ele>
        <time>2022-03-09T12:47:29.000Z</time>
      </trkpt>
      <trkpt lat="44.38523" lon="6.86905">
        <ele>2283.3999023438</ele>
        <time>2022-03-09T12:47:35.000Z</time>
      </trkpt>
      <trkpt lat="44.38528" lon="6.86901">
        <ele>2284.3999023438</ele>
        <time>2022-03-09T12:47:46.000Z</time>
      </trkpt>
      <trkpt lat="44.3853" lon="6.86898">
        <ele>2285.3999023438</ele>
        <time>2022-03-09T12:47:57.000Z</time>
      </trkpt>
      <trkpt lat="44.3853" lon="6.86898">
        <ele>2286.6000976562</ele>
        <time>2022-03-09T12:48:02.000Z</time>
      </trkpt>
      <trkpt lat="44.3853" lon="6.86896">
        <ele>2287.6000976562</ele>
        <time>2022-03-09T12:48:17.000Z</time>
      </trkpt>
      <trkpt lat="44.38529" lon="6.86894">
        <ele>2288.8000488281</ele>
        <time>2022-03-09T12:48:23.000Z</time>
      </trkpt>
      <trkpt lat="44.38526" lon="6.86893">
        <ele>2289.8000488281</ele>
        <time>2022-03-09T12:48:58.000Z</time>
      </trkpt>
      <trkpt lat="44.38526" lon="6.86893">
        <ele>2291</ele>
        <time>2022-03-09T12:49:07.000Z</time>
      </trkpt>
      <trkpt lat="44.38526" lon="6.86893">
        <ele>2292</ele>
        <time>2022-03-09T12:49:14.000Z</time>
      </trkpt>
      <trkpt lat="44.38526" lon="6.86893">
        <ele>2293</ele>
        <time>2022-03-09T12:49:22.000Z</time>
      </trkpt>
      <trkpt lat="44.38526" lon="6.86892">
        <ele>2294.1999511719</ele>
        <time>2022-03-09T12:49:29.000Z</time>
      </trkpt>
      <trkpt lat="44.38525" lon="6.86892">
        <ele>2295.1999511719</ele>
        <time>2022-03-09T12:49:49.000Z</time>
      </trkpt>
      <trkpt lat="44.38525" lon="6.86892">
        <ele>2296.1999511719</ele>
        <time>2022-03-09T12:49:55.000Z</time>
      </trkpt>
      <trkpt lat="44.38525" lon="6.86892">
        <ele>2297.3999023438</ele>
        <time>2022-03-09T12:50:02.000Z</time>
      </trkpt>
      <trkpt lat="44.38525" lon="6.86891">
        <ele>2298.3999023438</ele>
        <time>2022-03-09T12:50:15.000Z</time>
      </trkpt>
      <trkpt lat="44.38525" lon="6.86891">
        <ele>2299.3999023438</ele>
        <time>2022-03-09T12:50:27.000Z</time>
      </trkpt>
      <trkpt lat="44.38525" lon="6.8689">
        <ele>2300.6000976562</ele>
        <time>2022-03-09T12:50:34.000Z</time>
      </trkpt>
      <trkpt lat="44.38518" lon="6.86871">
        <ele>2301.6000976562</ele>
        <time>2022-03-09T12:50:52.000Z</time>
      </trkpt>
      <trkpt lat="44.38517" lon="6.86868">
        <ele>2302</ele>
        <time>2022-03-09T12:50:53.000Z</time>
      </trkpt>
      <trkpt lat="44.38514" lon="6.86856">
        <ele>2302.8000488281</ele>
        <time>2022-03-09T12:50:56.000Z</time>
      </trkpt>
      <trkpt lat="44.38513" lon="6.86852">
        <ele>2303.6000976562</ele>
        <time>2022-03-09T12:51:01.000Z</time>
      </trkpt>
      <trkpt lat="44.38514" lon="6.86852">
        <ele>2303.8000488281</ele>
        <time>2022-03-09T12:51:02.000Z</time>
      </trkpt>
      <trkpt lat="44.38513" lon="6.86852">
        <ele>2304</ele>
        <time>2022-03-09T12:51:03.000Z</time>
      </trkpt>
      <trkpt lat="44.38513" lon="6.86852">
        <ele>2305</ele>
        <time>2022-03-09T12:51:10.000Z</time>
      </trkpt>
      <trkpt lat="44.38513" lon="6.86852">
        <ele>2306</ele>
        <time>2022-03-09T12:51:14.000Z</time>
      </trkpt>
      <trkpt lat="44.38512" lon="6.86852">
        <ele>2306</ele>
        <time>2022-03-09T12:51:16.000Z</time>
      </trkpt>
      <trkpt lat="44.38506" lon="6.86849">
        <ele>2306.6000976562</ele>
        <time>2022-03-09T12:51:21.000Z</time>
      </trkpt>
      <trkpt lat="44.38504" lon="6.86848">
        <ele>2307.1999511719</ele>
        <time>2022-03-09T12:51:23.000Z</time>
      </trkpt>
      <trkpt lat="44.385" lon="6.86847">
        <ele>2307.8000488281</ele>
        <time>2022-03-09T12:51:29.000Z</time>
      </trkpt>
      <trkpt lat="44.38499" lon="6.86844">
        <ele>2308.1999511719</ele>
        <time>2022-03-09T12:51:36.000Z</time>
      </trkpt>
      <trkpt lat="44.38499" lon="6.86844">
        <ele>2308.1999511719</ele>
        <time>2022-03-09T12:51:37.000Z</time>
      </trkpt>
      <trkpt lat="44.38503" lon="6.86839">
        <ele>2309.1999511719</ele>
        <time>2022-03-09T12:51:45.000Z</time>
      </trkpt>
      <trkpt lat="44.38504" lon="6.86838">
        <ele>2309.1999511719</ele>
        <time>2022-03-09T12:51:47.000Z</time>
      </trkpt>
      <trkpt lat="44.38505" lon="6.86837">
        <ele>2310.3999023438</ele>
        <time>2022-03-09T12:51:54.000Z</time>
      </trkpt>
      <trkpt lat="44.38502" lon="6.86834">
        <ele>2311.3999023438</ele>
        <time>2022-03-09T12:52:02.000Z</time>
      </trkpt>
      <trkpt lat="44.385" lon="6.86833">
        <ele>2312.6000976562</ele>
        <time>2022-03-09T12:52:07.000Z</time>
      </trkpt>
      <trkpt lat="44.38498" lon="6.86833">
        <ele>2313.3999023438</ele>
        <time>2022-03-09T12:52:12.000Z</time>
      </trkpt>
      <trkpt lat="44.38498" lon="6.86833">
        <ele>2313.3999023438</ele>
        <time>2022-03-09T12:52:13.000Z</time>
      </trkpt>
      <trkpt lat="44.38497" lon="6.86831">
        <ele>2313.3999023438</ele>
        <time>2022-03-09T12:52:19.000Z</time>
      </trkpt>
      <trkpt lat="44.38499" lon="6.86826">
        <ele>2313.3999023438</ele>
        <time>2022-03-09T12:52:26.000Z</time>
      </trkpt>
      <trkpt lat="44.38499" lon="6.86825">
        <ele>2313.6000976562</ele>
        <time>2022-03-09T12:52:27.000Z</time>
      </trkpt>
      <trkpt lat="44.38501" lon="6.86823">
        <ele>2314.8000488281</ele>
        <time>2022-03-09T12:52:32.000Z</time>
      </trkpt>
      <trkpt lat="44.38504" lon="6.8682">
        <ele>2315.3999023438</ele>
        <time>2022-03-09T12:52:37.000Z</time>
      </trkpt>
      <trkpt lat="44.38505" lon="6.86818">
        <ele>2315.8000488281</ele>
        <time>2022-03-09T12:52:40.000Z</time>
      </trkpt>
      <trkpt lat="44.38507" lon="6.86813">
        <ele>2317</ele>
        <time>2022-03-09T12:52:47.000Z</time>
      </trkpt>
      <trkpt lat="44.38507" lon="6.86812">
        <ele>2317.1999511719</ele>
        <time>2022-03-09T12:52:49.000Z</time>
      </trkpt>
      <trkpt lat="44.38508" lon="6.86812">
        <ele>2317.3999023438</ele>
        <time>2022-03-09T12:52:51.000Z</time>
      </trkpt>
      <trkpt lat="44.38507" lon="6.86812">
        <ele>2318</ele>
        <time>2022-03-09T12:52:54.000Z</time>
      </trkpt>
      <trkpt lat="44.38505" lon="6.8681">
        <ele>2319.1999511719</ele>
        <time>2022-03-09T12:53:00.000Z</time>
      </trkpt>
      <trkpt lat="44.38501" lon="6.86808">
        <ele>2319.8000488281</ele>
        <time>2022-03-09T12:53:06.000Z</time>
      </trkpt>
      <trkpt lat="44.385" lon="6.86807">
        <ele>2320.1999511719</ele>
        <time>2022-03-09T12:53:08.000Z</time>
      </trkpt>
      <trkpt lat="44.38495" lon="6.86807">
        <ele>2321.3999023438</ele>
        <time>2022-03-09T12:53:16.000Z</time>
      </trkpt>
      <trkpt lat="44.38493" lon="6.86807">
        <ele>2322</ele>
        <time>2022-03-09T12:53:18.000Z</time>
      </trkpt>
      <trkpt lat="44.38493" lon="6.86807">
        <ele>2322.3999023438</ele>
        <time>2022-03-09T12:53:19.000Z</time>
      </trkpt>
      <trkpt lat="44.38487" lon="6.86805">
        <ele>2323.6000976562</ele>
        <time>2022-03-09T12:53:28.000Z</time>
      </trkpt>
      <trkpt lat="44.38486" lon="6.86804">
        <ele>2323.8000488281</ele>
        <time>2022-03-09T12:53:30.000Z</time>
      </trkpt>
      <trkpt lat="44.38485" lon="6.86804">
        <ele>2323.8000488281</ele>
        <time>2022-03-09T12:53:31.000Z</time>
      </trkpt>
      <trkpt lat="44.3848" lon="6.86801">
        <ele>2324.8000488281</ele>
        <time>2022-03-09T12:53:40.000Z</time>
      </trkpt>
      <trkpt lat="44.38479" lon="6.86799">
        <ele>2325.1999511719</ele>
        <time>2022-03-09T12:53:44.000Z</time>
      </trkpt>
      <trkpt lat="44.38478" lon="6.86797">
        <ele>2325.3999023438</ele>
        <time>2022-03-09T12:53:46.000Z</time>
      </trkpt>
      <trkpt lat="44.38477" lon="6.86794">
        <ele>2325.8000488281</ele>
        <time>2022-03-09T12:53:50.000Z</time>
      </trkpt>
      <trkpt lat="44.38476" lon="6.86791">
        <ele>2327</ele>
        <time>2022-03-09T12:53:54.000Z</time>
      </trkpt>
      <trkpt lat="44.38476" lon="6.86786">
        <ele>2327.6000976562</ele>
        <time>2022-03-09T12:54:01.000Z</time>
      </trkpt>
      <trkpt lat="44.38478" lon="6.86785">
        <ele>2328.1999511719</ele>
        <time>2022-03-09T12:54:03.000Z</time>
      </trkpt>
      <trkpt lat="44.3848" lon="6.86784">
        <ele>2328.6000976562</ele>
        <time>2022-03-09T12:54:08.000Z</time>
      </trkpt>
      <trkpt lat="44.38482" lon="6.86782">
        <ele>2329.1999511719</ele>
        <time>2022-03-09T12:54:11.000Z</time>
      </trkpt>
      <trkpt lat="44.38485" lon="6.86778">
        <ele>2330.3999023438</ele>
        <time>2022-03-09T12:54:18.000Z</time>
      </trkpt>
      <trkpt lat="44.38486" lon="6.86776">
        <ele>2331</ele>
        <time>2022-03-09T12:54:22.000Z</time>
      </trkpt>
      <trkpt lat="44.38487" lon="6.86774">
        <ele>2331.6000976562</ele>
        <time>2022-03-09T12:54:24.000Z</time>
      </trkpt>
      <trkpt lat="44.38489" lon="6.86774">
        <ele>2332.3999023438</ele>
        <time>2022-03-09T12:54:28.000Z</time>
      </trkpt>
      <trkpt lat="44.3849" lon="6.86771">
        <ele>2332.6000976562</ele>
        <time>2022-03-09T12:54:30.000Z</time>
      </trkpt>
      <trkpt lat="44.38492" lon="6.86768">
        <ele>2333.1999511719</ele>
        <time>2022-03-09T12:54:36.000Z</time>
      </trkpt>
      <trkpt lat="44.38492" lon="6.86767">
        <ele>2334</ele>
        <time>2022-03-09T12:54:38.000Z</time>
      </trkpt>
      <trkpt lat="44.38494" lon="6.86763">
        <ele>2335.1999511719</ele>
        <time>2022-03-09T12:54:45.000Z</time>
      </trkpt>
      <trkpt lat="44.38491" lon="6.86763">
        <ele>2336.3999023438</ele>
        <time>2022-03-09T12:54:51.000Z</time>
      </trkpt>
      <trkpt lat="44.3849" lon="6.86762">
        <ele>2337.1999511719</ele>
        <time>2022-03-09T12:54:54.000Z</time>
      </trkpt>
      <trkpt lat="44.3849" lon="6.86761">
        <ele>2337.6000976562</ele>
        <time>2022-03-09T12:54:55.000Z</time>
      </trkpt>
      <trkpt lat="44.38489" lon="6.86757">
        <ele>2337.8000488281</ele>
        <time>2022-03-09T12:55:02.000Z</time>
      </trkpt>
      <trkpt lat="44.38489" lon="6.86756">
        <ele>2338.6000976562</ele>
        <time>2022-03-09T12:55:08.000Z</time>
      </trkpt>
      <trkpt lat="44.38489" lon="6.86757">
        <ele>2338.8000488281</ele>
        <time>2022-03-09T12:55:09.000Z</time>
      </trkpt>
      <trkpt lat="44.38488" lon="6.86757">
        <ele>2339.1999511719</ele>
        <time>2022-03-09T12:55:18.000Z</time>
      </trkpt>
      <trkpt lat="44.38488" lon="6.86759">
        <ele>2337.8000488281</ele>
        <time>2022-03-09T12:55:45.000Z</time>
      </trkpt>
      <trkpt lat="44.38493" lon="6.86757">
        <ele>2337.8000488281</ele>
        <time>2022-03-09T12:56:34.000Z</time>
      </trkpt>
      <trkpt lat="44.38489" lon="6.86756">
        <ele>2338.8000488281</ele>
        <time>2022-03-09T12:57:50.000Z</time>
      </trkpt>
      <trkpt lat="44.38488" lon="6.86755">
        <ele>2337.6000976562</ele>
        <time>2022-03-09T12:58:08.000Z</time>
      </trkpt>
      <trkpt lat="44.38487" lon="6.86755">
        <ele>2338.6000976562</ele>
        <time>2022-03-09T12:58:17.000Z</time>
      </trkpt>
      <trkpt lat="44.38487" lon="6.86755">
        <ele>2337.6000976562</ele>
        <time>2022-03-09T12:58:32.000Z</time>
      </trkpt>
      <trkpt lat="44.38491" lon="6.86745">
        <ele>2339</ele>
        <time>2022-03-09T12:58:45.000Z</time>
      </trkpt>
      <trkpt lat="44.38491" lon="6.86743">
        <ele>2339.1999511719</ele>
        <time>2022-03-09T12:58:46.000Z</time>
      </trkpt>
      <trkpt lat="44.38494" lon="6.86737">
        <ele>2340</ele>
        <time>2022-03-09T12:58:51.000Z</time>
      </trkpt>
      <trkpt lat="44.38495" lon="6.86734">
        <ele>2340.3999023438</ele>
        <time>2022-03-09T12:58:55.000Z</time>
      </trkpt>
      <trkpt lat="44.38496" lon="6.86732">
        <ele>2341</ele>
        <time>2022-03-09T12:58:59.000Z</time>
      </trkpt>
      <trkpt lat="44.385" lon="6.8673">
        <ele>2342.1999511719</ele>
        <time>2022-03-09T12:59:06.000Z</time>
      </trkpt>
      <trkpt lat="44.38502" lon="6.86729">
        <ele>2342.3999023438</ele>
        <time>2022-03-09T12:59:08.000Z</time>
      </trkpt>
      <trkpt lat="44.38504" lon="6.86728">
        <ele>2343.3999023438</ele>
        <time>2022-03-09T12:59:12.000Z</time>
      </trkpt>
      <trkpt lat="44.38507" lon="6.86727">
        <ele>2344.3999023438</ele>
        <time>2022-03-09T12:59:18.000Z</time>
      </trkpt>
      <trkpt lat="44.38508" lon="6.86726">
        <ele>2344.6000976562</ele>
        <time>2022-03-09T12:59:20.000Z</time>
      </trkpt>
      <trkpt lat="44.3851" lon="6.86724">
        <ele>2345</ele>
        <time>2022-03-09T12:59:24.000Z</time>
      </trkpt>
      <trkpt lat="44.38512" lon="6.86724">
        <ele>2345.3999023438</ele>
        <time>2022-03-09T12:59:27.000Z</time>
      </trkpt>
      <trkpt lat="44.38513" lon="6.86722">
        <ele>2346</ele>
        <time>2022-03-09T12:59:31.000Z</time>
      </trkpt>
      <trkpt lat="44.38515" lon="6.8672">
        <ele>2346.6000976562</ele>
        <time>2022-03-09T12:59:35.000Z</time>
      </trkpt>
      <trkpt lat="44.38517" lon="6.86718">
        <ele>2347.6000976562</ele>
        <time>2022-03-09T12:59:40.000Z</time>
      </trkpt>
      <trkpt lat="44.38521" lon="6.86715">
        <ele>2348.6000976562</ele>
        <time>2022-03-09T12:59:48.000Z</time>
      </trkpt>
      <trkpt lat="44.38521" lon="6.86715">
        <ele>2349.1999511719</ele>
        <time>2022-03-09T12:59:52.000Z</time>
      </trkpt>
      <trkpt lat="44.38522" lon="6.86712">
        <ele>2349.8000488281</ele>
        <time>2022-03-09T12:59:59.000Z</time>
      </trkpt>
      <trkpt lat="44.38522" lon="6.86712">
        <ele>2350</ele>
        <time>2022-03-09T13:00:00.000Z</time>
      </trkpt>
      <trkpt lat="44.38524" lon="6.86708">
        <ele>2351</ele>
        <time>2022-03-09T13:00:07.000Z</time>
      </trkpt>
      <trkpt lat="44.38525" lon="6.86707">
        <ele>2351.1999511719</ele>
        <time>2022-03-09T13:00:10.000Z</time>
      </trkpt>
      <trkpt lat="44.38527" lon="6.86704">
        <ele>2352</ele>
        <time>2022-03-09T13:00:16.000Z</time>
      </trkpt>
      <trkpt lat="44.38528" lon="6.86699">
        <ele>2352.8000488281</ele>
        <time>2022-03-09T13:00:25.000Z</time>
      </trkpt>
      <trkpt lat="44.38529" lon="6.86698">
        <ele>2353.1999511719</ele>
        <time>2022-03-09T13:00:26.000Z</time>
      </trkpt>
      <trkpt lat="44.38529" lon="6.86696">
        <ele>2354.6000976562</ele>
        <time>2022-03-09T13:00:29.000Z</time>
      </trkpt>
      <trkpt lat="44.38528" lon="6.86692">
        <ele>2355.6000976562</ele>
        <time>2022-03-09T13:00:35.000Z</time>
      </trkpt>
      <trkpt lat="44.38527" lon="6.8669">
        <ele>2356</ele>
        <time>2022-03-09T13:00:38.000Z</time>
      </trkpt>
      <trkpt lat="44.38526" lon="6.86684">
        <ele>2357</ele>
        <time>2022-03-09T13:00:46.000Z</time>
      </trkpt>
      <trkpt lat="44.38525" lon="6.86684">
        <ele>2357.1999511719</ele>
        <time>2022-03-09T13:00:47.000Z</time>
      </trkpt>
      <trkpt lat="44.38525" lon="6.86682">
        <ele>2357.6000976562</ele>
        <time>2022-03-09T13:00:49.000Z</time>
      </trkpt>
      <trkpt lat="44.38524" lon="6.86679">
        <ele>2358</ele>
        <time>2022-03-09T13:00:54.000Z</time>
      </trkpt>
      <trkpt lat="44.38523" lon="6.86679">
        <ele>2358</ele>
        <time>2022-03-09T13:00:55.000Z</time>
      </trkpt>
      <trkpt lat="44.38521" lon="6.86674">
        <ele>2359.1999511719</ele>
        <time>2022-03-09T13:01:03.000Z</time>
      </trkpt>
      <trkpt lat="44.38521" lon="6.86674">
        <ele>2359.3999023438</ele>
        <time>2022-03-09T13:01:04.000Z</time>
      </trkpt>
      <trkpt lat="44.3852" lon="6.86671">
        <ele>2360.3999023438</ele>
        <time>2022-03-09T13:01:08.000Z</time>
      </trkpt>
      <trkpt lat="44.38519" lon="6.86668">
        <ele>2360.8000488281</ele>
        <time>2022-03-09T13:01:13.000Z</time>
      </trkpt>
      <trkpt lat="44.38518" lon="6.86667">
        <ele>2360.8000488281</ele>
        <time>2022-03-09T13:01:14.000Z</time>
      </trkpt>
      <trkpt lat="44.3852" lon="6.86661">
        <ele>2361.1999511719</ele>
        <time>2022-03-09T13:01:21.000Z</time>
      </trkpt>
      <trkpt lat="44.38521" lon="6.8666">
        <ele>2361.3999023438</ele>
        <time>2022-03-09T13:01:24.000Z</time>
      </trkpt>
      <trkpt lat="44.38522" lon="6.86658">
        <ele>2362.1999511719</ele>
        <time>2022-03-09T13:01:29.000Z</time>
      </trkpt>
      <trkpt lat="44.38523" lon="6.86656">
        <ele>2362.6000976562</ele>
        <time>2022-03-09T13:01:32.000Z</time>
      </trkpt>
      <trkpt lat="44.38523" lon="6.86654">
        <ele>2363.6000976562</ele>
        <time>2022-03-09T13:01:37.000Z</time>
      </trkpt>
      <trkpt lat="44.38522" lon="6.86654">
        <ele>2363.8000488281</ele>
        <time>2022-03-09T13:01:39.000Z</time>
      </trkpt>
      <trkpt lat="44.38519" lon="6.8665">
        <ele>2364.8000488281</ele>
        <time>2022-03-09T13:01:46.000Z</time>
      </trkpt>
      <trkpt lat="44.38519" lon="6.8665">
        <ele>2365</ele>
        <time>2022-03-09T13:01:47.000Z</time>
      </trkpt>
      <trkpt lat="44.38516" lon="6.86646">
        <ele>2366</ele>
        <time>2022-03-09T13:01:54.000Z</time>
      </trkpt>
      <trkpt lat="44.38515" lon="6.86645">
        <ele>2366.3999023438</ele>
        <time>2022-03-09T13:01:56.000Z</time>
      </trkpt>
      <trkpt lat="44.38513" lon="6.86639">
        <ele>2367.1999511719</ele>
        <time>2022-03-09T13:02:06.000Z</time>
      </trkpt>
      <trkpt lat="44.38514" lon="6.86638">
        <ele>2367.1999511719</ele>
        <time>2022-03-09T13:02:07.000Z</time>
      </trkpt>
      <trkpt lat="44.38516" lon="6.86636">
        <ele>2368.1999511719</ele>
        <time>2022-03-09T13:02:12.000Z</time>
      </trkpt>
      <trkpt lat="44.38519" lon="6.86631">
        <ele>2369.3999023438</ele>
        <time>2022-03-09T13:02:20.000Z</time>
      </trkpt>
      <trkpt lat="44.3852" lon="6.8663">
        <ele>2369.6000976562</ele>
        <time>2022-03-09T13:02:21.000Z</time>
      </trkpt>
      <trkpt lat="44.38523" lon="6.86624">
        <ele>2370.3999023438</ele>
        <time>2022-03-09T13:02:29.000Z</time>
      </trkpt>
      <trkpt lat="44.38524" lon="6.86622">
        <ele>2370.6000976562</ele>
        <time>2022-03-09T13:02:32.000Z</time>
      </trkpt>
      <trkpt lat="44.38527" lon="6.86617">
        <ele>2371.6000976562</ele>
        <time>2022-03-09T13:02:39.000Z</time>
      </trkpt>
      <trkpt lat="44.38528" lon="6.86616">
        <ele>2372</ele>
        <time>2022-03-09T13:02:41.000Z</time>
      </trkpt>
      <trkpt lat="44.38528" lon="6.86615">
        <ele>2372.8000488281</ele>
        <time>2022-03-09T13:02:44.000Z</time>
      </trkpt>
      <trkpt lat="44.38527" lon="6.86613">
        <ele>2373.3999023438</ele>
        <time>2022-03-09T13:02:47.000Z</time>
      </trkpt>
      <trkpt lat="44.38527" lon="6.86613">
        <ele>2373.8000488281</ele>
        <time>2022-03-09T13:02:48.000Z</time>
      </trkpt>
      <trkpt lat="44.38524" lon="6.8661">
        <ele>2374.8000488281</ele>
        <time>2022-03-09T13:02:55.000Z</time>
      </trkpt>
      <trkpt lat="44.38523" lon="6.8661">
        <ele>2374.8000488281</ele>
        <time>2022-03-09T13:02:56.000Z</time>
      </trkpt>
      <trkpt lat="44.38519" lon="6.86609">
        <ele>2375.8000488281</ele>
        <time>2022-03-09T13:03:03.000Z</time>
      </trkpt>
      <trkpt lat="44.38518" lon="6.86608">
        <ele>2376</ele>
        <time>2022-03-09T13:03:05.000Z</time>
      </trkpt>
      <trkpt lat="44.38515" lon="6.86606">
        <ele>2377</ele>
        <time>2022-03-09T13:03:11.000Z</time>
      </trkpt>
      <trkpt lat="44.3851" lon="6.86604">
        <ele>2377.8000488281</ele>
        <time>2022-03-09T13:03:19.000Z</time>
      </trkpt>
      <trkpt lat="44.38509" lon="6.86604">
        <ele>2378</ele>
        <time>2022-03-09T13:03:21.000Z</time>
      </trkpt>
      <trkpt lat="44.38509" lon="6.86604">
        <ele>2378.1999511719</ele>
        <time>2022-03-09T13:03:22.000Z</time>
      </trkpt>
      <trkpt lat="44.38504" lon="6.86603">
        <ele>2379</ele>
        <time>2022-03-09T13:03:30.000Z</time>
      </trkpt>
      <trkpt lat="44.38502" lon="6.86603">
        <ele>2379.8000488281</ele>
        <time>2022-03-09T13:03:35.000Z</time>
      </trkpt>
      <trkpt lat="44.385" lon="6.86603">
        <ele>2380.1999511719</ele>
        <time>2022-03-09T13:03:39.000Z</time>
      </trkpt>
      <trkpt lat="44.38499" lon="6.86602">
        <ele>2380.3999023438</ele>
        <time>2022-03-09T13:03:42.000Z</time>
      </trkpt>
      <trkpt lat="44.38501" lon="6.86598">
        <ele>2379.1999511719</ele>
        <time>2022-03-09T13:03:48.000Z</time>
      </trkpt>
      <trkpt lat="44.38505" lon="6.86591">
        <ele>2381.1999511719</ele>
        <time>2022-03-09T13:03:58.000Z</time>
      </trkpt>
      <trkpt lat="44.38506" lon="6.86587">
        <ele>2382.1999511719</ele>
        <time>2022-03-09T13:04:05.000Z</time>
      </trkpt>
      <trkpt lat="44.38507" lon="6.86586">
        <ele>2382.3999023438</ele>
        <time>2022-03-09T13:04:06.000Z</time>
      </trkpt>
      <trkpt lat="44.38508" lon="6.86584">
        <ele>2383.1999511719</ele>
        <time>2022-03-09T13:04:10.000Z</time>
      </trkpt>
      <trkpt lat="44.38509" lon="6.86582">
        <ele>2383.8000488281</ele>
        <time>2022-03-09T13:04:13.000Z</time>
      </trkpt>
      <trkpt lat="44.38509" lon="6.86581">
        <ele>2383.8000488281</ele>
        <time>2022-03-09T13:04:14.000Z</time>
      </trkpt>
      <trkpt lat="44.38511" lon="6.86579">
        <ele>2384.3999023438</ele>
        <time>2022-03-09T13:04:19.000Z</time>
      </trkpt>
      <trkpt lat="44.38514" lon="6.86576">
        <ele>2385.1999511719</ele>
        <time>2022-03-09T13:04:24.000Z</time>
      </trkpt>
      <trkpt lat="44.38514" lon="6.86575">
        <ele>2385.6000976562</ele>
        <time>2022-03-09T13:04:26.000Z</time>
      </trkpt>
      <trkpt lat="44.38518" lon="6.86573">
        <ele>2386.6000976562</ele>
        <time>2022-03-09T13:04:33.000Z</time>
      </trkpt>
      <trkpt lat="44.38518" lon="6.86572">
        <ele>2386.6000976562</ele>
        <time>2022-03-09T13:04:34.000Z</time>
      </trkpt>
      <trkpt lat="44.38518" lon="6.86571">
        <ele>2387.6000976562</ele>
        <time>2022-03-09T13:04:38.000Z</time>
      </trkpt>
      <trkpt lat="44.38517" lon="6.8657">
        <ele>2388.3999023438</ele>
        <time>2022-03-09T13:04:41.000Z</time>
      </trkpt>
      <trkpt lat="44.38516" lon="6.86569">
        <ele>2388.6000976562</ele>
        <time>2022-03-09T13:04:43.000Z</time>
      </trkpt>
      <trkpt lat="44.38514" lon="6.86567">
        <ele>2389.8000488281</ele>
        <time>2022-03-09T13:04:48.000Z</time>
      </trkpt>
      <trkpt lat="44.38511" lon="6.86564">
        <ele>2390.8000488281</ele>
        <time>2022-03-09T13:04:56.000Z</time>
      </trkpt>
      <trkpt lat="44.38508" lon="6.8656">
        <ele>2392</ele>
        <time>2022-03-09T13:05:04.000Z</time>
      </trkpt>
      <trkpt lat="44.38507" lon="6.86559">
        <ele>2392.3999023438</ele>
        <time>2022-03-09T13:05:06.000Z</time>
      </trkpt>
      <trkpt lat="44.38505" lon="6.86558">
        <ele>2393.1999511719</ele>
        <time>2022-03-09T13:05:10.000Z</time>
      </trkpt>
      <trkpt lat="44.38504" lon="6.86556">
        <ele>2393.8000488281</ele>
        <time>2022-03-09T13:05:13.000Z</time>
      </trkpt>
      <trkpt lat="44.38503" lon="6.86555">
        <ele>2394.1999511719</ele>
        <time>2022-03-09T13:05:15.000Z</time>
      </trkpt>
      <trkpt lat="44.38502" lon="6.86551">
        <ele>2394.3999023438</ele>
        <time>2022-03-09T13:05:20.000Z</time>
      </trkpt>
      <trkpt lat="44.38502" lon="6.86541">
        <ele>2395.3999023438</ele>
        <time>2022-03-09T13:05:33.000Z</time>
      </trkpt>
      <trkpt lat="44.38502" lon="6.8654">
        <ele>2395.6000976562</ele>
        <time>2022-03-09T13:05:34.000Z</time>
      </trkpt>
      <trkpt lat="44.385" lon="6.86534">
        <ele>2396.3999023438</ele>
        <time>2022-03-09T13:05:43.000Z</time>
      </trkpt>
      <trkpt lat="44.38499" lon="6.86533">
        <ele>2396.6000976562</ele>
        <time>2022-03-09T13:05:45.000Z</time>
      </trkpt>
      <trkpt lat="44.38497" lon="6.86532">
        <ele>2397.6000976562</ele>
        <time>2022-03-09T13:05:49.000Z</time>
      </trkpt>
      <trkpt lat="44.38493" lon="6.86532">
        <ele>2398.3999023438</ele>
        <time>2022-03-09T13:05:56.000Z</time>
      </trkpt>
      <trkpt lat="44.38492" lon="6.86531">
        <ele>2398.8000488281</ele>
        <time>2022-03-09T13:05:57.000Z</time>
      </trkpt>
      <trkpt lat="44.38487" lon="6.86529">
        <ele>2399.6000976562</ele>
        <time>2022-03-09T13:06:05.000Z</time>
      </trkpt>
      <trkpt lat="44.38487" lon="6.86529">
        <ele>2399.8000488281</ele>
        <time>2022-03-09T13:06:06.000Z</time>
      </trkpt>
      <trkpt lat="44.38484" lon="6.86528">
        <ele>2401.1999511719</ele>
        <time>2022-03-09T13:06:11.000Z</time>
      </trkpt>
      <trkpt lat="44.3848" lon="6.86527">
        <ele>2401.6000976562</ele>
        <time>2022-03-09T13:06:18.000Z</time>
      </trkpt>
      <trkpt lat="44.38478" lon="6.86526">
        <ele>2402.3999023438</ele>
        <time>2022-03-09T13:06:22.000Z</time>
      </trkpt>
      <trkpt lat="44.38474" lon="6.86524">
        <ele>2403</ele>
        <time>2022-03-09T13:06:28.000Z</time>
      </trkpt>
      <trkpt lat="44.38472" lon="6.86523">
        <ele>2403.3999023438</ele>
        <time>2022-03-09T13:06:31.000Z</time>
      </trkpt>
      <trkpt lat="44.3847" lon="6.86521">
        <ele>2404.1999511719</ele>
        <time>2022-03-09T13:06:36.000Z</time>
      </trkpt>
      <trkpt lat="44.38469" lon="6.8652">
        <ele>2404.6000976562</ele>
        <time>2022-03-09T13:06:38.000Z</time>
      </trkpt>
      <trkpt lat="44.3847" lon="6.86517">
        <ele>2405.1999511719</ele>
        <time>2022-03-09T13:06:43.000Z</time>
      </trkpt>
      <trkpt lat="44.38471" lon="6.86513">
        <ele>2405.8000488281</ele>
        <time>2022-03-09T13:06:48.000Z</time>
      </trkpt>
      <trkpt lat="44.38471" lon="6.8651">
        <ele>2406.6000976562</ele>
        <time>2022-03-09T13:06:52.000Z</time>
      </trkpt>
      <trkpt lat="44.38472" lon="6.86509">
        <ele>2406.8000488281</ele>
        <time>2022-03-09T13:06:53.000Z</time>
      </trkpt>
      <trkpt lat="44.38473" lon="6.86503">
        <ele>2408</ele>
        <time>2022-03-09T13:06:59.000Z</time>
      </trkpt>
      <trkpt lat="44.38473" lon="6.86501">
        <ele>2408.3999023438</ele>
        <time>2022-03-09T13:07:02.000Z</time>
      </trkpt>
      <trkpt lat="44.38473" lon="6.86499">
        <ele>2409</ele>
        <time>2022-03-09T13:07:05.000Z</time>
      </trkpt>
      <trkpt lat="44.38473" lon="6.86495">
        <ele>2409.6000976562</ele>
        <time>2022-03-09T13:07:11.000Z</time>
      </trkpt>
      <trkpt lat="44.38472" lon="6.86493">
        <ele>2410</ele>
        <time>2022-03-09T13:07:14.000Z</time>
      </trkpt>
      <trkpt lat="44.38471" lon="6.86489">
        <ele>2411</ele>
        <time>2022-03-09T13:07:19.000Z</time>
      </trkpt>
      <trkpt lat="44.38469" lon="6.86485">
        <ele>2412</ele>
        <time>2022-03-09T13:07:24.000Z</time>
      </trkpt>
      <trkpt lat="44.38469" lon="6.86484">
        <ele>2412.1999511719</ele>
        <time>2022-03-09T13:07:26.000Z</time>
      </trkpt>
      <trkpt lat="44.38468" lon="6.86483">
        <ele>2413.3999023438</ele>
        <time>2022-03-09T13:07:29.000Z</time>
      </trkpt>
      <trkpt lat="44.38465" lon="6.86481">
        <ele>2414.3999023438</ele>
        <time>2022-03-09T13:07:35.000Z</time>
      </trkpt>
      <trkpt lat="44.38463" lon="6.8648">
        <ele>2414.3999023438</ele>
        <time>2022-03-09T13:07:37.000Z</time>
      </trkpt>
      <trkpt lat="44.38462" lon="6.86479">
        <ele>2415</ele>
        <time>2022-03-09T13:07:40.000Z</time>
      </trkpt>
      <trkpt lat="44.3846" lon="6.86476">
        <ele>2415.6000976562</ele>
        <time>2022-03-09T13:07:45.000Z</time>
      </trkpt>
      <trkpt lat="44.38459" lon="6.86475">
        <ele>2416.1999511719</ele>
        <time>2022-03-09T13:07:47.000Z</time>
      </trkpt>
      <trkpt lat="44.38458" lon="6.86474">
        <ele>2416.6000976562</ele>
        <time>2022-03-09T13:07:50.000Z</time>
      </trkpt>
      <trkpt lat="44.38457" lon="6.86474">
        <ele>2416.8000488281</ele>
        <time>2022-03-09T13:07:52.000Z</time>
      </trkpt>
      <trkpt lat="44.38455" lon="6.86471">
        <ele>2417.3999023438</ele>
        <time>2022-03-09T13:07:57.000Z</time>
      </trkpt>
      <trkpt lat="44.38453" lon="6.8647">
        <ele>2418.1999511719</ele>
        <time>2022-03-09T13:08:00.000Z</time>
      </trkpt>
      <trkpt lat="44.38452" lon="6.86469">
        <ele>2418.8000488281</ele>
        <time>2022-03-09T13:08:02.000Z</time>
      </trkpt>
      <trkpt lat="44.38451" lon="6.86467">
        <ele>2419.1999511719</ele>
        <time>2022-03-09T13:08:05.000Z</time>
      </trkpt>
      <trkpt lat="44.3845" lon="6.86466">
        <ele>2419.6000976562</ele>
        <time>2022-03-09T13:08:07.000Z</time>
      </trkpt>
      <trkpt lat="44.38449" lon="6.86465">
        <ele>2420.1999511719</ele>
        <time>2022-03-09T13:08:09.000Z</time>
      </trkpt>
      <trkpt lat="44.38448" lon="6.86463">
        <ele>2421.3999023438</ele>
        <time>2022-03-09T13:08:13.000Z</time>
      </trkpt>
      <trkpt lat="44.38447" lon="6.86462">
        <ele>2421.6000976562</ele>
        <time>2022-03-09T13:08:14.000Z</time>
      </trkpt>
      <trkpt lat="44.38444" lon="6.86457">
        <ele>2422</ele>
        <time>2022-03-09T13:08:23.000Z</time>
      </trkpt>
      <trkpt lat="44.38443" lon="6.86457">
        <ele>2422.3999023438</ele>
        <time>2022-03-09T13:08:25.000Z</time>
      </trkpt>
      <trkpt lat="44.3844" lon="6.86454">
        <ele>2423.3999023438</ele>
        <time>2022-03-09T13:08:31.000Z</time>
      </trkpt>
      <trkpt lat="44.38439" lon="6.86453">
        <ele>2423.8000488281</ele>
        <time>2022-03-09T13:08:34.000Z</time>
      </trkpt>
      <trkpt lat="44.38437" lon="6.86452">
        <ele>2424.3999023438</ele>
        <time>2022-03-09T13:08:37.000Z</time>
      </trkpt>
      <trkpt lat="44.38435" lon="6.86449">
        <ele>2425.1999511719</ele>
        <time>2022-03-09T13:08:41.000Z</time>
      </trkpt>
      <trkpt lat="44.38434" lon="6.86448">
        <ele>2425.3999023438</ele>
        <time>2022-03-09T13:08:44.000Z</time>
      </trkpt>
      <trkpt lat="44.38433" lon="6.86447">
        <ele>2425.6000976562</ele>
        <time>2022-03-09T13:08:45.000Z</time>
      </trkpt>
      <trkpt lat="44.38431" lon="6.86445">
        <ele>2426.8000488281</ele>
        <time>2022-03-09T13:08:50.000Z</time>
      </trkpt>
      <trkpt lat="44.38427" lon="6.86442">
        <ele>2427.6000976562</ele>
        <time>2022-03-09T13:08:57.000Z</time>
      </trkpt>
      <trkpt lat="44.38426" lon="6.86441">
        <ele>2427.8000488281</ele>
        <time>2022-03-09T13:08:58.000Z</time>
      </trkpt>
      <trkpt lat="44.38423" lon="6.8644">
        <ele>2429</ele>
        <time>2022-03-09T13:09:04.000Z</time>
      </trkpt>
      <trkpt lat="44.38422" lon="6.86438">
        <ele>2429.3999023438</ele>
        <time>2022-03-09T13:09:08.000Z</time>
      </trkpt>
      <trkpt lat="44.3842" lon="6.86435">
        <ele>2430</ele>
        <time>2022-03-09T13:09:12.000Z</time>
      </trkpt>
      <trkpt lat="44.38417" lon="6.86432">
        <ele>2430.8000488281</ele>
        <time>2022-03-09T13:09:18.000Z</time>
      </trkpt>
      <trkpt lat="44.38417" lon="6.86432">
        <ele>2431</ele>
        <time>2022-03-09T13:09:19.000Z</time>
      </trkpt>
      <trkpt lat="44.38414" lon="6.86427">
        <ele>2432</ele>
        <time>2022-03-09T13:09:26.000Z</time>
      </trkpt>
      <trkpt lat="44.38412" lon="6.86425">
        <ele>2432.1999511719</ele>
        <time>2022-03-09T13:09:29.000Z</time>
      </trkpt>
      <trkpt lat="44.3841" lon="6.86422">
        <ele>2433.1999511719</ele>
        <time>2022-03-09T13:09:35.000Z</time>
      </trkpt>
      <trkpt lat="44.38407" lon="6.8642">
        <ele>2434.1999511719</ele>
        <time>2022-03-09T13:09:40.000Z</time>
      </trkpt>
      <trkpt lat="44.38401" lon="6.86416">
        <ele>2435.3999023438</ele>
        <time>2022-03-09T13:09:51.000Z</time>
      </trkpt>
      <trkpt lat="44.38398" lon="6.86413">
        <ele>2436.6000976562</ele>
        <time>2022-03-09T13:09:56.000Z</time>
      </trkpt>
      <trkpt lat="44.38393" lon="6.86408">
        <ele>2437.8000488281</ele>
        <time>2022-03-09T13:10:06.000Z</time>
      </trkpt>
      <trkpt lat="44.38386" lon="6.86401">
        <ele>2438.8000488281</ele>
        <time>2022-03-09T13:10:18.000Z</time>
      </trkpt>
      <trkpt lat="44.38385" lon="6.864">
        <ele>2439</ele>
        <time>2022-03-09T13:10:19.000Z</time>
      </trkpt>
      <trkpt lat="44.38384" lon="6.86398">
        <ele>2439.8000488281</ele>
        <time>2022-03-09T13:10:22.000Z</time>
      </trkpt>
      <trkpt lat="44.3838" lon="6.86393">
        <ele>2440.6000976562</ele>
        <time>2022-03-09T13:10:30.000Z</time>
      </trkpt>
      <trkpt lat="44.3838" lon="6.86392">
        <ele>2440.6000976562</ele>
        <time>2022-03-09T13:10:31.000Z</time>
      </trkpt>
      <trkpt lat="44.38379" lon="6.86392">
        <ele>2441</ele>
        <time>2022-03-09T13:10:33.000Z</time>
      </trkpt>
      <trkpt lat="44.38376" lon="6.86388">
        <ele>2442</ele>
        <time>2022-03-09T13:10:38.000Z</time>
      </trkpt>
      <trkpt lat="44.38375" lon="6.86388">
        <ele>2442.3999023438</ele>
        <time>2022-03-09T13:10:40.000Z</time>
      </trkpt>
      <trkpt lat="44.38372" lon="6.86384">
        <ele>2443</ele>
        <time>2022-03-09T13:10:47.000Z</time>
      </trkpt>
      <trkpt lat="44.3837" lon="6.86382">
        <ele>2443.1999511719</ele>
        <time>2022-03-09T13:10:50.000Z</time>
      </trkpt>
      <trkpt lat="44.38368" lon="6.8638">
        <ele>2444</ele>
        <time>2022-03-09T13:10:55.000Z</time>
      </trkpt>
      <trkpt lat="44.38367" lon="6.86378">
        <ele>2444.6000976562</ele>
        <time>2022-03-09T13:10:59.000Z</time>
      </trkpt>
      <trkpt lat="44.38366" lon="6.86375">
        <ele>2445.1999511719</ele>
        <time>2022-03-09T13:11:02.000Z</time>
      </trkpt>
      <trkpt lat="44.38364" lon="6.86369">
        <ele>2446.1999511719</ele>
        <time>2022-03-09T13:11:12.000Z</time>
      </trkpt>
      <trkpt lat="44.38363" lon="6.86369">
        <ele>2446.3999023438</ele>
        <time>2022-03-09T13:11:13.000Z</time>
      </trkpt>
      <trkpt lat="44.3836" lon="6.86364">
        <ele>2447.1999511719</ele>
        <time>2022-03-09T13:11:21.000Z</time>
      </trkpt>
      <trkpt lat="44.38359" lon="6.86362">
        <ele>2447.3999023438</ele>
        <time>2022-03-09T13:11:23.000Z</time>
      </trkpt>
      <trkpt lat="44.38356" lon="6.86357">
        <ele>2448.3999023438</ele>
        <time>2022-03-09T13:11:30.000Z</time>
      </trkpt>
      <trkpt lat="44.38356" lon="6.86356">
        <ele>2448.6000976562</ele>
        <time>2022-03-09T13:11:31.000Z</time>
      </trkpt>
      <trkpt lat="44.38355" lon="6.86356">
        <ele>2448.6000976562</ele>
        <time>2022-03-09T13:11:32.000Z</time>
      </trkpt>
      <trkpt lat="44.38352" lon="6.86351">
        <ele>2449.6000976562</ele>
        <time>2022-03-09T13:11:40.000Z</time>
      </trkpt>
      <trkpt lat="44.38351" lon="6.86349">
        <ele>2449.8000488281</ele>
        <time>2022-03-09T13:11:42.000Z</time>
      </trkpt>
      <trkpt lat="44.38349" lon="6.86344">
        <ele>2450.6000976562</ele>
        <time>2022-03-09T13:11:49.000Z</time>
      </trkpt>
      <trkpt lat="44.38349" lon="6.86342">
        <ele>2451</ele>
        <time>2022-03-09T13:11:52.000Z</time>
      </trkpt>
      <trkpt lat="44.38346" lon="6.86339">
        <ele>2451.6000976562</ele>
        <time>2022-03-09T13:11:57.000Z</time>
      </trkpt>
      <trkpt lat="44.38344" lon="6.86335">
        <ele>2452.1999511719</ele>
        <time>2022-03-09T13:12:01.000Z</time>
      </trkpt>
      <trkpt lat="44.38344" lon="6.86335">
        <ele>2452.3999023438</ele>
        <time>2022-03-09T13:12:02.000Z</time>
      </trkpt>
      <trkpt lat="44.38342" lon="6.86333">
        <ele>2452.8000488281</ele>
        <time>2022-03-09T13:12:05.000Z</time>
      </trkpt>
      <trkpt lat="44.3834" lon="6.86329">
        <ele>2453.8000488281</ele>
        <time>2022-03-09T13:12:11.000Z</time>
      </trkpt>
      <trkpt lat="44.38336" lon="6.86321">
        <ele>2455</ele>
        <time>2022-03-09T13:12:22.000Z</time>
      </trkpt>
      <trkpt lat="44.38335" lon="6.8632">
        <ele>2455.1999511719</ele>
        <time>2022-03-09T13:12:24.000Z</time>
      </trkpt>
      <trkpt lat="44.38332" lon="6.86315">
        <ele>2456</ele>
        <time>2022-03-09T13:12:31.000Z</time>
      </trkpt>
      <trkpt lat="44.3833" lon="6.8631">
        <ele>2456.6000976562</ele>
        <time>2022-03-09T13:12:37.000Z</time>
      </trkpt>
      <trkpt lat="44.38329" lon="6.86306">
        <ele>2457.1999511719</ele>
        <time>2022-03-09T13:12:42.000Z</time>
      </trkpt>
      <trkpt lat="44.38326" lon="6.86303">
        <ele>2457.8000488281</ele>
        <time>2022-03-09T13:12:47.000Z</time>
      </trkpt>
      <trkpt lat="44.38324" lon="6.863">
        <ele>2458.1999511719</ele>
        <time>2022-03-09T13:12:52.000Z</time>
      </trkpt>
      <trkpt lat="44.38321" lon="6.86296">
        <ele>2459.1999511719</ele>
        <time>2022-03-09T13:12:59.000Z</time>
      </trkpt>
      <trkpt lat="44.3832" lon="6.86295">
        <ele>2459.3999023438</ele>
        <time>2022-03-09T13:13:00.000Z</time>
      </trkpt>
      <trkpt lat="44.38319" lon="6.8629">
        <ele>2460.3999023438</ele>
        <time>2022-03-09T13:13:07.000Z</time>
      </trkpt>
      <trkpt lat="44.38317" lon="6.86288">
        <ele>2461</ele>
        <time>2022-03-09T13:13:10.000Z</time>
      </trkpt>
      <trkpt lat="44.38315" lon="6.86284">
        <ele>2461.3999023438</ele>
        <time>2022-03-09T13:13:16.000Z</time>
      </trkpt>
      <trkpt lat="44.38313" lon="6.86281">
        <ele>2462.1999511719</ele>
        <time>2022-03-09T13:13:20.000Z</time>
      </trkpt>
      <trkpt lat="44.38312" lon="6.86279">
        <ele>2462.6000976562</ele>
        <time>2022-03-09T13:13:22.000Z</time>
      </trkpt>
      <trkpt lat="44.38308" lon="6.86272">
        <ele>2463.1999511719</ele>
        <time>2022-03-09T13:13:31.000Z</time>
      </trkpt>
      <trkpt lat="44.38307" lon="6.8627">
        <ele>2463.6000976562</ele>
        <time>2022-03-09T13:13:34.000Z</time>
      </trkpt>
      <trkpt lat="44.38303" lon="6.86265">
        <ele>2464.6000976562</ele>
        <time>2022-03-09T13:13:42.000Z</time>
      </trkpt>
      <trkpt lat="44.38302" lon="6.86265">
        <ele>2464.8000488281</ele>
        <time>2022-03-09T13:13:43.000Z</time>
      </trkpt>
      <trkpt lat="44.38299" lon="6.8626">
        <ele>2465.3999023438</ele>
        <time>2022-03-09T13:13:50.000Z</time>
      </trkpt>
      <trkpt lat="44.38295" lon="6.86256">
        <ele>2465.8000488281</ele>
        <time>2022-03-09T13:13:56.000Z</time>
      </trkpt>
      <trkpt lat="44.38294" lon="6.86255">
        <ele>2466</ele>
        <time>2022-03-09T13:13:58.000Z</time>
      </trkpt>
      <trkpt lat="44.38292" lon="6.8625">
        <ele>2466.8000488281</ele>
        <time>2022-03-09T13:14:03.000Z</time>
      </trkpt>
      <trkpt lat="44.38289" lon="6.8625">
        <ele>2467.6000976562</ele>
        <time>2022-03-09T13:14:08.000Z</time>
      </trkpt>
      <trkpt lat="44.38288" lon="6.86248">
        <ele>2467.8000488281</ele>
        <time>2022-03-09T13:14:10.000Z</time>
      </trkpt>
      <trkpt lat="44.38285" lon="6.86244">
        <ele>2468.1999511719</ele>
        <time>2022-03-09T13:14:15.000Z</time>
      </trkpt>
      <trkpt lat="44.38282" lon="6.86242">
        <ele>2469</ele>
        <time>2022-03-09T13:14:21.000Z</time>
      </trkpt>
      <trkpt lat="44.38281" lon="6.86242">
        <ele>2469.1999511719</ele>
        <time>2022-03-09T13:14:22.000Z</time>
      </trkpt>
      <trkpt lat="44.38278" lon="6.86241">
        <ele>2470.1999511719</ele>
        <time>2022-03-09T13:14:27.000Z</time>
      </trkpt>
      <trkpt lat="44.38277" lon="6.86241">
        <ele>2470.8000488281</ele>
        <time>2022-03-09T13:14:30.000Z</time>
      </trkpt>
      <trkpt lat="44.38277" lon="6.86241">
        <ele>2471.1999511719</ele>
        <time>2022-03-09T13:14:32.000Z</time>
      </trkpt>
      <trkpt lat="44.38275" lon="6.86242">
        <ele>2471.3999023438</ele>
        <time>2022-03-09T13:14:35.000Z</time>
      </trkpt>
      <trkpt lat="44.38272" lon="6.86241">
        <ele>2471.8000488281</ele>
        <time>2022-03-09T13:14:40.000Z</time>
      </trkpt>
      <trkpt lat="44.3827" lon="6.8624">
        <ele>2472.3999023438</ele>
        <time>2022-03-09T13:14:44.000Z</time>
      </trkpt>
      <trkpt lat="44.38268" lon="6.8624">
        <ele>2472.6000976562</ele>
        <time>2022-03-09T13:14:47.000Z</time>
      </trkpt>
      <trkpt lat="44.38265" lon="6.86239">
        <ele>2473.1999511719</ele>
        <time>2022-03-09T13:14:52.000Z</time>
      </trkpt>
      <trkpt lat="44.38264" lon="6.86238">
        <ele>2473.3999023438</ele>
        <time>2022-03-09T13:14:54.000Z</time>
      </trkpt>
      <trkpt lat="44.38262" lon="6.86234">
        <ele>2474.1999511719</ele>
        <time>2022-03-09T13:14:59.000Z</time>
      </trkpt>
      <trkpt lat="44.38261" lon="6.86233">
        <ele>2474.6000976562</ele>
        <time>2022-03-09T13:15:01.000Z</time>
      </trkpt>
      <trkpt lat="44.38258" lon="6.86234">
        <ele>2475</ele>
        <time>2022-03-09T13:15:06.000Z</time>
      </trkpt>
      <trkpt lat="44.38258" lon="6.86232">
        <ele>2475.6000976562</ele>
        <time>2022-03-09T13:15:14.000Z</time>
      </trkpt>
      <trkpt lat="44.38258" lon="6.86232">
        <ele>2475.8000488281</ele>
        <time>2022-03-09T13:15:22.000Z</time>
      </trkpt>
      <trkpt lat="44.38258" lon="6.86232">
        <ele>2477</ele>
        <time>2022-03-09T13:15:30.000Z</time>
      </trkpt>
      <trkpt lat="44.38261" lon="6.8623">
        <ele>2478.1999511719</ele>
        <time>2022-03-09T13:15:37.000Z</time>
      </trkpt>
      <trkpt lat="44.38266" lon="6.86227">
        <ele>2479.1999511719</ele>
        <time>2022-03-09T13:15:42.000Z</time>
      </trkpt>
      <trkpt lat="44.3827" lon="6.86223">
        <ele>2479.8000488281</ele>
        <time>2022-03-09T13:15:45.000Z</time>
      </trkpt>
      <trkpt lat="44.38272" lon="6.86221">
        <ele>2480</ele>
        <time>2022-03-09T13:15:47.000Z</time>
      </trkpt>
      <trkpt lat="44.38273" lon="6.8622">
        <ele>2480.3999023438</ele>
        <time>2022-03-09T13:15:50.000Z</time>
      </trkpt>
      <trkpt lat="44.38273" lon="6.8622">
        <ele>2480.6000976562</ele>
        <time>2022-03-09T13:15:51.000Z</time>
      </trkpt>
      <trkpt lat="44.38274" lon="6.86221">
        <ele>2480.6000976562</ele>
        <time>2022-03-09T13:16:01.000Z</time>
      </trkpt>
      <trkpt lat="44.38274" lon="6.86221">
        <ele>2481.3999023438</ele>
        <time>2022-03-09T13:16:07.000Z</time>
      </trkpt>
      <trkpt lat="44.38274" lon="6.8622">
        <ele>2482.6000976562</ele>
        <time>2022-03-09T13:16:17.000Z</time>
      </trkpt>
      <trkpt lat="44.38271" lon="6.86218">
        <ele>2483.6000976562</ele>
        <time>2022-03-09T13:16:23.000Z</time>
      </trkpt>
      <trkpt lat="44.38267" lon="6.86214">
        <ele>2484.8000488281</ele>
        <time>2022-03-09T13:16:28.000Z</time>
      </trkpt>
      <trkpt lat="44.38265" lon="6.86212">
        <ele>2485.1999511719</ele>
        <time>2022-03-09T13:16:31.000Z</time>
      </trkpt>
      <trkpt lat="44.38263" lon="6.86211">
        <ele>2485.8000488281</ele>
        <time>2022-03-09T13:16:35.000Z</time>
      </trkpt>
      <trkpt lat="44.38261" lon="6.86209">
        <ele>2486.3999023438</ele>
        <time>2022-03-09T13:16:41.000Z</time>
      </trkpt>
      <trkpt lat="44.38261" lon="6.86208">
        <ele>2487</ele>
        <time>2022-03-09T13:16:45.000Z</time>
      </trkpt>
      <trkpt lat="44.3826" lon="6.86204">
        <ele>2487.3999023438</ele>
        <time>2022-03-09T13:16:49.000Z</time>
      </trkpt>
      <trkpt lat="44.38257" lon="6.86204">
        <ele>2488</ele>
        <time>2022-03-09T13:16:53.000Z</time>
      </trkpt>
      <trkpt lat="44.38258" lon="6.86204">
        <ele>2488.1999511719</ele>
        <time>2022-03-09T13:16:54.000Z</time>
      </trkpt>
      <trkpt lat="44.38261" lon="6.86202">
        <ele>2488.6000976562</ele>
        <time>2022-03-09T13:17:02.000Z</time>
      </trkpt>
      <trkpt lat="44.38262" lon="6.862">
        <ele>2489</ele>
        <time>2022-03-09T13:17:07.000Z</time>
      </trkpt>
      <trkpt lat="44.38264" lon="6.86198">
        <ele>2490.1999511719</ele>
        <time>2022-03-09T13:17:11.000Z</time>
      </trkpt>
      <trkpt lat="44.38267" lon="6.86196">
        <ele>2491.3999023438</ele>
        <time>2022-03-09T13:17:17.000Z</time>
      </trkpt>
      <trkpt lat="44.3827" lon="6.86194">
        <ele>2492.3999023438</ele>
        <time>2022-03-09T13:17:23.000Z</time>
      </trkpt>
      <trkpt lat="44.38271" lon="6.86194">
        <ele>2493.6000976562</ele>
        <time>2022-03-09T13:17:28.000Z</time>
      </trkpt>
      <trkpt lat="44.38271" lon="6.86193">
        <ele>2493.8000488281</ele>
        <time>2022-03-09T13:17:29.000Z</time>
      </trkpt>
      <trkpt lat="44.38269" lon="6.86194">
        <ele>2494.6000976562</ele>
        <time>2022-03-09T13:17:34.000Z</time>
      </trkpt>
      <trkpt lat="44.38267" lon="6.86192">
        <ele>2494.8000488281</ele>
        <time>2022-03-09T13:17:37.000Z</time>
      </trkpt>
      <trkpt lat="44.38266" lon="6.86191">
        <ele>2495</ele>
        <time>2022-03-09T13:17:40.000Z</time>
      </trkpt>
      <trkpt lat="44.38265" lon="6.86189">
        <ele>2495.8000488281</ele>
        <time>2022-03-09T13:17:45.000Z</time>
      </trkpt>
      <trkpt lat="44.38264" lon="6.86189">
        <ele>2496.3999023438</ele>
        <time>2022-03-09T13:17:47.000Z</time>
      </trkpt>
      <trkpt lat="44.3826" lon="6.86184">
        <ele>2497</ele>
        <time>2022-03-09T13:17:55.000Z</time>
      </trkpt>
      <trkpt lat="44.38257" lon="6.86182">
        <ele>2498</ele>
        <time>2022-03-09T13:18:00.000Z</time>
      </trkpt>
      <trkpt lat="44.38254" lon="6.86182">
        <ele>2499.1999511719</ele>
        <time>2022-03-09T13:18:05.000Z</time>
      </trkpt>
      <trkpt lat="44.38254" lon="6.86181">
        <ele>2499.3999023438</ele>
        <time>2022-03-09T13:18:07.000Z</time>
      </trkpt>
      <trkpt lat="44.38253" lon="6.86177">
        <ele>2500.1999511719</ele>
        <time>2022-03-09T13:18:13.000Z</time>
      </trkpt>
      <trkpt lat="44.38252" lon="6.86173">
        <ele>2500.8000488281</ele>
        <time>2022-03-09T13:18:21.000Z</time>
      </trkpt>
      <trkpt lat="44.38256" lon="6.8617">
        <ele>2501</ele>
        <time>2022-03-09T13:18:28.000Z</time>
      </trkpt>
      <trkpt lat="44.38258" lon="6.86169">
        <ele>2501.1999511719</ele>
        <time>2022-03-09T13:18:31.000Z</time>
      </trkpt>
      <trkpt lat="44.38264" lon="6.86168">
        <ele>2502.1999511719</ele>
        <time>2022-03-09T13:18:37.000Z</time>
      </trkpt>
      <trkpt lat="44.38264" lon="6.86167">
        <ele>2502.3999023438</ele>
        <time>2022-03-09T13:18:38.000Z</time>
      </trkpt>
      <trkpt lat="44.38268" lon="6.86167">
        <ele>2503.3999023438</ele>
        <time>2022-03-09T13:18:45.000Z</time>
      </trkpt>
      <trkpt lat="44.3827" lon="6.86167">
        <ele>2504</ele>
        <time>2022-03-09T13:18:47.000Z</time>
      </trkpt>
      <trkpt lat="44.3827" lon="6.86166">
        <ele>2504.6000976562</ele>
        <time>2022-03-09T13:18:50.000Z</time>
      </trkpt>
      <trkpt lat="44.38269" lon="6.86166">
        <ele>2504.8000488281</ele>
        <time>2022-03-09T13:18:52.000Z</time>
      </trkpt>
      <trkpt lat="44.38267" lon="6.86164">
        <ele>2505.3999023438</ele>
        <time>2022-03-09T13:18:59.000Z</time>
      </trkpt>
      <trkpt lat="44.38267" lon="6.86163">
        <ele>2505.6000976562</ele>
        <time>2022-03-09T13:19:00.000Z</time>
      </trkpt>
      <trkpt lat="44.38264" lon="6.86158">
        <ele>2506.6000976562</ele>
        <time>2022-03-09T13:19:06.000Z</time>
      </trkpt>
      <trkpt lat="44.38263" lon="6.86155">
        <ele>2507.1999511719</ele>
        <time>2022-03-09T13:19:10.000Z</time>
      </trkpt>
      <trkpt lat="44.38261" lon="6.86153">
        <ele>2507.6000976562</ele>
        <time>2022-03-09T13:19:15.000Z</time>
      </trkpt>
      <trkpt lat="44.3826" lon="6.8615">
        <ele>2508.8000488281</ele>
        <time>2022-03-09T13:19:21.000Z</time>
      </trkpt>
      <trkpt lat="44.38257" lon="6.86147">
        <ele>2509.8000488281</ele>
        <time>2022-03-09T13:19:29.000Z</time>
      </trkpt>
      <trkpt lat="44.38255" lon="6.86144">
        <ele>2510</ele>
        <time>2022-03-09T13:19:33.000Z</time>
      </trkpt>
      <trkpt lat="44.38253" lon="6.86141">
        <ele>2510.8000488281</ele>
        <time>2022-03-09T13:19:38.000Z</time>
      </trkpt>
      <trkpt lat="44.38251" lon="6.8614">
        <ele>2511.8000488281</ele>
        <time>2022-03-09T13:19:41.000Z</time>
      </trkpt>
      <trkpt lat="44.38251" lon="6.86138">
        <ele>2512.1999511719</ele>
        <time>2022-03-09T13:19:43.000Z</time>
      </trkpt>
      <trkpt lat="44.3825" lon="6.86136">
        <ele>2512.8000488281</ele>
        <time>2022-03-09T13:19:47.000Z</time>
      </trkpt>
      <trkpt lat="44.38249" lon="6.86133">
        <ele>2513.1999511719</ele>
        <time>2022-03-09T13:19:51.000Z</time>
      </trkpt>
      <trkpt lat="44.38248" lon="6.86133">
        <ele>2513.6000976562</ele>
        <time>2022-03-09T13:19:53.000Z</time>
      </trkpt>
      <trkpt lat="44.38247" lon="6.8613">
        <ele>2513.8000488281</ele>
        <time>2022-03-09T13:19:59.000Z</time>
      </trkpt>
      <trkpt lat="44.38246" lon="6.86128">
        <ele>2514.3999023438</ele>
        <time>2022-03-09T13:20:03.000Z</time>
      </trkpt>
      <trkpt lat="44.38245" lon="6.86125">
        <ele>2514.8000488281</ele>
        <time>2022-03-09T13:20:07.000Z</time>
      </trkpt>
      <trkpt lat="44.38245" lon="6.86122">
        <ele>2515.3999023438</ele>
        <time>2022-03-09T13:20:10.000Z</time>
      </trkpt>
      <trkpt lat="44.38244" lon="6.86118">
        <ele>2516</ele>
        <time>2022-03-09T13:20:15.000Z</time>
      </trkpt>
      <trkpt lat="44.38244" lon="6.86117">
        <ele>2516.3999023438</ele>
        <time>2022-03-09T13:20:17.000Z</time>
      </trkpt>
      <trkpt lat="44.38243" lon="6.86114">
        <ele>2517.1999511719</ele>
        <time>2022-03-09T13:20:21.000Z</time>
      </trkpt>
      <trkpt lat="44.38243" lon="6.86114">
        <ele>2517.6000976562</ele>
        <time>2022-03-09T13:20:23.000Z</time>
      </trkpt>
      <trkpt lat="44.38241" lon="6.8611">
        <ele>2517.8000488281</ele>
        <time>2022-03-09T13:20:28.000Z</time>
      </trkpt>
      <trkpt lat="44.38239" lon="6.86106">
        <ele>2518.6000976562</ele>
        <time>2022-03-09T13:20:34.000Z</time>
      </trkpt>
      <trkpt lat="44.38239" lon="6.86105">
        <ele>2518.8000488281</ele>
        <time>2022-03-09T13:20:36.000Z</time>
      </trkpt>
      <trkpt lat="44.38236" lon="6.86101">
        <ele>2519.6000976562</ele>
        <time>2022-03-09T13:20:44.000Z</time>
      </trkpt>
      <trkpt lat="44.38233" lon="6.86097">
        <ele>2520.6000976562</ele>
        <time>2022-03-09T13:20:52.000Z</time>
      </trkpt>
      <trkpt lat="44.38232" lon="6.86096">
        <ele>2520.8000488281</ele>
        <time>2022-03-09T13:20:54.000Z</time>
      </trkpt>
      <trkpt lat="44.3823" lon="6.86094">
        <ele>2521.3999023438</ele>
        <time>2022-03-09T13:21:00.000Z</time>
      </trkpt>
      <trkpt lat="44.38229" lon="6.86092">
        <ele>2521.8000488281</ele>
        <time>2022-03-09T13:21:03.000Z</time>
      </trkpt>
      <trkpt lat="44.38227" lon="6.86088">
        <ele>2522.6000976562</ele>
        <time>2022-03-09T13:21:09.000Z</time>
      </trkpt>
      <trkpt lat="44.38227" lon="6.86086">
        <ele>2523</ele>
        <time>2022-03-09T13:21:12.000Z</time>
      </trkpt>
      <trkpt lat="44.38226" lon="6.8608">
        <ele>2524</ele>
        <time>2022-03-09T13:21:20.000Z</time>
      </trkpt>
      <trkpt lat="44.38226" lon="6.86079">
        <ele>2524.6000976562</ele>
        <time>2022-03-09T13:21:22.000Z</time>
      </trkpt>
      <trkpt lat="44.38226" lon="6.86077">
        <ele>2525.1999511719</ele>
        <time>2022-03-09T13:21:24.000Z</time>
      </trkpt>
      <trkpt lat="44.38225" lon="6.8607">
        <ele>2525.6000976562</ele>
        <time>2022-03-09T13:21:33.000Z</time>
      </trkpt>
      <trkpt lat="44.38224" lon="6.86063">
        <ele>2526.3999023438</ele>
        <time>2022-03-09T13:21:41.000Z</time>
      </trkpt>
      <trkpt lat="44.38224" lon="6.86061">
        <ele>2526.8000488281</ele>
        <time>2022-03-09T13:21:43.000Z</time>
      </trkpt>
      <trkpt lat="44.38223" lon="6.86058">
        <ele>2527.3999023438</ele>
        <time>2022-03-09T13:21:46.000Z</time>
      </trkpt>
      <trkpt lat="44.38222" lon="6.86053">
        <ele>2527.8000488281</ele>
        <time>2022-03-09T13:21:53.000Z</time>
      </trkpt>
      <trkpt lat="44.38222" lon="6.86047">
        <ele>2527.8000488281</ele>
        <time>2022-03-09T13:22:01.000Z</time>
      </trkpt>
      <trkpt lat="44.38221" lon="6.86041">
        <ele>2527.1999511719</ele>
        <time>2022-03-09T13:22:09.000Z</time>
      </trkpt>
      <trkpt lat="44.38221" lon="6.86036">
        <ele>2528.6000976562</ele>
        <time>2022-03-09T13:22:15.000Z</time>
      </trkpt>
      <trkpt lat="44.38222" lon="6.86033">
        <ele>2529.1999511719</ele>
        <time>2022-03-09T13:22:19.000Z</time>
      </trkpt>
      <trkpt lat="44.38222" lon="6.8603">
        <ele>2529.8000488281</ele>
        <time>2022-03-09T13:22:23.000Z</time>
      </trkpt>
      <trkpt lat="44.38222" lon="6.86025">
        <ele>2530.6000976562</ele>
        <time>2022-03-09T13:22:30.000Z</time>
      </trkpt>
      <trkpt lat="44.38222" lon="6.86024">
        <ele>2531</ele>
        <time>2022-03-09T13:22:32.000Z</time>
      </trkpt>
      <trkpt lat="44.38222" lon="6.86021">
        <ele>2532.1999511719</ele>
        <time>2022-03-09T13:22:37.000Z</time>
      </trkpt>
      <trkpt lat="44.38223" lon="6.86019">
        <ele>2532.6000976562</ele>
        <time>2022-03-09T13:22:40.000Z</time>
      </trkpt>
      <trkpt lat="44.38224" lon="6.86016">
        <ele>2533.3999023438</ele>
        <time>2022-03-09T13:22:46.000Z</time>
      </trkpt>
      <trkpt lat="44.38223" lon="6.86014">
        <ele>2534.3999023438</ele>
        <time>2022-03-09T13:22:50.000Z</time>
      </trkpt>
      <trkpt lat="44.38221" lon="6.86015">
        <ele>2535</ele>
        <time>2022-03-09T13:22:56.000Z</time>
      </trkpt>
      <trkpt lat="44.38219" lon="6.86014">
        <ele>2535.3999023438</ele>
        <time>2022-03-09T13:23:00.000Z</time>
      </trkpt>
      <trkpt lat="44.38217" lon="6.86011">
        <ele>2535.8000488281</ele>
        <time>2022-03-09T13:23:03.000Z</time>
      </trkpt>
      <trkpt lat="44.38216" lon="6.8601">
        <ele>2536.1999511719</ele>
        <time>2022-03-09T13:23:11.000Z</time>
      </trkpt>
      <trkpt lat="44.38216" lon="6.86011">
        <ele>2535.8000488281</ele>
        <time>2022-03-09T13:23:18.000Z</time>
      </trkpt>
      <trkpt lat="44.38217" lon="6.86007">
        <ele>2536.6000976562</ele>
        <time>2022-03-09T13:24:01.000Z</time>
      </trkpt>
      <trkpt lat="44.38217" lon="6.86007">
        <ele>2537.3999023438</ele>
        <time>2022-03-09T13:24:07.000Z</time>
      </trkpt>
      <trkpt lat="44.38217" lon="6.86007">
        <ele>2537.6000976562</ele>
        <time>2022-03-09T13:24:08.000Z</time>
      </trkpt>
      <trkpt lat="44.38217" lon="6.86005">
        <ele>2538.8000488281</ele>
        <time>2022-03-09T13:24:19.000Z</time>
      </trkpt>
      <trkpt lat="44.38213" lon="6.85996">
        <ele>2539.8000488281</ele>
        <time>2022-03-09T13:24:24.000Z</time>
      </trkpt>
      <trkpt lat="44.38212" lon="6.85992">
        <ele>2540</ele>
        <time>2022-03-09T13:24:26.000Z</time>
      </trkpt>
      <trkpt lat="44.38215" lon="6.85983">
        <ele>2540.8000488281</ele>
        <time>2022-03-09T13:24:33.000Z</time>
      </trkpt>
      <trkpt lat="44.38215" lon="6.85983">
        <ele>2541</ele>
        <time>2022-03-09T13:24:34.000Z</time>
      </trkpt>
      <trkpt lat="44.38218" lon="6.85982">
        <ele>2542.1999511719</ele>
        <time>2022-03-09T13:24:39.000Z</time>
      </trkpt>
      <trkpt lat="44.38219" lon="6.85981">
        <ele>2542.3999023438</ele>
        <time>2022-03-09T13:24:41.000Z</time>
      </trkpt>
      <trkpt lat="44.3822" lon="6.8598">
        <ele>2543</ele>
        <time>2022-03-09T13:24:46.000Z</time>
      </trkpt>
      <trkpt lat="44.3822" lon="6.85979">
        <ele>2543.3999023438</ele>
        <time>2022-03-09T13:24:47.000Z</time>
      </trkpt>
      <trkpt lat="44.3822" lon="6.85979">
        <ele>2544.3999023438</ele>
        <time>2022-03-09T13:24:52.000Z</time>
      </trkpt>
      <trkpt lat="44.3822" lon="6.85979">
        <ele>2544.6000976562</ele>
        <time>2022-03-09T13:24:53.000Z</time>
      </trkpt>
      <trkpt lat="44.3822" lon="6.85979">
        <ele>2545.6000976562</ele>
        <time>2022-03-09T13:25:00.000Z</time>
      </trkpt>
      <trkpt lat="44.3822" lon="6.85979">
        <ele>2546.1999511719</ele>
        <time>2022-03-09T13:25:05.000Z</time>
      </trkpt>
      <trkpt lat="44.38219" lon="6.85977">
        <ele>2546.6000976562</ele>
        <time>2022-03-09T13:25:11.000Z</time>
      </trkpt>
      <trkpt lat="44.38217" lon="6.85973">
        <ele>2547.6000976562</ele>
        <time>2022-03-09T13:25:18.000Z</time>
      </trkpt>
      <trkpt lat="44.38215" lon="6.85969">
        <ele>2548.8000488281</ele>
        <time>2022-03-09T13:25:26.000Z</time>
      </trkpt>
      <trkpt lat="44.38215" lon="6.85967">
        <ele>2548.8000488281</ele>
        <time>2022-03-09T13:25:29.000Z</time>
      </trkpt>
      <trkpt lat="44.38214" lon="6.85962">
        <ele>2549.8000488281</ele>
        <time>2022-03-09T13:25:44.000Z</time>
      </trkpt>
      <trkpt lat="44.38215" lon="6.85961">
        <ele>2550.8000488281</ele>
        <time>2022-03-09T13:25:51.000Z</time>
      </trkpt>
      <trkpt lat="44.38218" lon="6.85961">
        <ele>2552</ele>
        <time>2022-03-09T13:25:57.000Z</time>
      </trkpt>
      <trkpt lat="44.38219" lon="6.8596">
        <ele>2553</ele>
        <time>2022-03-09T13:26:05.000Z</time>
      </trkpt>
      <trkpt lat="44.38219" lon="6.85957">
        <ele>2554</ele>
        <time>2022-03-09T13:26:15.000Z</time>
      </trkpt>
      <trkpt lat="44.38216" lon="6.85954">
        <ele>2555.3999023438</ele>
        <time>2022-03-09T13:26:21.000Z</time>
      </trkpt>
      <trkpt lat="44.38211" lon="6.85946">
        <ele>2556.8000488281</ele>
        <time>2022-03-09T13:26:43.000Z</time>
      </trkpt>
      <trkpt lat="44.38211" lon="6.85945">
        <ele>2557.1999511719</ele>
        <time>2022-03-09T13:26:45.000Z</time>
      </trkpt>
      <trkpt lat="44.38211" lon="6.85945">
        <ele>2557.3999023438</ele>
        <time>2022-03-09T13:26:47.000Z</time>
      </trkpt>
      <trkpt lat="44.38211" lon="6.85945">
        <ele>2558</ele>
        <time>2022-03-09T13:26:51.000Z</time>
      </trkpt>
      <trkpt lat="44.38211" lon="6.85945">
        <ele>2559.1999511719</ele>
        <time>2022-03-09T13:26:58.000Z</time>
      </trkpt>
      <trkpt lat="44.38211" lon="6.85944">
        <ele>2560.1999511719</ele>
        <time>2022-03-09T13:27:06.000Z</time>
      </trkpt>
      <trkpt lat="44.3821" lon="6.85943">
        <ele>2561.1999511719</ele>
        <time>2022-03-09T13:27:12.000Z</time>
      </trkpt>
      <trkpt lat="44.38205" lon="6.8594">
        <ele>2562.1999511719</ele>
        <time>2022-03-09T13:27:21.000Z</time>
      </trkpt>
      <trkpt lat="44.38201" lon="6.85933">
        <ele>2563.3999023438</ele>
        <time>2022-03-09T13:27:45.000Z</time>
      </trkpt>
      <trkpt lat="44.38201" lon="6.85932">
        <ele>2564.1999511719</ele>
        <time>2022-03-09T13:27:51.000Z</time>
      </trkpt>
      <trkpt lat="44.38202" lon="6.85931">
        <ele>2564.3999023438</ele>
        <time>2022-03-09T13:27:53.000Z</time>
      </trkpt>
      <trkpt lat="44.38204" lon="6.8593">
        <ele>2565.3999023438</ele>
        <time>2022-03-09T13:27:57.000Z</time>
      </trkpt>
      <trkpt lat="44.38208" lon="6.85928">
        <ele>2566.6000976562</ele>
        <time>2022-03-09T13:28:03.000Z</time>
      </trkpt>
      <trkpt lat="44.3821" lon="6.85926">
        <ele>2567</ele>
        <time>2022-03-09T13:28:07.000Z</time>
      </trkpt>
      <trkpt lat="44.38211" lon="6.85926">
        <ele>2567.6000976562</ele>
        <time>2022-03-09T13:28:10.000Z</time>
      </trkpt>
      <trkpt lat="44.38213" lon="6.85924">
        <ele>2568.6000976562</ele>
        <time>2022-03-09T13:28:19.000Z</time>
      </trkpt>
      <trkpt lat="44.38217" lon="6.85924">
        <ele>2569.8000488281</ele>
        <time>2022-03-09T13:28:27.000Z</time>
      </trkpt>
      <trkpt lat="44.3822" lon="6.85924">
        <ele>2570</ele>
        <time>2022-03-09T13:28:31.000Z</time>
      </trkpt>
      <trkpt lat="44.38223" lon="6.85923">
        <ele>2571</ele>
        <time>2022-03-09T13:28:41.000Z</time>
      </trkpt>
      <trkpt lat="44.38224" lon="6.85922">
        <ele>2572</ele>
        <time>2022-03-09T13:28:49.000Z</time>
      </trkpt>
      <trkpt lat="44.38225" lon="6.85922">
        <ele>2573</ele>
        <time>2022-03-09T13:28:58.000Z</time>
      </trkpt>
      <trkpt lat="44.38224" lon="6.8592">
        <ele>2574</ele>
        <time>2022-03-09T13:29:04.000Z</time>
      </trkpt>
      <trkpt lat="44.38222" lon="6.85917">
        <ele>2575.1999511719</ele>
        <time>2022-03-09T13:29:12.000Z</time>
      </trkpt>
      <trkpt lat="44.3822" lon="6.85914">
        <ele>2576.1999511719</ele>
        <time>2022-03-09T13:29:18.000Z</time>
      </trkpt>
      <trkpt lat="44.38219" lon="6.85913">
        <ele>2576.1999511719</ele>
        <time>2022-03-09T13:29:20.000Z</time>
      </trkpt>
      <trkpt lat="44.38215" lon="6.85908">
        <ele>2577.1999511719</ele>
        <time>2022-03-09T13:29:32.000Z</time>
      </trkpt>
      <trkpt lat="44.3822" lon="6.85906">
        <ele>2577.8000488281</ele>
        <time>2022-03-09T13:29:42.000Z</time>
      </trkpt>
      <trkpt lat="44.38226" lon="6.85905">
        <ele>2578.1999511719</ele>
        <time>2022-03-09T13:29:47.000Z</time>
      </trkpt>
      <trkpt lat="44.38229" lon="6.85905">
        <ele>2579.1999511719</ele>
        <time>2022-03-09T13:29:50.000Z</time>
      </trkpt>
      <trkpt lat="44.38231" lon="6.85905">
        <ele>2579.8000488281</ele>
        <time>2022-03-09T13:29:53.000Z</time>
      </trkpt>
      <trkpt lat="44.38233" lon="6.85904">
        <ele>2580.6000976562</ele>
        <time>2022-03-09T13:29:58.000Z</time>
      </trkpt>
      <trkpt lat="44.38234" lon="6.85904">
        <ele>2581</ele>
        <time>2022-03-09T13:30:00.000Z</time>
      </trkpt>
      <trkpt lat="44.38235" lon="6.85903">
        <ele>2580.8000488281</ele>
        <time>2022-03-09T13:30:05.000Z</time>
      </trkpt>
      <trkpt lat="44.38235" lon="6.85903">
        <ele>2580.8000488281</ele>
        <time>2022-03-09T13:30:06.000Z</time>
      </trkpt>
      <trkpt lat="44.38237" lon="6.85901">
        <ele>2581.3999023438</ele>
        <time>2022-03-09T13:30:14.000Z</time>
      </trkpt>
      <trkpt lat="44.38237" lon="6.85901">
        <ele>2581.6000976562</ele>
        <time>2022-03-09T13:30:17.000Z</time>
      </trkpt>
      <trkpt lat="44.38237" lon="6.85902">
        <ele>2582.6000976562</ele>
        <time>2022-03-09T13:30:25.000Z</time>
      </trkpt>
      <trkpt lat="44.38237" lon="6.85902">
        <ele>2582.6000976562</ele>
        <time>2022-03-09T13:30:27.000Z</time>
      </trkpt>
      <trkpt lat="44.38237" lon="6.85905">
        <ele>2581.6000976562</ele>
        <time>2022-03-09T13:31:58.000Z</time>
      </trkpt>
      <trkpt lat="44.38237" lon="6.85905">
        <ele>2581.3999023438</ele>
        <time>2022-03-09T13:32:03.000Z</time>
      </trkpt>
      <trkpt lat="44.38236" lon="6.85906">
        <ele>2582.6000976562</ele>
        <time>2022-03-09T13:32:12.000Z</time>
      </trkpt>
      <trkpt lat="44.38236" lon="6.85906">
        <ele>2582.1999511719</ele>
        <time>2022-03-09T13:32:21.000Z</time>
      </trkpt>
      <trkpt lat="44.38237" lon="6.85903">
        <ele>2582.1999511719</ele>
        <time>2022-03-09T13:33:00.000Z</time>
      </trkpt>
      <trkpt lat="44.38235" lon="6.85903">
        <ele>2583.8000488281</ele>
        <time>2022-03-09T13:34:01.000Z</time>
      </trkpt>
      <trkpt lat="44.38242" lon="6.85896">
        <ele>2584.3999023438</ele>
        <time>2022-03-09T13:34:08.000Z</time>
      </trkpt>
      <trkpt lat="44.38244" lon="6.85894">
        <ele>2585</ele>
        <time>2022-03-09T13:34:11.000Z</time>
      </trkpt>
      <trkpt lat="44.38245" lon="6.85891">
        <ele>2585.8000488281</ele>
        <time>2022-03-09T13:34:15.000Z</time>
      </trkpt>
      <trkpt lat="44.38245" lon="6.8589">
        <ele>2586</ele>
        <time>2022-03-09T13:34:17.000Z</time>
      </trkpt>
      <trkpt lat="44.38243" lon="6.85888">
        <ele>2587.3999023438</ele>
        <time>2022-03-09T13:34:22.000Z</time>
      </trkpt>
      <trkpt lat="44.38239" lon="6.85884">
        <ele>2588.1999511719</ele>
        <time>2022-03-09T13:34:29.000Z</time>
      </trkpt>
      <trkpt lat="44.38238" lon="6.85883">
        <ele>2588.6000976562</ele>
        <time>2022-03-09T13:34:31.000Z</time>
      </trkpt>
      <trkpt lat="44.38236" lon="6.85882">
        <ele>2590</ele>
        <time>2022-03-09T13:34:35.000Z</time>
      </trkpt>
      <trkpt lat="44.38235" lon="6.8588">
        <ele>2591</ele>
        <time>2022-03-09T13:34:39.000Z</time>
      </trkpt>
      <trkpt lat="44.38234" lon="6.85878">
        <ele>2591.6000976562</ele>
        <time>2022-03-09T13:34:43.000Z</time>
      </trkpt>
      <trkpt lat="44.38232" lon="6.85879">
        <ele>2592</ele>
        <time>2022-03-09T13:34:47.000Z</time>
      </trkpt>
      <trkpt lat="44.38229" lon="6.85876">
        <ele>2593</ele>
        <time>2022-03-09T13:34:54.000Z</time>
      </trkpt>
      <trkpt lat="44.38228" lon="6.85875">
        <ele>2593.1999511719</ele>
        <time>2022-03-09T13:34:56.000Z</time>
      </trkpt>
      <trkpt lat="44.38226" lon="6.85874">
        <ele>2594</ele>
        <time>2022-03-09T13:35:01.000Z</time>
      </trkpt>
      <trkpt lat="44.38225" lon="6.85873">
        <ele>2594.1999511719</ele>
        <time>2022-03-09T13:35:04.000Z</time>
      </trkpt>
      <trkpt lat="44.38224" lon="6.85868">
        <ele>2594.6000976562</ele>
        <time>2022-03-09T13:35:12.000Z</time>
      </trkpt>
      <trkpt lat="44.38227" lon="6.85864">
        <ele>2595</ele>
        <time>2022-03-09T13:35:21.000Z</time>
      </trkpt>
      <trkpt lat="44.38228" lon="6.85864">
        <ele>2595</ele>
        <time>2022-03-09T13:35:22.000Z</time>
      </trkpt>
      <trkpt lat="44.38228" lon="6.85864">
        <ele>2595.3999023438</ele>
        <time>2022-03-09T13:35:23.000Z</time>
      </trkpt>
      <trkpt lat="44.38233" lon="6.85861">
        <ele>2596.1999511719</ele>
        <time>2022-03-09T13:35:31.000Z</time>
      </trkpt>
      <trkpt lat="44.38234" lon="6.85861">
        <ele>2596.6000976562</ele>
        <time>2022-03-09T13:35:33.000Z</time>
      </trkpt>
      <trkpt lat="44.38236" lon="6.85859">
        <ele>2597.1999511719</ele>
        <time>2022-03-09T13:35:36.000Z</time>
      </trkpt>
      <trkpt lat="44.38239" lon="6.85858">
        <ele>2598.1999511719</ele>
        <time>2022-03-09T13:35:43.000Z</time>
      </trkpt>
      <trkpt lat="44.38239" lon="6.85857">
        <ele>2598.3999023438</ele>
        <time>2022-03-09T13:35:44.000Z</time>
      </trkpt>
      <trkpt lat="44.38241" lon="6.85857">
        <ele>2599.3999023438</ele>
        <time>2022-03-09T13:35:47.000Z</time>
      </trkpt>
      <trkpt lat="44.38242" lon="6.85857">
        <ele>2600.1999511719</ele>
        <time>2022-03-09T13:35:51.000Z</time>
      </trkpt>
      <trkpt lat="44.38243" lon="6.85856">
        <ele>2600.8000488281</ele>
        <time>2022-03-09T13:35:52.000Z</time>
      </trkpt>
      <trkpt lat="44.38245" lon="6.85856">
        <ele>2601.8000488281</ele>
        <time>2022-03-09T13:35:57.000Z</time>
      </trkpt>
      <trkpt lat="44.38246" lon="6.85856">
        <ele>2602</ele>
        <time>2022-03-09T13:35:59.000Z</time>
      </trkpt>
      <trkpt lat="44.38247" lon="6.85855">
        <ele>2602.1999511719</ele>
        <time>2022-03-09T13:36:02.000Z</time>
      </trkpt>
      <trkpt lat="44.38251" lon="6.85855">
        <ele>2602.8000488281</ele>
        <time>2022-03-09T13:36:10.000Z</time>
      </trkpt>
      <trkpt lat="44.38253" lon="6.85854">
        <ele>2602.8000488281</ele>
        <time>2022-03-09T13:36:12.000Z</time>
      </trkpt>
      <trkpt lat="44.38257" lon="6.85854">
        <ele>2603.8000488281</ele>
        <time>2022-03-09T13:36:18.000Z</time>
      </trkpt>
      <trkpt lat="44.38261" lon="6.85853">
        <ele>2604</ele>
        <time>2022-03-09T13:36:26.000Z</time>
      </trkpt>
      <trkpt lat="44.38262" lon="6.85852">
        <ele>2604.1999511719</ele>
        <time>2022-03-09T13:36:28.000Z</time>
      </trkpt>
      <trkpt lat="44.38263" lon="6.8585">
        <ele>2604.3999023438</ele>
        <time>2022-03-09T13:36:31.000Z</time>
      </trkpt>
      <trkpt lat="44.38265" lon="6.8585">
        <ele>2604.6000976562</ele>
        <time>2022-03-09T13:36:34.000Z</time>
      </trkpt>
      <trkpt lat="44.38272" lon="6.85846">
        <ele>2604.6000976562</ele>
        <time>2022-03-09T13:36:43.000Z</time>
      </trkpt>
      <trkpt lat="44.38276" lon="6.85846">
        <ele>2605</ele>
        <time>2022-03-09T13:36:48.000Z</time>
      </trkpt>
      <trkpt lat="44.38278" lon="6.85845">
        <ele>2605.3999023438</ele>
        <time>2022-03-09T13:36:51.000Z</time>
      </trkpt>
      <trkpt lat="44.38282" lon="6.85845">
        <ele>2606</ele>
        <time>2022-03-09T13:36:54.000Z</time>
      </trkpt>
      <trkpt lat="44.38285" lon="6.85844">
        <ele>2606.6000976562</ele>
        <time>2022-03-09T13:36:58.000Z</time>
      </trkpt>
      <trkpt lat="44.38288" lon="6.85845">
        <ele>2607.1999511719</ele>
        <time>2022-03-09T13:37:03.000Z</time>
      </trkpt>
      <trkpt lat="44.38289" lon="6.85845">
        <ele>2607.6000976562</ele>
        <time>2022-03-09T13:37:06.000Z</time>
      </trkpt>
      <trkpt lat="44.3829" lon="6.85846">
        <ele>2608</ele>
        <time>2022-03-09T13:37:07.000Z</time>
      </trkpt>
      <trkpt lat="44.38291" lon="6.85846">
        <ele>2608.1999511719</ele>
        <time>2022-03-09T13:37:09.000Z</time>
      </trkpt>
      <trkpt lat="44.38292" lon="6.85845">
        <ele>2609.1999511719</ele>
        <time>2022-03-09T13:37:15.000Z</time>
      </trkpt>
      <trkpt lat="44.38292" lon="6.85845">
        <ele>2609.1999511719</ele>
        <time>2022-03-09T13:37:16.000Z</time>
      </trkpt>
      <trkpt lat="44.38295" lon="6.85847">
        <ele>2609.8000488281</ele>
        <time>2022-03-09T13:37:22.000Z</time>
      </trkpt>
      <trkpt lat="44.38295" lon="6.85847">
        <ele>2610.3999023438</ele>
        <time>2022-03-09T13:37:25.000Z</time>
      </trkpt>
      <trkpt lat="44.38295" lon="6.85846">
        <ele>2610.8000488281</ele>
        <time>2022-03-09T13:37:27.000Z</time>
      </trkpt>
      <trkpt lat="44.38295" lon="6.85844">
        <ele>2611.6000976562</ele>
        <time>2022-03-09T13:37:30.000Z</time>
      </trkpt>
      <trkpt lat="44.38294" lon="6.85842">
        <ele>2612.6000976562</ele>
        <time>2022-03-09T13:37:34.000Z</time>
      </trkpt>
      <trkpt lat="44.38294" lon="6.8584">
        <ele>2612.8000488281</ele>
        <time>2022-03-09T13:37:36.000Z</time>
      </trkpt>
      <trkpt lat="44.38293" lon="6.85834">
        <ele>2613</ele>
        <time>2022-03-09T13:37:43.000Z</time>
      </trkpt>
      <trkpt lat="44.38292" lon="6.8583">
        <ele>2613.1999511719</ele>
        <time>2022-03-09T13:37:49.000Z</time>
      </trkpt>
      <trkpt lat="44.38292" lon="6.85829">
        <ele>2613.1999511719</ele>
        <time>2022-03-09T13:37:50.000Z</time>
      </trkpt>
      <trkpt lat="44.38291" lon="6.85826">
        <ele>2613.8000488281</ele>
        <time>2022-03-09T13:37:53.000Z</time>
      </trkpt>
      <trkpt lat="44.38291" lon="6.85822">
        <ele>2614.6000976562</ele>
        <time>2022-03-09T13:37:58.000Z</time>
      </trkpt>
      <trkpt lat="44.38291" lon="6.85822">
        <ele>2614.8000488281</ele>
        <time>2022-03-09T13:37:59.000Z</time>
      </trkpt>
      <trkpt lat="44.38288" lon="6.85817">
        <ele>2616</ele>
        <time>2022-03-09T13:38:07.000Z</time>
      </trkpt>
      <trkpt lat="44.38288" lon="6.85816">
        <ele>2616.3999023438</ele>
        <time>2022-03-09T13:38:09.000Z</time>
      </trkpt>
      <trkpt lat="44.38286" lon="6.85815">
        <ele>2617.1999511719</ele>
        <time>2022-03-09T13:38:12.000Z</time>
      </trkpt>
      <trkpt lat="44.38286" lon="6.85814">
        <ele>2617.3999023438</ele>
        <time>2022-03-09T13:38:14.000Z</time>
      </trkpt>
      <trkpt lat="44.38283" lon="6.85811">
        <ele>2618.1999511719</ele>
        <time>2022-03-09T13:38:21.000Z</time>
      </trkpt>
      <trkpt lat="44.38283" lon="6.85811">
        <ele>2618.1999511719</ele>
        <time>2022-03-09T13:38:22.000Z</time>
      </trkpt>
      <trkpt lat="44.38282" lon="6.85812">
        <ele>2619.1999511719</ele>
        <time>2022-03-09T13:38:27.000Z</time>
      </trkpt>
      <trkpt lat="44.38282" lon="6.85811">
        <ele>2619.6000976562</ele>
        <time>2022-03-09T13:38:31.000Z</time>
      </trkpt>
      <trkpt lat="44.38284" lon="6.8581">
        <ele>2619.6000976562</ele>
        <time>2022-03-09T13:38:37.000Z</time>
      </trkpt>
      <trkpt lat="44.38287" lon="6.85808">
        <ele>2620</ele>
        <time>2022-03-09T13:38:43.000Z</time>
      </trkpt>
      <trkpt lat="44.38288" lon="6.85809">
        <ele>2620.3999023438</ele>
        <time>2022-03-09T13:38:44.000Z</time>
      </trkpt>
      <trkpt lat="44.38292" lon="6.85807">
        <ele>2621.3999023438</ele>
        <time>2022-03-09T13:38:53.000Z</time>
      </trkpt>
      <trkpt lat="44.38297" lon="6.85804">
        <ele>2622.6000976562</ele>
        <time>2022-03-09T13:39:02.000Z</time>
      </trkpt>
      <trkpt lat="44.38298" lon="6.85805">
        <ele>2622.8000488281</ele>
        <time>2022-03-09T13:39:03.000Z</time>
      </trkpt>
      <trkpt lat="44.38301" lon="6.85806">
        <ele>2623.6000976562</ele>
        <time>2022-03-09T13:39:08.000Z</time>
      </trkpt>
      <trkpt lat="44.38302" lon="6.85806">
        <ele>2623.8000488281</ele>
        <time>2022-03-09T13:39:10.000Z</time>
      </trkpt>
      <trkpt lat="44.38307" lon="6.85805">
        <ele>2624.3999023438</ele>
        <time>2022-03-09T13:39:14.000Z</time>
      </trkpt>
      <trkpt lat="44.38308" lon="6.85805">
        <ele>2624.6000976562</ele>
        <time>2022-03-09T13:39:16.000Z</time>
      </trkpt>
      <trkpt lat="44.38311" lon="6.85804">
        <ele>2625.3999023438</ele>
        <time>2022-03-09T13:39:20.000Z</time>
      </trkpt>
      <trkpt lat="44.38311" lon="6.85806">
        <ele>2625.6000976562</ele>
        <time>2022-03-09T13:39:22.000Z</time>
      </trkpt>
      <trkpt lat="44.38314" lon="6.85806">
        <ele>2626.1999511719</ele>
        <time>2022-03-09T13:39:27.000Z</time>
      </trkpt>
      <trkpt lat="44.38315" lon="6.85804">
        <ele>2626.8000488281</ele>
        <time>2022-03-09T13:39:31.000Z</time>
      </trkpt>
      <trkpt lat="44.38315" lon="6.85802">
        <ele>2627.6000976562</ele>
        <time>2022-03-09T13:39:35.000Z</time>
      </trkpt>
      <trkpt lat="44.38315" lon="6.85801">
        <ele>2627.8000488281</ele>
        <time>2022-03-09T13:39:37.000Z</time>
      </trkpt>
      <trkpt lat="44.38315" lon="6.85797">
        <ele>2628.6000976562</ele>
        <time>2022-03-09T13:39:42.000Z</time>
      </trkpt>
      <trkpt lat="44.38315" lon="6.85796">
        <ele>2629</ele>
        <time>2022-03-09T13:39:43.000Z</time>
      </trkpt>
      <trkpt lat="44.38315" lon="6.85795">
        <ele>2629.1999511719</ele>
        <time>2022-03-09T13:39:44.000Z</time>
      </trkpt>
      <trkpt lat="44.38315" lon="6.85792">
        <ele>2629.3999023438</ele>
        <time>2022-03-09T13:39:48.000Z</time>
      </trkpt>
      <trkpt lat="44.38316" lon="6.85791">
        <ele>2630</ele>
        <time>2022-03-09T13:39:51.000Z</time>
      </trkpt>
      <trkpt lat="44.38317" lon="6.8579">
        <ele>2630.1999511719</ele>
        <time>2022-03-09T13:39:55.000Z</time>
      </trkpt>
      <trkpt lat="44.38319" lon="6.8579">
        <ele>2631</ele>
        <time>2022-03-09T13:40:01.000Z</time>
      </trkpt>
      <trkpt lat="44.38322" lon="6.85789">
        <ele>2631.8000488281</ele>
        <time>2022-03-09T13:40:04.000Z</time>
      </trkpt>
      <trkpt lat="44.38323" lon="6.85789">
        <ele>2632.1999511719</ele>
        <time>2022-03-09T13:40:08.000Z</time>
      </trkpt>
      <trkpt lat="44.38329" lon="6.85791">
        <ele>2632.6000976562</ele>
        <time>2022-03-09T13:40:13.000Z</time>
      </trkpt>
      <trkpt lat="44.38331" lon="6.8579">
        <ele>2633.1999511719</ele>
        <time>2022-03-09T13:40:18.000Z</time>
      </trkpt>
      <trkpt lat="44.38335" lon="6.85789">
        <ele>2633.6000976562</ele>
        <time>2022-03-09T13:40:22.000Z</time>
      </trkpt>
      <trkpt lat="44.38338" lon="6.85789">
        <ele>2634.1999511719</ele>
        <time>2022-03-09T13:40:26.000Z</time>
      </trkpt>
      <trkpt lat="44.3834" lon="6.85789">
        <ele>2635.1999511719</ele>
        <time>2022-03-09T13:40:31.000Z</time>
      </trkpt>
      <trkpt lat="44.38341" lon="6.85789">
        <ele>2635.3999023438</ele>
        <time>2022-03-09T13:40:32.000Z</time>
      </trkpt>
      <trkpt lat="44.38344" lon="6.85789">
        <ele>2636.3999023438</ele>
        <time>2022-03-09T13:40:37.000Z</time>
      </trkpt>
      <trkpt lat="44.38346" lon="6.85789">
        <ele>2637.1999511719</ele>
        <time>2022-03-09T13:40:42.000Z</time>
      </trkpt>
      <trkpt lat="44.38347" lon="6.85789">
        <ele>2637.3999023438</ele>
        <time>2022-03-09T13:40:43.000Z</time>
      </trkpt>
      <trkpt lat="44.38349" lon="6.85789">
        <ele>2638</ele>
        <time>2022-03-09T13:40:47.000Z</time>
      </trkpt>
      <trkpt lat="44.38351" lon="6.85789">
        <ele>2638.3999023438</ele>
        <time>2022-03-09T13:40:50.000Z</time>
      </trkpt>
      <trkpt lat="44.38353" lon="6.85789">
        <ele>2639.1999511719</ele>
        <time>2022-03-09T13:40:57.000Z</time>
      </trkpt>
      <trkpt lat="44.38353" lon="6.8579">
        <ele>2639.3999023438</ele>
        <time>2022-03-09T13:41:00.000Z</time>
      </trkpt>
      <trkpt lat="44.38357" lon="6.85792">
        <ele>2640.1999511719</ele>
        <time>2022-03-09T13:41:07.000Z</time>
      </trkpt>
      <trkpt lat="44.38359" lon="6.85792">
        <ele>2640.3999023438</ele>
        <time>2022-03-09T13:41:09.000Z</time>
      </trkpt>
      <trkpt lat="44.38364" lon="6.85792">
        <ele>2641.3999023438</ele>
        <time>2022-03-09T13:41:17.000Z</time>
      </trkpt>
      <trkpt lat="44.38364" lon="6.85792">
        <ele>2641.8000488281</ele>
        <time>2022-03-09T13:41:18.000Z</time>
      </trkpt>
      <trkpt lat="44.38366" lon="6.85792">
        <ele>2642.6000976562</ele>
        <time>2022-03-09T13:41:22.000Z</time>
      </trkpt>
      <trkpt lat="44.3837" lon="6.85793">
        <ele>2643.3999023438</ele>
        <time>2022-03-09T13:41:27.000Z</time>
      </trkpt>
      <trkpt lat="44.3837" lon="6.85793">
        <ele>2643.6000976562</ele>
        <time>2022-03-09T13:41:29.000Z</time>
      </trkpt>
      <trkpt lat="44.38375" lon="6.85794">
        <ele>2644.6000976562</ele>
        <time>2022-03-09T13:41:35.000Z</time>
      </trkpt>
      <trkpt lat="44.38376" lon="6.85795">
        <ele>2645.1999511719</ele>
        <time>2022-03-09T13:41:38.000Z</time>
      </trkpt>
      <trkpt lat="44.38378" lon="6.85795">
        <ele>2645.6000976562</ele>
        <time>2022-03-09T13:41:45.000Z</time>
      </trkpt>
      <trkpt lat="44.38378" lon="6.85795">
        <ele>2645.8000488281</ele>
        <time>2022-03-09T13:41:46.000Z</time>
      </trkpt>
      <trkpt lat="44.38378" lon="6.85795">
        <ele>2646.1999511719</ele>
        <time>2022-03-09T13:41:48.000Z</time>
      </trkpt>
      <trkpt lat="44.38377" lon="6.85793">
        <ele>2646.1999511719</ele>
        <time>2022-03-09T13:41:55.000Z</time>
      </trkpt>
      <trkpt lat="44.38378" lon="6.8579">
        <ele>2646.8000488281</ele>
        <time>2022-03-09T13:41:58.000Z</time>
      </trkpt>
      <trkpt lat="44.38378" lon="6.85787">
        <ele>2647</ele>
        <time>2022-03-09T13:42:01.000Z</time>
      </trkpt>
      <trkpt lat="44.38377" lon="6.85786">
        <ele>2647.3999023438</ele>
        <time>2022-03-09T13:42:03.000Z</time>
      </trkpt>
      <trkpt lat="44.38377" lon="6.85784">
        <ele>2648</ele>
        <time>2022-03-09T13:42:06.000Z</time>
      </trkpt>
      <trkpt lat="44.38376" lon="6.8578">
        <ele>2648.8000488281</ele>
        <time>2022-03-09T13:42:12.000Z</time>
      </trkpt>
      <trkpt lat="44.38376" lon="6.85779">
        <ele>2649</ele>
        <time>2022-03-09T13:42:13.000Z</time>
      </trkpt>
      <trkpt lat="44.38374" lon="6.85774">
        <ele>2650.1999511719</ele>
        <time>2022-03-09T13:42:19.000Z</time>
      </trkpt>
      <trkpt lat="44.38373" lon="6.8577">
        <ele>2651.1999511719</ele>
        <time>2022-03-09T13:42:26.000Z</time>
      </trkpt>
      <trkpt lat="44.38372" lon="6.85769">
        <ele>2651.6000976562</ele>
        <time>2022-03-09T13:42:27.000Z</time>
      </trkpt>
      <trkpt lat="44.38371" lon="6.85765">
        <ele>2652.6000976562</ele>
        <time>2022-03-09T13:42:33.000Z</time>
      </trkpt>
      <trkpt lat="44.38371" lon="6.85764">
        <ele>2652.6000976562</ele>
        <time>2022-03-09T13:42:34.000Z</time>
      </trkpt>
      <trkpt lat="44.38369" lon="6.8576">
        <ele>2654</ele>
        <time>2022-03-09T13:42:41.000Z</time>
      </trkpt>
      <trkpt lat="44.38368" lon="6.85758">
        <ele>2654.3999023438</ele>
        <time>2022-03-09T13:42:43.000Z</time>
      </trkpt>
      <trkpt lat="44.38368" lon="6.85757">
        <ele>2655</ele>
        <time>2022-03-09T13:42:46.000Z</time>
      </trkpt>
      <trkpt lat="44.38368" lon="6.85757">
        <ele>2655.1999511719</ele>
        <time>2022-03-09T13:42:53.000Z</time>
      </trkpt>
      <trkpt lat="44.38367" lon="6.85758">
        <ele>2656.1999511719</ele>
        <time>2022-03-09T13:43:07.000Z</time>
      </trkpt>
      <trkpt lat="44.38367" lon="6.85758">
        <ele>2657.3999023438</ele>
        <time>2022-03-09T13:43:10.000Z</time>
      </trkpt>
      <trkpt lat="44.38366" lon="6.85757">
        <ele>2658.3999023438</ele>
        <time>2022-03-09T13:43:19.000Z</time>
      </trkpt>
      <trkpt lat="44.38365" lon="6.85754">
        <ele>2659.3999023438</ele>
        <time>2022-03-09T13:43:24.000Z</time>
      </trkpt>
      <trkpt lat="44.38364" lon="6.85749">
        <ele>2660.3999023438</ele>
        <time>2022-03-09T13:43:31.000Z</time>
      </trkpt>
      <trkpt lat="44.38363" lon="6.85744">
        <ele>2661.6000976562</ele>
        <time>2022-03-09T13:43:37.000Z</time>
      </trkpt>
      <trkpt lat="44.38362" lon="6.85735">
        <ele>2662.6000976562</ele>
        <time>2022-03-09T13:43:50.000Z</time>
      </trkpt>
      <trkpt lat="44.38363" lon="6.85733">
        <ele>2663.8000488281</ele>
        <time>2022-03-09T13:43:58.000Z</time>
      </trkpt>
      <trkpt lat="44.38366" lon="6.85733">
        <ele>2665</ele>
        <time>2022-03-09T13:44:03.000Z</time>
      </trkpt>
      <trkpt lat="44.38371" lon="6.85733">
        <ele>2666</ele>
        <time>2022-03-09T13:44:11.000Z</time>
      </trkpt>
      <trkpt lat="44.38373" lon="6.85732">
        <ele>2667.1999511719</ele>
        <time>2022-03-09T13:44:16.000Z</time>
      </trkpt>
      <trkpt lat="44.38375" lon="6.85732">
        <ele>2668.1999511719</ele>
        <time>2022-03-09T13:44:20.000Z</time>
      </trkpt>
      <trkpt lat="44.38381" lon="6.85731">
        <ele>2669.3999023438</ele>
        <time>2022-03-09T13:44:46.000Z</time>
      </trkpt>
      <trkpt lat="44.38381" lon="6.8573">
        <ele>2670.8000488281</ele>
        <time>2022-03-09T13:44:55.000Z</time>
      </trkpt>
      <trkpt lat="44.38381" lon="6.85728">
        <ele>2671.8000488281</ele>
        <time>2022-03-09T13:45:04.000Z</time>
      </trkpt>
      <trkpt lat="44.38381" lon="6.85726">
        <ele>2673</ele>
        <time>2022-03-09T13:45:09.000Z</time>
      </trkpt>
      <trkpt lat="44.3838" lon="6.8572">
        <ele>2674</ele>
        <time>2022-03-09T13:45:16.000Z</time>
      </trkpt>
      <trkpt lat="44.38378" lon="6.85714">
        <ele>2675</ele>
        <time>2022-03-09T13:45:24.000Z</time>
      </trkpt>
      <trkpt lat="44.38375" lon="6.85709">
        <ele>2676.1999511719</ele>
        <time>2022-03-09T13:45:30.000Z</time>
      </trkpt>
      <trkpt lat="44.38374" lon="6.85705">
        <ele>2677</ele>
        <time>2022-03-09T13:45:36.000Z</time>
      </trkpt>
      <trkpt lat="44.38373" lon="6.85704">
        <ele>2677.3999023438</ele>
        <time>2022-03-09T13:45:38.000Z</time>
      </trkpt>
      <trkpt lat="44.38371" lon="6.857">
        <ele>2678.6000976562</ele>
        <time>2022-03-09T13:45:45.000Z</time>
      </trkpt>
      <trkpt lat="44.38369" lon="6.85696">
        <ele>2679.8000488281</ele>
        <time>2022-03-09T13:45:52.000Z</time>
      </trkpt>
      <trkpt lat="44.38367" lon="6.85691">
        <ele>2680.8000488281</ele>
        <time>2022-03-09T13:46:00.000Z</time>
      </trkpt>
      <trkpt lat="44.38366" lon="6.85689">
        <ele>2681.8000488281</ele>
        <time>2022-03-09T13:46:05.000Z</time>
      </trkpt>
      <trkpt lat="44.38365" lon="6.85687">
        <ele>2682.8000488281</ele>
        <time>2022-03-09T13:46:10.000Z</time>
      </trkpt>
      <trkpt lat="44.38365" lon="6.85686">
        <ele>2683.8000488281</ele>
        <time>2022-03-09T13:46:18.000Z</time>
      </trkpt>
      <trkpt lat="44.38365" lon="6.85686">
        <ele>2685</ele>
        <time>2022-03-09T13:46:26.000Z</time>
      </trkpt>
      <trkpt lat="44.38365" lon="6.85686">
        <ele>2686</ele>
        <time>2022-03-09T13:46:31.000Z</time>
      </trkpt>
      <trkpt lat="44.38365" lon="6.85686">
        <ele>2687</ele>
        <time>2022-03-09T13:46:36.000Z</time>
      </trkpt>
      <trkpt lat="44.38365" lon="6.85686">
        <ele>2687.1999511719</ele>
        <time>2022-03-09T13:46:37.000Z</time>
      </trkpt>
      <trkpt lat="44.38364" lon="6.85686">
        <ele>2688.1999511719</ele>
        <time>2022-03-09T13:46:45.000Z</time>
      </trkpt>
      <trkpt lat="44.38357" lon="6.85672">
        <ele>2689.1999511719</ele>
        <time>2022-03-09T13:46:53.000Z</time>
      </trkpt>
      <trkpt lat="44.3835" lon="6.85658">
        <ele>2689.8000488281</ele>
        <time>2022-03-09T13:46:56.000Z</time>
      </trkpt>
      <trkpt lat="44.38338" lon="6.8564">
        <ele>2690.3999023438</ele>
        <time>2022-03-09T13:47:01.000Z</time>
      </trkpt>
      <trkpt lat="44.38337" lon="6.85639">
        <ele>2691.3999023438</ele>
        <time>2022-03-09T13:47:04.000Z</time>
      </trkpt>
      <trkpt lat="44.38335" lon="6.85636">
        <ele>2692.1999511719</ele>
        <time>2022-03-09T13:47:08.000Z</time>
      </trkpt>
      <trkpt lat="44.38335" lon="6.85635">
        <ele>2692.6000976562</ele>
        <time>2022-03-09T13:47:10.000Z</time>
      </trkpt>
      <trkpt lat="44.38335" lon="6.85633">
        <ele>2693</ele>
        <time>2022-03-09T13:47:12.000Z</time>
      </trkpt>
      <trkpt lat="44.38334" lon="6.85632">
        <ele>2693.6000976562</ele>
        <time>2022-03-09T13:47:15.000Z</time>
      </trkpt>
      <trkpt lat="44.38332" lon="6.85627">
        <ele>2694.6000976562</ele>
        <time>2022-03-09T13:47:20.000Z</time>
      </trkpt>
      <trkpt lat="44.38331" lon="6.85625">
        <ele>2695.6000976562</ele>
        <time>2022-03-09T13:47:24.000Z</time>
      </trkpt>
      <trkpt lat="44.38331" lon="6.85624">
        <ele>2695.8000488281</ele>
        <time>2022-03-09T13:47:26.000Z</time>
      </trkpt>
      <trkpt lat="44.38329" lon="6.85617">
        <ele>2697</ele>
        <time>2022-03-09T13:47:35.000Z</time>
      </trkpt>
      <trkpt lat="44.38331" lon="6.85614">
        <ele>2698</ele>
        <time>2022-03-09T13:47:41.000Z</time>
      </trkpt>
      <trkpt lat="44.38333" lon="6.85614">
        <ele>2698.8000488281</ele>
        <time>2022-03-09T13:47:44.000Z</time>
      </trkpt>
      <trkpt lat="44.38335" lon="6.85614">
        <ele>2699</ele>
        <time>2022-03-09T13:47:47.000Z</time>
      </trkpt>
      <trkpt lat="44.38335" lon="6.85613">
        <ele>2699.6000976562</ele>
        <time>2022-03-09T13:47:54.000Z</time>
      </trkpt>
      <trkpt lat="44.38338" lon="6.85613">
        <ele>2699.3999023438</ele>
        <time>2022-03-09T13:48:02.000Z</time>
      </trkpt>
      <trkpt lat="44.38343" lon="6.85613">
        <ele>2700.1999511719</ele>
        <time>2022-03-09T13:48:09.000Z</time>
      </trkpt>
      <trkpt lat="44.38343" lon="6.85613">
        <ele>2700.3999023438</ele>
        <time>2022-03-09T13:48:10.000Z</time>
      </trkpt>
      <trkpt lat="44.38345" lon="6.85612">
        <ele>2701.3999023438</ele>
        <time>2022-03-09T13:48:13.000Z</time>
      </trkpt>
      <trkpt lat="44.38349" lon="6.85612">
        <ele>2702.3999023438</ele>
        <time>2022-03-09T13:48:22.000Z</time>
      </trkpt>
      <trkpt lat="44.38352" lon="6.85611">
        <ele>2703.6000976562</ele>
        <time>2022-03-09T13:48:26.000Z</time>
      </trkpt>
      <trkpt lat="44.38353" lon="6.85611">
        <ele>2704.1999511719</ele>
        <time>2022-03-09T13:48:29.000Z</time>
      </trkpt>
      <trkpt lat="44.38354" lon="6.85611">
        <ele>2704.8000488281</ele>
        <time>2022-03-09T13:48:31.000Z</time>
      </trkpt>
      <trkpt lat="44.38358" lon="6.85611">
        <ele>2705.6000976562</ele>
        <time>2022-03-09T13:48:37.000Z</time>
      </trkpt>
      <trkpt lat="44.38358" lon="6.8561">
        <ele>2705.8000488281</ele>
        <time>2022-03-09T13:48:38.000Z</time>
      </trkpt>
      <trkpt lat="44.38359" lon="6.85609">
        <ele>2706.8000488281</ele>
        <time>2022-03-09T13:48:45.000Z</time>
      </trkpt>
      <trkpt lat="44.38359" lon="6.85607">
        <ele>2707</ele>
        <time>2022-03-09T13:48:47.000Z</time>
      </trkpt>
      <trkpt lat="44.38358" lon="6.85606">
        <ele>2707.3999023438</ele>
        <time>2022-03-09T13:48:49.000Z</time>
      </trkpt>
      <trkpt lat="44.38357" lon="6.856">
        <ele>2708</ele>
        <time>2022-03-09T13:48:56.000Z</time>
      </trkpt>
      <trkpt lat="44.38357" lon="6.856">
        <ele>2708.1999511719</ele>
        <time>2022-03-09T13:48:57.000Z</time>
      </trkpt>
      <trkpt lat="44.38356" lon="6.85596">
        <ele>2709.1999511719</ele>
        <time>2022-03-09T13:49:03.000Z</time>
      </trkpt>
      <trkpt lat="44.38355" lon="6.85592">
        <ele>2710</ele>
        <time>2022-03-09T13:49:08.000Z</time>
      </trkpt>
      <trkpt lat="44.38355" lon="6.85591">
        <ele>2710.1999511719</ele>
        <time>2022-03-09T13:49:10.000Z</time>
      </trkpt>
      <trkpt lat="44.38355" lon="6.8559">
        <ele>2710.1999511719</ele>
        <time>2022-03-09T13:49:11.000Z</time>
      </trkpt>
      <trkpt lat="44.38353" lon="6.85585">
        <ele>2711.3999023438</ele>
        <time>2022-03-09T13:49:18.000Z</time>
      </trkpt>
      <trkpt lat="44.38353" lon="6.85584">
        <ele>2711.6000976562</ele>
        <time>2022-03-09T13:49:20.000Z</time>
      </trkpt>
      <trkpt lat="44.38352" lon="6.8558">
        <ele>2712.3999023438</ele>
        <time>2022-03-09T13:49:26.000Z</time>
      </trkpt>
      <trkpt lat="44.38351" lon="6.85578">
        <ele>2712.6000976562</ele>
        <time>2022-03-09T13:49:28.000Z</time>
      </trkpt>
      <trkpt lat="44.3835" lon="6.85575">
        <ele>2713.1999511719</ele>
        <time>2022-03-09T13:49:34.000Z</time>
      </trkpt>
      <trkpt lat="44.3835" lon="6.85575">
        <ele>2713.3999023438</ele>
        <time>2022-03-09T13:49:35.000Z</time>
      </trkpt>
      <trkpt lat="44.38347" lon="6.85573">
        <ele>2714.6000976562</ele>
        <time>2022-03-09T13:49:40.000Z</time>
      </trkpt>
      <trkpt lat="44.38345" lon="6.8557">
        <ele>2715</ele>
        <time>2022-03-09T13:49:46.000Z</time>
      </trkpt>
      <trkpt lat="44.38345" lon="6.85569">
        <ele>2715.6000976562</ele>
        <time>2022-03-09T13:49:51.000Z</time>
      </trkpt>
      <trkpt lat="44.38344" lon="6.85569">
        <ele>2715.8000488281</ele>
        <time>2022-03-09T13:49:53.000Z</time>
      </trkpt>
      <trkpt lat="44.38346" lon="6.85566">
        <ele>2716.6000976562</ele>
        <time>2022-03-09T13:50:01.000Z</time>
      </trkpt>
      <trkpt lat="44.38347" lon="6.85566">
        <ele>2716.6000976562</ele>
        <time>2022-03-09T13:50:02.000Z</time>
      </trkpt>
      <trkpt lat="44.3835" lon="6.85566">
        <ele>2717.8000488281</ele>
        <time>2022-03-09T13:50:09.000Z</time>
      </trkpt>
      <trkpt lat="44.38351" lon="6.85566">
        <ele>2718</ele>
        <time>2022-03-09T13:50:10.000Z</time>
      </trkpt>
      <trkpt lat="44.38355" lon="6.85566">
        <ele>2718.8000488281</ele>
        <time>2022-03-09T13:50:17.000Z</time>
      </trkpt>
      <trkpt lat="44.38357" lon="6.85567">
        <ele>2719.3999023438</ele>
        <time>2022-03-09T13:50:22.000Z</time>
      </trkpt>
      <trkpt lat="44.38358" lon="6.85566">
        <ele>2720</ele>
        <time>2022-03-09T13:50:25.000Z</time>
      </trkpt>
      <trkpt lat="44.38361" lon="6.85566">
        <ele>2720.8000488281</ele>
        <time>2022-03-09T13:50:34.000Z</time>
      </trkpt>
      <trkpt lat="44.38362" lon="6.85566">
        <ele>2721</ele>
        <time>2022-03-09T13:50:36.000Z</time>
      </trkpt>
      <trkpt lat="44.38362" lon="6.85566">
        <ele>2721.6000976562</ele>
        <time>2022-03-09T13:50:41.000Z</time>
      </trkpt>
      <trkpt lat="44.38362" lon="6.85563">
        <ele>2722</ele>
        <time>2022-03-09T13:50:45.000Z</time>
      </trkpt>
      <trkpt lat="44.38361" lon="6.85561">
        <ele>2722.3999023438</ele>
        <time>2022-03-09T13:50:48.000Z</time>
      </trkpt>
      <trkpt lat="44.3836" lon="6.85559">
        <ele>2723</ele>
        <time>2022-03-09T13:50:52.000Z</time>
      </trkpt>
      <trkpt lat="44.38359" lon="6.85557">
        <ele>2723.3999023438</ele>
        <time>2022-03-09T13:50:55.000Z</time>
      </trkpt>
      <trkpt lat="44.38358" lon="6.85553">
        <ele>2724.1999511719</ele>
        <time>2022-03-09T13:51:00.000Z</time>
      </trkpt>
      <trkpt lat="44.38358" lon="6.85552">
        <ele>2725</ele>
        <time>2022-03-09T13:51:05.000Z</time>
      </trkpt>
      <trkpt lat="44.3836" lon="6.8555">
        <ele>2725.1999511719</ele>
        <time>2022-03-09T13:51:13.000Z</time>
      </trkpt>
      <trkpt lat="44.38361" lon="6.8555">
        <ele>2725.3999023438</ele>
        <time>2022-03-09T13:51:14.000Z</time>
      </trkpt>
      <trkpt lat="44.38365" lon="6.85549">
        <ele>2726.1999511719</ele>
        <time>2022-03-09T13:51:21.000Z</time>
      </trkpt>
      <trkpt lat="44.38366" lon="6.85549">
        <ele>2726.3999023438</ele>
        <time>2022-03-09T13:51:22.000Z</time>
      </trkpt>
      <trkpt lat="44.3837" lon="6.85549">
        <ele>2727.3999023438</ele>
        <time>2022-03-09T13:51:31.000Z</time>
      </trkpt>
      <trkpt lat="44.38372" lon="6.8555">
        <ele>2728.3999023438</ele>
        <time>2022-03-09T13:51:36.000Z</time>
      </trkpt>
      <trkpt lat="44.38377" lon="6.8555">
        <ele>2729.1999511719</ele>
        <time>2022-03-09T13:51:43.000Z</time>
      </trkpt>
      <trkpt lat="44.3838" lon="6.8555">
        <ele>2729.3999023438</ele>
        <time>2022-03-09T13:51:47.000Z</time>
      </trkpt>
      <trkpt lat="44.38386" lon="6.85552">
        <ele>2730.6000976562</ele>
        <time>2022-03-09T13:51:57.000Z</time>
      </trkpt>
      <trkpt lat="44.38387" lon="6.85552">
        <ele>2730.6000976562</ele>
        <time>2022-03-09T13:51:59.000Z</time>
      </trkpt>
      <trkpt lat="44.38391" lon="6.85553">
        <ele>2731.3999023438</ele>
        <time>2022-03-09T13:52:07.000Z</time>
      </trkpt>
      <trkpt lat="44.38391" lon="6.85553">
        <ele>2731.6000976562</ele>
        <time>2022-03-09T13:52:08.000Z</time>
      </trkpt>
      <trkpt lat="44.38393" lon="6.85552">
        <ele>2732.3999023438</ele>
        <time>2022-03-09T13:52:14.000Z</time>
      </trkpt>
      <trkpt lat="44.38393" lon="6.85553">
        <ele>2732.6000976562</ele>
        <time>2022-03-09T13:52:15.000Z</time>
      </trkpt>
      <trkpt lat="44.38393" lon="6.85551">
        <ele>2733.1999511719</ele>
        <time>2022-03-09T13:52:21.000Z</time>
      </trkpt>
      <trkpt lat="44.38393" lon="6.85551">
        <ele>2733.6000976562</ele>
        <time>2022-03-09T13:52:22.000Z</time>
      </trkpt>
      <trkpt lat="44.38393" lon="6.8555">
        <ele>2733.8000488281</ele>
        <time>2022-03-09T13:52:23.000Z</time>
      </trkpt>
      <trkpt lat="44.38391" lon="6.85544">
        <ele>2734.8000488281</ele>
        <time>2022-03-09T13:52:32.000Z</time>
      </trkpt>
      <trkpt lat="44.3839" lon="6.8554">
        <ele>2735.8000488281</ele>
        <time>2022-03-09T13:52:38.000Z</time>
      </trkpt>
      <trkpt lat="44.38389" lon="6.85538">
        <ele>2736.3999023438</ele>
        <time>2022-03-09T13:52:43.000Z</time>
      </trkpt>
      <trkpt lat="44.3839" lon="6.85535">
        <ele>2736.8000488281</ele>
        <time>2022-03-09T13:52:46.000Z</time>
      </trkpt>
      <trkpt lat="44.3839" lon="6.85532">
        <ele>2737.3999023438</ele>
        <time>2022-03-09T13:52:51.000Z</time>
      </trkpt>
      <trkpt lat="44.38391" lon="6.85532">
        <ele>2737.8000488281</ele>
        <time>2022-03-09T13:52:54.000Z</time>
      </trkpt>
      <trkpt lat="44.38394" lon="6.85531">
        <ele>2738.8000488281</ele>
        <time>2022-03-09T13:53:01.000Z</time>
      </trkpt>
      <trkpt lat="44.38395" lon="6.85531">
        <ele>2739</ele>
        <time>2022-03-09T13:53:02.000Z</time>
      </trkpt>
      <trkpt lat="44.38397" lon="6.85528">
        <ele>2740</ele>
        <time>2022-03-09T13:53:10.000Z</time>
      </trkpt>
      <trkpt lat="44.38396" lon="6.85523">
        <ele>2741.1999511719</ele>
        <time>2022-03-09T13:53:18.000Z</time>
      </trkpt>
      <trkpt lat="44.38397" lon="6.85522">
        <ele>2741.3999023438</ele>
        <time>2022-03-09T13:53:19.000Z</time>
      </trkpt>
      <trkpt lat="44.38397" lon="6.85522">
        <ele>2741.6000976562</ele>
        <time>2022-03-09T13:53:20.000Z</time>
      </trkpt>
      <trkpt lat="44.38399" lon="6.85521">
        <ele>2742.1999511719</ele>
        <time>2022-03-09T13:53:24.000Z</time>
      </trkpt>
      <trkpt lat="44.38402" lon="6.8552">
        <ele>2743</ele>
        <time>2022-03-09T13:53:29.000Z</time>
      </trkpt>
      <trkpt lat="44.38403" lon="6.85519">
        <ele>2743.6000976562</ele>
        <time>2022-03-09T13:53:32.000Z</time>
      </trkpt>
      <trkpt lat="44.38406" lon="6.85518">
        <ele>2744.6000976562</ele>
        <time>2022-03-09T13:53:38.000Z</time>
      </trkpt>
      <trkpt lat="44.38407" lon="6.85517">
        <ele>2744.8000488281</ele>
        <time>2022-03-09T13:53:40.000Z</time>
      </trkpt>
      <trkpt lat="44.38409" lon="6.85516">
        <ele>2745.6000976562</ele>
        <time>2022-03-09T13:53:45.000Z</time>
      </trkpt>
      <trkpt lat="44.38412" lon="6.85516">
        <ele>2746</ele>
        <time>2022-03-09T13:53:49.000Z</time>
      </trkpt>
      <trkpt lat="44.38413" lon="6.85516">
        <ele>2746</ele>
        <time>2022-03-09T13:53:50.000Z</time>
      </trkpt>
      <trkpt lat="44.38414" lon="6.85517">
        <ele>2746</ele>
        <time>2022-03-09T13:53:51.000Z</time>
      </trkpt>
      <trkpt lat="44.38417" lon="6.85517">
        <ele>2746.8000488281</ele>
        <time>2022-03-09T13:53:55.000Z</time>
      </trkpt>
      <trkpt lat="44.38417" lon="6.85518">
        <ele>2746.8000488281</ele>
        <time>2022-03-09T13:53:56.000Z</time>
      </trkpt>
      <trkpt lat="44.38418" lon="6.85518">
        <ele>2746.8000488281</ele>
        <time>2022-03-09T13:53:58.000Z</time>
      </trkpt>
      <trkpt lat="44.38421" lon="6.85518">
        <ele>2747.8000488281</ele>
        <time>2022-03-09T13:54:03.000Z</time>
      </trkpt>
      <trkpt lat="44.38421" lon="6.85518">
        <ele>2748</ele>
        <time>2022-03-09T13:54:04.000Z</time>
      </trkpt>
      <trkpt lat="44.38425" lon="6.85517">
        <ele>2749</ele>
        <time>2022-03-09T13:54:09.000Z</time>
      </trkpt>
      <trkpt lat="44.38426" lon="6.85517">
        <ele>2749</ele>
        <time>2022-03-09T13:54:11.000Z</time>
      </trkpt>
      <trkpt lat="44.38426" lon="6.85517">
        <ele>2749</ele>
        <time>2022-03-09T13:54:12.000Z</time>
      </trkpt>
      <trkpt lat="44.38427" lon="6.85517">
        <ele>2748.6000976562</ele>
        <time>2022-03-09T13:54:14.000Z</time>
      </trkpt>
      <trkpt lat="44.38432" lon="6.85519">
        <ele>2750.1999511719</ele>
        <time>2022-03-09T13:54:20.000Z</time>
      </trkpt>
      <trkpt lat="44.38432" lon="6.8552">
        <ele>2750.6000976562</ele>
        <time>2022-03-09T13:54:21.000Z</time>
      </trkpt>
      <trkpt lat="44.38433" lon="6.85521">
        <ele>2751.6000976562</ele>
        <time>2022-03-09T13:54:23.000Z</time>
      </trkpt>
      <trkpt lat="44.38434" lon="6.85522">
        <ele>2752.3999023438</ele>
        <time>2022-03-09T13:54:25.000Z</time>
      </trkpt>
      <trkpt lat="44.38435" lon="6.85523">
        <ele>2752.6000976562</ele>
        <time>2022-03-09T13:54:26.000Z</time>
      </trkpt>
      <trkpt lat="44.38436" lon="6.85525">
        <ele>2753.8000488281</ele>
        <time>2022-03-09T13:54:29.000Z</time>
      </trkpt>
      <trkpt lat="44.38436" lon="6.85525">
        <ele>2754.1999511719</ele>
        <time>2022-03-09T13:54:30.000Z</time>
      </trkpt>
      <trkpt lat="44.38436" lon="6.85525">
        <ele>2754</ele>
        <time>2022-03-09T13:54:31.000Z</time>
      </trkpt>
      <trkpt lat="44.38437" lon="6.85526">
        <ele>2754.3999023438</ele>
        <time>2022-03-09T13:54:36.000Z</time>
      </trkpt>
      <trkpt lat="44.38442" lon="6.85528">
        <ele>2754.6000976562</ele>
        <time>2022-03-09T13:54:44.000Z</time>
      </trkpt>
      <trkpt lat="44.38443" lon="6.85528">
        <ele>2754.8000488281</ele>
        <time>2022-03-09T13:54:45.000Z</time>
      </trkpt>
      <trkpt lat="44.38444" lon="6.85528">
        <ele>2755</ele>
        <time>2022-03-09T13:54:46.000Z</time>
      </trkpt>
      <trkpt lat="44.38446" lon="6.85529">
        <ele>2756</ele>
        <time>2022-03-09T13:54:51.000Z</time>
      </trkpt>
      <trkpt lat="44.38447" lon="6.85529">
        <ele>2756.1999511719</ele>
        <time>2022-03-09T13:54:52.000Z</time>
      </trkpt>
      <trkpt lat="44.3845" lon="6.8553">
        <ele>2757.3999023438</ele>
        <time>2022-03-09T13:54:56.000Z</time>
      </trkpt>
      <trkpt lat="44.38451" lon="6.85531">
        <ele>2757.6000976562</ele>
        <time>2022-03-09T13:54:57.000Z</time>
      </trkpt>
      <trkpt lat="44.38452" lon="6.85532">
        <ele>2758.6000976562</ele>
        <time>2022-03-09T13:54:59.000Z</time>
      </trkpt>
      <trkpt lat="44.38454" lon="6.85533">
        <ele>2759.1999511719</ele>
        <time>2022-03-09T13:55:02.000Z</time>
      </trkpt>
      <trkpt lat="44.38456" lon="6.85533">
        <ele>2759.3999023438</ele>
        <time>2022-03-09T13:55:05.000Z</time>
      </trkpt>
      <trkpt lat="44.38457" lon="6.85533">
        <ele>2759.6000976562</ele>
        <time>2022-03-09T13:55:07.000Z</time>
      </trkpt>
      <trkpt lat="44.38461" lon="6.85534">
        <ele>2760.8000488281</ele>
        <time>2022-03-09T13:55:13.000Z</time>
      </trkpt>
      <trkpt lat="44.38464" lon="6.85535">
        <ele>2761.6000976562</ele>
        <time>2022-03-09T13:55:17.000Z</time>
      </trkpt>
      <trkpt lat="44.38465" lon="6.85535">
        <ele>2761.8000488281</ele>
        <time>2022-03-09T13:55:18.000Z</time>
      </trkpt>
      <trkpt lat="44.38467" lon="6.85537">
        <ele>2763</ele>
        <time>2022-03-09T13:55:22.000Z</time>
      </trkpt>
      <trkpt lat="44.38468" lon="6.85537">
        <ele>2763.3999023438</ele>
        <time>2022-03-09T13:55:24.000Z</time>
      </trkpt>
      <trkpt lat="44.38471" lon="6.85539">
        <ele>2764.1999511719</ele>
        <time>2022-03-09T13:55:27.000Z</time>
      </trkpt>
      <trkpt lat="44.38474" lon="6.85541">
        <ele>2766</ele>
        <time>2022-03-09T13:55:32.000Z</time>
      </trkpt>
      <trkpt lat="44.38476" lon="6.85542">
        <ele>2766.3999023438</ele>
        <time>2022-03-09T13:55:35.000Z</time>
      </trkpt>
      <trkpt lat="44.38479" lon="6.85542">
        <ele>2765.8000488281</ele>
        <time>2022-03-09T13:55:39.000Z</time>
      </trkpt>
      <trkpt lat="44.38484" lon="6.85541">
        <ele>2767.1999511719</ele>
        <time>2022-03-09T13:55:47.000Z</time>
      </trkpt>
      <trkpt lat="44.38486" lon="6.85542">
        <ele>2768</ele>
        <time>2022-03-09T13:55:49.000Z</time>
      </trkpt>
      <trkpt lat="44.38487" lon="6.85541">
        <ele>2768.1999511719</ele>
        <time>2022-03-09T13:55:51.000Z</time>
      </trkpt>
      <trkpt lat="44.38488" lon="6.85541">
        <ele>2768.8000488281</ele>
        <time>2022-03-09T13:55:52.000Z</time>
      </trkpt>
      <trkpt lat="44.38489" lon="6.85542">
        <ele>2769.1999511719</ele>
        <time>2022-03-09T13:55:53.000Z</time>
      </trkpt>
      <trkpt lat="44.3849" lon="6.85541">
        <ele>2770.6000976562</ele>
        <time>2022-03-09T13:55:55.000Z</time>
      </trkpt>
      <trkpt lat="44.38491" lon="6.85543">
        <ele>2771.3999023438</ele>
        <time>2022-03-09T13:55:58.000Z</time>
      </trkpt>
      <trkpt lat="44.38492" lon="6.85543">
        <ele>2772</ele>
        <time>2022-03-09T13:56:00.000Z</time>
      </trkpt>
      <trkpt lat="44.38496" lon="6.85545">
        <ele>2772.3999023438</ele>
        <time>2022-03-09T13:56:07.000Z</time>
      </trkpt>
      <trkpt lat="44.38496" lon="6.85544">
        <ele>2772.3999023438</ele>
        <time>2022-03-09T13:56:15.000Z</time>
      </trkpt>
      <trkpt lat="44.38496" lon="6.85545">
        <ele>2772</ele>
        <time>2022-03-09T13:56:37.000Z</time>
      </trkpt>
      <trkpt lat="44.38495" lon="6.85545">
        <ele>2771.6000976562</ele>
        <time>2022-03-09T13:57:00.000Z</time>
      </trkpt>
      <trkpt lat="44.38495" lon="6.85543">
        <ele>2771</ele>
        <time>2022-03-09T13:57:40.000Z</time>
      </trkpt>
      <trkpt lat="44.38495" lon="6.85544">
        <ele>2770.3999023438</ele>
        <time>2022-03-09T13:57:46.000Z</time>
      </trkpt>
      <trkpt lat="44.38495" lon="6.85545">
        <ele>2771.6000976562</ele>
        <time>2022-03-09T13:58:43.000Z</time>
      </trkpt>
      <trkpt lat="44.38497" lon="6.85547">
        <ele>2770.8000488281</ele>
        <time>2022-03-09T13:59:24.000Z</time>
      </trkpt>
      <trkpt lat="44.38496" lon="6.85547">
        <ele>2772</ele>
        <time>2022-03-09T13:59:32.000Z</time>
      </trkpt>
      <trkpt lat="44.38496" lon="6.85547">
        <ele>2771</ele>
        <time>2022-03-09T13:59:43.000Z</time>
      </trkpt>
      <trkpt lat="44.38496" lon="6.85547">
        <ele>2769.8000488281</ele>
        <time>2022-03-09T14:00:19.000Z</time>
      </trkpt>
      <trkpt lat="44.38496" lon="6.85547">
        <ele>2768.8000488281</ele>
        <time>2022-03-09T14:01:02.000Z</time>
      </trkpt>
      <trkpt lat="44.38497" lon="6.85548">
        <ele>2769.1999511719</ele>
        <time>2022-03-09T14:02:44.000Z</time>
      </trkpt>
      <trkpt lat="44.38497" lon="6.85548">
        <ele>2769.8000488281</ele>
        <time>2022-03-09T14:04:04.000Z</time>
      </trkpt>
      <trkpt lat="44.38497" lon="6.85548">
        <ele>2770</ele>
        <time>2022-03-09T14:04:31.000Z</time>
      </trkpt>
      <trkpt lat="44.38498" lon="6.8555">
        <ele>2769.1999511719</ele>
        <time>2022-03-09T14:10:47.000Z</time>
      </trkpt>
      <trkpt lat="44.38499" lon="6.8555">
        <ele>2769</ele>
        <time>2022-03-09T14:11:15.000Z</time>
      </trkpt>
      <trkpt lat="44.38499" lon="6.8555">
        <ele>2769.1999511719</ele>
        <time>2022-03-09T14:12:39.000Z</time>
      </trkpt>
      <trkpt lat="44.385" lon="6.85551">
        <ele>2769.1999511719</ele>
        <time>2022-03-09T14:16:30.000Z</time>
      </trkpt>
      <trkpt lat="44.385" lon="6.85551">
        <ele>2768.8000488281</ele>
        <time>2022-03-09T14:16:49.000Z</time>
      </trkpt>
      <trkpt lat="44.38501" lon="6.85552">
        <ele>2770</ele>
        <time>2022-03-09T14:17:03.000Z</time>
      </trkpt>
      <trkpt lat="44.38501" lon="6.85552">
        <ele>2769.3999023438</ele>
        <time>2022-03-09T14:17:10.000Z</time>
      </trkpt>
      <trkpt lat="44.385" lon="6.85552">
        <ele>2769</ele>
        <time>2022-03-09T14:17:25.000Z</time>
      </trkpt>
      <trkpt lat="44.38499" lon="6.85552">
        <ele>2770</ele>
        <time>2022-03-09T14:17:48.000Z</time>
      </trkpt>
      <trkpt lat="44.38499" lon="6.85551">
        <ele>2771</ele>
        <time>2022-03-09T14:17:57.000Z</time>
      </trkpt>
      <trkpt lat="44.38497" lon="6.85546">
        <ele>2771.1999511719</ele>
        <time>2022-03-09T14:18:17.000Z</time>
      </trkpt>
      <trkpt lat="44.38496" lon="6.85546">
        <ele>2772.1999511719</ele>
        <time>2022-03-09T14:19:14.000Z</time>
      </trkpt>
      <trkpt lat="44.38496" lon="6.85546">
        <ele>2771</ele>
        <time>2022-03-09T14:19:26.000Z</time>
      </trkpt>
      <trkpt lat="44.38496" lon="6.85546">
        <ele>2771.1999511719</ele>
        <time>2022-03-09T14:19:52.000Z</time>
      </trkpt>
      <trkpt lat="44.38496" lon="6.85546">
        <ele>2772</ele>
        <time>2022-03-09T14:20:33.000Z</time>
      </trkpt>
      <trkpt lat="44.38496" lon="6.85546">
        <ele>2772.3999023438</ele>
        <time>2022-03-09T14:20:42.000Z</time>
      </trkpt>
      <trkpt lat="44.38496" lon="6.85546">
        <ele>2771</ele>
        <time>2022-03-09T14:20:58.000Z</time>
      </trkpt>
      <trkpt lat="44.38496" lon="6.85546">
        <ele>2772</ele>
        <time>2022-03-09T14:21:10.000Z</time>
      </trkpt>
      <trkpt lat="44.38496" lon="6.85546">
        <ele>2771</ele>
        <time>2022-03-09T14:21:15.000Z</time>
      </trkpt>
      <trkpt lat="44.38496" lon="6.85546">
        <ele>2771.1999511719</ele>
        <time>2022-03-09T14:22:55.000Z</time>
      </trkpt>
      <trkpt lat="44.38496" lon="6.85546">
        <ele>2771.6000976562</ele>
        <time>2022-03-09T14:23:33.000Z</time>
      </trkpt>
      <trkpt lat="44.38496" lon="6.85546">
        <ele>2772</ele>
        <time>2022-03-09T14:23:46.000Z</time>
      </trkpt>
      <trkpt lat="44.38496" lon="6.85546">
        <ele>2772.3999023438</ele>
        <time>2022-03-09T14:23:52.000Z</time>
      </trkpt>
      <trkpt lat="44.38502" lon="6.85549">
        <ele>2771.3999023438</ele>
        <time>2022-03-09T14:24:03.000Z</time>
      </trkpt>
      <trkpt lat="44.38505" lon="6.8555">
        <ele>2771</ele>
        <time>2022-03-09T14:24:06.000Z</time>
      </trkpt>
      <trkpt lat="44.38507" lon="6.85551">
        <ele>2770.6000976562</ele>
        <time>2022-03-09T14:24:09.000Z</time>
      </trkpt>
      <trkpt lat="44.38508" lon="6.85551">
        <ele>2770.3999023438</ele>
        <time>2022-03-09T14:24:11.000Z</time>
      </trkpt>
      <trkpt lat="44.38508" lon="6.85551">
        <ele>2770.3999023438</ele>
        <time>2022-03-09T14:24:20.000Z</time>
      </trkpt>
      <trkpt lat="44.38507" lon="6.85549">
        <ele>2770.3999023438</ele>
        <time>2022-03-09T14:25:12.000Z</time>
      </trkpt>
      <trkpt lat="44.38507" lon="6.8555">
        <ele>2769.8000488281</ele>
        <time>2022-03-09T14:25:40.000Z</time>
      </trkpt>
      <trkpt lat="44.38507" lon="6.85551">
        <ele>2769.3999023438</ele>
        <time>2022-03-09T14:25:47.000Z</time>
      </trkpt>
      <trkpt lat="44.38509" lon="6.85552">
        <ele>2768.8000488281</ele>
        <time>2022-03-09T14:26:04.000Z</time>
      </trkpt>
      <trkpt lat="44.38509" lon="6.85553">
        <ele>2769</ele>
        <time>2022-03-09T14:26:15.000Z</time>
      </trkpt>
      <trkpt lat="44.38509" lon="6.85553">
        <ele>2768.8000488281</ele>
        <time>2022-03-09T14:26:38.000Z</time>
      </trkpt>
      <trkpt lat="44.38511" lon="6.85555">
        <ele>2768.3999023438</ele>
        <time>2022-03-09T14:27:02.000Z</time>
      </trkpt>
      <trkpt lat="44.38517" lon="6.85552">
        <ele>2768.1999511719</ele>
        <time>2022-03-09T14:27:05.000Z</time>
      </trkpt>
      <trkpt lat="44.38519" lon="6.85551">
        <ele>2768</ele>
        <time>2022-03-09T14:27:06.000Z</time>
      </trkpt>
      <trkpt lat="44.38528" lon="6.85552">
        <ele>2767.1999511719</ele>
        <time>2022-03-09T14:27:09.000Z</time>
      </trkpt>
      <trkpt lat="44.3853" lon="6.85555">
        <ele>2766</ele>
        <time>2022-03-09T14:27:10.000Z</time>
      </trkpt>
      <trkpt lat="44.38533" lon="6.85555">
        <ele>2764.8000488281</ele>
        <time>2022-03-09T14:27:11.000Z</time>
      </trkpt>
      <trkpt lat="44.38536" lon="6.85556">
        <ele>2763.1999511719</ele>
        <time>2022-03-09T14:27:12.000Z</time>
      </trkpt>
      <trkpt lat="44.38539" lon="6.85558">
        <ele>2761.6000976562</ele>
        <time>2022-03-09T14:27:13.000Z</time>
      </trkpt>
      <trkpt lat="44.38542" lon="6.85562">
        <ele>2760.3999023438</ele>
        <time>2022-03-09T14:27:14.000Z</time>
      </trkpt>
      <trkpt lat="44.38544" lon="6.85565">
        <ele>2759.3999023438</ele>
        <time>2022-03-09T14:27:15.000Z</time>
      </trkpt>
      <trkpt lat="44.38548" lon="6.85567">
        <ele>2758</ele>
        <time>2022-03-09T14:27:16.000Z</time>
      </trkpt>
      <trkpt lat="44.38551" lon="6.85567">
        <ele>2756.1999511719</ele>
        <time>2022-03-09T14:27:17.000Z</time>
      </trkpt>
      <trkpt lat="44.38554" lon="6.85567">
        <ele>2754.8000488281</ele>
        <time>2022-03-09T14:27:18.000Z</time>
      </trkpt>
      <trkpt lat="44.38556" lon="6.85566">
        <ele>2754</ele>
        <time>2022-03-09T14:27:19.000Z</time>
      </trkpt>
      <trkpt lat="44.38557" lon="6.85565">
        <ele>2753.6000976562</ele>
        <time>2022-03-09T14:27:20.000Z</time>
      </trkpt>
      <trkpt lat="44.38561" lon="6.85561">
        <ele>2752.3999023438</ele>
        <time>2022-03-09T14:27:22.000Z</time>
      </trkpt>
      <trkpt lat="44.38566" lon="6.8555">
        <ele>2751.1999511719</ele>
        <time>2022-03-09T14:27:25.000Z</time>
      </trkpt>
      <trkpt lat="44.38569" lon="6.85542">
        <ele>2749.8000488281</ele>
        <time>2022-03-09T14:27:27.000Z</time>
      </trkpt>
      <trkpt lat="44.38576" lon="6.85524">
        <ele>2748</ele>
        <time>2022-03-09T14:27:31.000Z</time>
      </trkpt>
      <trkpt lat="44.38579" lon="6.85515">
        <ele>2747</ele>
        <time>2022-03-09T14:27:33.000Z</time>
      </trkpt>
      <trkpt lat="44.3858" lon="6.85509">
        <ele>2746.6000976562</ele>
        <time>2022-03-09T14:27:34.000Z</time>
      </trkpt>
      <trkpt lat="44.38584" lon="6.85504">
        <ele>2745.3999023438</ele>
        <time>2022-03-09T14:27:36.000Z</time>
      </trkpt>
      <trkpt lat="44.38587" lon="6.85503">
        <ele>2744.1999511719</ele>
        <time>2022-03-09T14:27:37.000Z</time>
      </trkpt>
      <trkpt lat="44.38594" lon="6.85509">
        <ele>2742.1999511719</ele>
        <time>2022-03-09T14:27:39.000Z</time>
      </trkpt>
      <trkpt lat="44.38597" lon="6.85514">
        <ele>2741</ele>
        <time>2022-03-09T14:27:40.000Z</time>
      </trkpt>
      <trkpt lat="44.38601" lon="6.85518">
        <ele>2739.6000976562</ele>
        <time>2022-03-09T14:27:41.000Z</time>
      </trkpt>
      <trkpt lat="44.38605" lon="6.85521">
        <ele>2738.3999023438</ele>
        <time>2022-03-09T14:27:42.000Z</time>
      </trkpt>
      <trkpt lat="44.38609" lon="6.85527">
        <ele>2736.8000488281</ele>
        <time>2022-03-09T14:27:43.000Z</time>
      </trkpt>
      <trkpt lat="44.38612" lon="6.85533">
        <ele>2735.8000488281</ele>
        <time>2022-03-09T14:27:44.000Z</time>
      </trkpt>
      <trkpt lat="44.38615" lon="6.85538">
        <ele>2733.6000976562</ele>
        <time>2022-03-09T14:27:45.000Z</time>
      </trkpt>
      <trkpt lat="44.38619" lon="6.8554">
        <ele>2732.3999023438</ele>
        <time>2022-03-09T14:27:46.000Z</time>
      </trkpt>
      <trkpt lat="44.38623" lon="6.8554">
        <ele>2731.3999023438</ele>
        <time>2022-03-09T14:27:47.000Z</time>
      </trkpt>
      <trkpt lat="44.38627" lon="6.85541">
        <ele>2730.6000976562</ele>
        <time>2022-03-09T14:27:48.000Z</time>
      </trkpt>
      <trkpt lat="44.38632" lon="6.85542">
        <ele>2729.3999023438</ele>
        <time>2022-03-09T14:27:49.000Z</time>
      </trkpt>
      <trkpt lat="44.38641" lon="6.8554">
        <ele>2727.1999511719</ele>
        <time>2022-03-09T14:27:51.000Z</time>
      </trkpt>
      <trkpt lat="44.38645" lon="6.85542">
        <ele>2725.8000488281</ele>
        <time>2022-03-09T14:27:52.000Z</time>
      </trkpt>
      <trkpt lat="44.38648" lon="6.85543">
        <ele>2724.3999023438</ele>
        <time>2022-03-09T14:27:53.000Z</time>
      </trkpt>
      <trkpt lat="44.38651" lon="6.85545">
        <ele>2723.6000976562</ele>
        <time>2022-03-09T14:27:54.000Z</time>
      </trkpt>
      <trkpt lat="44.38652" lon="6.85547">
        <ele>2723</ele>
        <time>2022-03-09T14:27:55.000Z</time>
      </trkpt>
      <trkpt lat="44.38653" lon="6.85547">
        <ele>2721.8000488281</ele>
        <time>2022-03-09T14:27:56.000Z</time>
      </trkpt>
      <trkpt lat="44.38653" lon="6.85547">
        <ele>2721.1999511719</ele>
        <time>2022-03-09T14:27:57.000Z</time>
      </trkpt>
      <trkpt lat="44.38654" lon="6.85548">
        <ele>2720.8000488281</ele>
        <time>2022-03-09T14:27:59.000Z</time>
      </trkpt>
      <trkpt lat="44.38652" lon="6.85549">
        <ele>2720.6000976562</ele>
        <time>2022-03-09T14:28:10.000Z</time>
      </trkpt>
      <trkpt lat="44.38652" lon="6.85548">
        <ele>2720.1999511719</ele>
        <time>2022-03-09T14:28:26.000Z</time>
      </trkpt>
      <trkpt lat="44.38649" lon="6.85548">
        <ele>2719.8000488281</ele>
        <time>2022-03-09T14:28:37.000Z</time>
      </trkpt>
      <trkpt lat="44.38653" lon="6.85547">
        <ele>2719.3999023438</ele>
        <time>2022-03-09T14:28:38.000Z</time>
      </trkpt>
      <trkpt lat="44.38657" lon="6.85547">
        <ele>2718.6000976562</ele>
        <time>2022-03-09T14:28:39.000Z</time>
      </trkpt>
      <trkpt lat="44.38661" lon="6.85548">
        <ele>2718</ele>
        <time>2022-03-09T14:28:40.000Z</time>
      </trkpt>
      <trkpt lat="44.38665" lon="6.85549">
        <ele>2716.3999023438</ele>
        <time>2022-03-09T14:28:41.000Z</time>
      </trkpt>
      <trkpt lat="44.38668" lon="6.85547">
        <ele>2714.6000976562</ele>
        <time>2022-03-09T14:28:42.000Z</time>
      </trkpt>
      <trkpt lat="44.38673" lon="6.85546">
        <ele>2713.6000976562</ele>
        <time>2022-03-09T14:28:43.000Z</time>
      </trkpt>
      <trkpt lat="44.38676" lon="6.85549">
        <ele>2712.8000488281</ele>
        <time>2022-03-09T14:28:44.000Z</time>
      </trkpt>
      <trkpt lat="44.38679" lon="6.85553">
        <ele>2711.8000488281</ele>
        <time>2022-03-09T14:28:45.000Z</time>
      </trkpt>
      <trkpt lat="44.3868" lon="6.85557">
        <ele>2710.6000976562</ele>
        <time>2022-03-09T14:28:46.000Z</time>
      </trkpt>
      <trkpt lat="44.38682" lon="6.85559">
        <ele>2709.6000976562</ele>
        <time>2022-03-09T14:28:47.000Z</time>
      </trkpt>
      <trkpt lat="44.38685" lon="6.8556">
        <ele>2708.3999023438</ele>
        <time>2022-03-09T14:28:48.000Z</time>
      </trkpt>
      <trkpt lat="44.38689" lon="6.85561">
        <ele>2707.1999511719</ele>
        <time>2022-03-09T14:28:49.000Z</time>
      </trkpt>
      <trkpt lat="44.38691" lon="6.85565">
        <ele>2705.6000976562</ele>
        <time>2022-03-09T14:28:50.000Z</time>
      </trkpt>
      <trkpt lat="44.38693" lon="6.85568">
        <ele>2704</ele>
        <time>2022-03-09T14:28:51.000Z</time>
      </trkpt>
      <trkpt lat="44.38696" lon="6.85568">
        <ele>2702.1999511719</ele>
        <time>2022-03-09T14:28:52.000Z</time>
      </trkpt>
      <trkpt lat="44.387" lon="6.85566">
        <ele>2700.3999023438</ele>
        <time>2022-03-09T14:28:53.000Z</time>
      </trkpt>
      <trkpt lat="44.38703" lon="6.85566">
        <ele>2698.8000488281</ele>
        <time>2022-03-09T14:28:54.000Z</time>
      </trkpt>
      <trkpt lat="44.38706" lon="6.85568">
        <ele>2697.3999023438</ele>
        <time>2022-03-09T14:28:55.000Z</time>
      </trkpt>
      <trkpt lat="44.38707" lon="6.85573">
        <ele>2696.6000976562</ele>
        <time>2022-03-09T14:28:56.000Z</time>
      </trkpt>
      <trkpt lat="44.38707" lon="6.85577">
        <ele>2695.1999511719</ele>
        <time>2022-03-09T14:28:57.000Z</time>
      </trkpt>
      <trkpt lat="44.38707" lon="6.85581">
        <ele>2694.1999511719</ele>
        <time>2022-03-09T14:28:58.000Z</time>
      </trkpt>
      <trkpt lat="44.38708" lon="6.85582">
        <ele>2693.3999023438</ele>
        <time>2022-03-09T14:28:59.000Z</time>
      </trkpt>
      <trkpt lat="44.3871" lon="6.85582">
        <ele>2692.6000976562</ele>
        <time>2022-03-09T14:29:00.000Z</time>
      </trkpt>
      <trkpt lat="44.38714" lon="6.8558">
        <ele>2691.3999023438</ele>
        <time>2022-03-09T14:29:01.000Z</time>
      </trkpt>
      <trkpt lat="44.38717" lon="6.85582">
        <ele>2690.6000976562</ele>
        <time>2022-03-09T14:29:02.000Z</time>
      </trkpt>
      <trkpt lat="44.38719" lon="6.85586">
        <ele>2690</ele>
        <time>2022-03-09T14:29:03.000Z</time>
      </trkpt>
      <trkpt lat="44.3872" lon="6.85591">
        <ele>2688.8000488281</ele>
        <time>2022-03-09T14:29:04.000Z</time>
      </trkpt>
      <trkpt lat="44.38721" lon="6.85595">
        <ele>2687.1999511719</ele>
        <time>2022-03-09T14:29:05.000Z</time>
      </trkpt>
      <trkpt lat="44.38723" lon="6.85596">
        <ele>2686</ele>
        <time>2022-03-09T14:29:06.000Z</time>
      </trkpt>
      <trkpt lat="44.38726" lon="6.85595">
        <ele>2684.6000976562</ele>
        <time>2022-03-09T14:29:07.000Z</time>
      </trkpt>
      <trkpt lat="44.3873" lon="6.85592">
        <ele>2683</ele>
        <time>2022-03-09T14:29:08.000Z</time>
      </trkpt>
      <trkpt lat="44.38734" lon="6.85589">
        <ele>2681.8000488281</ele>
        <time>2022-03-09T14:29:09.000Z</time>
      </trkpt>
      <trkpt lat="44.3874" lon="6.85586">
        <ele>2680.3999023438</ele>
        <time>2022-03-09T14:29:10.000Z</time>
      </trkpt>
      <trkpt lat="44.38745" lon="6.85582">
        <ele>2679.1999511719</ele>
        <time>2022-03-09T14:29:11.000Z</time>
      </trkpt>
      <trkpt lat="44.3875" lon="6.85579">
        <ele>2678</ele>
        <time>2022-03-09T14:29:12.000Z</time>
      </trkpt>
      <trkpt lat="44.38755" lon="6.85578">
        <ele>2676.8000488281</ele>
        <time>2022-03-09T14:29:13.000Z</time>
      </trkpt>
      <trkpt lat="44.3876" lon="6.85576">
        <ele>2676.1999511719</ele>
        <time>2022-03-09T14:29:14.000Z</time>
      </trkpt>
      <trkpt lat="44.38764" lon="6.85574">
        <ele>2675.8000488281</ele>
        <time>2022-03-09T14:29:15.000Z</time>
      </trkpt>
      <trkpt lat="44.38767" lon="6.85573">
        <ele>2674.8000488281</ele>
        <time>2022-03-09T14:29:16.000Z</time>
      </trkpt>
      <trkpt lat="44.38772" lon="6.8557">
        <ele>2673.8000488281</ele>
        <time>2022-03-09T14:29:18.000Z</time>
      </trkpt>
      <trkpt lat="44.38778" lon="6.85566">
        <ele>2672.6000976562</ele>
        <time>2022-03-09T14:29:20.000Z</time>
      </trkpt>
      <trkpt lat="44.38781" lon="6.85564">
        <ele>2671.3999023438</ele>
        <time>2022-03-09T14:29:21.000Z</time>
      </trkpt>
      <trkpt lat="44.38784" lon="6.85561">
        <ele>2670.3999023438</ele>
        <time>2022-03-09T14:29:22.000Z</time>
      </trkpt>
      <trkpt lat="44.38789" lon="6.85562">
        <ele>2668.3999023438</ele>
        <time>2022-03-09T14:29:24.000Z</time>
      </trkpt>
      <trkpt lat="44.38792" lon="6.85562">
        <ele>2667</ele>
        <time>2022-03-09T14:29:25.000Z</time>
      </trkpt>
      <trkpt lat="44.38795" lon="6.85561">
        <ele>2666</ele>
        <time>2022-03-09T14:29:26.000Z</time>
      </trkpt>
      <trkpt lat="44.38798" lon="6.85558">
        <ele>2664.1999511719</ele>
        <time>2022-03-09T14:29:27.000Z</time>
      </trkpt>
      <trkpt lat="44.38803" lon="6.85557">
        <ele>2662.8000488281</ele>
        <time>2022-03-09T14:29:28.000Z</time>
      </trkpt>
      <trkpt lat="44.38807" lon="6.85555">
        <ele>2661.6000976562</ele>
        <time>2022-03-09T14:29:29.000Z</time>
      </trkpt>
      <trkpt lat="44.38811" lon="6.85553">
        <ele>2660.3999023438</ele>
        <time>2022-03-09T14:29:30.000Z</time>
      </trkpt>
      <trkpt lat="44.38818" lon="6.8555">
        <ele>2658.6000976562</ele>
        <time>2022-03-09T14:29:32.000Z</time>
      </trkpt>
      <trkpt lat="44.38825" lon="6.85547">
        <ele>2657.1999511719</ele>
        <time>2022-03-09T14:29:34.000Z</time>
      </trkpt>
      <trkpt lat="44.38829" lon="6.85546">
        <ele>2656.6000976562</ele>
        <time>2022-03-09T14:29:35.000Z</time>
      </trkpt>
      <trkpt lat="44.38834" lon="6.85544">
        <ele>2655.6000976562</ele>
        <time>2022-03-09T14:29:36.000Z</time>
      </trkpt>
      <trkpt lat="44.38844" lon="6.85541">
        <ele>2653.6000976562</ele>
        <time>2022-03-09T14:29:38.000Z</time>
      </trkpt>
      <trkpt lat="44.38855" lon="6.85539">
        <ele>2652</ele>
        <time>2022-03-09T14:29:40.000Z</time>
      </trkpt>
      <trkpt lat="44.38863" lon="6.85538">
        <ele>2650.8000488281</ele>
        <time>2022-03-09T14:29:42.000Z</time>
      </trkpt>
      <trkpt lat="44.38869" lon="6.85538">
        <ele>2650.3999023438</ele>
        <time>2022-03-09T14:29:44.000Z</time>
      </trkpt>
      <trkpt lat="44.38877" lon="6.8554">
        <ele>2649.3999023438</ele>
        <time>2022-03-09T14:29:46.000Z</time>
      </trkpt>
      <trkpt lat="44.38885" lon="6.85541">
        <ele>2648.3999023438</ele>
        <time>2022-03-09T14:29:48.000Z</time>
      </trkpt>
      <trkpt lat="44.3889" lon="6.85542">
        <ele>2647.1999511719</ele>
        <time>2022-03-09T14:29:49.000Z</time>
      </trkpt>
      <trkpt lat="44.38894" lon="6.85543">
        <ele>2646.3999023438</ele>
        <time>2022-03-09T14:29:50.000Z</time>
      </trkpt>
      <trkpt lat="44.38898" lon="6.85544">
        <ele>2645.1999511719</ele>
        <time>2022-03-09T14:29:51.000Z</time>
      </trkpt>
      <trkpt lat="44.38901" lon="6.85544">
        <ele>2644</ele>
        <time>2022-03-09T14:29:52.000Z</time>
      </trkpt>
      <trkpt lat="44.38908" lon="6.85545">
        <ele>2642</ele>
        <time>2022-03-09T14:29:54.000Z</time>
      </trkpt>
      <trkpt lat="44.38911" lon="6.85545">
        <ele>2641</ele>
        <time>2022-03-09T14:29:55.000Z</time>
      </trkpt>
      <trkpt lat="44.38917" lon="6.85545">
        <ele>2639.1999511719</ele>
        <time>2022-03-09T14:29:57.000Z</time>
      </trkpt>
      <trkpt lat="44.38924" lon="6.85544">
        <ele>2638</ele>
        <time>2022-03-09T14:29:59.000Z</time>
      </trkpt>
      <trkpt lat="44.38931" lon="6.85543">
        <ele>2636.1999511719</ele>
        <time>2022-03-09T14:30:01.000Z</time>
      </trkpt>
      <trkpt lat="44.38936" lon="6.85542">
        <ele>2634.8000488281</ele>
        <time>2022-03-09T14:30:02.000Z</time>
      </trkpt>
      <trkpt lat="44.3894" lon="6.85542">
        <ele>2633.8000488281</ele>
        <time>2022-03-09T14:30:03.000Z</time>
      </trkpt>
      <trkpt lat="44.38946" lon="6.85542">
        <ele>2632.6000976562</ele>
        <time>2022-03-09T14:30:04.000Z</time>
      </trkpt>
      <trkpt lat="44.38957" lon="6.85544">
        <ele>2630.1999511719</ele>
        <time>2022-03-09T14:30:06.000Z</time>
      </trkpt>
      <trkpt lat="44.38961" lon="6.85544">
        <ele>2629</ele>
        <time>2022-03-09T14:30:07.000Z</time>
      </trkpt>
      <trkpt lat="44.38969" lon="6.85545">
        <ele>2627.8000488281</ele>
        <time>2022-03-09T14:30:09.000Z</time>
      </trkpt>
      <trkpt lat="44.38976" lon="6.85546">
        <ele>2626.3999023438</ele>
        <time>2022-03-09T14:30:11.000Z</time>
      </trkpt>
      <trkpt lat="44.38985" lon="6.85547">
        <ele>2624.8000488281</ele>
        <time>2022-03-09T14:30:13.000Z</time>
      </trkpt>
      <trkpt lat="44.38995" lon="6.85547">
        <ele>2623</ele>
        <time>2022-03-09T14:30:15.000Z</time>
      </trkpt>
      <trkpt lat="44.39005" lon="6.85549">
        <ele>2621.3999023438</ele>
        <time>2022-03-09T14:30:17.000Z</time>
      </trkpt>
      <trkpt lat="44.39009" lon="6.85549">
        <ele>2621</ele>
        <time>2022-03-09T14:30:18.000Z</time>
      </trkpt>
      <trkpt lat="44.39018" lon="6.85551">
        <ele>2620</ele>
        <time>2022-03-09T14:30:20.000Z</time>
      </trkpt>
      <trkpt lat="44.39023" lon="6.85553">
        <ele>2619.3999023438</ele>
        <time>2022-03-09T14:30:21.000Z</time>
      </trkpt>
      <trkpt lat="44.39032" lon="6.85559">
        <ele>2618.3999023438</ele>
        <time>2022-03-09T14:30:23.000Z</time>
      </trkpt>
      <trkpt lat="44.39037" lon="6.85562">
        <ele>2617</ele>
        <time>2022-03-09T14:30:24.000Z</time>
      </trkpt>
      <trkpt lat="44.39042" lon="6.85564">
        <ele>2616</ele>
        <time>2022-03-09T14:30:25.000Z</time>
      </trkpt>
      <trkpt lat="44.3905" lon="6.85566">
        <ele>2614.3999023438</ele>
        <time>2022-03-09T14:30:27.000Z</time>
      </trkpt>
      <trkpt lat="44.39057" lon="6.85566">
        <ele>2613.6000976562</ele>
        <time>2022-03-09T14:30:29.000Z</time>
      </trkpt>
      <trkpt lat="44.39061" lon="6.85566">
        <ele>2613.1999511719</ele>
        <time>2022-03-09T14:30:30.000Z</time>
      </trkpt>
      <trkpt lat="44.3907" lon="6.85567">
        <ele>2611.8000488281</ele>
        <time>2022-03-09T14:30:32.000Z</time>
      </trkpt>
      <trkpt lat="44.39075" lon="6.85567">
        <ele>2611.1999511719</ele>
        <time>2022-03-09T14:30:33.000Z</time>
      </trkpt>
      <trkpt lat="44.3908" lon="6.85566">
        <ele>2609.8000488281</ele>
        <time>2022-03-09T14:30:34.000Z</time>
      </trkpt>
      <trkpt lat="44.39091" lon="6.85566">
        <ele>2608.8000488281</ele>
        <time>2022-03-09T14:30:36.000Z</time>
      </trkpt>
      <trkpt lat="44.391" lon="6.85564">
        <ele>2607.3999023438</ele>
        <time>2022-03-09T14:30:38.000Z</time>
      </trkpt>
      <trkpt lat="44.39104" lon="6.85563">
        <ele>2607</ele>
        <time>2022-03-09T14:30:39.000Z</time>
      </trkpt>
      <trkpt lat="44.39112" lon="6.85561">
        <ele>2606.1999511719</ele>
        <time>2022-03-09T14:30:41.000Z</time>
      </trkpt>
      <trkpt lat="44.3912" lon="6.85558">
        <ele>2605.3999023438</ele>
        <time>2022-03-09T14:30:43.000Z</time>
      </trkpt>
      <trkpt lat="44.39124" lon="6.85556">
        <ele>2604.8000488281</ele>
        <time>2022-03-09T14:30:44.000Z</time>
      </trkpt>
      <trkpt lat="44.39128" lon="6.85556">
        <ele>2604.6000976562</ele>
        <time>2022-03-09T14:30:45.000Z</time>
      </trkpt>
      <trkpt lat="44.39132" lon="6.85556">
        <ele>2604.1999511719</ele>
        <time>2022-03-09T14:30:46.000Z</time>
      </trkpt>
      <trkpt lat="44.39135" lon="6.85554">
        <ele>2604</ele>
        <time>2022-03-09T14:30:47.000Z</time>
      </trkpt>
      <trkpt lat="44.39138" lon="6.85553">
        <ele>2603</ele>
        <time>2022-03-09T14:30:48.000Z</time>
      </trkpt>
      <trkpt lat="44.39142" lon="6.85553">
        <ele>2602.3999023438</ele>
        <time>2022-03-09T14:30:49.000Z</time>
      </trkpt>
      <trkpt lat="44.39145" lon="6.85551">
        <ele>2601.6000976562</ele>
        <time>2022-03-09T14:30:50.000Z</time>
      </trkpt>
      <trkpt lat="44.39151" lon="6.85546">
        <ele>2600.1999511719</ele>
        <time>2022-03-09T14:30:52.000Z</time>
      </trkpt>
      <trkpt lat="44.39154" lon="6.85544">
        <ele>2599.6000976562</ele>
        <time>2022-03-09T14:30:53.000Z</time>
      </trkpt>
      <trkpt lat="44.39157" lon="6.85541">
        <ele>2598.6000976562</ele>
        <time>2022-03-09T14:30:54.000Z</time>
      </trkpt>
      <trkpt lat="44.39164" lon="6.85536">
        <ele>2597.1999511719</ele>
        <time>2022-03-09T14:30:56.000Z</time>
      </trkpt>
      <trkpt lat="44.39173" lon="6.8553">
        <ele>2596.1999511719</ele>
        <time>2022-03-09T14:30:58.000Z</time>
      </trkpt>
      <trkpt lat="44.39179" lon="6.85528">
        <ele>2595.1999511719</ele>
        <time>2022-03-09T14:30:59.000Z</time>
      </trkpt>
      <trkpt lat="44.39186" lon="6.85526">
        <ele>2594</ele>
        <time>2022-03-09T14:31:00.000Z</time>
      </trkpt>
      <trkpt lat="44.39192" lon="6.85524">
        <ele>2592.6000976562</ele>
        <time>2022-03-09T14:31:01.000Z</time>
      </trkpt>
      <trkpt lat="44.39199" lon="6.85522">
        <ele>2591.6000976562</ele>
        <time>2022-03-09T14:31:02.000Z</time>
      </trkpt>
      <trkpt lat="44.39205" lon="6.8552">
        <ele>2590.3999023438</ele>
        <time>2022-03-09T14:31:03.000Z</time>
      </trkpt>
      <trkpt lat="44.3921" lon="6.85519">
        <ele>2589.1999511719</ele>
        <time>2022-03-09T14:31:04.000Z</time>
      </trkpt>
      <trkpt lat="44.3922" lon="6.85519">
        <ele>2587.3999023438</ele>
        <time>2022-03-09T14:31:06.000Z</time>
      </trkpt>
      <trkpt lat="44.39234" lon="6.85515">
        <ele>2586.1999511719</ele>
        <time>2022-03-09T14:31:10.000Z</time>
      </trkpt>
      <trkpt lat="44.39249" lon="6.85511">
        <ele>2584.6000976562</ele>
        <time>2022-03-09T14:31:13.000Z</time>
      </trkpt>
      <trkpt lat="44.39255" lon="6.85509">
        <ele>2583.8000488281</ele>
        <time>2022-03-09T14:31:14.000Z</time>
      </trkpt>
      <trkpt lat="44.39262" lon="6.85507">
        <ele>2582.6000976562</ele>
        <time>2022-03-09T14:31:15.000Z</time>
      </trkpt>
      <trkpt lat="44.39273" lon="6.85503">
        <ele>2581</ele>
        <time>2022-03-09T14:31:17.000Z</time>
      </trkpt>
      <trkpt lat="44.39285" lon="6.855">
        <ele>2580.6000976562</ele>
        <time>2022-03-09T14:31:20.000Z</time>
      </trkpt>
      <trkpt lat="44.39293" lon="6.855">
        <ele>2580.6000976562</ele>
        <time>2022-03-09T14:31:24.000Z</time>
      </trkpt>
      <trkpt lat="44.39304" lon="6.85497">
        <ele>2580.1999511719</ele>
        <time>2022-03-09T14:31:30.000Z</time>
      </trkpt>
      <trkpt lat="44.39305" lon="6.85496">
        <ele>2580</ele>
        <time>2022-03-09T14:31:31.000Z</time>
      </trkpt>
      <trkpt lat="44.39314" lon="6.85492">
        <ele>2579.8000488281</ele>
        <time>2022-03-09T14:31:36.000Z</time>
      </trkpt>
      <trkpt lat="44.3932" lon="6.85487">
        <ele>2579</ele>
        <time>2022-03-09T14:31:39.000Z</time>
      </trkpt>
      <trkpt lat="44.39329" lon="6.85478">
        <ele>2578</ele>
        <time>2022-03-09T14:31:43.000Z</time>
      </trkpt>
      <trkpt lat="44.39331" lon="6.85476">
        <ele>2577.6000976562</ele>
        <time>2022-03-09T14:31:44.000Z</time>
      </trkpt>
      <trkpt lat="44.39337" lon="6.85472">
        <ele>2576.6000976562</ele>
        <time>2022-03-09T14:31:46.000Z</time>
      </trkpt>
      <trkpt lat="44.39348" lon="6.85471">
        <ele>2575.6000976562</ele>
        <time>2022-03-09T14:31:49.000Z</time>
      </trkpt>
      <trkpt lat="44.39355" lon="6.85476">
        <ele>2575</ele>
        <time>2022-03-09T14:31:53.000Z</time>
      </trkpt>
      <trkpt lat="44.39367" lon="6.85482">
        <ele>2574.8000488281</ele>
        <time>2022-03-09T14:32:02.000Z</time>
      </trkpt>
      <trkpt lat="44.3938" lon="6.85482">
        <ele>2574.6000976562</ele>
        <time>2022-03-09T14:32:10.000Z</time>
      </trkpt>
      <trkpt lat="44.39389" lon="6.85469">
        <ele>2573.3999023438</ele>
        <time>2022-03-09T14:32:16.000Z</time>
      </trkpt>
      <trkpt lat="44.3939" lon="6.85467">
        <ele>2573.3999023438</ele>
        <time>2022-03-09T14:32:17.000Z</time>
      </trkpt>
      <trkpt lat="44.394" lon="6.85457">
        <ele>2572.3999023438</ele>
        <time>2022-03-09T14:32:21.000Z</time>
      </trkpt>
      <trkpt lat="44.39404" lon="6.85454">
        <ele>2571.8000488281</ele>
        <time>2022-03-09T14:32:22.000Z</time>
      </trkpt>
      <trkpt lat="44.39414" lon="6.85447">
        <ele>2570.6000976562</ele>
        <time>2022-03-09T14:32:24.000Z</time>
      </trkpt>
      <trkpt lat="44.3942" lon="6.85444">
        <ele>2569.1999511719</ele>
        <time>2022-03-09T14:32:25.000Z</time>
      </trkpt>
      <trkpt lat="44.39426" lon="6.85441">
        <ele>2568</ele>
        <time>2022-03-09T14:32:26.000Z</time>
      </trkpt>
      <trkpt lat="44.39432" lon="6.85438">
        <ele>2567</ele>
        <time>2022-03-09T14:32:27.000Z</time>
      </trkpt>
      <trkpt lat="44.39437" lon="6.85437">
        <ele>2566</ele>
        <time>2022-03-09T14:32:28.000Z</time>
      </trkpt>
      <trkpt lat="44.39442" lon="6.85436">
        <ele>2565.6000976562</ele>
        <time>2022-03-09T14:32:29.000Z</time>
      </trkpt>
      <trkpt lat="44.39445" lon="6.8544">
        <ele>2565.1999511719</ele>
        <time>2022-03-09T14:32:30.000Z</time>
      </trkpt>
      <trkpt lat="44.39451" lon="6.85448">
        <ele>2564.1999511719</ele>
        <time>2022-03-09T14:32:32.000Z</time>
      </trkpt>
      <trkpt lat="44.39455" lon="6.85451">
        <ele>2563</ele>
        <time>2022-03-09T14:32:33.000Z</time>
      </trkpt>
      <trkpt lat="44.39459" lon="6.85455">
        <ele>2561.8000488281</ele>
        <time>2022-03-09T14:32:34.000Z</time>
      </trkpt>
      <trkpt lat="44.39462" lon="6.8546">
        <ele>2560.8000488281</ele>
        <time>2022-03-09T14:32:35.000Z</time>
      </trkpt>
      <trkpt lat="44.39466" lon="6.85465">
        <ele>2559.3999023438</ele>
        <time>2022-03-09T14:32:36.000Z</time>
      </trkpt>
      <trkpt lat="44.3947" lon="6.85471">
        <ele>2557.6000976562</ele>
        <time>2022-03-09T14:32:37.000Z</time>
      </trkpt>
      <trkpt lat="44.39473" lon="6.85476">
        <ele>2555.6000976562</ele>
        <time>2022-03-09T14:32:38.000Z</time>
      </trkpt>
      <trkpt lat="44.39478" lon="6.85481">
        <ele>2554.3999023438</ele>
        <time>2022-03-09T14:32:39.000Z</time>
      </trkpt>
      <trkpt lat="44.39483" lon="6.85486">
        <ele>2552.8000488281</ele>
        <time>2022-03-09T14:32:40.000Z</time>
      </trkpt>
      <trkpt lat="44.39488" lon="6.85491">
        <ele>2551.1999511719</ele>
        <time>2022-03-09T14:32:41.000Z</time>
      </trkpt>
      <trkpt lat="44.39492" lon="6.85496">
        <ele>2549.3999023438</ele>
        <time>2022-03-09T14:32:42.000Z</time>
      </trkpt>
      <trkpt lat="44.39497" lon="6.855">
        <ele>2548.3999023438</ele>
        <time>2022-03-09T14:32:43.000Z</time>
      </trkpt>
      <trkpt lat="44.39501" lon="6.85505">
        <ele>2547.1999511719</ele>
        <time>2022-03-09T14:32:44.000Z</time>
      </trkpt>
      <trkpt lat="44.39511" lon="6.85515">
        <ele>2544.8000488281</ele>
        <time>2022-03-09T14:32:46.000Z</time>
      </trkpt>
      <trkpt lat="44.39515" lon="6.85519">
        <ele>2543.8000488281</ele>
        <time>2022-03-09T14:32:47.000Z</time>
      </trkpt>
      <trkpt lat="44.3952" lon="6.85523">
        <ele>2542.1999511719</ele>
        <time>2022-03-09T14:32:48.000Z</time>
      </trkpt>
      <trkpt lat="44.39525" lon="6.85526">
        <ele>2541</ele>
        <time>2022-03-09T14:32:49.000Z</time>
      </trkpt>
      <trkpt lat="44.3953" lon="6.8553">
        <ele>2539.3999023438</ele>
        <time>2022-03-09T14:32:50.000Z</time>
      </trkpt>
      <trkpt lat="44.39534" lon="6.85534">
        <ele>2537.8000488281</ele>
        <time>2022-03-09T14:32:51.000Z</time>
      </trkpt>
      <trkpt lat="44.3954" lon="6.85538">
        <ele>2536.1999511719</ele>
        <time>2022-03-09T14:32:52.000Z</time>
      </trkpt>
      <trkpt lat="44.39545" lon="6.85541">
        <ele>2534.8000488281</ele>
        <time>2022-03-09T14:32:53.000Z</time>
      </trkpt>
      <trkpt lat="44.3955" lon="6.85543">
        <ele>2534.1999511719</ele>
        <time>2022-03-09T14:32:54.000Z</time>
      </trkpt>
      <trkpt lat="44.39555" lon="6.85545">
        <ele>2533.1999511719</ele>
        <time>2022-03-09T14:32:55.000Z</time>
      </trkpt>
      <trkpt lat="44.39567" lon="6.85551">
        <ele>2530.6000976562</ele>
        <time>2022-03-09T14:32:57.000Z</time>
      </trkpt>
      <trkpt lat="44.39572" lon="6.85554">
        <ele>2529.6000976562</ele>
        <time>2022-03-09T14:32:58.000Z</time>
      </trkpt>
      <trkpt lat="44.39577" lon="6.85557">
        <ele>2528.8000488281</ele>
        <time>2022-03-09T14:32:59.000Z</time>
      </trkpt>
      <trkpt lat="44.3958" lon="6.85558">
        <ele>2528.1999511719</ele>
        <time>2022-03-09T14:33:00.000Z</time>
      </trkpt>
      <trkpt lat="44.39585" lon="6.85559">
        <ele>2527.6000976562</ele>
        <time>2022-03-09T14:33:02.000Z</time>
      </trkpt>
      <trkpt lat="44.39586" lon="6.8556">
        <ele>2527.3999023438</ele>
        <time>2022-03-09T14:33:03.000Z</time>
      </trkpt>
      <trkpt lat="44.39585" lon="6.85561">
        <ele>2527.1999511719</ele>
        <time>2022-03-09T14:33:04.000Z</time>
      </trkpt>
      <trkpt lat="44.39585" lon="6.85562">
        <ele>2527</ele>
        <time>2022-03-09T14:33:05.000Z</time>
      </trkpt>
      <trkpt lat="44.39584" lon="6.85562">
        <ele>2526.8000488281</ele>
        <time>2022-03-09T14:33:11.000Z</time>
      </trkpt>
      <trkpt lat="44.39583" lon="6.85562">
        <ele>2526.8000488281</ele>
        <time>2022-03-09T14:33:29.000Z</time>
      </trkpt>
      <trkpt lat="44.39583" lon="6.85565">
        <ele>2526</ele>
        <time>2022-03-09T14:34:33.000Z</time>
      </trkpt>
      <trkpt lat="44.39583" lon="6.85565">
        <ele>2525.8000488281</ele>
        <time>2022-03-09T14:34:34.000Z</time>
      </trkpt>
      <trkpt lat="44.39586" lon="6.85572">
        <ele>2525</ele>
        <time>2022-03-09T14:34:36.000Z</time>
      </trkpt>
      <trkpt lat="44.39589" lon="6.85576">
        <ele>2524.6000976562</ele>
        <time>2022-03-09T14:34:37.000Z</time>
      </trkpt>
      <trkpt lat="44.39596" lon="6.85585">
        <ele>2522.6000976562</ele>
        <time>2022-03-09T14:34:39.000Z</time>
      </trkpt>
      <trkpt lat="44.396" lon="6.85593">
        <ele>2521.3999023438</ele>
        <time>2022-03-09T14:34:41.000Z</time>
      </trkpt>
      <trkpt lat="44.39603" lon="6.85595">
        <ele>2520</ele>
        <time>2022-03-09T14:34:43.000Z</time>
      </trkpt>
      <trkpt lat="44.39605" lon="6.85596">
        <ele>2519</ele>
        <time>2022-03-09T14:34:47.000Z</time>
      </trkpt>
      <trkpt lat="44.39605" lon="6.85596">
        <ele>2519</ele>
        <time>2022-03-09T14:34:48.000Z</time>
      </trkpt>
      <trkpt lat="44.39608" lon="6.85599">
        <ele>2519</ele>
        <time>2022-03-09T14:34:55.000Z</time>
      </trkpt>
      <trkpt lat="44.39607" lon="6.85599">
        <ele>2519</ele>
        <time>2022-03-09T14:35:17.000Z</time>
      </trkpt>
      <trkpt lat="44.39613" lon="6.85606">
        <ele>2518.1999511719</ele>
        <time>2022-03-09T14:36:07.000Z</time>
      </trkpt>
      <trkpt lat="44.3962" lon="6.85607">
        <ele>2517.6000976562</ele>
        <time>2022-03-09T14:36:09.000Z</time>
      </trkpt>
      <trkpt lat="44.39628" lon="6.85608">
        <ele>2516.6000976562</ele>
        <time>2022-03-09T14:36:11.000Z</time>
      </trkpt>
      <trkpt lat="44.39632" lon="6.85609">
        <ele>2516.1999511719</ele>
        <time>2022-03-09T14:36:12.000Z</time>
      </trkpt>
      <trkpt lat="44.39636" lon="6.8561">
        <ele>2515.3999023438</ele>
        <time>2022-03-09T14:36:13.000Z</time>
      </trkpt>
      <trkpt lat="44.39641" lon="6.85612">
        <ele>2514.3999023438</ele>
        <time>2022-03-09T14:36:14.000Z</time>
      </trkpt>
      <trkpt lat="44.39645" lon="6.85615">
        <ele>2513.1999511719</ele>
        <time>2022-03-09T14:36:15.000Z</time>
      </trkpt>
      <trkpt lat="44.39653" lon="6.85623">
        <ele>2511.1999511719</ele>
        <time>2022-03-09T14:36:17.000Z</time>
      </trkpt>
      <trkpt lat="44.39658" lon="6.85633">
        <ele>2509</ele>
        <time>2022-03-09T14:36:19.000Z</time>
      </trkpt>
      <trkpt lat="44.3966" lon="6.85637">
        <ele>2507.3999023438</ele>
        <time>2022-03-09T14:36:20.000Z</time>
      </trkpt>
      <trkpt lat="44.39664" lon="6.85641">
        <ele>2506</ele>
        <time>2022-03-09T14:36:21.000Z</time>
      </trkpt>
      <trkpt lat="44.39671" lon="6.85648">
        <ele>2504.3999023438</ele>
        <time>2022-03-09T14:36:23.000Z</time>
      </trkpt>
      <trkpt lat="44.39674" lon="6.8565">
        <ele>2502.6000976562</ele>
        <time>2022-03-09T14:36:24.000Z</time>
      </trkpt>
      <trkpt lat="44.39675" lon="6.85655">
        <ele>2500.6000976562</ele>
        <time>2022-03-09T14:36:25.000Z</time>
      </trkpt>
      <trkpt lat="44.39676" lon="6.8566">
        <ele>2499.3999023438</ele>
        <time>2022-03-09T14:36:26.000Z</time>
      </trkpt>
      <trkpt lat="44.39678" lon="6.85664">
        <ele>2498.1999511719</ele>
        <time>2022-03-09T14:36:27.000Z</time>
      </trkpt>
      <trkpt lat="44.39678" lon="6.85671">
        <ele>2496</ele>
        <time>2022-03-09T14:36:28.000Z</time>
      </trkpt>
      <trkpt lat="44.39677" lon="6.85679">
        <ele>2493.8000488281</ele>
        <time>2022-03-09T14:36:29.000Z</time>
      </trkpt>
      <trkpt lat="44.39674" lon="6.85685">
        <ele>2491</ele>
        <time>2022-03-09T14:36:30.000Z</time>
      </trkpt>
      <trkpt lat="44.39671" lon="6.85692">
        <ele>2489.6000976562</ele>
        <time>2022-03-09T14:36:31.000Z</time>
      </trkpt>
      <trkpt lat="44.39671" lon="6.85697">
        <ele>2488.6000976562</ele>
        <time>2022-03-09T14:36:32.000Z</time>
      </trkpt>
      <trkpt lat="44.39672" lon="6.85702">
        <ele>2487.3999023438</ele>
        <time>2022-03-09T14:36:33.000Z</time>
      </trkpt>
      <trkpt lat="44.39676" lon="6.85705">
        <ele>2486</ele>
        <time>2022-03-09T14:36:35.000Z</time>
      </trkpt>
      <trkpt lat="44.39683" lon="6.85705">
        <ele>2484.3999023438</ele>
        <time>2022-03-09T14:36:37.000Z</time>
      </trkpt>
      <trkpt lat="44.39688" lon="6.85704">
        <ele>2483.6000976562</ele>
        <time>2022-03-09T14:36:38.000Z</time>
      </trkpt>
      <trkpt lat="44.39692" lon="6.85704">
        <ele>2483</ele>
        <time>2022-03-09T14:36:39.000Z</time>
      </trkpt>
      <trkpt lat="44.39706" lon="6.85704">
        <ele>2481.3999023438</ele>
        <time>2022-03-09T14:36:42.000Z</time>
      </trkpt>
      <trkpt lat="44.39715" lon="6.85704">
        <ele>2480.1999511719</ele>
        <time>2022-03-09T14:36:44.000Z</time>
      </trkpt>
      <trkpt lat="44.39726" lon="6.85704">
        <ele>2478.6000976562</ele>
        <time>2022-03-09T14:36:46.000Z</time>
      </trkpt>
      <trkpt lat="44.39732" lon="6.85703">
        <ele>2477.6000976562</ele>
        <time>2022-03-09T14:36:47.000Z</time>
      </trkpt>
      <trkpt lat="44.39742" lon="6.85705">
        <ele>2475.8000488281</ele>
        <time>2022-03-09T14:36:49.000Z</time>
      </trkpt>
      <trkpt lat="44.39754" lon="6.85712">
        <ele>2474</ele>
        <time>2022-03-09T14:36:51.000Z</time>
      </trkpt>
      <trkpt lat="44.39759" lon="6.85717">
        <ele>2473.1999511719</ele>
        <time>2022-03-09T14:36:52.000Z</time>
      </trkpt>
      <trkpt lat="44.39764" lon="6.85721">
        <ele>2471.6000976562</ele>
        <time>2022-03-09T14:36:53.000Z</time>
      </trkpt>
      <trkpt lat="44.39769" lon="6.85726">
        <ele>2470</ele>
        <time>2022-03-09T14:36:54.000Z</time>
      </trkpt>
      <trkpt lat="44.39773" lon="6.85731">
        <ele>2468.8000488281</ele>
        <time>2022-03-09T14:36:55.000Z</time>
      </trkpt>
      <trkpt lat="44.39778" lon="6.85736">
        <ele>2467.6000976562</ele>
        <time>2022-03-09T14:36:56.000Z</time>
      </trkpt>
      <trkpt lat="44.39782" lon="6.85741">
        <ele>2466.1999511719</ele>
        <time>2022-03-09T14:36:57.000Z</time>
      </trkpt>
      <trkpt lat="44.39787" lon="6.85745">
        <ele>2465.1999511719</ele>
        <time>2022-03-09T14:36:58.000Z</time>
      </trkpt>
      <trkpt lat="44.39791" lon="6.8575">
        <ele>2464</ele>
        <time>2022-03-09T14:36:59.000Z</time>
      </trkpt>
      <trkpt lat="44.39795" lon="6.85755">
        <ele>2463.1999511719</ele>
        <time>2022-03-09T14:37:00.000Z</time>
      </trkpt>
      <trkpt lat="44.39798" lon="6.85761">
        <ele>2462.6000976562</ele>
        <time>2022-03-09T14:37:01.000Z</time>
      </trkpt>
      <trkpt lat="44.39804" lon="6.85773">
        <ele>2460.6000976562</ele>
        <time>2022-03-09T14:37:03.000Z</time>
      </trkpt>
      <trkpt lat="44.39806" lon="6.85781">
        <ele>2459.8000488281</ele>
        <time>2022-03-09T14:37:04.000Z</time>
      </trkpt>
      <trkpt lat="44.39808" lon="6.85789">
        <ele>2458.8000488281</ele>
        <time>2022-03-09T14:37:05.000Z</time>
      </trkpt>
      <trkpt lat="44.39812" lon="6.85799">
        <ele>2457.8000488281</ele>
        <time>2022-03-09T14:37:07.000Z</time>
      </trkpt>
      <trkpt lat="44.39815" lon="6.85804">
        <ele>2456.8000488281</ele>
        <time>2022-03-09T14:37:09.000Z</time>
      </trkpt>
      <trkpt lat="44.39816" lon="6.85805">
        <ele>2456.6000976562</ele>
        <time>2022-03-09T14:37:10.000Z</time>
      </trkpt>
      <trkpt lat="44.39817" lon="6.85805">
        <ele>2456.6000976562</ele>
        <time>2022-03-09T14:37:12.000Z</time>
      </trkpt>
      <trkpt lat="44.39815" lon="6.85801">
        <ele>2457.1999511719</ele>
        <time>2022-03-09T14:37:19.000Z</time>
      </trkpt>
      <trkpt lat="44.39815" lon="6.858">
        <ele>2456</ele>
        <time>2022-03-09T14:37:56.000Z</time>
      </trkpt>
      <trkpt lat="44.39815" lon="6.85804">
        <ele>2456.8000488281</ele>
        <time>2022-03-09T14:39:54.000Z</time>
      </trkpt>
      <trkpt lat="44.39817" lon="6.85813">
        <ele>2456.3999023438</ele>
        <time>2022-03-09T14:39:57.000Z</time>
      </trkpt>
      <trkpt lat="44.39821" lon="6.85839">
        <ele>2455.8000488281</ele>
        <time>2022-03-09T14:40:02.000Z</time>
      </trkpt>
      <trkpt lat="44.39822" lon="6.85844">
        <ele>2455.3999023438</ele>
        <time>2022-03-09T14:40:03.000Z</time>
      </trkpt>
      <trkpt lat="44.39824" lon="6.85851">
        <ele>2454.3999023438</ele>
        <time>2022-03-09T14:40:07.000Z</time>
      </trkpt>
      <trkpt lat="44.39824" lon="6.85851">
        <ele>2454.1999511719</ele>
        <time>2022-03-09T14:40:08.000Z</time>
      </trkpt>
      <trkpt lat="44.39824" lon="6.85849">
        <ele>2454.1999511719</ele>
        <time>2022-03-09T14:40:13.000Z</time>
      </trkpt>
      <trkpt lat="44.39825" lon="6.85848">
        <ele>2454.1999511719</ele>
        <time>2022-03-09T14:40:14.000Z</time>
      </trkpt>
      <trkpt lat="44.39834" lon="6.85842">
        <ele>2453.6000976562</ele>
        <time>2022-03-09T14:40:17.000Z</time>
      </trkpt>
      <trkpt lat="44.39837" lon="6.8584">
        <ele>2453.3999023438</ele>
        <time>2022-03-09T14:40:18.000Z</time>
      </trkpt>
      <trkpt lat="44.3985" lon="6.85832">
        <ele>2452.8000488281</ele>
        <time>2022-03-09T14:40:23.000Z</time>
      </trkpt>
      <trkpt lat="44.39861" lon="6.85822">
        <ele>2452.1999511719</ele>
        <time>2022-03-09T14:40:30.000Z</time>
      </trkpt>
      <trkpt lat="44.39871" lon="6.85808">
        <ele>2451.1999511719</ele>
        <time>2022-03-09T14:40:34.000Z</time>
      </trkpt>
      <trkpt lat="44.39876" lon="6.858">
        <ele>2450.6000976562</ele>
        <time>2022-03-09T14:40:35.000Z</time>
      </trkpt>
      <trkpt lat="44.3988" lon="6.85794">
        <ele>2448.8000488281</ele>
        <time>2022-03-09T14:40:36.000Z</time>
      </trkpt>
      <trkpt lat="44.39887" lon="6.85788">
        <ele>2447</ele>
        <time>2022-03-09T14:40:37.000Z</time>
      </trkpt>
      <trkpt lat="44.39894" lon="6.85786">
        <ele>2445.8000488281</ele>
        <time>2022-03-09T14:40:38.000Z</time>
      </trkpt>
      <trkpt lat="44.399" lon="6.85789">
        <ele>2444.6000976562</ele>
        <time>2022-03-09T14:40:39.000Z</time>
      </trkpt>
      <trkpt lat="44.39906" lon="6.85794">
        <ele>2443.8000488281</ele>
        <time>2022-03-09T14:40:40.000Z</time>
      </trkpt>
      <trkpt lat="44.39912" lon="6.85797">
        <ele>2442</ele>
        <time>2022-03-09T14:40:41.000Z</time>
      </trkpt>
      <trkpt lat="44.39921" lon="6.85801">
        <ele>2439.6000976562</ele>
        <time>2022-03-09T14:40:43.000Z</time>
      </trkpt>
      <trkpt lat="44.3993" lon="6.85804">
        <ele>2438.1999511719</ele>
        <time>2022-03-09T14:40:45.000Z</time>
      </trkpt>
      <trkpt lat="44.39938" lon="6.85807">
        <ele>2437</ele>
        <time>2022-03-09T14:40:47.000Z</time>
      </trkpt>
      <trkpt lat="44.39943" lon="6.85808">
        <ele>2436.3999023438</ele>
        <time>2022-03-09T14:40:48.000Z</time>
      </trkpt>
      <trkpt lat="44.39947" lon="6.85808">
        <ele>2436</ele>
        <time>2022-03-09T14:40:49.000Z</time>
      </trkpt>
      <trkpt lat="44.39951" lon="6.85807">
        <ele>2435.3999023438</ele>
        <time>2022-03-09T14:40:50.000Z</time>
      </trkpt>
      <trkpt lat="44.39956" lon="6.85808">
        <ele>2435</ele>
        <time>2022-03-09T14:40:51.000Z</time>
      </trkpt>
      <trkpt lat="44.39959" lon="6.85809">
        <ele>2434.1999511719</ele>
        <time>2022-03-09T14:40:52.000Z</time>
      </trkpt>
      <trkpt lat="44.39961" lon="6.8581">
        <ele>2433.6000976562</ele>
        <time>2022-03-09T14:40:53.000Z</time>
      </trkpt>
      <trkpt lat="44.39964" lon="6.85812">
        <ele>2432.8000488281</ele>
        <time>2022-03-09T14:40:54.000Z</time>
      </trkpt>
      <trkpt lat="44.39971" lon="6.85817">
        <ele>2431</ele>
        <time>2022-03-09T14:40:56.000Z</time>
      </trkpt>
      <trkpt lat="44.39974" lon="6.85819">
        <ele>2430</ele>
        <time>2022-03-09T14:40:57.000Z</time>
      </trkpt>
      <trkpt lat="44.39979" lon="6.85825">
        <ele>2428.3999023438</ele>
        <time>2022-03-09T14:40:59.000Z</time>
      </trkpt>
      <trkpt lat="44.39978" lon="6.85828">
        <ele>2427.6000976562</ele>
        <time>2022-03-09T14:41:00.000Z</time>
      </trkpt>
      <trkpt lat="44.39976" lon="6.85832">
        <ele>2426.8000488281</ele>
        <time>2022-03-09T14:41:01.000Z</time>
      </trkpt>
      <trkpt lat="44.39971" lon="6.85837">
        <ele>2425.1999511719</ele>
        <time>2022-03-09T14:41:03.000Z</time>
      </trkpt>
      <trkpt lat="44.39967" lon="6.85839">
        <ele>2424.6000976562</ele>
        <time>2022-03-09T14:41:04.000Z</time>
      </trkpt>
      <trkpt lat="44.39964" lon="6.85841">
        <ele>2424.1999511719</ele>
        <time>2022-03-09T14:41:05.000Z</time>
      </trkpt>
      <trkpt lat="44.3995" lon="6.85851">
        <ele>2423</ele>
        <time>2022-03-09T14:41:10.000Z</time>
      </trkpt>
      <trkpt lat="44.39948" lon="6.85851">
        <ele>2422.6000976562</ele>
        <time>2022-03-09T14:41:12.000Z</time>
      </trkpt>
      <trkpt lat="44.39949" lon="6.85856">
        <ele>2421.8000488281</ele>
        <time>2022-03-09T14:41:14.000Z</time>
      </trkpt>
      <trkpt lat="44.39949" lon="6.8586">
        <ele>2420.6000976562</ele>
        <time>2022-03-09T14:41:16.000Z</time>
      </trkpt>
      <trkpt lat="44.3995" lon="6.85865">
        <ele>2419.3999023438</ele>
        <time>2022-03-09T14:41:18.000Z</time>
      </trkpt>
      <trkpt lat="44.39951" lon="6.85867">
        <ele>2418.8000488281</ele>
        <time>2022-03-09T14:41:19.000Z</time>
      </trkpt>
      <trkpt lat="44.39953" lon="6.8587">
        <ele>2418</ele>
        <time>2022-03-09T14:41:20.000Z</time>
      </trkpt>
      <trkpt lat="44.39954" lon="6.85872">
        <ele>2417.6000976562</ele>
        <time>2022-03-09T14:41:21.000Z</time>
      </trkpt>
      <trkpt lat="44.39955" lon="6.85874">
        <ele>2416</ele>
        <time>2022-03-09T14:41:22.000Z</time>
      </trkpt>
      <trkpt lat="44.39956" lon="6.85876">
        <ele>2414.8000488281</ele>
        <time>2022-03-09T14:41:23.000Z</time>
      </trkpt>
      <trkpt lat="44.39957" lon="6.85876">
        <ele>2413.8000488281</ele>
        <time>2022-03-09T14:41:24.000Z</time>
      </trkpt>
      <trkpt lat="44.39959" lon="6.85877">
        <ele>2413</ele>
        <time>2022-03-09T14:41:25.000Z</time>
      </trkpt>
      <trkpt lat="44.39959" lon="6.85877">
        <ele>2412.3999023438</ele>
        <time>2022-03-09T14:41:26.000Z</time>
      </trkpt>
      <trkpt lat="44.3996" lon="6.85878">
        <ele>2411.8000488281</ele>
        <time>2022-03-09T14:41:27.000Z</time>
      </trkpt>
      <trkpt lat="44.3996" lon="6.85881">
        <ele>2411.1999511719</ele>
        <time>2022-03-09T14:41:28.000Z</time>
      </trkpt>
      <trkpt lat="44.3996" lon="6.85883">
        <ele>2410.8000488281</ele>
        <time>2022-03-09T14:41:29.000Z</time>
      </trkpt>
      <trkpt lat="44.39961" lon="6.85885">
        <ele>2409.1999511719</ele>
        <time>2022-03-09T14:41:31.000Z</time>
      </trkpt>
      <trkpt lat="44.39961" lon="6.85886">
        <ele>2409</ele>
        <time>2022-03-09T14:41:32.000Z</time>
      </trkpt>
      <trkpt lat="44.39962" lon="6.85886">
        <ele>2408.1999511719</ele>
        <time>2022-03-09T14:41:35.000Z</time>
      </trkpt>
      <trkpt lat="44.39965" lon="6.85889">
        <ele>2406.8000488281</ele>
        <time>2022-03-09T14:41:38.000Z</time>
      </trkpt>
      <trkpt lat="44.39966" lon="6.8589">
        <ele>2405.6000976562</ele>
        <time>2022-03-09T14:41:40.000Z</time>
      </trkpt>
      <trkpt lat="44.39967" lon="6.85892">
        <ele>2405</ele>
        <time>2022-03-09T14:41:41.000Z</time>
      </trkpt>
      <trkpt lat="44.39968" lon="6.85893">
        <ele>2404.3999023438</ele>
        <time>2022-03-09T14:41:42.000Z</time>
      </trkpt>
      <trkpt lat="44.39968" lon="6.85895">
        <ele>2403.8000488281</ele>
        <time>2022-03-09T14:41:43.000Z</time>
      </trkpt>
      <trkpt lat="44.39969" lon="6.85895">
        <ele>2403.3999023438</ele>
        <time>2022-03-09T14:41:44.000Z</time>
      </trkpt>
      <trkpt lat="44.39972" lon="6.85894">
        <ele>2402.8000488281</ele>
        <time>2022-03-09T14:41:47.000Z</time>
      </trkpt>
      <trkpt lat="44.39975" lon="6.85894">
        <ele>2402.1999511719</ele>
        <time>2022-03-09T14:41:48.000Z</time>
      </trkpt>
      <trkpt lat="44.3998" lon="6.85895">
        <ele>2401</ele>
        <time>2022-03-09T14:41:50.000Z</time>
      </trkpt>
      <trkpt lat="44.39989" lon="6.85896">
        <ele>2400</ele>
        <time>2022-03-09T14:41:53.000Z</time>
      </trkpt>
      <trkpt lat="44.39992" lon="6.85896">
        <ele>2399.8000488281</ele>
        <time>2022-03-09T14:41:54.000Z</time>
      </trkpt>
      <trkpt lat="44.40003" lon="6.85897">
        <ele>2398.6000976562</ele>
        <time>2022-03-09T14:41:57.000Z</time>
      </trkpt>
      <trkpt lat="44.40012" lon="6.85899">
        <ele>2397.3999023438</ele>
        <time>2022-03-09T14:42:00.000Z</time>
      </trkpt>
      <trkpt lat="44.40028" lon="6.85901">
        <ele>2395.6000976562</ele>
        <time>2022-03-09T14:42:04.000Z</time>
      </trkpt>
      <trkpt lat="44.40034" lon="6.85903">
        <ele>2394.1999511719</ele>
        <time>2022-03-09T14:42:06.000Z</time>
      </trkpt>
      <trkpt lat="44.40041" lon="6.85905">
        <ele>2392.8000488281</ele>
        <time>2022-03-09T14:42:08.000Z</time>
      </trkpt>
      <trkpt lat="44.40048" lon="6.85907">
        <ele>2391.6000976562</ele>
        <time>2022-03-09T14:42:10.000Z</time>
      </trkpt>
      <trkpt lat="44.40057" lon="6.85909">
        <ele>2390</ele>
        <time>2022-03-09T14:42:12.000Z</time>
      </trkpt>
      <trkpt lat="44.40059" lon="6.8591">
        <ele>2389</ele>
        <time>2022-03-09T14:42:13.000Z</time>
      </trkpt>
      <trkpt lat="44.40062" lon="6.85911">
        <ele>2388.3999023438</ele>
        <time>2022-03-09T14:42:14.000Z</time>
      </trkpt>
      <trkpt lat="44.40072" lon="6.85915">
        <ele>2386.8000488281</ele>
        <time>2022-03-09T14:42:17.000Z</time>
      </trkpt>
      <trkpt lat="44.40079" lon="6.85917">
        <ele>2385</ele>
        <time>2022-03-09T14:42:19.000Z</time>
      </trkpt>
      <trkpt lat="44.40082" lon="6.85918">
        <ele>2384.1999511719</ele>
        <time>2022-03-09T14:42:20.000Z</time>
      </trkpt>
      <trkpt lat="44.40086" lon="6.8592">
        <ele>2383.6000976562</ele>
        <time>2022-03-09T14:42:21.000Z</time>
      </trkpt>
      <trkpt lat="44.40093" lon="6.85922">
        <ele>2382.1999511719</ele>
        <time>2022-03-09T14:42:23.000Z</time>
      </trkpt>
      <trkpt lat="44.40098" lon="6.85924">
        <ele>2380.8000488281</ele>
        <time>2022-03-09T14:42:25.000Z</time>
      </trkpt>
      <trkpt lat="44.40099" lon="6.85925">
        <ele>2380.3999023438</ele>
        <time>2022-03-09T14:42:26.000Z</time>
      </trkpt>
      <trkpt lat="44.40099" lon="6.85928">
        <ele>2379.8000488281</ele>
        <time>2022-03-09T14:42:27.000Z</time>
      </trkpt>
      <trkpt lat="44.40095" lon="6.85933">
        <ele>2378.1999511719</ele>
        <time>2022-03-09T14:42:29.000Z</time>
      </trkpt>
      <trkpt lat="44.40095" lon="6.85936">
        <ele>2377</ele>
        <time>2022-03-09T14:42:30.000Z</time>
      </trkpt>
      <trkpt lat="44.40096" lon="6.85938">
        <ele>2376.1999511719</ele>
        <time>2022-03-09T14:42:31.000Z</time>
      </trkpt>
      <trkpt lat="44.40098" lon="6.8594">
        <ele>2374.3999023438</ele>
        <time>2022-03-09T14:42:32.000Z</time>
      </trkpt>
      <trkpt lat="44.40101" lon="6.85942">
        <ele>2373.3999023438</ele>
        <time>2022-03-09T14:42:33.000Z</time>
      </trkpt>
      <trkpt lat="44.40104" lon="6.85943">
        <ele>2372.1999511719</ele>
        <time>2022-03-09T14:42:34.000Z</time>
      </trkpt>
      <trkpt lat="44.40106" lon="6.85946">
        <ele>2371.1999511719</ele>
        <time>2022-03-09T14:42:35.000Z</time>
      </trkpt>
      <trkpt lat="44.40105" lon="6.85949">
        <ele>2370.6000976562</ele>
        <time>2022-03-09T14:42:36.000Z</time>
      </trkpt>
      <trkpt lat="44.40104" lon="6.85951">
        <ele>2369.8000488281</ele>
        <time>2022-03-09T14:42:37.000Z</time>
      </trkpt>
      <trkpt lat="44.40103" lon="6.85953">
        <ele>2368.3999023438</ele>
        <time>2022-03-09T14:42:38.000Z</time>
      </trkpt>
      <trkpt lat="44.40104" lon="6.85956">
        <ele>2367.3999023438</ele>
        <time>2022-03-09T14:42:39.000Z</time>
      </trkpt>
      <trkpt lat="44.40106" lon="6.85959">
        <ele>2367</ele>
        <time>2022-03-09T14:42:40.000Z</time>
      </trkpt>
      <trkpt lat="44.40109" lon="6.85961">
        <ele>2365.3999023438</ele>
        <time>2022-03-09T14:42:41.000Z</time>
      </trkpt>
      <trkpt lat="44.40113" lon="6.85963">
        <ele>2364</ele>
        <time>2022-03-09T14:42:42.000Z</time>
      </trkpt>
      <trkpt lat="44.40115" lon="6.85965">
        <ele>2363</ele>
        <time>2022-03-09T14:42:43.000Z</time>
      </trkpt>
      <trkpt lat="44.40116" lon="6.85968">
        <ele>2362.1999511719</ele>
        <time>2022-03-09T14:42:44.000Z</time>
      </trkpt>
      <trkpt lat="44.40114" lon="6.85973">
        <ele>2361.3999023438</ele>
        <time>2022-03-09T14:42:45.000Z</time>
      </trkpt>
      <trkpt lat="44.40111" lon="6.85978">
        <ele>2359.8000488281</ele>
        <time>2022-03-09T14:42:46.000Z</time>
      </trkpt>
      <trkpt lat="44.40107" lon="6.85983">
        <ele>2358.6000976562</ele>
        <time>2022-03-09T14:42:47.000Z</time>
      </trkpt>
      <trkpt lat="44.401" lon="6.85995">
        <ele>2357</ele>
        <time>2022-03-09T14:42:49.000Z</time>
      </trkpt>
      <trkpt lat="44.40095" lon="6.86006">
        <ele>2355.8000488281</ele>
        <time>2022-03-09T14:42:51.000Z</time>
      </trkpt>
      <trkpt lat="44.40093" lon="6.8601">
        <ele>2355.3999023438</ele>
        <time>2022-03-09T14:42:52.000Z</time>
      </trkpt>
      <trkpt lat="44.40093" lon="6.86016">
        <ele>2354.6000976562</ele>
        <time>2022-03-09T14:42:54.000Z</time>
      </trkpt>
      <trkpt lat="44.40094" lon="6.86019">
        <ele>2354.1999511719</ele>
        <time>2022-03-09T14:42:55.000Z</time>
      </trkpt>
      <trkpt lat="44.401" lon="6.8603">
        <ele>2353.1999511719</ele>
        <time>2022-03-09T14:42:58.000Z</time>
      </trkpt>
      <trkpt lat="44.40103" lon="6.86035">
        <ele>2352.6000976562</ele>
        <time>2022-03-09T14:42:59.000Z</time>
      </trkpt>
      <trkpt lat="44.40107" lon="6.86041">
        <ele>2352</ele>
        <time>2022-03-09T14:43:00.000Z</time>
      </trkpt>
      <trkpt lat="44.40115" lon="6.8605">
        <ele>2351</ele>
        <time>2022-03-09T14:43:02.000Z</time>
      </trkpt>
      <trkpt lat="44.4012" lon="6.86052">
        <ele>2350.6000976562</ele>
        <time>2022-03-09T14:43:03.000Z</time>
      </trkpt>
      <trkpt lat="44.40124" lon="6.86053">
        <ele>2349.6000976562</ele>
        <time>2022-03-09T14:43:04.000Z</time>
      </trkpt>
      <trkpt lat="44.40134" lon="6.86052">
        <ele>2348.6000976562</ele>
        <time>2022-03-09T14:43:06.000Z</time>
      </trkpt>
      <trkpt lat="44.40137" lon="6.86052">
        <ele>2348.3999023438</ele>
        <time>2022-03-09T14:43:07.000Z</time>
      </trkpt>
      <trkpt lat="44.4014" lon="6.86048">
        <ele>2348.1999511719</ele>
        <time>2022-03-09T14:43:10.000Z</time>
      </trkpt>
      <trkpt lat="44.40137" lon="6.8605">
        <ele>2348.3999023438</ele>
        <time>2022-03-09T14:43:17.000Z</time>
      </trkpt>
      <trkpt lat="44.40137" lon="6.86052">
        <ele>2348.6000976562</ele>
        <time>2022-03-09T14:43:27.000Z</time>
      </trkpt>
      <trkpt lat="44.40138" lon="6.86048">
        <ele>2347.8000488281</ele>
        <time>2022-03-09T14:44:54.000Z</time>
      </trkpt>
      <trkpt lat="44.40141" lon="6.86045">
        <ele>2347.6000976562</ele>
        <time>2022-03-09T14:45:04.000Z</time>
      </trkpt>
      <trkpt lat="44.40146" lon="6.86039">
        <ele>2347.8000488281</ele>
        <time>2022-03-09T14:45:32.000Z</time>
      </trkpt>
      <trkpt lat="44.40142" lon="6.86041">
        <ele>2347.6000976562</ele>
        <time>2022-03-09T14:46:25.000Z</time>
      </trkpt>
      <trkpt lat="44.40146" lon="6.86042">
        <ele>2347.1999511719</ele>
        <time>2022-03-09T14:46:26.000Z</time>
      </trkpt>
      <trkpt lat="44.40158" lon="6.86046">
        <ele>2346.6000976562</ele>
        <time>2022-03-09T14:46:30.000Z</time>
      </trkpt>
      <trkpt lat="44.40162" lon="6.86048">
        <ele>2346.3999023438</ele>
        <time>2022-03-09T14:46:32.000Z</time>
      </trkpt>
      <trkpt lat="44.40173" lon="6.86055">
        <ele>2345.6000976562</ele>
        <time>2022-03-09T14:46:37.000Z</time>
      </trkpt>
      <trkpt lat="44.40179" lon="6.86062">
        <ele>2345.1999511719</ele>
        <time>2022-03-09T14:46:40.000Z</time>
      </trkpt>
      <trkpt lat="44.40185" lon="6.86072">
        <ele>2344.3999023438</ele>
        <time>2022-03-09T14:46:44.000Z</time>
      </trkpt>
      <trkpt lat="44.40191" lon="6.86084">
        <ele>2343.8000488281</ele>
        <time>2022-03-09T14:46:48.000Z</time>
      </trkpt>
      <trkpt lat="44.40194" lon="6.86092">
        <ele>2343.1999511719</ele>
        <time>2022-03-09T14:46:50.000Z</time>
      </trkpt>
      <trkpt lat="44.40198" lon="6.86106">
        <ele>2342</ele>
        <time>2022-03-09T14:46:54.000Z</time>
      </trkpt>
      <trkpt lat="44.402" lon="6.86111">
        <ele>2342</ele>
        <time>2022-03-09T14:46:56.000Z</time>
      </trkpt>
      <trkpt lat="44.40203" lon="6.86123">
        <ele>2341.6000976562</ele>
        <time>2022-03-09T14:47:01.000Z</time>
      </trkpt>
      <trkpt lat="44.40203" lon="6.86148">
        <ele>2340.3999023438</ele>
        <time>2022-03-09T14:47:07.000Z</time>
      </trkpt>
      <trkpt lat="44.40201" lon="6.86158">
        <ele>2339.1999511719</ele>
        <time>2022-03-09T14:47:09.000Z</time>
      </trkpt>
      <trkpt lat="44.40202" lon="6.86172">
        <ele>2338</ele>
        <time>2022-03-09T14:47:12.000Z</time>
      </trkpt>
      <trkpt lat="44.40204" lon="6.86182">
        <ele>2337</ele>
        <time>2022-03-09T14:47:14.000Z</time>
      </trkpt>
      <trkpt lat="44.40206" lon="6.8619">
        <ele>2335.8000488281</ele>
        <time>2022-03-09T14:47:16.000Z</time>
      </trkpt>
      <trkpt lat="44.40207" lon="6.86199">
        <ele>2334.8000488281</ele>
        <time>2022-03-09T14:47:18.000Z</time>
      </trkpt>
      <trkpt lat="44.40209" lon="6.86207">
        <ele>2333.3999023438</ele>
        <time>2022-03-09T14:47:20.000Z</time>
      </trkpt>
      <trkpt lat="44.40211" lon="6.8621">
        <ele>2333.1999511719</ele>
        <time>2022-03-09T14:47:21.000Z</time>
      </trkpt>
      <trkpt lat="44.40212" lon="6.86217">
        <ele>2332</ele>
        <time>2022-03-09T14:47:23.000Z</time>
      </trkpt>
      <trkpt lat="44.40214" lon="6.86227">
        <ele>2330.8000488281</ele>
        <time>2022-03-09T14:47:25.000Z</time>
      </trkpt>
      <trkpt lat="44.40215" lon="6.86232">
        <ele>2330.1999511719</ele>
        <time>2022-03-09T14:47:26.000Z</time>
      </trkpt>
      <trkpt lat="44.40215" lon="6.86239">
        <ele>2329</ele>
        <time>2022-03-09T14:47:27.000Z</time>
      </trkpt>
      <trkpt lat="44.40216" lon="6.86245">
        <ele>2327.8000488281</ele>
        <time>2022-03-09T14:47:28.000Z</time>
      </trkpt>
      <trkpt lat="44.40216" lon="6.86257">
        <ele>2326</ele>
        <time>2022-03-09T14:47:30.000Z</time>
      </trkpt>
      <trkpt lat="44.40217" lon="6.86267">
        <ele>2324.6000976562</ele>
        <time>2022-03-09T14:47:32.000Z</time>
      </trkpt>
      <trkpt lat="44.4022" lon="6.86276">
        <ele>2323.6000976562</ele>
        <time>2022-03-09T14:47:34.000Z</time>
      </trkpt>
      <trkpt lat="44.40225" lon="6.86292">
        <ele>2322.1999511719</ele>
        <time>2022-03-09T14:47:37.000Z</time>
      </trkpt>
      <trkpt lat="44.40229" lon="6.86303">
        <ele>2320.6000976562</ele>
        <time>2022-03-09T14:47:39.000Z</time>
      </trkpt>
      <trkpt lat="44.40231" lon="6.86309">
        <ele>2320.1999511719</ele>
        <time>2022-03-09T14:47:40.000Z</time>
      </trkpt>
      <trkpt lat="44.40232" lon="6.86315">
        <ele>2319.3999023438</ele>
        <time>2022-03-09T14:47:41.000Z</time>
      </trkpt>
      <trkpt lat="44.40236" lon="6.86327">
        <ele>2318</ele>
        <time>2022-03-09T14:47:43.000Z</time>
      </trkpt>
      <trkpt lat="44.40238" lon="6.86333">
        <ele>2317.3999023438</ele>
        <time>2022-03-09T14:47:44.000Z</time>
      </trkpt>
      <trkpt lat="44.40241" lon="6.86338">
        <ele>2317</ele>
        <time>2022-03-09T14:47:45.000Z</time>
      </trkpt>
      <trkpt lat="44.40245" lon="6.86343">
        <ele>2316.1999511719</ele>
        <time>2022-03-09T14:47:46.000Z</time>
      </trkpt>
      <trkpt lat="44.40256" lon="6.86351">
        <ele>2315</ele>
        <time>2022-03-09T14:47:48.000Z</time>
      </trkpt>
      <trkpt lat="44.40266" lon="6.86355">
        <ele>2313.6000976562</ele>
        <time>2022-03-09T14:47:50.000Z</time>
      </trkpt>
      <trkpt lat="44.4027" lon="6.86356">
        <ele>2313.1999511719</ele>
        <time>2022-03-09T14:47:51.000Z</time>
      </trkpt>
      <trkpt lat="44.40275" lon="6.86357">
        <ele>2312.6000976562</ele>
        <time>2022-03-09T14:47:52.000Z</time>
      </trkpt>
      <trkpt lat="44.4028" lon="6.86357">
        <ele>2312.1999511719</ele>
        <time>2022-03-09T14:47:53.000Z</time>
      </trkpt>
      <trkpt lat="44.40284" lon="6.86356">
        <ele>2311.8000488281</ele>
        <time>2022-03-09T14:47:54.000Z</time>
      </trkpt>
      <trkpt lat="44.40288" lon="6.86354">
        <ele>2311.1999511719</ele>
        <time>2022-03-09T14:47:55.000Z</time>
      </trkpt>
      <trkpt lat="44.40292" lon="6.86352">
        <ele>2311</ele>
        <time>2022-03-09T14:47:56.000Z</time>
      </trkpt>
      <trkpt lat="44.40296" lon="6.86349">
        <ele>2310.8000488281</ele>
        <time>2022-03-09T14:47:57.000Z</time>
      </trkpt>
      <trkpt lat="44.40306" lon="6.86337">
        <ele>2310.1999511719</ele>
        <time>2022-03-09T14:48:01.000Z</time>
      </trkpt>
      <trkpt lat="44.40322" lon="6.86323">
        <ele>2309.6000976562</ele>
        <time>2022-03-09T14:48:07.000Z</time>
      </trkpt>
      <trkpt lat="44.40335" lon="6.86322">
        <ele>2309</ele>
        <time>2022-03-09T14:48:12.000Z</time>
      </trkpt>
      <trkpt lat="44.40346" lon="6.86327">
        <ele>2308</ele>
        <time>2022-03-09T14:48:17.000Z</time>
      </trkpt>
      <trkpt lat="44.40351" lon="6.86332">
        <ele>2307.6000976562</ele>
        <time>2022-03-09T14:48:19.000Z</time>
      </trkpt>
      <trkpt lat="44.40361" lon="6.86343">
        <ele>2307</ele>
        <time>2022-03-09T14:48:23.000Z</time>
      </trkpt>
      <trkpt lat="44.40368" lon="6.86349">
        <ele>2306.6000976562</ele>
        <time>2022-03-09T14:48:25.000Z</time>
      </trkpt>
      <trkpt lat="44.40375" lon="6.86356">
        <ele>2305.6000976562</ele>
        <time>2022-03-09T14:48:27.000Z</time>
      </trkpt>
      <trkpt lat="44.40385" lon="6.86365">
        <ele>2304.6000976562</ele>
        <time>2022-03-09T14:48:30.000Z</time>
      </trkpt>
      <trkpt lat="44.40397" lon="6.86375">
        <ele>2303.3999023438</ele>
        <time>2022-03-09T14:48:34.000Z</time>
      </trkpt>
      <trkpt lat="44.40405" lon="6.86383">
        <ele>2302.1999511719</ele>
        <time>2022-03-09T14:48:37.000Z</time>
      </trkpt>
      <trkpt lat="44.40415" lon="6.86393">
        <ele>2301</ele>
        <time>2022-03-09T14:48:40.000Z</time>
      </trkpt>
      <trkpt lat="44.4042" lon="6.86399">
        <ele>2300</ele>
        <time>2022-03-09T14:48:42.000Z</time>
      </trkpt>
      <trkpt lat="44.40422" lon="6.86403">
        <ele>2299.3999023438</ele>
        <time>2022-03-09T14:48:43.000Z</time>
      </trkpt>
      <trkpt lat="44.40423" lon="6.86407">
        <ele>2298.8000488281</ele>
        <time>2022-03-09T14:48:44.000Z</time>
      </trkpt>
      <trkpt lat="44.40428" lon="6.86418">
        <ele>2297.6000976562</ele>
        <time>2022-03-09T14:48:47.000Z</time>
      </trkpt>
      <trkpt lat="44.40428" lon="6.86422">
        <ele>2297</ele>
        <time>2022-03-09T14:48:48.000Z</time>
      </trkpt>
      <trkpt lat="44.40429" lon="6.86427">
        <ele>2296.1999511719</ele>
        <time>2022-03-09T14:48:50.000Z</time>
      </trkpt>
      <trkpt lat="44.40429" lon="6.86429">
        <ele>2295.8000488281</ele>
        <time>2022-03-09T14:48:52.000Z</time>
      </trkpt>
      <trkpt lat="44.40429" lon="6.86429">
        <ele>2295.1999511719</ele>
        <time>2022-03-09T14:48:54.000Z</time>
      </trkpt>
      <trkpt lat="44.40429" lon="6.86429">
        <ele>2295.1999511719</ele>
        <time>2022-03-09T14:48:58.000Z</time>
      </trkpt>
      <trkpt lat="44.40429" lon="6.86429">
        <ele>2295</ele>
        <time>2022-03-09T14:49:17.000Z</time>
      </trkpt>
      <trkpt lat="44.40428" lon="6.86431">
        <ele>2294</ele>
        <time>2022-03-09T14:50:17.000Z</time>
      </trkpt>
      <trkpt lat="44.40427" lon="6.86436">
        <ele>2293.3999023438</ele>
        <time>2022-03-09T14:50:18.000Z</time>
      </trkpt>
      <trkpt lat="44.40425" lon="6.8644">
        <ele>2292.8000488281</ele>
        <time>2022-03-09T14:50:19.000Z</time>
      </trkpt>
      <trkpt lat="44.40424" lon="6.86445">
        <ele>2291.6000976562</ele>
        <time>2022-03-09T14:50:20.000Z</time>
      </trkpt>
      <trkpt lat="44.40422" lon="6.8645">
        <ele>2290.3999023438</ele>
        <time>2022-03-09T14:50:21.000Z</time>
      </trkpt>
      <trkpt lat="44.4042" lon="6.86456">
        <ele>2289</ele>
        <time>2022-03-09T14:50:22.000Z</time>
      </trkpt>
      <trkpt lat="44.40419" lon="6.86461">
        <ele>2287.3999023438</ele>
        <time>2022-03-09T14:50:23.000Z</time>
      </trkpt>
      <trkpt lat="44.40418" lon="6.86467">
        <ele>2286.3999023438</ele>
        <time>2022-03-09T14:50:24.000Z</time>
      </trkpt>
      <trkpt lat="44.40417" lon="6.86472">
        <ele>2285.6000976562</ele>
        <time>2022-03-09T14:50:25.000Z</time>
      </trkpt>
      <trkpt lat="44.40414" lon="6.86484">
        <ele>2284.1999511719</ele>
        <time>2022-03-09T14:50:28.000Z</time>
      </trkpt>
      <trkpt lat="44.40411" lon="6.86492">
        <ele>2282.8000488281</ele>
        <time>2022-03-09T14:50:30.000Z</time>
      </trkpt>
      <trkpt lat="44.40409" lon="6.86496">
        <ele>2282</ele>
        <time>2022-03-09T14:50:31.000Z</time>
      </trkpt>
      <trkpt lat="44.40407" lon="6.86501">
        <ele>2281.6000976562</ele>
        <time>2022-03-09T14:50:32.000Z</time>
      </trkpt>
      <trkpt lat="44.40403" lon="6.86512">
        <ele>2280.1999511719</ele>
        <time>2022-03-09T14:50:34.000Z</time>
      </trkpt>
      <trkpt lat="44.40402" lon="6.86517">
        <ele>2279.1999511719</ele>
        <time>2022-03-09T14:50:35.000Z</time>
      </trkpt>
      <trkpt lat="44.40401" lon="6.86523">
        <ele>2278.3999023438</ele>
        <time>2022-03-09T14:50:36.000Z</time>
      </trkpt>
      <trkpt lat="44.40404" lon="6.86527">
        <ele>2276.8000488281</ele>
        <time>2022-03-09T14:50:37.000Z</time>
      </trkpt>
      <trkpt lat="44.40409" lon="6.86529">
        <ele>2275.3999023438</ele>
        <time>2022-03-09T14:50:38.000Z</time>
      </trkpt>
      <trkpt lat="44.40414" lon="6.8653">
        <ele>2274</ele>
        <time>2022-03-09T14:50:39.000Z</time>
      </trkpt>
      <trkpt lat="44.4042" lon="6.8653">
        <ele>2272.8000488281</ele>
        <time>2022-03-09T14:50:40.000Z</time>
      </trkpt>
      <trkpt lat="44.40425" lon="6.86528">
        <ele>2270.6000976562</ele>
        <time>2022-03-09T14:50:41.000Z</time>
      </trkpt>
      <trkpt lat="44.40431" lon="6.86525">
        <ele>2268.8000488281</ele>
        <time>2022-03-09T14:50:42.000Z</time>
      </trkpt>
      <trkpt lat="44.40435" lon="6.86523">
        <ele>2267</ele>
        <time>2022-03-09T14:50:43.000Z</time>
      </trkpt>
      <trkpt lat="44.4044" lon="6.86521">
        <ele>2265.6000976562</ele>
        <time>2022-03-09T14:50:44.000Z</time>
      </trkpt>
      <trkpt lat="44.40444" lon="6.86517">
        <ele>2264.3999023438</ele>
        <time>2022-03-09T14:50:45.000Z</time>
      </trkpt>
      <trkpt lat="44.40455" lon="6.86513">
        <ele>2262.1999511719</ele>
        <time>2022-03-09T14:50:47.000Z</time>
      </trkpt>
      <trkpt lat="44.4046" lon="6.86512">
        <ele>2261</ele>
        <time>2022-03-09T14:50:48.000Z</time>
      </trkpt>
      <trkpt lat="44.40465" lon="6.86509">
        <ele>2259.8000488281</ele>
        <time>2022-03-09T14:50:49.000Z</time>
      </trkpt>
      <trkpt lat="44.40475" lon="6.86507">
        <ele>2257.3999023438</ele>
        <time>2022-03-09T14:50:51.000Z</time>
      </trkpt>
      <trkpt lat="44.40479" lon="6.86507">
        <ele>2256.3999023438</ele>
        <time>2022-03-09T14:50:52.000Z</time>
      </trkpt>
      <trkpt lat="44.40483" lon="6.86504">
        <ele>2255.6000976562</ele>
        <time>2022-03-09T14:50:53.000Z</time>
      </trkpt>
      <trkpt lat="44.40492" lon="6.865">
        <ele>2254.1999511719</ele>
        <time>2022-03-09T14:50:55.000Z</time>
      </trkpt>
      <trkpt lat="44.40496" lon="6.86502">
        <ele>2253</ele>
        <time>2022-03-09T14:50:56.000Z</time>
      </trkpt>
      <trkpt lat="44.40503" lon="6.86503">
        <ele>2251.3999023438</ele>
        <time>2022-03-09T14:50:58.000Z</time>
      </trkpt>
      <trkpt lat="44.40511" lon="6.86499">
        <ele>2250</ele>
        <time>2022-03-09T14:51:00.000Z</time>
      </trkpt>
      <trkpt lat="44.40519" lon="6.86501">
        <ele>2247.6000976562</ele>
        <time>2022-03-09T14:51:02.000Z</time>
      </trkpt>
      <trkpt lat="44.40524" lon="6.86503">
        <ele>2246.3999023438</ele>
        <time>2022-03-09T14:51:03.000Z</time>
      </trkpt>
      <trkpt lat="44.40534" lon="6.86509">
        <ele>2245</ele>
        <time>2022-03-09T14:51:05.000Z</time>
      </trkpt>
      <trkpt lat="44.40537" lon="6.86512">
        <ele>2244</ele>
        <time>2022-03-09T14:51:06.000Z</time>
      </trkpt>
      <trkpt lat="44.40541" lon="6.86514">
        <ele>2242.6000976562</ele>
        <time>2022-03-09T14:51:07.000Z</time>
      </trkpt>
      <trkpt lat="44.40549" lon="6.86518">
        <ele>2241.3999023438</ele>
        <time>2022-03-09T14:51:09.000Z</time>
      </trkpt>
      <trkpt lat="44.40559" lon="6.86523">
        <ele>2240</ele>
        <time>2022-03-09T14:51:12.000Z</time>
      </trkpt>
      <trkpt lat="44.40563" lon="6.86525">
        <ele>2239</ele>
        <time>2022-03-09T14:51:14.000Z</time>
      </trkpt>
      <trkpt lat="44.40565" lon="6.86525">
        <ele>2238.3999023438</ele>
        <time>2022-03-09T14:51:17.000Z</time>
      </trkpt>
      <trkpt lat="44.40565" lon="6.86526">
        <ele>2238</ele>
        <time>2022-03-09T14:51:26.000Z</time>
      </trkpt>
      <trkpt lat="44.40566" lon="6.86526">
        <ele>2237.8000488281</ele>
        <time>2022-03-09T14:51:31.000Z</time>
      </trkpt>
      <trkpt lat="44.40567" lon="6.86526">
        <ele>2237.3999023438</ele>
        <time>2022-03-09T14:51:48.000Z</time>
      </trkpt>
      <trkpt lat="44.40567" lon="6.86528">
        <ele>2237.1999511719</ele>
        <time>2022-03-09T14:52:07.000Z</time>
      </trkpt>
      <trkpt lat="44.4057" lon="6.86531">
        <ele>2236.8000488281</ele>
        <time>2022-03-09T14:52:09.000Z</time>
      </trkpt>
      <trkpt lat="44.40574" lon="6.86536">
        <ele>2236.3999023438</ele>
        <time>2022-03-09T14:52:11.000Z</time>
      </trkpt>
      <trkpt lat="44.4058" lon="6.8654">
        <ele>2235.8000488281</ele>
        <time>2022-03-09T14:52:13.000Z</time>
      </trkpt>
      <trkpt lat="44.40584" lon="6.86545">
        <ele>2234.3999023438</ele>
        <time>2022-03-09T14:52:16.000Z</time>
      </trkpt>
      <trkpt lat="44.40583" lon="6.86545">
        <ele>2233.8000488281</ele>
        <time>2022-03-09T14:52:21.000Z</time>
      </trkpt>
      <trkpt lat="44.40584" lon="6.86548">
        <ele>2233.6000976562</ele>
        <time>2022-03-09T14:52:30.000Z</time>
      </trkpt>
      <trkpt lat="44.40584" lon="6.86548">
        <ele>2233.3999023438</ele>
        <time>2022-03-09T14:52:33.000Z</time>
      </trkpt>
      <trkpt lat="44.4059" lon="6.86551">
        <ele>2232.8000488281</ele>
        <time>2022-03-09T14:52:36.000Z</time>
      </trkpt>
      <trkpt lat="44.40595" lon="6.86554">
        <ele>2232.1999511719</ele>
        <time>2022-03-09T14:52:38.000Z</time>
      </trkpt>
      <trkpt lat="44.40603" lon="6.86559">
        <ele>2231.1999511719</ele>
        <time>2022-03-09T14:52:41.000Z</time>
      </trkpt>
      <trkpt lat="44.40605" lon="6.86561">
        <ele>2230.8000488281</ele>
        <time>2022-03-09T14:52:42.000Z</time>
      </trkpt>
      <trkpt lat="44.40608" lon="6.86563">
        <ele>2230</ele>
        <time>2022-03-09T14:52:44.000Z</time>
      </trkpt>
      <trkpt lat="44.40613" lon="6.86565">
        <ele>2228.8000488281</ele>
        <time>2022-03-09T14:52:47.000Z</time>
      </trkpt>
      <trkpt lat="44.40619" lon="6.86568">
        <ele>2227</ele>
        <time>2022-03-09T14:52:50.000Z</time>
      </trkpt>
      <trkpt lat="44.40621" lon="6.86569">
        <ele>2226.6000976562</ele>
        <time>2022-03-09T14:52:51.000Z</time>
      </trkpt>
      <trkpt lat="44.40624" lon="6.86571">
        <ele>2225.8000488281</ele>
        <time>2022-03-09T14:52:53.000Z</time>
      </trkpt>
      <trkpt lat="44.40628" lon="6.86574">
        <ele>2224.8000488281</ele>
        <time>2022-03-09T14:52:56.000Z</time>
      </trkpt>
      <trkpt lat="44.40636" lon="6.86579">
        <ele>2223.3999023438</ele>
        <time>2022-03-09T14:53:00.000Z</time>
      </trkpt>
      <trkpt lat="44.4064" lon="6.86581">
        <ele>2222.8000488281</ele>
        <time>2022-03-09T14:53:02.000Z</time>
      </trkpt>
      <trkpt lat="44.40641" lon="6.86581">
        <ele>2222.1999511719</ele>
        <time>2022-03-09T14:53:03.000Z</time>
      </trkpt>
      <trkpt lat="44.40644" lon="6.86582">
        <ele>2221</ele>
        <time>2022-03-09T14:53:06.000Z</time>
      </trkpt>
      <trkpt lat="44.40644" lon="6.86581">
        <ele>2220.8000488281</ele>
        <time>2022-03-09T14:53:07.000Z</time>
      </trkpt>
      <trkpt lat="44.40642" lon="6.86578">
        <ele>2219.6000976562</ele>
        <time>2022-03-09T14:53:10.000Z</time>
      </trkpt>
      <trkpt lat="44.40642" lon="6.86577">
        <ele>2219.1999511719</ele>
        <time>2022-03-09T14:53:11.000Z</time>
      </trkpt>
      <trkpt lat="44.40643" lon="6.86578">
        <ele>2218.3999023438</ele>
        <time>2022-03-09T14:53:14.000Z</time>
      </trkpt>
      <trkpt lat="44.40642" lon="6.86575">
        <ele>2217.1999511719</ele>
        <time>2022-03-09T14:53:17.000Z</time>
      </trkpt>
      <trkpt lat="44.40643" lon="6.86573">
        <ele>2216.8000488281</ele>
        <time>2022-03-09T14:53:19.000Z</time>
      </trkpt>
      <trkpt lat="44.40645" lon="6.86572">
        <ele>2215.8000488281</ele>
        <time>2022-03-09T14:53:21.000Z</time>
      </trkpt>
      <trkpt lat="44.40646" lon="6.86572">
        <ele>2214.8000488281</ele>
        <time>2022-03-09T14:53:22.000Z</time>
      </trkpt>
      <trkpt lat="44.40647" lon="6.86573">
        <ele>2214.3999023438</ele>
        <time>2022-03-09T14:53:23.000Z</time>
      </trkpt>
      <trkpt lat="44.40651" lon="6.86572">
        <ele>2213.1999511719</ele>
        <time>2022-03-09T14:53:26.000Z</time>
      </trkpt>
      <trkpt lat="44.40655" lon="6.86571">
        <ele>2212.1999511719</ele>
        <time>2022-03-09T14:53:29.000Z</time>
      </trkpt>
      <trkpt lat="44.40656" lon="6.86571">
        <ele>2211.3999023438</ele>
        <time>2022-03-09T14:53:30.000Z</time>
      </trkpt>
      <trkpt lat="44.40657" lon="6.8657">
        <ele>2210.3999023438</ele>
        <time>2022-03-09T14:53:32.000Z</time>
      </trkpt>
      <trkpt lat="44.40658" lon="6.86569">
        <ele>2209.8000488281</ele>
        <time>2022-03-09T14:53:33.000Z</time>
      </trkpt>
      <trkpt lat="44.40659" lon="6.86568">
        <ele>2209.3999023438</ele>
        <time>2022-03-09T14:53:34.000Z</time>
      </trkpt>
      <trkpt lat="44.40662" lon="6.86568">
        <ele>2207.6000976562</ele>
        <time>2022-03-09T14:53:36.000Z</time>
      </trkpt>
      <trkpt lat="44.40663" lon="6.86567">
        <ele>2206.3999023438</ele>
        <time>2022-03-09T14:53:39.000Z</time>
      </trkpt>
      <trkpt lat="44.40668" lon="6.86566">
        <ele>2205</ele>
        <time>2022-03-09T14:53:44.000Z</time>
      </trkpt>
      <trkpt lat="44.40668" lon="6.86566">
        <ele>2204.8000488281</ele>
        <time>2022-03-09T14:53:45.000Z</time>
      </trkpt>
      <trkpt lat="44.40667" lon="6.86565">
        <ele>2204</ele>
        <time>2022-03-09T14:53:54.000Z</time>
      </trkpt>
      <trkpt lat="44.40665" lon="6.86562">
        <ele>2202.6000976562</ele>
        <time>2022-03-09T14:54:01.000Z</time>
      </trkpt>
      <trkpt lat="44.40664" lon="6.86562">
        <ele>2201</ele>
        <time>2022-03-09T14:54:03.000Z</time>
      </trkpt>
      <trkpt lat="44.40664" lon="6.86558">
        <ele>2199.8000488281</ele>
        <time>2022-03-09T14:54:06.000Z</time>
      </trkpt>
      <trkpt lat="44.40665" lon="6.86555">
        <ele>2199</ele>
        <time>2022-03-09T14:54:08.000Z</time>
      </trkpt>
      <trkpt lat="44.40666" lon="6.86555">
        <ele>2197.8000488281</ele>
        <time>2022-03-09T14:54:09.000Z</time>
      </trkpt>
      <trkpt lat="44.40669" lon="6.86554">
        <ele>2196.3999023438</ele>
        <time>2022-03-09T14:54:11.000Z</time>
      </trkpt>
      <trkpt lat="44.40672" lon="6.86554">
        <ele>2195.6000976562</ele>
        <time>2022-03-09T14:54:13.000Z</time>
      </trkpt>
      <trkpt lat="44.40674" lon="6.86554">
        <ele>2195</ele>
        <time>2022-03-09T14:54:14.000Z</time>
      </trkpt>
      <trkpt lat="44.40678" lon="6.86553">
        <ele>2193.6000976562</ele>
        <time>2022-03-09T14:54:17.000Z</time>
      </trkpt>
      <trkpt lat="44.40678" lon="6.86554">
        <ele>2192.3999023438</ele>
        <time>2022-03-09T14:54:20.000Z</time>
      </trkpt>
      <trkpt lat="44.40685" lon="6.86556">
        <ele>2191.8000488281</ele>
        <time>2022-03-09T14:54:25.000Z</time>
      </trkpt>
      <trkpt lat="44.40689" lon="6.86557">
        <ele>2191.3999023438</ele>
        <time>2022-03-09T14:54:27.000Z</time>
      </trkpt>
      <trkpt lat="44.4069" lon="6.86558">
        <ele>2191.1999511719</ele>
        <time>2022-03-09T14:54:28.000Z</time>
      </trkpt>
      <trkpt lat="44.40694" lon="6.8656">
        <ele>2190</ele>
        <time>2022-03-09T14:54:31.000Z</time>
      </trkpt>
      <trkpt lat="44.40698" lon="6.86562">
        <ele>2189</ele>
        <time>2022-03-09T14:54:34.000Z</time>
      </trkpt>
      <trkpt lat="44.407" lon="6.86563">
        <ele>2188.8000488281</ele>
        <time>2022-03-09T14:54:35.000Z</time>
      </trkpt>
      <trkpt lat="44.40706" lon="6.86567">
        <ele>2187.6000976562</ele>
        <time>2022-03-09T14:54:39.000Z</time>
      </trkpt>
      <trkpt lat="44.40707" lon="6.86568">
        <ele>2186.8000488281</ele>
        <time>2022-03-09T14:54:41.000Z</time>
      </trkpt>
      <trkpt lat="44.40705" lon="6.86564">
        <ele>2186.8000488281</ele>
        <time>2022-03-09T14:54:54.000Z</time>
      </trkpt>
      <trkpt lat="44.40705" lon="6.86562">
        <ele>2186.8000488281</ele>
        <time>2022-03-09T14:55:43.000Z</time>
      </trkpt>
      <trkpt lat="44.40703" lon="6.86564">
        <ele>2186.3999023438</ele>
        <time>2022-03-09T14:56:44.000Z</time>
      </trkpt>
      <trkpt lat="44.40702" lon="6.86565">
        <ele>2186.3999023438</ele>
        <time>2022-03-09T14:57:25.000Z</time>
      </trkpt>
      <trkpt lat="44.40707" lon="6.86568">
        <ele>2185.6000976562</ele>
        <time>2022-03-09T14:57:27.000Z</time>
      </trkpt>
      <trkpt lat="44.40709" lon="6.8657">
        <ele>2185</ele>
        <time>2022-03-09T14:57:28.000Z</time>
      </trkpt>
      <trkpt lat="44.40719" lon="6.86577">
        <ele>2183.6000976562</ele>
        <time>2022-03-09T14:57:31.000Z</time>
      </trkpt>
      <trkpt lat="44.40726" lon="6.86585">
        <ele>2182.1999511719</ele>
        <time>2022-03-09T14:57:34.000Z</time>
      </trkpt>
      <trkpt lat="44.40732" lon="6.86595">
        <ele>2181.1999511719</ele>
        <time>2022-03-09T14:57:38.000Z</time>
      </trkpt>
      <trkpt lat="44.40737" lon="6.86603">
        <ele>2180.1999511719</ele>
        <time>2022-03-09T14:57:41.000Z</time>
      </trkpt>
      <trkpt lat="44.40744" lon="6.86615">
        <ele>2178.6000976562</ele>
        <time>2022-03-09T14:57:45.000Z</time>
      </trkpt>
      <trkpt lat="44.40745" lon="6.86618">
        <ele>2178.1999511719</ele>
        <time>2022-03-09T14:57:46.000Z</time>
      </trkpt>
      <trkpt lat="44.40749" lon="6.86623">
        <ele>2177.6000976562</ele>
        <time>2022-03-09T14:57:48.000Z</time>
      </trkpt>
      <trkpt lat="44.40762" lon="6.8663">
        <ele>2176.6000976562</ele>
        <time>2022-03-09T14:57:52.000Z</time>
      </trkpt>
      <trkpt lat="44.40765" lon="6.86631">
        <ele>2176.3999023438</ele>
        <time>2022-03-09T14:57:53.000Z</time>
      </trkpt>
      <trkpt lat="44.40771" lon="6.86631">
        <ele>2175.1999511719</ele>
        <time>2022-03-09T14:57:55.000Z</time>
      </trkpt>
      <trkpt lat="44.40778" lon="6.86631">
        <ele>2174.1999511719</ele>
        <time>2022-03-09T14:57:57.000Z</time>
      </trkpt>
      <trkpt lat="44.40781" lon="6.8663">
        <ele>2172.1999511719</ele>
        <time>2022-03-09T14:57:59.000Z</time>
      </trkpt>
      <trkpt lat="44.40781" lon="6.86627">
        <ele>2171.3999023438</ele>
        <time>2022-03-09T14:58:00.000Z</time>
      </trkpt>
      <trkpt lat="44.40782" lon="6.86624">
        <ele>2170.3999023438</ele>
        <time>2022-03-09T14:58:01.000Z</time>
      </trkpt>
      <trkpt lat="44.40784" lon="6.86623">
        <ele>2169</ele>
        <time>2022-03-09T14:58:02.000Z</time>
      </trkpt>
      <trkpt lat="44.40788" lon="6.86623">
        <ele>2167.8000488281</ele>
        <time>2022-03-09T14:58:03.000Z</time>
      </trkpt>
      <trkpt lat="44.40795" lon="6.86621">
        <ele>2166.3999023438</ele>
        <time>2022-03-09T14:58:05.000Z</time>
      </trkpt>
      <trkpt lat="44.40801" lon="6.86617">
        <ele>2164.8000488281</ele>
        <time>2022-03-09T14:58:07.000Z</time>
      </trkpt>
      <trkpt lat="44.40804" lon="6.86612">
        <ele>2163.8000488281</ele>
        <time>2022-03-09T14:58:08.000Z</time>
      </trkpt>
      <trkpt lat="44.40806" lon="6.86609">
        <ele>2162.3999023438</ele>
        <time>2022-03-09T14:58:09.000Z</time>
      </trkpt>
      <trkpt lat="44.40807" lon="6.86607">
        <ele>2161.1999511719</ele>
        <time>2022-03-09T14:58:10.000Z</time>
      </trkpt>
      <trkpt lat="44.40808" lon="6.86604">
        <ele>2158.8000488281</ele>
        <time>2022-03-09T14:58:11.000Z</time>
      </trkpt>
      <trkpt lat="44.4081" lon="6.86601">
        <ele>2157.3999023438</ele>
        <time>2022-03-09T14:58:12.000Z</time>
      </trkpt>
      <trkpt lat="44.40813" lon="6.86599">
        <ele>2156</ele>
        <time>2022-03-09T14:58:13.000Z</time>
      </trkpt>
      <trkpt lat="44.40818" lon="6.86597">
        <ele>2154</ele>
        <time>2022-03-09T14:58:14.000Z</time>
      </trkpt>
      <trkpt lat="44.40822" lon="6.86596">
        <ele>2152.8000488281</ele>
        <time>2022-03-09T14:58:15.000Z</time>
      </trkpt>
      <trkpt lat="44.40827" lon="6.86595">
        <ele>2150.1999511719</ele>
        <time>2022-03-09T14:58:16.000Z</time>
      </trkpt>
      <trkpt lat="44.40832" lon="6.86595">
        <ele>2148.3999023438</ele>
        <time>2022-03-09T14:58:17.000Z</time>
      </trkpt>
      <trkpt lat="44.40837" lon="6.86595">
        <ele>2147.3999023438</ele>
        <time>2022-03-09T14:58:18.000Z</time>
      </trkpt>
      <trkpt lat="44.40842" lon="6.86594">
        <ele>2146.1999511719</ele>
        <time>2022-03-09T14:58:19.000Z</time>
      </trkpt>
      <trkpt lat="44.4085" lon="6.86594">
        <ele>2144.6000976562</ele>
        <time>2022-03-09T14:58:21.000Z</time>
      </trkpt>
      <trkpt lat="44.40853" lon="6.86594">
        <ele>2143.3999023438</ele>
        <time>2022-03-09T14:58:22.000Z</time>
      </trkpt>
      <trkpt lat="44.40857" lon="6.86595">
        <ele>2141.8000488281</ele>
        <time>2022-03-09T14:58:24.000Z</time>
      </trkpt>
      <trkpt lat="44.40861" lon="6.86596">
        <ele>2141</ele>
        <time>2022-03-09T14:58:26.000Z</time>
      </trkpt>
      <trkpt lat="44.40864" lon="6.86598">
        <ele>2140.8000488281</ele>
        <time>2022-03-09T14:58:28.000Z</time>
      </trkpt>
      <trkpt lat="44.40875" lon="6.86603">
        <ele>2140</ele>
        <time>2022-03-09T14:58:32.000Z</time>
      </trkpt>
      <trkpt lat="44.4088" lon="6.86603">
        <ele>2139.8000488281</ele>
        <time>2022-03-09T14:58:33.000Z</time>
      </trkpt>
      <trkpt lat="44.40887" lon="6.86601">
        <ele>2139</ele>
        <time>2022-03-09T14:58:34.000Z</time>
      </trkpt>
      <trkpt lat="44.40893" lon="6.866">
        <ele>2137.8000488281</ele>
        <time>2022-03-09T14:58:35.000Z</time>
      </trkpt>
      <trkpt lat="44.40899" lon="6.86599">
        <ele>2136.6000976562</ele>
        <time>2022-03-09T14:58:36.000Z</time>
      </trkpt>
      <trkpt lat="44.40909" lon="6.86598">
        <ele>2135.1999511719</ele>
        <time>2022-03-09T14:58:38.000Z</time>
      </trkpt>
      <trkpt lat="44.40913" lon="6.86598">
        <ele>2134.8000488281</ele>
        <time>2022-03-09T14:58:39.000Z</time>
      </trkpt>
      <trkpt lat="44.40921" lon="6.86598">
        <ele>2133.3999023438</ele>
        <time>2022-03-09T14:58:41.000Z</time>
      </trkpt>
      <trkpt lat="44.4092" lon="6.8659">
        <ele>2131.6000976562</ele>
        <time>2022-03-09T14:58:43.000Z</time>
      </trkpt>
      <trkpt lat="44.40924" lon="6.8658">
        <ele>2129.6000976562</ele>
        <time>2022-03-09T14:58:45.000Z</time>
      </trkpt>
      <trkpt lat="44.40928" lon="6.86577">
        <ele>2127.1999511719</ele>
        <time>2022-03-09T14:58:46.000Z</time>
      </trkpt>
      <trkpt lat="44.40933" lon="6.86575">
        <ele>2125.6000976562</ele>
        <time>2022-03-09T14:58:47.000Z</time>
      </trkpt>
      <trkpt lat="44.40937" lon="6.86575">
        <ele>2124.6000976562</ele>
        <time>2022-03-09T14:58:48.000Z</time>
      </trkpt>
      <trkpt lat="44.40942" lon="6.86576">
        <ele>2124</ele>
        <time>2022-03-09T14:58:49.000Z</time>
      </trkpt>
      <trkpt lat="44.40946" lon="6.86578">
        <ele>2123.3999023438</ele>
        <time>2022-03-09T14:58:50.000Z</time>
      </trkpt>
      <trkpt lat="44.4095" lon="6.8658">
        <ele>2122.6000976562</ele>
        <time>2022-03-09T14:58:51.000Z</time>
      </trkpt>
      <trkpt lat="44.40952" lon="6.86582">
        <ele>2122</ele>
        <time>2022-03-09T14:58:52.000Z</time>
      </trkpt>
      <trkpt lat="44.40955" lon="6.86585">
        <ele>2121.3999023438</ele>
        <time>2022-03-09T14:58:54.000Z</time>
      </trkpt>
      <trkpt lat="44.40955" lon="6.8659">
        <ele>2121.1999511719</ele>
        <time>2022-03-09T14:59:00.000Z</time>
      </trkpt>
      <trkpt lat="44.40955" lon="6.86591">
        <ele>2121.3999023438</ele>
        <time>2022-03-09T14:59:16.000Z</time>
      </trkpt>
      <trkpt lat="44.40955" lon="6.86591">
        <ele>2121.1999511719</ele>
        <time>2022-03-09T14:59:20.000Z</time>
      </trkpt>
      <trkpt lat="44.40961" lon="6.86595">
        <ele>2121</ele>
        <time>2022-03-09T15:00:07.000Z</time>
      </trkpt>
      <trkpt lat="44.40964" lon="6.86595">
        <ele>2120.8000488281</ele>
        <time>2022-03-09T15:00:08.000Z</time>
      </trkpt>
      <trkpt lat="44.40974" lon="6.86599">
        <ele>2119.6000976562</ele>
        <time>2022-03-09T15:00:11.000Z</time>
      </trkpt>
      <trkpt lat="44.40982" lon="6.86602">
        <ele>2118.3999023438</ele>
        <time>2022-03-09T15:00:13.000Z</time>
      </trkpt>
      <trkpt lat="44.40992" lon="6.86606">
        <ele>2117.3999023438</ele>
        <time>2022-03-09T15:00:16.000Z</time>
      </trkpt>
      <trkpt lat="44.41003" lon="6.86607">
        <ele>2116.8000488281</ele>
        <time>2022-03-09T15:00:20.000Z</time>
      </trkpt>
      <trkpt lat="44.41006" lon="6.86606">
        <ele>2116.1999511719</ele>
        <time>2022-03-09T15:00:21.000Z</time>
      </trkpt>
      <trkpt lat="44.41007" lon="6.86606">
        <ele>2115</ele>
        <time>2022-03-09T15:00:23.000Z</time>
      </trkpt>
      <trkpt lat="44.41013" lon="6.86605">
        <ele>2113.8000488281</ele>
        <time>2022-03-09T15:00:26.000Z</time>
      </trkpt>
      <trkpt lat="44.41014" lon="6.86605">
        <ele>2112.8000488281</ele>
        <time>2022-03-09T15:00:27.000Z</time>
      </trkpt>
      <trkpt lat="44.41017" lon="6.86606">
        <ele>2112</ele>
        <time>2022-03-09T15:00:28.000Z</time>
      </trkpt>
      <trkpt lat="44.41021" lon="6.86608">
        <ele>2110.8000488281</ele>
        <time>2022-03-09T15:00:30.000Z</time>
      </trkpt>
      <trkpt lat="44.41023" lon="6.8661">
        <ele>2110</ele>
        <time>2022-03-09T15:00:32.000Z</time>
      </trkpt>
      <trkpt lat="44.41024" lon="6.86612">
        <ele>2109.6000976562</ele>
        <time>2022-03-09T15:00:33.000Z</time>
      </trkpt>
      <trkpt lat="44.41028" lon="6.86627">
        <ele>2108.1999511719</ele>
        <time>2022-03-09T15:00:37.000Z</time>
      </trkpt>
      <trkpt lat="44.41033" lon="6.86639">
        <ele>2106.6000976562</ele>
        <time>2022-03-09T15:00:39.000Z</time>
      </trkpt>
      <trkpt lat="44.41037" lon="6.86644">
        <ele>2105.6000976562</ele>
        <time>2022-03-09T15:00:40.000Z</time>
      </trkpt>
      <trkpt lat="44.4104" lon="6.86648">
        <ele>2105.1999511719</ele>
        <time>2022-03-09T15:00:41.000Z</time>
      </trkpt>
      <trkpt lat="44.41043" lon="6.8665">
        <ele>2104.6000976562</ele>
        <time>2022-03-09T15:00:42.000Z</time>
      </trkpt>
      <trkpt lat="44.41047" lon="6.86652">
        <ele>2104</ele>
        <time>2022-03-09T15:00:43.000Z</time>
      </trkpt>
      <trkpt lat="44.41055" lon="6.86656">
        <ele>2103.1999511719</ele>
        <time>2022-03-09T15:00:45.000Z</time>
      </trkpt>
      <trkpt lat="44.4106" lon="6.86658">
        <ele>2102.8000488281</ele>
        <time>2022-03-09T15:00:46.000Z</time>
      </trkpt>
      <trkpt lat="44.41066" lon="6.8666">
        <ele>2101.6000976562</ele>
        <time>2022-03-09T15:00:48.000Z</time>
      </trkpt>
      <trkpt lat="44.41075" lon="6.86666">
        <ele>2100.6000976562</ele>
        <time>2022-03-09T15:00:51.000Z</time>
      </trkpt>
      <trkpt lat="44.41079" lon="6.8667">
        <ele>2100</ele>
        <time>2022-03-09T15:00:52.000Z</time>
      </trkpt>
      <trkpt lat="44.41085" lon="6.86675">
        <ele>2099.1999511719</ele>
        <time>2022-03-09T15:00:54.000Z</time>
      </trkpt>
      <trkpt lat="44.41092" lon="6.8668">
        <ele>2098</ele>
        <time>2022-03-09T15:00:57.000Z</time>
      </trkpt>
      <trkpt lat="44.41096" lon="6.86682">
        <ele>2097.3999023438</ele>
        <time>2022-03-09T15:00:59.000Z</time>
      </trkpt>
      <trkpt lat="44.41098" lon="6.86685">
        <ele>2096.8000488281</ele>
        <time>2022-03-09T15:01:05.000Z</time>
      </trkpt>
      <trkpt lat="44.41104" lon="6.86689">
        <ele>2096.3999023438</ele>
        <time>2022-03-09T15:01:11.000Z</time>
      </trkpt>
      <trkpt lat="44.4111" lon="6.86695">
        <ele>2095.6000976562</ele>
        <time>2022-03-09T15:01:15.000Z</time>
      </trkpt>
      <trkpt lat="44.41112" lon="6.86698">
        <ele>2095.3999023438</ele>
        <time>2022-03-09T15:01:17.000Z</time>
      </trkpt>
      <trkpt lat="44.41116" lon="6.86703">
        <ele>2095</ele>
        <time>2022-03-09T15:01:20.000Z</time>
      </trkpt>
      <trkpt lat="44.41118" lon="6.86704">
        <ele>2094.6000976562</ele>
        <time>2022-03-09T15:01:21.000Z</time>
      </trkpt>
      <trkpt lat="44.41125" lon="6.86709">
        <ele>2093.6000976562</ele>
        <time>2022-03-09T15:01:23.000Z</time>
      </trkpt>
      <trkpt lat="44.41128" lon="6.86711">
        <ele>2092.8000488281</ele>
        <time>2022-03-09T15:01:24.000Z</time>
      </trkpt>
      <trkpt lat="44.41134" lon="6.86713">
        <ele>2091.6000976562</ele>
        <time>2022-03-09T15:01:26.000Z</time>
      </trkpt>
      <trkpt lat="44.41138" lon="6.86715">
        <ele>2090.6000976562</ele>
        <time>2022-03-09T15:01:28.000Z</time>
      </trkpt>
      <trkpt lat="44.41139" lon="6.86715">
        <ele>2090</ele>
        <time>2022-03-09T15:01:29.000Z</time>
      </trkpt>
      <trkpt lat="44.41142" lon="6.86717">
        <ele>2089.1999511719</ele>
        <time>2022-03-09T15:01:34.000Z</time>
      </trkpt>
      <trkpt lat="44.41145" lon="6.86718">
        <ele>2089</ele>
        <time>2022-03-09T15:01:38.000Z</time>
      </trkpt>
      <trkpt lat="44.4115" lon="6.86719">
        <ele>2087.6000976562</ele>
        <time>2022-03-09T15:01:42.000Z</time>
      </trkpt>
      <trkpt lat="44.41158" lon="6.86724">
        <ele>2086.3999023438</ele>
        <time>2022-03-09T15:01:47.000Z</time>
      </trkpt>
      <trkpt lat="44.41165" lon="6.86727">
        <ele>2085.3999023438</ele>
        <time>2022-03-09T15:01:51.000Z</time>
      </trkpt>
      <trkpt lat="44.41166" lon="6.86728">
        <ele>2085</ele>
        <time>2022-03-09T15:01:52.000Z</time>
      </trkpt>
      <trkpt lat="44.41167" lon="6.86726">
        <ele>2084.6000976562</ele>
        <time>2022-03-09T15:01:53.000Z</time>
      </trkpt>
      <trkpt lat="44.41166" lon="6.86724">
        <ele>2083.8000488281</ele>
        <time>2022-03-09T15:01:54.000Z</time>
      </trkpt>
      <trkpt lat="44.41166" lon="6.8672">
        <ele>2082.6000976562</ele>
        <time>2022-03-09T15:01:55.000Z</time>
      </trkpt>
      <trkpt lat="44.41167" lon="6.86716">
        <ele>2081.3999023438</ele>
        <time>2022-03-09T15:01:56.000Z</time>
      </trkpt>
      <trkpt lat="44.41169" lon="6.86715">
        <ele>2080.8000488281</ele>
        <time>2022-03-09T15:01:57.000Z</time>
      </trkpt>
      <trkpt lat="44.41172" lon="6.86715">
        <ele>2079.3999023438</ele>
        <time>2022-03-09T15:01:58.000Z</time>
      </trkpt>
      <trkpt lat="44.41175" lon="6.86715">
        <ele>2078</ele>
        <time>2022-03-09T15:01:59.000Z</time>
      </trkpt>
      <trkpt lat="44.4118" lon="6.86716">
        <ele>2076.3999023438</ele>
        <time>2022-03-09T15:02:01.000Z</time>
      </trkpt>
      <trkpt lat="44.41182" lon="6.86716">
        <ele>2075.6000976562</ele>
        <time>2022-03-09T15:02:02.000Z</time>
      </trkpt>
      <trkpt lat="44.41185" lon="6.86715">
        <ele>2074.8000488281</ele>
        <time>2022-03-09T15:02:03.000Z</time>
      </trkpt>
      <trkpt lat="44.41191" lon="6.86711">
        <ele>2072.1999511719</ele>
        <time>2022-03-09T15:02:05.000Z</time>
      </trkpt>
      <trkpt lat="44.41194" lon="6.8671">
        <ele>2069.3999023438</ele>
        <time>2022-03-09T15:02:06.000Z</time>
      </trkpt>
      <trkpt lat="44.41195" lon="6.86711">
        <ele>2067.6000976562</ele>
        <time>2022-03-09T15:02:07.000Z</time>
      </trkpt>
      <trkpt lat="44.41197" lon="6.8671">
        <ele>2066</ele>
        <time>2022-03-09T15:02:09.000Z</time>
      </trkpt>
      <trkpt lat="44.41198" lon="6.86708">
        <ele>2065</ele>
        <time>2022-03-09T15:02:10.000Z</time>
      </trkpt>
      <trkpt lat="44.412" lon="6.86705">
        <ele>2064.1999511719</ele>
        <time>2022-03-09T15:02:11.000Z</time>
      </trkpt>
      <trkpt lat="44.41204" lon="6.86704">
        <ele>2063.1999511719</ele>
        <time>2022-03-09T15:02:12.000Z</time>
      </trkpt>
      <trkpt lat="44.41208" lon="6.86703">
        <ele>2061.6000976562</ele>
        <time>2022-03-09T15:02:13.000Z</time>
      </trkpt>
      <trkpt lat="44.4121" lon="6.86703">
        <ele>2060</ele>
        <time>2022-03-09T15:02:14.000Z</time>
      </trkpt>
      <trkpt lat="44.41211" lon="6.86703">
        <ele>2058.8000488281</ele>
        <time>2022-03-09T15:02:15.000Z</time>
      </trkpt>
      <trkpt lat="44.41214" lon="6.86704">
        <ele>2057.8000488281</ele>
        <time>2022-03-09T15:02:18.000Z</time>
      </trkpt>
      <trkpt lat="44.41215" lon="6.86703">
        <ele>2057.6000976562</ele>
        <time>2022-03-09T15:02:22.000Z</time>
      </trkpt>
      <trkpt lat="44.41215" lon="6.86707">
        <ele>2057.3999023438</ele>
        <time>2022-03-09T15:02:36.000Z</time>
      </trkpt>
      <trkpt lat="44.41217" lon="6.86702">
        <ele>2057.1999511719</ele>
        <time>2022-03-09T15:02:45.000Z</time>
      </trkpt>
      <trkpt lat="44.41216" lon="6.86704">
        <ele>2057.3999023438</ele>
        <time>2022-03-09T15:02:53.000Z</time>
      </trkpt>
      <trkpt lat="44.41215" lon="6.86701">
        <ele>2056.6000976562</ele>
        <time>2022-03-09T15:03:51.000Z</time>
      </trkpt>
      <trkpt lat="44.41215" lon="6.867">
        <ele>2056</ele>
        <time>2022-03-09T15:03:52.000Z</time>
      </trkpt>
      <trkpt lat="44.41215" lon="6.86697">
        <ele>2055.1999511719</ele>
        <time>2022-03-09T15:03:53.000Z</time>
      </trkpt>
      <trkpt lat="44.41215" lon="6.86693">
        <ele>2054.1999511719</ele>
        <time>2022-03-09T15:03:54.000Z</time>
      </trkpt>
      <trkpt lat="44.41216" lon="6.86691">
        <ele>2053.3999023438</ele>
        <time>2022-03-09T15:03:55.000Z</time>
      </trkpt>
      <trkpt lat="44.41219" lon="6.86689">
        <ele>2052.8000488281</ele>
        <time>2022-03-09T15:03:56.000Z</time>
      </trkpt>
      <trkpt lat="44.41221" lon="6.86687">
        <ele>2051.6000976562</ele>
        <time>2022-03-09T15:03:57.000Z</time>
      </trkpt>
      <trkpt lat="44.41222" lon="6.86684">
        <ele>2050.3999023438</ele>
        <time>2022-03-09T15:03:58.000Z</time>
      </trkpt>
      <trkpt lat="44.41222" lon="6.86675">
        <ele>2048.3999023438</ele>
        <time>2022-03-09T15:04:00.000Z</time>
      </trkpt>
      <trkpt lat="44.41225" lon="6.8667">
        <ele>2047.4000244141</ele>
        <time>2022-03-09T15:04:01.000Z</time>
      </trkpt>
      <trkpt lat="44.41229" lon="6.86662">
        <ele>2045.5999755859</ele>
        <time>2022-03-09T15:04:03.000Z</time>
      </trkpt>
      <trkpt lat="44.41231" lon="6.86657">
        <ele>2044.1999511719</ele>
        <time>2022-03-09T15:04:04.000Z</time>
      </trkpt>
      <trkpt lat="44.41234" lon="6.86654">
        <ele>2043</ele>
        <time>2022-03-09T15:04:05.000Z</time>
      </trkpt>
      <trkpt lat="44.41236" lon="6.86651">
        <ele>2042</ele>
        <time>2022-03-09T15:04:06.000Z</time>
      </trkpt>
      <trkpt lat="44.41238" lon="6.86649">
        <ele>2041.1999511719</ele>
        <time>2022-03-09T15:04:07.000Z</time>
      </trkpt>
      <trkpt lat="44.41241" lon="6.86645">
        <ele>2039.5999755859</ele>
        <time>2022-03-09T15:04:09.000Z</time>
      </trkpt>
      <trkpt lat="44.41247" lon="6.8664">
        <ele>2037.8000488281</ele>
        <time>2022-03-09T15:04:11.000Z</time>
      </trkpt>
      <trkpt lat="44.4125" lon="6.86638">
        <ele>2037.1999511719</ele>
        <time>2022-03-09T15:04:12.000Z</time>
      </trkpt>
      <trkpt lat="44.41254" lon="6.86639">
        <ele>2036.4000244141</ele>
        <time>2022-03-09T15:04:13.000Z</time>
      </trkpt>
      <trkpt lat="44.41257" lon="6.8664">
        <ele>2035</ele>
        <time>2022-03-09T15:04:14.000Z</time>
      </trkpt>
      <trkpt lat="44.41263" lon="6.86642">
        <ele>2033.5999755859</ele>
        <time>2022-03-09T15:04:16.000Z</time>
      </trkpt>
      <trkpt lat="44.41271" lon="6.86646">
        <ele>2032.5999755859</ele>
        <time>2022-03-09T15:04:18.000Z</time>
      </trkpt>
      <trkpt lat="44.41281" lon="6.86652">
        <ele>2031</ele>
        <time>2022-03-09T15:04:20.000Z</time>
      </trkpt>
      <trkpt lat="44.41288" lon="6.86657">
        <ele>2029.4000244141</ele>
        <time>2022-03-09T15:04:22.000Z</time>
      </trkpt>
      <trkpt lat="44.41291" lon="6.86658">
        <ele>2029</ele>
        <time>2022-03-09T15:04:23.000Z</time>
      </trkpt>
      <trkpt lat="44.41295" lon="6.86658">
        <ele>2028.5999755859</ele>
        <time>2022-03-09T15:04:24.000Z</time>
      </trkpt>
      <trkpt lat="44.41299" lon="6.86658">
        <ele>2028.4000244141</ele>
        <time>2022-03-09T15:04:25.000Z</time>
      </trkpt>
      <trkpt lat="44.41304" lon="6.86659">
        <ele>2027.8000488281</ele>
        <time>2022-03-09T15:04:26.000Z</time>
      </trkpt>
      <trkpt lat="44.41308" lon="6.86661">
        <ele>2027.1999511719</ele>
        <time>2022-03-09T15:04:27.000Z</time>
      </trkpt>
      <trkpt lat="44.41317" lon="6.86666">
        <ele>2025.4000244141</ele>
        <time>2022-03-09T15:04:29.000Z</time>
      </trkpt>
      <trkpt lat="44.41327" lon="6.86671">
        <ele>2023.8000488281</ele>
        <time>2022-03-09T15:04:31.000Z</time>
      </trkpt>
      <trkpt lat="44.41335" lon="6.86677">
        <ele>2022.4000244141</ele>
        <time>2022-03-09T15:04:33.000Z</time>
      </trkpt>
      <trkpt lat="44.4134" lon="6.86682">
        <ele>2022</ele>
        <time>2022-03-09T15:04:34.000Z</time>
      </trkpt>
      <trkpt lat="44.41349" lon="6.86687">
        <ele>2021</ele>
        <time>2022-03-09T15:04:36.000Z</time>
      </trkpt>
      <trkpt lat="44.41357" lon="6.86692">
        <ele>2020</ele>
        <time>2022-03-09T15:04:38.000Z</time>
      </trkpt>
      <trkpt lat="44.41365" lon="6.86697">
        <ele>2019</ele>
        <time>2022-03-09T15:04:41.000Z</time>
      </trkpt>
      <trkpt lat="44.41367" lon="6.86698">
        <ele>2018.8000488281</ele>
        <time>2022-03-09T15:04:42.000Z</time>
      </trkpt>
      <trkpt lat="44.41378" lon="6.86704">
        <ele>2018</ele>
        <time>2022-03-09T15:04:47.000Z</time>
      </trkpt>
      <trkpt lat="44.41381" lon="6.86706">
        <ele>2017.5999755859</ele>
        <time>2022-03-09T15:04:49.000Z</time>
      </trkpt>
      <trkpt lat="44.4139" lon="6.86711">
        <ele>2016.5999755859</ele>
        <time>2022-03-09T15:04:53.000Z</time>
      </trkpt>
      <trkpt lat="44.41394" lon="6.86713">
        <ele>2016</ele>
        <time>2022-03-09T15:04:54.000Z</time>
      </trkpt>
      <trkpt lat="44.41402" lon="6.8672">
        <ele>2014.5999755859</ele>
        <time>2022-03-09T15:04:56.000Z</time>
      </trkpt>
      <trkpt lat="44.41409" lon="6.86726">
        <ele>2013.4000244141</ele>
        <time>2022-03-09T15:04:58.000Z</time>
      </trkpt>
      <trkpt lat="44.41423" lon="6.86737">
        <ele>2012.4000244141</ele>
        <time>2022-03-09T15:05:02.000Z</time>
      </trkpt>
      <trkpt lat="44.41427" lon="6.86742">
        <ele>2012</ele>
        <time>2022-03-09T15:05:04.000Z</time>
      </trkpt>
      <trkpt lat="44.41434" lon="6.86749">
        <ele>2011.8000488281</ele>
        <time>2022-03-09T15:05:06.000Z</time>
      </trkpt>
      <trkpt lat="44.41443" lon="6.8676">
        <ele>2011.1999511719</ele>
        <time>2022-03-09T15:05:09.000Z</time>
      </trkpt>
      <trkpt lat="44.41454" lon="6.86773">
        <ele>2010.8000488281</ele>
        <time>2022-03-09T15:05:13.000Z</time>
      </trkpt>
      <trkpt lat="44.41471" lon="6.86783">
        <ele>2009.8000488281</ele>
        <time>2022-03-09T15:05:18.000Z</time>
      </trkpt>
      <trkpt lat="44.41488" lon="6.86788">
        <ele>2008.8000488281</ele>
        <time>2022-03-09T15:05:22.000Z</time>
      </trkpt>
      <trkpt lat="44.41496" lon="6.8679">
        <ele>2008.4000244141</ele>
        <time>2022-03-09T15:05:24.000Z</time>
      </trkpt>
      <trkpt lat="44.41512" lon="6.86795">
        <ele>2007.5999755859</ele>
        <time>2022-03-09T15:05:28.000Z</time>
      </trkpt>
      <trkpt lat="44.41519" lon="6.868">
        <ele>2007.1999511719</ele>
        <time>2022-03-09T15:05:30.000Z</time>
      </trkpt>
      <trkpt lat="44.4154" lon="6.86808">
        <ele>2006.5999755859</ele>
        <time>2022-03-09T15:05:37.000Z</time>
      </trkpt>
      <trkpt lat="44.41553" lon="6.86813">
        <ele>2006.1999511719</ele>
        <time>2022-03-09T15:05:42.000Z</time>
      </trkpt>
      <trkpt lat="44.41567" lon="6.86817">
        <ele>2005.5999755859</ele>
        <time>2022-03-09T15:05:47.000Z</time>
      </trkpt>
      <trkpt lat="44.41579" lon="6.8682">
        <ele>2005.5999755859</ele>
        <time>2022-03-09T15:05:51.000Z</time>
      </trkpt>
      <trkpt lat="44.41584" lon="6.86821">
        <ele>2005.5999755859</ele>
        <time>2022-03-09T15:05:53.000Z</time>
      </trkpt>
      <trkpt lat="44.41597" lon="6.86825">
        <ele>2005</ele>
        <time>2022-03-09T15:05:58.000Z</time>
      </trkpt>
      <trkpt lat="44.41602" lon="6.86827">
        <ele>2004.5999755859</ele>
        <time>2022-03-09T15:06:00.000Z</time>
      </trkpt>
      <trkpt lat="44.41607" lon="6.86829">
        <ele>2004.5999755859</ele>
        <time>2022-03-09T15:06:03.000Z</time>
      </trkpt>
      <trkpt lat="44.41618" lon="6.86831">
        <ele>2004.8000488281</ele>
        <time>2022-03-09T15:06:10.000Z</time>
      </trkpt>
      <trkpt lat="44.41632" lon="6.86842">
        <ele>2005.1999511719</ele>
        <time>2022-03-09T15:06:18.000Z</time>
      </trkpt>
      <trkpt lat="44.41637" lon="6.86843">
        <ele>2005.4000244141</ele>
        <time>2022-03-09T15:06:25.000Z</time>
      </trkpt>
      <trkpt lat="44.4164" lon="6.86845">
        <ele>2005.8000488281</ele>
        <time>2022-03-09T15:06:30.000Z</time>
      </trkpt>
      <trkpt lat="44.41642" lon="6.86844">
        <ele>2006.1999511719</ele>
        <time>2022-03-09T15:06:33.000Z</time>
      </trkpt>
      <trkpt lat="44.41651" lon="6.86845">
        <ele>2006.5999755859</ele>
        <time>2022-03-09T15:06:44.000Z</time>
      </trkpt>
      <trkpt lat="44.41655" lon="6.86846">
        <ele>2006.8000488281</ele>
        <time>2022-03-09T15:06:50.000Z</time>
      </trkpt>
      <trkpt lat="44.41657" lon="6.86846">
        <ele>2007.1999511719</ele>
        <time>2022-03-09T15:06:53.000Z</time>
      </trkpt>
      <trkpt lat="44.41671" lon="6.86852">
        <ele>2006.8000488281</ele>
        <time>2022-03-09T15:07:04.000Z</time>
      </trkpt>
      <trkpt lat="44.41689" lon="6.86859">
        <ele>2006.1999511719</ele>
        <time>2022-03-09T15:07:11.000Z</time>
      </trkpt>
      <trkpt lat="44.41694" lon="6.8686">
        <ele>2005.8000488281</ele>
        <time>2022-03-09T15:07:13.000Z</time>
      </trkpt>
      <trkpt lat="44.41702" lon="6.86863">
        <ele>2005.5999755859</ele>
        <time>2022-03-09T15:07:18.000Z</time>
      </trkpt>
      <trkpt lat="44.4171" lon="6.86873">
        <ele>2005.4000244141</ele>
        <time>2022-03-09T15:07:24.000Z</time>
      </trkpt>
      <trkpt lat="44.41715" lon="6.86881">
        <ele>2004.5999755859</ele>
        <time>2022-03-09T15:07:26.000Z</time>
      </trkpt>
      <trkpt lat="44.41721" lon="6.86889">
        <ele>2003.8000488281</ele>
        <time>2022-03-09T15:07:28.000Z</time>
      </trkpt>
      <trkpt lat="44.41724" lon="6.86893">
        <ele>2003.5999755859</ele>
        <time>2022-03-09T15:07:29.000Z</time>
      </trkpt>
      <trkpt lat="44.4173" lon="6.869">
        <ele>2003</ele>
        <time>2022-03-09T15:07:31.000Z</time>
      </trkpt>
      <trkpt lat="44.41733" lon="6.86903">
        <ele>2002.5999755859</ele>
        <time>2022-03-09T15:07:32.000Z</time>
      </trkpt>
      <trkpt lat="44.41738" lon="6.86909">
        <ele>2002.1999511719</ele>
        <time>2022-03-09T15:07:34.000Z</time>
      </trkpt>
      <trkpt lat="44.41743" lon="6.86922">
        <ele>2001.4000244141</ele>
        <time>2022-03-09T15:07:37.000Z</time>
      </trkpt>
      <trkpt lat="44.41746" lon="6.86927">
        <ele>2001</ele>
        <time>2022-03-09T15:07:39.000Z</time>
      </trkpt>
      <trkpt lat="44.41749" lon="6.86934">
        <ele>2000.8000488281</ele>
        <time>2022-03-09T15:07:42.000Z</time>
      </trkpt>
      <trkpt lat="44.41752" lon="6.86939">
        <ele>2000.8000488281</ele>
        <time>2022-03-09T15:07:43.000Z</time>
      </trkpt>
      <trkpt lat="44.41757" lon="6.86943">
        <ele>1999.8000488281</ele>
        <time>2022-03-09T15:07:44.000Z</time>
      </trkpt>
      <trkpt lat="44.41767" lon="6.86944">
        <ele>1998.8000488281</ele>
        <time>2022-03-09T15:07:46.000Z</time>
      </trkpt>
      <trkpt lat="44.41771" lon="6.86943">
        <ele>1998.5999755859</ele>
        <time>2022-03-09T15:07:47.000Z</time>
      </trkpt>
      <trkpt lat="44.41782" lon="6.86941">
        <ele>1997</ele>
        <time>2022-03-09T15:07:50.000Z</time>
      </trkpt>
      <trkpt lat="44.41787" lon="6.86942">
        <ele>1996.4000244141</ele>
        <time>2022-03-09T15:07:51.000Z</time>
      </trkpt>
      <trkpt lat="44.41791" lon="6.86942">
        <ele>1995.5999755859</ele>
        <time>2022-03-09T15:07:52.000Z</time>
      </trkpt>
      <trkpt lat="44.41799" lon="6.86942">
        <ele>1994</ele>
        <time>2022-03-09T15:07:54.000Z</time>
      </trkpt>
      <trkpt lat="44.41807" lon="6.8694">
        <ele>1992.8000488281</ele>
        <time>2022-03-09T15:07:56.000Z</time>
      </trkpt>
      <trkpt lat="44.41813" lon="6.86938">
        <ele>1991.8000488281</ele>
        <time>2022-03-09T15:07:58.000Z</time>
      </trkpt>
      <trkpt lat="44.41823" lon="6.86936">
        <ele>1990.1999511719</ele>
        <time>2022-03-09T15:08:01.000Z</time>
      </trkpt>
      <trkpt lat="44.41831" lon="6.86934">
        <ele>1989.4000244141</ele>
        <time>2022-03-09T15:08:03.000Z</time>
      </trkpt>
      <trkpt lat="44.41838" lon="6.86931">
        <ele>1989.1999511719</ele>
        <time>2022-03-09T15:08:04.000Z</time>
      </trkpt>
      <trkpt lat="44.41846" lon="6.86928">
        <ele>1988.1999511719</ele>
        <time>2022-03-09T15:08:07.000Z</time>
      </trkpt>
      <trkpt lat="44.41856" lon="6.86922">
        <ele>1986.5999755859</ele>
        <time>2022-03-09T15:08:10.000Z</time>
      </trkpt>
      <trkpt lat="44.41859" lon="6.8692">
        <ele>1986</ele>
        <time>2022-03-09T15:08:11.000Z</time>
      </trkpt>
      <trkpt lat="44.41863" lon="6.86918">
        <ele>1985.4000244141</ele>
        <time>2022-03-09T15:08:12.000Z</time>
      </trkpt>
      <trkpt lat="44.41869" lon="6.86915">
        <ele>1984.4000244141</ele>
        <time>2022-03-09T15:08:14.000Z</time>
      </trkpt>
      <trkpt lat="44.41878" lon="6.86908">
        <ele>1983.4000244141</ele>
        <time>2022-03-09T15:08:18.000Z</time>
      </trkpt>
      <trkpt lat="44.41884" lon="6.86907">
        <ele>1983.1999511719</ele>
        <time>2022-03-09T15:08:20.000Z</time>
      </trkpt>
      <trkpt lat="44.41898" lon="6.86903">
        <ele>1982.1999511719</ele>
        <time>2022-03-09T15:08:24.000Z</time>
      </trkpt>
      <trkpt lat="44.41902" lon="6.86902">
        <ele>1981.5999755859</ele>
        <time>2022-03-09T15:08:25.000Z</time>
      </trkpt>
      <trkpt lat="44.41906" lon="6.86901">
        <ele>1981.1999511719</ele>
        <time>2022-03-09T15:08:26.000Z</time>
      </trkpt>
      <trkpt lat="44.41923" lon="6.86895">
        <ele>1979.8000488281</ele>
        <time>2022-03-09T15:08:30.000Z</time>
      </trkpt>
      <trkpt lat="44.41932" lon="6.86893">
        <ele>1978.5999755859</ele>
        <time>2022-03-09T15:08:32.000Z</time>
      </trkpt>
      <trkpt lat="44.41939" lon="6.86892">
        <ele>1977.1999511719</ele>
        <time>2022-03-09T15:08:34.000Z</time>
      </trkpt>
      <trkpt lat="44.41945" lon="6.86891">
        <ele>1976.1999511719</ele>
        <time>2022-03-09T15:08:36.000Z</time>
      </trkpt>
      <trkpt lat="44.41953" lon="6.86887">
        <ele>1974.8000488281</ele>
        <time>2022-03-09T15:08:39.000Z</time>
      </trkpt>
      <trkpt lat="44.41957" lon="6.86883">
        <ele>1974.4000244141</ele>
        <time>2022-03-09T15:08:40.000Z</time>
      </trkpt>
      <trkpt lat="44.41961" lon="6.86878">
        <ele>1973.5999755859</ele>
        <time>2022-03-09T15:08:41.000Z</time>
      </trkpt>
      <trkpt lat="44.41964" lon="6.86875">
        <ele>1972.5999755859</ele>
        <time>2022-03-09T15:08:42.000Z</time>
      </trkpt>
      <trkpt lat="44.41967" lon="6.8687">
        <ele>1971.8000488281</ele>
        <time>2022-03-09T15:08:43.000Z</time>
      </trkpt>
      <trkpt lat="44.4197" lon="6.86866">
        <ele>1971.1999511719</ele>
        <time>2022-03-09T15:08:44.000Z</time>
      </trkpt>
      <trkpt lat="44.41977" lon="6.86858">
        <ele>1970</ele>
        <time>2022-03-09T15:08:46.000Z</time>
      </trkpt>
      <trkpt lat="44.41985" lon="6.86859">
        <ele>1968.8000488281</ele>
        <time>2022-03-09T15:08:49.000Z</time>
      </trkpt>
      <trkpt lat="44.41987" lon="6.86859">
        <ele>1968.4000244141</ele>
        <time>2022-03-09T15:08:54.000Z</time>
      </trkpt>
      <trkpt lat="44.41988" lon="6.86864">
        <ele>1968.4000244141</ele>
        <time>2022-03-09T15:09:05.000Z</time>
      </trkpt>
      <trkpt lat="44.41989" lon="6.86866">
        <ele>1968.5999755859</ele>
        <time>2022-03-09T15:09:11.000Z</time>
      </trkpt>
      <trkpt lat="44.41988" lon="6.86866">
        <ele>1968.4000244141</ele>
        <time>2022-03-09T15:09:22.000Z</time>
      </trkpt>
      <trkpt lat="44.41994" lon="6.86868">
        <ele>1968.4000244141</ele>
        <time>2022-03-09T15:09:49.000Z</time>
      </trkpt>
      <trkpt lat="44.41995" lon="6.86868">
        <ele>1968.5999755859</ele>
        <time>2022-03-09T15:09:56.000Z</time>
      </trkpt>
      <trkpt lat="44.41995" lon="6.86865">
        <ele>1968.4000244141</ele>
        <time>2022-03-09T15:10:03.000Z</time>
      </trkpt>
      <trkpt lat="44.41996" lon="6.86862">
        <ele>1968.4000244141</ele>
        <time>2022-03-09T15:10:12.000Z</time>
      </trkpt>
      <trkpt lat="44.42004" lon="6.86858">
        <ele>1967.5999755859</ele>
        <time>2022-03-09T15:10:15.000Z</time>
      </trkpt>
      <trkpt lat="44.42007" lon="6.86857">
        <ele>1966.8000488281</ele>
        <time>2022-03-09T15:10:16.000Z</time>
      </trkpt>
      <trkpt lat="44.42011" lon="6.86856">
        <ele>1966.1999511719</ele>
        <time>2022-03-09T15:10:17.000Z</time>
      </trkpt>
      <trkpt lat="44.42022" lon="6.86853">
        <ele>1964.8000488281</ele>
        <time>2022-03-09T15:10:20.000Z</time>
      </trkpt>
      <trkpt lat="44.42034" lon="6.86849">
        <ele>1963.4000244141</ele>
        <time>2022-03-09T15:10:23.000Z</time>
      </trkpt>
      <trkpt lat="44.42049" lon="6.86845">
        <ele>1962.1999511719</ele>
        <time>2022-03-09T15:10:28.000Z</time>
      </trkpt>
      <trkpt lat="44.42053" lon="6.86843">
        <ele>1961.4000244141</ele>
        <time>2022-03-09T15:10:31.000Z</time>
      </trkpt>
      <trkpt lat="44.42053" lon="6.8684">
        <ele>1961.1999511719</ele>
        <time>2022-03-09T15:10:32.000Z</time>
      </trkpt>
      <trkpt lat="44.42054" lon="6.86838">
        <ele>1961</ele>
        <time>2022-03-09T15:10:33.000Z</time>
      </trkpt>
      <trkpt lat="44.42059" lon="6.86834">
        <ele>1960</ele>
        <time>2022-03-09T15:10:35.000Z</time>
      </trkpt>
      <trkpt lat="44.42065" lon="6.86833">
        <ele>1958.4000244141</ele>
        <time>2022-03-09T15:10:37.000Z</time>
      </trkpt>
      <trkpt lat="44.42068" lon="6.86833">
        <ele>1957.4000244141</ele>
        <time>2022-03-09T15:10:38.000Z</time>
      </trkpt>
      <trkpt lat="44.42073" lon="6.86833">
        <ele>1956.1999511719</ele>
        <time>2022-03-09T15:10:40.000Z</time>
      </trkpt>
      <trkpt lat="44.42079" lon="6.86831">
        <ele>1955</ele>
        <time>2022-03-09T15:10:42.000Z</time>
      </trkpt>
      <trkpt lat="44.42083" lon="6.86828">
        <ele>1953.4000244141</ele>
        <time>2022-03-09T15:10:44.000Z</time>
      </trkpt>
      <trkpt lat="44.42085" lon="6.86825">
        <ele>1951.8000488281</ele>
        <time>2022-03-09T15:10:46.000Z</time>
      </trkpt>
      <trkpt lat="44.42086" lon="6.86825">
        <ele>1950.5999755859</ele>
        <time>2022-03-09T15:10:48.000Z</time>
      </trkpt>
      <trkpt lat="44.42088" lon="6.86826">
        <ele>1950</ele>
        <time>2022-03-09T15:10:51.000Z</time>
      </trkpt>
      <trkpt lat="44.4209" lon="6.86826">
        <ele>1949.8000488281</ele>
        <time>2022-03-09T15:10:58.000Z</time>
      </trkpt>
      <trkpt lat="44.42094" lon="6.86826">
        <ele>1949.5999755859</ele>
        <time>2022-03-09T15:11:00.000Z</time>
      </trkpt>
      <trkpt lat="44.42102" lon="6.86823">
        <ele>1949.1999511719</ele>
        <time>2022-03-09T15:11:04.000Z</time>
      </trkpt>
      <trkpt lat="44.42115" lon="6.86816">
        <ele>1948.5999755859</ele>
        <time>2022-03-09T15:11:10.000Z</time>
      </trkpt>
      <trkpt lat="44.4213" lon="6.86811">
        <ele>1948.4000244141</ele>
        <time>2022-03-09T15:11:16.000Z</time>
      </trkpt>
      <trkpt lat="44.42134" lon="6.86815">
        <ele>1948.4000244141</ele>
        <time>2022-03-09T15:11:21.000Z</time>
      </trkpt>
      <trkpt lat="44.42137" lon="6.86821">
        <ele>1949.5999755859</ele>
        <time>2022-03-09T15:11:28.000Z</time>
      </trkpt>
      <trkpt lat="44.4214" lon="6.86826">
        <ele>1949.8000488281</ele>
        <time>2022-03-09T15:11:36.000Z</time>
      </trkpt>
      <trkpt lat="44.42142" lon="6.86827">
        <ele>1949.8000488281</ele>
        <time>2022-03-09T15:11:40.000Z</time>
      </trkpt>
      <trkpt lat="44.42145" lon="6.86825">
        <ele>1950</ele>
        <time>2022-03-09T15:11:45.000Z</time>
      </trkpt>
      <trkpt lat="44.42146" lon="6.86823">
        <ele>1950</ele>
        <time>2022-03-09T15:11:51.000Z</time>
      </trkpt>
      <trkpt lat="44.4215" lon="6.86823">
        <ele>1950.4000244141</ele>
        <time>2022-03-09T15:12:19.000Z</time>
      </trkpt>
      <trkpt lat="44.42155" lon="6.86825">
        <ele>1950</ele>
        <time>2022-03-09T15:12:21.000Z</time>
      </trkpt>
      <trkpt lat="44.42165" lon="6.86827">
        <ele>1948.5999755859</ele>
        <time>2022-03-09T15:12:24.000Z</time>
      </trkpt>
      <trkpt lat="44.42168" lon="6.86827">
        <ele>1948</ele>
        <time>2022-03-09T15:12:25.000Z</time>
      </trkpt>
      <trkpt lat="44.42174" lon="6.86826">
        <ele>1947.4000244141</ele>
        <time>2022-03-09T15:12:28.000Z</time>
      </trkpt>
      <trkpt lat="44.42176" lon="6.86825">
        <ele>1947.4000244141</ele>
        <time>2022-03-09T15:12:29.000Z</time>
      </trkpt>
      <trkpt lat="44.42185" lon="6.86822">
        <ele>1946.1999511719</ele>
        <time>2022-03-09T15:12:32.000Z</time>
      </trkpt>
      <trkpt lat="44.42189" lon="6.86822">
        <ele>1945.8000488281</ele>
        <time>2022-03-09T15:12:33.000Z</time>
      </trkpt>
      <trkpt lat="44.42197" lon="6.86821">
        <ele>1945</ele>
        <time>2022-03-09T15:12:35.000Z</time>
      </trkpt>
      <trkpt lat="44.42205" lon="6.8682">
        <ele>1943.5999755859</ele>
        <time>2022-03-09T15:12:37.000Z</time>
      </trkpt>
      <trkpt lat="44.4221" lon="6.86821">
        <ele>1942.8000488281</ele>
        <time>2022-03-09T15:12:39.000Z</time>
      </trkpt>
      <trkpt lat="44.42212" lon="6.8682">
        <ele>1942.5999755859</ele>
        <time>2022-03-09T15:12:40.000Z</time>
      </trkpt>
      <trkpt lat="44.42224" lon="6.8682">
        <ele>1941.5999755859</ele>
        <time>2022-03-09T15:12:44.000Z</time>
      </trkpt>
      <trkpt lat="44.42226" lon="6.8682">
        <ele>1941.5999755859</ele>
        <time>2022-03-09T15:12:45.000Z</time>
      </trkpt>
      <trkpt lat="44.42233" lon="6.86821">
        <ele>1941.8000488281</ele>
        <time>2022-03-09T15:12:49.000Z</time>
      </trkpt>
      <trkpt lat="44.42236" lon="6.86821">
        <ele>1942.1999511719</ele>
        <time>2022-03-09T15:12:53.000Z</time>
      </trkpt>
      <trkpt lat="44.4224" lon="6.86817">
        <ele>1942</ele>
        <time>2022-03-09T15:12:58.000Z</time>
      </trkpt>
      <trkpt lat="44.4225" lon="6.86818">
        <ele>1942</ele>
        <time>2022-03-09T15:13:06.000Z</time>
      </trkpt>
      <trkpt lat="44.42264" lon="6.86824">
        <ele>1941.4000244141</ele>
        <time>2022-03-09T15:13:13.000Z</time>
      </trkpt>
      <trkpt lat="44.42275" lon="6.86831">
        <ele>1940.5999755859</ele>
        <time>2022-03-09T15:13:18.000Z</time>
      </trkpt>
      <trkpt lat="44.42277" lon="6.86831">
        <ele>1940.4000244141</ele>
        <time>2022-03-09T15:13:19.000Z</time>
      </trkpt>
      <trkpt lat="44.42286" lon="6.86834">
        <ele>1939.5999755859</ele>
        <time>2022-03-09T15:13:24.000Z</time>
      </trkpt>
      <trkpt lat="44.42289" lon="6.86835">
        <ele>1939.4000244141</ele>
        <time>2022-03-09T15:13:25.000Z</time>
      </trkpt>
      <trkpt lat="44.42301" lon="6.86839">
        <ele>1938.4000244141</ele>
        <time>2022-03-09T15:13:28.000Z</time>
      </trkpt>
      <trkpt lat="44.42311" lon="6.86843">
        <ele>1937.1999511719</ele>
        <time>2022-03-09T15:13:31.000Z</time>
      </trkpt>
      <trkpt lat="44.42317" lon="6.86845">
        <ele>1936.8000488281</ele>
        <time>2022-03-09T15:13:33.000Z</time>
      </trkpt>
      <trkpt lat="44.42324" lon="6.86847">
        <ele>1936</ele>
        <time>2022-03-09T15:13:35.000Z</time>
      </trkpt>
      <trkpt lat="44.42336" lon="6.86846">
        <ele>1934.8000488281</ele>
        <time>2022-03-09T15:13:38.000Z</time>
      </trkpt>
      <trkpt lat="44.42347" lon="6.86851">
        <ele>1933.4000244141</ele>
        <time>2022-03-09T15:13:41.000Z</time>
      </trkpt>
      <trkpt lat="44.42357" lon="6.86855">
        <ele>1932.8000488281</ele>
        <time>2022-03-09T15:13:44.000Z</time>
      </trkpt>
      <trkpt lat="44.42363" lon="6.86859">
        <ele>1932.4000244141</ele>
        <time>2022-03-09T15:13:46.000Z</time>
      </trkpt>
      <trkpt lat="44.42368" lon="6.8686">
        <ele>1931.8000488281</ele>
        <time>2022-03-09T15:13:48.000Z</time>
      </trkpt>
      <trkpt lat="44.42373" lon="6.86863">
        <ele>1931.4000244141</ele>
        <time>2022-03-09T15:13:50.000Z</time>
      </trkpt>
      <trkpt lat="44.42378" lon="6.86867">
        <ele>1930.5999755859</ele>
        <time>2022-03-09T15:13:52.000Z</time>
      </trkpt>
      <trkpt lat="44.4238" lon="6.86869">
        <ele>1930.1999511719</ele>
        <time>2022-03-09T15:13:53.000Z</time>
      </trkpt>
      <trkpt lat="44.42392" lon="6.86872">
        <ele>1929.8000488281</ele>
        <time>2022-03-09T15:13:58.000Z</time>
      </trkpt>
      <trkpt lat="44.42402" lon="6.86874">
        <ele>1929.1999511719</ele>
        <time>2022-03-09T15:14:01.000Z</time>
      </trkpt>
      <trkpt lat="44.42408" lon="6.86877">
        <ele>1928.8000488281</ele>
        <time>2022-03-09T15:14:03.000Z</time>
      </trkpt>
      <trkpt lat="44.42421" lon="6.86887">
        <ele>1927.8000488281</ele>
        <time>2022-03-09T15:14:07.000Z</time>
      </trkpt>
      <trkpt lat="44.42423" lon="6.86889">
        <ele>1927.5999755859</ele>
        <time>2022-03-09T15:14:08.000Z</time>
      </trkpt>
      <trkpt lat="44.42428" lon="6.86894">
        <ele>1926.5999755859</ele>
        <time>2022-03-09T15:14:10.000Z</time>
      </trkpt>
      <trkpt lat="44.42435" lon="6.86902">
        <ele>1925.8000488281</ele>
        <time>2022-03-09T15:14:13.000Z</time>
      </trkpt>
      <trkpt lat="44.42437" lon="6.86904">
        <ele>1925.1999511719</ele>
        <time>2022-03-09T15:14:14.000Z</time>
      </trkpt>
      <trkpt lat="44.42442" lon="6.86909">
        <ele>1924.4000244141</ele>
        <time>2022-03-09T15:14:15.000Z</time>
      </trkpt>
      <trkpt lat="44.42448" lon="6.86914">
        <ele>1923.5999755859</ele>
        <time>2022-03-09T15:14:16.000Z</time>
      </trkpt>
      <trkpt lat="44.42452" lon="6.86919">
        <ele>1923.1999511719</ele>
        <time>2022-03-09T15:14:17.000Z</time>
      </trkpt>
      <trkpt lat="44.42459" lon="6.86929">
        <ele>1922.5999755859</ele>
        <time>2022-03-09T15:14:19.000Z</time>
      </trkpt>
      <trkpt lat="44.42464" lon="6.86937">
        <ele>1922</ele>
        <time>2022-03-09T15:14:22.000Z</time>
      </trkpt>
      <trkpt lat="44.4247" lon="6.86948">
        <ele>1922</ele>
        <time>2022-03-09T15:14:27.000Z</time>
      </trkpt>
      <trkpt lat="44.42476" lon="6.8695">
        <ele>1921.4000244141</ele>
        <time>2022-03-09T15:14:30.000Z</time>
      </trkpt>
      <trkpt lat="44.4248" lon="6.86954">
        <ele>1920.4000244141</ele>
        <time>2022-03-09T15:14:34.000Z</time>
      </trkpt>
      <trkpt lat="44.42487" lon="6.8697">
        <ele>1919.4000244141</ele>
        <time>2022-03-09T15:14:40.000Z</time>
      </trkpt>
      <trkpt lat="44.42489" lon="6.86975">
        <ele>1918.8000488281</ele>
        <time>2022-03-09T15:14:42.000Z</time>
      </trkpt>
      <trkpt lat="44.42494" lon="6.86982">
        <ele>1918</ele>
        <time>2022-03-09T15:14:45.000Z</time>
      </trkpt>
      <trkpt lat="44.42499" lon="6.86987">
        <ele>1916.5999755859</ele>
        <time>2022-03-09T15:14:47.000Z</time>
      </trkpt>
      <trkpt lat="44.425" lon="6.86987">
        <ele>1916</ele>
        <time>2022-03-09T15:14:48.000Z</time>
      </trkpt>
      <trkpt lat="44.42503" lon="6.8699">
        <ele>1915.4000244141</ele>
        <time>2022-03-09T15:14:50.000Z</time>
      </trkpt>
      <trkpt lat="44.42506" lon="6.86993">
        <ele>1914.4000244141</ele>
        <time>2022-03-09T15:14:54.000Z</time>
      </trkpt>
      <trkpt lat="44.42506" lon="6.86994">
        <ele>1914.4000244141</ele>
        <time>2022-03-09T15:14:55.000Z</time>
      </trkpt>
      <trkpt lat="44.42508" lon="6.86999">
        <ele>1914</ele>
        <time>2022-03-09T15:14:58.000Z</time>
      </trkpt>
      <trkpt lat="44.4251" lon="6.87008">
        <ele>1913.5999755859</ele>
        <time>2022-03-09T15:15:01.000Z</time>
      </trkpt>
      <trkpt lat="44.4251" lon="6.87013">
        <ele>1913.1999511719</ele>
        <time>2022-03-09T15:15:02.000Z</time>
      </trkpt>
      <trkpt lat="44.42513" lon="6.87023">
        <ele>1912.8000488281</ele>
        <time>2022-03-09T15:15:05.000Z</time>
      </trkpt>
      <trkpt lat="44.42516" lon="6.87024">
        <ele>1912.4000244141</ele>
        <time>2022-03-09T15:15:07.000Z</time>
      </trkpt>
      <trkpt lat="44.42517" lon="6.87025">
        <ele>1912.1999511719</ele>
        <time>2022-03-09T15:15:08.000Z</time>
      </trkpt>
      <trkpt lat="44.42518" lon="6.87026">
        <ele>1912</ele>
        <time>2022-03-09T15:15:09.000Z</time>
      </trkpt>
      <trkpt lat="44.42521" lon="6.87029">
        <ele>1911.8000488281</ele>
        <time>2022-03-09T15:15:11.000Z</time>
      </trkpt>
      <trkpt lat="44.42523" lon="6.87031">
        <ele>1911</ele>
        <time>2022-03-09T15:15:13.000Z</time>
      </trkpt>
      <trkpt lat="44.42525" lon="6.87033">
        <ele>1910.4000244141</ele>
        <time>2022-03-09T15:15:15.000Z</time>
      </trkpt>
      <trkpt lat="44.42526" lon="6.87033">
        <ele>1910</ele>
        <time>2022-03-09T15:15:17.000Z</time>
      </trkpt>
      <trkpt lat="44.42527" lon="6.87033">
        <ele>1909.5999755859</ele>
        <time>2022-03-09T15:15:18.000Z</time>
      </trkpt>
      <trkpt lat="44.42529" lon="6.87037">
        <ele>1908.8000488281</ele>
        <time>2022-03-09T15:15:20.000Z</time>
      </trkpt>
      <trkpt lat="44.42531" lon="6.87041">
        <ele>1908.1999511719</ele>
        <time>2022-03-09T15:15:21.000Z</time>
      </trkpt>
      <trkpt lat="44.42532" lon="6.87044">
        <ele>1907.8000488281</ele>
        <time>2022-03-09T15:15:22.000Z</time>
      </trkpt>
      <trkpt lat="44.42534" lon="6.87056">
        <ele>1906.5999755859</ele>
        <time>2022-03-09T15:15:25.000Z</time>
      </trkpt>
      <trkpt lat="44.42535" lon="6.87066">
        <ele>1906</ele>
        <time>2022-03-09T15:15:27.000Z</time>
      </trkpt>
      <trkpt lat="44.42534" lon="6.87071">
        <ele>1905.4000244141</ele>
        <time>2022-03-09T15:15:28.000Z</time>
      </trkpt>
      <trkpt lat="44.42533" lon="6.87083">
        <ele>1904.1999511719</ele>
        <time>2022-03-09T15:15:30.000Z</time>
      </trkpt>
      <trkpt lat="44.42534" lon="6.87087">
        <ele>1903.8000488281</ele>
        <time>2022-03-09T15:15:31.000Z</time>
      </trkpt>
      <trkpt lat="44.42535" lon="6.8709">
        <ele>1903.5999755859</ele>
        <time>2022-03-09T15:15:32.000Z</time>
      </trkpt>
      <trkpt lat="44.42538" lon="6.8709">
        <ele>1903.1999511719</ele>
        <time>2022-03-09T15:15:34.000Z</time>
      </trkpt>
      <trkpt lat="44.42549" lon="6.87092">
        <ele>1902</ele>
        <time>2022-03-09T15:15:40.000Z</time>
      </trkpt>
      <trkpt lat="44.42555" lon="6.87092">
        <ele>1901.4000244141</ele>
        <time>2022-03-09T15:15:43.000Z</time>
      </trkpt>
      <trkpt lat="44.42555" lon="6.87092">
        <ele>1901.4000244141</ele>
        <time>2022-03-09T15:15:44.000Z</time>
      </trkpt>
      <trkpt lat="44.42557" lon="6.87096">
        <ele>1901.8000488281</ele>
        <time>2022-03-09T15:15:50.000Z</time>
      </trkpt>
      <trkpt lat="44.42559" lon="6.87103">
        <ele>1902.4000244141</ele>
        <time>2022-03-09T15:15:56.000Z</time>
      </trkpt>
      <trkpt lat="44.42561" lon="6.87107">
        <ele>1902.5999755859</ele>
        <time>2022-03-09T15:15:58.000Z</time>
      </trkpt>
      <trkpt lat="44.42566" lon="6.87116">
        <ele>1902.8000488281</ele>
        <time>2022-03-09T15:16:02.000Z</time>
      </trkpt>
      <trkpt lat="44.42569" lon="6.87119">
        <ele>1903</ele>
        <time>2022-03-09T15:16:05.000Z</time>
      </trkpt>
      <trkpt lat="44.42571" lon="6.87122">
        <ele>1903.1999511719</ele>
        <time>2022-03-09T15:16:08.000Z</time>
      </trkpt>
      <trkpt lat="44.42576" lon="6.87131">
        <ele>1903.1999511719</ele>
        <time>2022-03-09T15:16:13.000Z</time>
      </trkpt>
      <trkpt lat="44.42579" lon="6.87135">
        <ele>1903.1999511719</ele>
        <time>2022-03-09T15:16:19.000Z</time>
      </trkpt>
      <trkpt lat="44.42581" lon="6.87141">
        <ele>1903.1999511719</ele>
        <time>2022-03-09T15:16:26.000Z</time>
      </trkpt>
      <trkpt lat="44.42584" lon="6.87143">
        <ele>1903.5999755859</ele>
        <time>2022-03-09T15:16:34.000Z</time>
      </trkpt>
      <trkpt lat="44.42588" lon="6.87144">
        <ele>1904.1999511719</ele>
        <time>2022-03-09T15:16:42.000Z</time>
      </trkpt>
      <trkpt lat="44.42591" lon="6.87151">
        <ele>1904.4000244141</ele>
        <time>2022-03-09T15:16:51.000Z</time>
      </trkpt>
      <trkpt lat="44.42592" lon="6.87158">
        <ele>1905</ele>
        <time>2022-03-09T15:16:58.000Z</time>
      </trkpt>
      <trkpt lat="44.42591" lon="6.87162">
        <ele>1905</ele>
        <time>2022-03-09T15:17:04.000Z</time>
      </trkpt>
      <trkpt lat="44.4259" lon="6.87165">
        <ele>1905.1999511719</ele>
        <time>2022-03-09T15:17:07.000Z</time>
      </trkpt>
      <trkpt lat="44.42589" lon="6.8717">
        <ele>1905.1999511719</ele>
        <time>2022-03-09T15:17:12.000Z</time>
      </trkpt>
      <trkpt lat="44.42588" lon="6.87177">
        <ele>1905.4000244141</ele>
        <time>2022-03-09T15:17:18.000Z</time>
      </trkpt>
      <trkpt lat="44.42589" lon="6.8718">
        <ele>1905.4000244141</ele>
        <time>2022-03-09T15:17:20.000Z</time>
      </trkpt>
      <trkpt lat="44.42587" lon="6.87191">
        <ele>1904.5999755859</ele>
        <time>2022-03-09T15:17:25.000Z</time>
      </trkpt>
      <trkpt lat="44.42585" lon="6.87195">
        <ele>1904</ele>
        <time>2022-03-09T15:17:28.000Z</time>
      </trkpt>
      <trkpt lat="44.42578" lon="6.87203">
        <ele>1903.1999511719</ele>
        <time>2022-03-09T15:17:31.000Z</time>
      </trkpt>
      <trkpt lat="44.42577" lon="6.87204">
        <ele>1902.8000488281</ele>
        <time>2022-03-09T15:17:32.000Z</time>
      </trkpt>
      <trkpt lat="44.42572" lon="6.87209">
        <ele>1901.5999755859</ele>
        <time>2022-03-09T15:17:35.000Z</time>
      </trkpt>
      <trkpt lat="44.4257" lon="6.87211">
        <ele>1901</ele>
        <time>2022-03-09T15:17:36.000Z</time>
      </trkpt>
      <trkpt lat="44.42569" lon="6.87212">
        <ele>1900.5999755859</ele>
        <time>2022-03-09T15:17:37.000Z</time>
      </trkpt>
      <trkpt lat="44.4257" lon="6.87211">
        <ele>1900.1999511719</ele>
        <time>2022-03-09T15:17:38.000Z</time>
      </trkpt>
      <trkpt lat="44.42569" lon="6.87209">
        <ele>1898.4000244141</ele>
        <time>2022-03-09T15:17:40.000Z</time>
      </trkpt>
      <trkpt lat="44.4257" lon="6.87208">
        <ele>1897.8000488281</ele>
        <time>2022-03-09T15:17:42.000Z</time>
      </trkpt>
      <trkpt lat="44.42573" lon="6.87212">
        <ele>1897.4000244141</ele>
        <time>2022-03-09T15:17:45.000Z</time>
      </trkpt>
      <trkpt lat="44.42574" lon="6.87215">
        <ele>1897</ele>
        <time>2022-03-09T15:17:47.000Z</time>
      </trkpt>
      <trkpt lat="44.42575" lon="6.87216">
        <ele>1896.1999511719</ele>
        <time>2022-03-09T15:17:49.000Z</time>
      </trkpt>
      <trkpt lat="44.42575" lon="6.87221">
        <ele>1895</ele>
        <time>2022-03-09T15:17:53.000Z</time>
      </trkpt>
      <trkpt lat="44.42576" lon="6.87228">
        <ele>1894</ele>
        <time>2022-03-09T15:17:57.000Z</time>
      </trkpt>
      <trkpt lat="44.42576" lon="6.87229">
        <ele>1893.4000244141</ele>
        <time>2022-03-09T15:17:58.000Z</time>
      </trkpt>
      <trkpt lat="44.42577" lon="6.87229">
        <ele>1892.5999755859</ele>
        <time>2022-03-09T15:17:59.000Z</time>
      </trkpt>
      <trkpt lat="44.42578" lon="6.8723">
        <ele>1891.8000488281</ele>
        <time>2022-03-09T15:18:00.000Z</time>
      </trkpt>
      <trkpt lat="44.42578" lon="6.8723">
        <ele>1891.4000244141</ele>
        <time>2022-03-09T15:18:01.000Z</time>
      </trkpt>
      <trkpt lat="44.42581" lon="6.87227">
        <ele>1890.5999755859</ele>
        <time>2022-03-09T15:18:04.000Z</time>
      </trkpt>
      <trkpt lat="44.42584" lon="6.87224">
        <ele>1890.1999511719</ele>
        <time>2022-03-09T15:18:05.000Z</time>
      </trkpt>
      <trkpt lat="44.42587" lon="6.87222">
        <ele>1889.8000488281</ele>
        <time>2022-03-09T15:18:06.000Z</time>
      </trkpt>
      <trkpt lat="44.4259" lon="6.8722">
        <ele>1888.5999755859</ele>
        <time>2022-03-09T15:18:07.000Z</time>
      </trkpt>
      <trkpt lat="44.42594" lon="6.87219">
        <ele>1887.1999511719</ele>
        <time>2022-03-09T15:18:09.000Z</time>
      </trkpt>
      <trkpt lat="44.42596" lon="6.8722">
        <ele>1886.1999511719</ele>
        <time>2022-03-09T15:18:11.000Z</time>
      </trkpt>
      <trkpt lat="44.42598" lon="6.87223">
        <ele>1886</ele>
        <time>2022-03-09T15:18:12.000Z</time>
      </trkpt>
      <trkpt lat="44.42602" lon="6.87227">
        <ele>1885</ele>
        <time>2022-03-09T15:18:14.000Z</time>
      </trkpt>
      <trkpt lat="44.42603" lon="6.87228">
        <ele>1884.1999511719</ele>
        <time>2022-03-09T15:18:15.000Z</time>
      </trkpt>
      <trkpt lat="44.42604" lon="6.8723">
        <ele>1883.5999755859</ele>
        <time>2022-03-09T15:18:16.000Z</time>
      </trkpt>
      <trkpt lat="44.42605" lon="6.87232">
        <ele>1882.4000244141</ele>
        <time>2022-03-09T15:18:18.000Z</time>
      </trkpt>
      <trkpt lat="44.42608" lon="6.87231">
        <ele>1881.5999755859</ele>
        <time>2022-03-09T15:18:22.000Z</time>
      </trkpt>
      <trkpt lat="44.42609" lon="6.87231">
        <ele>1881.1999511719</ele>
        <time>2022-03-09T15:18:23.000Z</time>
      </trkpt>
      <trkpt lat="44.42613" lon="6.87232">
        <ele>1880</ele>
        <time>2022-03-09T15:18:25.000Z</time>
      </trkpt>
      <trkpt lat="44.42616" lon="6.87233">
        <ele>1879.1999511719</ele>
        <time>2022-03-09T15:18:26.000Z</time>
      </trkpt>
      <trkpt lat="44.42618" lon="6.87233">
        <ele>1878.4000244141</ele>
        <time>2022-03-09T15:18:27.000Z</time>
      </trkpt>
      <trkpt lat="44.42619" lon="6.87233">
        <ele>1877.1999511719</ele>
        <time>2022-03-09T15:18:29.000Z</time>
      </trkpt>
      <trkpt lat="44.42619" lon="6.87232">
        <ele>1876.1999511719</ele>
        <time>2022-03-09T15:18:31.000Z</time>
      </trkpt>
      <trkpt lat="44.42619" lon="6.87233">
        <ele>1875.4000244141</ele>
        <time>2022-03-09T15:18:37.000Z</time>
      </trkpt>
      <trkpt lat="44.42625" lon="6.87234">
        <ele>1874.8000488281</ele>
        <time>2022-03-09T15:18:42.000Z</time>
      </trkpt>
      <trkpt lat="44.42627" lon="6.87234">
        <ele>1873.8000488281</ele>
        <time>2022-03-09T15:18:43.000Z</time>
      </trkpt>
      <trkpt lat="44.42634" lon="6.87232">
        <ele>1872.4000244141</ele>
        <time>2022-03-09T15:18:45.000Z</time>
      </trkpt>
      <trkpt lat="44.42639" lon="6.87232">
        <ele>1871.4000244141</ele>
        <time>2022-03-09T15:18:46.000Z</time>
      </trkpt>
      <trkpt lat="44.42643" lon="6.87232">
        <ele>1870.4000244141</ele>
        <time>2022-03-09T15:18:47.000Z</time>
      </trkpt>
      <trkpt lat="44.42648" lon="6.87232">
        <ele>1869.4000244141</ele>
        <time>2022-03-09T15:18:48.000Z</time>
      </trkpt>
      <trkpt lat="44.42651" lon="6.8723">
        <ele>1868.5999755859</ele>
        <time>2022-03-09T15:18:49.000Z</time>
      </trkpt>
      <trkpt lat="44.42654" lon="6.87228">
        <ele>1867.8000488281</ele>
        <time>2022-03-09T15:18:50.000Z</time>
      </trkpt>
      <trkpt lat="44.42657" lon="6.87225">
        <ele>1867.4000244141</ele>
        <time>2022-03-09T15:18:51.000Z</time>
      </trkpt>
      <trkpt lat="44.42659" lon="6.87221">
        <ele>1866.8000488281</ele>
        <time>2022-03-09T15:18:52.000Z</time>
      </trkpt>
      <trkpt lat="44.42661" lon="6.87217">
        <ele>1866.1999511719</ele>
        <time>2022-03-09T15:18:53.000Z</time>
      </trkpt>
      <trkpt lat="44.42661" lon="6.87217">
        <ele>1865.4000244141</ele>
        <time>2022-03-09T15:18:54.000Z</time>
      </trkpt>
      <trkpt lat="44.42661" lon="6.87217">
        <ele>1864.8000488281</ele>
        <time>2022-03-09T15:18:55.000Z</time>
      </trkpt>
      <trkpt lat="44.4266" lon="6.87215">
        <ele>1864.1999511719</ele>
        <time>2022-03-09T15:18:56.000Z</time>
      </trkpt>
      <trkpt lat="44.4266" lon="6.87213">
        <ele>1864</ele>
        <time>2022-03-09T15:18:57.000Z</time>
      </trkpt>
      <trkpt lat="44.42662" lon="6.8721">
        <ele>1862.5999755859</ele>
        <time>2022-03-09T15:18:59.000Z</time>
      </trkpt>
      <trkpt lat="44.42664" lon="6.87207">
        <ele>1862</ele>
        <time>2022-03-09T15:19:01.000Z</time>
      </trkpt>
      <trkpt lat="44.42663" lon="6.87205">
        <ele>1861.5999755859</ele>
        <time>2022-03-09T15:19:06.000Z</time>
      </trkpt>
      <trkpt lat="44.42663" lon="6.87205">
        <ele>1861.5999755859</ele>
        <time>2022-03-09T15:19:10.000Z</time>
      </trkpt>
      <trkpt lat="44.42664" lon="6.87203">
        <ele>1861.5999755859</ele>
        <time>2022-03-09T15:19:33.000Z</time>
      </trkpt>
      <trkpt lat="44.42668" lon="6.87205">
        <ele>1860.5999755859</ele>
        <time>2022-03-09T15:19:35.000Z</time>
      </trkpt>
      <trkpt lat="44.42671" lon="6.87206">
        <ele>1860</ele>
        <time>2022-03-09T15:19:36.000Z</time>
      </trkpt>
      <trkpt lat="44.42677" lon="6.87206">
        <ele>1858.4000244141</ele>
        <time>2022-03-09T15:19:38.000Z</time>
      </trkpt>
      <trkpt lat="44.42681" lon="6.87206">
        <ele>1857.4000244141</ele>
        <time>2022-03-09T15:19:39.000Z</time>
      </trkpt>
      <trkpt lat="44.42684" lon="6.87207">
        <ele>1856.1999511719</ele>
        <time>2022-03-09T15:19:40.000Z</time>
      </trkpt>
      <trkpt lat="44.4269" lon="6.87211">
        <ele>1854.5999755859</ele>
        <time>2022-03-09T15:19:42.000Z</time>
      </trkpt>
      <trkpt lat="44.42692" lon="6.87212">
        <ele>1854</ele>
        <time>2022-03-09T15:19:43.000Z</time>
      </trkpt>
      <trkpt lat="44.42695" lon="6.87211">
        <ele>1853.1999511719</ele>
        <time>2022-03-09T15:19:45.000Z</time>
      </trkpt>
      <trkpt lat="44.42695" lon="6.87207">
        <ele>1851.8000488281</ele>
        <time>2022-03-09T15:19:48.000Z</time>
      </trkpt>
      <trkpt lat="44.42696" lon="6.87201">
        <ele>1851</ele>
        <time>2022-03-09T15:19:50.000Z</time>
      </trkpt>
      <trkpt lat="44.42698" lon="6.87198">
        <ele>1850.8000488281</ele>
        <time>2022-03-09T15:19:51.000Z</time>
      </trkpt>
      <trkpt lat="44.42701" lon="6.87195">
        <ele>1850</ele>
        <time>2022-03-09T15:19:52.000Z</time>
      </trkpt>
      <trkpt lat="44.42703" lon="6.87192">
        <ele>1848.8000488281</ele>
        <time>2022-03-09T15:19:54.000Z</time>
      </trkpt>
      <trkpt lat="44.42706" lon="6.87183">
        <ele>1847.1999511719</ele>
        <time>2022-03-09T15:19:57.000Z</time>
      </trkpt>
      <trkpt lat="44.42709" lon="6.87178">
        <ele>1846</ele>
        <time>2022-03-09T15:19:58.000Z</time>
      </trkpt>
      <trkpt lat="44.42711" lon="6.87177">
        <ele>1845</ele>
        <time>2022-03-09T15:19:59.000Z</time>
      </trkpt>
      <trkpt lat="44.42713" lon="6.87177">
        <ele>1844.1999511719</ele>
        <time>2022-03-09T15:20:00.000Z</time>
      </trkpt>
      <trkpt lat="44.42716" lon="6.87179">
        <ele>1843.8000488281</ele>
        <time>2022-03-09T15:20:01.000Z</time>
      </trkpt>
      <trkpt lat="44.42723" lon="6.87185">
        <ele>1843</ele>
        <time>2022-03-09T15:20:05.000Z</time>
      </trkpt>
      <trkpt lat="44.42725" lon="6.87186">
        <ele>1842.5999755859</ele>
        <time>2022-03-09T15:20:06.000Z</time>
      </trkpt>
      <trkpt lat="44.42726" lon="6.87187">
        <ele>1842.4000244141</ele>
        <time>2022-03-09T15:20:08.000Z</time>
      </trkpt>
      <trkpt lat="44.42729" lon="6.87191">
        <ele>1841.4000244141</ele>
        <time>2022-03-09T15:20:10.000Z</time>
      </trkpt>
      <trkpt lat="44.4273" lon="6.87191">
        <ele>1840.8000488281</ele>
        <time>2022-03-09T15:20:11.000Z</time>
      </trkpt>
      <trkpt lat="44.42733" lon="6.8719">
        <ele>1840</ele>
        <time>2022-03-09T15:20:13.000Z</time>
      </trkpt>
      <trkpt lat="44.42734" lon="6.87192">
        <ele>1839.8000488281</ele>
        <time>2022-03-09T15:20:14.000Z</time>
      </trkpt>
      <trkpt lat="44.42737" lon="6.87197">
        <ele>1838.4000244141</ele>
        <time>2022-03-09T15:20:16.000Z</time>
      </trkpt>
      <trkpt lat="44.42739" lon="6.872">
        <ele>1837.4000244141</ele>
        <time>2022-03-09T15:20:19.000Z</time>
      </trkpt>
      <trkpt lat="44.4274" lon="6.87201">
        <ele>1837.1999511719</ele>
        <time>2022-03-09T15:20:21.000Z</time>
      </trkpt>
      <trkpt lat="44.42744" lon="6.87203">
        <ele>1837.1999511719</ele>
        <time>2022-03-09T15:20:30.000Z</time>
      </trkpt>
      <trkpt lat="44.42749" lon="6.87209">
        <ele>1837.1999511719</ele>
        <time>2022-03-09T15:20:38.000Z</time>
      </trkpt>
      <trkpt lat="44.4275" lon="6.8721">
        <ele>1837</ele>
        <time>2022-03-09T15:20:47.000Z</time>
      </trkpt>
      <trkpt lat="44.42749" lon="6.8721">
        <ele>1836.8000488281</ele>
        <time>2022-03-09T15:21:00.000Z</time>
      </trkpt>
      <trkpt lat="44.42751" lon="6.87212">
        <ele>1836.5999755859</ele>
        <time>2022-03-09T15:22:29.000Z</time>
      </trkpt>
      <trkpt lat="44.42752" lon="6.87217">
        <ele>1835.8000488281</ele>
        <time>2022-03-09T15:22:33.000Z</time>
      </trkpt>
      <trkpt lat="44.42752" lon="6.87221">
        <ele>1834.8000488281</ele>
        <time>2022-03-09T15:22:34.000Z</time>
      </trkpt>
      <trkpt lat="44.42752" lon="6.87224">
        <ele>1833.5999755859</ele>
        <time>2022-03-09T15:22:35.000Z</time>
      </trkpt>
      <trkpt lat="44.42752" lon="6.87226">
        <ele>1833</ele>
        <time>2022-03-09T15:22:36.000Z</time>
      </trkpt>
      <trkpt lat="44.42753" lon="6.87227">
        <ele>1832.4000244141</ele>
        <time>2022-03-09T15:22:37.000Z</time>
      </trkpt>
      <trkpt lat="44.42756" lon="6.87229">
        <ele>1831.1999511719</ele>
        <time>2022-03-09T15:22:38.000Z</time>
      </trkpt>
      <trkpt lat="44.42758" lon="6.87231">
        <ele>1830</ele>
        <time>2022-03-09T15:22:39.000Z</time>
      </trkpt>
      <trkpt lat="44.4276" lon="6.87233">
        <ele>1828.4000244141</ele>
        <time>2022-03-09T15:22:40.000Z</time>
      </trkpt>
      <trkpt lat="44.42762" lon="6.87233">
        <ele>1827.4000244141</ele>
        <time>2022-03-09T15:22:41.000Z</time>
      </trkpt>
      <trkpt lat="44.42767" lon="6.87235">
        <ele>1826</ele>
        <time>2022-03-09T15:22:43.000Z</time>
      </trkpt>
      <trkpt lat="44.42767" lon="6.87239">
        <ele>1824.4000244141</ele>
        <time>2022-03-09T15:22:45.000Z</time>
      </trkpt>
      <trkpt lat="44.42768" lon="6.87244">
        <ele>1823.1999511719</ele>
        <time>2022-03-09T15:22:47.000Z</time>
      </trkpt>
      <trkpt lat="44.42767" lon="6.87245">
        <ele>1822.8000488281</ele>
        <time>2022-03-09T15:22:48.000Z</time>
      </trkpt>
      <trkpt lat="44.42768" lon="6.87248">
        <ele>1821.1999511719</ele>
        <time>2022-03-09T15:22:50.000Z</time>
      </trkpt>
      <trkpt lat="44.42771" lon="6.87253">
        <ele>1820</ele>
        <time>2022-03-09T15:22:52.000Z</time>
      </trkpt>
      <trkpt lat="44.42773" lon="6.87255">
        <ele>1818.8000488281</ele>
        <time>2022-03-09T15:22:55.000Z</time>
      </trkpt>
      <trkpt lat="44.42773" lon="6.87262">
        <ele>1818.4000244141</ele>
        <time>2022-03-09T15:23:08.000Z</time>
      </trkpt>
      <trkpt lat="44.42773" lon="6.87266">
        <ele>1818.5999755859</ele>
        <time>2022-03-09T15:23:14.000Z</time>
      </trkpt>
      <trkpt lat="44.42768" lon="6.87271">
        <ele>1818.5999755859</ele>
        <time>2022-03-09T15:23:22.000Z</time>
      </trkpt>
      <trkpt lat="44.42766" lon="6.87271">
        <ele>1818.8000488281</ele>
        <time>2022-03-09T15:23:24.000Z</time>
      </trkpt>
      <trkpt lat="44.42763" lon="6.87273">
        <ele>1818.5999755859</ele>
        <time>2022-03-09T15:23:28.000Z</time>
      </trkpt>
      <trkpt lat="44.42762" lon="6.87276">
        <ele>1818.4000244141</ele>
        <time>2022-03-09T15:23:32.000Z</time>
      </trkpt>
      <trkpt lat="44.4276" lon="6.87282">
        <ele>1818.4000244141</ele>
        <time>2022-03-09T15:23:35.000Z</time>
      </trkpt>
      <trkpt lat="44.42758" lon="6.87288">
        <ele>1818.4000244141</ele>
        <time>2022-03-09T15:23:40.000Z</time>
      </trkpt>
      <trkpt lat="44.42757" lon="6.8729">
        <ele>1818.1999511719</ele>
        <time>2022-03-09T15:23:42.000Z</time>
      </trkpt>
      <trkpt lat="44.42756" lon="6.87292">
        <ele>1818</ele>
        <time>2022-03-09T15:23:45.000Z</time>
      </trkpt>
      <trkpt lat="44.42753" lon="6.87295">
        <ele>1818.5999755859</ele>
        <time>2022-03-09T15:23:51.000Z</time>
      </trkpt>
      <trkpt lat="44.42752" lon="6.87297">
        <ele>1818.4000244141</ele>
        <time>2022-03-09T15:23:53.000Z</time>
      </trkpt>
      <trkpt lat="44.4275" lon="6.873">
        <ele>1818.4000244141</ele>
        <time>2022-03-09T15:23:56.000Z</time>
      </trkpt>
      <trkpt lat="44.4275" lon="6.87303">
        <ele>1818.1999511719</ele>
        <time>2022-03-09T15:23:58.000Z</time>
      </trkpt>
      <trkpt lat="44.42752" lon="6.87309">
        <ele>1818</ele>
        <time>2022-03-09T15:24:01.000Z</time>
      </trkpt>
      <trkpt lat="44.42752" lon="6.87312">
        <ele>1817.8000488281</ele>
        <time>2022-03-09T15:24:03.000Z</time>
      </trkpt>
      <trkpt lat="44.42751" lon="6.87314">
        <ele>1817.8000488281</ele>
        <time>2022-03-09T15:24:06.000Z</time>
      </trkpt>
      <trkpt lat="44.42755" lon="6.87323">
        <ele>1817</ele>
        <time>2022-03-09T15:24:13.000Z</time>
      </trkpt>
      <trkpt lat="44.42755" lon="6.87325">
        <ele>1816.8000488281</ele>
        <time>2022-03-09T15:24:14.000Z</time>
      </trkpt>
      <trkpt lat="44.42756" lon="6.87331">
        <ele>1816.1999511719</ele>
        <time>2022-03-09T15:24:20.000Z</time>
      </trkpt>
      <trkpt lat="44.42755" lon="6.87336">
        <ele>1816</ele>
        <time>2022-03-09T15:24:27.000Z</time>
      </trkpt>
      <trkpt lat="44.42756" lon="6.87336">
        <ele>1815.8000488281</ele>
        <time>2022-03-09T15:24:28.000Z</time>
      </trkpt>
      <trkpt lat="44.42758" lon="6.87336">
        <ele>1815.4000244141</ele>
        <time>2022-03-09T15:24:29.000Z</time>
      </trkpt>
      <trkpt lat="44.42759" lon="6.87336">
        <ele>1815</ele>
        <time>2022-03-09T15:24:34.000Z</time>
      </trkpt>
      <trkpt lat="44.42763" lon="6.87337">
        <ele>1815</ele>
        <time>2022-03-09T15:24:38.000Z</time>
      </trkpt>
      <trkpt lat="44.42764" lon="6.87339">
        <ele>1814.8000488281</ele>
        <time>2022-03-09T15:24:39.000Z</time>
      </trkpt>
      <trkpt lat="44.42767" lon="6.87348">
        <ele>1814.1999511719</ele>
        <time>2022-03-09T15:24:44.000Z</time>
      </trkpt>
      <trkpt lat="44.42767" lon="6.8735">
        <ele>1814.1999511719</ele>
        <time>2022-03-09T15:24:45.000Z</time>
      </trkpt>
      <trkpt lat="44.42769" lon="6.87357">
        <ele>1813.1999511719</ele>
        <time>2022-03-09T15:24:49.000Z</time>
      </trkpt>
      <trkpt lat="44.4277" lon="6.87358">
        <ele>1813</ele>
        <time>2022-03-09T15:24:50.000Z</time>
      </trkpt>
      <trkpt lat="44.42772" lon="6.87362">
        <ele>1813</ele>
        <time>2022-03-09T15:24:55.000Z</time>
      </trkpt>
      <trkpt lat="44.42776" lon="6.87367">
        <ele>1813.1999511719</ele>
        <time>2022-03-09T15:25:01.000Z</time>
      </trkpt>
      <trkpt lat="44.42783" lon="6.87374">
        <ele>1813.1999511719</ele>
        <time>2022-03-09T15:25:04.000Z</time>
      </trkpt>
      <trkpt lat="44.42787" lon="6.87383">
        <ele>1812</ele>
        <time>2022-03-09T15:25:06.000Z</time>
      </trkpt>
      <trkpt lat="44.4279" lon="6.87389">
        <ele>1811</ele>
        <time>2022-03-09T15:25:08.000Z</time>
      </trkpt>
      <trkpt lat="44.42791" lon="6.87388">
        <ele>1810.8000488281</ele>
        <time>2022-03-09T15:25:09.000Z</time>
      </trkpt>
      <trkpt lat="44.42794" lon="6.87388">
        <ele>1810</ele>
        <time>2022-03-09T15:25:10.000Z</time>
      </trkpt>
      <trkpt lat="44.42797" lon="6.8739">
        <ele>1809.1999511719</ele>
        <time>2022-03-09T15:25:11.000Z</time>
      </trkpt>
      <trkpt lat="44.42803" lon="6.87399">
        <ele>1807.1999511719</ele>
        <time>2022-03-09T15:25:13.000Z</time>
      </trkpt>
      <trkpt lat="44.42808" lon="6.87411">
        <ele>1806</ele>
        <time>2022-03-09T15:25:15.000Z</time>
      </trkpt>
      <trkpt lat="44.4281" lon="6.8742">
        <ele>1804.4000244141</ele>
        <time>2022-03-09T15:25:17.000Z</time>
      </trkpt>
      <trkpt lat="44.42811" lon="6.87421">
        <ele>1804</ele>
        <time>2022-03-09T15:25:18.000Z</time>
      </trkpt>
      <trkpt lat="44.42814" lon="6.87421">
        <ele>1803.1999511719</ele>
        <time>2022-03-09T15:25:19.000Z</time>
      </trkpt>
      <trkpt lat="44.42817" lon="6.87422">
        <ele>1802.4000244141</ele>
        <time>2022-03-09T15:25:20.000Z</time>
      </trkpt>
      <trkpt lat="44.4282" lon="6.87426">
        <ele>1801.1999511719</ele>
        <time>2022-03-09T15:25:21.000Z</time>
      </trkpt>
      <trkpt lat="44.42824" lon="6.87436">
        <ele>1800</ele>
        <time>2022-03-09T15:25:22.000Z</time>
      </trkpt>
      <trkpt lat="44.42824" lon="6.87436">
        <ele>1799.1999511719</ele>
        <time>2022-03-09T15:25:23.000Z</time>
      </trkpt>
      <trkpt lat="44.42826" lon="6.8744">
        <ele>1798.8000488281</ele>
        <time>2022-03-09T15:25:24.000Z</time>
      </trkpt>
      <trkpt lat="44.42828" lon="6.87455">
        <ele>1798</ele>
        <time>2022-03-09T15:25:27.000Z</time>
      </trkpt>
      <trkpt lat="44.42828" lon="6.87462">
        <ele>1797.5999755859</ele>
        <time>2022-03-09T15:25:28.000Z</time>
      </trkpt>
      <trkpt lat="44.42827" lon="6.87477">
        <ele>1796</ele>
        <time>2022-03-09T15:25:30.000Z</time>
      </trkpt>
      <trkpt lat="44.42826" lon="6.87483">
        <ele>1795.5999755859</ele>
        <time>2022-03-09T15:25:31.000Z</time>
      </trkpt>
      <trkpt lat="44.42826" lon="6.87493">
        <ele>1795.1999511719</ele>
        <time>2022-03-09T15:25:34.000Z</time>
      </trkpt>
      <trkpt lat="44.42827" lon="6.87497">
        <ele>1795.4000244141</ele>
        <time>2022-03-09T15:25:39.000Z</time>
      </trkpt>
      <trkpt lat="44.42826" lon="6.87505">
        <ele>1795.4000244141</ele>
        <time>2022-03-09T15:25:46.000Z</time>
      </trkpt>
      <trkpt lat="44.42826" lon="6.87507">
        <ele>1795.8000488281</ele>
        <time>2022-03-09T15:25:51.000Z</time>
      </trkpt>
      <trkpt lat="44.42826" lon="6.87511">
        <ele>1796</ele>
        <time>2022-03-09T15:25:59.000Z</time>
      </trkpt>
      <trkpt lat="44.42824" lon="6.87514">
        <ele>1796</ele>
        <time>2022-03-09T15:26:06.000Z</time>
      </trkpt>
      <trkpt lat="44.42821" lon="6.8752">
        <ele>1795.8000488281</ele>
        <time>2022-03-09T15:27:41.000Z</time>
      </trkpt>
      <trkpt lat="44.42823" lon="6.87518">
        <ele>1796.1999511719</ele>
        <time>2022-03-09T15:29:46.000Z</time>
      </trkpt>
      <trkpt lat="44.42823" lon="6.87522">
        <ele>1797</ele>
        <time>2022-03-09T15:30:35.000Z</time>
      </trkpt>
      <trkpt lat="44.42822" lon="6.87524">
        <ele>1797.1999511719</ele>
        <time>2022-03-09T15:30:37.000Z</time>
      </trkpt>
      <trkpt lat="44.42822" lon="6.87525">
        <ele>1797.4000244141</ele>
        <time>2022-03-09T15:30:38.000Z</time>
      </trkpt>
      <trkpt lat="44.42823" lon="6.8753">
        <ele>1798</ele>
        <time>2022-03-09T15:30:42.000Z</time>
      </trkpt>
      <trkpt lat="44.42824" lon="6.87533">
        <ele>1798.4000244141</ele>
        <time>2022-03-09T15:30:45.000Z</time>
      </trkpt>
      <trkpt lat="44.42826" lon="6.87537">
        <ele>1798.8000488281</ele>
        <time>2022-03-09T15:30:50.000Z</time>
      </trkpt>
      <trkpt lat="44.42826" lon="6.87539">
        <ele>1799</ele>
        <time>2022-03-09T15:30:51.000Z</time>
      </trkpt>
      <trkpt lat="44.42824" lon="6.87545">
        <ele>1799.4000244141</ele>
        <time>2022-03-09T15:30:55.000Z</time>
      </trkpt>
      <trkpt lat="44.42822" lon="6.87546">
        <ele>1799.5999755859</ele>
        <time>2022-03-09T15:30:57.000Z</time>
      </trkpt>
      <trkpt lat="44.42821" lon="6.87553">
        <ele>1800.1999511719</ele>
        <time>2022-03-09T15:31:03.000Z</time>
      </trkpt>
      <trkpt lat="44.42821" lon="6.87556">
        <ele>1800.4000244141</ele>
        <time>2022-03-09T15:31:05.000Z</time>
      </trkpt>
      <trkpt lat="44.42819" lon="6.87559">
        <ele>1800.8000488281</ele>
        <time>2022-03-09T15:31:08.000Z</time>
      </trkpt>
      <trkpt lat="44.42819" lon="6.87562">
        <ele>1801</ele>
        <time>2022-03-09T15:31:10.000Z</time>
      </trkpt>
      <trkpt lat="44.42818" lon="6.87564">
        <ele>1801.1999511719</ele>
        <time>2022-03-09T15:31:12.000Z</time>
      </trkpt>
      <trkpt lat="44.42817" lon="6.87566">
        <ele>1801.5999755859</ele>
        <time>2022-03-09T15:31:14.000Z</time>
      </trkpt>
      <trkpt lat="44.42814" lon="6.87568">
        <ele>1801.8000488281</ele>
        <time>2022-03-09T15:31:18.000Z</time>
      </trkpt>
      <trkpt lat="44.42813" lon="6.87569">
        <ele>1801.8000488281</ele>
        <time>2022-03-09T15:31:19.000Z</time>
      </trkpt>
      <trkpt lat="44.42809" lon="6.87576">
        <ele>1802.4000244141</ele>
        <time>2022-03-09T15:31:27.000Z</time>
      </trkpt>
      <trkpt lat="44.42807" lon="6.87579">
        <ele>1802.4000244141</ele>
        <time>2022-03-09T15:31:29.000Z</time>
      </trkpt>
      <trkpt lat="44.42807" lon="6.87581">
        <ele>1802.5999755859</ele>
        <time>2022-03-09T15:31:31.000Z</time>
      </trkpt>
      <trkpt lat="44.42805" lon="6.87589">
        <ele>1803</ele>
        <time>2022-03-09T15:31:37.000Z</time>
      </trkpt>
      <trkpt lat="44.42805" lon="6.87593">
        <ele>1803.1999511719</ele>
        <time>2022-03-09T15:31:40.000Z</time>
      </trkpt>
      <trkpt lat="44.42805" lon="6.87595">
        <ele>1803.1999511719</ele>
        <time>2022-03-09T15:31:41.000Z</time>
      </trkpt>
      <trkpt lat="44.42803" lon="6.87599">
        <ele>1803.5999755859</ele>
        <time>2022-03-09T15:31:44.000Z</time>
      </trkpt>
      <trkpt lat="44.42803" lon="6.876">
        <ele>1803.5999755859</ele>
        <time>2022-03-09T15:31:45.000Z</time>
      </trkpt>
      <trkpt lat="44.42798" lon="6.87604">
        <ele>1804</ele>
        <time>2022-03-09T15:31:48.000Z</time>
      </trkpt>
      <trkpt lat="44.42788" lon="6.87615">
        <ele>1804.1999511719</ele>
        <time>2022-03-09T15:31:58.000Z</time>
      </trkpt>
      <trkpt lat="44.42787" lon="6.87617">
        <ele>1804.1999511719</ele>
        <time>2022-03-09T15:31:59.000Z</time>
      </trkpt>
      <trkpt lat="44.42784" lon="6.87624">
        <ele>1804.1999511719</ele>
        <time>2022-03-09T15:32:05.000Z</time>
      </trkpt>
      <trkpt lat="44.42776" lon="6.87636">
        <ele>1804.5999755859</ele>
        <time>2022-03-09T15:32:15.000Z</time>
      </trkpt>
      <trkpt lat="44.42775" lon="6.87637">
        <ele>1805</ele>
        <time>2022-03-09T15:32:16.000Z</time>
      </trkpt>
      <trkpt lat="44.4277" lon="6.87645">
        <ele>1805.5999755859</ele>
        <time>2022-03-09T15:32:22.000Z</time>
      </trkpt>
      <trkpt lat="44.42769" lon="6.87649">
        <ele>1806</ele>
        <time>2022-03-09T15:32:25.000Z</time>
      </trkpt>
      <trkpt lat="44.42768" lon="6.87653">
        <ele>1806.4000244141</ele>
        <time>2022-03-09T15:32:28.000Z</time>
      </trkpt>
      <trkpt lat="44.42768" lon="6.87654">
        <ele>1806.5999755859</ele>
        <time>2022-03-09T15:32:29.000Z</time>
      </trkpt>
      <trkpt lat="44.42762" lon="6.87664">
        <ele>1807</ele>
        <time>2022-03-09T15:32:37.000Z</time>
      </trkpt>
      <trkpt lat="44.42762" lon="6.87665">
        <ele>1807.1999511719</ele>
        <time>2022-03-09T15:32:38.000Z</time>
      </trkpt>
      <trkpt lat="44.42759" lon="6.87676">
        <ele>1807.5999755859</ele>
        <time>2022-03-09T15:32:46.000Z</time>
      </trkpt>
      <trkpt lat="44.42757" lon="6.87682">
        <ele>1807.8000488281</ele>
        <time>2022-03-09T15:32:51.000Z</time>
      </trkpt>
      <trkpt lat="44.42755" lon="6.87686">
        <ele>1808</ele>
        <time>2022-03-09T15:32:54.000Z</time>
      </trkpt>
      <trkpt lat="44.42754" lon="6.87689">
        <ele>1808.1999511719</ele>
        <time>2022-03-09T15:32:56.000Z</time>
      </trkpt>
      <trkpt lat="44.42749" lon="6.87697">
        <ele>1808.4000244141</ele>
        <time>2022-03-09T15:33:03.000Z</time>
      </trkpt>
      <trkpt lat="44.42739" lon="6.87707">
        <ele>1809.1999511719</ele>
        <time>2022-03-09T15:33:12.000Z</time>
      </trkpt>
      <trkpt lat="44.42739" lon="6.87709">
        <ele>1809.1999511719</ele>
        <time>2022-03-09T15:33:13.000Z</time>
      </trkpt>
      <trkpt lat="44.42736" lon="6.87713">
        <ele>1809.4000244141</ele>
        <time>2022-03-09T15:33:17.000Z</time>
      </trkpt>
      <trkpt lat="44.42736" lon="6.87715">
        <ele>1809.5999755859</ele>
        <time>2022-03-09T15:33:18.000Z</time>
      </trkpt>
      <trkpt lat="44.42735" lon="6.87717">
        <ele>1809.8000488281</ele>
        <time>2022-03-09T15:33:20.000Z</time>
      </trkpt>
      <trkpt lat="44.42732" lon="6.87725">
        <ele>1810.1999511719</ele>
        <time>2022-03-09T15:33:26.000Z</time>
      </trkpt>
      <trkpt lat="44.4273" lon="6.87729">
        <ele>1810.5999755859</ele>
        <time>2022-03-09T15:33:29.000Z</time>
      </trkpt>
      <trkpt lat="44.42725" lon="6.87739">
        <ele>1811.1999511719</ele>
        <time>2022-03-09T15:33:37.000Z</time>
      </trkpt>
      <trkpt lat="44.42724" lon="6.87741">
        <ele>1811.5999755859</ele>
        <time>2022-03-09T15:33:39.000Z</time>
      </trkpt>
      <trkpt lat="44.4272" lon="6.87749">
        <ele>1812.1999511719</ele>
        <time>2022-03-09T15:33:46.000Z</time>
      </trkpt>
      <trkpt lat="44.4272" lon="6.8775">
        <ele>1812.4000244141</ele>
        <time>2022-03-09T15:33:47.000Z</time>
      </trkpt>
      <trkpt lat="44.42719" lon="6.87759">
        <ele>1813.4000244141</ele>
        <time>2022-03-09T15:33:54.000Z</time>
      </trkpt>
      <trkpt lat="44.4272" lon="6.87761">
        <ele>1813.5999755859</ele>
        <time>2022-03-09T15:33:55.000Z</time>
      </trkpt>
      <trkpt lat="44.42719" lon="6.87767">
        <ele>1814.1999511719</ele>
        <time>2022-03-09T15:34:01.000Z</time>
      </trkpt>
      <trkpt lat="44.42718" lon="6.87768">
        <ele>1814.5999755859</ele>
        <time>2022-03-09T15:34:02.000Z</time>
      </trkpt>
      <trkpt lat="44.42716" lon="6.87772">
        <ele>1815.1999511719</ele>
        <time>2022-03-09T15:34:06.000Z</time>
      </trkpt>
      <trkpt lat="44.42714" lon="6.87776">
        <ele>1815.4000244141</ele>
        <time>2022-03-09T15:34:09.000Z</time>
      </trkpt>
      <trkpt lat="44.42713" lon="6.87777">
        <ele>1815.5999755859</ele>
        <time>2022-03-09T15:34:10.000Z</time>
      </trkpt>
      <trkpt lat="44.42712" lon="6.8778">
        <ele>1815.8000488281</ele>
        <time>2022-03-09T15:34:12.000Z</time>
      </trkpt>
      <trkpt lat="44.42712" lon="6.87783">
        <ele>1816.1999511719</ele>
        <time>2022-03-09T15:34:15.000Z</time>
      </trkpt>
      <trkpt lat="44.42711" lon="6.87784">
        <ele>1816.4000244141</ele>
        <time>2022-03-09T15:34:16.000Z</time>
      </trkpt>
      <trkpt lat="44.4271" lon="6.87785">
        <ele>1816.8000488281</ele>
        <time>2022-03-09T15:34:17.000Z</time>
      </trkpt>
      <trkpt lat="44.42704" lon="6.8779">
        <ele>1817.5999755859</ele>
        <time>2022-03-09T15:34:23.000Z</time>
      </trkpt>
      <trkpt lat="44.42702" lon="6.87792">
        <ele>1817.5999755859</ele>
        <time>2022-03-09T15:34:24.000Z</time>
      </trkpt>
      <trkpt lat="44.42701" lon="6.87793">
        <ele>1818</ele>
        <time>2022-03-09T15:34:26.000Z</time>
      </trkpt>
      <trkpt lat="44.427" lon="6.87798">
        <ele>1818.4000244141</ele>
        <time>2022-03-09T15:34:30.000Z</time>
      </trkpt>
      <trkpt lat="44.42699" lon="6.87806">
        <ele>1819.1999511719</ele>
        <time>2022-03-09T15:34:36.000Z</time>
      </trkpt>
      <trkpt lat="44.42699" lon="6.87807">
        <ele>1819.4000244141</ele>
        <time>2022-03-09T15:34:37.000Z</time>
      </trkpt>
      <trkpt lat="44.42696" lon="6.87815">
        <ele>1820.1999511719</ele>
        <time>2022-03-09T15:34:45.000Z</time>
      </trkpt>
      <trkpt lat="44.42695" lon="6.87817">
        <ele>1820.1999511719</ele>
        <time>2022-03-09T15:34:46.000Z</time>
      </trkpt>
      <trkpt lat="44.42685" lon="6.87825">
        <ele>1821.4000244141</ele>
        <time>2022-03-09T15:34:54.000Z</time>
      </trkpt>
      <trkpt lat="44.4268" lon="6.87832">
        <ele>1822</ele>
        <time>2022-03-09T15:35:01.000Z</time>
      </trkpt>
      <trkpt lat="44.42676" lon="6.87835">
        <ele>1822.5999755859</ele>
        <time>2022-03-09T15:35:06.000Z</time>
      </trkpt>
      <trkpt lat="44.42672" lon="6.8784">
        <ele>1823.1999511719</ele>
        <time>2022-03-09T15:35:11.000Z</time>
      </trkpt>
      <trkpt lat="44.42672" lon="6.87842">
        <ele>1823.4000244141</ele>
        <time>2022-03-09T15:35:13.000Z</time>
      </trkpt>
      <trkpt lat="44.42672" lon="6.87844">
        <ele>1823.8000488281</ele>
        <time>2022-03-09T15:35:15.000Z</time>
      </trkpt>
      <trkpt lat="44.4267" lon="6.87847">
        <ele>1824.4000244141</ele>
        <time>2022-03-09T15:35:18.000Z</time>
      </trkpt>
      <trkpt lat="44.42668" lon="6.87851">
        <ele>1825</ele>
        <time>2022-03-09T15:35:22.000Z</time>
      </trkpt>
      <trkpt lat="44.42667" lon="6.87856">
        <ele>1825.4000244141</ele>
        <time>2022-03-09T15:35:26.000Z</time>
      </trkpt>
      <trkpt lat="44.42665" lon="6.87862">
        <ele>1826</ele>
        <time>2022-03-09T15:35:31.000Z</time>
      </trkpt>
      <trkpt lat="44.42664" lon="6.87864">
        <ele>1826.8000488281</ele>
        <time>2022-03-09T15:35:34.000Z</time>
      </trkpt>
      <trkpt lat="44.42662" lon="6.87869">
        <ele>1827.1999511719</ele>
        <time>2022-03-09T15:35:38.000Z</time>
      </trkpt>
      <trkpt lat="44.4266" lon="6.87872">
        <ele>1827.4000244141</ele>
        <time>2022-03-09T15:35:41.000Z</time>
      </trkpt>
      <trkpt lat="44.42655" lon="6.87882">
        <ele>1828.4000244141</ele>
        <time>2022-03-09T15:35:48.000Z</time>
      </trkpt>
      <trkpt lat="44.42655" lon="6.87883">
        <ele>1828.5999755859</ele>
        <time>2022-03-09T15:35:49.000Z</time>
      </trkpt>
      <trkpt lat="44.42651" lon="6.87892">
        <ele>1829.4000244141</ele>
        <time>2022-03-09T15:35:57.000Z</time>
      </trkpt>
      <trkpt lat="44.42651" lon="6.87893">
        <ele>1829.5999755859</ele>
        <time>2022-03-09T15:35:58.000Z</time>
      </trkpt>
      <trkpt lat="44.42649" lon="6.87902">
        <ele>1830.1999511719</ele>
        <time>2022-03-09T15:36:06.000Z</time>
      </trkpt>
      <trkpt lat="44.42648" lon="6.87904">
        <ele>1830.5999755859</ele>
        <time>2022-03-09T15:36:09.000Z</time>
      </trkpt>
      <trkpt lat="44.42645" lon="6.87909">
        <ele>1831.1999511719</ele>
        <time>2022-03-09T15:36:13.000Z</time>
      </trkpt>
      <trkpt lat="44.42645" lon="6.87917">
        <ele>1831.8000488281</ele>
        <time>2022-03-09T15:36:18.000Z</time>
      </trkpt>
      <trkpt lat="44.42646" lon="6.8792">
        <ele>1832</ele>
        <time>2022-03-09T15:36:20.000Z</time>
      </trkpt>
      <trkpt lat="44.42647" lon="6.87925">
        <ele>1832.1999511719</ele>
        <time>2022-03-09T15:36:23.000Z</time>
      </trkpt>
      <trkpt lat="44.42648" lon="6.87929">
        <ele>1832.8000488281</ele>
        <time>2022-03-09T15:36:27.000Z</time>
      </trkpt>
      <trkpt lat="44.42648" lon="6.87931">
        <ele>1833</ele>
        <time>2022-03-09T15:36:28.000Z</time>
      </trkpt>
      <trkpt lat="44.42648" lon="6.87933">
        <ele>1833.1999511719</ele>
        <time>2022-03-09T15:36:30.000Z</time>
      </trkpt>
      <trkpt lat="44.42647" lon="6.87935">
        <ele>1833.1999511719</ele>
        <time>2022-03-09T15:36:31.000Z</time>
      </trkpt>
      <trkpt lat="44.42645" lon="6.87937">
        <ele>1833.8000488281</ele>
        <time>2022-03-09T15:36:35.000Z</time>
      </trkpt>
      <trkpt lat="44.42645" lon="6.87938">
        <ele>1834</ele>
        <time>2022-03-09T15:36:36.000Z</time>
      </trkpt>
      <trkpt lat="44.42645" lon="6.87952">
        <ele>1835</ele>
        <time>2022-03-09T15:36:44.000Z</time>
      </trkpt>
      <trkpt lat="44.42646" lon="6.87954">
        <ele>1835</ele>
        <time>2022-03-09T15:36:45.000Z</time>
      </trkpt>
      <trkpt lat="44.42644" lon="6.87958">
        <ele>1835.4000244141</ele>
        <time>2022-03-09T15:36:48.000Z</time>
      </trkpt>
      <trkpt lat="44.42643" lon="6.87965">
        <ele>1835.8000488281</ele>
        <time>2022-03-09T15:36:52.000Z</time>
      </trkpt>
      <trkpt lat="44.42642" lon="6.87968">
        <ele>1836</ele>
        <time>2022-03-09T15:36:54.000Z</time>
      </trkpt>
      <trkpt lat="44.4264" lon="6.87976">
        <ele>1836.8000488281</ele>
        <time>2022-03-09T15:37:00.000Z</time>
      </trkpt>
      <trkpt lat="44.42638" lon="6.87981">
        <ele>1837.1999511719</ele>
        <time>2022-03-09T15:37:03.000Z</time>
      </trkpt>
      <trkpt lat="44.42637" lon="6.87991">
        <ele>1837.5999755859</ele>
        <time>2022-03-09T15:37:09.000Z</time>
      </trkpt>
      <trkpt lat="44.42637" lon="6.87995">
        <ele>1837.8000488281</ele>
        <time>2022-03-09T15:37:11.000Z</time>
      </trkpt>
      <trkpt lat="44.42635" lon="6.88">
        <ele>1838</ele>
        <time>2022-03-09T15:37:14.000Z</time>
      </trkpt>
      <trkpt lat="44.42631" lon="6.88004">
        <ele>1838.1999511719</ele>
        <time>2022-03-09T15:37:17.000Z</time>
      </trkpt>
      <trkpt lat="44.42631" lon="6.88007">
        <ele>1838.5999755859</ele>
        <time>2022-03-09T15:37:20.000Z</time>
      </trkpt>
      <trkpt lat="44.42625" lon="6.88016">
        <ele>1838.5999755859</ele>
        <time>2022-03-09T15:37:27.000Z</time>
      </trkpt>
      <trkpt lat="44.42622" lon="6.88021">
        <ele>1838.8000488281</ele>
        <time>2022-03-09T15:37:31.000Z</time>
      </trkpt>
      <trkpt lat="44.42621" lon="6.88023">
        <ele>1839</ele>
        <time>2022-03-09T15:37:33.000Z</time>
      </trkpt>
      <trkpt lat="44.42618" lon="6.88027">
        <ele>1839.4000244141</ele>
        <time>2022-03-09T15:37:37.000Z</time>
      </trkpt>
      <trkpt lat="44.42617" lon="6.88029">
        <ele>1839.4000244141</ele>
        <time>2022-03-09T15:37:38.000Z</time>
      </trkpt>
      <trkpt lat="44.42615" lon="6.88033">
        <ele>1839.5999755859</ele>
        <time>2022-03-09T15:37:41.000Z</time>
      </trkpt>
      <trkpt lat="44.42615" lon="6.88036">
        <ele>1840</ele>
        <time>2022-03-09T15:37:43.000Z</time>
      </trkpt>
      <trkpt lat="44.42615" lon="6.88038">
        <ele>1840.4000244141</ele>
        <time>2022-03-09T15:37:45.000Z</time>
      </trkpt>
      <trkpt lat="44.42614" lon="6.88041">
        <ele>1840.4000244141</ele>
        <time>2022-03-09T15:37:47.000Z</time>
      </trkpt>
      <trkpt lat="44.42613" lon="6.88047">
        <ele>1840.8000488281</ele>
        <time>2022-03-09T15:37:51.000Z</time>
      </trkpt>
      <trkpt lat="44.42612" lon="6.88053">
        <ele>1841.4000244141</ele>
        <time>2022-03-09T15:37:56.000Z</time>
      </trkpt>
      <trkpt lat="44.42612" lon="6.88055">
        <ele>1841.5999755859</ele>
        <time>2022-03-09T15:37:57.000Z</time>
      </trkpt>
      <trkpt lat="44.42609" lon="6.88059">
        <ele>1842</ele>
        <time>2022-03-09T15:38:02.000Z</time>
      </trkpt>
      <trkpt lat="44.42609" lon="6.88061">
        <ele>1842.1999511719</ele>
        <time>2022-03-09T15:38:04.000Z</time>
      </trkpt>
      <trkpt lat="44.42607" lon="6.88065">
        <ele>1842.4000244141</ele>
        <time>2022-03-09T15:38:09.000Z</time>
      </trkpt>
      <trkpt lat="44.42603" lon="6.8807">
        <ele>1842.8000488281</ele>
        <time>2022-03-09T15:38:14.000Z</time>
      </trkpt>
      <trkpt lat="44.42602" lon="6.88077">
        <ele>1843.4000244141</ele>
        <time>2022-03-09T15:38:19.000Z</time>
      </trkpt>
      <trkpt lat="44.42601" lon="6.88081">
        <ele>1843.4000244141</ele>
        <time>2022-03-09T15:38:22.000Z</time>
      </trkpt>
      <trkpt lat="44.426" lon="6.88082">
        <ele>1843.4000244141</ele>
        <time>2022-03-09T15:38:23.000Z</time>
      </trkpt>
      <trkpt lat="44.42598" lon="6.88085">
        <ele>1843.5999755859</ele>
        <time>2022-03-09T15:38:25.000Z</time>
      </trkpt>
      <trkpt lat="44.42596" lon="6.88091">
        <ele>1843.8000488281</ele>
        <time>2022-03-09T15:38:28.000Z</time>
      </trkpt>
      <trkpt lat="44.42596" lon="6.88096">
        <ele>1844.5999755859</ele>
        <time>2022-03-09T15:38:32.000Z</time>
      </trkpt>
      <trkpt lat="44.42598" lon="6.88098">
        <ele>1844.8000488281</ele>
        <time>2022-03-09T15:38:34.000Z</time>
      </trkpt>
      <trkpt lat="44.42598" lon="6.88101">
        <ele>1845</ele>
        <time>2022-03-09T15:38:36.000Z</time>
      </trkpt>
      <trkpt lat="44.42596" lon="6.88106">
        <ele>1845.1999511719</ele>
        <time>2022-03-09T15:38:40.000Z</time>
      </trkpt>
      <trkpt lat="44.42595" lon="6.88107">
        <ele>1845.5999755859</ele>
        <time>2022-03-09T15:38:41.000Z</time>
      </trkpt>
      <trkpt lat="44.42594" lon="6.88108">
        <ele>1845.8000488281</ele>
        <time>2022-03-09T15:38:42.000Z</time>
      </trkpt>
      <trkpt lat="44.42592" lon="6.8811">
        <ele>1846</ele>
        <time>2022-03-09T15:38:44.000Z</time>
      </trkpt>
      <trkpt lat="44.4259" lon="6.88113">
        <ele>1846.4000244141</ele>
        <time>2022-03-09T15:38:46.000Z</time>
      </trkpt>
      <trkpt lat="44.42586" lon="6.88119">
        <ele>1846.5999755859</ele>
        <time>2022-03-09T15:38:50.000Z</time>
      </trkpt>
      <trkpt lat="44.42585" lon="6.8812">
        <ele>1846.5999755859</ele>
        <time>2022-03-09T15:38:51.000Z</time>
      </trkpt>
      <trkpt lat="44.42584" lon="6.88123">
        <ele>1847</ele>
        <time>2022-03-09T15:38:53.000Z</time>
      </trkpt>
      <trkpt lat="44.42584" lon="6.88125">
        <ele>1847.1999511719</ele>
        <time>2022-03-09T15:38:55.000Z</time>
      </trkpt>
      <trkpt lat="44.42582" lon="6.88131">
        <ele>1847.5999755859</ele>
        <time>2022-03-09T15:38:59.000Z</time>
      </trkpt>
      <trkpt lat="44.42581" lon="6.88132">
        <ele>1847.5999755859</ele>
        <time>2022-03-09T15:39:00.000Z</time>
      </trkpt>
      <trkpt lat="44.4258" lon="6.88135">
        <ele>1847.8000488281</ele>
        <time>2022-03-09T15:39:02.000Z</time>
      </trkpt>
      <trkpt lat="44.4258" lon="6.8814">
        <ele>1848.4000244141</ele>
        <time>2022-03-09T15:39:06.000Z</time>
      </trkpt>
      <trkpt lat="44.42579" lon="6.88144">
        <ele>1848.5999755859</ele>
        <time>2022-03-09T15:39:09.000Z</time>
      </trkpt>
      <trkpt lat="44.42573" lon="6.88152">
        <ele>1849.4000244141</ele>
        <time>2022-03-09T15:39:16.000Z</time>
      </trkpt>
      <trkpt lat="44.42572" lon="6.88155">
        <ele>1849.8000488281</ele>
        <time>2022-03-09T15:39:18.000Z</time>
      </trkpt>
      <trkpt lat="44.42571" lon="6.88157">
        <ele>1850.1999511719</ele>
        <time>2022-03-09T15:39:20.000Z</time>
      </trkpt>
      <trkpt lat="44.4257" lon="6.8816">
        <ele>1850.4000244141</ele>
        <time>2022-03-09T15:39:22.000Z</time>
      </trkpt>
      <trkpt lat="44.42569" lon="6.88161">
        <ele>1850.4000244141</ele>
        <time>2022-03-09T15:39:23.000Z</time>
      </trkpt>
      <trkpt lat="44.42568" lon="6.88161">
        <ele>1850.5999755859</ele>
        <time>2022-03-09T15:39:24.000Z</time>
      </trkpt>
      <trkpt lat="44.42567" lon="6.88162">
        <ele>1850.8000488281</ele>
        <time>2022-03-09T15:39:25.000Z</time>
      </trkpt>
      <trkpt lat="44.42564" lon="6.88168">
        <ele>1851.5999755859</ele>
        <time>2022-03-09T15:39:30.000Z</time>
      </trkpt>
      <trkpt lat="44.42564" lon="6.88169">
        <ele>1851.8000488281</ele>
        <time>2022-03-09T15:39:31.000Z</time>
      </trkpt>
      <trkpt lat="44.42563" lon="6.88177">
        <ele>1852.4000244141</ele>
        <time>2022-03-09T15:39:37.000Z</time>
      </trkpt>
      <trkpt lat="44.42561" lon="6.88183">
        <ele>1853</ele>
        <time>2022-03-09T15:39:42.000Z</time>
      </trkpt>
      <trkpt lat="44.4256" lon="6.88184">
        <ele>1853</ele>
        <time>2022-03-09T15:39:43.000Z</time>
      </trkpt>
      <trkpt lat="44.42558" lon="6.88187">
        <ele>1853.4000244141</ele>
        <time>2022-03-09T15:39:46.000Z</time>
      </trkpt>
      <trkpt lat="44.42554" lon="6.8819">
        <ele>1854</ele>
        <time>2022-03-09T15:39:51.000Z</time>
      </trkpt>
      <trkpt lat="44.4255" lon="6.88194">
        <ele>1854.4000244141</ele>
        <time>2022-03-09T15:39:55.000Z</time>
      </trkpt>
      <trkpt lat="44.42547" lon="6.88199">
        <ele>1855</ele>
        <time>2022-03-09T15:40:00.000Z</time>
      </trkpt>
      <trkpt lat="44.42545" lon="6.882">
        <ele>1855.1999511719</ele>
        <time>2022-03-09T15:40:02.000Z</time>
      </trkpt>
      <trkpt lat="44.42542" lon="6.88205">
        <ele>1856</ele>
        <time>2022-03-09T15:40:07.000Z</time>
      </trkpt>
      <trkpt lat="44.4254" lon="6.88205">
        <ele>1856.1999511719</ele>
        <time>2022-03-09T15:40:08.000Z</time>
      </trkpt>
      <trkpt lat="44.42534" lon="6.88207">
        <ele>1857</ele>
        <time>2022-03-09T15:40:12.000Z</time>
      </trkpt>
      <trkpt lat="44.42531" lon="6.88208">
        <ele>1857.1999511719</ele>
        <time>2022-03-09T15:40:14.000Z</time>
      </trkpt>
      <trkpt lat="44.4253" lon="6.88209">
        <ele>1857.4000244141</ele>
        <time>2022-03-09T15:40:16.000Z</time>
      </trkpt>
      <trkpt lat="44.42526" lon="6.88211">
        <ele>1858.1999511719</ele>
        <time>2022-03-09T15:40:21.000Z</time>
      </trkpt>
      <trkpt lat="44.42523" lon="6.88212">
        <ele>1858.8000488281</ele>
        <time>2022-03-09T15:40:24.000Z</time>
      </trkpt>
      <trkpt lat="44.42522" lon="6.88213">
        <ele>1859.1999511719</ele>
        <time>2022-03-09T15:40:26.000Z</time>
      </trkpt>
      <trkpt lat="44.42518" lon="6.88213">
        <ele>1860.4000244141</ele>
        <time>2022-03-09T15:40:33.000Z</time>
      </trkpt>
      <trkpt lat="44.42518" lon="6.88214">
        <ele>1860.4000244141</ele>
        <time>2022-03-09T15:40:34.000Z</time>
      </trkpt>
      <trkpt lat="44.42514" lon="6.88217">
        <ele>1861.4000244141</ele>
        <time>2022-03-09T15:40:41.000Z</time>
      </trkpt>
      <trkpt lat="44.42513" lon="6.88217">
        <ele>1861.5999755859</ele>
        <time>2022-03-09T15:40:43.000Z</time>
      </trkpt>
      <trkpt lat="44.42505" lon="6.88215">
        <ele>1862.4000244141</ele>
        <time>2022-03-09T15:40:49.000Z</time>
      </trkpt>
      <trkpt lat="44.42503" lon="6.88215">
        <ele>1862.4000244141</ele>
        <time>2022-03-09T15:40:50.000Z</time>
      </trkpt>
      <trkpt lat="44.4249" lon="6.88225">
        <ele>1863.5999755859</ele>
        <time>2022-03-09T15:40:59.000Z</time>
      </trkpt>
      <trkpt lat="44.42487" lon="6.88224">
        <ele>1864.5999755859</ele>
        <time>2022-03-09T15:41:05.000Z</time>
      </trkpt>
      <trkpt lat="44.42485" lon="6.88226">
        <ele>1864.8000488281</ele>
        <time>2022-03-09T15:41:07.000Z</time>
      </trkpt>
      <trkpt lat="44.4248" lon="6.8823">
        <ele>1865.8000488281</ele>
        <time>2022-03-09T15:41:13.000Z</time>
      </trkpt>
      <trkpt lat="44.42476" lon="6.88232">
        <ele>1866.8000488281</ele>
        <time>2022-03-09T15:41:18.000Z</time>
      </trkpt>
      <trkpt lat="44.42474" lon="6.88232">
        <ele>1867.1999511719</ele>
        <time>2022-03-09T15:41:21.000Z</time>
      </trkpt>
      <trkpt lat="44.42472" lon="6.88233">
        <ele>1867.5999755859</ele>
        <time>2022-03-09T15:41:26.000Z</time>
      </trkpt>
      <trkpt lat="44.4247" lon="6.88234">
        <ele>1868</ele>
        <time>2022-03-09T15:41:28.000Z</time>
      </trkpt>
      <trkpt lat="44.42466" lon="6.88238">
        <ele>1868.5999755859</ele>
        <time>2022-03-09T15:41:32.000Z</time>
      </trkpt>
      <trkpt lat="44.42462" lon="6.88238">
        <ele>1869</ele>
        <time>2022-03-09T15:41:36.000Z</time>
      </trkpt>
      <trkpt lat="44.42461" lon="6.88238">
        <ele>1869.4000244141</ele>
        <time>2022-03-09T15:41:38.000Z</time>
      </trkpt>
      <trkpt lat="44.42458" lon="6.88238">
        <ele>1870</ele>
        <time>2022-03-09T15:41:46.000Z</time>
      </trkpt>
      <trkpt lat="44.42458" lon="6.88239">
        <ele>1870.1999511719</ele>
        <time>2022-03-09T15:41:47.000Z</time>
      </trkpt>
      <trkpt lat="44.42457" lon="6.88241">
        <ele>1870.5999755859</ele>
        <time>2022-03-09T15:41:52.000Z</time>
      </trkpt>
      <trkpt lat="44.42454" lon="6.8824">
        <ele>1870.8000488281</ele>
        <time>2022-03-09T15:41:54.000Z</time>
      </trkpt>
      <trkpt lat="44.42446" lon="6.88243">
        <ele>1871.1999511719</ele>
        <time>2022-03-09T15:42:01.000Z</time>
      </trkpt>
      <trkpt lat="44.4244" lon="6.8825">
        <ele>1872</ele>
        <time>2022-03-09T15:42:09.000Z</time>
      </trkpt>
      <trkpt lat="44.42437" lon="6.88251">
        <ele>1872.4000244141</ele>
        <time>2022-03-09T15:42:12.000Z</time>
      </trkpt>
      <trkpt lat="44.42437" lon="6.8825">
        <ele>1872.5999755859</ele>
        <time>2022-03-09T15:42:14.000Z</time>
      </trkpt>
      <trkpt lat="44.42437" lon="6.88253">
        <ele>1873.1999511719</ele>
        <time>2022-03-09T15:42:19.000Z</time>
      </trkpt>
      <trkpt lat="44.42434" lon="6.88252">
        <ele>1873.4000244141</ele>
        <time>2022-03-09T15:42:22.000Z</time>
      </trkpt>
      <trkpt lat="44.42427" lon="6.88254">
        <ele>1874</ele>
        <time>2022-03-09T15:42:26.000Z</time>
      </trkpt>
      <trkpt lat="44.42422" lon="6.88258">
        <ele>1874.5999755859</ele>
        <time>2022-03-09T15:42:31.000Z</time>
      </trkpt>
      <trkpt lat="44.42421" lon="6.88259">
        <ele>1875</ele>
        <time>2022-03-09T15:42:33.000Z</time>
      </trkpt>
      <trkpt lat="44.42414" lon="6.88262">
        <ele>1875.8000488281</ele>
        <time>2022-03-09T15:42:39.000Z</time>
      </trkpt>
      <trkpt lat="44.42407" lon="6.88264">
        <ele>1876.5999755859</ele>
        <time>2022-03-09T15:42:46.000Z</time>
      </trkpt>
      <trkpt lat="44.42406" lon="6.88264">
        <ele>1876.8000488281</ele>
        <time>2022-03-09T15:42:48.000Z</time>
      </trkpt>
      <trkpt lat="44.424" lon="6.88267">
        <ele>1877.5999755859</ele>
        <time>2022-03-09T15:42:53.000Z</time>
      </trkpt>
      <trkpt lat="44.42398" lon="6.88268">
        <ele>1877.8000488281</ele>
        <time>2022-03-09T15:42:55.000Z</time>
      </trkpt>
      <trkpt lat="44.42392" lon="6.88269">
        <ele>1878.5999755859</ele>
        <time>2022-03-09T15:43:02.000Z</time>
      </trkpt>
      <trkpt lat="44.42389" lon="6.88271">
        <ele>1879</ele>
        <time>2022-03-09T15:43:04.000Z</time>
      </trkpt>
      <trkpt lat="44.42386" lon="6.88272">
        <ele>1879.4000244141</ele>
        <time>2022-03-09T15:43:08.000Z</time>
      </trkpt>
      <trkpt lat="44.42384" lon="6.88273">
        <ele>1879.4000244141</ele>
        <time>2022-03-09T15:43:09.000Z</time>
      </trkpt>
      <trkpt lat="44.42382" lon="6.88274">
        <ele>1879.5999755859</ele>
        <time>2022-03-09T15:43:11.000Z</time>
      </trkpt>
      <trkpt lat="44.42381" lon="6.88275">
        <ele>1879.8000488281</ele>
        <time>2022-03-09T15:43:13.000Z</time>
      </trkpt>
      <trkpt lat="44.42377" lon="6.88275">
        <ele>1880</ele>
        <time>2022-03-09T15:43:16.000Z</time>
      </trkpt>
      <trkpt lat="44.42368" lon="6.88276">
        <ele>1880</ele>
        <time>2022-03-09T15:43:20.000Z</time>
      </trkpt>
      <trkpt lat="44.42365" lon="6.88281">
        <ele>1880.1999511719</ele>
        <time>2022-03-09T15:43:28.000Z</time>
      </trkpt>
      <trkpt lat="44.4236" lon="6.88284">
        <ele>1881</ele>
        <time>2022-03-09T15:43:33.000Z</time>
      </trkpt>
      <trkpt lat="44.42358" lon="6.88286">
        <ele>1881.1999511719</ele>
        <time>2022-03-09T15:43:36.000Z</time>
      </trkpt>
      <trkpt lat="44.42356" lon="6.88288">
        <ele>1881.4000244141</ele>
        <time>2022-03-09T15:43:40.000Z</time>
      </trkpt>
      <trkpt lat="44.42349" lon="6.88293">
        <ele>1882</ele>
        <time>2022-03-09T15:43:46.000Z</time>
      </trkpt>
      <trkpt lat="44.42338" lon="6.88296">
        <ele>1881.8000488281</ele>
        <time>2022-03-09T15:43:56.000Z</time>
      </trkpt>
      <trkpt lat="44.42336" lon="6.88298">
        <ele>1882</ele>
        <time>2022-03-09T15:43:59.000Z</time>
      </trkpt>
      <trkpt lat="44.42333" lon="6.88299">
        <ele>1882.1999511719</ele>
        <time>2022-03-09T15:44:01.000Z</time>
      </trkpt>
      <trkpt lat="44.4233" lon="6.88302">
        <ele>1882.1999511719</ele>
        <time>2022-03-09T15:44:04.000Z</time>
      </trkpt>
      <trkpt lat="44.4231" lon="6.88308">
        <ele>1882.1999511719</ele>
        <time>2022-03-09T15:44:16.000Z</time>
      </trkpt>
      <trkpt lat="44.42303" lon="6.88309">
        <ele>1882.5999755859</ele>
        <time>2022-03-09T15:44:23.000Z</time>
      </trkpt>
      <trkpt lat="44.423" lon="6.88309">
        <ele>1882.5999755859</ele>
        <time>2022-03-09T15:44:25.000Z</time>
      </trkpt>
      <trkpt lat="44.42296" lon="6.88309">
        <ele>1882.4000244141</ele>
        <time>2022-03-09T15:44:30.000Z</time>
      </trkpt>
      <trkpt lat="44.42287" lon="6.88312">
        <ele>1882.5999755859</ele>
        <time>2022-03-09T15:44:39.000Z</time>
      </trkpt>
      <trkpt lat="44.42276" lon="6.88313">
        <ele>1883</ele>
        <time>2022-03-09T15:44:47.000Z</time>
      </trkpt>
      <trkpt lat="44.42274" lon="6.88313">
        <ele>1883.1999511719</ele>
        <time>2022-03-09T15:44:49.000Z</time>
      </trkpt>
      <trkpt lat="44.42264" lon="6.88313">
        <ele>1883.5999755859</ele>
        <time>2022-03-09T15:44:56.000Z</time>
      </trkpt>
      <trkpt lat="44.42249" lon="6.88314">
        <ele>1883.4000244141</ele>
        <time>2022-03-09T15:45:04.000Z</time>
      </trkpt>
      <trkpt lat="44.42239" lon="6.88315">
        <ele>1883.4000244141</ele>
        <time>2022-03-09T15:45:12.000Z</time>
      </trkpt>
      <trkpt lat="44.42229" lon="6.88317">
        <ele>1883.4000244141</ele>
        <time>2022-03-09T15:45:17.000Z</time>
      </trkpt>
      <trkpt lat="44.42222" lon="6.88318">
        <ele>1883.4000244141</ele>
        <time>2022-03-09T15:45:23.000Z</time>
      </trkpt>
      <trkpt lat="44.42219" lon="6.88319">
        <ele>1883</ele>
        <time>2022-03-09T15:45:30.000Z</time>
      </trkpt>
      <trkpt lat="44.42219" lon="6.88316">
        <ele>1883</ele>
        <time>2022-03-09T15:45:35.000Z</time>
      </trkpt>
      <trkpt lat="44.42212" lon="6.88321">
        <ele>1883.1999511719</ele>
        <time>2022-03-09T15:45:45.000Z</time>
      </trkpt>
      <trkpt lat="44.42205" lon="6.88323">
        <ele>1883.4000244141</ele>
        <time>2022-03-09T15:45:50.000Z</time>
      </trkpt>
      <trkpt lat="44.42189" lon="6.88327">
        <ele>1883.5999755859</ele>
        <time>2022-03-09T15:45:59.000Z</time>
      </trkpt>
      <trkpt lat="44.4218" lon="6.88327">
        <ele>1883.8000488281</ele>
        <time>2022-03-09T15:46:07.000Z</time>
      </trkpt>
      <trkpt lat="44.42175" lon="6.88329">
        <ele>1884.1999511719</ele>
        <time>2022-03-09T15:46:13.000Z</time>
      </trkpt>
      <trkpt lat="44.42174" lon="6.8833">
        <ele>1884.1999511719</ele>
        <time>2022-03-09T15:46:14.000Z</time>
      </trkpt>
      <trkpt lat="44.42173" lon="6.8833">
        <ele>1884.1999511719</ele>
        <time>2022-03-09T15:46:15.000Z</time>
      </trkpt>
      <trkpt lat="44.42166" lon="6.88333">
        <ele>1884.1999511719</ele>
        <time>2022-03-09T15:46:20.000Z</time>
      </trkpt>
      <trkpt lat="44.42151" lon="6.88335">
        <ele>1884.5999755859</ele>
        <time>2022-03-09T15:46:31.000Z</time>
      </trkpt>
      <trkpt lat="44.42142" lon="6.8834">
        <ele>1884.8000488281</ele>
        <time>2022-03-09T15:46:39.000Z</time>
      </trkpt>
      <trkpt lat="44.42137" lon="6.88342">
        <ele>1885</ele>
        <time>2022-03-09T15:46:46.000Z</time>
      </trkpt>
      <trkpt lat="44.42135" lon="6.88342">
        <ele>1885.1999511719</ele>
        <time>2022-03-09T15:46:50.000Z</time>
      </trkpt>
      <trkpt lat="44.42125" lon="6.88342">
        <ele>1885.5999755859</ele>
        <time>2022-03-09T15:46:59.000Z</time>
      </trkpt>
      <trkpt lat="44.42118" lon="6.88345">
        <ele>1885.5999755859</ele>
        <time>2022-03-09T15:47:05.000Z</time>
      </trkpt>
      <trkpt lat="44.42115" lon="6.88347">
        <ele>1885.8000488281</ele>
        <time>2022-03-09T15:47:07.000Z</time>
      </trkpt>
      <trkpt lat="44.42107" lon="6.8835">
        <ele>1886</ele>
        <time>2022-03-09T15:47:14.000Z</time>
      </trkpt>
      <trkpt lat="44.42099" lon="6.88355">
        <ele>1886.1999511719</ele>
        <time>2022-03-09T15:47:20.000Z</time>
      </trkpt>
      <trkpt lat="44.42094" lon="6.8836">
        <ele>1886.4000244141</ele>
        <time>2022-03-09T15:47:23.000Z</time>
      </trkpt>
      <trkpt lat="44.42084" lon="6.88366">
        <ele>1886.5999755859</ele>
        <time>2022-03-09T15:47:30.000Z</time>
      </trkpt>
      <trkpt lat="44.42077" lon="6.8837">
        <ele>1886.4000244141</ele>
        <time>2022-03-09T15:47:37.000Z</time>
      </trkpt>
      <trkpt lat="44.42077" lon="6.88379">
        <ele>1886.4000244141</ele>
        <time>2022-03-09T15:47:45.000Z</time>
      </trkpt>
      <trkpt lat="44.42075" lon="6.88394">
        <ele>1886.5999755859</ele>
        <time>2022-03-09T15:47:55.000Z</time>
      </trkpt>
      <trkpt lat="44.42076" lon="6.88397">
        <ele>1886.8000488281</ele>
        <time>2022-03-09T15:47:57.000Z</time>
      </trkpt>
      <trkpt lat="44.42077" lon="6.88399">
        <ele>1886.8000488281</ele>
        <time>2022-03-09T15:47:59.000Z</time>
      </trkpt>
      <trkpt lat="44.42078" lon="6.884">
        <ele>1887</ele>
        <time>2022-03-09T15:48:01.000Z</time>
      </trkpt>
      <trkpt lat="44.42078" lon="6.88402">
        <ele>1887.1999511719</ele>
        <time>2022-03-09T15:48:03.000Z</time>
      </trkpt>
      <trkpt lat="44.42077" lon="6.88403">
        <ele>1887.1999511719</ele>
        <time>2022-03-09T15:48:04.000Z</time>
      </trkpt>
      <trkpt lat="44.42076" lon="6.88406">
        <ele>1887.4000244141</ele>
        <time>2022-03-09T15:48:06.000Z</time>
      </trkpt>
      <trkpt lat="44.42078" lon="6.88415">
        <ele>1887.4000244141</ele>
        <time>2022-03-09T15:48:11.000Z</time>
      </trkpt>
      <trkpt lat="44.42079" lon="6.88419">
        <ele>1887.4000244141</ele>
        <time>2022-03-09T15:48:13.000Z</time>
      </trkpt>
      <trkpt lat="44.4208" lon="6.88424">
        <ele>1887.4000244141</ele>
        <time>2022-03-09T15:48:15.000Z</time>
      </trkpt>
      <trkpt lat="44.42079" lon="6.88426">
        <ele>1887.4000244141</ele>
        <time>2022-03-09T15:48:16.000Z</time>
      </trkpt>
      <trkpt lat="44.42079" lon="6.8843">
        <ele>1887.4000244141</ele>
        <time>2022-03-09T15:48:19.000Z</time>
      </trkpt>
      <trkpt lat="44.42079" lon="6.88432">
        <ele>1887.4000244141</ele>
        <time>2022-03-09T15:48:20.000Z</time>
      </trkpt>
      <trkpt lat="44.42076" lon="6.88439">
        <ele>1887.5999755859</ele>
        <time>2022-03-09T15:48:25.000Z</time>
      </trkpt>
      <trkpt lat="44.42074" lon="6.8844">
        <ele>1887.5999755859</ele>
        <time>2022-03-09T15:48:26.000Z</time>
      </trkpt>
      <trkpt lat="44.42065" lon="6.88447">
        <ele>1887.5999755859</ele>
        <time>2022-03-09T15:48:31.000Z</time>
      </trkpt>
      <trkpt lat="44.42062" lon="6.88449">
        <ele>1887.5999755859</ele>
        <time>2022-03-09T15:48:33.000Z</time>
      </trkpt>
      <trkpt lat="44.4206" lon="6.88452">
        <ele>1887.5999755859</ele>
        <time>2022-03-09T15:48:36.000Z</time>
      </trkpt>
      <trkpt lat="44.42058" lon="6.88456">
        <ele>1887.5999755859</ele>
        <time>2022-03-09T15:48:39.000Z</time>
      </trkpt>
      <trkpt lat="44.42051" lon="6.88466">
        <ele>1888</ele>
        <time>2022-03-09T15:48:46.000Z</time>
      </trkpt>
      <trkpt lat="44.42046" lon="6.88472">
        <ele>1888</ele>
        <time>2022-03-09T15:48:50.000Z</time>
      </trkpt>
      <trkpt lat="44.42044" lon="6.88474">
        <ele>1888.1999511719</ele>
        <time>2022-03-09T15:48:53.000Z</time>
      </trkpt>
      <trkpt lat="44.42026" lon="6.88486">
        <ele>1888.1999511719</ele>
        <time>2022-03-09T15:49:00.000Z</time>
      </trkpt>
      <trkpt lat="44.4202" lon="6.88485">
        <ele>1888</ele>
        <time>2022-03-09T15:49:06.000Z</time>
      </trkpt>
      <trkpt lat="44.42016" lon="6.88487">
        <ele>1888.1999511719</ele>
        <time>2022-03-09T15:49:10.000Z</time>
      </trkpt>
      <trkpt lat="44.42009" lon="6.88489">
        <ele>1888.4000244141</ele>
        <time>2022-03-09T15:49:17.000Z</time>
      </trkpt>
      <trkpt lat="44.41994" lon="6.88492">
        <ele>1888.8000488281</ele>
        <time>2022-03-09T15:49:26.000Z</time>
      </trkpt>
      <trkpt lat="44.41991" lon="6.88492">
        <ele>1889.1999511719</ele>
        <time>2022-03-09T15:49:33.000Z</time>
      </trkpt>
      <trkpt lat="44.4199" lon="6.88493">
        <ele>1889.4000244141</ele>
        <time>2022-03-09T15:49:36.000Z</time>
      </trkpt>
      <trkpt lat="44.41987" lon="6.88492">
        <ele>1889.5999755859</ele>
        <time>2022-03-09T15:49:39.000Z</time>
      </trkpt>
      <trkpt lat="44.41982" lon="6.88496">
        <ele>1889.8000488281</ele>
        <time>2022-03-09T15:49:44.000Z</time>
      </trkpt>
      <trkpt lat="44.41976" lon="6.88497">
        <ele>1889.8000488281</ele>
        <time>2022-03-09T15:49:47.000Z</time>
      </trkpt>
      <trkpt lat="44.41968" lon="6.88497">
        <ele>1890.1999511719</ele>
        <time>2022-03-09T15:49:54.000Z</time>
      </trkpt>
      <trkpt lat="44.41965" lon="6.88497">
        <ele>1890.4000244141</ele>
        <time>2022-03-09T15:49:57.000Z</time>
      </trkpt>
      <trkpt lat="44.41963" lon="6.88496">
        <ele>1890.4000244141</ele>
        <time>2022-03-09T15:49:58.000Z</time>
      </trkpt>
      <trkpt lat="44.4196" lon="6.88496">
        <ele>1890.4000244141</ele>
        <time>2022-03-09T15:50:00.000Z</time>
      </trkpt>
      <trkpt lat="44.41948" lon="6.88496">
        <ele>1890.8000488281</ele>
        <time>2022-03-09T15:50:08.000Z</time>
      </trkpt>
      <trkpt lat="44.41945" lon="6.88496">
        <ele>1891.4000244141</ele>
        <time>2022-03-09T15:50:12.000Z</time>
      </trkpt>
      <trkpt lat="44.4194" lon="6.88496">
        <ele>1891.8000488281</ele>
        <time>2022-03-09T15:50:16.000Z</time>
      </trkpt>
      <trkpt lat="44.41934" lon="6.88497">
        <ele>1892.5999755859</ele>
        <time>2022-03-09T15:50:23.000Z</time>
      </trkpt>
      <trkpt lat="44.41932" lon="6.88497">
        <ele>1893</ele>
        <time>2022-03-09T15:50:25.000Z</time>
      </trkpt>
      <trkpt lat="44.41926" lon="6.88501">
        <ele>1893.5999755859</ele>
        <time>2022-03-09T15:50:33.000Z</time>
      </trkpt>
      <trkpt lat="44.41917" lon="6.88501">
        <ele>1894.8000488281</ele>
        <time>2022-03-09T15:50:41.000Z</time>
      </trkpt>
      <trkpt lat="44.41917" lon="6.88501">
        <ele>1895</ele>
        <time>2022-03-09T15:50:42.000Z</time>
      </trkpt>
      <trkpt lat="44.41912" lon="6.88504">
        <ele>1896</ele>
        <time>2022-03-09T15:50:49.000Z</time>
      </trkpt>
      <trkpt lat="44.4191" lon="6.88504">
        <ele>1896.1999511719</ele>
        <time>2022-03-09T15:50:52.000Z</time>
      </trkpt>
      <trkpt lat="44.41905" lon="6.88503">
        <ele>1897</ele>
        <time>2022-03-09T15:50:58.000Z</time>
      </trkpt>
      <trkpt lat="44.41897" lon="6.88503">
        <ele>1897.4000244141</ele>
        <time>2022-03-09T15:51:05.000Z</time>
      </trkpt>
      <trkpt lat="44.4189" lon="6.88502">
        <ele>1897.5999755859</ele>
        <time>2022-03-09T15:51:12.000Z</time>
      </trkpt>
      <trkpt lat="44.41887" lon="6.88502">
        <ele>1897.5999755859</ele>
        <time>2022-03-09T15:51:16.000Z</time>
      </trkpt>
      <trkpt lat="44.41877" lon="6.88502">
        <ele>1897.1999511719</ele>
        <time>2022-03-09T15:51:22.000Z</time>
      </trkpt>
      <trkpt lat="44.41861" lon="6.88508">
        <ele>1897.5999755859</ele>
        <time>2022-03-09T15:51:32.000Z</time>
      </trkpt>
      <trkpt lat="44.41847" lon="6.88513">
        <ele>1897.4000244141</ele>
        <time>2022-03-09T15:51:45.000Z</time>
      </trkpt>
      <trkpt lat="44.41844" lon="6.88516">
        <ele>1897.8000488281</ele>
        <time>2022-03-09T15:51:49.000Z</time>
      </trkpt>
      <trkpt lat="44.41841" lon="6.88518">
        <ele>1897.8000488281</ele>
        <time>2022-03-09T15:51:52.000Z</time>
      </trkpt>
      <trkpt lat="44.41838" lon="6.88519">
        <ele>1898</ele>
        <time>2022-03-09T15:51:55.000Z</time>
      </trkpt>
      <trkpt lat="44.41829" lon="6.88521">
        <ele>1898.4000244141</ele>
        <time>2022-03-09T15:52:03.000Z</time>
      </trkpt>
      <trkpt lat="44.41819" lon="6.88521">
        <ele>1898.5999755859</ele>
        <time>2022-03-09T15:52:09.000Z</time>
      </trkpt>
      <trkpt lat="44.41812" lon="6.88522">
        <ele>1898.8000488281</ele>
        <time>2022-03-09T15:52:17.000Z</time>
      </trkpt>
      <trkpt lat="44.418" lon="6.88527">
        <ele>1899</ele>
        <time>2022-03-09T15:52:25.000Z</time>
      </trkpt>
      <trkpt lat="44.41797" lon="6.88527">
        <ele>1899</ele>
        <time>2022-03-09T15:52:29.000Z</time>
      </trkpt>
      <trkpt lat="44.41791" lon="6.88528">
        <ele>1899.1999511719</ele>
        <time>2022-03-09T15:52:34.000Z</time>
      </trkpt>
      <trkpt lat="44.41786" lon="6.88535">
        <ele>1899.5999755859</ele>
        <time>2022-03-09T15:52:42.000Z</time>
      </trkpt>
      <trkpt lat="44.41782" lon="6.88544">
        <ele>1899.5999755859</ele>
        <time>2022-03-09T15:52:48.000Z</time>
      </trkpt>
      <trkpt lat="44.4178" lon="6.88548">
        <ele>1899.5999755859</ele>
        <time>2022-03-09T15:52:51.000Z</time>
      </trkpt>
      <trkpt lat="44.4177" lon="6.88558">
        <ele>1899.8000488281</ele>
        <time>2022-03-09T15:53:02.000Z</time>
      </trkpt>
      <trkpt lat="44.41765" lon="6.88563">
        <ele>1900</ele>
        <time>2022-03-09T15:53:10.000Z</time>
      </trkpt>
      <trkpt lat="44.41763" lon="6.88564">
        <ele>1900</ele>
        <time>2022-03-09T15:53:11.000Z</time>
      </trkpt>
      <trkpt lat="44.41762" lon="6.88565">
        <ele>1900.1999511719</ele>
        <time>2022-03-09T15:53:13.000Z</time>
      </trkpt>
      <trkpt lat="44.41762" lon="6.88567">
        <ele>1900</ele>
        <time>2022-03-09T15:53:15.000Z</time>
      </trkpt>
      <trkpt lat="44.41761" lon="6.8857">
        <ele>1900</ele>
        <time>2022-03-09T15:53:17.000Z</time>
      </trkpt>
      <trkpt lat="44.41759" lon="6.88577">
        <ele>1899.5999755859</ele>
        <time>2022-03-09T15:53:21.000Z</time>
      </trkpt>
      <trkpt lat="44.41761" lon="6.88595">
        <ele>1899.1999511719</ele>
        <time>2022-03-09T15:53:31.000Z</time>
      </trkpt>
      <trkpt lat="44.41759" lon="6.886">
        <ele>1899.1999511719</ele>
        <time>2022-03-09T15:53:34.000Z</time>
      </trkpt>
      <trkpt lat="44.4176" lon="6.88604">
        <ele>1899.5999755859</ele>
        <time>2022-03-09T15:53:37.000Z</time>
      </trkpt>
      <trkpt lat="44.41762" lon="6.88616">
        <ele>1900</ele>
        <time>2022-03-09T15:53:44.000Z</time>
      </trkpt>
      <trkpt lat="44.41763" lon="6.88619">
        <ele>1900</ele>
        <time>2022-03-09T15:53:46.000Z</time>
      </trkpt>
      <trkpt lat="44.41766" lon="6.88635">
        <ele>1899</ele>
        <time>2022-03-09T15:53:54.000Z</time>
      </trkpt>
      <trkpt lat="44.4177" lon="6.88649">
        <ele>1898.8000488281</ele>
        <time>2022-03-09T15:54:02.000Z</time>
      </trkpt>
      <trkpt lat="44.4177" lon="6.88651">
        <ele>1899</ele>
        <time>2022-03-09T15:54:03.000Z</time>
      </trkpt>
      <trkpt lat="44.41769" lon="6.8866">
        <ele>1899.1999511719</ele>
        <time>2022-03-09T15:54:09.000Z</time>
      </trkpt>
      <trkpt lat="44.4177" lon="6.88667">
        <ele>1899.1999511719</ele>
        <time>2022-03-09T15:54:14.000Z</time>
      </trkpt>
      <trkpt lat="44.41771" lon="6.88667">
        <ele>1899.1999511719</ele>
        <time>2022-03-09T15:54:15.000Z</time>
      </trkpt>
      <trkpt lat="44.41772" lon="6.88666">
        <ele>1899</ele>
        <time>2022-03-09T15:54:23.000Z</time>
      </trkpt>
      <trkpt lat="44.41771" lon="6.88666">
        <ele>1899.4000244141</ele>
        <time>2022-03-09T15:54:36.000Z</time>
      </trkpt>
      <trkpt lat="44.41771" lon="6.88667">
        <ele>1899.4000244141</ele>
        <time>2022-03-09T15:54:38.000Z</time>
      </trkpt>
      <trkpt lat="44.4177" lon="6.88672">
        <ele>1899.4000244141</ele>
        <time>2022-03-09T15:54:42.000Z</time>
      </trkpt>
      <trkpt lat="44.41769" lon="6.88677">
        <ele>1899.4000244141</ele>
        <time>2022-03-09T15:54:51.000Z</time>
      </trkpt>
      <trkpt lat="44.41774" lon="6.88676">
        <ele>1899.4000244141</ele>
        <time>2022-03-09T15:55:00.000Z</time>
      </trkpt>
      <trkpt lat="44.41774" lon="6.88676">
        <ele>1899.4000244141</ele>
        <time>2022-03-09T15:55:01.000Z</time>
      </trkpt>
      <trkpt lat="44.41766" lon="6.88668">
        <ele>1898.8000488281</ele>
        <time>2022-03-09T15:56:04.000Z</time>
      </trkpt>
      <trkpt lat="44.41766" lon="6.88668">
        <ele>1898.8000488281</ele>
        <time>2022-03-09T15:56:11.000Z</time>
      </trkpt>
      <trkpt lat="44.41766" lon="6.88667">
        <ele>1899.1999511719</ele>
        <time>2022-03-09T15:56:20.000Z</time>
      </trkpt>
      <trkpt lat="44.41764" lon="6.88666">
        <ele>1898.8000488281</ele>
        <time>2022-03-09T15:56:33.000Z</time>
      </trkpt>
      <trkpt lat="44.41762" lon="6.88666">
        <ele>1898.5999755859</ele>
        <time>2022-03-09T15:56:37.000Z</time>
      </trkpt>
      <trkpt lat="44.41759" lon="6.88665">
        <ele>1898.5999755859</ele>
        <time>2022-03-09T15:56:42.000Z</time>
      </trkpt>
      <trkpt lat="44.41762" lon="6.88665">
        <ele>1899.1999511719</ele>
        <time>2022-03-09T15:56:47.000Z</time>
      </trkpt>
      <trkpt lat="44.41763" lon="6.88663">
        <ele>1899</ele>
        <time>2022-03-09T15:56:55.000Z</time>
      </trkpt>
      <trkpt lat="44.41763" lon="6.88664">
        <ele>1899</ele>
        <time>2022-03-09T15:57:06.000Z</time>
      </trkpt>
      <trkpt lat="44.41768" lon="6.88663">
        <ele>1899</ele>
        <time>2022-03-09T15:57:09.000Z</time>
      </trkpt>
      <trkpt lat="44.41772" lon="6.88665">
        <ele>1899</ele>
        <time>2022-03-09T15:57:11.000Z</time>
      </trkpt>
      <trkpt lat="44.41778" lon="6.88666">
        <ele>1899.1999511719</ele>
        <time>2022-03-09T15:57:15.000Z</time>
      </trkpt>
      <trkpt lat="44.4178" lon="6.88667">
        <ele>1899.1999511719</ele>
        <time>2022-03-09T15:57:16.000Z</time>
      </trkpt>
      <trkpt lat="44.41783" lon="6.88666">
        <ele>1899.4000244141</ele>
        <time>2022-03-09T15:57:19.000Z</time>
      </trkpt>
      <trkpt lat="44.41784" lon="6.88665">
        <ele>1899.5999755859</ele>
        <time>2022-03-09T15:57:20.000Z</time>
      </trkpt>
      <trkpt lat="44.41786" lon="6.88663">
        <ele>1899.8000488281</ele>
        <time>2022-03-09T15:57:23.000Z</time>
      </trkpt>
      <trkpt lat="44.4179" lon="6.88664">
        <ele>1900.1999511719</ele>
        <time>2022-03-09T15:57:26.000Z</time>
      </trkpt>
      <trkpt lat="44.41791" lon="6.88664">
        <ele>1900.4000244141</ele>
        <time>2022-03-09T15:57:27.000Z</time>
      </trkpt>
      <trkpt lat="44.41794" lon="6.88665">
        <ele>1900.5999755859</ele>
        <time>2022-03-09T15:57:29.000Z</time>
      </trkpt>
      <trkpt lat="44.41796" lon="6.88664">
        <ele>1900.8000488281</ele>
        <time>2022-03-09T15:57:31.000Z</time>
      </trkpt>
      <trkpt lat="44.41797" lon="6.88664">
        <ele>1901</ele>
        <time>2022-03-09T15:57:32.000Z</time>
      </trkpt>
      <trkpt lat="44.41798" lon="6.88665">
        <ele>1901.1999511719</ele>
        <time>2022-03-09T15:57:33.000Z</time>
      </trkpt>
      <trkpt lat="44.41799" lon="6.88665">
        <ele>1901.4000244141</ele>
        <time>2022-03-09T15:57:34.000Z</time>
      </trkpt>
      <trkpt lat="44.41804" lon="6.88666">
        <ele>1901.8000488281</ele>
        <time>2022-03-09T15:57:38.000Z</time>
      </trkpt>
      <trkpt lat="44.41805" lon="6.88663">
        <ele>1901.8000488281</ele>
        <time>2022-03-09T15:57:40.000Z</time>
      </trkpt>
      <trkpt lat="44.41809" lon="6.88661">
        <ele>1901.8000488281</ele>
        <time>2022-03-09T15:57:43.000Z</time>
      </trkpt>
      <trkpt lat="44.41812" lon="6.8866">
        <ele>1902</ele>
        <time>2022-03-09T15:57:47.000Z</time>
      </trkpt>
      <trkpt lat="44.41813" lon="6.8866">
        <ele>1902</ele>
        <time>2022-03-09T15:57:48.000Z</time>
      </trkpt>
      <trkpt lat="44.4182" lon="6.8866">
        <ele>1902.1999511719</ele>
        <time>2022-03-09T15:57:53.000Z</time>
      </trkpt>
      <trkpt lat="44.4182" lon="6.8866">
        <ele>1902.1999511719</ele>
        <time>2022-03-09T15:57:54.000Z</time>
      </trkpt>
      <trkpt lat="44.41822" lon="6.88661">
        <ele>1902.4000244141</ele>
        <time>2022-03-09T15:57:56.000Z</time>
      </trkpt>
      <trkpt lat="44.41826" lon="6.8866">
        <ele>1902.5999755859</ele>
        <time>2022-03-09T15:57:58.000Z</time>
      </trkpt>
      <trkpt lat="44.41827" lon="6.88661">
        <ele>1902.8000488281</ele>
        <time>2022-03-09T15:57:59.000Z</time>
      </trkpt>
      <trkpt lat="44.41831" lon="6.88663">
        <ele>1902.8000488281</ele>
        <time>2022-03-09T15:58:02.000Z</time>
      </trkpt>
      <trkpt lat="44.41832" lon="6.88663">
        <ele>1903</ele>
        <time>2022-03-09T15:58:03.000Z</time>
      </trkpt>
      <trkpt lat="44.41839" lon="6.88663">
        <ele>1903.4000244141</ele>
        <time>2022-03-09T15:58:09.000Z</time>
      </trkpt>
      <trkpt lat="44.4184" lon="6.88663">
        <ele>1903.4000244141</ele>
        <time>2022-03-09T15:58:10.000Z</time>
      </trkpt>
      <trkpt lat="44.41841" lon="6.88663">
        <ele>1903.5999755859</ele>
        <time>2022-03-09T15:58:11.000Z</time>
      </trkpt>
      <trkpt lat="44.41843" lon="6.88663">
        <ele>1903.5999755859</ele>
        <time>2022-03-09T15:58:12.000Z</time>
      </trkpt>
      <trkpt lat="44.41846" lon="6.88661">
        <ele>1904</ele>
        <time>2022-03-09T15:58:16.000Z</time>
      </trkpt>
      <trkpt lat="44.4185" lon="6.8866">
        <ele>1904</ele>
        <time>2022-03-09T15:58:19.000Z</time>
      </trkpt>
      <trkpt lat="44.41856" lon="6.88657">
        <ele>1904.1999511719</ele>
        <time>2022-03-09T15:58:24.000Z</time>
      </trkpt>
      <trkpt lat="44.41859" lon="6.88656">
        <ele>1904.1999511719</ele>
        <time>2022-03-09T15:58:26.000Z</time>
      </trkpt>
      <trkpt lat="44.41867" lon="6.88658">
        <ele>1904.5999755859</ele>
        <time>2022-03-09T15:58:32.000Z</time>
      </trkpt>
      <trkpt lat="44.41878" lon="6.88654">
        <ele>1905</ele>
        <time>2022-03-09T15:58:41.000Z</time>
      </trkpt>
      <trkpt lat="44.41884" lon="6.88653">
        <ele>1905.5999755859</ele>
        <time>2022-03-09T15:58:45.000Z</time>
      </trkpt>
      <trkpt lat="44.41888" lon="6.88653">
        <ele>1906</ele>
        <time>2022-03-09T15:58:48.000Z</time>
      </trkpt>
      <trkpt lat="44.41896" lon="6.88655">
        <ele>1906.5999755859</ele>
        <time>2022-03-09T15:58:54.000Z</time>
      </trkpt>
      <trkpt lat="44.41897" lon="6.88655">
        <ele>1906.5999755859</ele>
        <time>2022-03-09T15:58:55.000Z</time>
      </trkpt>
      <trkpt lat="44.41903" lon="6.88652">
        <ele>1907</ele>
        <time>2022-03-09T15:58:59.000Z</time>
      </trkpt>
      <trkpt lat="44.41905" lon="6.88652">
        <ele>1907.4000244141</ele>
        <time>2022-03-09T15:59:01.000Z</time>
      </trkpt>
      <trkpt lat="44.4191" lon="6.88652">
        <ele>1907.8000488281</ele>
        <time>2022-03-09T15:59:06.000Z</time>
      </trkpt>
      <trkpt lat="44.41911" lon="6.88652">
        <ele>1907.8000488281</ele>
        <time>2022-03-09T15:59:07.000Z</time>
      </trkpt>
      <trkpt lat="44.41919" lon="6.88657">
        <ele>1908.8000488281</ele>
        <time>2022-03-09T15:59:14.000Z</time>
      </trkpt>
      <trkpt lat="44.4192" lon="6.88658">
        <ele>1909</ele>
        <time>2022-03-09T15:59:15.000Z</time>
      </trkpt>
      <trkpt lat="44.41928" lon="6.88668">
        <ele>1910</ele>
        <time>2022-03-09T15:59:25.000Z</time>
      </trkpt>
      <trkpt lat="44.41931" lon="6.88671">
        <ele>1910</ele>
        <time>2022-03-09T15:59:28.000Z</time>
      </trkpt>
      <trkpt lat="44.41936" lon="6.88674">
        <ele>1910.1999511719</ele>
        <time>2022-03-09T15:59:32.000Z</time>
      </trkpt>
      <trkpt lat="44.41939" lon="6.88678">
        <ele>1910.4000244141</ele>
        <time>2022-03-09T15:59:36.000Z</time>
      </trkpt>
      <trkpt lat="44.41948" lon="6.88684">
        <ele>1910.5999755859</ele>
        <time>2022-03-09T15:59:44.000Z</time>
      </trkpt>
      <trkpt lat="44.41955" lon="6.88688">
        <ele>1911</ele>
        <time>2022-03-09T15:59:50.000Z</time>
      </trkpt>
      <trkpt lat="44.41956" lon="6.88689">
        <ele>1911</ele>
        <time>2022-03-09T15:59:51.000Z</time>
      </trkpt>
      <trkpt lat="44.41958" lon="6.88691">
        <ele>1911</ele>
        <time>2022-03-09T15:59:53.000Z</time>
      </trkpt>
      <trkpt lat="44.41967" lon="6.88698">
        <ele>1911.1999511719</ele>
        <time>2022-03-09T16:00:02.000Z</time>
      </trkpt>
      <trkpt lat="44.4198" lon="6.88708">
        <ele>1911.1999511719</ele>
        <time>2022-03-09T16:00:14.000Z</time>
      </trkpt>
      <trkpt lat="44.4199" lon="6.88716">
        <ele>1911.5999755859</ele>
        <time>2022-03-09T16:00:23.000Z</time>
      </trkpt>
      <trkpt lat="44.41996" lon="6.88724">
        <ele>1911.5999755859</ele>
        <time>2022-03-09T16:00:29.000Z</time>
      </trkpt>
      <trkpt lat="44.41997" lon="6.88724">
        <ele>1911.4000244141</ele>
        <time>2022-03-09T16:00:30.000Z</time>
      </trkpt>
      <trkpt lat="44.42007" lon="6.88735">
        <ele>1911.4000244141</ele>
        <time>2022-03-09T16:00:41.000Z</time>
      </trkpt>
      <trkpt lat="44.4202" lon="6.88743">
        <ele>1911.5999755859</ele>
        <time>2022-03-09T16:00:51.000Z</time>
      </trkpt>
      <trkpt lat="44.42031" lon="6.88748">
        <ele>1911.4000244141</ele>
        <time>2022-03-09T16:01:00.000Z</time>
      </trkpt>
      <trkpt lat="44.42043" lon="6.88759">
        <ele>1912</ele>
        <time>2022-03-09T16:01:10.000Z</time>
      </trkpt>
      <trkpt lat="44.42046" lon="6.88763">
        <ele>1912.1999511719</ele>
        <time>2022-03-09T16:01:13.000Z</time>
      </trkpt>
      <trkpt lat="44.42055" lon="6.88773">
        <ele>1911.8000488281</ele>
        <time>2022-03-09T16:01:21.000Z</time>
      </trkpt>
      <trkpt lat="44.42064" lon="6.88782">
        <ele>1911.4000244141</ele>
        <time>2022-03-09T16:01:29.000Z</time>
      </trkpt>
      <trkpt lat="44.42065" lon="6.88783">
        <ele>1911.1999511719</ele>
        <time>2022-03-09T16:01:30.000Z</time>
      </trkpt>
      <trkpt lat="44.42068" lon="6.88787">
        <ele>1911</ele>
        <time>2022-03-09T16:01:33.000Z</time>
      </trkpt>
      <trkpt lat="44.42078" lon="6.88792">
        <ele>1910.5999755859</ele>
        <time>2022-03-09T16:01:40.000Z</time>
      </trkpt>
      <trkpt lat="44.42083" lon="6.88793">
        <ele>1910.5999755859</ele>
        <time>2022-03-09T16:01:44.000Z</time>
      </trkpt>
      <trkpt lat="44.42087" lon="6.88794">
        <ele>1910.8000488281</ele>
        <time>2022-03-09T16:01:47.000Z</time>
      </trkpt>
      <trkpt lat="44.421" lon="6.88799">
        <ele>1911</ele>
        <time>2022-03-09T16:01:57.000Z</time>
      </trkpt>
      <trkpt lat="44.42114" lon="6.88804">
        <ele>1910.8000488281</ele>
        <time>2022-03-09T16:02:08.000Z</time>
      </trkpt>
      <trkpt lat="44.42122" lon="6.88807">
        <ele>1910</ele>
        <time>2022-03-09T16:02:14.000Z</time>
      </trkpt>
      <trkpt lat="44.42128" lon="6.88809">
        <ele>1909.8000488281</ele>
        <time>2022-03-09T16:02:18.000Z</time>
      </trkpt>
      <trkpt lat="44.4213" lon="6.88809">
        <ele>1910</ele>
        <time>2022-03-09T16:02:20.000Z</time>
      </trkpt>
      <trkpt lat="44.42135" lon="6.88809">
        <ele>1910.1999511719</ele>
        <time>2022-03-09T16:02:24.000Z</time>
      </trkpt>
      <trkpt lat="44.42144" lon="6.88809">
        <ele>1911</ele>
        <time>2022-03-09T16:02:31.000Z</time>
      </trkpt>
      <trkpt lat="44.42149" lon="6.8881">
        <ele>1911.1999511719</ele>
        <time>2022-03-09T16:02:34.000Z</time>
      </trkpt>
      <trkpt lat="44.42161" lon="6.88812">
        <ele>1909.8000488281</ele>
        <time>2022-03-09T16:02:43.000Z</time>
      </trkpt>
      <trkpt lat="44.42169" lon="6.88812">
        <ele>1908.5999755859</ele>
        <time>2022-03-09T16:02:48.000Z</time>
      </trkpt>
      <trkpt lat="44.42173" lon="6.88813">
        <ele>1908</ele>
        <time>2022-03-09T16:02:51.000Z</time>
      </trkpt>
      <trkpt lat="44.42174" lon="6.88812">
        <ele>1907.5999755859</ele>
        <time>2022-03-09T16:02:52.000Z</time>
      </trkpt>
      <trkpt lat="44.42186" lon="6.88811">
        <ele>1906.8000488281</ele>
        <time>2022-03-09T16:03:00.000Z</time>
      </trkpt>
      <trkpt lat="44.4219" lon="6.8881">
        <ele>1906.5999755859</ele>
        <time>2022-03-09T16:03:03.000Z</time>
      </trkpt>
      <trkpt lat="44.42202" lon="6.88812">
        <ele>1905.5999755859</ele>
        <time>2022-03-09T16:03:11.000Z</time>
      </trkpt>
      <trkpt lat="44.42204" lon="6.88813">
        <ele>1905.5999755859</ele>
        <time>2022-03-09T16:03:12.000Z</time>
      </trkpt>
      <trkpt lat="44.42206" lon="6.88813">
        <ele>1905.4000244141</ele>
        <time>2022-03-09T16:03:13.000Z</time>
      </trkpt>
      <trkpt lat="44.42214" lon="6.88819">
        <ele>1905.1999511719</ele>
        <time>2022-03-09T16:03:19.000Z</time>
      </trkpt>
      <trkpt lat="44.42225" lon="6.88824">
        <ele>1905.4000244141</ele>
        <time>2022-03-09T16:03:27.000Z</time>
      </trkpt>
      <trkpt lat="44.42236" lon="6.88828">
        <ele>1905.8000488281</ele>
        <time>2022-03-09T16:03:35.000Z</time>
      </trkpt>
      <trkpt lat="44.42248" lon="6.88838">
        <ele>1905.5999755859</ele>
        <time>2022-03-09T16:03:43.000Z</time>
      </trkpt>
      <trkpt lat="44.42264" lon="6.88846">
        <ele>1906</ele>
        <time>2022-03-09T16:03:55.000Z</time>
      </trkpt>
      <trkpt lat="44.4227" lon="6.88847">
        <ele>1906.5999755859</ele>
        <time>2022-03-09T16:04:01.000Z</time>
      </trkpt>
      <trkpt lat="44.42274" lon="6.88851">
        <ele>1907</ele>
        <time>2022-03-09T16:04:04.000Z</time>
      </trkpt>
      <trkpt lat="44.42282" lon="6.88857">
        <ele>1907.4000244141</ele>
        <time>2022-03-09T16:04:11.000Z</time>
      </trkpt>
      <trkpt lat="44.42286" lon="6.8886">
        <ele>1907.4000244141</ele>
        <time>2022-03-09T16:04:14.000Z</time>
      </trkpt>
      <trkpt lat="44.42286" lon="6.88861">
        <ele>1907.5999755859</ele>
        <time>2022-03-09T16:04:15.000Z</time>
      </trkpt>
      <trkpt lat="44.42292" lon="6.88867">
        <ele>1908</ele>
        <time>2022-03-09T16:04:20.000Z</time>
      </trkpt>
      <trkpt lat="44.42297" lon="6.8887">
        <ele>1908</ele>
        <time>2022-03-09T16:04:25.000Z</time>
      </trkpt>
      <trkpt lat="44.42302" lon="6.88875">
        <ele>1908.4000244141</ele>
        <time>2022-03-09T16:04:29.000Z</time>
      </trkpt>
      <trkpt lat="44.42312" lon="6.88882">
        <ele>1908.5999755859</ele>
        <time>2022-03-09T16:04:38.000Z</time>
      </trkpt>
      <trkpt lat="44.42321" lon="6.88887">
        <ele>1909.8000488281</ele>
        <time>2022-03-09T16:04:47.000Z</time>
      </trkpt>
      <trkpt lat="44.42322" lon="6.88888">
        <ele>1910</ele>
        <time>2022-03-09T16:04:48.000Z</time>
      </trkpt>
      <trkpt lat="44.42325" lon="6.8889">
        <ele>1910.8000488281</ele>
        <time>2022-03-09T16:04:52.000Z</time>
      </trkpt>
      <trkpt lat="44.42328" lon="6.88893">
        <ele>1911.5999755859</ele>
        <time>2022-03-09T16:04:57.000Z</time>
      </trkpt>
      <trkpt lat="44.4233" lon="6.88894">
        <ele>1911.8000488281</ele>
        <time>2022-03-09T16:04:59.000Z</time>
      </trkpt>
      <trkpt lat="44.42334" lon="6.88896">
        <ele>1912.1999511719</ele>
        <time>2022-03-09T16:05:03.000Z</time>
      </trkpt>
      <trkpt lat="44.42336" lon="6.88898">
        <ele>1912.1999511719</ele>
        <time>2022-03-09T16:05:05.000Z</time>
      </trkpt>
      <trkpt lat="44.42342" lon="6.88898">
        <ele>1912.8000488281</ele>
        <time>2022-03-09T16:05:11.000Z</time>
      </trkpt>
      <trkpt lat="44.42344" lon="6.88898">
        <ele>1913</ele>
        <time>2022-03-09T16:05:13.000Z</time>
      </trkpt>
      <trkpt lat="44.42353" lon="6.88901">
        <ele>1913.8000488281</ele>
        <time>2022-03-09T16:05:21.000Z</time>
      </trkpt>
      <trkpt lat="44.42354" lon="6.889">
        <ele>1914</ele>
        <time>2022-03-09T16:05:22.000Z</time>
      </trkpt>
      <trkpt lat="44.42356" lon="6.88899">
        <ele>1914</ele>
        <time>2022-03-09T16:05:24.000Z</time>
      </trkpt>
      <trkpt lat="44.42359" lon="6.88899">
        <ele>1914.4000244141</ele>
        <time>2022-03-09T16:05:28.000Z</time>
      </trkpt>
      <trkpt lat="44.42366" lon="6.88901">
        <ele>1914.5999755859</ele>
        <time>2022-03-09T16:05:34.000Z</time>
      </trkpt>
      <trkpt lat="44.42369" lon="6.88903">
        <ele>1914.8000488281</ele>
        <time>2022-03-09T16:05:36.000Z</time>
      </trkpt>
      <trkpt lat="44.4237" lon="6.88903">
        <ele>1914.8000488281</ele>
        <time>2022-03-09T16:05:37.000Z</time>
      </trkpt>
      <trkpt lat="44.42374" lon="6.88905">
        <ele>1915</ele>
        <time>2022-03-09T16:05:40.000Z</time>
      </trkpt>
      <trkpt lat="44.4238" lon="6.88908">
        <ele>1915.4000244141</ele>
        <time>2022-03-09T16:05:45.000Z</time>
      </trkpt>
      <trkpt lat="44.42384" lon="6.88908">
        <ele>1915.4000244141</ele>
        <time>2022-03-09T16:05:48.000Z</time>
      </trkpt>
      <trkpt lat="44.42388" lon="6.88908">
        <ele>1916</ele>
        <time>2022-03-09T16:05:52.000Z</time>
      </trkpt>
      <trkpt lat="44.42389" lon="6.88908">
        <ele>1916</ele>
        <time>2022-03-09T16:05:53.000Z</time>
      </trkpt>
      <trkpt lat="44.42402" lon="6.88912">
        <ele>1916.5999755859</ele>
        <time>2022-03-09T16:06:03.000Z</time>
      </trkpt>
      <trkpt lat="44.42408" lon="6.88914">
        <ele>1917</ele>
        <time>2022-03-09T16:06:09.000Z</time>
      </trkpt>
      <trkpt lat="44.42412" lon="6.88914">
        <ele>1917.4000244141</ele>
        <time>2022-03-09T16:06:13.000Z</time>
      </trkpt>
      <trkpt lat="44.42417" lon="6.88915">
        <ele>1918.1999511719</ele>
        <time>2022-03-09T16:06:17.000Z</time>
      </trkpt>
      <trkpt lat="44.42419" lon="6.88916">
        <ele>1918.4000244141</ele>
        <time>2022-03-09T16:06:19.000Z</time>
      </trkpt>
      <trkpt lat="44.42426" lon="6.88919">
        <ele>1919.1999511719</ele>
        <time>2022-03-09T16:06:26.000Z</time>
      </trkpt>
      <trkpt lat="44.42428" lon="6.88918">
        <ele>1919.1999511719</ele>
        <time>2022-03-09T16:06:28.000Z</time>
      </trkpt>
      <trkpt lat="44.42433" lon="6.88921">
        <ele>1919.8000488281</ele>
        <time>2022-03-09T16:06:34.000Z</time>
      </trkpt>
      <trkpt lat="44.42436" lon="6.88927">
        <ele>1920.4000244141</ele>
        <time>2022-03-09T16:06:40.000Z</time>
      </trkpt>
      <trkpt lat="44.42441" lon="6.88931">
        <ele>1920.8000488281</ele>
        <time>2022-03-09T16:06:45.000Z</time>
      </trkpt>
      <trkpt lat="44.42445" lon="6.88929">
        <ele>1921</ele>
        <time>2022-03-09T16:06:51.000Z</time>
      </trkpt>
      <trkpt lat="44.42447" lon="6.88927">
        <ele>1921</ele>
        <time>2022-03-09T16:06:53.000Z</time>
      </trkpt>
      <trkpt lat="44.4245" lon="6.88925">
        <ele>1921</ele>
        <time>2022-03-09T16:06:55.000Z</time>
      </trkpt>
      <trkpt lat="44.4245" lon="6.88924">
        <ele>1921.1999511719</ele>
        <time>2022-03-09T16:06:56.000Z</time>
      </trkpt>
      <trkpt lat="44.42453" lon="6.88921">
        <ele>1921.4000244141</ele>
        <time>2022-03-09T16:06:59.000Z</time>
      </trkpt>
      <trkpt lat="44.42454" lon="6.8892">
        <ele>1921.5999755859</ele>
        <time>2022-03-09T16:07:00.000Z</time>
      </trkpt>
      <trkpt lat="44.42455" lon="6.8892">
        <ele>1921.8000488281</ele>
        <time>2022-03-09T16:07:01.000Z</time>
      </trkpt>
      <trkpt lat="44.42456" lon="6.8892">
        <ele>1922</ele>
        <time>2022-03-09T16:07:02.000Z</time>
      </trkpt>
      <trkpt lat="44.42463" lon="6.88922">
        <ele>1922.5999755859</ele>
        <time>2022-03-09T16:07:07.000Z</time>
      </trkpt>
      <trkpt lat="44.42465" lon="6.88922">
        <ele>1922.8000488281</ele>
        <time>2022-03-09T16:07:08.000Z</time>
      </trkpt>
      <trkpt lat="44.42468" lon="6.88922">
        <ele>1923</ele>
        <time>2022-03-09T16:07:10.000Z</time>
      </trkpt>
      <trkpt lat="44.42472" lon="6.88923">
        <ele>1923.4000244141</ele>
        <time>2022-03-09T16:07:13.000Z</time>
      </trkpt>
      <trkpt lat="44.42474" lon="6.88923">
        <ele>1923.8000488281</ele>
        <time>2022-03-09T16:07:15.000Z</time>
      </trkpt>
      <trkpt lat="44.42481" lon="6.88921">
        <ele>1924.4000244141</ele>
        <time>2022-03-09T16:07:21.000Z</time>
      </trkpt>
      <trkpt lat="44.42485" lon="6.88921">
        <ele>1924.8000488281</ele>
        <time>2022-03-09T16:07:24.000Z</time>
      </trkpt>
      <trkpt lat="44.4249" lon="6.88922">
        <ele>1925.8000488281</ele>
        <time>2022-03-09T16:07:28.000Z</time>
      </trkpt>
      <trkpt lat="44.42491" lon="6.88922">
        <ele>1926</ele>
        <time>2022-03-09T16:07:29.000Z</time>
      </trkpt>
      <trkpt lat="44.42492" lon="6.88922">
        <ele>1926.1999511719</ele>
        <time>2022-03-09T16:07:30.000Z</time>
      </trkpt>
      <trkpt lat="44.42497" lon="6.88923">
        <ele>1926.5999755859</ele>
        <time>2022-03-09T16:07:34.000Z</time>
      </trkpt>
      <trkpt lat="44.425" lon="6.88924">
        <ele>1927.1999511719</ele>
        <time>2022-03-09T16:07:36.000Z</time>
      </trkpt>
      <trkpt lat="44.4251" lon="6.88925">
        <ele>1928</ele>
        <time>2022-03-09T16:07:43.000Z</time>
      </trkpt>
      <trkpt lat="44.42512" lon="6.88924">
        <ele>1928.4000244141</ele>
        <time>2022-03-09T16:07:45.000Z</time>
      </trkpt>
      <trkpt lat="44.42515" lon="6.88924">
        <ele>1928.8000488281</ele>
        <time>2022-03-09T16:07:48.000Z</time>
      </trkpt>
      <trkpt lat="44.42517" lon="6.88923">
        <ele>1929</ele>
        <time>2022-03-09T16:07:50.000Z</time>
      </trkpt>
      <trkpt lat="44.42519" lon="6.88922">
        <ele>1929</ele>
        <time>2022-03-09T16:07:51.000Z</time>
      </trkpt>
      <trkpt lat="44.42523" lon="6.88922">
        <ele>1929.4000244141</ele>
        <time>2022-03-09T16:07:55.000Z</time>
      </trkpt>
      <trkpt lat="44.42526" lon="6.88922">
        <ele>1929.8000488281</ele>
        <time>2022-03-09T16:07:57.000Z</time>
      </trkpt>
      <trkpt lat="44.42529" lon="6.8892">
        <ele>1930.4000244141</ele>
        <time>2022-03-09T16:08:00.000Z</time>
      </trkpt>
      <trkpt lat="44.42535" lon="6.88918">
        <ele>1931.5999755859</ele>
        <time>2022-03-09T16:08:06.000Z</time>
      </trkpt>
      <trkpt lat="44.42537" lon="6.88918">
        <ele>1932</ele>
        <time>2022-03-09T16:08:08.000Z</time>
      </trkpt>
      <trkpt lat="44.42542" lon="6.88915">
        <ele>1932.5999755859</ele>
        <time>2022-03-09T16:08:13.000Z</time>
      </trkpt>
      <trkpt lat="44.42544" lon="6.88914">
        <ele>1933</ele>
        <time>2022-03-09T16:08:15.000Z</time>
      </trkpt>
      <trkpt lat="44.42545" lon="6.88913">
        <ele>1933.4000244141</ele>
        <time>2022-03-09T16:08:16.000Z</time>
      </trkpt>
      <trkpt lat="44.42548" lon="6.88912">
        <ele>1934</ele>
        <time>2022-03-09T16:08:19.000Z</time>
      </trkpt>
      <trkpt lat="44.42551" lon="6.88913">
        <ele>1934.1999511719</ele>
        <time>2022-03-09T16:08:21.000Z</time>
      </trkpt>
      <trkpt lat="44.42554" lon="6.88913">
        <ele>1934.5999755859</ele>
        <time>2022-03-09T16:08:23.000Z</time>
      </trkpt>
      <trkpt lat="44.42556" lon="6.88912">
        <ele>1935</ele>
        <time>2022-03-09T16:08:25.000Z</time>
      </trkpt>
      <trkpt lat="44.42563" lon="6.88912">
        <ele>1935.8000488281</ele>
        <time>2022-03-09T16:08:31.000Z</time>
      </trkpt>
      <trkpt lat="44.42567" lon="6.88912">
        <ele>1936</ele>
        <time>2022-03-09T16:08:34.000Z</time>
      </trkpt>
      <trkpt lat="44.42577" lon="6.88911">
        <ele>1936.4000244141</ele>
        <time>2022-03-09T16:08:42.000Z</time>
      </trkpt>
      <trkpt lat="44.42592" lon="6.8891">
        <ele>1936.4000244141</ele>
        <time>2022-03-09T16:08:54.000Z</time>
      </trkpt>
      <trkpt lat="44.42601" lon="6.88911">
        <ele>1936.1999511719</ele>
        <time>2022-03-09T16:09:01.000Z</time>
      </trkpt>
      <trkpt lat="44.4261" lon="6.88912">
        <ele>1936.5999755859</ele>
        <time>2022-03-09T16:09:08.000Z</time>
      </trkpt>
      <trkpt lat="44.42619" lon="6.8892">
        <ele>1936.1999511719</ele>
        <time>2022-03-09T16:09:16.000Z</time>
      </trkpt>
      <trkpt lat="44.42629" lon="6.88936">
        <ele>1935.4000244141</ele>
        <time>2022-03-09T16:09:27.000Z</time>
      </trkpt>
      <trkpt lat="44.42639" lon="6.88949">
        <ele>1935</ele>
        <time>2022-03-09T16:09:37.000Z</time>
      </trkpt>
      <trkpt lat="44.42642" lon="6.88953">
        <ele>1934.8000488281</ele>
        <time>2022-03-09T16:09:40.000Z</time>
      </trkpt>
      <trkpt lat="44.42649" lon="6.88969">
        <ele>1934.5999755859</ele>
        <time>2022-03-09T16:09:50.000Z</time>
      </trkpt>
      <trkpt lat="44.42649" lon="6.88973">
        <ele>1934.5999755859</ele>
        <time>2022-03-09T16:09:53.000Z</time>
      </trkpt>
      <trkpt lat="44.4265" lon="6.88976">
        <ele>1934.5999755859</ele>
        <time>2022-03-09T16:09:56.000Z</time>
      </trkpt>
      <trkpt lat="44.42652" lon="6.88984">
        <ele>1934.4000244141</ele>
        <time>2022-03-09T16:10:02.000Z</time>
      </trkpt>
      <trkpt lat="44.42654" lon="6.88992">
        <ele>1934.1999511719</ele>
        <time>2022-03-09T16:10:08.000Z</time>
      </trkpt>
      <trkpt lat="44.42657" lon="6.88998">
        <ele>1934</ele>
        <time>2022-03-09T16:10:13.000Z</time>
      </trkpt>
      <trkpt lat="44.4266" lon="6.89007">
        <ele>1933.5999755859</ele>
        <time>2022-03-09T16:10:19.000Z</time>
      </trkpt>
      <trkpt lat="44.42663" lon="6.89013">
        <ele>1933</ele>
        <time>2022-03-09T16:10:24.000Z</time>
      </trkpt>
      <trkpt lat="44.42665" lon="6.89013">
        <ele>1932.8000488281</ele>
        <time>2022-03-09T16:10:26.000Z</time>
      </trkpt>
      <trkpt lat="44.42668" lon="6.89015">
        <ele>1932.8000488281</ele>
        <time>2022-03-09T16:10:28.000Z</time>
      </trkpt>
      <trkpt lat="44.42678" lon="6.89025">
        <ele>1932</ele>
        <time>2022-03-09T16:10:38.000Z</time>
      </trkpt>
      <trkpt lat="44.42682" lon="6.8903">
        <ele>1931.8000488281</ele>
        <time>2022-03-09T16:10:43.000Z</time>
      </trkpt>
      <trkpt lat="44.42684" lon="6.89031">
        <ele>1931.8000488281</ele>
        <time>2022-03-09T16:10:45.000Z</time>
      </trkpt>
      <trkpt lat="44.42691" lon="6.89036">
        <ele>1930.8000488281</ele>
        <time>2022-03-09T16:10:53.000Z</time>
      </trkpt>
      <trkpt lat="44.42693" lon="6.89038">
        <ele>1930.8000488281</ele>
        <time>2022-03-09T16:10:55.000Z</time>
      </trkpt>
      <trkpt lat="44.427" lon="6.89048">
        <ele>1930</ele>
        <time>2022-03-09T16:11:03.000Z</time>
      </trkpt>
      <trkpt lat="44.42701" lon="6.89051">
        <ele>1929.8000488281</ele>
        <time>2022-03-09T16:11:06.000Z</time>
      </trkpt>
      <trkpt lat="44.42701" lon="6.89051">
        <ele>1929.8000488281</ele>
        <time>2022-03-09T16:11:07.000Z</time>
      </trkpt>
      <trkpt lat="44.42704" lon="6.89058">
        <ele>1929.5999755859</ele>
        <time>2022-03-09T16:11:12.000Z</time>
      </trkpt>
      <trkpt lat="44.42708" lon="6.89066">
        <ele>1928.5999755859</ele>
        <time>2022-03-09T16:11:20.000Z</time>
      </trkpt>
      <trkpt lat="44.42709" lon="6.89068">
        <ele>1928.5999755859</ele>
        <time>2022-03-09T16:11:21.000Z</time>
      </trkpt>
      <trkpt lat="44.42715" lon="6.89078">
        <ele>1927.5999755859</ele>
        <time>2022-03-09T16:11:29.000Z</time>
      </trkpt>
      <trkpt lat="44.42717" lon="6.89081">
        <ele>1927.1999511719</ele>
        <time>2022-03-09T16:11:31.000Z</time>
      </trkpt>
      <trkpt lat="44.42721" lon="6.8909">
        <ele>1926.5999755859</ele>
        <time>2022-03-09T16:11:36.000Z</time>
      </trkpt>
      <trkpt lat="44.42727" lon="6.89096">
        <ele>1926</ele>
        <time>2022-03-09T16:11:41.000Z</time>
      </trkpt>
      <trkpt lat="44.42735" lon="6.89098">
        <ele>1925.8000488281</ele>
        <time>2022-03-09T16:11:49.000Z</time>
      </trkpt>
      <trkpt lat="44.42736" lon="6.89098">
        <ele>1925.8000488281</ele>
        <time>2022-03-09T16:11:50.000Z</time>
      </trkpt>
      <trkpt lat="44.42737" lon="6.89098">
        <ele>1926.1999511719</ele>
        <time>2022-03-09T16:11:52.000Z</time>
      </trkpt>
      <trkpt lat="44.42738" lon="6.89098">
        <ele>1926.8000488281</ele>
        <time>2022-03-09T16:11:55.000Z</time>
      </trkpt>
      <trkpt lat="44.42739" lon="6.89097">
        <ele>1927.5999755859</ele>
        <time>2022-03-09T16:11:59.000Z</time>
      </trkpt>
      <trkpt lat="44.4274" lon="6.89096">
        <ele>1928</ele>
        <time>2022-03-09T16:12:01.000Z</time>
      </trkpt>
      <trkpt lat="44.42742" lon="6.89095">
        <ele>1928.8000488281</ele>
        <time>2022-03-09T16:12:04.000Z</time>
      </trkpt>
      <trkpt lat="44.42744" lon="6.89097">
        <ele>1929</ele>
        <time>2022-03-09T16:12:07.000Z</time>
      </trkpt>
      <trkpt lat="44.42746" lon="6.89098">
        <ele>1930</ele>
        <time>2022-03-09T16:12:11.000Z</time>
      </trkpt>
      <trkpt lat="44.42747" lon="6.89097">
        <ele>1930.4000244141</ele>
        <time>2022-03-09T16:12:13.000Z</time>
      </trkpt>
      <trkpt lat="44.42748" lon="6.89096">
        <ele>1931.1999511719</ele>
        <time>2022-03-09T16:12:17.000Z</time>
      </trkpt>
      <trkpt lat="44.4275" lon="6.89096">
        <ele>1932</ele>
        <time>2022-03-09T16:12:21.000Z</time>
      </trkpt>
      <trkpt lat="44.4275" lon="6.89096">
        <ele>1932.1999511719</ele>
        <time>2022-03-09T16:12:22.000Z</time>
      </trkpt>
      <trkpt lat="44.42751" lon="6.89094">
        <ele>1932.5999755859</ele>
        <time>2022-03-09T16:12:24.000Z</time>
      </trkpt>
      <trkpt lat="44.42751" lon="6.89091">
        <ele>1933</ele>
        <time>2022-03-09T16:12:27.000Z</time>
      </trkpt>
      <trkpt lat="44.4275" lon="6.89087">
        <ele>1933.4000244141</ele>
        <time>2022-03-09T16:12:30.000Z</time>
      </trkpt>
      <trkpt lat="44.42751" lon="6.89077">
        <ele>1933.5999755859</ele>
        <time>2022-03-09T16:12:37.000Z</time>
      </trkpt>
      <trkpt lat="44.42747" lon="6.89067">
        <ele>1934.1999511719</ele>
        <time>2022-03-09T16:12:47.000Z</time>
      </trkpt>
      <trkpt lat="44.42747" lon="6.89062">
        <ele>1934.4000244141</ele>
        <time>2022-03-09T16:12:50.000Z</time>
      </trkpt>
      <trkpt lat="44.42748" lon="6.89055">
        <ele>1935.4000244141</ele>
        <time>2022-03-09T16:12:56.000Z</time>
      </trkpt>
      <trkpt lat="44.42748" lon="6.89054">
        <ele>1935.4000244141</ele>
        <time>2022-03-09T16:12:57.000Z</time>
      </trkpt>
      <trkpt lat="44.42749" lon="6.89052">
        <ele>1935.5999755859</ele>
        <time>2022-03-09T16:12:58.000Z</time>
      </trkpt>
      <trkpt lat="44.42753" lon="6.89051">
        <ele>1936.4000244141</ele>
        <time>2022-03-09T16:13:02.000Z</time>
      </trkpt>
      <trkpt lat="44.42753" lon="6.89051">
        <ele>1936.5999755859</ele>
        <time>2022-03-09T16:13:03.000Z</time>
      </trkpt>
      <trkpt lat="44.42754" lon="6.89053">
        <ele>1936.8000488281</ele>
        <time>2022-03-09T16:13:04.000Z</time>
      </trkpt>
      <trkpt lat="44.42755" lon="6.89058">
        <ele>1937.1999511719</ele>
        <time>2022-03-09T16:13:08.000Z</time>
      </trkpt>
      <trkpt lat="44.42757" lon="6.89065">
        <ele>1937.4000244141</ele>
        <time>2022-03-09T16:13:13.000Z</time>
      </trkpt>
      <trkpt lat="44.42758" lon="6.89067">
        <ele>1937.4000244141</ele>
        <time>2022-03-09T16:13:15.000Z</time>
      </trkpt>
      <trkpt lat="44.42759" lon="6.89072">
        <ele>1937.5999755859</ele>
        <time>2022-03-09T16:13:18.000Z</time>
      </trkpt>
      <trkpt lat="44.4276" lon="6.89078">
        <ele>1938</ele>
        <time>2022-03-09T16:13:22.000Z</time>
      </trkpt>
      <trkpt lat="44.42761" lon="6.8909">
        <ele>1938.4000244141</ele>
        <time>2022-03-09T16:13:30.000Z</time>
      </trkpt>
      <trkpt lat="44.4276" lon="6.89097">
        <ele>1938.5999755859</ele>
        <time>2022-03-09T16:13:34.000Z</time>
      </trkpt>
      <trkpt lat="44.4276" lon="6.89099">
        <ele>1938.5999755859</ele>
        <time>2022-03-09T16:13:35.000Z</time>
      </trkpt>
      <trkpt lat="44.42761" lon="6.89103">
        <ele>1938.5999755859</ele>
        <time>2022-03-09T16:13:37.000Z</time>
      </trkpt>
      <trkpt lat="44.42761" lon="6.89104">
        <ele>1938.8000488281</ele>
        <time>2022-03-09T16:13:38.000Z</time>
      </trkpt>
      <trkpt lat="44.42759" lon="6.89114">
        <ele>1939.1999511719</ele>
        <time>2022-03-09T16:13:44.000Z</time>
      </trkpt>
      <trkpt lat="44.42758" lon="6.89124">
        <ele>1939.5999755859</ele>
        <time>2022-03-09T16:13:50.000Z</time>
      </trkpt>
      <trkpt lat="44.4276" lon="6.89125">
        <ele>1939.5999755859</ele>
        <time>2022-03-09T16:13:51.000Z</time>
      </trkpt>
      <trkpt lat="44.4276" lon="6.89127">
        <ele>1939.8000488281</ele>
        <time>2022-03-09T16:13:52.000Z</time>
      </trkpt>
      <trkpt lat="44.42759" lon="6.89129">
        <ele>1939.8000488281</ele>
        <time>2022-03-09T16:13:53.000Z</time>
      </trkpt>
      <trkpt lat="44.42756" lon="6.89142">
        <ele>1940.4000244141</ele>
        <time>2022-03-09T16:14:01.000Z</time>
      </trkpt>
      <trkpt lat="44.42757" lon="6.89143">
        <ele>1940.5999755859</ele>
        <time>2022-03-09T16:14:02.000Z</time>
      </trkpt>
      <trkpt lat="44.42756" lon="6.89145">
        <ele>1940.8000488281</ele>
        <time>2022-03-09T16:14:03.000Z</time>
      </trkpt>
      <trkpt lat="44.42756" lon="6.89147">
        <ele>1940.8000488281</ele>
        <time>2022-03-09T16:14:04.000Z</time>
      </trkpt>
      <trkpt lat="44.42753" lon="6.89155">
        <ele>1941</ele>
        <time>2022-03-09T16:14:09.000Z</time>
      </trkpt>
      <trkpt lat="44.4275" lon="6.89166">
        <ele>1941.5999755859</ele>
        <time>2022-03-09T16:14:16.000Z</time>
      </trkpt>
      <trkpt lat="44.42747" lon="6.89174">
        <ele>1941.8000488281</ele>
        <time>2022-03-09T16:14:21.000Z</time>
      </trkpt>
      <trkpt lat="44.42744" lon="6.89182">
        <ele>1942.4000244141</ele>
        <time>2022-03-09T16:14:26.000Z</time>
      </trkpt>
      <trkpt lat="44.42741" lon="6.89193">
        <ele>1942.8000488281</ele>
        <time>2022-03-09T16:14:33.000Z</time>
      </trkpt>
      <trkpt lat="44.4274" lon="6.89196">
        <ele>1943</ele>
        <time>2022-03-09T16:14:35.000Z</time>
      </trkpt>
      <trkpt lat="44.42736" lon="6.89214">
        <ele>1943.8000488281</ele>
        <time>2022-03-09T16:14:45.000Z</time>
      </trkpt>
      <trkpt lat="44.42735" lon="6.89217">
        <ele>1944</ele>
        <time>2022-03-09T16:14:47.000Z</time>
      </trkpt>
      <trkpt lat="44.42732" lon="6.89225">
        <ele>1944</ele>
        <time>2022-03-09T16:14:52.000Z</time>
      </trkpt>
      <trkpt lat="44.42724" lon="6.8924">
        <ele>1944.5999755859</ele>
        <time>2022-03-09T16:15:04.000Z</time>
      </trkpt>
      <trkpt lat="44.42718" lon="6.89253">
        <ele>1945</ele>
        <time>2022-03-09T16:15:15.000Z</time>
      </trkpt>
      <trkpt lat="44.42717" lon="6.89255">
        <ele>1945</ele>
        <time>2022-03-09T16:15:17.000Z</time>
      </trkpt>
    </trkseg>
  </trk>
</gpx>